<?xml version="1.0" encoding="UTF-8"?><gpx xmlns="http://www.topografix.com/GPX/1/1" xmlns:xsi="http://www.w3.org/2001/XMLSchema-instance" creator="komoot gpx writer" version="1.1" xsi:schemaLocation="http://www.topografix.com/GPX/1/1 http://www.topografix.com/GPX/1/1/gpx.xsd">

	<metadata>
		<name>(2014-02-16) - Spandau - Börnicke - Hennigsdorf - Neukölln</name>
		<desc/>
		<link href="http://www.komoot.de">
			<text>komoot homepage</text>
			<type>text/html</type>
		</link>
	</metadata>
	
<trk>
<name>(2014-02-16) - Spandau - Börnicke - Hennigsdorf - Neukölln</name>
<trkseg>
<trkpt lat="52.53538131713867" lon="13.198248863220215">
<ele>68.69999694824219</ele>
<time>2014-02-15T14:40:23Z</time>
</trkpt>
<trkpt lat="52.53542709350586" lon="13.198234558105469">
<ele>70.0999984741211</ele>
<time>2014-02-15T14:40:27Z</time>
</trkpt>
<trkpt lat="52.535484313964844" lon="13.198198318481445">
<ele>69.0</ele>
<time>2014-02-15T14:40:30Z</time>
</trkpt>
<trkpt lat="52.5355110168457" lon="13.19813346862793">
<ele>68.80000305175781</ele>
<time>2014-02-15T14:40:32Z</time>
</trkpt>
<trkpt lat="52.535560607910156" lon="13.198152542114258">
<ele>67.19999694824219</ele>
<time>2014-02-15T14:40:34Z</time>
</trkpt>
<trkpt lat="52.535614013671875" lon="13.19819450378418">
<ele>66.9000015258789</ele>
<time>2014-02-15T14:40:35Z</time>
</trkpt>
<trkpt lat="52.535667419433594" lon="13.198206901550293">
<ele>68.19999694824219</ele>
<time>2014-02-15T14:40:39Z</time>
</trkpt>
<trkpt lat="52.53572463989258" lon="13.198151588439941">
<ele>68.69999694824219</ele>
<time>2014-02-15T14:40:41Z</time>
</trkpt>
<trkpt lat="52.53574752807617" lon="13.198083877563477">
<ele>69.5999984741211</ele>
<time>2014-02-15T14:40:45Z</time>
</trkpt>
<trkpt lat="52.53584289550781" lon="13.19811725616455">
<ele>70.80000305175781</ele>
<time>2014-02-15T14:40:45Z</time>
</trkpt>
<trkpt lat="52.53593826293945" lon="13.198087692260742">
<ele>71.9000015258789</ele>
<time>2014-02-15T14:40:48Z</time>
</trkpt>
<trkpt lat="52.536006927490234" lon="13.19809341430664">
<ele>72.0</ele>
<time>2014-02-15T14:40:49Z</time>
</trkpt>
<trkpt lat="52.53605651855469" lon="13.1980619430542">
<ele>71.5</ele>
<time>2014-02-15T14:40:50Z</time>
</trkpt>
<trkpt lat="52.5361442565918" lon="13.198075294494629">
<ele>71.5999984741211</ele>
<time>2014-02-15T14:40:52Z</time>
</trkpt>
<trkpt lat="52.536216735839844" lon="13.198057174682617">
<ele>70.80000305175781</ele>
<time>2014-02-15T14:40:54Z</time>
</trkpt>
<trkpt lat="52.53627014160156" lon="13.198054313659668">
<ele>70.69999694824219</ele>
<time>2014-02-15T14:40:55Z</time>
</trkpt>
<trkpt lat="52.536319732666016" lon="13.198042869567871">
<ele>71.0</ele>
<time>2014-02-15T14:40:56Z</time>
</trkpt>
<trkpt lat="52.5363883972168" lon="13.198007583618164">
<ele>70.5</ele>
<time>2014-02-15T14:40:58Z</time>
</trkpt>
<trkpt lat="52.53643798828125" lon="13.19798755645752">
<ele>70.30000305175781</ele>
<time>2014-02-15T14:40:59Z</time>
</trkpt>
<trkpt lat="52.53647994995117" lon="13.197968482971191">
<ele>70.4000015258789</ele>
<time>2014-02-15T14:41:00Z</time>
</trkpt>
<trkpt lat="52.53656005859375" lon="13.197932243347168">
<ele>69.5</ele>
<time>2014-02-15T14:41:02Z</time>
</trkpt>
<trkpt lat="52.53660583496094" lon="13.197916030883789">
<ele>69.5</ele>
<time>2014-02-15T14:41:03Z</time>
</trkpt>
<trkpt lat="52.53665542602539" lon="13.19789981842041">
<ele>70.0999984741211</ele>
<time>2014-02-15T14:41:04Z</time>
</trkpt>
<trkpt lat="52.5367317199707" lon="13.197847366333008">
<ele>70.5</ele>
<time>2014-02-15T14:41:06Z</time>
</trkpt>
<trkpt lat="52.53683090209961" lon="13.19782829284668">
<ele>69.5999984741211</ele>
<time>2014-02-15T14:41:08Z</time>
</trkpt>
<trkpt lat="52.53689956665039" lon="13.197781562805176">
<ele>69.69999694824219</ele>
<time>2014-02-15T14:41:10Z</time>
</trkpt>
<trkpt lat="52.53693771362305" lon="13.197745323181152">
<ele>70.30000305175781</ele>
<time>2014-02-15T14:41:11Z</time>
</trkpt>
<trkpt lat="52.53701400756836" lon="13.197671890258789">
<ele>71.9000015258789</ele>
<time>2014-02-15T14:41:13Z</time>
</trkpt>
<trkpt lat="52.537113189697266" lon="13.197628021240234">
<ele>71.0999984741211</ele>
<time>2014-02-15T14:41:15Z</time>
</trkpt>
<trkpt lat="52.537208557128906" lon="13.197559356689453">
<ele>71.30000305175781</ele>
<time>2014-02-15T14:41:17Z</time>
</trkpt>
<trkpt lat="52.53725051879883" lon="13.19752311706543">
<ele>71.69999694824219</ele>
<time>2014-02-15T14:41:18Z</time>
</trkpt>
<trkpt lat="52.53728485107422" lon="13.197479248046875">
<ele>72.0</ele>
<time>2014-02-15T14:41:19Z</time>
</trkpt>
<trkpt lat="52.53734588623047" lon="13.197403907775879">
<ele>73.5999984741211</ele>
<time>2014-02-15T14:41:21Z</time>
</trkpt>
<trkpt lat="52.53744888305664" lon="13.197364807128906">
<ele>78.19999694824219</ele>
<time>2014-02-15T14:41:22Z</time>
</trkpt>
<trkpt lat="52.537498474121094" lon="13.197319030761719">
<ele>80.19999694824219</ele>
<time>2014-02-15T14:41:23Z</time>
</trkpt>
<trkpt lat="52.53754425048828" lon="13.197264671325684">
<ele>81.9000015258789</ele>
<time>2014-02-15T14:41:24Z</time>
</trkpt>
<trkpt lat="52.53761291503906" lon="13.197173118591309">
<ele>82.5</ele>
<time>2014-02-15T14:41:26Z</time>
</trkpt>
<trkpt lat="52.53767013549805" lon="13.197065353393555">
<ele>81.0</ele>
<time>2014-02-15T14:41:28Z</time>
</trkpt>
<trkpt lat="52.5377082824707" lon="13.19700813293457">
<ele>81.0999984741211</ele>
<time>2014-02-15T14:41:29Z</time>
</trkpt>
<trkpt lat="52.53773498535156" lon="13.196952819824219">
<ele>81.5</ele>
<time>2014-02-15T14:41:30Z</time>
</trkpt>
<trkpt lat="52.53776931762695" lon="13.196879386901855">
<ele>81.9000015258789</ele>
<time>2014-02-15T14:41:31Z</time>
</trkpt>
<trkpt lat="52.537742614746094" lon="13.19680404663086">
<ele>81.0999984741211</ele>
<time>2014-02-15T14:41:32Z</time>
</trkpt>
<trkpt lat="52.53777313232422" lon="13.196688652038574">
<ele>79.5999984741211</ele>
<time>2014-02-15T14:41:35Z</time>
</trkpt>
<trkpt lat="52.53779602050781" lon="13.19662094116211">
<ele>79.30000305175781</ele>
<time>2014-02-15T14:41:36Z</time>
</trkpt>
<trkpt lat="52.53778076171875" lon="13.19654655456543">
<ele>75.5999984741211</ele>
<time>2014-02-15T14:41:40Z</time>
</trkpt>
<trkpt lat="52.53779602050781" lon="13.196462631225586">
<ele>75.0999984741211</ele>
<time>2014-02-15T14:41:47Z</time>
</trkpt>
<trkpt lat="52.537837982177734" lon="13.19638729095459">
<ele>73.9000015258789</ele>
<time>2014-02-15T14:41:49Z</time>
</trkpt>
<trkpt lat="52.53787612915039" lon="13.196319580078125">
<ele>74.0</ele>
<time>2014-02-15T14:41:51Z</time>
</trkpt>
<trkpt lat="52.537933349609375" lon="13.196146965026855">
<ele>73.19999694824219</ele>
<time>2014-02-15T14:41:53Z</time>
</trkpt>
<trkpt lat="52.53795623779297" lon="13.196080207824707">
<ele>73.19999694824219</ele>
<time>2014-02-15T14:41:55Z</time>
</trkpt>
<trkpt lat="52.53797912597656" lon="13.195937156677246">
<ele>72.4000015258789</ele>
<time>2014-02-15T14:41:57Z</time>
</trkpt>
<trkpt lat="52.537994384765625" lon="13.1958646774292">
<ele>72.0</ele>
<time>2014-02-15T14:41:58Z</time>
</trkpt>
<trkpt lat="52.53800964355469" lon="13.19579029083252">
<ele>71.69999694824219</ele>
<time>2014-02-15T14:41:59Z</time>
</trkpt>
<trkpt lat="52.538055419921875" lon="13.19573974609375">
<ele>72.4000015258789</ele>
<time>2014-02-15T14:42:00Z</time>
</trkpt>
<trkpt lat="52.538082122802734" lon="13.195666313171387">
<ele>72.30000305175781</ele>
<time>2014-02-15T14:42:01Z</time>
</trkpt>
<trkpt lat="52.538108825683594" lon="13.19559383392334">
<ele>72.5999984741211</ele>
<time>2014-02-15T14:42:02Z</time>
</trkpt>
<trkpt lat="52.53818130493164" lon="13.195505142211914">
<ele>71.0999984741211</ele>
<time>2014-02-15T14:42:04Z</time>
</trkpt>
<trkpt lat="52.53822326660156" lon="13.195446968078613">
<ele>70.69999694824219</ele>
<time>2014-02-15T14:42:05Z</time>
</trkpt>
<trkpt lat="52.53826141357422" lon="13.195383071899414">
<ele>69.80000305175781</ele>
<time>2014-02-15T14:42:06Z</time>
</trkpt>
<trkpt lat="52.538299560546875" lon="13.195257186889648">
<ele>70.0999984741211</ele>
<time>2014-02-15T14:42:08Z</time>
</trkpt>
<trkpt lat="52.538333892822266" lon="13.19519329071045">
<ele>70.4000015258789</ele>
<time>2014-02-15T14:42:09Z</time>
</trkpt>
<trkpt lat="52.538360595703125" lon="13.195134162902832">
<ele>71.0999984741211</ele>
<time>2014-02-15T14:42:10Z</time>
</trkpt>
<trkpt lat="52.538387298583984" lon="13.195072174072266">
<ele>71.4000015258789</ele>
<time>2014-02-15T14:42:11Z</time>
</trkpt>
<trkpt lat="52.538448333740234" lon="13.194961547851562">
<ele>70.80000305175781</ele>
<time>2014-02-15T14:42:13Z</time>
</trkpt>
<trkpt lat="52.538475036621094" lon="13.19489860534668">
<ele>70.80000305175781</ele>
<time>2014-02-15T14:42:14Z</time>
</trkpt>
<trkpt lat="52.538516998291016" lon="13.19477653503418">
<ele>70.4000015258789</ele>
<time>2014-02-15T14:42:16Z</time>
</trkpt>
<trkpt lat="52.53855895996094" lon="13.194644927978516">
<ele>70.5</ele>
<time>2014-02-15T14:42:18Z</time>
</trkpt>
<trkpt lat="52.53858184814453" lon="13.194579124450684">
<ele>70.4000015258789</ele>
<time>2014-02-15T14:42:19Z</time>
</trkpt>
<trkpt lat="52.53860855102539" lon="13.194511413574219">
<ele>70.5</ele>
<time>2014-02-15T14:42:20Z</time>
</trkpt>
<trkpt lat="52.5386962890625" lon="13.19447135925293">
<ele>70.19999694824219</ele>
<time>2014-02-15T14:42:22Z</time>
</trkpt>
<trkpt lat="52.538780212402344" lon="13.1943998336792">
<ele>64.0999984741211</ele>
<time>2014-02-15T14:42:24Z</time>
</trkpt>
<trkpt lat="52.538848876953125" lon="13.19432258605957">
<ele>62.5</ele>
<time>2014-02-15T14:42:26Z</time>
</trkpt>
<trkpt lat="52.53892517089844" lon="13.194238662719727">
<ele>61.900001525878906</ele>
<time>2014-02-15T14:42:28Z</time>
</trkpt>
<trkpt lat="52.53896713256836" lon="13.194204330444336">
<ele>62.29999923706055</ele>
<time>2014-02-15T14:42:29Z</time>
</trkpt>
<trkpt lat="52.53901290893555" lon="13.19415283203125">
<ele>62.099998474121094</ele>
<time>2014-02-15T14:42:30Z</time>
</trkpt>
<trkpt lat="52.5390625" lon="13.194107055664062">
<ele>62.099998474121094</ele>
<time>2014-02-15T14:42:31Z</time>
</trkpt>
<trkpt lat="52.539119720458984" lon="13.194046974182129">
<ele>62.0</ele>
<time>2014-02-15T14:42:32Z</time>
</trkpt>
<trkpt lat="52.5391731262207" lon="13.19400405883789">
<ele>62.20000076293945</ele>
<time>2014-02-15T14:42:33Z</time>
</trkpt>
<trkpt lat="52.53929901123047" lon="13.193984985351562">
<ele>63.79999923706055</ele>
<time>2014-02-15T14:42:34Z</time>
</trkpt>
<trkpt lat="52.53936004638672" lon="13.193951606750488">
<ele>63.5</ele>
<time>2014-02-15T14:42:35Z</time>
</trkpt>
<trkpt lat="52.5394287109375" lon="13.19392204284668">
<ele>63.0</ele>
<time>2014-02-15T14:42:36Z</time>
</trkpt>
<trkpt lat="52.539466857910156" lon="13.193868637084961">
<ele>63.5</ele>
<time>2014-02-15T14:42:37Z</time>
</trkpt>
<trkpt lat="52.539520263671875" lon="13.193831443786621">
<ele>62.79999923706055</ele>
<time>2014-02-15T14:42:38Z</time>
</trkpt>
<trkpt lat="52.53957748413086" lon="13.193779945373535">
<ele>62.70000076293945</ele>
<time>2014-02-15T14:42:39Z</time>
</trkpt>
<trkpt lat="52.53963851928711" lon="13.193727493286133">
<ele>64.4000015258789</ele>
<time>2014-02-15T14:42:40Z</time>
</trkpt>
<trkpt lat="52.53969192504883" lon="13.193683624267578">
<ele>64.9000015258789</ele>
<time>2014-02-15T14:42:41Z</time>
</trkpt>
<trkpt lat="52.539756774902344" lon="13.193648338317871">
<ele>66.69999694824219</ele>
<time>2014-02-15T14:42:42Z</time>
</trkpt>
<trkpt lat="52.53981018066406" lon="13.193608283996582">
<ele>67.0</ele>
<time>2014-02-15T14:42:43Z</time>
</trkpt>
<trkpt lat="52.53986358642578" lon="13.193559646606445">
<ele>67.4000015258789</ele>
<time>2014-02-15T14:42:43Z</time>
</trkpt>
<trkpt lat="52.5399169921875" lon="13.19350814819336">
<ele>67.5999984741211</ele>
<time>2014-02-15T14:42:45Z</time>
</trkpt>
<trkpt lat="52.53996658325195" lon="13.19345474243164">
<ele>67.9000015258789</ele>
<time>2014-02-15T14:42:46Z</time>
</trkpt>
<trkpt lat="52.54005432128906" lon="13.193413734436035">
<ele>70.19999694824219</ele>
<time>2014-02-15T14:42:47Z</time>
</trkpt>
<trkpt lat="52.54011917114258" lon="13.193363189697266">
<ele>71.30000305175781</ele>
<time>2014-02-15T14:42:48Z</time>
</trkpt>
<trkpt lat="52.54018020629883" lon="13.193312644958496">
<ele>72.4000015258789</ele>
<time>2014-02-15T14:42:49Z</time>
</trkpt>
<trkpt lat="52.540260314941406" lon="13.193253517150879">
<ele>69.80000305175781</ele>
<time>2014-02-15T14:42:51Z</time>
</trkpt>
<trkpt lat="52.54030990600586" lon="13.193216323852539">
<ele>70.0</ele>
<time>2014-02-15T14:42:52Z</time>
</trkpt>
<trkpt lat="52.54035949707031" lon="13.193180084228516">
<ele>70.0999984741211</ele>
<time>2014-02-15T14:42:53Z</time>
</trkpt>
<trkpt lat="52.54041290283203" lon="13.193136215209961">
<ele>70.4000015258789</ele>
<time>2014-02-15T14:42:54Z</time>
</trkpt>
<trkpt lat="52.54048538208008" lon="13.193074226379395">
<ele>70.30000305175781</ele>
<time>2014-02-15T14:42:56Z</time>
</trkpt>
<trkpt lat="52.54052734375" lon="13.193050384521484">
<ele>70.30000305175781</ele>
<time>2014-02-15T14:42:57Z</time>
</trkpt>
<trkpt lat="52.54058074951172" lon="13.193018913269043">
<ele>70.0999984741211</ele>
<time>2014-02-15T14:42:58Z</time>
</trkpt>
<trkpt lat="52.540618896484375" lon="13.19297981262207">
<ele>69.5999984741211</ele>
<time>2014-02-15T14:42:59Z</time>
</trkpt>
<trkpt lat="52.54071044921875" lon="13.192896842956543">
<ele>68.5</ele>
<time>2014-02-15T14:43:01Z</time>
</trkpt>
<trkpt lat="52.54075241088867" lon="13.192849159240723">
<ele>68.0999984741211</ele>
<time>2014-02-15T14:43:02Z</time>
</trkpt>
<trkpt lat="52.540802001953125" lon="13.192802429199219">
<ele>67.9000015258789</ele>
<time>2014-02-15T14:43:03Z</time>
</trkpt>
<trkpt lat="52.54084777832031" lon="13.192749977111816">
<ele>68.0</ele>
<time>2014-02-15T14:43:04Z</time>
</trkpt>
<trkpt lat="52.5408935546875" lon="13.192697525024414">
<ele>67.5999984741211</ele>
<time>2014-02-15T14:43:05Z</time>
</trkpt>
<trkpt lat="52.54094314575195" lon="13.192646026611328">
<ele>67.19999694824219</ele>
<time>2014-02-15T14:43:06Z</time>
</trkpt>
<trkpt lat="52.54098892211914" lon="13.192587852478027">
<ele>67.19999694824219</ele>
<time>2014-02-15T14:43:07Z</time>
</trkpt>
<trkpt lat="52.541038513183594" lon="13.19252872467041">
<ele>67.19999694824219</ele>
<time>2014-02-15T14:43:08Z</time>
</trkpt>
<trkpt lat="52.541099548339844" lon="13.192459106445312">
<ele>68.5</ele>
<time>2014-02-15T14:43:09Z</time>
</trkpt>
<trkpt lat="52.5411491394043" lon="13.192403793334961">
<ele>67.80000305175781</ele>
<time>2014-02-15T14:43:10Z</time>
</trkpt>
<trkpt lat="52.54119873046875" lon="13.19234561920166">
<ele>67.5999984741211</ele>
<time>2014-02-15T14:43:11Z</time>
</trkpt>
<trkpt lat="52.5412483215332" lon="13.192281723022461">
<ele>68.0</ele>
<time>2014-02-15T14:43:12Z</time>
</trkpt>
<trkpt lat="52.541290283203125" lon="13.19223690032959">
<ele>67.5</ele>
<time>2014-02-15T14:43:13Z</time>
</trkpt>
<trkpt lat="52.54133987426758" lon="13.192176818847656">
<ele>67.5</ele>
<time>2014-02-15T14:43:14Z</time>
</trkpt>
<trkpt lat="52.54138946533203" lon="13.192105293273926">
<ele>65.9000015258789</ele>
<time>2014-02-15T14:43:15Z</time>
</trkpt>
<trkpt lat="52.54143524169922" lon="13.19204044342041">
<ele>65.69999694824219</ele>
<time>2014-02-15T14:43:16Z</time>
</trkpt>
<trkpt lat="52.54148864746094" lon="13.191975593566895">
<ele>66.0</ele>
<time>2014-02-15T14:43:17Z</time>
</trkpt>
<trkpt lat="52.541534423828125" lon="13.191911697387695">
<ele>65.9000015258789</ele>
<time>2014-02-15T14:43:18Z</time>
</trkpt>
<trkpt lat="52.54158401489258" lon="13.191855430603027">
<ele>65.5999984741211</ele>
<time>2014-02-15T14:43:19Z</time>
</trkpt>
<trkpt lat="52.541629791259766" lon="13.191795349121094">
<ele>65.5999984741211</ele>
<time>2014-02-15T14:43:20Z</time>
</trkpt>
<trkpt lat="52.54167556762695" lon="13.191742897033691">
<ele>65.19999694824219</ele>
<time>2014-02-15T14:43:21Z</time>
</trkpt>
<trkpt lat="52.541717529296875" lon="13.191679000854492">
<ele>65.30000305175781</ele>
<time>2014-02-15T14:43:22Z</time>
</trkpt>
<trkpt lat="52.541770935058594" lon="13.191627502441406">
<ele>64.69999694824219</ele>
<time>2014-02-15T14:43:23Z</time>
</trkpt>
<trkpt lat="52.54181671142578" lon="13.19156551361084">
<ele>64.80000305175781</ele>
<time>2014-02-15T14:43:24Z</time>
</trkpt>
<trkpt lat="52.541866302490234" lon="13.191506385803223">
<ele>64.69999694824219</ele>
<time>2014-02-15T14:43:25Z</time>
</trkpt>
<trkpt lat="52.54191207885742" lon="13.191444396972656">
<ele>64.5</ele>
<time>2014-02-15T14:43:26Z</time>
</trkpt>
<trkpt lat="52.54197311401367" lon="13.191381454467773">
<ele>65.0999984741211</ele>
<time>2014-02-15T14:43:27Z</time>
</trkpt>
<trkpt lat="52.542022705078125" lon="13.191335678100586">
<ele>65.0999984741211</ele>
<time>2014-02-15T14:43:28Z</time>
</trkpt>
<trkpt lat="52.54206466674805" lon="13.191278457641602">
<ele>64.69999694824219</ele>
<time>2014-02-15T14:43:29Z</time>
</trkpt>
<trkpt lat="52.542110443115234" lon="13.191219329833984">
<ele>64.80000305175781</ele>
<time>2014-02-15T14:43:30Z</time>
</trkpt>
<trkpt lat="52.54215621948242" lon="13.191163063049316">
<ele>65.19999694824219</ele>
<time>2014-02-15T14:43:31Z</time>
</trkpt>
<trkpt lat="52.54220199584961" lon="13.19111156463623">
<ele>65.80000305175781</ele>
<time>2014-02-15T14:43:32Z</time>
</trkpt>
<trkpt lat="52.542240142822266" lon="13.19101333618164">
<ele>65.9000015258789</ele>
<time>2014-02-15T14:43:34Z</time>
</trkpt>
<trkpt lat="52.54222869873047" lon="13.190933227539062">
<ele>65.5</ele>
<time>2014-02-15T14:43:36Z</time>
</trkpt>
<trkpt lat="52.54216766357422" lon="13.190835952758789">
<ele>65.4000015258789</ele>
<time>2014-02-15T14:43:38Z</time>
</trkpt>
<trkpt lat="52.54220962524414" lon="13.190720558166504">
<ele>65.4000015258789</ele>
<time>2014-02-15T14:43:40Z</time>
</trkpt>
<trkpt lat="52.54227066040039" lon="13.190622329711914">
<ele>65.5</ele>
<time>2014-02-15T14:43:42Z</time>
</trkpt>
<trkpt lat="52.542301177978516" lon="13.19056224822998">
<ele>65.4000015258789</ele>
<time>2014-02-15T14:43:43Z</time>
</trkpt>
<trkpt lat="52.54233169555664" lon="13.190497398376465">
<ele>65.4000015258789</ele>
<time>2014-02-15T14:43:44Z</time>
</trkpt>
<trkpt lat="52.542362213134766" lon="13.19042682647705">
<ele>65.19999694824219</ele>
<time>2014-02-15T14:43:45Z</time>
</trkpt>
<trkpt lat="52.542381286621094" lon="13.190350532531738">
<ele>65.19999694824219</ele>
<time>2014-02-15T14:43:46Z</time>
</trkpt>
<trkpt lat="52.54240798950195" lon="13.190271377563477">
<ele>65.4000015258789</ele>
<time>2014-02-15T14:43:47Z</time>
</trkpt>
<trkpt lat="52.54241943359375" lon="13.190189361572266">
<ele>65.5999984741211</ele>
<time>2014-02-15T14:43:48Z</time>
</trkpt>
<trkpt lat="52.542415618896484" lon="13.190109252929688">
<ele>65.80000305175781</ele>
<time>2014-02-15T14:43:49Z</time>
</trkpt>
<trkpt lat="52.54240798950195" lon="13.190028190612793">
<ele>65.4000015258789</ele>
<time>2014-02-15T14:43:50Z</time>
</trkpt>
<trkpt lat="52.54240036010742" lon="13.189946174621582">
<ele>65.30000305175781</ele>
<time>2014-02-15T14:43:51Z</time>
</trkpt>
<trkpt lat="52.54239273071289" lon="13.189864158630371">
<ele>65.19999694824219</ele>
<time>2014-02-15T14:43:52Z</time>
</trkpt>
<trkpt lat="52.542388916015625" lon="13.189784049987793">
<ele>65.19999694824219</ele>
<time>2014-02-15T14:43:53Z</time>
</trkpt>
<trkpt lat="52.542388916015625" lon="13.189702987670898">
<ele>64.9000015258789</ele>
<time>2014-02-15T14:43:54Z</time>
</trkpt>
<trkpt lat="52.542388916015625" lon="13.189624786376953">
<ele>64.80000305175781</ele>
<time>2014-02-15T14:43:55Z</time>
</trkpt>
<trkpt lat="52.54239273071289" lon="13.189543724060059">
<ele>64.69999694824219</ele>
<time>2014-02-15T14:43:56Z</time>
</trkpt>
<trkpt lat="52.54240417480469" lon="13.189460754394531">
<ele>64.80000305175781</ele>
<time>2014-02-15T14:43:57Z</time>
</trkpt>
<trkpt lat="52.54241943359375" lon="13.189387321472168">
<ele>64.69999694824219</ele>
<time>2014-02-15T14:43:58Z</time>
</trkpt>
<trkpt lat="52.54243469238281" lon="13.189318656921387">
<ele>64.5</ele>
<time>2014-02-15T14:43:59Z</time>
</trkpt>
<trkpt lat="52.542457580566406" lon="13.189238548278809">
<ele>64.5</ele>
<time>2014-02-15T14:44:00Z</time>
</trkpt>
<trkpt lat="52.542476654052734" lon="13.189167976379395">
<ele>64.5999984741211</ele>
<time>2014-02-15T14:44:01Z</time>
</trkpt>
<trkpt lat="52.54249954223633" lon="13.189090728759766">
<ele>65.19999694824219</ele>
<time>2014-02-15T14:44:02Z</time>
</trkpt>
<trkpt lat="52.54254150390625" lon="13.188969612121582">
<ele>65.0</ele>
<time>2014-02-15T14:44:04Z</time>
</trkpt>
<trkpt lat="52.5426139831543" lon="13.188840866088867">
<ele>65.30000305175781</ele>
<time>2014-02-15T14:44:07Z</time>
</trkpt>
<trkpt lat="52.54264450073242" lon="13.18876838684082">
<ele>63.900001525878906</ele>
<time>2014-02-15T14:44:09Z</time>
</trkpt>
<trkpt lat="52.5426139831543" lon="13.188652038574219">
<ele>63.79999923706055</ele>
<time>2014-02-15T14:44:11Z</time>
</trkpt>
<trkpt lat="52.542564392089844" lon="13.188533782958984">
<ele>64.0999984741211</ele>
<time>2014-02-15T14:44:13Z</time>
</trkpt>
<trkpt lat="52.54249572753906" lon="13.188416481018066">
<ele>64.0999984741211</ele>
<time>2014-02-15T14:44:15Z</time>
</trkpt>
<trkpt lat="52.542442321777344" lon="13.188299179077148">
<ele>62.79999923706055</ele>
<time>2014-02-15T14:44:17Z</time>
</trkpt>
<trkpt lat="52.54240798950195" lon="13.18822193145752">
<ele>63.0</ele>
<time>2014-02-15T14:44:18Z</time>
</trkpt>
<trkpt lat="52.54237365722656" lon="13.188157081604004">
<ele>63.0</ele>
<time>2014-02-15T14:44:19Z</time>
</trkpt>
<trkpt lat="52.54234313964844" lon="13.188097953796387">
<ele>63.099998474121094</ele>
<time>2014-02-15T14:44:20Z</time>
</trkpt>
<trkpt lat="52.54231643676758" lon="13.188027381896973">
<ele>62.29999923706055</ele>
<time>2014-02-15T14:44:21Z</time>
</trkpt>
<trkpt lat="52.54228210449219" lon="13.187960624694824">
<ele>62.599998474121094</ele>
<time>2014-02-15T14:44:22Z</time>
</trkpt>
<trkpt lat="52.54224395751953" lon="13.18790054321289">
<ele>62.70000076293945</ele>
<time>2014-02-15T14:44:23Z</time>
</trkpt>
<trkpt lat="52.542213439941406" lon="13.187843322753906">
<ele>62.29999923706055</ele>
<time>2014-02-15T14:44:24Z</time>
</trkpt>
<trkpt lat="52.542179107666016" lon="13.187767028808594">
<ele>63.0</ele>
<time>2014-02-15T14:44:25Z</time>
</trkpt>
<trkpt lat="52.54214096069336" lon="13.187691688537598">
<ele>63.400001525878906</ele>
<time>2014-02-15T14:44:26Z</time>
</trkpt>
<trkpt lat="52.542110443115234" lon="13.187628746032715">
<ele>63.400001525878906</ele>
<time>2014-02-15T14:44:27Z</time>
</trkpt>
<trkpt lat="52.54207992553711" lon="13.187560081481934">
<ele>63.79999923706055</ele>
<time>2014-02-15T14:44:28Z</time>
</trkpt>
<trkpt lat="52.54204559326172" lon="13.187507629394531">
<ele>64.4000015258789</ele>
<time>2014-02-15T14:44:29Z</time>
</trkpt>
<trkpt lat="52.54201126098633" lon="13.187450408935547">
<ele>64.5999984741211</ele>
<time>2014-02-15T14:44:30Z</time>
</trkpt>
<trkpt lat="52.54195022583008" lon="13.187321662902832">
<ele>63.29999923706055</ele>
<time>2014-02-15T14:44:32Z</time>
</trkpt>
<trkpt lat="52.54191589355469" lon="13.187263488769531">
<ele>63.599998474121094</ele>
<time>2014-02-15T14:44:33Z</time>
</trkpt>
<trkpt lat="52.5418815612793" lon="13.187201499938965">
<ele>63.70000076293945</ele>
<time>2014-02-15T14:44:34Z</time>
</trkpt>
<trkpt lat="52.54185104370117" lon="13.187126159667969">
<ele>62.70000076293945</ele>
<time>2014-02-15T14:44:35Z</time>
</trkpt>
<trkpt lat="52.54180145263672" lon="13.187003135681152">
<ele>61.79999923706055</ele>
<time>2014-02-15T14:44:37Z</time>
</trkpt>
<trkpt lat="52.54177474975586" lon="13.186935424804688">
<ele>60.599998474121094</ele>
<time>2014-02-15T14:44:38Z</time>
</trkpt>
<trkpt lat="52.541744232177734" lon="13.18686580657959">
<ele>60.900001525878906</ele>
<time>2014-02-15T14:44:38Z</time>
</trkpt>
<trkpt lat="52.541709899902344" lon="13.186783790588379">
<ele>60.900001525878906</ele>
<time>2014-02-15T14:44:40Z</time>
</trkpt>
<trkpt lat="52.54167175292969" lon="13.186718940734863">
<ele>60.900001525878906</ele>
<time>2014-02-15T14:44:41Z</time>
</trkpt>
<trkpt lat="52.54163360595703" lon="13.186651229858398">
<ele>61.099998474121094</ele>
<time>2014-02-15T14:44:42Z</time>
</trkpt>
<trkpt lat="52.541603088378906" lon="13.18657398223877">
<ele>60.5</ele>
<time>2014-02-15T14:44:43Z</time>
</trkpt>
<trkpt lat="52.541568756103516" lon="13.186509132385254">
<ele>60.29999923706055</ele>
<time>2014-02-15T14:44:44Z</time>
</trkpt>
<trkpt lat="52.54153060913086" lon="13.18643569946289">
<ele>60.400001525878906</ele>
<time>2014-02-15T14:44:45Z</time>
</trkpt>
<trkpt lat="52.541507720947266" lon="13.18636703491211">
<ele>59.29999923706055</ele>
<time>2014-02-15T14:44:46Z</time>
</trkpt>
<trkpt lat="52.54148483276367" lon="13.186285972595215">
<ele>59.0</ele>
<time>2014-02-15T14:44:47Z</time>
</trkpt>
<trkpt lat="52.54147720336914" lon="13.186199188232422">
<ele>58.70000076293945</ele>
<time>2014-02-15T14:44:48Z</time>
</trkpt>
<trkpt lat="52.54147720336914" lon="13.186030387878418">
<ele>59.79999923706055</ele>
<time>2014-02-15T14:44:50Z</time>
</trkpt>
<trkpt lat="52.541473388671875" lon="13.185946464538574">
<ele>60.5</ele>
<time>2014-02-15T14:44:51Z</time>
</trkpt>
<trkpt lat="52.541481018066406" lon="13.185866355895996">
<ele>59.20000076293945</ele>
<time>2014-02-15T14:44:52Z</time>
</trkpt>
<trkpt lat="52.541481018066406" lon="13.185781478881836">
<ele>60.0</ele>
<time>2014-02-15T14:44:53Z</time>
</trkpt>
<trkpt lat="52.54148483276367" lon="13.185696601867676">
<ele>60.79999923706055</ele>
<time>2014-02-15T14:44:54Z</time>
</trkpt>
<trkpt lat="52.541481018066406" lon="13.185609817504883">
<ele>61.29999923706055</ele>
<time>2014-02-15T14:44:55Z</time>
</trkpt>
<trkpt lat="52.54148483276367" lon="13.185532569885254">
<ele>60.900001525878906</ele>
<time>2014-02-15T14:44:56Z</time>
</trkpt>
<trkpt lat="52.54148864746094" lon="13.185450553894043">
<ele>60.599998474121094</ele>
<time>2014-02-15T14:44:57Z</time>
</trkpt>
<trkpt lat="52.5414924621582" lon="13.185367584228516">
<ele>60.5</ele>
<time>2014-02-15T14:44:58Z</time>
</trkpt>
<trkpt lat="52.54148864746094" lon="13.185280799865723">
<ele>60.5</ele>
<time>2014-02-15T14:44:59Z</time>
</trkpt>
<trkpt lat="52.54148864746094" lon="13.18519115447998">
<ele>60.0</ele>
<time>2014-02-15T14:45:00Z</time>
</trkpt>
<trkpt lat="52.54148864746094" lon="13.185110092163086">
<ele>60.0</ele>
<time>2014-02-15T14:45:01Z</time>
</trkpt>
<trkpt lat="52.54148864746094" lon="13.185025215148926">
<ele>60.0</ele>
<time>2014-02-15T14:45:02Z</time>
</trkpt>
<trkpt lat="52.541481018066406" lon="13.1848726272583">
<ele>60.599998474121094</ele>
<time>2014-02-15T14:45:04Z</time>
</trkpt>
<trkpt lat="52.54147720336914" lon="13.184788703918457">
<ele>61.099998474121094</ele>
<time>2014-02-15T14:45:05Z</time>
</trkpt>
<trkpt lat="52.541481018066406" lon="13.184707641601562">
<ele>61.900001525878906</ele>
<time>2014-02-15T14:45:06Z</time>
</trkpt>
<trkpt lat="52.54148483276367" lon="13.184630393981934">
<ele>61.900001525878906</ele>
<time>2014-02-15T14:45:07Z</time>
</trkpt>
<trkpt lat="52.54148864746094" lon="13.184542655944824">
<ele>61.5</ele>
<time>2014-02-15T14:45:07Z</time>
</trkpt>
<trkpt lat="52.54148864746094" lon="13.184459686279297">
<ele>61.70000076293945</ele>
<time>2014-02-15T14:45:09Z</time>
</trkpt>
<trkpt lat="52.5414924621582" lon="13.184377670288086">
<ele>62.099998474121094</ele>
<time>2014-02-15T14:45:10Z</time>
</trkpt>
<trkpt lat="52.54148864746094" lon="13.184288024902344">
<ele>62.099998474121094</ele>
<time>2014-02-15T14:45:11Z</time>
</trkpt>
<trkpt lat="52.541481018066406" lon="13.184188842773438">
<ele>62.900001525878906</ele>
<time>2014-02-15T14:45:12Z</time>
</trkpt>
<trkpt lat="52.54148483276367" lon="13.18410873413086">
<ele>63.099998474121094</ele>
<time>2014-02-15T14:45:13Z</time>
</trkpt>
<trkpt lat="52.54148864746094" lon="13.18403148651123">
<ele>62.70000076293945</ele>
<time>2014-02-15T14:45:14Z</time>
</trkpt>
<trkpt lat="52.541500091552734" lon="13.183956146240234">
<ele>62.70000076293945</ele>
<time>2014-02-15T14:45:15Z</time>
</trkpt>
<trkpt lat="52.54150390625" lon="13.18387222290039">
<ele>62.5</ele>
<time>2014-02-15T14:45:16Z</time>
</trkpt>
<trkpt lat="52.54152297973633" lon="13.183759689331055">
<ele>61.79999923706055</ele>
<time>2014-02-15T14:45:18Z</time>
</trkpt>
<trkpt lat="52.54152297973633" lon="13.183685302734375">
<ele>61.79999923706055</ele>
<time>2014-02-15T14:45:23Z</time>
</trkpt>
<trkpt lat="52.54148483276367" lon="13.183619499206543">
<ele>63.79999923706055</ele>
<time>2014-02-15T14:46:25Z</time>
</trkpt>
<trkpt lat="52.54145050048828" lon="13.183721542358398">
<ele>65.0999984741211</ele>
<time>2014-02-15T14:46:28Z</time>
</trkpt>
<trkpt lat="52.541473388671875" lon="13.183796882629395">
<ele>61.599998474121094</ele>
<time>2014-02-15T14:46:29Z</time>
</trkpt>
<trkpt lat="52.541465759277344" lon="13.183917999267578">
<ele>61.900001525878906</ele>
<time>2014-02-15T14:46:31Z</time>
</trkpt>
<trkpt lat="52.54145812988281" lon="13.184045791625977">
<ele>62.70000076293945</ele>
<time>2014-02-15T14:46:33Z</time>
</trkpt>
<trkpt lat="52.54145431518555" lon="13.184164047241211">
<ele>63.20000076293945</ele>
<time>2014-02-15T14:46:35Z</time>
</trkpt>
<trkpt lat="52.54145812988281" lon="13.184260368347168">
<ele>62.599998474121094</ele>
<time>2014-02-15T14:46:37Z</time>
</trkpt>
<trkpt lat="52.54145050048828" lon="13.184342384338379">
<ele>63.20000076293945</ele>
<time>2014-02-15T14:46:39Z</time>
</trkpt>
<trkpt lat="52.54145431518555" lon="13.184426307678223">
<ele>63.0</ele>
<time>2014-02-15T14:46:42Z</time>
</trkpt>
<trkpt lat="52.54145431518555" lon="13.184325218200684">
<ele>63.099998474121094</ele>
<time>2014-02-15T14:46:50Z</time>
</trkpt>
<trkpt lat="52.54145431518555" lon="13.184185028076172">
<ele>63.900001525878906</ele>
<time>2014-02-15T14:46:54Z</time>
</trkpt>
<trkpt lat="52.54144287109375" lon="13.183992385864258">
<ele>67.30000305175781</ele>
<time>2014-02-15T14:46:57Z</time>
</trkpt>
<trkpt lat="52.54146194458008" lon="13.183804512023926">
<ele>66.9000015258789</ele>
<time>2014-02-15T14:47:00Z</time>
</trkpt>
<trkpt lat="52.54148864746094" lon="13.183670997619629">
<ele>65.4000015258789</ele>
<time>2014-02-15T14:47:04Z</time>
</trkpt>
<trkpt lat="52.54148483276367" lon="13.183597564697266">
<ele>68.19999694824219</ele>
<time>2014-02-15T14:47:09Z</time>
</trkpt>
<trkpt lat="52.54149627685547" lon="13.183515548706055">
<ele>68.5</ele>
<time>2014-02-15T14:47:27Z</time>
</trkpt>
<trkpt lat="52.54155731201172" lon="13.183393478393555">
<ele>69.5</ele>
<time>2014-02-15T14:47:30Z</time>
</trkpt>
<trkpt lat="52.54156494140625" lon="13.183320999145508">
<ele>68.0</ele>
<time>2014-02-15T14:47:31Z</time>
</trkpt>
<trkpt lat="52.541595458984375" lon="13.183177947998047">
<ele>70.80000305175781</ele>
<time>2014-02-15T14:47:33Z</time>
</trkpt>
<trkpt lat="52.5416374206543" lon="13.183034896850586">
<ele>71.69999694824219</ele>
<time>2014-02-15T14:47:35Z</time>
</trkpt>
<trkpt lat="52.54166030883789" lon="13.182961463928223">
<ele>71.4000015258789</ele>
<time>2014-02-15T14:47:36Z</time>
</trkpt>
<trkpt lat="52.541690826416016" lon="13.182884216308594">
<ele>70.69999694824219</ele>
<time>2014-02-15T14:47:37Z</time>
</trkpt>
<trkpt lat="52.54171371459961" lon="13.182806968688965">
<ele>70.5</ele>
<time>2014-02-15T14:47:38Z</time>
</trkpt>
<trkpt lat="52.54173278808594" lon="13.182732582092285">
<ele>70.69999694824219</ele>
<time>2014-02-15T14:47:39Z</time>
</trkpt>
<trkpt lat="52.54176330566406" lon="13.182650566101074">
<ele>70.69999694824219</ele>
<time>2014-02-15T14:47:40Z</time>
</trkpt>
<trkpt lat="52.541786193847656" lon="13.18256950378418">
<ele>70.5</ele>
<time>2014-02-15T14:47:41Z</time>
</trkpt>
<trkpt lat="52.54181671142578" lon="13.182490348815918">
<ele>70.19999694824219</ele>
<time>2014-02-15T14:47:42Z</time>
</trkpt>
<trkpt lat="52.541847229003906" lon="13.182416915893555">
<ele>70.19999694824219</ele>
<time>2014-02-15T14:47:43Z</time>
</trkpt>
<trkpt lat="52.541866302490234" lon="13.182336807250977">
<ele>69.9000015258789</ele>
<time>2014-02-15T14:47:44Z</time>
</trkpt>
<trkpt lat="52.541900634765625" lon="13.182271003723145">
<ele>69.5999984741211</ele>
<time>2014-02-15T14:47:45Z</time>
</trkpt>
<trkpt lat="52.54193115234375" lon="13.182202339172363">
<ele>68.9000015258789</ele>
<time>2014-02-15T14:47:46Z</time>
</trkpt>
<trkpt lat="52.541954040527344" lon="13.182126998901367">
<ele>68.0999984741211</ele>
<time>2014-02-15T14:47:46Z</time>
</trkpt>
<trkpt lat="52.541988372802734" lon="13.182050704956055">
<ele>68.5</ele>
<time>2014-02-15T14:47:48Z</time>
</trkpt>
<trkpt lat="52.542015075683594" lon="13.181974411010742">
<ele>68.4000015258789</ele>
<time>2014-02-15T14:47:49Z</time>
</trkpt>
<trkpt lat="52.54204177856445" lon="13.181896209716797">
<ele>68.69999694824219</ele>
<time>2014-02-15T14:47:50Z</time>
</trkpt>
<trkpt lat="52.54206848144531" lon="13.181824684143066">
<ele>68.80000305175781</ele>
<time>2014-02-15T14:47:51Z</time>
</trkpt>
<trkpt lat="52.542091369628906" lon="13.181751251220703">
<ele>68.5</ele>
<time>2014-02-15T14:47:52Z</time>
</trkpt>
<trkpt lat="52.542118072509766" lon="13.181676864624023">
<ele>68.4000015258789</ele>
<time>2014-02-15T14:47:53Z</time>
</trkpt>
<trkpt lat="52.54214859008789" lon="13.181597709655762">
<ele>68.30000305175781</ele>
<time>2014-02-15T14:47:54Z</time>
</trkpt>
<trkpt lat="52.54217529296875" lon="13.18152141571045">
<ele>68.4000015258789</ele>
<time>2014-02-15T14:47:55Z</time>
</trkpt>
<trkpt lat="52.54220199584961" lon="13.181436538696289">
<ele>68.19999694824219</ele>
<time>2014-02-15T14:47:56Z</time>
</trkpt>
<trkpt lat="52.5422248840332" lon="13.181361198425293">
<ele>68.0</ele>
<time>2014-02-15T14:47:57Z</time>
</trkpt>
<trkpt lat="52.5422477722168" lon="13.181286811828613">
<ele>67.9000015258789</ele>
<time>2014-02-15T14:47:58Z</time>
</trkpt>
<trkpt lat="52.54227828979492" lon="13.181205749511719">
<ele>67.80000305175781</ele>
<time>2014-02-15T14:47:59Z</time>
</trkpt>
<trkpt lat="52.54230499267578" lon="13.181119918823242">
<ele>67.9000015258789</ele>
<time>2014-02-15T14:48:00Z</time>
</trkpt>
<trkpt lat="52.542327880859375" lon="13.181041717529297">
<ele>67.80000305175781</ele>
<time>2014-02-15T14:48:01Z</time>
</trkpt>
<trkpt lat="52.5423583984375" lon="13.180965423583984">
<ele>67.69999694824219</ele>
<time>2014-02-15T14:48:02Z</time>
</trkpt>
<trkpt lat="52.54238510131836" lon="13.18088150024414">
<ele>67.5</ele>
<time>2014-02-15T14:48:03Z</time>
</trkpt>
<trkpt lat="52.54240798950195" lon="13.180807113647461">
<ele>67.4000015258789</ele>
<time>2014-02-15T14:48:04Z</time>
</trkpt>
<trkpt lat="52.54243469238281" lon="13.180729866027832">
<ele>67.5</ele>
<time>2014-02-15T14:48:05Z</time>
</trkpt>
<trkpt lat="52.54246139526367" lon="13.180647850036621">
<ele>67.69999694824219</ele>
<time>2014-02-15T14:48:06Z</time>
</trkpt>
<trkpt lat="52.54248809814453" lon="13.18056583404541">
<ele>67.80000305175781</ele>
<time>2014-02-15T14:48:07Z</time>
</trkpt>
<trkpt lat="52.54251480102539" lon="13.180487632751465">
<ele>67.9000015258789</ele>
<time>2014-02-15T14:48:08Z</time>
</trkpt>
<trkpt lat="52.54254150390625" lon="13.18040943145752">
<ele>67.9000015258789</ele>
<time>2014-02-15T14:48:09Z</time>
</trkpt>
<trkpt lat="52.542572021484375" lon="13.180335998535156">
<ele>68.0</ele>
<time>2014-02-15T14:48:10Z</time>
</trkpt>
<trkpt lat="52.542598724365234" lon="13.180258750915527">
<ele>67.80000305175781</ele>
<time>2014-02-15T14:48:11Z</time>
</trkpt>
<trkpt lat="52.542625427246094" lon="13.180173873901367">
<ele>67.80000305175781</ele>
<time>2014-02-15T14:48:12Z</time>
</trkpt>
<trkpt lat="52.54265594482422" lon="13.180092811584473">
<ele>67.9000015258789</ele>
<time>2014-02-15T14:48:13Z</time>
</trkpt>
<trkpt lat="52.54268264770508" lon="13.180011749267578">
<ele>68.0</ele>
<time>2014-02-15T14:48:14Z</time>
</trkpt>
<trkpt lat="52.5427131652832" lon="13.179931640625">
<ele>67.80000305175781</ele>
<time>2014-02-15T14:48:15Z</time>
</trkpt>
<trkpt lat="52.54274368286133" lon="13.17985725402832">
<ele>68.0999984741211</ele>
<time>2014-02-15T14:48:16Z</time>
</trkpt>
<trkpt lat="52.542789459228516" lon="13.17977237701416">
<ele>68.0999984741211</ele>
<time>2014-02-15T14:48:17Z</time>
</trkpt>
<trkpt lat="52.542808532714844" lon="13.17970085144043">
<ele>65.5999984741211</ele>
<time>2014-02-15T14:48:18Z</time>
</trkpt>
<trkpt lat="52.5428352355957" lon="13.179630279541016">
<ele>64.9000015258789</ele>
<time>2014-02-15T14:48:19Z</time>
</trkpt>
<trkpt lat="52.54285430908203" lon="13.17953872680664">
<ele>65.5</ele>
<time>2014-02-15T14:48:20Z</time>
</trkpt>
<trkpt lat="52.54288101196289" lon="13.179462432861328">
<ele>64.80000305175781</ele>
<time>2014-02-15T14:48:21Z</time>
</trkpt>
<trkpt lat="52.54290008544922" lon="13.179376602172852">
<ele>65.30000305175781</ele>
<time>2014-02-15T14:48:22Z</time>
</trkpt>
<trkpt lat="52.542911529541016" lon="13.179281234741211">
<ele>65.69999694824219</ele>
<time>2014-02-15T14:48:23Z</time>
</trkpt>
<trkpt lat="52.542938232421875" lon="13.17919635772705">
<ele>65.80000305175781</ele>
<time>2014-02-15T14:48:24Z</time>
</trkpt>
<trkpt lat="52.54296875" lon="13.179106712341309">
<ele>65.69999694824219</ele>
<time>2014-02-15T14:48:25Z</time>
</trkpt>
<trkpt lat="52.54300308227539" lon="13.17901611328125">
<ele>65.69999694824219</ele>
<time>2014-02-15T14:48:26Z</time>
</trkpt>
<trkpt lat="52.54303741455078" lon="13.178935050964355">
<ele>65.5999984741211</ele>
<time>2014-02-15T14:48:27Z</time>
</trkpt>
<trkpt lat="52.54307174682617" lon="13.17884635925293">
<ele>65.69999694824219</ele>
<time>2014-02-15T14:48:28Z</time>
</trkpt>
<trkpt lat="52.54309844970703" lon="13.17876148223877">
<ele>65.9000015258789</ele>
<time>2014-02-15T14:48:29Z</time>
</trkpt>
<trkpt lat="52.54312515258789" lon="13.178677558898926">
<ele>66.0</ele>
<time>2014-02-15T14:48:30Z</time>
</trkpt>
<trkpt lat="52.54315185546875" lon="13.178603172302246">
<ele>66.4000015258789</ele>
<time>2014-02-15T14:48:31Z</time>
</trkpt>
<trkpt lat="52.54317855834961" lon="13.1785249710083">
<ele>66.0999984741211</ele>
<time>2014-02-15T14:48:32Z</time>
</trkpt>
<trkpt lat="52.54319763183594" lon="13.178450584411621">
<ele>65.69999694824219</ele>
<time>2014-02-15T14:48:33Z</time>
</trkpt>
<trkpt lat="52.54322052001953" lon="13.17837905883789">
<ele>65.0999984741211</ele>
<time>2014-02-15T14:48:34Z</time>
</trkpt>
<trkpt lat="52.543251037597656" lon="13.178298950195312">
<ele>64.9000015258789</ele>
<time>2014-02-15T14:48:35Z</time>
</trkpt>
<trkpt lat="52.54327392578125" lon="13.178224563598633">
<ele>65.0999984741211</ele>
<time>2014-02-15T14:48:36Z</time>
</trkpt>
<trkpt lat="52.54330062866211" lon="13.178144454956055">
<ele>65.0999984741211</ele>
<time>2014-02-15T14:48:37Z</time>
</trkpt>
<trkpt lat="52.54332733154297" lon="13.178062438964844">
<ele>64.69999694824219</ele>
<time>2014-02-15T14:48:38Z</time>
</trkpt>
<trkpt lat="52.54335403442383" lon="13.177982330322266">
<ele>64.69999694824219</ele>
<time>2014-02-15T14:48:39Z</time>
</trkpt>
<trkpt lat="52.54337692260742" lon="13.177905082702637">
<ele>64.69999694824219</ele>
<time>2014-02-15T14:48:40Z</time>
</trkpt>
<trkpt lat="52.54340362548828" lon="13.177823066711426">
<ele>64.69999694824219</ele>
<time>2014-02-15T14:48:41Z</time>
</trkpt>
<trkpt lat="52.543426513671875" lon="13.177745819091797">
<ele>64.5999984741211</ele>
<time>2014-02-15T14:48:42Z</time>
</trkpt>
<trkpt lat="52.543453216552734" lon="13.177665710449219">
<ele>64.30000305175781</ele>
<time>2014-02-15T14:48:43Z</time>
</trkpt>
<trkpt lat="52.54347610473633" lon="13.177586555480957">
<ele>63.79999923706055</ele>
<time>2014-02-15T14:48:44Z</time>
</trkpt>
<trkpt lat="52.54350280761719" lon="13.177509307861328">
<ele>63.70000076293945</ele>
<time>2014-02-15T14:48:45Z</time>
</trkpt>
<trkpt lat="52.543521881103516" lon="13.177427291870117">
<ele>63.400001525878906</ele>
<time>2014-02-15T14:48:46Z</time>
</trkpt>
<trkpt lat="52.543548583984375" lon="13.17734146118164">
<ele>63.20000076293945</ele>
<time>2014-02-15T14:48:47Z</time>
</trkpt>
<trkpt lat="52.54357147216797" lon="13.177264213562012">
<ele>63.400001525878906</ele>
<time>2014-02-15T14:48:48Z</time>
</trkpt>
<trkpt lat="52.54359436035156" lon="13.17718505859375">
<ele>63.79999923706055</ele>
<time>2014-02-15T14:48:49Z</time>
</trkpt>
<trkpt lat="52.54362106323242" lon="13.177096366882324">
<ele>63.400001525878906</ele>
<time>2014-02-15T14:48:50Z</time>
</trkpt>
<trkpt lat="52.54364776611328" lon="13.177007675170898">
<ele>63.79999923706055</ele>
<time>2014-02-15T14:48:51Z</time>
</trkpt>
<trkpt lat="52.543670654296875" lon="13.176928520202637">
<ele>63.79999923706055</ele>
<time>2014-02-15T14:48:52Z</time>
</trkpt>
<trkpt lat="52.5436897277832" lon="13.176836967468262">
<ele>64.4000015258789</ele>
<time>2014-02-15T14:48:53Z</time>
</trkpt>
<trkpt lat="52.54370880126953" lon="13.176752090454102">
<ele>64.80000305175781</ele>
<time>2014-02-15T14:48:54Z</time>
</trkpt>
<trkpt lat="52.54372024536133" lon="13.176657676696777">
<ele>65.19999694824219</ele>
<time>2014-02-15T14:48:55Z</time>
</trkpt>
<trkpt lat="52.54373550415039" lon="13.176568984985352">
<ele>65.30000305175781</ele>
<time>2014-02-15T14:48:56Z</time>
</trkpt>
<trkpt lat="52.54374694824219" lon="13.17647933959961">
<ele>65.69999694824219</ele>
<time>2014-02-15T14:48:57Z</time>
</trkpt>
<trkpt lat="52.54374694824219" lon="13.17639446258545">
<ele>66.0</ele>
<time>2014-02-15T14:48:58Z</time>
</trkpt>
<trkpt lat="52.54374313354492" lon="13.176295280456543">
<ele>65.80000305175781</ele>
<time>2014-02-15T14:48:59Z</time>
</trkpt>
<trkpt lat="52.54375076293945" lon="13.176203727722168">
<ele>66.4000015258789</ele>
<time>2014-02-15T14:49:00Z</time>
</trkpt>
<trkpt lat="52.543758392333984" lon="13.176109313964844">
<ele>66.5999984741211</ele>
<time>2014-02-15T14:49:01Z</time>
</trkpt>
<trkpt lat="52.54376220703125" lon="13.176017761230469">
<ele>66.5</ele>
<time>2014-02-15T14:49:02Z</time>
</trkpt>
<trkpt lat="52.54376983642578" lon="13.175918579101562">
<ele>66.9000015258789</ele>
<time>2014-02-15T14:49:03Z</time>
</trkpt>
<trkpt lat="52.54377746582031" lon="13.175826072692871">
<ele>67.0999984741211</ele>
<time>2014-02-15T14:49:04Z</time>
</trkpt>
<trkpt lat="52.543785095214844" lon="13.175729751586914">
<ele>67.30000305175781</ele>
<time>2014-02-15T14:49:05Z</time>
</trkpt>
<trkpt lat="52.54378890991211" lon="13.175630569458008">
<ele>67.4000015258789</ele>
<time>2014-02-15T14:49:06Z</time>
</trkpt>
<trkpt lat="52.54379653930664" lon="13.175539016723633">
<ele>67.5999984741211</ele>
<time>2014-02-15T14:49:07Z</time>
</trkpt>
<trkpt lat="52.54380798339844" lon="13.175440788269043">
<ele>67.30000305175781</ele>
<time>2014-02-15T14:49:08Z</time>
</trkpt>
<trkpt lat="52.54381561279297" lon="13.175348281860352">
<ele>67.69999694824219</ele>
<time>2014-02-15T14:49:09Z</time>
</trkpt>
<trkpt lat="52.5438232421875" lon="13.175253868103027">
<ele>67.69999694824219</ele>
<time>2014-02-15T14:49:10Z</time>
</trkpt>
<trkpt lat="52.54383087158203" lon="13.175161361694336">
<ele>67.80000305175781</ele>
<time>2014-02-15T14:49:11Z</time>
</trkpt>
<trkpt lat="52.5438346862793" lon="13.175065040588379">
<ele>67.80000305175781</ele>
<time>2014-02-15T14:49:12Z</time>
</trkpt>
<trkpt lat="52.543846130371094" lon="13.174973487854004">
<ele>67.9000015258789</ele>
<time>2014-02-15T14:49:13Z</time>
</trkpt>
<trkpt lat="52.54385757446289" lon="13.174884796142578">
<ele>67.80000305175781</ele>
<time>2014-02-15T14:49:14Z</time>
</trkpt>
<trkpt lat="52.543861389160156" lon="13.174792289733887">
<ele>67.80000305175781</ele>
<time>2014-02-15T14:49:15Z</time>
</trkpt>
<trkpt lat="52.54386901855469" lon="13.174688339233398">
<ele>67.5999984741211</ele>
<time>2014-02-15T14:49:16Z</time>
</trkpt>
<trkpt lat="52.54387664794922" lon="13.174599647521973">
<ele>67.4000015258789</ele>
<time>2014-02-15T14:49:17Z</time>
</trkpt>
<trkpt lat="52.543880462646484" lon="13.174507141113281">
<ele>67.5</ele>
<time>2014-02-15T14:49:18Z</time>
</trkpt>
<trkpt lat="52.543888092041016" lon="13.174415588378906">
<ele>67.69999694824219</ele>
<time>2014-02-15T14:49:19Z</time>
</trkpt>
<trkpt lat="52.54389190673828" lon="13.174322128295898">
<ele>67.80000305175781</ele>
<time>2014-02-15T14:49:20Z</time>
</trkpt>
<trkpt lat="52.54389953613281" lon="13.17422866821289">
<ele>67.69999694824219</ele>
<time>2014-02-15T14:49:21Z</time>
</trkpt>
<trkpt lat="52.54389953613281" lon="13.174135208129883">
<ele>67.4000015258789</ele>
<time>2014-02-15T14:49:22Z</time>
</trkpt>
<trkpt lat="52.543907165527344" lon="13.174042701721191">
<ele>67.5999984741211</ele>
<time>2014-02-15T14:49:23Z</time>
</trkpt>
<trkpt lat="52.543914794921875" lon="13.173954010009766">
<ele>67.4000015258789</ele>
<time>2014-02-15T14:49:24Z</time>
</trkpt>
<trkpt lat="52.543922424316406" lon="13.173861503601074">
<ele>67.80000305175781</ele>
<time>2014-02-15T14:49:25Z</time>
</trkpt>
<trkpt lat="52.54392623901367" lon="13.173768043518066">
<ele>67.80000305175781</ele>
<time>2014-02-15T14:49:26Z</time>
</trkpt>
<trkpt lat="52.54393005371094" lon="13.173677444458008">
<ele>67.80000305175781</ele>
<time>2014-02-15T14:49:27Z</time>
</trkpt>
<trkpt lat="52.54393768310547" lon="13.173595428466797">
<ele>67.5</ele>
<time>2014-02-15T14:49:28Z</time>
</trkpt>
<trkpt lat="52.543949127197266" lon="13.173503875732422">
<ele>67.4000015258789</ele>
<time>2014-02-15T14:49:29Z</time>
</trkpt>
<trkpt lat="52.54390335083008" lon="13.173413276672363">
<ele>62.70000076293945</ele>
<time>2014-02-15T14:49:30Z</time>
</trkpt>
<trkpt lat="52.54391098022461" lon="13.173330307006836">
<ele>63.400001525878906</ele>
<time>2014-02-15T14:49:31Z</time>
</trkpt>
<trkpt lat="52.543914794921875" lon="13.17324161529541">
<ele>62.900001525878906</ele>
<time>2014-02-15T14:49:32Z</time>
</trkpt>
<trkpt lat="52.543922424316406" lon="13.173151969909668">
<ele>62.70000076293945</ele>
<time>2014-02-15T14:49:33Z</time>
</trkpt>
<trkpt lat="52.5439453125" lon="13.173062324523926">
<ele>62.900001525878906</ele>
<time>2014-02-15T14:49:34Z</time>
</trkpt>
<trkpt lat="52.5439567565918" lon="13.172980308532715">
<ele>63.0</ele>
<time>2014-02-15T14:49:35Z</time>
</trkpt>
<trkpt lat="52.54397201538086" lon="13.172884941101074">
<ele>63.0</ele>
<time>2014-02-15T14:49:36Z</time>
</trkpt>
<trkpt lat="52.54397964477539" lon="13.172797203063965">
<ele>63.29999923706055</ele>
<time>2014-02-15T14:49:37Z</time>
</trkpt>
<trkpt lat="52.54399108886719" lon="13.172708511352539">
<ele>63.5</ele>
<time>2014-02-15T14:49:38Z</time>
</trkpt>
<trkpt lat="52.544002532958984" lon="13.172614097595215">
<ele>63.70000076293945</ele>
<time>2014-02-15T14:49:39Z</time>
</trkpt>
<trkpt lat="52.54401397705078" lon="13.172528266906738">
<ele>63.900001525878906</ele>
<time>2014-02-15T14:49:40Z</time>
</trkpt>
<trkpt lat="52.54402160644531" lon="13.172435760498047">
<ele>64.0</ele>
<time>2014-02-15T14:49:41Z</time>
</trkpt>
<trkpt lat="52.544029235839844" lon="13.172344207763672">
<ele>64.19999694824219</ele>
<time>2014-02-15T14:49:42Z</time>
</trkpt>
<trkpt lat="52.54404067993164" lon="13.17226505279541">
<ele>64.5999984741211</ele>
<time>2014-02-15T14:49:43Z</time>
</trkpt>
<trkpt lat="52.54405212402344" lon="13.172184944152832">
<ele>64.5</ele>
<time>2014-02-15T14:49:44Z</time>
</trkpt>
<trkpt lat="52.544063568115234" lon="13.172099113464355">
<ele>64.30000305175781</ele>
<time>2014-02-15T14:49:45Z</time>
</trkpt>
<trkpt lat="52.5440559387207" lon="13.172016143798828">
<ele>64.30000305175781</ele>
<time>2014-02-15T14:49:46Z</time>
</trkpt>
<trkpt lat="52.54405975341797" lon="13.171926498413086">
<ele>64.69999694824219</ele>
<time>2014-02-15T14:49:47Z</time>
</trkpt>
<trkpt lat="52.54407501220703" lon="13.171843528747559">
<ele>64.69999694824219</ele>
<time>2014-02-15T14:49:48Z</time>
</trkpt>
<trkpt lat="52.54408264160156" lon="13.171759605407715">
<ele>65.0999984741211</ele>
<time>2014-02-15T14:49:49Z</time>
</trkpt>
<trkpt lat="52.544090270996094" lon="13.17166805267334">
<ele>65.5999984741211</ele>
<time>2014-02-15T14:49:50Z</time>
</trkpt>
<trkpt lat="52.544097900390625" lon="13.1715726852417">
<ele>66.0999984741211</ele>
<time>2014-02-15T14:49:51Z</time>
</trkpt>
<trkpt lat="52.544105529785156" lon="13.171483039855957">
<ele>65.9000015258789</ele>
<time>2014-02-15T14:49:52Z</time>
</trkpt>
<trkpt lat="52.54411315917969" lon="13.171399116516113">
<ele>66.30000305175781</ele>
<time>2014-02-15T14:49:53Z</time>
</trkpt>
<trkpt lat="52.54413604736328" lon="13.171302795410156">
<ele>68.5</ele>
<time>2014-02-15T14:49:54Z</time>
</trkpt>
<trkpt lat="52.54413604736328" lon="13.171213150024414">
<ele>67.9000015258789</ele>
<time>2014-02-15T14:49:55Z</time>
</trkpt>
<trkpt lat="52.54413604736328" lon="13.171125411987305">
<ele>67.69999694824219</ele>
<time>2014-02-15T14:49:55Z</time>
</trkpt>
<trkpt lat="52.54414367675781" lon="13.17103385925293">
<ele>67.80000305175781</ele>
<time>2014-02-15T14:49:57Z</time>
</trkpt>
<trkpt lat="52.54414749145508" lon="13.170945167541504">
<ele>67.80000305175781</ele>
<time>2014-02-15T14:49:58Z</time>
</trkpt>
<trkpt lat="52.544151306152344" lon="13.170855522155762">
<ele>67.9000015258789</ele>
<time>2014-02-15T14:49:59Z</time>
</trkpt>
<trkpt lat="52.544158935546875" lon="13.170769691467285">
<ele>68.0999984741211</ele>
<time>2014-02-15T14:50:00Z</time>
</trkpt>
<trkpt lat="52.54417037963867" lon="13.170682907104492">
<ele>68.0999984741211</ele>
<time>2014-02-15T14:50:01Z</time>
</trkpt>
<trkpt lat="52.54417419433594" lon="13.170595169067383">
<ele>68.5999984741211</ele>
<time>2014-02-15T14:50:02Z</time>
</trkpt>
<trkpt lat="52.54418182373047" lon="13.170507431030273">
<ele>68.69999694824219</ele>
<time>2014-02-15T14:50:03Z</time>
</trkpt>
<trkpt lat="52.544185638427734" lon="13.17041015625">
<ele>68.69999694824219</ele>
<time>2014-02-15T14:50:04Z</time>
</trkpt>
<trkpt lat="52.544193267822266" lon="13.170326232910156">
<ele>68.5</ele>
<time>2014-02-15T14:50:05Z</time>
</trkpt>
<trkpt lat="52.54420852661133" lon="13.17024040222168">
<ele>68.0999984741211</ele>
<time>2014-02-15T14:50:06Z</time>
</trkpt>
<trkpt lat="52.544212341308594" lon="13.170159339904785">
<ele>68.30000305175781</ele>
<time>2014-02-15T14:50:07Z</time>
</trkpt>
<trkpt lat="52.544219970703125" lon="13.170072555541992">
<ele>68.0999984741211</ele>
<time>2014-02-15T14:50:08Z</time>
</trkpt>
<trkpt lat="52.544219970703125" lon="13.169991493225098">
<ele>67.9000015258789</ele>
<time>2014-02-15T14:50:09Z</time>
</trkpt>
<trkpt lat="52.544219970703125" lon="13.169917106628418">
<ele>67.80000305175781</ele>
<time>2014-02-15T14:50:10Z</time>
</trkpt>
<trkpt lat="52.544227600097656" lon="13.169769287109375">
<ele>68.30000305175781</ele>
<time>2014-02-15T14:50:12Z</time>
</trkpt>
<trkpt lat="52.54422378540039" lon="13.169631004333496">
<ele>68.4000015258789</ele>
<time>2014-02-15T14:50:14Z</time>
</trkpt>
<trkpt lat="52.54423141479492" lon="13.169502258300781">
<ele>68.0</ele>
<time>2014-02-15T14:50:16Z</time>
</trkpt>
<trkpt lat="52.54423522949219" lon="13.169353485107422">
<ele>67.30000305175781</ele>
<time>2014-02-15T14:50:18Z</time>
</trkpt>
<trkpt lat="52.54423522949219" lon="13.169266700744629">
<ele>66.9000015258789</ele>
<time>2014-02-15T14:50:19Z</time>
</trkpt>
<trkpt lat="52.54423141479492" lon="13.169173240661621">
<ele>66.80000305175781</ele>
<time>2014-02-15T14:50:20Z</time>
</trkpt>
<trkpt lat="52.54423141479492" lon="13.169084548950195">
<ele>66.5999984741211</ele>
<time>2014-02-15T14:50:21Z</time>
</trkpt>
<trkpt lat="52.54423522949219" lon="13.168997764587402">
<ele>66.5999984741211</ele>
<time>2014-02-15T14:50:22Z</time>
</trkpt>
<trkpt lat="52.544246673583984" lon="13.168915748596191">
<ele>66.69999694824219</ele>
<time>2014-02-15T14:50:23Z</time>
</trkpt>
<trkpt lat="52.54425811767578" lon="13.16883659362793">
<ele>67.0999984741211</ele>
<time>2014-02-15T14:50:24Z</time>
</trkpt>
<trkpt lat="52.54426956176758" lon="13.168703079223633">
<ele>67.19999694824219</ele>
<time>2014-02-15T14:50:26Z</time>
</trkpt>
<trkpt lat="52.54427719116211" lon="13.168612480163574">
<ele>65.69999694824219</ele>
<time>2014-02-15T14:50:28Z</time>
</trkpt>
<trkpt lat="52.54428482055664" lon="13.168525695800781">
<ele>66.9000015258789</ele>
<time>2014-02-15T14:50:31Z</time>
</trkpt>
<trkpt lat="52.54425048828125" lon="13.168468475341797">
<ele>67.0</ele>
<time>2014-02-15T14:50:37Z</time>
</trkpt>
<trkpt lat="52.544288635253906" lon="13.168416023254395">
<ele>66.9000015258789</ele>
<time>2014-02-15T14:50:42Z</time>
</trkpt>
<trkpt lat="52.544246673583984" lon="13.168356895446777">
<ele>66.80000305175781</ele>
<time>2014-02-15T14:50:46Z</time>
</trkpt>
<trkpt lat="52.54414367675781" lon="13.168292045593262">
<ele>67.19999694824219</ele>
<time>2014-02-15T14:50:50Z</time>
</trkpt>
<trkpt lat="52.544071197509766" lon="13.168192863464355">
<ele>66.4000015258789</ele>
<time>2014-02-15T14:50:53Z</time>
</trkpt>
<trkpt lat="52.54398727416992" lon="13.16806697845459">
<ele>64.0999984741211</ele>
<time>2014-02-15T14:50:56Z</time>
</trkpt>
<trkpt lat="52.54393005371094" lon="13.167950630187988">
<ele>64.0999984741211</ele>
<time>2014-02-15T14:50:58Z</time>
</trkpt>
<trkpt lat="52.54389953613281" lon="13.16787052154541">
<ele>64.80000305175781</ele>
<time>2014-02-15T14:50:59Z</time>
</trkpt>
<trkpt lat="52.5438346862793" lon="13.167719841003418">
<ele>64.80000305175781</ele>
<time>2014-02-15T14:51:01Z</time>
</trkpt>
<trkpt lat="52.543800354003906" lon="13.16765022277832">
<ele>65.30000305175781</ele>
<time>2014-02-15T14:51:02Z</time>
</trkpt>
<trkpt lat="52.543766021728516" lon="13.167586326599121">
<ele>65.30000305175781</ele>
<time>2014-02-15T14:51:03Z</time>
</trkpt>
<trkpt lat="52.54372787475586" lon="13.167523384094238">
<ele>65.30000305175781</ele>
<time>2014-02-15T14:51:04Z</time>
</trkpt>
<trkpt lat="52.5436897277832" lon="13.167473793029785">
<ele>65.69999694824219</ele>
<time>2014-02-15T14:51:05Z</time>
</trkpt>
<trkpt lat="52.543643951416016" lon="13.1674165725708">
<ele>65.9000015258789</ele>
<time>2014-02-15T14:51:06Z</time>
</trkpt>
<trkpt lat="52.54360580444336" lon="13.167366027832031">
<ele>65.9000015258789</ele>
<time>2014-02-15T14:51:07Z</time>
</trkpt>
<trkpt lat="52.54356384277344" lon="13.167315483093262">
<ele>65.80000305175781</ele>
<time>2014-02-15T14:51:08Z</time>
</trkpt>
<trkpt lat="52.543521881103516" lon="13.167261123657227">
<ele>65.69999694824219</ele>
<time>2014-02-15T14:51:09Z</time>
</trkpt>
<trkpt lat="52.543479919433594" lon="13.16720962524414">
<ele>65.5999984741211</ele>
<time>2014-02-15T14:51:10Z</time>
</trkpt>
<trkpt lat="52.54343795776367" lon="13.16714859008789">
<ele>65.5999984741211</ele>
<time>2014-02-15T14:51:11Z</time>
</trkpt>
<trkpt lat="52.54340362548828" lon="13.16708755493164">
<ele>65.69999694824219</ele>
<time>2014-02-15T14:51:12Z</time>
</trkpt>
<trkpt lat="52.54339599609375" lon="13.166991233825684">
<ele>65.5999984741211</ele>
<time>2014-02-15T14:51:13Z</time>
</trkpt>
<trkpt lat="52.54338455200195" lon="13.166901588439941">
<ele>65.5</ele>
<time>2014-02-15T14:51:14Z</time>
</trkpt>
<trkpt lat="52.54340362548828" lon="13.1668062210083">
<ele>65.0</ele>
<time>2014-02-15T14:51:15Z</time>
</trkpt>
<trkpt lat="52.54341125488281" lon="13.166718482971191">
<ele>64.5999984741211</ele>
<time>2014-02-15T14:51:16Z</time>
</trkpt>
<trkpt lat="52.54341125488281" lon="13.166626930236816">
<ele>64.4000015258789</ele>
<time>2014-02-15T14:51:17Z</time>
</trkpt>
<trkpt lat="52.54341125488281" lon="13.166532516479492">
<ele>64.4000015258789</ele>
<time>2014-02-15T14:51:18Z</time>
</trkpt>
<trkpt lat="52.54341125488281" lon="13.166439056396484">
<ele>64.80000305175781</ele>
<time>2014-02-15T14:51:19Z</time>
</trkpt>
<trkpt lat="52.54342269897461" lon="13.166348457336426">
<ele>65.0999984741211</ele>
<time>2014-02-15T14:51:20Z</time>
</trkpt>
<trkpt lat="52.54344177246094" lon="13.166255950927734">
<ele>65.0999984741211</ele>
<time>2014-02-15T14:51:21Z</time>
</trkpt>
<trkpt lat="52.543453216552734" lon="13.16616439819336">
<ele>66.0</ele>
<time>2014-02-15T14:51:22Z</time>
</trkpt>
<trkpt lat="52.54347229003906" lon="13.165980339050293">
<ele>66.30000305175781</ele>
<time>2014-02-15T14:51:24Z</time>
</trkpt>
<trkpt lat="52.54348373413086" lon="13.165882110595703">
<ele>66.9000015258789</ele>
<time>2014-02-15T14:51:25Z</time>
</trkpt>
<trkpt lat="52.54349899291992" lon="13.165799140930176">
<ele>66.9000015258789</ele>
<time>2014-02-15T14:51:26Z</time>
</trkpt>
<trkpt lat="52.54351806640625" lon="13.165699005126953">
<ele>66.5</ele>
<time>2014-02-15T14:51:27Z</time>
</trkpt>
<trkpt lat="52.54352951049805" lon="13.165618896484375">
<ele>66.19999694824219</ele>
<time>2014-02-15T14:51:28Z</time>
</trkpt>
<trkpt lat="52.54354476928711" lon="13.165531158447266">
<ele>66.5</ele>
<time>2014-02-15T14:51:29Z</time>
</trkpt>
<trkpt lat="52.54356002807617" lon="13.165440559387207">
<ele>66.19999694824219</ele>
<time>2014-02-15T14:51:30Z</time>
</trkpt>
<trkpt lat="52.54357147216797" lon="13.165345191955566">
<ele>66.0999984741211</ele>
<time>2014-02-15T14:51:31Z</time>
</trkpt>
<trkpt lat="52.543582916259766" lon="13.16525650024414">
<ele>66.5</ele>
<time>2014-02-15T14:51:32Z</time>
</trkpt>
<trkpt lat="52.54359436035156" lon="13.165172576904297">
<ele>66.0</ele>
<time>2014-02-15T14:51:33Z</time>
</trkpt>
<trkpt lat="52.543609619140625" lon="13.16508674621582">
<ele>66.4000015258789</ele>
<time>2014-02-15T14:51:34Z</time>
</trkpt>
<trkpt lat="52.54362487792969" lon="13.164995193481445">
<ele>65.9000015258789</ele>
<time>2014-02-15T14:51:35Z</time>
</trkpt>
<trkpt lat="52.543636322021484" lon="13.164901733398438">
<ele>65.69999694824219</ele>
<time>2014-02-15T14:51:36Z</time>
</trkpt>
<trkpt lat="52.54365158081055" lon="13.164811134338379">
<ele>65.4000015258789</ele>
<time>2014-02-15T14:51:37Z</time>
</trkpt>
<trkpt lat="52.543678283691406" lon="13.164727210998535">
<ele>65.4000015258789</ele>
<time>2014-02-15T14:51:37Z</time>
</trkpt>
<trkpt lat="52.543697357177734" lon="13.164639472961426">
<ele>65.0999984741211</ele>
<time>2014-02-15T14:51:39Z</time>
</trkpt>
<trkpt lat="52.5437126159668" lon="13.164549827575684">
<ele>64.9000015258789</ele>
<time>2014-02-15T14:51:40Z</time>
</trkpt>
<trkpt lat="52.54372787475586" lon="13.164454460144043">
<ele>63.79999923706055</ele>
<time>2014-02-15T14:51:41Z</time>
</trkpt>
<trkpt lat="52.54375076293945" lon="13.164368629455566">
<ele>63.29999923706055</ele>
<time>2014-02-15T14:51:42Z</time>
</trkpt>
<trkpt lat="52.54376983642578" lon="13.164294242858887">
<ele>62.79999923706055</ele>
<time>2014-02-15T14:51:43Z</time>
</trkpt>
<trkpt lat="52.54379653930664" lon="13.164207458496094">
<ele>62.79999923706055</ele>
<time>2014-02-15T14:51:44Z</time>
</trkpt>
<trkpt lat="52.54381561279297" lon="13.1641263961792">
<ele>63.20000076293945</ele>
<time>2014-02-15T14:51:45Z</time>
</trkpt>
<trkpt lat="52.54384231567383" lon="13.164022445678711">
<ele>62.599998474121094</ele>
<time>2014-02-15T14:51:46Z</time>
</trkpt>
<trkpt lat="52.54386520385742" lon="13.163923263549805">
<ele>62.5</ele>
<time>2014-02-15T14:51:47Z</time>
</trkpt>
<trkpt lat="52.54388427734375" lon="13.163825988769531">
<ele>62.79999923706055</ele>
<time>2014-02-15T14:51:48Z</time>
</trkpt>
<trkpt lat="52.543922424316406" lon="13.163719177246094">
<ele>63.0</ele>
<time>2014-02-15T14:51:49Z</time>
</trkpt>
<trkpt lat="52.5439453125" lon="13.163625717163086">
<ele>63.099998474121094</ele>
<time>2014-02-15T14:51:50Z</time>
</trkpt>
<trkpt lat="52.543968200683594" lon="13.163544654846191">
<ele>63.20000076293945</ele>
<time>2014-02-15T14:51:51Z</time>
</trkpt>
<trkpt lat="52.54399108886719" lon="13.163459777832031">
<ele>62.599998474121094</ele>
<time>2014-02-15T14:51:52Z</time>
</trkpt>
<trkpt lat="52.54401397705078" lon="13.16337776184082">
<ele>62.5</ele>
<time>2014-02-15T14:51:53Z</time>
</trkpt>
<trkpt lat="52.54404830932617" lon="13.163288116455078">
<ele>63.29999923706055</ele>
<time>2014-02-15T14:51:54Z</time>
</trkpt>
<trkpt lat="52.5440788269043" lon="13.163206100463867">
<ele>62.900001525878906</ele>
<time>2014-02-15T14:51:55Z</time>
</trkpt>
<trkpt lat="52.54411315917969" lon="13.163125038146973">
<ele>62.599998474121094</ele>
<time>2014-02-15T14:51:56Z</time>
</trkpt>
<trkpt lat="52.54414367675781" lon="13.16304874420166">
<ele>62.5</ele>
<time>2014-02-15T14:51:57Z</time>
</trkpt>
<trkpt lat="52.54418182373047" lon="13.162971496582031">
<ele>62.29999923706055</ele>
<time>2014-02-15T14:51:58Z</time>
</trkpt>
<trkpt lat="52.544219970703125" lon="13.162899017333984">
<ele>62.400001525878906</ele>
<time>2014-02-15T14:51:59Z</time>
</trkpt>
<trkpt lat="52.54425811767578" lon="13.162823677062988">
<ele>62.5</ele>
<time>2014-02-15T14:52:00Z</time>
</trkpt>
<trkpt lat="52.54430389404297" lon="13.16275691986084">
<ele>62.5</ele>
<time>2014-02-15T14:52:01Z</time>
</trkpt>
<trkpt lat="52.54434585571289" lon="13.162679672241211">
<ele>62.400001525878906</ele>
<time>2014-02-15T14:52:02Z</time>
</trkpt>
<trkpt lat="52.54438781738281" lon="13.162596702575684">
<ele>62.29999923706055</ele>
<time>2014-02-15T14:52:03Z</time>
</trkpt>
<trkpt lat="52.544429779052734" lon="13.16252326965332">
<ele>61.900001525878906</ele>
<time>2014-02-15T14:52:04Z</time>
</trkpt>
<trkpt lat="52.544464111328125" lon="13.162440299987793">
<ele>61.599998474121094</ele>
<time>2014-02-15T14:52:05Z</time>
</trkpt>
<trkpt lat="52.54447937011719" lon="13.162362098693848">
<ele>61.599998474121094</ele>
<time>2014-02-15T14:52:06Z</time>
</trkpt>
<trkpt lat="52.54449462890625" lon="13.162283897399902">
<ele>61.599998474121094</ele>
<time>2014-02-15T14:52:07Z</time>
</trkpt>
<trkpt lat="52.54450607299805" lon="13.16219711303711">
<ele>61.79999923706055</ele>
<time>2014-02-15T14:52:08Z</time>
</trkpt>
<trkpt lat="52.544525146484375" lon="13.162101745605469">
<ele>62.0</ele>
<time>2014-02-15T14:52:09Z</time>
</trkpt>
<trkpt lat="52.54454803466797" lon="13.162014961242676">
<ele>61.29999923706055</ele>
<time>2014-02-15T14:52:10Z</time>
</trkpt>
<trkpt lat="52.5445556640625" lon="13.161921501159668">
<ele>61.29999923706055</ele>
<time>2014-02-15T14:52:11Z</time>
</trkpt>
<trkpt lat="52.54457092285156" lon="13.161834716796875">
<ele>61.20000076293945</ele>
<time>2014-02-15T14:52:12Z</time>
</trkpt>
<trkpt lat="52.54459762573242" lon="13.161736488342285">
<ele>61.70000076293945</ele>
<time>2014-02-15T14:52:13Z</time>
</trkpt>
<trkpt lat="52.54462432861328" lon="13.161652565002441">
<ele>61.900001525878906</ele>
<time>2014-02-15T14:52:14Z</time>
</trkpt>
<trkpt lat="52.544654846191406" lon="13.161574363708496">
<ele>62.400001525878906</ele>
<time>2014-02-15T14:52:15Z</time>
</trkpt>
<trkpt lat="52.544677734375" lon="13.161486625671387">
<ele>63.099998474121094</ele>
<time>2014-02-15T14:52:16Z</time>
</trkpt>
<trkpt lat="52.544700622558594" lon="13.161404609680176">
<ele>63.400001525878906</ele>
<time>2014-02-15T14:52:17Z</time>
</trkpt>
<trkpt lat="52.54472351074219" lon="13.161332130432129">
<ele>63.599998474121094</ele>
<time>2014-02-15T14:52:18Z</time>
</trkpt>
<trkpt lat="52.54475784301758" lon="13.161260604858398">
<ele>64.5999984741211</ele>
<time>2014-02-15T14:52:19Z</time>
</trkpt>
<trkpt lat="52.54479217529297" lon="13.161200523376465">
<ele>64.5</ele>
<time>2014-02-15T14:52:20Z</time>
</trkpt>
<trkpt lat="52.54482650756836" lon="13.161147117614746">
<ele>64.5</ele>
<time>2014-02-15T14:52:21Z</time>
</trkpt>
<trkpt lat="52.544864654541016" lon="13.161097526550293">
<ele>64.4000015258789</ele>
<time>2014-02-15T14:52:22Z</time>
</trkpt>
<trkpt lat="52.54490280151367" lon="13.161054611206055">
<ele>64.5</ele>
<time>2014-02-15T14:52:23Z</time>
</trkpt>
<trkpt lat="52.544952392578125" lon="13.161016464233398">
<ele>65.19999694824219</ele>
<time>2014-02-15T14:52:24Z</time>
</trkpt>
<trkpt lat="52.54499816894531" lon="13.160982131958008">
<ele>65.19999694824219</ele>
<time>2014-02-15T14:52:25Z</time>
</trkpt>
<trkpt lat="52.545047760009766" lon="13.160943031311035">
<ele>65.19999694824219</ele>
<time>2014-02-15T14:52:26Z</time>
</trkpt>
<trkpt lat="52.54508972167969" lon="13.160886764526367">
<ele>65.30000305175781</ele>
<time>2014-02-15T14:52:27Z</time>
</trkpt>
<trkpt lat="52.54512405395508" lon="13.1608247756958">
<ele>65.30000305175781</ele>
<time>2014-02-15T14:52:28Z</time>
</trkpt>
<trkpt lat="52.545169830322266" lon="13.160762786865234">
<ele>65.30000305175781</ele>
<time>2014-02-15T14:52:29Z</time>
</trkpt>
<trkpt lat="52.545204162597656" lon="13.16069507598877">
<ele>64.80000305175781</ele>
<time>2014-02-15T14:52:30Z</time>
</trkpt>
<trkpt lat="52.54524230957031" lon="13.160637855529785">
<ele>64.5999984741211</ele>
<time>2014-02-15T14:52:30Z</time>
</trkpt>
<trkpt lat="52.54528045654297" lon="13.160584449768066">
<ele>64.19999694824219</ele>
<time>2014-02-15T14:52:32Z</time>
</trkpt>
<trkpt lat="52.5452995300293" lon="13.160499572753906">
<ele>64.0999984741211</ele>
<time>2014-02-15T14:52:33Z</time>
</trkpt>
<trkpt lat="52.54533767700195" lon="13.160426139831543">
<ele>64.80000305175781</ele>
<time>2014-02-15T14:52:34Z</time>
</trkpt>
<trkpt lat="52.54537582397461" lon="13.16034984588623">
<ele>64.69999694824219</ele>
<time>2014-02-15T14:52:35Z</time>
</trkpt>
<trkpt lat="52.54539489746094" lon="13.160272598266602">
<ele>64.69999694824219</ele>
<time>2014-02-15T14:52:36Z</time>
</trkpt>
<trkpt lat="52.54541778564453" lon="13.160200119018555">
<ele>65.0999984741211</ele>
<time>2014-02-15T14:52:37Z</time>
</trkpt>
<trkpt lat="52.54546356201172" lon="13.16008186340332">
<ele>64.30000305175781</ele>
<time>2014-02-15T14:52:39Z</time>
</trkpt>
<trkpt lat="52.5455207824707" lon="13.159972190856934">
<ele>64.5</ele>
<time>2014-02-15T14:52:41Z</time>
</trkpt>
<trkpt lat="52.54554748535156" lon="13.159847259521484">
<ele>64.80000305175781</ele>
<time>2014-02-15T14:52:43Z</time>
</trkpt>
<trkpt lat="52.54553985595703" lon="13.159770011901855">
<ele>65.69999694824219</ele>
<time>2014-02-15T14:52:44Z</time>
</trkpt>
<trkpt lat="52.54552459716797" lon="13.159629821777344">
<ele>66.0</ele>
<time>2014-02-15T14:52:46Z</time>
</trkpt>
<trkpt lat="52.54551315307617" lon="13.159555435180664">
<ele>65.9000015258789</ele>
<time>2014-02-15T14:52:46Z</time>
</trkpt>
<trkpt lat="52.545509338378906" lon="13.159480094909668">
<ele>66.80000305175781</ele>
<time>2014-02-15T14:52:48Z</time>
</trkpt>
<trkpt lat="52.545509338378906" lon="13.159402847290039">
<ele>67.5999984741211</ele>
<time>2014-02-15T14:52:49Z</time>
</trkpt>
<trkpt lat="52.54551315307617" lon="13.159317016601562">
<ele>68.0999984741211</ele>
<time>2014-02-15T14:52:50Z</time>
</trkpt>
<trkpt lat="52.5455207824707" lon="13.159234046936035">
<ele>68.0999984741211</ele>
<time>2014-02-15T14:52:51Z</time>
</trkpt>
<trkpt lat="52.54553985595703" lon="13.159156799316406">
<ele>68.0999984741211</ele>
<time>2014-02-15T14:52:52Z</time>
</trkpt>
<trkpt lat="52.545562744140625" lon="13.159090042114258">
<ele>67.9000015258789</ele>
<time>2014-02-15T14:52:53Z</time>
</trkpt>
<trkpt lat="52.54558181762695" lon="13.159022331237793">
<ele>67.5999984741211</ele>
<time>2014-02-15T14:52:54Z</time>
</trkpt>
<trkpt lat="52.54559326171875" lon="13.158944129943848">
<ele>66.9000015258789</ele>
<time>2014-02-15T14:52:55Z</time>
</trkpt>
<trkpt lat="52.545616149902344" lon="13.1588716506958">
<ele>66.80000305175781</ele>
<time>2014-02-15T14:52:56Z</time>
</trkpt>
<trkpt lat="52.54563903808594" lon="13.158794403076172">
<ele>66.5999984741211</ele>
<time>2014-02-15T14:52:57Z</time>
</trkpt>
<trkpt lat="52.545654296875" lon="13.158713340759277">
<ele>66.5</ele>
<time>2014-02-15T14:52:58Z</time>
</trkpt>
<trkpt lat="52.545677185058594" lon="13.158628463745117">
<ele>66.5</ele>
<time>2014-02-15T14:52:59Z</time>
</trkpt>
<trkpt lat="52.54569625854492" lon="13.158549308776855">
<ele>66.4000015258789</ele>
<time>2014-02-15T14:53:00Z</time>
</trkpt>
<trkpt lat="52.54572296142578" lon="13.158473014831543">
<ele>66.0999984741211</ele>
<time>2014-02-15T14:53:01Z</time>
</trkpt>
<trkpt lat="52.545745849609375" lon="13.158397674560547">
<ele>66.0999984741211</ele>
<time>2014-02-15T14:53:02Z</time>
</trkpt>
<trkpt lat="52.54575729370117" lon="13.158315658569336">
<ele>65.80000305175781</ele>
<time>2014-02-15T14:53:03Z</time>
</trkpt>
<trkpt lat="52.545772552490234" lon="13.158239364624023">
<ele>65.5999984741211</ele>
<time>2014-02-15T14:53:04Z</time>
</trkpt>
<trkpt lat="52.54578399658203" lon="13.158158302307129">
<ele>65.4000015258789</ele>
<time>2014-02-15T14:53:05Z</time>
</trkpt>
<trkpt lat="52.54580307006836" lon="13.15807819366455">
<ele>65.5</ele>
<time>2014-02-15T14:53:07Z</time>
</trkpt>
<trkpt lat="52.54584503173828" lon="13.157918930053711">
<ele>65.69999694824219</ele>
<time>2014-02-15T14:53:08Z</time>
</trkpt>
<trkpt lat="52.54586410522461" lon="13.15783977508545">
<ele>65.69999694824219</ele>
<time>2014-02-15T14:53:09Z</time>
</trkpt>
<trkpt lat="52.54589080810547" lon="13.157761573791504">
<ele>65.69999694824219</ele>
<time>2014-02-15T14:53:10Z</time>
</trkpt>
<trkpt lat="52.5459098815918" lon="13.157684326171875">
<ele>65.5999984741211</ele>
<time>2014-02-15T14:53:11Z</time>
</trkpt>
<trkpt lat="52.54593276977539" lon="13.157600402832031">
<ele>65.19999694824219</ele>
<time>2014-02-15T14:53:12Z</time>
</trkpt>
<trkpt lat="52.54595947265625" lon="13.157523155212402">
<ele>64.69999694824219</ele>
<time>2014-02-15T14:53:13Z</time>
</trkpt>
<trkpt lat="52.54598617553711" lon="13.157441139221191">
<ele>64.5999984741211</ele>
<time>2014-02-15T14:53:14Z</time>
</trkpt>
<trkpt lat="52.54603958129883" lon="13.157286643981934">
<ele>64.5</ele>
<time>2014-02-15T14:53:16Z</time>
</trkpt>
<trkpt lat="52.546058654785156" lon="13.157201766967773">
<ele>64.80000305175781</ele>
<time>2014-02-15T14:53:17Z</time>
</trkpt>
<trkpt lat="52.54608154296875" lon="13.157116889953613">
<ele>64.9000015258789</ele>
<time>2014-02-15T14:53:18Z</time>
</trkpt>
<trkpt lat="52.54610824584961" lon="13.157031059265137">
<ele>65.19999694824219</ele>
<time>2014-02-15T14:53:19Z</time>
</trkpt>
<trkpt lat="52.54613494873047" lon="13.156944274902344">
<ele>65.69999694824219</ele>
<time>2014-02-15T14:53:20Z</time>
</trkpt>
<trkpt lat="52.54615783691406" lon="13.156859397888184">
<ele>65.5999984741211</ele>
<time>2014-02-15T14:53:21Z</time>
</trkpt>
<trkpt lat="52.54616928100586" lon="13.156774520874023">
<ele>65.69999694824219</ele>
<time>2014-02-15T14:53:22Z</time>
</trkpt>
<trkpt lat="52.54619216918945" lon="13.156689643859863">
<ele>65.5999984741211</ele>
<time>2014-02-15T14:53:23Z</time>
</trkpt>
<trkpt lat="52.54621124267578" lon="13.156606674194336">
<ele>65.5</ele>
<time>2014-02-15T14:53:24Z</time>
</trkpt>
<trkpt lat="52.54623031616211" lon="13.156515121459961">
<ele>65.19999694824219</ele>
<time>2014-02-15T14:53:25Z</time>
</trkpt>
<trkpt lat="52.54624938964844" lon="13.156427383422852">
<ele>65.0</ele>
<time>2014-02-15T14:53:26Z</time>
</trkpt>
<trkpt lat="52.546268463134766" lon="13.156341552734375">
<ele>64.9000015258789</ele>
<time>2014-02-15T14:53:27Z</time>
</trkpt>
<trkpt lat="52.546287536621094" lon="13.156250953674316">
<ele>65.30000305175781</ele>
<time>2014-02-15T14:53:28Z</time>
</trkpt>
<trkpt lat="52.546302795410156" lon="13.156160354614258">
<ele>65.0</ele>
<time>2014-02-15T14:53:29Z</time>
</trkpt>
<trkpt lat="52.54631423950195" lon="13.1560697555542">
<ele>65.19999694824219</ele>
<time>2014-02-15T14:53:30Z</time>
</trkpt>
<trkpt lat="52.54631805419922" lon="13.155973434448242">
<ele>65.0</ele>
<time>2014-02-15T14:53:31Z</time>
</trkpt>
<trkpt lat="52.546321868896484" lon="13.155881881713867">
<ele>65.0999984741211</ele>
<time>2014-02-15T14:53:32Z</time>
</trkpt>
<trkpt lat="52.546321868896484" lon="13.155787467956543">
<ele>65.0</ele>
<time>2014-02-15T14:53:33Z</time>
</trkpt>
<trkpt lat="52.546321868896484" lon="13.1556978225708">
<ele>65.0999984741211</ele>
<time>2014-02-15T14:53:34Z</time>
</trkpt>
<trkpt lat="52.54631805419922" lon="13.15560245513916">
<ele>65.0999984741211</ele>
<time>2014-02-15T14:53:35Z</time>
</trkpt>
<trkpt lat="52.54629898071289" lon="13.155513763427734">
<ele>65.0</ele>
<time>2014-02-15T14:53:36Z</time>
</trkpt>
<trkpt lat="52.5462760925293" lon="13.155426979064941">
<ele>65.0999984741211</ele>
<time>2014-02-15T14:53:37Z</time>
</trkpt>
<trkpt lat="52.54624557495117" lon="13.155350685119629">
<ele>65.0</ele>
<time>2014-02-15T14:53:38Z</time>
</trkpt>
<trkpt lat="52.54621505737305" lon="13.1552734375">
<ele>65.30000305175781</ele>
<time>2014-02-15T14:53:39Z</time>
</trkpt>
<trkpt lat="52.54618835449219" lon="13.155194282531738">
<ele>65.5</ele>
<time>2014-02-15T14:53:40Z</time>
</trkpt>
<trkpt lat="52.54616928100586" lon="13.155106544494629">
<ele>65.5999984741211</ele>
<time>2014-02-15T14:53:41Z</time>
</trkpt>
<trkpt lat="52.54615783691406" lon="13.155017852783203">
<ele>65.5</ele>
<time>2014-02-15T14:53:42Z</time>
</trkpt>
<trkpt lat="52.54615020751953" lon="13.154925346374512">
<ele>65.30000305175781</ele>
<time>2014-02-15T14:53:43Z</time>
</trkpt>
<trkpt lat="52.546146392822266" lon="13.154831886291504">
<ele>65.30000305175781</ele>
<time>2014-02-15T14:53:44Z</time>
</trkpt>
<trkpt lat="52.546138763427734" lon="13.154739379882812">
<ele>65.30000305175781</ele>
<time>2014-02-15T14:53:45Z</time>
</trkpt>
<trkpt lat="52.54613494873047" lon="13.154646873474121">
<ele>65.69999694824219</ele>
<time>2014-02-15T14:53:46Z</time>
</trkpt>
<trkpt lat="52.54612731933594" lon="13.154553413391113">
<ele>65.9000015258789</ele>
<time>2014-02-15T14:53:47Z</time>
</trkpt>
<trkpt lat="52.546119689941406" lon="13.154465675354004">
<ele>65.80000305175781</ele>
<time>2014-02-15T14:53:48Z</time>
</trkpt>
<trkpt lat="52.54611587524414" lon="13.154376029968262">
<ele>65.69999694824219</ele>
<time>2014-02-15T14:53:49Z</time>
</trkpt>
<trkpt lat="52.54610824584961" lon="13.15428352355957">
<ele>65.5999984741211</ele>
<time>2014-02-15T14:53:50Z</time>
</trkpt>
<trkpt lat="52.546104431152344" lon="13.154195785522461">
<ele>65.69999694824219</ele>
<time>2014-02-15T14:53:51Z</time>
</trkpt>
<trkpt lat="52.54610061645508" lon="13.15410327911377">
<ele>65.80000305175781</ele>
<time>2014-02-15T14:53:52Z</time>
</trkpt>
<trkpt lat="52.54609680175781" lon="13.154016494750977">
<ele>65.9000015258789</ele>
<time>2014-02-15T14:53:53Z</time>
</trkpt>
<trkpt lat="52.54609680175781" lon="13.153929710388184">
<ele>65.9000015258789</ele>
<time>2014-02-15T14:53:54Z</time>
</trkpt>
<trkpt lat="52.54609680175781" lon="13.15384292602539">
<ele>66.0</ele>
<time>2014-02-15T14:53:55Z</time>
</trkpt>
<trkpt lat="52.54609680175781" lon="13.153746604919434">
<ele>65.80000305175781</ele>
<time>2014-02-15T14:53:56Z</time>
</trkpt>
<trkpt lat="52.54609680175781" lon="13.153654098510742">
<ele>65.9000015258789</ele>
<time>2014-02-15T14:53:57Z</time>
</trkpt>
<trkpt lat="52.54609298706055" lon="13.153568267822266">
<ele>65.80000305175781</ele>
<time>2014-02-15T14:53:58Z</time>
</trkpt>
<trkpt lat="52.54609680175781" lon="13.153480529785156">
<ele>65.69999694824219</ele>
<time>2014-02-15T14:53:59Z</time>
</trkpt>
<trkpt lat="52.54610061645508" lon="13.153389930725098">
<ele>65.9000015258789</ele>
<time>2014-02-15T14:54:00Z</time>
</trkpt>
<trkpt lat="52.54610061645508" lon="13.153297424316406">
<ele>65.9000015258789</ele>
<time>2014-02-15T14:54:01Z</time>
</trkpt>
<trkpt lat="52.54610061645508" lon="13.153203964233398">
<ele>66.0</ele>
<time>2014-02-15T14:54:02Z</time>
</trkpt>
<trkpt lat="52.54609680175781" lon="13.153107643127441">
<ele>65.9000015258789</ele>
<time>2014-02-15T14:54:03Z</time>
</trkpt>
<trkpt lat="52.54609680175781" lon="13.153013229370117">
<ele>65.69999694824219</ele>
<time>2014-02-15T14:54:04Z</time>
</trkpt>
<trkpt lat="52.54609680175781" lon="13.152915954589844">
<ele>66.0</ele>
<time>2014-02-15T14:54:05Z</time>
</trkpt>
<trkpt lat="52.54610061645508" lon="13.152819633483887">
<ele>66.30000305175781</ele>
<time>2014-02-15T14:54:06Z</time>
</trkpt>
<trkpt lat="52.54610824584961" lon="13.152726173400879">
<ele>66.4000015258789</ele>
<time>2014-02-15T14:54:07Z</time>
</trkpt>
<trkpt lat="52.54611587524414" lon="13.152630805969238">
<ele>66.5999984741211</ele>
<time>2014-02-15T14:54:08Z</time>
</trkpt>
<trkpt lat="52.546119689941406" lon="13.152534484863281">
<ele>67.0</ele>
<time>2014-02-15T14:54:09Z</time>
</trkpt>
<trkpt lat="52.54611587524414" lon="13.152440071105957">
<ele>67.30000305175781</ele>
<time>2014-02-15T14:54:10Z</time>
</trkpt>
<trkpt lat="52.546112060546875" lon="13.152356147766113">
<ele>67.5</ele>
<time>2014-02-15T14:54:11Z</time>
</trkpt>
<trkpt lat="52.546077728271484" lon="13.152273178100586">
<ele>67.4000015258789</ele>
<time>2014-02-15T14:54:12Z</time>
</trkpt>
<trkpt lat="52.54604721069336" lon="13.152193069458008">
<ele>67.30000305175781</ele>
<time>2014-02-15T14:54:13Z</time>
</trkpt>
<trkpt lat="52.5460319519043" lon="13.152118682861328">
<ele>67.19999694824219</ele>
<time>2014-02-15T14:54:14Z</time>
</trkpt>
<trkpt lat="52.54601287841797" lon="13.152033805847168">
<ele>67.4000015258789</ele>
<time>2014-02-15T14:54:15Z</time>
</trkpt>
<trkpt lat="52.5460319519043" lon="13.15194320678711">
<ele>67.30000305175781</ele>
<time>2014-02-15T14:54:16Z</time>
</trkpt>
<trkpt lat="52.54606628417969" lon="13.151872634887695">
<ele>67.19999694824219</ele>
<time>2014-02-15T14:54:17Z</time>
</trkpt>
<trkpt lat="52.54611587524414" lon="13.151850700378418">
<ele>67.0</ele>
<time>2014-02-15T14:54:18Z</time>
</trkpt>
<trkpt lat="52.54616928100586" lon="13.151870727539062">
<ele>66.5999984741211</ele>
<time>2014-02-15T14:54:19Z</time>
</trkpt>
<trkpt lat="52.54621887207031" lon="13.151896476745605">
<ele>66.9000015258789</ele>
<time>2014-02-15T14:54:20Z</time>
</trkpt>
<trkpt lat="52.546268463134766" lon="13.151914596557617">
<ele>67.19999694824219</ele>
<time>2014-02-15T14:54:21Z</time>
</trkpt>
<trkpt lat="52.54631423950195" lon="13.15192985534668">
<ele>67.0</ele>
<time>2014-02-15T14:54:22Z</time>
</trkpt>
<trkpt lat="52.54636001586914" lon="13.151949882507324">
<ele>67.4000015258789</ele>
<time>2014-02-15T14:54:23Z</time>
</trkpt>
<trkpt lat="52.546409606933594" lon="13.15197467803955">
<ele>67.80000305175781</ele>
<time>2014-02-15T14:54:24Z</time>
</trkpt>
<trkpt lat="52.54645538330078" lon="13.151996612548828">
<ele>68.0999984741211</ele>
<time>2014-02-15T14:54:25Z</time>
</trkpt>
<trkpt lat="52.546504974365234" lon="13.151995658874512">
<ele>68.4000015258789</ele>
<time>2014-02-15T14:54:26Z</time>
</trkpt>
<trkpt lat="52.54655075073242" lon="13.151994705200195">
<ele>68.5</ele>
<time>2014-02-15T14:54:27Z</time>
</trkpt>
<trkpt lat="52.54659652709961" lon="13.151995658874512">
<ele>68.80000305175781</ele>
<time>2014-02-15T14:54:28Z</time>
</trkpt>
<trkpt lat="52.5466423034668" lon="13.152020454406738">
<ele>69.30000305175781</ele>
<time>2014-02-15T14:54:29Z</time>
</trkpt>
<trkpt lat="52.54671859741211" lon="13.152059555053711">
<ele>69.5999984741211</ele>
<time>2014-02-15T14:54:31Z</time>
</trkpt>
<trkpt lat="52.54678726196289" lon="13.15206241607666">
<ele>69.80000305175781</ele>
<time>2014-02-15T14:54:33Z</time>
</trkpt>
<trkpt lat="52.546817779541016" lon="13.151947975158691">
<ele>69.4000015258789</ele>
<time>2014-02-15T14:54:34Z</time>
</trkpt>
<trkpt lat="52.546836853027344" lon="13.151809692382812">
<ele>69.5999984741211</ele>
<time>2014-02-15T14:54:37Z</time>
</trkpt>
<trkpt lat="52.54685592651367" lon="13.151724815368652">
<ele>68.9000015258789</ele>
<time>2014-02-15T14:54:38Z</time>
</trkpt>
<trkpt lat="52.546875" lon="13.151632308959961">
<ele>69.30000305175781</ele>
<time>2014-02-15T14:54:39Z</time>
</trkpt>
<trkpt lat="52.5468864440918" lon="13.151544570922852">
<ele>69.0999984741211</ele>
<time>2014-02-15T14:54:40Z</time>
</trkpt>
<trkpt lat="52.54690170288086" lon="13.151466369628906">
<ele>69.4000015258789</ele>
<time>2014-02-15T14:54:41Z</time>
</trkpt>
<trkpt lat="52.54690933227539" lon="13.151381492614746">
<ele>69.80000305175781</ele>
<time>2014-02-15T14:54:42Z</time>
</trkpt>
<trkpt lat="52.54692459106445" lon="13.151290893554688">
<ele>69.30000305175781</ele>
<time>2014-02-15T14:54:43Z</time>
</trkpt>
<trkpt lat="52.54693603515625" lon="13.151204109191895">
<ele>69.30000305175781</ele>
<time>2014-02-15T14:54:44Z</time>
</trkpt>
<trkpt lat="52.54694366455078" lon="13.151111602783203">
<ele>69.4000015258789</ele>
<time>2014-02-15T14:54:45Z</time>
</trkpt>
<trkpt lat="52.54695129394531" lon="13.151033401489258">
<ele>69.5</ele>
<time>2014-02-15T14:54:46Z</time>
</trkpt>
<trkpt lat="52.54695510864258" lon="13.150949478149414">
<ele>69.4000015258789</ele>
<time>2014-02-15T14:54:47Z</time>
</trkpt>
<trkpt lat="52.54696273803711" lon="13.150867462158203">
<ele>69.4000015258789</ele>
<time>2014-02-15T14:54:48Z</time>
</trkpt>
<trkpt lat="52.54697036743164" lon="13.15079116821289">
<ele>69.0</ele>
<time>2014-02-15T14:54:49Z</time>
</trkpt>
<trkpt lat="52.5469856262207" lon="13.150710105895996">
<ele>68.9000015258789</ele>
<time>2014-02-15T14:54:50Z</time>
</trkpt>
<trkpt lat="52.5469970703125" lon="13.150628089904785">
<ele>68.9000015258789</ele>
<time>2014-02-15T14:54:51Z</time>
</trkpt>
<trkpt lat="52.54701232910156" lon="13.150541305541992">
<ele>69.0999984741211</ele>
<time>2014-02-15T14:54:52Z</time>
</trkpt>
<trkpt lat="52.547019958496094" lon="13.150461196899414">
<ele>69.19999694824219</ele>
<time>2014-02-15T14:54:53Z</time>
</trkpt>
<trkpt lat="52.54704284667969" lon="13.150379180908203">
<ele>69.4000015258789</ele>
<time>2014-02-15T14:54:54Z</time>
</trkpt>
<trkpt lat="52.54706573486328" lon="13.15030288696289">
<ele>69.4000015258789</ele>
<time>2014-02-15T14:54:55Z</time>
</trkpt>
<trkpt lat="52.547088623046875" lon="13.150228500366211">
<ele>69.0</ele>
<time>2014-02-15T14:54:56Z</time>
</trkpt>
<trkpt lat="52.54711151123047" lon="13.150150299072266">
<ele>69.30000305175781</ele>
<time>2014-02-15T14:54:56Z</time>
</trkpt>
<trkpt lat="52.54712677001953" lon="13.150066375732422">
<ele>69.4000015258789</ele>
<time>2014-02-15T14:54:58Z</time>
</trkpt>
<trkpt lat="52.54715347290039" lon="13.149978637695312">
<ele>69.5</ele>
<time>2014-02-15T14:54:59Z</time>
</trkpt>
<trkpt lat="52.54717254638672" lon="13.149892807006836">
<ele>69.30000305175781</ele>
<time>2014-02-15T14:55:00Z</time>
</trkpt>
<trkpt lat="52.547183990478516" lon="13.149813652038574">
<ele>69.4000015258789</ele>
<time>2014-02-15T14:55:01Z</time>
</trkpt>
<trkpt lat="52.54720687866211" lon="13.149742126464844">
<ele>68.80000305175781</ele>
<time>2014-02-15T14:55:02Z</time>
</trkpt>
<trkpt lat="52.54722213745117" lon="13.149654388427734">
<ele>69.30000305175781</ele>
<time>2014-02-15T14:55:03Z</time>
</trkpt>
<trkpt lat="52.5472412109375" lon="13.149567604064941">
<ele>69.4000015258789</ele>
<time>2014-02-15T14:55:04Z</time>
</trkpt>
<trkpt lat="52.54725646972656" lon="13.149483680725098">
<ele>69.5999984741211</ele>
<time>2014-02-15T14:55:05Z</time>
</trkpt>
<trkpt lat="52.54727554321289" lon="13.149398803710938">
<ele>69.80000305175781</ele>
<time>2014-02-15T14:55:06Z</time>
</trkpt>
<trkpt lat="52.54728698730469" lon="13.149313926696777">
<ele>69.80000305175781</ele>
<time>2014-02-15T14:55:07Z</time>
</trkpt>
<trkpt lat="52.54730224609375" lon="13.149230003356934">
<ele>69.5999984741211</ele>
<time>2014-02-15T14:55:08Z</time>
</trkpt>
<trkpt lat="52.54731369018555" lon="13.149154663085938">
<ele>69.30000305175781</ele>
<time>2014-02-15T14:55:09Z</time>
</trkpt>
<trkpt lat="52.547332763671875" lon="13.149076461791992">
<ele>69.0</ele>
<time>2014-02-15T14:55:10Z</time>
</trkpt>
<trkpt lat="52.5473518371582" lon="13.148988723754883">
<ele>69.19999694824219</ele>
<time>2014-02-15T14:55:11Z</time>
</trkpt>
<trkpt lat="52.5473747253418" lon="13.148906707763672">
<ele>69.19999694824219</ele>
<time>2014-02-15T14:55:12Z</time>
</trkpt>
<trkpt lat="52.547401428222656" lon="13.14883041381836">
<ele>69.0</ele>
<time>2014-02-15T14:55:13Z</time>
</trkpt>
<trkpt lat="52.54743194580078" lon="13.14875602722168">
<ele>68.9000015258789</ele>
<time>2014-02-15T14:55:14Z</time>
</trkpt>
<trkpt lat="52.547462463378906" lon="13.148682594299316">
<ele>68.5999984741211</ele>
<time>2014-02-15T14:55:15Z</time>
</trkpt>
<trkpt lat="52.54749298095703" lon="13.148609161376953">
<ele>68.80000305175781</ele>
<time>2014-02-15T14:55:16Z</time>
</trkpt>
<trkpt lat="52.54751968383789" lon="13.14853572845459">
<ele>68.9000015258789</ele>
<time>2014-02-15T14:55:17Z</time>
</trkpt>
<trkpt lat="52.547550201416016" lon="13.148468017578125">
<ele>68.9000015258789</ele>
<time>2014-02-15T14:55:18Z</time>
</trkpt>
<trkpt lat="52.547576904296875" lon="13.148391723632812">
<ele>68.9000015258789</ele>
<time>2014-02-15T14:55:19Z</time>
</trkpt>
<trkpt lat="52.547607421875" lon="13.148314476013184">
<ele>69.0</ele>
<time>2014-02-15T14:55:20Z</time>
</trkpt>
<trkpt lat="52.54764175415039" lon="13.14824390411377">
<ele>68.69999694824219</ele>
<time>2014-02-15T14:55:21Z</time>
</trkpt>
<trkpt lat="52.547672271728516" lon="13.148165702819824">
<ele>68.80000305175781</ele>
<time>2014-02-15T14:55:22Z</time>
</trkpt>
<trkpt lat="52.547706604003906" lon="13.148096084594727">
<ele>68.69999694824219</ele>
<time>2014-02-15T14:55:23Z</time>
</trkpt>
<trkpt lat="52.54773712158203" lon="13.148024559020996">
<ele>68.5999984741211</ele>
<time>2014-02-15T14:55:24Z</time>
</trkpt>
<trkpt lat="52.54777145385742" lon="13.14794921875">
<ele>68.4000015258789</ele>
<time>2014-02-15T14:55:25Z</time>
</trkpt>
<trkpt lat="52.54780197143555" lon="13.147876739501953">
<ele>68.5</ele>
<time>2014-02-15T14:55:26Z</time>
</trkpt>
<trkpt lat="52.54783630371094" lon="13.147806167602539">
<ele>68.5999984741211</ele>
<time>2014-02-15T14:55:27Z</time>
</trkpt>
<trkpt lat="52.54787063598633" lon="13.147735595703125">
<ele>68.5999984741211</ele>
<time>2014-02-15T14:55:28Z</time>
</trkpt>
<trkpt lat="52.54790496826172" lon="13.147665023803711">
<ele>68.5</ele>
<time>2014-02-15T14:55:29Z</time>
</trkpt>
<trkpt lat="52.547943115234375" lon="13.147594451904297">
<ele>68.5</ele>
<time>2014-02-15T14:55:30Z</time>
</trkpt>
<trkpt lat="52.5479850769043" lon="13.147533416748047">
<ele>68.5999984741211</ele>
<time>2014-02-15T14:55:31Z</time>
</trkpt>
<trkpt lat="52.54802703857422" lon="13.147473335266113">
<ele>68.30000305175781</ele>
<time>2014-02-15T14:55:32Z</time>
</trkpt>
<trkpt lat="52.548065185546875" lon="13.14741039276123">
<ele>68.30000305175781</ele>
<time>2014-02-15T14:55:33Z</time>
</trkpt>
<trkpt lat="52.5481071472168" lon="13.147348403930664">
<ele>68.30000305175781</ele>
<time>2014-02-15T14:55:34Z</time>
</trkpt>
<trkpt lat="52.54814910888672" lon="13.147282600402832">
<ele>68.4000015258789</ele>
<time>2014-02-15T14:55:35Z</time>
</trkpt>
<trkpt lat="52.54819107055664" lon="13.147221565246582">
<ele>68.5</ele>
<time>2014-02-15T14:55:36Z</time>
</trkpt>
<trkpt lat="52.54823303222656" lon="13.147161483764648">
<ele>68.4000015258789</ele>
<time>2014-02-15T14:55:37Z</time>
</trkpt>
<trkpt lat="52.548274993896484" lon="13.147102355957031">
<ele>68.5999984741211</ele>
<time>2014-02-15T14:55:38Z</time>
</trkpt>
<trkpt lat="52.54831314086914" lon="13.14704704284668">
<ele>68.5</ele>
<time>2014-02-15T14:55:39Z</time>
</trkpt>
<trkpt lat="52.548362731933594" lon="13.146994590759277">
<ele>68.80000305175781</ele>
<time>2014-02-15T14:55:40Z</time>
</trkpt>
<trkpt lat="52.54841232299805" lon="13.14696216583252">
<ele>69.0999984741211</ele>
<time>2014-02-15T14:55:41Z</time>
</trkpt>
<trkpt lat="52.548465728759766" lon="13.146934509277344">
<ele>69.0</ele>
<time>2014-02-15T14:55:42Z</time>
</trkpt>
<trkpt lat="52.548519134521484" lon="13.146921157836914">
<ele>68.9000015258789</ele>
<time>2014-02-15T14:55:43Z</time>
</trkpt>
<trkpt lat="52.5485725402832" lon="13.146927833557129">
<ele>68.69999694824219</ele>
<time>2014-02-15T14:55:44Z</time>
</trkpt>
<trkpt lat="52.548622131347656" lon="13.14692211151123">
<ele>68.80000305175781</ele>
<time>2014-02-15T14:55:45Z</time>
</trkpt>
<trkpt lat="52.54867172241211" lon="13.146916389465332">
<ele>68.5999984741211</ele>
<time>2014-02-15T14:55:46Z</time>
</trkpt>
<trkpt lat="52.54872512817383" lon="13.1469087600708">
<ele>68.4000015258789</ele>
<time>2014-02-15T14:55:47Z</time>
</trkpt>
<trkpt lat="52.54877853393555" lon="13.146903991699219">
<ele>68.30000305175781</ele>
<time>2014-02-15T14:55:48Z</time>
</trkpt>
<trkpt lat="52.54883575439453" lon="13.146899223327637">
<ele>68.4000015258789</ele>
<time>2014-02-15T14:55:49Z</time>
</trkpt>
<trkpt lat="52.54893112182617" lon="13.146896362304688">
<ele>69.19999694824219</ele>
<time>2014-02-15T14:55:51Z</time>
</trkpt>
<trkpt lat="52.54898452758789" lon="13.14690113067627">
<ele>69.5999984741211</ele>
<time>2014-02-15T14:55:52Z</time>
</trkpt>
<trkpt lat="52.54903793334961" lon="13.146883010864258">
<ele>69.30000305175781</ele>
<time>2014-02-15T14:55:53Z</time>
</trkpt>
<trkpt lat="52.54908752441406" lon="13.14687442779541">
<ele>68.9000015258789</ele>
<time>2014-02-15T14:55:54Z</time>
</trkpt>
<trkpt lat="52.54914093017578" lon="13.146868705749512">
<ele>69.0</ele>
<time>2014-02-15T14:55:55Z</time>
</trkpt>
<trkpt lat="52.5491943359375" lon="13.146862983703613">
<ele>69.0999984741211</ele>
<time>2014-02-15T14:55:56Z</time>
</trkpt>
<trkpt lat="52.54924392700195" lon="13.146856307983398">
<ele>69.0999984741211</ele>
<time>2014-02-15T14:55:57Z</time>
</trkpt>
<trkpt lat="52.54930114746094" lon="13.146846771240234">
<ele>69.0999984741211</ele>
<time>2014-02-15T14:55:58Z</time>
</trkpt>
<trkpt lat="52.54935836791992" lon="13.146842002868652">
<ele>69.0999984741211</ele>
<time>2014-02-15T14:55:59Z</time>
</trkpt>
<trkpt lat="52.54941940307617" lon="13.146828651428223">
<ele>69.30000305175781</ele>
<time>2014-02-15T14:56:00Z</time>
</trkpt>
<trkpt lat="52.54947280883789" lon="13.146820068359375">
<ele>69.4000015258789</ele>
<time>2014-02-15T14:56:01Z</time>
</trkpt>
<trkpt lat="52.549530029296875" lon="13.146811485290527">
<ele>69.19999694824219</ele>
<time>2014-02-15T14:56:02Z</time>
</trkpt>
<trkpt lat="52.549583435058594" lon="13.146806716918945">
<ele>69.30000305175781</ele>
<time>2014-02-15T14:56:03Z</time>
</trkpt>
<trkpt lat="52.54963684082031" lon="13.146803855895996">
<ele>69.5</ele>
<time>2014-02-15T14:56:04Z</time>
</trkpt>
<trkpt lat="52.549686431884766" lon="13.146800994873047">
<ele>69.0</ele>
<time>2014-02-15T14:56:05Z</time>
</trkpt>
<trkpt lat="52.54974365234375" lon="13.1467866897583">
<ele>69.69999694824219</ele>
<time>2014-02-15T14:56:06Z</time>
</trkpt>
<trkpt lat="52.54979705810547" lon="13.146771430969238">
<ele>69.69999694824219</ele>
<time>2014-02-15T14:56:07Z</time>
</trkpt>
<trkpt lat="52.54985427856445" lon="13.146759986877441">
<ele>68.5</ele>
<time>2014-02-15T14:56:08Z</time>
</trkpt>
<trkpt lat="52.54990005493164" lon="13.146730422973633">
<ele>67.19999694824219</ele>
<time>2014-02-15T14:56:09Z</time>
</trkpt>
<trkpt lat="52.549949645996094" lon="13.146703720092773">
<ele>66.9000015258789</ele>
<time>2014-02-15T14:56:10Z</time>
</trkpt>
<trkpt lat="52.549991607666016" lon="13.1466703414917">
<ele>66.69999694824219</ele>
<time>2014-02-15T14:56:11Z</time>
</trkpt>
<trkpt lat="52.550048828125" lon="13.146634101867676">
<ele>66.4000015258789</ele>
<time>2014-02-15T14:56:12Z</time>
</trkpt>
<trkpt lat="52.550106048583984" lon="13.146598815917969">
<ele>66.4000015258789</ele>
<time>2014-02-15T14:56:13Z</time>
</trkpt>
<trkpt lat="52.55015563964844" lon="13.146562576293945">
<ele>66.4000015258789</ele>
<time>2014-02-15T14:56:14Z</time>
</trkpt>
<trkpt lat="52.55021286010742" lon="13.146523475646973">
<ele>66.80000305175781</ele>
<time>2014-02-15T14:56:15Z</time>
</trkpt>
<trkpt lat="52.55025863647461" lon="13.146500587463379">
<ele>66.0</ele>
<time>2014-02-15T14:56:16Z</time>
</trkpt>
<trkpt lat="52.5503044128418" lon="13.146482467651367">
<ele>66.0</ele>
<time>2014-02-15T14:56:17Z</time>
</trkpt>
<trkpt lat="52.55036163330078" lon="13.146459579467773">
<ele>66.19999694824219</ele>
<time>2014-02-15T14:56:18Z</time>
</trkpt>
<trkpt lat="52.550411224365234" lon="13.146427154541016">
<ele>66.5</ele>
<time>2014-02-15T14:56:19Z</time>
</trkpt>
<trkpt lat="52.55046463012695" lon="13.146397590637207">
<ele>66.9000015258789</ele>
<time>2014-02-15T14:56:20Z</time>
</trkpt>
<trkpt lat="52.55051803588867" lon="13.146364212036133">
<ele>66.69999694824219</ele>
<time>2014-02-15T14:56:20Z</time>
</trkpt>
<trkpt lat="52.55057144165039" lon="13.146331787109375">
<ele>66.80000305175781</ele>
<time>2014-02-15T14:56:22Z</time>
</trkpt>
<trkpt lat="52.550621032714844" lon="13.146286964416504">
<ele>66.69999694824219</ele>
<time>2014-02-15T14:56:23Z</time>
</trkpt>
<trkpt lat="52.5506706237793" lon="13.146251678466797">
<ele>67.0999984741211</ele>
<time>2014-02-15T14:56:24Z</time>
</trkpt>
<trkpt lat="52.55072021484375" lon="13.146218299865723">
<ele>67.0999984741211</ele>
<time>2014-02-15T14:56:25Z</time>
</trkpt>
<trkpt lat="52.55076599121094" lon="13.146191596984863">
<ele>67.19999694824219</ele>
<time>2014-02-15T14:56:26Z</time>
</trkpt>
<trkpt lat="52.550819396972656" lon="13.146159172058105">
<ele>67.4000015258789</ele>
<time>2014-02-15T14:56:27Z</time>
</trkpt>
<trkpt lat="52.55086898803711" lon="13.146136283874512">
<ele>67.0999984741211</ele>
<time>2014-02-15T14:56:28Z</time>
</trkpt>
<trkpt lat="52.55092239379883" lon="13.146116256713867">
<ele>67.19999694824219</ele>
<time>2014-02-15T14:56:29Z</time>
</trkpt>
<trkpt lat="52.55097579956055" lon="13.14612865447998">
<ele>67.19999694824219</ele>
<time>2014-02-15T14:56:30Z</time>
</trkpt>
<trkpt lat="52.5510368347168" lon="13.146137237548828">
<ele>67.30000305175781</ele>
<time>2014-02-15T14:56:31Z</time>
</trkpt>
<trkpt lat="52.551090240478516" lon="13.14615535736084">
<ele>67.4000015258789</ele>
<time>2014-02-15T14:56:32Z</time>
</trkpt>
<trkpt lat="52.5511474609375" lon="13.146178245544434">
<ele>67.69999694824219</ele>
<time>2014-02-15T14:56:33Z</time>
</trkpt>
<trkpt lat="52.551204681396484" lon="13.146194458007812">
<ele>67.80000305175781</ele>
<time>2014-02-15T14:56:34Z</time>
</trkpt>
<trkpt lat="52.55126190185547" lon="13.146208763122559">
<ele>67.9000015258789</ele>
<time>2014-02-15T14:56:35Z</time>
</trkpt>
<trkpt lat="52.55132293701172" lon="13.146224975585938">
<ele>68.19999694824219</ele>
<time>2014-02-15T14:56:36Z</time>
</trkpt>
<trkpt lat="52.5513801574707" lon="13.14623737335205">
<ele>68.5999984741211</ele>
<time>2014-02-15T14:56:37Z</time>
</trkpt>
<trkpt lat="52.55143737792969" lon="13.146252632141113">
<ele>68.69999694824219</ele>
<time>2014-02-15T14:56:38Z</time>
</trkpt>
<trkpt lat="52.55149459838867" lon="13.146271705627441">
<ele>68.80000305175781</ele>
<time>2014-02-15T14:56:39Z</time>
</trkpt>
<trkpt lat="52.55154800415039" lon="13.146289825439453">
<ele>68.9000015258789</ele>
<time>2014-02-15T14:56:40Z</time>
</trkpt>
<trkpt lat="52.551605224609375" lon="13.146313667297363">
<ele>68.80000305175781</ele>
<time>2014-02-15T14:56:41Z</time>
</trkpt>
<trkpt lat="52.55166244506836" lon="13.146323204040527">
<ele>68.30000305175781</ele>
<time>2014-02-15T14:56:42Z</time>
</trkpt>
<trkpt lat="52.55171203613281" lon="13.146337509155273">
<ele>68.30000305175781</ele>
<time>2014-02-15T14:56:43Z</time>
</trkpt>
<trkpt lat="52.5517578125" lon="13.146324157714844">
<ele>68.19999694824219</ele>
<time>2014-02-15T14:56:44Z</time>
</trkpt>
<trkpt lat="52.55180358886719" lon="13.146305084228516">
<ele>68.69999694824219</ele>
<time>2014-02-15T14:56:45Z</time>
</trkpt>
<trkpt lat="52.55186080932617" lon="13.146345138549805">
<ele>67.30000305175781</ele>
<time>2014-02-15T14:56:47Z</time>
</trkpt>
<trkpt lat="52.55192565917969" lon="13.14635944366455">
<ele>67.9000015258789</ele>
<time>2014-02-15T14:56:50Z</time>
</trkpt>
<trkpt lat="52.552024841308594" lon="13.146368026733398">
<ele>69.5999984741211</ele>
<time>2014-02-15T14:56:53Z</time>
</trkpt>
<trkpt lat="52.55207061767578" lon="13.146368026733398">
<ele>70.0</ele>
<time>2014-02-15T14:56:54Z</time>
</trkpt>
<trkpt lat="52.55211639404297" lon="13.146366119384766">
<ele>70.0999984741211</ele>
<time>2014-02-15T14:56:55Z</time>
</trkpt>
<trkpt lat="52.55220031738281" lon="13.146403312683105">
<ele>69.80000305175781</ele>
<time>2014-02-15T14:56:57Z</time>
</trkpt>
<trkpt lat="52.552284240722656" lon="13.146444320678711">
<ele>68.69999694824219</ele>
<time>2014-02-15T14:56:59Z</time>
</trkpt>
<trkpt lat="52.552337646484375" lon="13.146463394165039">
<ele>68.5</ele>
<time>2014-02-15T14:57:00Z</time>
</trkpt>
<trkpt lat="52.55238723754883" lon="13.146478652954102">
<ele>68.0999984741211</ele>
<time>2014-02-15T14:57:00Z</time>
</trkpt>
<trkpt lat="52.55243682861328" lon="13.146496772766113">
<ele>67.9000015258789</ele>
<time>2014-02-15T14:57:02Z</time>
</trkpt>
<trkpt lat="52.55249786376953" lon="13.146523475646973">
<ele>67.19999694824219</ele>
<time>2014-02-15T14:57:03Z</time>
</trkpt>
<trkpt lat="52.552555084228516" lon="13.146544456481934">
<ele>66.9000015258789</ele>
<time>2014-02-15T14:57:04Z</time>
</trkpt>
<trkpt lat="52.552608489990234" lon="13.146557807922363">
<ele>66.80000305175781</ele>
<time>2014-02-15T14:57:05Z</time>
</trkpt>
<trkpt lat="52.55265808105469" lon="13.14657211303711">
<ele>66.4000015258789</ele>
<time>2014-02-15T14:57:06Z</time>
</trkpt>
<trkpt lat="52.55271530151367" lon="13.146594047546387">
<ele>66.30000305175781</ele>
<time>2014-02-15T14:57:07Z</time>
</trkpt>
<trkpt lat="52.552764892578125" lon="13.146611213684082">
<ele>66.0999984741211</ele>
<time>2014-02-15T14:57:08Z</time>
</trkpt>
<trkpt lat="52.55282211303711" lon="13.146629333496094">
<ele>66.0</ele>
<time>2014-02-15T14:57:09Z</time>
</trkpt>
<trkpt lat="52.552879333496094" lon="13.146646499633789">
<ele>65.5</ele>
<time>2014-02-15T14:57:10Z</time>
</trkpt>
<trkpt lat="52.55294418334961" lon="13.146656036376953">
<ele>65.9000015258789</ele>
<time>2014-02-15T14:57:11Z</time>
</trkpt>
<trkpt lat="52.553009033203125" lon="13.146676063537598">
<ele>65.80000305175781</ele>
<time>2014-02-15T14:57:12Z</time>
</trkpt>
<trkpt lat="52.553070068359375" lon="13.146693229675293">
<ele>65.69999694824219</ele>
<time>2014-02-15T14:57:13Z</time>
</trkpt>
<trkpt lat="52.55312728881836" lon="13.146717071533203">
<ele>65.5999984741211</ele>
<time>2014-02-15T14:57:14Z</time>
</trkpt>
<trkpt lat="52.553184509277344" lon="13.146747589111328">
<ele>65.5999984741211</ele>
<time>2014-02-15T14:57:15Z</time>
</trkpt>
<trkpt lat="52.5532341003418" lon="13.146785736083984">
<ele>65.80000305175781</ele>
<time>2014-02-15T14:57:16Z</time>
</trkpt>
<trkpt lat="52.55328369140625" lon="13.14681625366211">
<ele>65.69999694824219</ele>
<time>2014-02-15T14:57:17Z</time>
</trkpt>
<trkpt lat="52.5533332824707" lon="13.146854400634766">
<ele>65.30000305175781</ele>
<time>2014-02-15T14:57:18Z</time>
</trkpt>
<trkpt lat="52.553382873535156" lon="13.146897315979004">
<ele>65.5</ele>
<time>2014-02-15T14:57:19Z</time>
</trkpt>
<trkpt lat="52.553428649902344" lon="13.146955490112305">
<ele>65.0999984741211</ele>
<time>2014-02-15T14:57:20Z</time>
</trkpt>
<trkpt lat="52.55347442626953" lon="13.147012710571289">
<ele>65.5</ele>
<time>2014-02-15T14:57:21Z</time>
</trkpt>
<trkpt lat="52.55351638793945" lon="13.147071838378906">
<ele>65.5999984741211</ele>
<time>2014-02-15T14:57:22Z</time>
</trkpt>
<trkpt lat="52.55356216430664" lon="13.14713191986084">
<ele>65.69999694824219</ele>
<time>2014-02-15T14:57:23Z</time>
</trkpt>
<trkpt lat="52.55360412597656" lon="13.147192001342773">
<ele>65.80000305175781</ele>
<time>2014-02-15T14:57:24Z</time>
</trkpt>
<trkpt lat="52.553646087646484" lon="13.147249221801758">
<ele>66.0</ele>
<time>2014-02-15T14:57:25Z</time>
</trkpt>
<trkpt lat="52.553688049316406" lon="13.147307395935059">
<ele>65.9000015258789</ele>
<time>2014-02-15T14:57:26Z</time>
</trkpt>
<trkpt lat="52.553733825683594" lon="13.147367477416992">
<ele>66.0</ele>
<time>2014-02-15T14:57:27Z</time>
</trkpt>
<trkpt lat="52.553775787353516" lon="13.147424697875977">
<ele>65.5999984741211</ele>
<time>2014-02-15T14:57:28Z</time>
</trkpt>
<trkpt lat="52.55381393432617" lon="13.147482872009277">
<ele>65.19999694824219</ele>
<time>2014-02-15T14:57:29Z</time>
</trkpt>
<trkpt lat="52.55385208129883" lon="13.147541046142578">
<ele>64.9000015258789</ele>
<time>2014-02-15T14:57:30Z</time>
</trkpt>
<trkpt lat="52.55389404296875" lon="13.147602081298828">
<ele>64.5999984741211</ele>
<time>2014-02-15T14:57:31Z</time>
</trkpt>
<trkpt lat="52.55392837524414" lon="13.147653579711914">
<ele>64.69999694824219</ele>
<time>2014-02-15T14:57:32Z</time>
</trkpt>
<trkpt lat="52.55397033691406" lon="13.147708892822266">
<ele>64.80000305175781</ele>
<time>2014-02-15T14:57:33Z</time>
</trkpt>
<trkpt lat="52.554012298583984" lon="13.147762298583984">
<ele>64.9000015258789</ele>
<time>2014-02-15T14:57:34Z</time>
</trkpt>
<trkpt lat="52.554054260253906" lon="13.14781379699707">
<ele>65.0</ele>
<time>2014-02-15T14:57:35Z</time>
</trkpt>
<trkpt lat="52.55409622192383" lon="13.147860527038574">
<ele>65.0</ele>
<time>2014-02-15T14:57:36Z</time>
</trkpt>
<trkpt lat="52.554141998291016" lon="13.147902488708496">
<ele>65.0999984741211</ele>
<time>2014-02-15T14:57:36Z</time>
</trkpt>
<trkpt lat="52.5541877746582" lon="13.14793872833252">
<ele>65.0999984741211</ele>
<time>2014-02-15T14:57:38Z</time>
</trkpt>
<trkpt lat="52.55423355102539" lon="13.147976875305176">
<ele>65.5</ele>
<time>2014-02-15T14:57:39Z</time>
</trkpt>
<trkpt lat="52.55427932739258" lon="13.148011207580566">
<ele>65.80000305175781</ele>
<time>2014-02-15T14:57:40Z</time>
</trkpt>
<trkpt lat="52.554351806640625" lon="13.148070335388184">
<ele>66.0999984741211</ele>
<time>2014-02-15T14:57:42Z</time>
</trkpt>
<trkpt lat="52.55439376831055" lon="13.14812183380127">
<ele>64.0</ele>
<time>2014-02-15T14:57:44Z</time>
</trkpt>
<trkpt lat="52.5544319152832" lon="13.14808464050293">
<ele>65.9000015258789</ele>
<time>2014-02-15T14:57:50Z</time>
</trkpt>
<trkpt lat="52.55449676513672" lon="13.148052215576172">
<ele>68.30000305175781</ele>
<time>2014-02-15T14:58:29Z</time>
</trkpt>
<trkpt lat="52.554588317871094" lon="13.148012161254883">
<ele>70.5</ele>
<time>2014-02-15T14:58:32Z</time>
</trkpt>
<trkpt lat="52.55461120605469" lon="13.147924423217773">
<ele>71.5999984741211</ele>
<time>2014-02-15T14:58:34Z</time>
</trkpt>
<trkpt lat="52.55461883544922" lon="13.14783763885498">
<ele>72.30000305175781</ele>
<time>2014-02-15T14:58:35Z</time>
</trkpt>
<trkpt lat="52.554656982421875" lon="13.147679328918457">
<ele>70.80000305175781</ele>
<time>2014-02-15T14:58:37Z</time>
</trkpt>
<trkpt lat="52.5546875" lon="13.147597312927246">
<ele>71.19999694824219</ele>
<time>2014-02-15T14:58:38Z</time>
</trkpt>
<trkpt lat="52.554710388183594" lon="13.147520065307617">
<ele>70.30000305175781</ele>
<time>2014-02-15T14:58:39Z</time>
</trkpt>
<trkpt lat="52.55472946166992" lon="13.147433280944824">
<ele>69.80000305175781</ele>
<time>2014-02-15T14:58:40Z</time>
</trkpt>
<trkpt lat="52.554744720458984" lon="13.147357940673828">
<ele>69.4000015258789</ele>
<time>2014-02-15T14:58:41Z</time>
</trkpt>
<trkpt lat="52.55476379394531" lon="13.147282600402832">
<ele>69.69999694824219</ele>
<time>2014-02-15T14:58:42Z</time>
</trkpt>
<trkpt lat="52.554779052734375" lon="13.147208213806152">
<ele>69.19999694824219</ele>
<time>2014-02-15T14:58:43Z</time>
</trkpt>
<trkpt lat="52.55480194091797" lon="13.147132873535156">
<ele>69.19999694824219</ele>
<time>2014-02-15T14:58:44Z</time>
</trkpt>
<trkpt lat="52.55481719970703" lon="13.14705753326416">
<ele>69.0999984741211</ele>
<time>2014-02-15T14:58:45Z</time>
</trkpt>
<trkpt lat="52.554840087890625" lon="13.146987915039062">
<ele>68.9000015258789</ele>
<time>2014-02-15T14:58:46Z</time>
</trkpt>
<trkpt lat="52.55485916137695" lon="13.146913528442383">
<ele>68.69999694824219</ele>
<time>2014-02-15T14:58:47Z</time>
</trkpt>
<trkpt lat="52.55487823486328" lon="13.146846771240234">
<ele>68.80000305175781</ele>
<time>2014-02-15T14:58:48Z</time>
</trkpt>
<trkpt lat="52.55494689941406" lon="13.146795272827148">
<ele>69.30000305175781</ele>
<time>2014-02-15T14:58:50Z</time>
</trkpt>
<trkpt lat="52.55501937866211" lon="13.146879196166992">
<ele>69.0999984741211</ele>
<time>2014-02-15T14:58:52Z</time>
</trkpt>
<trkpt lat="52.5550651550293" lon="13.1469144821167">
<ele>68.80000305175781</ele>
<time>2014-02-15T14:58:53Z</time>
</trkpt>
<trkpt lat="52.555110931396484" lon="13.146944999694824">
<ele>68.5999984741211</ele>
<time>2014-02-15T14:58:54Z</time>
</trkpt>
<trkpt lat="52.5551643371582" lon="13.146960258483887">
<ele>68.80000305175781</ele>
<time>2014-02-15T14:58:55Z</time>
</trkpt>
<trkpt lat="52.55522155761719" lon="13.146957397460938">
<ele>68.80000305175781</ele>
<time>2014-02-15T14:58:56Z</time>
</trkpt>
<trkpt lat="52.55528259277344" lon="13.14696216583252">
<ele>68.5999984741211</ele>
<time>2014-02-15T14:58:57Z</time>
</trkpt>
<trkpt lat="52.55533218383789" lon="13.146953582763672">
<ele>68.30000305175781</ele>
<time>2014-02-15T14:58:58Z</time>
</trkpt>
<trkpt lat="52.55538558959961" lon="13.146952629089355">
<ele>68.5999984741211</ele>
<time>2014-02-15T14:58:59Z</time>
</trkpt>
<trkpt lat="52.55544662475586" lon="13.146940231323242">
<ele>68.80000305175781</ele>
<time>2014-02-15T14:59:00Z</time>
</trkpt>
<trkpt lat="52.555503845214844" lon="13.14693832397461">
<ele>68.9000015258789</ele>
<time>2014-02-15T14:59:01Z</time>
</trkpt>
<trkpt lat="52.555564880371094" lon="13.14694595336914">
<ele>68.5999984741211</ele>
<time>2014-02-15T14:59:02Z</time>
</trkpt>
<trkpt lat="52.555625915527344" lon="13.14694881439209">
<ele>68.19999694824219</ele>
<time>2014-02-15T14:59:03Z</time>
</trkpt>
<trkpt lat="52.555686950683594" lon="13.14694881439209">
<ele>68.0</ele>
<time>2014-02-15T14:59:04Z</time>
</trkpt>
<trkpt lat="52.55574417114258" lon="13.146944999694824">
<ele>67.69999694824219</ele>
<time>2014-02-15T14:59:05Z</time>
</trkpt>
<trkpt lat="52.55580520629883" lon="13.146940231323242">
<ele>67.5999984741211</ele>
<time>2014-02-15T14:59:06Z</time>
</trkpt>
<trkpt lat="52.55586624145508" lon="13.14694595336914">
<ele>67.5</ele>
<time>2014-02-15T14:59:07Z</time>
</trkpt>
<trkpt lat="52.55592727661133" lon="13.146940231323242">
<ele>67.5</ele>
<time>2014-02-15T14:59:08Z</time>
</trkpt>
<trkpt lat="52.55598449707031" lon="13.146947860717773">
<ele>67.30000305175781</ele>
<time>2014-02-15T14:59:09Z</time>
</trkpt>
<trkpt lat="52.55604553222656" lon="13.14694881439209">
<ele>67.0999984741211</ele>
<time>2014-02-15T14:59:10Z</time>
</trkpt>
<trkpt lat="52.55610275268555" lon="13.146941184997559">
<ele>67.0</ele>
<time>2014-02-15T14:59:11Z</time>
</trkpt>
<trkpt lat="52.5561637878418" lon="13.146927833557129">
<ele>67.0</ele>
<time>2014-02-15T14:59:12Z</time>
</trkpt>
<trkpt lat="52.556217193603516" lon="13.146913528442383">
<ele>66.69999694824219</ele>
<time>2014-02-15T14:59:13Z</time>
</trkpt>
<trkpt lat="52.556278228759766" lon="13.146892547607422">
<ele>67.0</ele>
<time>2014-02-15T14:59:14Z</time>
</trkpt>
<trkpt lat="52.55633544921875" lon="13.146881103515625">
<ele>67.0999984741211</ele>
<time>2014-02-15T14:59:15Z</time>
</trkpt>
<trkpt lat="52.556400299072266" lon="13.146870613098145">
<ele>67.4000015258789</ele>
<time>2014-02-15T14:59:16Z</time>
</trkpt>
<trkpt lat="52.556461334228516" lon="13.146866798400879">
<ele>67.5999984741211</ele>
<time>2014-02-15T14:59:17Z</time>
</trkpt>
<trkpt lat="52.556514739990234" lon="13.146858215332031">
<ele>67.5</ele>
<time>2014-02-15T14:59:18Z</time>
</trkpt>
<trkpt lat="52.556575775146484" lon="13.146854400634766">
<ele>67.9000015258789</ele>
<time>2014-02-15T14:59:18Z</time>
</trkpt>
<trkpt lat="52.55663299560547" lon="13.146849632263184">
<ele>67.9000015258789</ele>
<time>2014-02-15T14:59:20Z</time>
</trkpt>
<trkpt lat="52.55669403076172" lon="13.146843910217285">
<ele>68.0999984741211</ele>
<time>2014-02-15T14:59:21Z</time>
</trkpt>
<trkpt lat="52.5567512512207" lon="13.146844863891602">
<ele>68.0</ele>
<time>2014-02-15T14:59:22Z</time>
</trkpt>
<trkpt lat="52.55681228637695" lon="13.14684009552002">
<ele>68.0999984741211</ele>
<time>2014-02-15T14:59:23Z</time>
</trkpt>
<trkpt lat="52.55687713623047" lon="13.146842002868652">
<ele>68.4000015258789</ele>
<time>2014-02-15T14:59:24Z</time>
</trkpt>
<trkpt lat="52.55693435668945" lon="13.146836280822754">
<ele>68.0</ele>
<time>2014-02-15T14:59:25Z</time>
</trkpt>
<trkpt lat="52.55699920654297" lon="13.146825790405273">
<ele>67.5999984741211</ele>
<time>2014-02-15T14:59:26Z</time>
</trkpt>
<trkpt lat="52.55706024169922" lon="13.146815299987793">
<ele>67.19999694824219</ele>
<time>2014-02-15T14:59:27Z</time>
</trkpt>
<trkpt lat="52.557125091552734" lon="13.146824836730957">
<ele>67.19999694824219</ele>
<time>2014-02-15T14:59:28Z</time>
</trkpt>
<trkpt lat="52.557186126708984" lon="13.146854400634766">
<ele>67.4000015258789</ele>
<time>2014-02-15T14:59:29Z</time>
</trkpt>
<trkpt lat="52.55724334716797" lon="13.146868705749512">
<ele>67.0999984741211</ele>
<time>2014-02-15T14:59:30Z</time>
</trkpt>
<trkpt lat="52.557308197021484" lon="13.146876335144043">
<ele>67.0</ele>
<time>2014-02-15T14:59:31Z</time>
</trkpt>
<trkpt lat="52.557373046875" lon="13.146875381469727">
<ele>67.19999694824219</ele>
<time>2014-02-15T14:59:32Z</time>
</trkpt>
<trkpt lat="52.557437896728516" lon="13.146878242492676">
<ele>67.80000305175781</ele>
<time>2014-02-15T14:59:33Z</time>
</trkpt>
<trkpt lat="52.557498931884766" lon="13.146873474121094">
<ele>67.80000305175781</ele>
<time>2014-02-15T14:59:34Z</time>
</trkpt>
<trkpt lat="52.557559967041016" lon="13.14687442779541">
<ele>67.5</ele>
<time>2014-02-15T14:59:35Z</time>
</trkpt>
<trkpt lat="52.557621002197266" lon="13.146870613098145">
<ele>67.5</ele>
<time>2014-02-15T14:59:36Z</time>
</trkpt>
<trkpt lat="52.557682037353516" lon="13.146870613098145">
<ele>67.69999694824219</ele>
<time>2014-02-15T14:59:37Z</time>
</trkpt>
<trkpt lat="52.55774688720703" lon="13.146873474121094">
<ele>68.0999984741211</ele>
<time>2014-02-15T14:59:38Z</time>
</trkpt>
<trkpt lat="52.55780792236328" lon="13.146875381469727">
<ele>68.19999694824219</ele>
<time>2014-02-15T14:59:39Z</time>
</trkpt>
<trkpt lat="52.557865142822266" lon="13.146855354309082">
<ele>68.5</ele>
<time>2014-02-15T14:59:40Z</time>
</trkpt>
<trkpt lat="52.557918548583984" lon="13.146809577941895">
<ele>68.5999984741211</ele>
<time>2014-02-15T14:59:41Z</time>
</trkpt>
<trkpt lat="52.5579719543457" lon="13.14676570892334">
<ele>69.0999984741211</ele>
<time>2014-02-15T14:59:42Z</time>
</trkpt>
<trkpt lat="52.55802917480469" lon="13.146727561950684">
<ele>69.4000015258789</ele>
<time>2014-02-15T14:59:43Z</time>
</trkpt>
<trkpt lat="52.55809020996094" lon="13.146702766418457">
<ele>69.19999694824219</ele>
<time>2014-02-15T14:59:44Z</time>
</trkpt>
<trkpt lat="52.55815124511719" lon="13.14669132232666">
<ele>69.5</ele>
<time>2014-02-15T14:59:45Z</time>
</trkpt>
<trkpt lat="52.5582160949707" lon="13.146675109863281">
<ele>69.4000015258789</ele>
<time>2014-02-15T14:59:46Z</time>
</trkpt>
<trkpt lat="52.55827713012695" lon="13.14666748046875">
<ele>69.69999694824219</ele>
<time>2014-02-15T14:59:47Z</time>
</trkpt>
<trkpt lat="52.55833435058594" lon="13.146661758422852">
<ele>69.80000305175781</ele>
<time>2014-02-15T14:59:48Z</time>
</trkpt>
<trkpt lat="52.55839538574219" lon="13.146657943725586">
<ele>69.4000015258789</ele>
<time>2014-02-15T14:59:49Z</time>
</trkpt>
<trkpt lat="52.558448791503906" lon="13.146604537963867">
<ele>69.0999984741211</ele>
<time>2014-02-15T14:59:50Z</time>
</trkpt>
<trkpt lat="52.55848693847656" lon="13.146525382995605">
<ele>69.0</ele>
<time>2014-02-15T14:59:51Z</time>
</trkpt>
<trkpt lat="52.55854034423828" lon="13.146456718444824">
<ele>69.19999694824219</ele>
<time>2014-02-15T14:59:51Z</time>
</trkpt>
<trkpt lat="52.55859375" lon="13.146398544311523">
<ele>69.4000015258789</ele>
<time>2014-02-15T14:59:53Z</time>
</trkpt>
<trkpt lat="52.558650970458984" lon="13.146336555480957">
<ele>69.69999694824219</ele>
<time>2014-02-15T14:59:54Z</time>
</trkpt>
<trkpt lat="52.5587043762207" lon="13.146284103393555">
<ele>70.0</ele>
<time>2014-02-15T14:59:55Z</time>
</trkpt>
<trkpt lat="52.55876159667969" lon="13.146234512329102">
<ele>69.80000305175781</ele>
<time>2014-02-15T14:59:56Z</time>
</trkpt>
<trkpt lat="52.55881118774414" lon="13.146193504333496">
<ele>69.5999984741211</ele>
<time>2014-02-15T14:59:57Z</time>
</trkpt>
<trkpt lat="52.55887222290039" lon="13.146153450012207">
<ele>69.5999984741211</ele>
<time>2014-02-15T14:59:58Z</time>
</trkpt>
<trkpt lat="52.55892562866211" lon="13.146111488342285">
<ele>69.4000015258789</ele>
<time>2014-02-15T14:59:59Z</time>
</trkpt>
<trkpt lat="52.55898666381836" lon="13.146076202392578">
<ele>69.4000015258789</ele>
<time>2014-02-15T15:00:00Z</time>
</trkpt>
<trkpt lat="52.559043884277344" lon="13.146039009094238">
<ele>68.9000015258789</ele>
<time>2014-02-15T15:00:01Z</time>
</trkpt>
<trkpt lat="52.559104919433594" lon="13.146000862121582">
<ele>69.5</ele>
<time>2014-02-15T15:00:02Z</time>
</trkpt>
<trkpt lat="52.55915832519531" lon="13.145942687988281">
<ele>69.5999984741211</ele>
<time>2014-02-15T15:00:03Z</time>
</trkpt>
<trkpt lat="52.5591926574707" lon="13.14585018157959">
<ele>69.4000015258789</ele>
<time>2014-02-15T15:00:04Z</time>
</trkpt>
<trkpt lat="52.55921936035156" lon="13.14575481414795">
<ele>69.4000015258789</ele>
<time>2014-02-15T15:00:05Z</time>
</trkpt>
<trkpt lat="52.55923843383789" lon="13.145663261413574">
<ele>69.30000305175781</ele>
<time>2014-02-15T15:00:06Z</time>
</trkpt>
<trkpt lat="52.559295654296875" lon="13.145630836486816">
<ele>68.9000015258789</ele>
<time>2014-02-15T15:00:07Z</time>
</trkpt>
<trkpt lat="52.55934524536133" lon="13.145601272583008">
<ele>68.30000305175781</ele>
<time>2014-02-15T15:00:08Z</time>
</trkpt>
<trkpt lat="52.559452056884766" lon="13.1456298828125">
<ele>68.19999694824219</ele>
<time>2014-02-15T15:00:10Z</time>
</trkpt>
<trkpt lat="52.55950927734375" lon="13.145625114440918">
<ele>68.19999694824219</ele>
<time>2014-02-15T15:00:11Z</time>
</trkpt>
<trkpt lat="52.5595817565918" lon="13.145623207092285">
<ele>68.30000305175781</ele>
<time>2014-02-15T15:00:12Z</time>
</trkpt>
<trkpt lat="52.559654235839844" lon="13.145627975463867">
<ele>68.5</ele>
<time>2014-02-15T15:00:13Z</time>
</trkpt>
<trkpt lat="52.55972671508789" lon="13.145634651184082">
<ele>68.80000305175781</ele>
<time>2014-02-15T15:00:14Z</time>
</trkpt>
<trkpt lat="52.559791564941406" lon="13.145621299743652">
<ele>68.4000015258789</ele>
<time>2014-02-15T15:00:15Z</time>
</trkpt>
<trkpt lat="52.55984878540039" lon="13.145618438720703">
<ele>68.0999984741211</ele>
<time>2014-02-15T15:00:16Z</time>
</trkpt>
<trkpt lat="52.559913635253906" lon="13.145627975463867">
<ele>68.0</ele>
<time>2014-02-15T15:00:17Z</time>
</trkpt>
<trkpt lat="52.55998229980469" lon="13.14562702178955">
<ele>68.0999984741211</ele>
<time>2014-02-15T15:00:18Z</time>
</trkpt>
<trkpt lat="52.56003189086914" lon="13.14561939239502">
<ele>67.80000305175781</ele>
<time>2014-02-15T15:00:19Z</time>
</trkpt>
<trkpt lat="52.560096740722656" lon="13.145615577697754">
<ele>67.9000015258789</ele>
<time>2014-02-15T15:00:20Z</time>
</trkpt>
<trkpt lat="52.560157775878906" lon="13.145608901977539">
<ele>68.0</ele>
<time>2014-02-15T15:00:21Z</time>
</trkpt>
<trkpt lat="52.56022262573242" lon="13.145602226257324">
<ele>67.9000015258789</ele>
<time>2014-02-15T15:00:22Z</time>
</trkpt>
<trkpt lat="52.56027603149414" lon="13.145604133605957">
<ele>68.0999984741211</ele>
<time>2014-02-15T15:00:23Z</time>
</trkpt>
<trkpt lat="52.56034469604492" lon="13.14560317993164">
<ele>68.0999984741211</ele>
<time>2014-02-15T15:00:24Z</time>
</trkpt>
<trkpt lat="52.56041717529297" lon="13.145599365234375">
<ele>68.0999984741211</ele>
<time>2014-02-15T15:00:25Z</time>
</trkpt>
<trkpt lat="52.560462951660156" lon="13.14560604095459">
<ele>68.9000015258789</ele>
<time>2014-02-15T15:00:26Z</time>
</trkpt>
<trkpt lat="52.5605354309082" lon="13.145609855651855">
<ele>68.5999984741211</ele>
<time>2014-02-15T15:00:27Z</time>
</trkpt>
<trkpt lat="52.56059265136719" lon="13.14562702178955">
<ele>68.80000305175781</ele>
<time>2014-02-15T15:00:28Z</time>
</trkpt>
<trkpt lat="52.56064987182617" lon="13.145650863647461">
<ele>68.69999694824219</ele>
<time>2014-02-15T15:00:29Z</time>
</trkpt>
<trkpt lat="52.56071090698242" lon="13.145681381225586">
<ele>68.0999984741211</ele>
<time>2014-02-15T15:00:30Z</time>
</trkpt>
<trkpt lat="52.56077194213867" lon="13.145721435546875">
<ele>68.0</ele>
<time>2014-02-15T15:00:31Z</time>
</trkpt>
<trkpt lat="52.560821533203125" lon="13.145780563354492">
<ele>68.0999984741211</ele>
<time>2014-02-15T15:00:32Z</time>
</trkpt>
<trkpt lat="52.560882568359375" lon="13.145832061767578">
<ele>68.80000305175781</ele>
<time>2014-02-15T15:00:33Z</time>
</trkpt>
<trkpt lat="52.560935974121094" lon="13.145875930786133">
<ele>68.30000305175781</ele>
<time>2014-02-15T15:00:34Z</time>
</trkpt>
<trkpt lat="52.56098937988281" lon="13.145916938781738">
<ele>68.30000305175781</ele>
<time>2014-02-15T15:00:35Z</time>
</trkpt>
<trkpt lat="52.561038970947266" lon="13.145967483520508">
<ele>68.69999694824219</ele>
<time>2014-02-15T15:00:36Z</time>
</trkpt>
<trkpt lat="52.56108856201172" lon="13.146015167236328">
<ele>68.5999984741211</ele>
<time>2014-02-15T15:00:37Z</time>
</trkpt>
<trkpt lat="52.56113815307617" lon="13.146052360534668">
<ele>68.5</ele>
<time>2014-02-15T15:00:38Z</time>
</trkpt>
<trkpt lat="52.561187744140625" lon="13.146097183227539">
<ele>68.5</ele>
<time>2014-02-15T15:00:39Z</time>
</trkpt>
<trkpt lat="52.56123733520508" lon="13.146140098571777">
<ele>68.5</ele>
<time>2014-02-15T15:00:40Z</time>
</trkpt>
<trkpt lat="52.5612907409668" lon="13.146174430847168">
<ele>68.5</ele>
<time>2014-02-15T15:00:41Z</time>
</trkpt>
<trkpt lat="52.56135177612305" lon="13.146203994750977">
<ele>68.4000015258789</ele>
<time>2014-02-15T15:00:42Z</time>
</trkpt>
<trkpt lat="52.56140899658203" lon="13.146218299865723">
<ele>68.19999694824219</ele>
<time>2014-02-15T15:00:43Z</time>
</trkpt>
<trkpt lat="52.56146240234375" lon="13.146232604980469">
<ele>68.0</ele>
<time>2014-02-15T15:00:44Z</time>
</trkpt>
<trkpt lat="52.5615234375" lon="13.146239280700684">
<ele>68.0999984741211</ele>
<time>2014-02-15T15:00:45Z</time>
</trkpt>
<trkpt lat="52.561580657958984" lon="13.146236419677734">
<ele>68.0999984741211</ele>
<time>2014-02-15T15:00:46Z</time>
</trkpt>
<trkpt lat="52.561641693115234" lon="13.14622688293457">
<ele>68.30000305175781</ele>
<time>2014-02-15T15:00:47Z</time>
</trkpt>
<trkpt lat="52.561702728271484" lon="13.146209716796875">
<ele>68.5999984741211</ele>
<time>2014-02-15T15:00:48Z</time>
</trkpt>
<trkpt lat="52.56175994873047" lon="13.146187782287598">
<ele>68.5999984741211</ele>
<time>2014-02-15T15:00:49Z</time>
</trkpt>
<trkpt lat="52.56181335449219" lon="13.146170616149902">
<ele>68.9000015258789</ele>
<time>2014-02-15T15:00:50Z</time>
</trkpt>
<trkpt lat="52.56187438964844" lon="13.146134376525879">
<ele>69.0</ele>
<time>2014-02-15T15:00:51Z</time>
</trkpt>
<trkpt lat="52.56193161010742" lon="13.146102905273438">
<ele>69.30000305175781</ele>
<time>2014-02-15T15:00:52Z</time>
</trkpt>
<trkpt lat="52.561988830566406" lon="13.146059036254883">
<ele>69.80000305175781</ele>
<time>2014-02-15T15:00:53Z</time>
</trkpt>
<trkpt lat="52.56204605102539" lon="13.146012306213379">
<ele>70.0999984741211</ele>
<time>2014-02-15T15:00:54Z</time>
</trkpt>
<trkpt lat="52.562095642089844" lon="13.145956993103027">
<ele>70.5</ele>
<time>2014-02-15T15:00:55Z</time>
</trkpt>
<trkpt lat="52.5621452331543" lon="13.145895004272461">
<ele>70.9000015258789</ele>
<time>2014-02-15T15:00:56Z</time>
</trkpt>
<trkpt lat="52.56220245361328" lon="13.145841598510742">
<ele>71.30000305175781</ele>
<time>2014-02-15T15:00:57Z</time>
</trkpt>
<trkpt lat="52.562255859375" lon="13.145797729492188">
<ele>71.5</ele>
<time>2014-02-15T15:00:58Z</time>
</trkpt>
<trkpt lat="52.56230926513672" lon="13.145750999450684">
<ele>71.0999984741211</ele>
<time>2014-02-15T15:00:59Z</time>
</trkpt>
<trkpt lat="52.56235885620117" lon="13.145698547363281">
<ele>71.30000305175781</ele>
<time>2014-02-15T15:01:00Z</time>
</trkpt>
<trkpt lat="52.56241226196289" lon="13.14564323425293">
<ele>71.4000015258789</ele>
<time>2014-02-15T15:01:01Z</time>
</trkpt>
<trkpt lat="52.56245803833008" lon="13.145590782165527">
<ele>71.19999694824219</ele>
<time>2014-02-15T15:01:02Z</time>
</trkpt>
<trkpt lat="52.5625" lon="13.145528793334961">
<ele>71.5999984741211</ele>
<time>2014-02-15T15:01:03Z</time>
</trkpt>
<trkpt lat="52.56254577636719" lon="13.145468711853027">
<ele>71.30000305175781</ele>
<time>2014-02-15T15:01:04Z</time>
</trkpt>
<trkpt lat="52.56258773803711" lon="13.145406723022461">
<ele>71.0999984741211</ele>
<time>2014-02-15T15:01:05Z</time>
</trkpt>
<trkpt lat="52.56262969970703" lon="13.145332336425781">
<ele>71.5999984741211</ele>
<time>2014-02-15T15:01:06Z</time>
</trkpt>
<trkpt lat="52.56267547607422" lon="13.14526081085205">
<ele>71.5999984741211</ele>
<time>2014-02-15T15:01:07Z</time>
</trkpt>
<trkpt lat="52.562721252441406" lon="13.14518928527832">
<ele>71.9000015258789</ele>
<time>2014-02-15T15:01:08Z</time>
</trkpt>
<trkpt lat="52.562767028808594" lon="13.145120620727539">
<ele>72.0</ele>
<time>2014-02-15T15:01:09Z</time>
</trkpt>
<trkpt lat="52.562808990478516" lon="13.145048141479492">
<ele>71.0</ele>
<time>2014-02-15T15:01:10Z</time>
</trkpt>
<trkpt lat="52.5628547668457" lon="13.144984245300293">
<ele>70.5999984741211</ele>
<time>2014-02-15T15:01:11Z</time>
</trkpt>
<trkpt lat="52.56290054321289" lon="13.144927024841309">
<ele>70.69999694824219</ele>
<time>2014-02-15T15:01:12Z</time>
</trkpt>
<trkpt lat="52.562950134277344" lon="13.144869804382324">
<ele>70.5</ele>
<time>2014-02-15T15:01:13Z</time>
</trkpt>
<trkpt lat="52.5629997253418" lon="13.144808769226074">
<ele>70.5</ele>
<time>2014-02-15T15:01:14Z</time>
</trkpt>
<trkpt lat="52.56304931640625" lon="13.14475154876709">
<ele>70.4000015258789</ele>
<time>2014-02-15T15:01:15Z</time>
</trkpt>
<trkpt lat="52.56309509277344" lon="13.144689559936523">
<ele>70.4000015258789</ele>
<time>2014-02-15T15:01:16Z</time>
</trkpt>
<trkpt lat="52.56314468383789" lon="13.144627571105957">
<ele>70.5</ele>
<time>2014-02-15T15:01:17Z</time>
</trkpt>
<trkpt lat="52.563194274902344" lon="13.144569396972656">
<ele>70.69999694824219</ele>
<time>2014-02-15T15:01:18Z</time>
</trkpt>
<trkpt lat="52.56324768066406" lon="13.144513130187988">
<ele>70.5</ele>
<time>2014-02-15T15:01:19Z</time>
</trkpt>
<trkpt lat="52.56330490112305" lon="13.1444673538208">
<ele>70.5999984741211</ele>
<time>2014-02-15T15:01:20Z</time>
</trkpt>
<trkpt lat="52.563358306884766" lon="13.14441204071045">
<ele>70.80000305175781</ele>
<time>2014-02-15T15:01:21Z</time>
</trkpt>
<trkpt lat="52.56340789794922" lon="13.144354820251465">
<ele>70.80000305175781</ele>
<time>2014-02-15T15:01:22Z</time>
</trkpt>
<trkpt lat="52.56345748901367" lon="13.144296646118164">
<ele>70.5999984741211</ele>
<time>2014-02-15T15:01:23Z</time>
</trkpt>
<trkpt lat="52.56351089477539" lon="13.144240379333496">
<ele>70.9000015258789</ele>
<time>2014-02-15T15:01:24Z</time>
</trkpt>
<trkpt lat="52.56356430053711" lon="13.144179344177246">
<ele>71.19999694824219</ele>
<time>2014-02-15T15:01:25Z</time>
</trkpt>
<trkpt lat="52.56361770629883" lon="13.144124031066895">
<ele>71.0999984741211</ele>
<time>2014-02-15T15:01:26Z</time>
</trkpt>
<trkpt lat="52.56366729736328" lon="13.144070625305176">
<ele>71.19999694824219</ele>
<time>2014-02-15T15:01:27Z</time>
</trkpt>
<trkpt lat="52.56372833251953" lon="13.144028663635254">
<ele>71.30000305175781</ele>
<time>2014-02-15T15:01:28Z</time>
</trkpt>
<trkpt lat="52.56378936767578" lon="13.144001960754395">
<ele>71.80000305175781</ele>
<time>2014-02-15T15:01:29Z</time>
</trkpt>
<trkpt lat="52.56385040283203" lon="13.1439790725708">
<ele>71.9000015258789</ele>
<time>2014-02-15T15:01:30Z</time>
</trkpt>
<trkpt lat="52.56391525268555" lon="13.14397144317627">
<ele>71.80000305175781</ele>
<time>2014-02-15T15:01:31Z</time>
</trkpt>
<trkpt lat="52.56397247314453" lon="13.143977165222168">
<ele>71.0999984741211</ele>
<time>2014-02-15T15:01:32Z</time>
</trkpt>
<trkpt lat="52.56403732299805" lon="13.143980026245117">
<ele>70.69999694824219</ele>
<time>2014-02-15T15:01:33Z</time>
</trkpt>
<trkpt lat="52.56411361694336" lon="13.143976211547852">
<ele>71.30000305175781</ele>
<time>2014-02-15T15:01:34Z</time>
</trkpt>
<trkpt lat="52.564178466796875" lon="13.143988609313965">
<ele>70.5999984741211</ele>
<time>2014-02-15T15:01:35Z</time>
</trkpt>
<trkpt lat="52.564239501953125" lon="13.144050598144531">
<ele>70.19999694824219</ele>
<time>2014-02-15T15:01:36Z</time>
</trkpt>
<trkpt lat="52.56428527832031" lon="13.144150733947754">
<ele>70.19999694824219</ele>
<time>2014-02-15T15:01:37Z</time>
</trkpt>
<trkpt lat="52.564327239990234" lon="13.144254684448242">
<ele>70.0999984741211</ele>
<time>2014-02-15T15:01:38Z</time>
</trkpt>
<trkpt lat="52.564361572265625" lon="13.14436149597168">
<ele>69.69999694824219</ele>
<time>2014-02-15T15:01:39Z</time>
</trkpt>
<trkpt lat="52.56438446044922" lon="13.144474983215332">
<ele>69.9000015258789</ele>
<time>2014-02-15T15:01:40Z</time>
</trkpt>
<trkpt lat="52.564353942871094" lon="13.144596099853516">
<ele>70.19999694824219</ele>
<time>2014-02-15T15:01:41Z</time>
</trkpt>
<trkpt lat="52.56432342529297" lon="13.144723892211914">
<ele>69.9000015258789</ele>
<time>2014-02-15T15:01:42Z</time>
</trkpt>
<trkpt lat="52.5643310546875" lon="13.144840240478516">
<ele>70.0999984741211</ele>
<time>2014-02-15T15:01:43Z</time>
</trkpt>
<trkpt lat="52.564327239990234" lon="13.144954681396484">
<ele>69.9000015258789</ele>
<time>2014-02-15T15:01:44Z</time>
</trkpt>
<trkpt lat="52.564327239990234" lon="13.145075798034668">
<ele>69.69999694824219</ele>
<time>2014-02-15T15:01:45Z</time>
</trkpt>
<trkpt lat="52.564327239990234" lon="13.145183563232422">
<ele>69.5999984741211</ele>
<time>2014-02-15T15:01:46Z</time>
</trkpt>
<trkpt lat="52.56432342529297" lon="13.145291328430176">
<ele>70.0999984741211</ele>
<time>2014-02-15T15:01:47Z</time>
</trkpt>
<trkpt lat="52.5643196105957" lon="13.145398139953613">
<ele>70.19999694824219</ele>
<time>2014-02-15T15:01:48Z</time>
</trkpt>
<trkpt lat="52.5643196105957" lon="13.145503997802734">
<ele>70.5999984741211</ele>
<time>2014-02-15T15:01:49Z</time>
</trkpt>
<trkpt lat="52.56435012817383" lon="13.145594596862793">
<ele>70.0999984741211</ele>
<time>2014-02-15T15:01:50Z</time>
</trkpt>
<trkpt lat="52.56438446044922" lon="13.145696640014648">
<ele>70.0999984741211</ele>
<time>2014-02-15T15:01:51Z</time>
</trkpt>
<trkpt lat="52.56443405151367" lon="13.145758628845215">
<ele>70.0999984741211</ele>
<time>2014-02-15T15:01:52Z</time>
</trkpt>
<trkpt lat="52.56448745727539" lon="13.145824432373047">
<ele>70.4000015258789</ele>
<time>2014-02-15T15:01:53Z</time>
</trkpt>
<trkpt lat="52.56454086303711" lon="13.145879745483398">
<ele>70.0</ele>
<time>2014-02-15T15:01:54Z</time>
</trkpt>
<trkpt lat="52.564598083496094" lon="13.145930290222168">
<ele>69.69999694824219</ele>
<time>2014-02-15T15:01:55Z</time>
</trkpt>
<trkpt lat="52.56465530395508" lon="13.145971298217773">
<ele>69.69999694824219</ele>
<time>2014-02-15T15:01:56Z</time>
</trkpt>
<trkpt lat="52.5647087097168" lon="13.146016120910645">
<ele>69.5</ele>
<time>2014-02-15T15:01:57Z</time>
</trkpt>
<trkpt lat="52.56476593017578" lon="13.146069526672363">
<ele>69.5</ele>
<time>2014-02-15T15:01:58Z</time>
</trkpt>
<trkpt lat="52.5648193359375" lon="13.146121978759766">
<ele>69.69999694824219</ele>
<time>2014-02-15T15:01:59Z</time>
</trkpt>
<trkpt lat="52.564876556396484" lon="13.146181106567383">
<ele>70.0</ele>
<time>2014-02-15T15:02:00Z</time>
</trkpt>
<trkpt lat="52.56492614746094" lon="13.146249771118164">
<ele>70.0</ele>
<time>2014-02-15T15:02:01Z</time>
</trkpt>
<trkpt lat="52.564979553222656" lon="13.146306037902832">
<ele>70.19999694824219</ele>
<time>2014-02-15T15:02:02Z</time>
</trkpt>
<trkpt lat="52.565032958984375" lon="13.14636516571045">
<ele>69.69999694824219</ele>
<time>2014-02-15T15:02:03Z</time>
</trkpt>
<trkpt lat="52.56508255004883" lon="13.146421432495117">
<ele>69.80000305175781</ele>
<time>2014-02-15T15:02:04Z</time>
</trkpt>
<trkpt lat="52.565128326416016" lon="13.146476745605469">
<ele>69.5999984741211</ele>
<time>2014-02-15T15:02:05Z</time>
</trkpt>
<trkpt lat="52.56517791748047" lon="13.146537780761719">
<ele>70.0</ele>
<time>2014-02-15T15:02:06Z</time>
</trkpt>
<trkpt lat="52.56522750854492" lon="13.14660358428955">
<ele>70.0999984741211</ele>
<time>2014-02-15T15:02:07Z</time>
</trkpt>
<trkpt lat="52.56527328491211" lon="13.146659851074219">
<ele>70.0999984741211</ele>
<time>2014-02-15T15:02:08Z</time>
</trkpt>
<trkpt lat="52.56532669067383" lon="13.146709442138672">
<ele>70.30000305175781</ele>
<time>2014-02-15T15:02:09Z</time>
</trkpt>
<trkpt lat="52.565372467041016" lon="13.146766662597656">
<ele>70.5999984741211</ele>
<time>2014-02-15T15:02:10Z</time>
</trkpt>
<trkpt lat="52.5654182434082" lon="13.146828651428223">
<ele>70.69999694824219</ele>
<time>2014-02-15T15:02:11Z</time>
</trkpt>
<trkpt lat="52.56546401977539" lon="13.146875381469727">
<ele>70.80000305175781</ele>
<time>2014-02-15T15:02:12Z</time>
</trkpt>
<trkpt lat="52.56551742553711" lon="13.146931648254395">
<ele>71.0999984741211</ele>
<time>2014-02-15T15:02:13Z</time>
</trkpt>
<trkpt lat="52.56556701660156" lon="13.146985054016113">
<ele>70.9000015258789</ele>
<time>2014-02-15T15:02:14Z</time>
</trkpt>
<trkpt lat="52.565616607666016" lon="13.147042274475098">
<ele>71.0999984741211</ele>
<time>2014-02-15T15:02:15Z</time>
</trkpt>
<trkpt lat="52.56566619873047" lon="13.147096633911133">
<ele>71.0999984741211</ele>
<time>2014-02-15T15:02:16Z</time>
</trkpt>
<trkpt lat="52.565711975097656" lon="13.147156715393066">
<ele>71.0999984741211</ele>
<time>2014-02-15T15:02:17Z</time>
</trkpt>
<trkpt lat="52.56576156616211" lon="13.147218704223633">
<ele>71.30000305175781</ele>
<time>2014-02-15T15:02:18Z</time>
</trkpt>
<trkpt lat="52.5658073425293" lon="13.14728832244873">
<ele>71.0999984741211</ele>
<time>2014-02-15T15:02:19Z</time>
</trkpt>
<trkpt lat="52.565853118896484" lon="13.147357940673828">
<ele>71.0</ele>
<time>2014-02-15T15:02:20Z</time>
</trkpt>
<trkpt lat="52.56589889526367" lon="13.147433280944824">
<ele>71.0</ele>
<time>2014-02-15T15:02:21Z</time>
</trkpt>
<trkpt lat="52.565948486328125" lon="13.147504806518555">
<ele>70.80000305175781</ele>
<time>2014-02-15T15:02:22Z</time>
</trkpt>
<trkpt lat="52.56599807739258" lon="13.147573471069336">
<ele>71.0</ele>
<time>2014-02-15T15:02:23Z</time>
</trkpt>
<trkpt lat="52.566043853759766" lon="13.147647857666016">
<ele>70.69999694824219</ele>
<time>2014-02-15T15:02:24Z</time>
</trkpt>
<trkpt lat="52.56608963012695" lon="13.147721290588379">
<ele>70.9000015258789</ele>
<time>2014-02-15T15:02:25Z</time>
</trkpt>
<trkpt lat="52.566139221191406" lon="13.147788047790527">
<ele>70.80000305175781</ele>
<time>2014-02-15T15:02:26Z</time>
</trkpt>
<trkpt lat="52.566184997558594" lon="13.147862434387207">
<ele>70.69999694824219</ele>
<time>2014-02-15T15:02:27Z</time>
</trkpt>
<trkpt lat="52.56623458862305" lon="13.147933959960938">
<ele>70.80000305175781</ele>
<time>2014-02-15T15:02:28Z</time>
</trkpt>
<trkpt lat="52.566280364990234" lon="13.148003578186035">
<ele>71.0</ele>
<time>2014-02-15T15:02:29Z</time>
</trkpt>
<trkpt lat="52.56632614135742" lon="13.14807415008545">
<ele>70.5999984741211</ele>
<time>2014-02-15T15:02:30Z</time>
</trkpt>
<trkpt lat="52.566368103027344" lon="13.148146629333496">
<ele>70.30000305175781</ele>
<time>2014-02-15T15:02:31Z</time>
</trkpt>
<trkpt lat="52.5664176940918" lon="13.148219108581543">
<ele>70.19999694824219</ele>
<time>2014-02-15T15:02:32Z</time>
</trkpt>
<trkpt lat="52.566463470458984" lon="13.148292541503906">
<ele>70.0999984741211</ele>
<time>2014-02-15T15:02:33Z</time>
</trkpt>
<trkpt lat="52.56650924682617" lon="13.148364067077637">
<ele>70.0999984741211</ele>
<time>2014-02-15T15:02:34Z</time>
</trkpt>
<trkpt lat="52.56655502319336" lon="13.148438453674316">
<ele>70.30000305175781</ele>
<time>2014-02-15T15:02:35Z</time>
</trkpt>
<trkpt lat="52.56660079956055" lon="13.148507118225098">
<ele>70.0999984741211</ele>
<time>2014-02-15T15:02:36Z</time>
</trkpt>
<trkpt lat="52.566650390625" lon="13.148577690124512">
<ele>70.0999984741211</ele>
<time>2014-02-15T15:02:37Z</time>
</trkpt>
<trkpt lat="52.56669235229492" lon="13.148649215698242">
<ele>70.19999694824219</ele>
<time>2014-02-15T15:02:38Z</time>
</trkpt>
<trkpt lat="52.56673812866211" lon="13.148721694946289">
<ele>69.9000015258789</ele>
<time>2014-02-15T15:02:39Z</time>
</trkpt>
<trkpt lat="52.5667839050293" lon="13.148788452148438">
<ele>70.0</ele>
<time>2014-02-15T15:02:40Z</time>
</trkpt>
<trkpt lat="52.566829681396484" lon="13.148859024047852">
<ele>69.5999984741211</ele>
<time>2014-02-15T15:02:41Z</time>
</trkpt>
<trkpt lat="52.566871643066406" lon="13.14892864227295">
<ele>69.69999694824219</ele>
<time>2014-02-15T15:02:42Z</time>
</trkpt>
<trkpt lat="52.56691360473633" lon="13.148994445800781">
<ele>69.5999984741211</ele>
<time>2014-02-15T15:02:43Z</time>
</trkpt>
<trkpt lat="52.56695556640625" lon="13.149060249328613">
<ele>69.4000015258789</ele>
<time>2014-02-15T15:02:44Z</time>
</trkpt>
<trkpt lat="52.566993713378906" lon="13.149124145507812">
<ele>69.19999694824219</ele>
<time>2014-02-15T15:02:45Z</time>
</trkpt>
<trkpt lat="52.56703567504883" lon="13.149185180664062">
<ele>69.19999694824219</ele>
<time>2014-02-15T15:02:46Z</time>
</trkpt>
<trkpt lat="52.567073822021484" lon="13.149246215820312">
<ele>69.0</ele>
<time>2014-02-15T15:02:47Z</time>
</trkpt>
<trkpt lat="52.56711196899414" lon="13.149303436279297">
<ele>69.0999984741211</ele>
<time>2014-02-15T15:02:48Z</time>
</trkpt>
<trkpt lat="52.56714630126953" lon="13.149367332458496">
<ele>68.9000015258789</ele>
<time>2014-02-15T15:02:49Z</time>
</trkpt>
<trkpt lat="52.56718063354492" lon="13.149421691894531">
<ele>68.69999694824219</ele>
<time>2014-02-15T15:02:50Z</time>
</trkpt>
<trkpt lat="52.56721496582031" lon="13.149471282958984">
<ele>68.4000015258789</ele>
<time>2014-02-15T15:02:51Z</time>
</trkpt>
<trkpt lat="52.567264556884766" lon="13.149571418762207">
<ele>68.69999694824219</ele>
<time>2014-02-15T15:02:53Z</time>
</trkpt>
<trkpt lat="52.56730270385742" lon="13.149646759033203">
<ele>67.69999694824219</ele>
<time>2014-02-15T15:02:56Z</time>
</trkpt>
<trkpt lat="52.5672721862793" lon="13.149706840515137">
<ele>67.69999694824219</ele>
<time>2014-02-15T15:02:57Z</time>
</trkpt>
<trkpt lat="52.5672607421875" lon="13.149798393249512">
<ele>67.69999694824219</ele>
<time>2014-02-15T15:02:58Z</time>
</trkpt>
<trkpt lat="52.56724548339844" lon="13.149927139282227">
<ele>67.4000015258789</ele>
<time>2014-02-15T15:03:00Z</time>
</trkpt>
<trkpt lat="52.567237854003906" lon="13.150033950805664">
<ele>67.0999984741211</ele>
<time>2014-02-15T15:03:02Z</time>
</trkpt>
<trkpt lat="52.56722640991211" lon="13.150189399719238">
<ele>67.4000015258789</ele>
<time>2014-02-15T15:03:05Z</time>
</trkpt>
<trkpt lat="52.5672721862793" lon="13.15032958984375">
<ele>68.69999694824219</ele>
<time>2014-02-15T15:03:08Z</time>
</trkpt>
<trkpt lat="52.567352294921875" lon="13.15039348602295">
<ele>66.4000015258789</ele>
<time>2014-02-15T15:03:10Z</time>
</trkpt>
<trkpt lat="52.567405700683594" lon="13.150431632995605">
<ele>65.5</ele>
<time>2014-02-15T15:03:11Z</time>
</trkpt>
<trkpt lat="52.56745529174805" lon="13.150471687316895">
<ele>64.9000015258789</ele>
<time>2014-02-15T15:03:12Z</time>
</trkpt>
<trkpt lat="52.56754684448242" lon="13.15056324005127">
<ele>65.5</ele>
<time>2014-02-15T15:03:14Z</time>
</trkpt>
<trkpt lat="52.567626953125" lon="13.150604248046875">
<ele>65.9000015258789</ele>
<time>2014-02-15T15:03:16Z</time>
</trkpt>
<trkpt lat="52.56767654418945" lon="13.150567054748535">
<ele>65.4000015258789</ele>
<time>2014-02-15T15:03:17Z</time>
</trkpt>
<trkpt lat="52.56773376464844" lon="13.150520324707031">
<ele>64.69999694824219</ele>
<time>2014-02-15T15:03:18Z</time>
</trkpt>
<trkpt lat="52.567787170410156" lon="13.15047550201416">
<ele>65.0</ele>
<time>2014-02-15T15:03:19Z</time>
</trkpt>
<trkpt lat="52.567840576171875" lon="13.150470733642578">
<ele>65.30000305175781</ele>
<time>2014-02-15T15:03:20Z</time>
</trkpt>
<trkpt lat="52.56789779663086" lon="13.15047836303711">
<ele>65.4000015258789</ele>
<time>2014-02-15T15:03:21Z</time>
</trkpt>
<trkpt lat="52.5680046081543" lon="13.15047550201416">
<ele>70.0</ele>
<time>2014-02-15T15:03:22Z</time>
</trkpt>
<trkpt lat="52.568050384521484" lon="13.150496482849121">
<ele>69.30000305175781</ele>
<time>2014-02-15T15:03:23Z</time>
</trkpt>
<trkpt lat="52.5681037902832" lon="13.150521278381348">
<ele>68.69999694824219</ele>
<time>2014-02-15T15:03:24Z</time>
</trkpt>
<trkpt lat="52.56814956665039" lon="13.150564193725586">
<ele>68.19999694824219</ele>
<time>2014-02-15T15:03:25Z</time>
</trkpt>
<trkpt lat="52.56820297241211" lon="13.15058708190918">
<ele>68.69999694824219</ele>
<time>2014-02-15T15:03:26Z</time>
</trkpt>
<trkpt lat="52.568241119384766" lon="13.15063190460205">
<ele>69.0</ele>
<time>2014-02-15T15:03:27Z</time>
</trkpt>
<trkpt lat="52.56828689575195" lon="13.150668144226074">
<ele>69.0999984741211</ele>
<time>2014-02-15T15:03:28Z</time>
</trkpt>
<trkpt lat="52.56835174560547" lon="13.15069580078125">
<ele>68.9000015258789</ele>
<time>2014-02-15T15:03:29Z</time>
</trkpt>
<trkpt lat="52.56840515136719" lon="13.150735855102539">
<ele>68.9000015258789</ele>
<time>2014-02-15T15:03:30Z</time>
</trkpt>
<trkpt lat="52.568511962890625" lon="13.150773048400879">
<ele>70.69999694824219</ele>
<time>2014-02-15T15:03:31Z</time>
</trkpt>
<trkpt lat="52.5685920715332" lon="13.150803565979004">
<ele>72.5</ele>
<time>2014-02-15T15:03:32Z</time>
</trkpt>
<trkpt lat="52.56864929199219" lon="13.150837898254395">
<ele>73.5</ele>
<time>2014-02-15T15:03:33Z</time>
</trkpt>
<trkpt lat="52.56869888305664" lon="13.15088939666748">
<ele>74.0</ele>
<time>2014-02-15T15:03:34Z</time>
</trkpt>
<trkpt lat="52.568763732910156" lon="13.150927543640137">
<ele>74.19999694824219</ele>
<time>2014-02-15T15:03:35Z</time>
</trkpt>
<trkpt lat="52.568851470947266" lon="13.150986671447754">
<ele>73.80000305175781</ele>
<time>2014-02-15T15:03:37Z</time>
</trkpt>
<trkpt lat="52.568931579589844" lon="13.151047706604004">
<ele>73.9000015258789</ele>
<time>2014-02-15T15:03:39Z</time>
</trkpt>
<trkpt lat="52.56898498535156" lon="13.151081085205078">
<ele>74.0</ele>
<time>2014-02-15T15:03:40Z</time>
</trkpt>
<trkpt lat="52.56901550292969" lon="13.151145935058594">
<ele>68.69999694824219</ele>
<time>2014-02-15T15:03:41Z</time>
</trkpt>
<trkpt lat="52.56905746459961" lon="13.151180267333984">
<ele>67.0999984741211</ele>
<time>2014-02-15T15:03:42Z</time>
</trkpt>
<trkpt lat="52.56911087036133" lon="13.151196479797363">
<ele>66.5</ele>
<time>2014-02-15T15:03:43Z</time>
</trkpt>
<trkpt lat="52.56915283203125" lon="13.151222229003906">
<ele>66.5</ele>
<time>2014-02-15T15:03:44Z</time>
</trkpt>
<trkpt lat="52.56919860839844" lon="13.15123462677002">
<ele>66.0</ele>
<time>2014-02-15T15:03:45Z</time>
</trkpt>
<trkpt lat="52.56926727294922" lon="13.15125560760498">
<ele>65.69999694824219</ele>
<time>2014-02-15T15:03:46Z</time>
</trkpt>
<trkpt lat="52.56931686401367" lon="13.15128231048584">
<ele>66.0999984741211</ele>
<time>2014-02-15T15:03:47Z</time>
</trkpt>
<trkpt lat="52.56936264038086" lon="13.151304244995117">
<ele>66.0999984741211</ele>
<time>2014-02-15T15:03:48Z</time>
</trkpt>
<trkpt lat="52.56941604614258" lon="13.1513032913208">
<ele>65.80000305175781</ele>
<time>2014-02-15T15:03:49Z</time>
</trkpt>
<trkpt lat="52.56948471069336" lon="13.151312828063965">
<ele>63.5</ele>
<time>2014-02-15T15:03:50Z</time>
</trkpt>
<trkpt lat="52.56954574584961" lon="13.151329040527344">
<ele>63.099998474121094</ele>
<time>2014-02-15T15:03:51Z</time>
</trkpt>
<trkpt lat="52.569610595703125" lon="13.15133285522461">
<ele>62.70000076293945</ele>
<time>2014-02-15T15:03:52Z</time>
</trkpt>
<trkpt lat="52.56966781616211" lon="13.151330947875977">
<ele>62.599998474121094</ele>
<time>2014-02-15T15:03:53Z</time>
</trkpt>
<trkpt lat="52.569725036621094" lon="13.15134334564209">
<ele>62.70000076293945</ele>
<time>2014-02-15T15:03:54Z</time>
</trkpt>
<trkpt lat="52.56982421875" lon="13.15137004852295">
<ele>58.79999923706055</ele>
<time>2014-02-15T15:03:56Z</time>
</trkpt>
<trkpt lat="52.56987762451172" lon="13.151389122009277">
<ele>57.70000076293945</ele>
<time>2014-02-15T15:03:57Z</time>
</trkpt>
<trkpt lat="52.56995391845703" lon="13.151468276977539">
<ele>61.0</ele>
<time>2014-02-15T15:03:59Z</time>
</trkpt>
<trkpt lat="52.57000732421875" lon="13.15153694152832">
<ele>61.29999923706055</ele>
<time>2014-02-15T15:04:00Z</time>
</trkpt>
<trkpt lat="52.57004928588867" lon="13.151611328125">
<ele>61.599998474121094</ele>
<time>2014-02-15T15:04:01Z</time>
</trkpt>
<trkpt lat="52.57008361816406" lon="13.151695251464844">
<ele>61.900001525878906</ele>
<time>2014-02-15T15:04:02Z</time>
</trkpt>
<trkpt lat="52.57012176513672" lon="13.151772499084473">
<ele>61.79999923706055</ele>
<time>2014-02-15T15:04:03Z</time>
</trkpt>
<trkpt lat="52.57015609741211" lon="13.15186882019043">
<ele>61.599998474121094</ele>
<time>2014-02-15T15:04:04Z</time>
</trkpt>
<trkpt lat="52.570194244384766" lon="13.151971817016602">
<ele>62.70000076293945</ele>
<time>2014-02-15T15:04:05Z</time>
</trkpt>
<trkpt lat="52.570228576660156" lon="13.152056694030762">
<ele>62.5</ele>
<time>2014-02-15T15:04:07Z</time>
</trkpt>
<trkpt lat="52.57032012939453" lon="13.152216911315918">
<ele>62.900001525878906</ele>
<time>2014-02-15T15:04:08Z</time>
</trkpt>
<trkpt lat="52.5703239440918" lon="13.152295112609863">
<ele>62.599998474121094</ele>
<time>2014-02-15T15:04:09Z</time>
</trkpt>
<trkpt lat="52.57035827636719" lon="13.152358055114746">
<ele>62.79999923706055</ele>
<time>2014-02-15T15:04:10Z</time>
</trkpt>
<trkpt lat="52.57040786743164" lon="13.152395248413086">
<ele>62.29999923706055</ele>
<time>2014-02-15T15:04:11Z</time>
</trkpt>
<trkpt lat="52.57044982910156" lon="13.15243911743164">
<ele>62.5</ele>
<time>2014-02-15T15:04:12Z</time>
</trkpt>
<trkpt lat="52.57050323486328" lon="13.152458190917969">
<ele>63.099998474121094</ele>
<time>2014-02-15T15:04:13Z</time>
</trkpt>
<trkpt lat="52.570556640625" lon="13.152481079101562">
<ele>63.70000076293945</ele>
<time>2014-02-15T15:04:14Z</time>
</trkpt>
<trkpt lat="52.57061004638672" lon="13.152502059936523">
<ele>63.099998474121094</ele>
<time>2014-02-15T15:04:15Z</time>
</trkpt>
<trkpt lat="52.57066345214844" lon="13.152525901794434">
<ele>63.599998474121094</ele>
<time>2014-02-15T15:04:16Z</time>
</trkpt>
<trkpt lat="52.57072448730469" lon="13.152576446533203">
<ele>61.79999923706055</ele>
<time>2014-02-15T15:04:17Z</time>
</trkpt>
<trkpt lat="52.5707893371582" lon="13.152615547180176">
<ele>61.20000076293945</ele>
<time>2014-02-15T15:04:18Z</time>
</trkpt>
<trkpt lat="52.57087707519531" lon="13.152671813964844">
<ele>63.900001525878906</ele>
<time>2014-02-15T15:04:20Z</time>
</trkpt>
<trkpt lat="52.57093048095703" lon="13.152687072753906">
<ele>64.5</ele>
<time>2014-02-15T15:04:21Z</time>
</trkpt>
<trkpt lat="52.570987701416016" lon="13.1527099609375">
<ele>65.0</ele>
<time>2014-02-15T15:04:22Z</time>
</trkpt>
<trkpt lat="52.571044921875" lon="13.152735710144043">
<ele>65.69999694824219</ele>
<time>2014-02-15T15:04:23Z</time>
</trkpt>
<trkpt lat="52.57111740112305" lon="13.152730941772461">
<ele>64.80000305175781</ele>
<time>2014-02-15T15:04:24Z</time>
</trkpt>
<trkpt lat="52.5711784362793" lon="13.152739524841309">
<ele>64.0</ele>
<time>2014-02-15T15:04:25Z</time>
</trkpt>
<trkpt lat="52.57123947143555" lon="13.15274715423584">
<ele>63.29999923706055</ele>
<time>2014-02-15T15:04:26Z</time>
</trkpt>
<trkpt lat="52.571292877197266" lon="13.152767181396484">
<ele>62.5</ele>
<time>2014-02-15T15:04:27Z</time>
</trkpt>
<trkpt lat="52.571346282958984" lon="13.15279483795166">
<ele>63.0</ele>
<time>2014-02-15T15:04:28Z</time>
</trkpt>
<trkpt lat="52.57139587402344" lon="13.152812004089355">
<ele>63.099998474121094</ele>
<time>2014-02-15T15:04:29Z</time>
</trkpt>
<trkpt lat="52.57145690917969" lon="13.152841567993164">
<ele>62.70000076293945</ele>
<time>2014-02-15T15:04:30Z</time>
</trkpt>
<trkpt lat="52.5715217590332" lon="13.152863502502441">
<ele>63.0</ele>
<time>2014-02-15T15:04:31Z</time>
</trkpt>
<trkpt lat="52.57158279418945" lon="13.152888298034668">
<ele>63.0</ele>
<time>2014-02-15T15:04:32Z</time>
</trkpt>
<trkpt lat="52.57164001464844" lon="13.152914047241211">
<ele>63.20000076293945</ele>
<time>2014-02-15T15:04:33Z</time>
</trkpt>
<trkpt lat="52.571693420410156" lon="13.152920722961426">
<ele>63.20000076293945</ele>
<time>2014-02-15T15:04:34Z</time>
</trkpt>
<trkpt lat="52.571746826171875" lon="13.152935981750488">
<ele>63.0</ele>
<time>2014-02-15T15:04:35Z</time>
</trkpt>
<trkpt lat="52.571807861328125" lon="13.152942657470703">
<ele>63.0</ele>
<time>2014-02-15T15:04:36Z</time>
</trkpt>
<trkpt lat="52.571868896484375" lon="13.152904510498047">
<ele>63.099998474121094</ele>
<time>2014-02-15T15:04:37Z</time>
</trkpt>
<trkpt lat="52.571929931640625" lon="13.15289306640625">
<ele>63.20000076293945</ele>
<time>2014-02-15T15:04:38Z</time>
</trkpt>
<trkpt lat="52.57199478149414" lon="13.152873992919922">
<ele>63.599998474121094</ele>
<time>2014-02-15T15:04:40Z</time>
</trkpt>
<trkpt lat="52.572044372558594" lon="13.15286636352539">
<ele>65.0999984741211</ele>
<time>2014-02-15T15:04:42Z</time>
</trkpt>
<trkpt lat="52.572105407714844" lon="13.152868270874023">
<ele>65.5</ele>
<time>2014-02-15T15:04:42Z</time>
</trkpt>
<trkpt lat="52.572174072265625" lon="13.152876853942871">
<ele>66.0999984741211</ele>
<time>2014-02-15T15:04:44Z</time>
</trkpt>
<trkpt lat="52.57224655151367" lon="13.1528902053833">
<ele>66.30000305175781</ele>
<time>2014-02-15T15:04:44Z</time>
</trkpt>
<trkpt lat="52.57232666015625" lon="13.152888298034668">
<ele>66.5</ele>
<time>2014-02-15T15:04:46Z</time>
</trkpt>
<trkpt lat="52.57240295410156" lon="13.152892112731934">
<ele>66.5999984741211</ele>
<time>2014-02-15T15:04:47Z</time>
</trkpt>
<trkpt lat="52.57246780395508" lon="13.152920722961426">
<ele>66.80000305175781</ele>
<time>2014-02-15T15:04:48Z</time>
</trkpt>
<trkpt lat="52.57254409790039" lon="13.152960777282715">
<ele>67.30000305175781</ele>
<time>2014-02-15T15:04:49Z</time>
</trkpt>
<trkpt lat="52.57263946533203" lon="13.153007507324219">
<ele>68.30000305175781</ele>
<time>2014-02-15T15:04:50Z</time>
</trkpt>
<trkpt lat="52.57272720336914" lon="13.153061866760254">
<ele>68.19999694824219</ele>
<time>2014-02-15T15:04:51Z</time>
</trkpt>
<trkpt lat="52.5727653503418" lon="13.153127670288086">
<ele>66.9000015258789</ele>
<time>2014-02-15T15:04:52Z</time>
</trkpt>
<trkpt lat="52.57282257080078" lon="13.153192520141602">
<ele>66.80000305175781</ele>
<time>2014-02-15T15:04:53Z</time>
</trkpt>
<trkpt lat="52.57289123535156" lon="13.153242111206055">
<ele>67.0</ele>
<time>2014-02-15T15:04:54Z</time>
</trkpt>
<trkpt lat="52.57295227050781" lon="13.153294563293457">
<ele>66.80000305175781</ele>
<time>2014-02-15T15:04:55Z</time>
</trkpt>
<trkpt lat="52.573001861572266" lon="13.153334617614746">
<ele>67.0999984741211</ele>
<time>2014-02-15T15:04:56Z</time>
</trkpt>
<trkpt lat="52.57305908203125" lon="13.153388977050781">
<ele>67.19999694824219</ele>
<time>2014-02-15T15:04:57Z</time>
</trkpt>
<trkpt lat="52.5731201171875" lon="13.153433799743652">
<ele>67.4000015258789</ele>
<time>2014-02-15T15:04:58Z</time>
</trkpt>
<trkpt lat="52.57317352294922" lon="13.153480529785156">
<ele>67.0999984741211</ele>
<time>2014-02-15T15:04:59Z</time>
</trkpt>
<trkpt lat="52.57326126098633" lon="13.153538703918457">
<ele>67.4000015258789</ele>
<time>2014-02-15T15:05:01Z</time>
</trkpt>
<trkpt lat="52.57331466674805" lon="13.153572082519531">
<ele>66.9000015258789</ele>
<time>2014-02-15T15:05:01Z</time>
</trkpt>
<trkpt lat="52.57337188720703" lon="13.153592109680176">
<ele>66.80000305175781</ele>
<time>2014-02-15T15:05:03Z</time>
</trkpt>
<trkpt lat="52.57342529296875" lon="13.153596878051758">
<ele>67.5999984741211</ele>
<time>2014-02-15T15:05:04Z</time>
</trkpt>
<trkpt lat="52.5734748840332" lon="13.15357780456543">
<ele>67.30000305175781</ele>
<time>2014-02-15T15:05:05Z</time>
</trkpt>
<trkpt lat="52.573551177978516" lon="13.153554916381836">
<ele>67.30000305175781</ele>
<time>2014-02-15T15:05:06Z</time>
</trkpt>
<trkpt lat="52.573665618896484" lon="13.153515815734863">
<ele>70.9000015258789</ele>
<time>2014-02-15T15:05:07Z</time>
</trkpt>
<trkpt lat="52.5737419128418" lon="13.153494834899902">
<ele>71.5</ele>
<time>2014-02-15T15:05:08Z</time>
</trkpt>
<trkpt lat="52.57382583618164" lon="13.153477668762207">
<ele>72.0</ele>
<time>2014-02-15T15:05:08Z</time>
</trkpt>
<trkpt lat="52.57390594482422" lon="13.1535062789917">
<ele>72.19999694824219</ele>
<time>2014-02-15T15:05:10Z</time>
</trkpt>
<trkpt lat="52.57398986816406" lon="13.153519630432129">
<ele>72.0</ele>
<time>2014-02-15T15:05:11Z</time>
</trkpt>
<trkpt lat="52.57408905029297" lon="13.153494834899902">
<ele>69.9000015258789</ele>
<time>2014-02-15T15:05:13Z</time>
</trkpt>
<trkpt lat="52.57414245605469" lon="13.15347671508789">
<ele>69.9000015258789</ele>
<time>2014-02-15T15:05:14Z</time>
</trkpt>
<trkpt lat="52.5742301940918" lon="13.153462409973145">
<ele>69.69999694824219</ele>
<time>2014-02-15T15:05:16Z</time>
</trkpt>
<trkpt lat="52.57429122924805" lon="13.153451919555664">
<ele>69.30000305175781</ele>
<time>2014-02-15T15:05:17Z</time>
</trkpt>
<trkpt lat="52.5743522644043" lon="13.153451919555664">
<ele>69.9000015258789</ele>
<time>2014-02-15T15:05:18Z</time>
</trkpt>
<trkpt lat="52.57441711425781" lon="13.153459548950195">
<ele>69.9000015258789</ele>
<time>2014-02-15T15:05:19Z</time>
</trkpt>
<trkpt lat="52.574485778808594" lon="13.153462409973145">
<ele>69.80000305175781</ele>
<time>2014-02-15T15:05:20Z</time>
</trkpt>
<trkpt lat="52.574554443359375" lon="13.1535005569458">
<ele>70.0999984741211</ele>
<time>2014-02-15T15:05:21Z</time>
</trkpt>
<trkpt lat="52.5745964050293" lon="13.153572082519531">
<ele>71.4000015258789</ele>
<time>2014-02-15T15:05:22Z</time>
</trkpt>
<trkpt lat="52.57465362548828" lon="13.153627395629883">
<ele>71.19999694824219</ele>
<time>2014-02-15T15:05:23Z</time>
</trkpt>
<trkpt lat="52.5746955871582" lon="13.153701782226562">
<ele>70.30000305175781</ele>
<time>2014-02-15T15:05:24Z</time>
</trkpt>
<trkpt lat="52.57474136352539" lon="13.153736114501953">
<ele>70.5</ele>
<time>2014-02-15T15:05:25Z</time>
</trkpt>
<trkpt lat="52.574798583984375" lon="13.153748512268066">
<ele>70.5</ele>
<time>2014-02-15T15:05:26Z</time>
</trkpt>
<trkpt lat="52.57485580444336" lon="13.153724670410156">
<ele>70.5</ele>
<time>2014-02-15T15:05:27Z</time>
</trkpt>
<trkpt lat="52.574913024902344" lon="13.153700828552246">
<ele>70.5</ele>
<time>2014-02-15T15:05:27Z</time>
</trkpt>
<trkpt lat="52.57497787475586" lon="13.153661727905273">
<ele>69.69999694824219</ele>
<time>2014-02-15T15:05:29Z</time>
</trkpt>
<trkpt lat="52.575042724609375" lon="13.153634071350098">
<ele>69.5</ele>
<time>2014-02-15T15:05:30Z</time>
</trkpt>
<trkpt lat="52.575111389160156" lon="13.153595924377441">
<ele>69.80000305175781</ele>
<time>2014-02-15T15:05:31Z</time>
</trkpt>
<trkpt lat="52.575172424316406" lon="13.153580665588379">
<ele>69.5</ele>
<time>2014-02-15T15:05:32Z</time>
</trkpt>
<trkpt lat="52.57524871826172" lon="13.15355396270752">
<ele>69.30000305175781</ele>
<time>2014-02-15T15:05:33Z</time>
</trkpt>
<trkpt lat="52.5753173828125" lon="13.153536796569824">
<ele>69.30000305175781</ele>
<time>2014-02-15T15:05:34Z</time>
</trkpt>
<trkpt lat="52.57538604736328" lon="13.153531074523926">
<ele>69.5999984741211</ele>
<time>2014-02-15T15:05:35Z</time>
</trkpt>
<trkpt lat="52.57545852661133" lon="13.153556823730469">
<ele>69.69999694824219</ele>
<time>2014-02-15T15:05:36Z</time>
</trkpt>
<trkpt lat="52.575496673583984" lon="13.153595924377441">
<ele>70.0999984741211</ele>
<time>2014-02-15T15:05:37Z</time>
</trkpt>
<trkpt lat="52.57555389404297" lon="13.153611183166504">
<ele>70.19999694824219</ele>
<time>2014-02-15T15:05:38Z</time>
</trkpt>
<trkpt lat="52.57561111450195" lon="13.15363883972168">
<ele>69.69999694824219</ele>
<time>2014-02-15T15:05:39Z</time>
</trkpt>
<trkpt lat="52.57566452026367" lon="13.153675079345703">
<ele>69.4000015258789</ele>
<time>2014-02-15T15:05:40Z</time>
</trkpt>
<trkpt lat="52.575714111328125" lon="13.153708457946777">
<ele>68.69999694824219</ele>
<time>2014-02-15T15:05:41Z</time>
</trkpt>
<trkpt lat="52.575775146484375" lon="13.153733253479004">
<ele>68.5999984741211</ele>
<time>2014-02-15T15:05:42Z</time>
</trkpt>
<trkpt lat="52.575828552246094" lon="13.153719902038574">
<ele>68.9000015258789</ele>
<time>2014-02-15T15:05:43Z</time>
</trkpt>
<trkpt lat="52.575870513916016" lon="13.153698921203613">
<ele>69.19999694824219</ele>
<time>2014-02-15T15:05:44Z</time>
</trkpt>
<trkpt lat="52.57593536376953" lon="13.153677940368652">
<ele>66.69999694824219</ele>
<time>2014-02-15T15:05:45Z</time>
</trkpt>
<trkpt lat="52.57600021362305" lon="13.153658866882324">
<ele>66.19999694824219</ele>
<time>2014-02-15T15:05:46Z</time>
</trkpt>
<trkpt lat="52.57606506347656" lon="13.153657913208008">
<ele>65.69999694824219</ele>
<time>2014-02-15T15:05:47Z</time>
</trkpt>
<trkpt lat="52.57612609863281" lon="13.153667449951172">
<ele>65.80000305175781</ele>
<time>2014-02-15T15:05:48Z</time>
</trkpt>
<trkpt lat="52.57619857788086" lon="13.15366268157959">
<ele>65.80000305175781</ele>
<time>2014-02-15T15:05:49Z</time>
</trkpt>
<trkpt lat="52.57625961303711" lon="13.153631210327148">
<ele>65.19999694824219</ele>
<time>2014-02-15T15:05:50Z</time>
</trkpt>
<trkpt lat="52.57635498046875" lon="13.153602600097656">
<ele>66.19999694824219</ele>
<time>2014-02-15T15:05:52Z</time>
</trkpt>
<trkpt lat="52.57642364501953" lon="13.153586387634277">
<ele>67.5999984741211</ele>
<time>2014-02-15T15:05:53Z</time>
</trkpt>
<trkpt lat="52.57648468017578" lon="13.153570175170898">
<ele>68.0</ele>
<time>2014-02-15T15:05:54Z</time>
</trkpt>
<trkpt lat="52.57654571533203" lon="13.15356159210205">
<ele>67.69999694824219</ele>
<time>2014-02-15T15:05:55Z</time>
</trkpt>
<trkpt lat="52.57660675048828" lon="13.153544425964355">
<ele>67.69999694824219</ele>
<time>2014-02-15T15:05:56Z</time>
</trkpt>
<trkpt lat="52.57666015625" lon="13.153539657592773">
<ele>67.30000305175781</ele>
<time>2014-02-15T15:05:57Z</time>
</trkpt>
<trkpt lat="52.5767707824707" lon="13.153545379638672">
<ele>67.4000015258789</ele>
<time>2014-02-15T15:05:59Z</time>
</trkpt>
<trkpt lat="52.57682418823242" lon="13.153547286987305">
<ele>67.0999984741211</ele>
<time>2014-02-15T15:06:00Z</time>
</trkpt>
<trkpt lat="52.57687759399414" lon="13.153570175170898">
<ele>67.5</ele>
<time>2014-02-15T15:06:01Z</time>
</trkpt>
<trkpt lat="52.576934814453125" lon="13.153579711914062">
<ele>68.30000305175781</ele>
<time>2014-02-15T15:06:02Z</time>
</trkpt>
<trkpt lat="52.57699203491211" lon="13.153596878051758">
<ele>68.5999984741211</ele>
<time>2014-02-15T15:06:03Z</time>
</trkpt>
<trkpt lat="52.57704544067383" lon="13.153594970703125">
<ele>68.80000305175781</ele>
<time>2014-02-15T15:06:04Z</time>
</trkpt>
<trkpt lat="52.57710647583008" lon="13.153602600097656">
<ele>69.5</ele>
<time>2014-02-15T15:06:05Z</time>
</trkpt>
<trkpt lat="52.57717514038086" lon="13.153593063354492">
<ele>70.0999984741211</ele>
<time>2014-02-15T15:06:06Z</time>
</trkpt>
<trkpt lat="52.57722854614258" lon="13.15359878540039">
<ele>70.19999694824219</ele>
<time>2014-02-15T15:06:07Z</time>
</trkpt>
<trkpt lat="52.57728576660156" lon="13.15359878540039">
<ele>72.0</ele>
<time>2014-02-15T15:06:08Z</time>
</trkpt>
<trkpt lat="52.57735061645508" lon="13.153618812561035">
<ele>71.4000015258789</ele>
<time>2014-02-15T15:06:09Z</time>
</trkpt>
<trkpt lat="52.5774040222168" lon="13.153626441955566">
<ele>71.4000015258789</ele>
<time>2014-02-15T15:06:10Z</time>
</trkpt>
<trkpt lat="52.577449798583984" lon="13.153629302978516">
<ele>69.5</ele>
<time>2014-02-15T15:06:11Z</time>
</trkpt>
<trkpt lat="52.57749938964844" lon="13.153621673583984">
<ele>68.69999694824219</ele>
<time>2014-02-15T15:06:12Z</time>
</trkpt>
<trkpt lat="52.57754898071289" lon="13.153626441955566">
<ele>68.0</ele>
<time>2014-02-15T15:06:13Z</time>
</trkpt>
<trkpt lat="52.57761001586914" lon="13.153618812561035">
<ele>67.5</ele>
<time>2014-02-15T15:06:13Z</time>
</trkpt>
<trkpt lat="52.57768249511719" lon="13.153587341308594">
<ele>68.5</ele>
<time>2014-02-15T15:06:15Z</time>
</trkpt>
<trkpt lat="52.57774353027344" lon="13.153569221496582">
<ele>68.5</ele>
<time>2014-02-15T15:06:16Z</time>
</trkpt>
<trkpt lat="52.57780456542969" lon="13.153559684753418">
<ele>68.5</ele>
<time>2014-02-15T15:06:17Z</time>
</trkpt>
<trkpt lat="52.57786178588867" lon="13.15356159210205">
<ele>69.30000305175781</ele>
<time>2014-02-15T15:06:18Z</time>
</trkpt>
<trkpt lat="52.577945709228516" lon="13.153521537780762">
<ele>69.9000015258789</ele>
<time>2014-02-15T15:06:20Z</time>
</trkpt>
<trkpt lat="52.5780143737793" lon="13.153463363647461">
<ele>69.30000305175781</ele>
<time>2014-02-15T15:06:21Z</time>
</trkpt>
<trkpt lat="52.57808303833008" lon="13.153409004211426">
<ele>70.19999694824219</ele>
<time>2014-02-15T15:06:22Z</time>
</trkpt>
<trkpt lat="52.578128814697266" lon="13.153355598449707">
<ele>70.30000305175781</ele>
<time>2014-02-15T15:06:23Z</time>
</trkpt>
<trkpt lat="52.578182220458984" lon="13.15333080291748">
<ele>70.5</ele>
<time>2014-02-15T15:06:24Z</time>
</trkpt>
<trkpt lat="52.5782356262207" lon="13.153280258178711">
<ele>70.5999984741211</ele>
<time>2014-02-15T15:06:24Z</time>
</trkpt>
<trkpt lat="52.57830047607422" lon="13.153234481811523">
<ele>70.69999694824219</ele>
<time>2014-02-15T15:06:26Z</time>
</trkpt>
<trkpt lat="52.57835388183594" lon="13.153206825256348">
<ele>71.0</ele>
<time>2014-02-15T15:06:27Z</time>
</trkpt>
<trkpt lat="52.578426361083984" lon="13.153182983398438">
<ele>71.19999694824219</ele>
<time>2014-02-15T15:06:28Z</time>
</trkpt>
<trkpt lat="52.5784797668457" lon="13.153169631958008">
<ele>71.0999984741211</ele>
<time>2014-02-15T15:06:29Z</time>
</trkpt>
<trkpt lat="52.57854461669922" lon="13.153160095214844">
<ele>71.19999694824219</ele>
<time>2014-02-15T15:06:30Z</time>
</trkpt>
<trkpt lat="52.578609466552734" lon="13.153191566467285">
<ele>71.5999984741211</ele>
<time>2014-02-15T15:06:31Z</time>
</trkpt>
<trkpt lat="52.57866668701172" lon="13.153205871582031">
<ele>71.5</ele>
<time>2014-02-15T15:06:32Z</time>
</trkpt>
<trkpt lat="52.578712463378906" lon="13.153231620788574">
<ele>70.4000015258789</ele>
<time>2014-02-15T15:06:33Z</time>
</trkpt>
<trkpt lat="52.578800201416016" lon="13.15324878692627">
<ele>71.69999694824219</ele>
<time>2014-02-15T15:06:35Z</time>
</trkpt>
<trkpt lat="52.578887939453125" lon="13.153231620788574">
<ele>71.9000015258789</ele>
<time>2014-02-15T15:06:37Z</time>
</trkpt>
<trkpt lat="52.57893371582031" lon="13.153200149536133">
<ele>71.30000305175781</ele>
<time>2014-02-15T15:06:38Z</time>
</trkpt>
<trkpt lat="52.5789794921875" lon="13.153151512145996">
<ele>71.5</ele>
<time>2014-02-15T15:06:39Z</time>
</trkpt>
<trkpt lat="52.579017639160156" lon="13.153101921081543">
<ele>71.19999694824219</ele>
<time>2014-02-15T15:06:40Z</time>
</trkpt>
<trkpt lat="52.5790901184082" lon="13.153045654296875">
<ele>71.0999984741211</ele>
<time>2014-02-15T15:06:41Z</time>
</trkpt>
<trkpt lat="52.57914733886719" lon="13.152995109558105">
<ele>70.5999984741211</ele>
<time>2014-02-15T15:06:42Z</time>
</trkpt>
<trkpt lat="52.57920837402344" lon="13.15294361114502">
<ele>70.0</ele>
<time>2014-02-15T15:06:43Z</time>
</trkpt>
<trkpt lat="52.579280853271484" lon="13.152909278869629">
<ele>70.5</ele>
<time>2014-02-15T15:06:45Z</time>
</trkpt>
<trkpt lat="52.579322814941406" lon="13.152873039245605">
<ele>70.19999694824219</ele>
<time>2014-02-15T15:06:46Z</time>
</trkpt>
<trkpt lat="52.579368591308594" lon="13.152838706970215">
<ele>70.0999984741211</ele>
<time>2014-02-15T15:06:47Z</time>
</trkpt>
<trkpt lat="52.579410552978516" lon="13.152804374694824">
<ele>70.0</ele>
<time>2014-02-15T15:06:48Z</time>
</trkpt>
<trkpt lat="52.5794563293457" lon="13.152767181396484">
<ele>70.0999984741211</ele>
<time>2014-02-15T15:06:49Z</time>
</trkpt>
<trkpt lat="52.57950973510742" lon="13.152743339538574">
<ele>70.0999984741211</ele>
<time>2014-02-15T15:06:50Z</time>
</trkpt>
<trkpt lat="52.5795783996582" lon="13.152694702148438">
<ele>72.19999694824219</ele>
<time>2014-02-15T15:06:50Z</time>
</trkpt>
<trkpt lat="52.57963180541992" lon="13.152660369873047">
<ele>72.69999694824219</ele>
<time>2014-02-15T15:06:52Z</time>
</trkpt>
<trkpt lat="52.57968521118164" lon="13.152619361877441">
<ele>72.80000305175781</ele>
<time>2014-02-15T15:06:53Z</time>
</trkpt>
<trkpt lat="52.579750061035156" lon="13.152576446533203">
<ele>73.4000015258789</ele>
<time>2014-02-15T15:06:54Z</time>
</trkpt>
<trkpt lat="52.57985305786133" lon="13.15251636505127">
<ele>73.5</ele>
<time>2014-02-15T15:06:56Z</time>
</trkpt>
<trkpt lat="52.57990646362305" lon="13.152488708496094">
<ele>73.69999694824219</ele>
<time>2014-02-15T15:06:57Z</time>
</trkpt>
<trkpt lat="52.57996368408203" lon="13.152453422546387">
<ele>74.0999984741211</ele>
<time>2014-02-15T15:06:58Z</time>
</trkpt>
<trkpt lat="52.580013275146484" lon="13.152429580688477">
<ele>74.30000305175781</ele>
<time>2014-02-15T15:06:59Z</time>
</trkpt>
<trkpt lat="52.580055236816406" lon="13.152406692504883">
<ele>74.80000305175781</ele>
<time>2014-02-15T15:07:00Z</time>
</trkpt>
<trkpt lat="52.58009719848633" lon="13.152375221252441">
<ele>74.80000305175781</ele>
<time>2014-02-15T15:07:00Z</time>
</trkpt>
<trkpt lat="52.58014678955078" lon="13.152345657348633">
<ele>74.69999694824219</ele>
<time>2014-02-15T15:07:02Z</time>
</trkpt>
<trkpt lat="52.5802001953125" lon="13.15230941772461">
<ele>74.5999984741211</ele>
<time>2014-02-15T15:07:03Z</time>
</trkpt>
<trkpt lat="52.58024978637695" lon="13.152265548706055">
<ele>73.0</ele>
<time>2014-02-15T15:07:04Z</time>
</trkpt>
<trkpt lat="52.580291748046875" lon="13.152236938476562">
<ele>72.4000015258789</ele>
<time>2014-02-15T15:07:05Z</time>
</trkpt>
<trkpt lat="52.58033752441406" lon="13.152199745178223">
<ele>71.9000015258789</ele>
<time>2014-02-15T15:07:06Z</time>
</trkpt>
<trkpt lat="52.58039474487305" lon="13.152142524719238">
<ele>72.0999984741211</ele>
<time>2014-02-15T15:07:07Z</time>
</trkpt>
<trkpt lat="52.580448150634766" lon="13.152091979980469">
<ele>72.0</ele>
<time>2014-02-15T15:07:07Z</time>
</trkpt>
<trkpt lat="52.58049011230469" lon="13.152050971984863">
<ele>72.0</ele>
<time>2014-02-15T15:07:09Z</time>
</trkpt>
<trkpt lat="52.580535888671875" lon="13.15200424194336">
<ele>72.0</ele>
<time>2014-02-15T15:07:10Z</time>
</trkpt>
<trkpt lat="52.58058166503906" lon="13.151955604553223">
<ele>72.30000305175781</ele>
<time>2014-02-15T15:07:11Z</time>
</trkpt>
<trkpt lat="52.58063507080078" lon="13.151909828186035">
<ele>71.9000015258789</ele>
<time>2014-02-15T15:07:12Z</time>
</trkpt>
<trkpt lat="52.580692291259766" lon="13.151863098144531">
<ele>72.0</ele>
<time>2014-02-15T15:07:13Z</time>
</trkpt>
<trkpt lat="52.58074188232422" lon="13.151841163635254">
<ele>72.19999694824219</ele>
<time>2014-02-15T15:07:14Z</time>
</trkpt>
<trkpt lat="52.58078384399414" lon="13.15182113647461">
<ele>72.19999694824219</ele>
<time>2014-02-15T15:07:14Z</time>
</trkpt>
<trkpt lat="52.580841064453125" lon="13.151795387268066">
<ele>72.0999984741211</ele>
<time>2014-02-15T15:07:16Z</time>
</trkpt>
<trkpt lat="52.580894470214844" lon="13.151768684387207">
<ele>71.9000015258789</ele>
<time>2014-02-15T15:07:17Z</time>
</trkpt>
<trkpt lat="52.58094024658203" lon="13.151745796203613">
<ele>71.9000015258789</ele>
<time>2014-02-15T15:07:18Z</time>
</trkpt>
<trkpt lat="52.581016540527344" lon="13.151714324951172">
<ele>71.69999694824219</ele>
<time>2014-02-15T15:07:19Z</time>
</trkpt>
<trkpt lat="52.58106994628906" lon="13.151681900024414">
<ele>71.4000015258789</ele>
<time>2014-02-15T15:07:20Z</time>
</trkpt>
<trkpt lat="52.58112716674805" lon="13.151654243469238">
<ele>71.69999694824219</ele>
<time>2014-02-15T15:07:21Z</time>
</trkpt>
<trkpt lat="52.5811767578125" lon="13.151618003845215">
<ele>71.80000305175781</ele>
<time>2014-02-15T15:07:22Z</time>
</trkpt>
<trkpt lat="52.5812873840332" lon="13.151541709899902">
<ele>72.19999694824219</ele>
<time>2014-02-15T15:07:24Z</time>
</trkpt>
<trkpt lat="52.58134841918945" lon="13.151505470275879">
<ele>72.0</ele>
<time>2014-02-15T15:07:25Z</time>
</trkpt>
<trkpt lat="52.58140182495117" lon="13.151473045349121">
<ele>72.0999984741211</ele>
<time>2014-02-15T15:07:26Z</time>
</trkpt>
<trkpt lat="52.581459045410156" lon="13.151446342468262">
<ele>72.4000015258789</ele>
<time>2014-02-15T15:07:27Z</time>
</trkpt>
<trkpt lat="52.58150863647461" lon="13.151411056518555">
<ele>72.30000305175781</ele>
<time>2014-02-15T15:07:28Z</time>
</trkpt>
<trkpt lat="52.581581115722656" lon="13.151365280151367">
<ele>72.5999984741211</ele>
<time>2014-02-15T15:07:30Z</time>
</trkpt>
<trkpt lat="52.581642150878906" lon="13.151344299316406">
<ele>72.80000305175781</ele>
<time>2014-02-15T15:07:31Z</time>
</trkpt>
<trkpt lat="52.581695556640625" lon="13.151365280151367">
<ele>71.80000305175781</ele>
<time>2014-02-15T15:07:32Z</time>
</trkpt>
<trkpt lat="52.581748962402344" lon="13.15137004852295">
<ele>71.0999984741211</ele>
<time>2014-02-15T15:07:33Z</time>
</trkpt>
<trkpt lat="52.581809997558594" lon="13.151371955871582">
<ele>71.0999984741211</ele>
<time>2014-02-15T15:07:34Z</time>
</trkpt>
<trkpt lat="52.58189392089844" lon="13.15137767791748">
<ele>71.80000305175781</ele>
<time>2014-02-15T15:07:36Z</time>
</trkpt>
<trkpt lat="52.58197021484375" lon="13.151378631591797">
<ele>71.30000305175781</ele>
<time>2014-02-15T15:07:38Z</time>
</trkpt>
<trkpt lat="52.582061767578125" lon="13.15134334564209">
<ele>70.9000015258789</ele>
<time>2014-02-15T15:07:40Z</time>
</trkpt>
<trkpt lat="52.58212661743164" lon="13.151307106018066">
<ele>70.9000015258789</ele>
<time>2014-02-15T15:07:41Z</time>
</trkpt>
<trkpt lat="52.58220291137695" lon="13.151239395141602">
<ele>71.4000015258789</ele>
<time>2014-02-15T15:07:43Z</time>
</trkpt>
<trkpt lat="52.58224105834961" lon="13.151191711425781">
<ele>70.9000015258789</ele>
<time>2014-02-15T15:07:44Z</time>
</trkpt>
<trkpt lat="52.582275390625" lon="13.151127815246582">
<ele>71.0</ele>
<time>2014-02-15T15:07:45Z</time>
</trkpt>
<trkpt lat="52.58232116699219" lon="13.15103816986084">
<ele>70.9000015258789</ele>
<time>2014-02-15T15:07:46Z</time>
</trkpt>
<trkpt lat="52.58236312866211" lon="13.150973320007324">
<ele>70.80000305175781</ele>
<time>2014-02-15T15:07:47Z</time>
</trkpt>
<trkpt lat="52.58241271972656" lon="13.150931358337402">
<ele>69.4000015258789</ele>
<time>2014-02-15T15:07:48Z</time>
</trkpt>
<trkpt lat="52.582462310791016" lon="13.150872230529785">
<ele>68.30000305175781</ele>
<time>2014-02-15T15:07:49Z</time>
</trkpt>
<trkpt lat="52.58250045776367" lon="13.150805473327637">
<ele>67.9000015258789</ele>
<time>2014-02-15T15:07:50Z</time>
</trkpt>
<trkpt lat="52.582542419433594" lon="13.15073299407959">
<ele>68.19999694824219</ele>
<time>2014-02-15T15:07:51Z</time>
</trkpt>
<trkpt lat="52.58262252807617" lon="13.150623321533203">
<ele>67.5999984741211</ele>
<time>2014-02-15T15:07:53Z</time>
</trkpt>
<trkpt lat="52.582664489746094" lon="13.150552749633789">
<ele>67.30000305175781</ele>
<time>2014-02-15T15:07:54Z</time>
</trkpt>
<trkpt lat="52.58271026611328" lon="13.150491714477539">
<ele>67.30000305175781</ele>
<time>2014-02-15T15:07:54Z</time>
</trkpt>
<trkpt lat="52.582763671875" lon="13.150432586669922">
<ele>67.5</ele>
<time>2014-02-15T15:07:56Z</time>
</trkpt>
<trkpt lat="52.58279800415039" lon="13.150354385375977">
<ele>67.5999984741211</ele>
<time>2014-02-15T15:07:57Z</time>
</trkpt>
<trkpt lat="52.58283615112305" lon="13.150278091430664">
<ele>67.5</ele>
<time>2014-02-15T15:07:58Z</time>
</trkpt>
<trkpt lat="52.582862854003906" lon="13.150198936462402">
<ele>67.5</ele>
<time>2014-02-15T15:07:59Z</time>
</trkpt>
<trkpt lat="52.5828971862793" lon="13.150116920471191">
<ele>67.4000015258789</ele>
<time>2014-02-15T15:08:00Z</time>
</trkpt>
<trkpt lat="52.58293533325195" lon="13.150044441223145">
<ele>68.0</ele>
<time>2014-02-15T15:08:01Z</time>
</trkpt>
<trkpt lat="52.58296585083008" lon="13.149979591369629">
<ele>68.30000305175781</ele>
<time>2014-02-15T15:08:02Z</time>
</trkpt>
<trkpt lat="52.58305358886719" lon="13.14995002746582">
<ele>67.80000305175781</ele>
<time>2014-02-15T15:08:04Z</time>
</trkpt>
<trkpt lat="52.58314895629883" lon="13.149945259094238">
<ele>68.30000305175781</ele>
<time>2014-02-15T15:08:06Z</time>
</trkpt>
<trkpt lat="52.58323669433594" lon="13.149949073791504">
<ele>68.0</ele>
<time>2014-02-15T15:08:08Z</time>
</trkpt>
<trkpt lat="52.58332061767578" lon="13.149959564208984">
<ele>66.0999984741211</ele>
<time>2014-02-15T15:08:10Z</time>
</trkpt>
<trkpt lat="52.583377838134766" lon="13.149938583374023">
<ele>66.69999694824219</ele>
<time>2014-02-15T15:08:11Z</time>
</trkpt>
<trkpt lat="52.58343505859375" lon="13.149921417236328">
<ele>66.9000015258789</ele>
<time>2014-02-15T15:08:12Z</time>
</trkpt>
<trkpt lat="52.58348846435547" lon="13.149903297424316">
<ele>67.30000305175781</ele>
<time>2014-02-15T15:08:13Z</time>
</trkpt>
<trkpt lat="52.58357238769531" lon="13.149873733520508">
<ele>67.69999694824219</ele>
<time>2014-02-15T15:08:15Z</time>
</trkpt>
<trkpt lat="52.583621978759766" lon="13.149884223937988">
<ele>68.0999984741211</ele>
<time>2014-02-15T15:08:16Z</time>
</trkpt>
<trkpt lat="52.583683013916016" lon="13.149864196777344">
<ele>68.19999694824219</ele>
<time>2014-02-15T15:08:17Z</time>
</trkpt>
<trkpt lat="52.5837287902832" lon="13.149873733520508">
<ele>68.0</ele>
<time>2014-02-15T15:08:18Z</time>
</trkpt>
<trkpt lat="52.58377456665039" lon="13.149866104125977">
<ele>68.30000305175781</ele>
<time>2014-02-15T15:08:19Z</time>
</trkpt>
<trkpt lat="52.58382797241211" lon="13.149880409240723">
<ele>68.0</ele>
<time>2014-02-15T15:08:20Z</time>
</trkpt>
<trkpt lat="52.583885192871094" lon="13.149882316589355">
<ele>68.69999694824219</ele>
<time>2014-02-15T15:08:21Z</time>
</trkpt>
<trkpt lat="52.58396911621094" lon="13.149921417236328">
<ele>64.5</ele>
<time>2014-02-15T15:08:22Z</time>
</trkpt>
<trkpt lat="52.584022521972656" lon="13.149938583374023">
<ele>64.69999694824219</ele>
<time>2014-02-15T15:08:24Z</time>
</trkpt>
<trkpt lat="52.584083557128906" lon="13.149913787841797">
<ele>64.80000305175781</ele>
<time>2014-02-15T15:08:25Z</time>
</trkpt>
<trkpt lat="52.584136962890625" lon="13.14991569519043">
<ele>64.30000305175781</ele>
<time>2014-02-15T15:08:26Z</time>
</trkpt>
<trkpt lat="52.58418655395508" lon="13.149908065795898">
<ele>64.5999984741211</ele>
<time>2014-02-15T15:08:27Z</time>
</trkpt>
<trkpt lat="52.5842399597168" lon="13.149897575378418">
<ele>65.0999984741211</ele>
<time>2014-02-15T15:08:28Z</time>
</trkpt>
<trkpt lat="52.58428955078125" lon="13.14989185333252">
<ele>66.69999694824219</ele>
<time>2014-02-15T15:08:29Z</time>
</trkpt>
<trkpt lat="52.58434295654297" lon="13.149892807006836">
<ele>66.5</ele>
<time>2014-02-15T15:08:30Z</time>
</trkpt>
<trkpt lat="52.58439254760742" lon="13.14989948272705">
<ele>66.69999694824219</ele>
<time>2014-02-15T15:08:31Z</time>
</trkpt>
<trkpt lat="52.58444595336914" lon="13.149909973144531">
<ele>66.0999984741211</ele>
<time>2014-02-15T15:08:32Z</time>
</trkpt>
<trkpt lat="52.584503173828125" lon="13.149925231933594">
<ele>66.0</ele>
<time>2014-02-15T15:08:33Z</time>
</trkpt>
<trkpt lat="52.58455276489258" lon="13.149938583374023">
<ele>66.30000305175781</ele>
<time>2014-02-15T15:08:34Z</time>
</trkpt>
<trkpt lat="52.5846061706543" lon="13.149950981140137">
<ele>66.4000015258789</ele>
<time>2014-02-15T15:08:35Z</time>
</trkpt>
<trkpt lat="52.584659576416016" lon="13.149965286254883">
<ele>66.19999694824219</ele>
<time>2014-02-15T15:08:36Z</time>
</trkpt>
<trkpt lat="52.584712982177734" lon="13.149970054626465">
<ele>66.0999984741211</ele>
<time>2014-02-15T15:08:37Z</time>
</trkpt>
<trkpt lat="52.58476257324219" lon="13.149992942810059">
<ele>66.0999984741211</ele>
<time>2014-02-15T15:08:38Z</time>
</trkpt>
<trkpt lat="52.584815979003906" lon="13.150005340576172">
<ele>65.9000015258789</ele>
<time>2014-02-15T15:08:39Z</time>
</trkpt>
<trkpt lat="52.584930419921875" lon="13.150002479553223">
<ele>66.5999984741211</ele>
<time>2014-02-15T15:08:41Z</time>
</trkpt>
<trkpt lat="52.58497619628906" lon="13.149978637695312">
<ele>66.9000015258789</ele>
<time>2014-02-15T15:08:42Z</time>
</trkpt>
<trkpt lat="52.585025787353516" lon="13.149970054626465">
<ele>67.0999984741211</ele>
<time>2014-02-15T15:08:43Z</time>
</trkpt>
<trkpt lat="52.58512496948242" lon="13.149927139282227">
<ele>67.4000015258789</ele>
<time>2014-02-15T15:08:45Z</time>
</trkpt>
<trkpt lat="52.58518981933594" lon="13.149887084960938">
<ele>67.4000015258789</ele>
<time>2014-02-15T15:08:46Z</time>
</trkpt>
<trkpt lat="52.58523178100586" lon="13.149856567382812">
<ele>67.5</ele>
<time>2014-02-15T15:08:47Z</time>
</trkpt>
<trkpt lat="52.585269927978516" lon="13.149813652038574">
<ele>67.5</ele>
<time>2014-02-15T15:08:48Z</time>
</trkpt>
<trkpt lat="52.5853157043457" lon="13.149755477905273">
<ele>68.0</ele>
<time>2014-02-15T15:08:49Z</time>
</trkpt>
<trkpt lat="52.58538055419922" lon="13.14971923828125">
<ele>67.9000015258789</ele>
<time>2014-02-15T15:08:50Z</time>
</trkpt>
<trkpt lat="52.58543014526367" lon="13.14966869354248">
<ele>68.19999694824219</ele>
<time>2014-02-15T15:08:51Z</time>
</trkpt>
<trkpt lat="52.585506439208984" lon="13.149600982666016">
<ele>67.69999694824219</ele>
<time>2014-02-15T15:08:53Z</time>
</trkpt>
<trkpt lat="52.58555603027344" lon="13.149528503417969">
<ele>67.5</ele>
<time>2014-02-15T15:08:55Z</time>
</trkpt>
<trkpt lat="52.58560562133789" lon="13.149441719055176">
<ele>67.0</ele>
<time>2014-02-15T15:08:56Z</time>
</trkpt>
<trkpt lat="52.58565139770508" lon="13.149381637573242">
<ele>67.0</ele>
<time>2014-02-15T15:08:57Z</time>
</trkpt>
<trkpt lat="52.585697174072266" lon="13.149317741394043">
<ele>67.0</ele>
<time>2014-02-15T15:08:57Z</time>
</trkpt>
<trkpt lat="52.585731506347656" lon="13.149259567260742">
<ele>67.80000305175781</ele>
<time>2014-02-15T15:08:59Z</time>
</trkpt>
<trkpt lat="52.58576583862305" lon="13.149199485778809">
<ele>68.30000305175781</ele>
<time>2014-02-15T15:09:00Z</time>
</trkpt>
<trkpt lat="52.58580017089844" lon="13.149136543273926">
<ele>68.5999984741211</ele>
<time>2014-02-15T15:09:01Z</time>
</trkpt>
<trkpt lat="52.585845947265625" lon="13.149088859558105">
<ele>69.19999694824219</ele>
<time>2014-02-15T15:09:02Z</time>
</trkpt>
<trkpt lat="52.58588790893555" lon="13.14904499053955">
<ele>69.30000305175781</ele>
<time>2014-02-15T15:09:03Z</time>
</trkpt>
<trkpt lat="52.58592224121094" lon="13.148974418640137">
<ele>69.80000305175781</ele>
<time>2014-02-15T15:09:04Z</time>
</trkpt>
<trkpt lat="52.58592224121094" lon="13.148900032043457">
<ele>70.5999984741211</ele>
<time>2014-02-15T15:09:05Z</time>
</trkpt>
<trkpt lat="52.585899353027344" lon="13.148786544799805">
<ele>70.5999984741211</ele>
<time>2014-02-15T15:09:07Z</time>
</trkpt>
<trkpt lat="52.58590316772461" lon="13.14867115020752">
<ele>70.9000015258789</ele>
<time>2014-02-15T15:09:09Z</time>
</trkpt>
<trkpt lat="52.585906982421875" lon="13.148582458496094">
<ele>71.19999694824219</ele>
<time>2014-02-15T15:09:10Z</time>
</trkpt>
<trkpt lat="52.58591079711914" lon="13.148487091064453">
<ele>71.30000305175781</ele>
<time>2014-02-15T15:09:11Z</time>
</trkpt>
<trkpt lat="52.585899353027344" lon="13.148404121398926">
<ele>71.0999984741211</ele>
<time>2014-02-15T15:09:12Z</time>
</trkpt>
<trkpt lat="52.585906982421875" lon="13.148261070251465">
<ele>65.5999984741211</ele>
<time>2014-02-15T15:09:14Z</time>
</trkpt>
<trkpt lat="52.58590316772461" lon="13.148170471191406">
<ele>64.69999694824219</ele>
<time>2014-02-15T15:09:15Z</time>
</trkpt>
<trkpt lat="52.58589172363281" lon="13.148092269897461">
<ele>64.80000305175781</ele>
<time>2014-02-15T15:09:16Z</time>
</trkpt>
<trkpt lat="52.58588409423828" lon="13.148016929626465">
<ele>65.0</ele>
<time>2014-02-15T15:09:17Z</time>
</trkpt>
<trkpt lat="52.585872650146484" lon="13.14792537689209">
<ele>66.0</ele>
<time>2014-02-15T15:09:18Z</time>
</trkpt>
<trkpt lat="52.58586883544922" lon="13.14784049987793">
<ele>65.9000015258789</ele>
<time>2014-02-15T15:09:19Z</time>
</trkpt>
<trkpt lat="52.58586120605469" lon="13.147764205932617">
<ele>66.0999984741211</ele>
<time>2014-02-15T15:09:20Z</time>
</trkpt>
<trkpt lat="52.585845947265625" lon="13.147682189941406">
<ele>66.19999694824219</ele>
<time>2014-02-15T15:09:21Z</time>
</trkpt>
<trkpt lat="52.58584213256836" lon="13.147584915161133">
<ele>64.4000015258789</ele>
<time>2014-02-15T15:09:21Z</time>
</trkpt>
<trkpt lat="52.585838317871094" lon="13.147476196289062">
<ele>65.19999694824219</ele>
<time>2014-02-15T15:09:23Z</time>
</trkpt>
<trkpt lat="52.585819244384766" lon="13.14739990234375">
<ele>65.5999984741211</ele>
<time>2014-02-15T15:09:24Z</time>
</trkpt>
<trkpt lat="52.585819244384766" lon="13.14731216430664">
<ele>63.79999923706055</ele>
<time>2014-02-15T15:09:25Z</time>
</trkpt>
<trkpt lat="52.585811614990234" lon="13.14723014831543">
<ele>63.400001525878906</ele>
<time>2014-02-15T15:09:26Z</time>
</trkpt>
<trkpt lat="52.5858039855957" lon="13.147132873535156">
<ele>65.0999984741211</ele>
<time>2014-02-15T15:09:27Z</time>
</trkpt>
<trkpt lat="52.585792541503906" lon="13.147050857543945">
<ele>66.5</ele>
<time>2014-02-15T15:09:28Z</time>
</trkpt>
<trkpt lat="52.58578109741211" lon="13.146903038024902">
<ele>68.0</ele>
<time>2014-02-15T15:09:30Z</time>
</trkpt>
<trkpt lat="52.58577346801758" lon="13.146748542785645">
<ele>67.4000015258789</ele>
<time>2014-02-15T15:09:32Z</time>
</trkpt>
<trkpt lat="52.585758209228516" lon="13.146666526794434">
<ele>68.0999984741211</ele>
<time>2014-02-15T15:09:33Z</time>
</trkpt>
<trkpt lat="52.58573913574219" lon="13.146577835083008">
<ele>70.5999984741211</ele>
<time>2014-02-15T15:09:34Z</time>
</trkpt>
<trkpt lat="52.58573532104492" lon="13.146485328674316">
<ele>71.0</ele>
<time>2014-02-15T15:09:35Z</time>
</trkpt>
<trkpt lat="52.58572769165039" lon="13.146401405334473">
<ele>71.19999694824219</ele>
<time>2014-02-15T15:09:36Z</time>
</trkpt>
<trkpt lat="52.58572006225586" lon="13.146319389343262">
<ele>71.30000305175781</ele>
<time>2014-02-15T15:09:36Z</time>
</trkpt>
<trkpt lat="52.585716247558594" lon="13.146240234375">
<ele>71.4000015258789</ele>
<time>2014-02-15T15:09:38Z</time>
</trkpt>
<trkpt lat="52.5857048034668" lon="13.146159172058105">
<ele>71.80000305175781</ele>
<time>2014-02-15T15:09:39Z</time>
</trkpt>
<trkpt lat="52.585693359375" lon="13.146000862121582">
<ele>72.19999694824219</ele>
<time>2014-02-15T15:09:41Z</time>
</trkpt>
<trkpt lat="52.58568572998047" lon="13.145918846130371">
<ele>72.5999984741211</ele>
<time>2014-02-15T15:09:42Z</time>
</trkpt>
<trkpt lat="52.58567810058594" lon="13.145838737487793">
<ele>72.5</ele>
<time>2014-02-15T15:09:43Z</time>
</trkpt>
<trkpt lat="52.585662841796875" lon="13.145760536193848">
<ele>72.0999984741211</ele>
<time>2014-02-15T15:09:44Z</time>
</trkpt>
<trkpt lat="52.58565139770508" lon="13.145676612854004">
<ele>72.19999694824219</ele>
<time>2014-02-15T15:09:45Z</time>
</trkpt>
<trkpt lat="52.58564758300781" lon="13.145589828491211">
<ele>72.4000015258789</ele>
<time>2014-02-15T15:09:46Z</time>
</trkpt>
<trkpt lat="52.58564376831055" lon="13.145508766174316">
<ele>72.69999694824219</ele>
<time>2014-02-15T15:09:47Z</time>
</trkpt>
<trkpt lat="52.58562469482422" lon="13.145377159118652">
<ele>72.9000015258789</ele>
<time>2014-02-15T15:09:49Z</time>
</trkpt>
<trkpt lat="52.585628509521484" lon="13.145198822021484">
<ele>72.0</ele>
<time>2014-02-15T15:09:51Z</time>
</trkpt>
<trkpt lat="52.585655212402344" lon="13.14503288269043">
<ele>72.0999984741211</ele>
<time>2014-02-15T15:09:53Z</time>
</trkpt>
<trkpt lat="52.585662841796875" lon="13.144943237304688">
<ele>72.5999984741211</ele>
<time>2014-02-15T15:09:54Z</time>
</trkpt>
<trkpt lat="52.58571243286133" lon="13.144824981689453">
<ele>72.4000015258789</ele>
<time>2014-02-15T15:09:56Z</time>
</trkpt>
<trkpt lat="52.58573532104492" lon="13.144760131835938">
<ele>72.4000015258789</ele>
<time>2014-02-15T15:09:57Z</time>
</trkpt>
<trkpt lat="52.58576965332031" lon="13.144694328308105">
<ele>72.0</ele>
<time>2014-02-15T15:09:58Z</time>
</trkpt>
<trkpt lat="52.58579635620117" lon="13.14462947845459">
<ele>72.0</ele>
<time>2014-02-15T15:09:59Z</time>
</trkpt>
<trkpt lat="52.5858268737793" lon="13.144561767578125">
<ele>71.80000305175781</ele>
<time>2014-02-15T15:10:00Z</time>
</trkpt>
<trkpt lat="52.585872650146484" lon="13.144482612609863">
<ele>70.69999694824219</ele>
<time>2014-02-15T15:10:00Z</time>
</trkpt>
<trkpt lat="52.5859375" lon="13.14434814453125">
<ele>69.19999694824219</ele>
<time>2014-02-15T15:10:03Z</time>
</trkpt>
<trkpt lat="52.58597183227539" lon="13.144286155700684">
<ele>69.0999984741211</ele>
<time>2014-02-15T15:10:04Z</time>
</trkpt>
<trkpt lat="52.58598709106445" lon="13.144166946411133">
<ele>68.4000015258789</ele>
<time>2014-02-15T15:10:06Z</time>
</trkpt>
<trkpt lat="52.586021423339844" lon="13.144113540649414">
<ele>68.30000305175781</ele>
<time>2014-02-15T15:10:07Z</time>
</trkpt>
<trkpt lat="52.58606719970703" lon="13.144038200378418">
<ele>70.0999984741211</ele>
<time>2014-02-15T15:10:08Z</time>
</trkpt>
<trkpt lat="52.586097717285156" lon="13.143964767456055">
<ele>70.0</ele>
<time>2014-02-15T15:10:09Z</time>
</trkpt>
<trkpt lat="52.58613967895508" lon="13.143900871276855">
<ele>70.30000305175781</ele>
<time>2014-02-15T15:10:10Z</time>
</trkpt>
<trkpt lat="52.5861930847168" lon="13.143851280212402">
<ele>70.5</ele>
<time>2014-02-15T15:10:11Z</time>
</trkpt>
<trkpt lat="52.586246490478516" lon="13.1438570022583">
<ele>70.4000015258789</ele>
<time>2014-02-15T15:10:12Z</time>
</trkpt>
<trkpt lat="52.58633041381836" lon="13.14394760131836">
<ele>70.5</ele>
<time>2014-02-15T15:10:14Z</time>
</trkpt>
<trkpt lat="52.58634948730469" lon="13.144042015075684">
<ele>75.0999984741211</ele>
<time>2014-02-15T15:10:16Z</time>
</trkpt>
<trkpt lat="52.586395263671875" lon="13.144110679626465">
<ele>76.19999694824219</ele>
<time>2014-02-15T15:10:16Z</time>
</trkpt>
<trkpt lat="52.58646774291992" lon="13.14417552947998">
<ele>76.0999984741211</ele>
<time>2014-02-15T15:10:19Z</time>
</trkpt>
<trkpt lat="52.58656311035156" lon="13.144186973571777">
<ele>76.19999694824219</ele>
<time>2014-02-15T15:10:20Z</time>
</trkpt>
<trkpt lat="52.58660888671875" lon="13.144173622131348">
<ele>75.80000305175781</ele>
<time>2014-02-15T15:10:22Z</time>
</trkpt>
<trkpt lat="52.5866584777832" lon="13.1441650390625">
<ele>74.69999694824219</ele>
<time>2014-02-15T15:10:23Z</time>
</trkpt>
<trkpt lat="52.58673095703125" lon="13.144145011901855">
<ele>74.80000305175781</ele>
<time>2014-02-15T15:10:25Z</time>
</trkpt>
<trkpt lat="52.58684158325195" lon="13.14413833618164">
<ele>74.0999984741211</ele>
<time>2014-02-15T15:10:27Z</time>
</trkpt>
<trkpt lat="52.58688735961914" lon="13.144131660461426">
<ele>73.9000015258789</ele>
<time>2014-02-15T15:10:28Z</time>
</trkpt>
<trkpt lat="52.586978912353516" lon="13.144089698791504">
<ele>73.80000305175781</ele>
<time>2014-02-15T15:10:30Z</time>
</trkpt>
<trkpt lat="52.5870361328125" lon="13.144070625305176">
<ele>72.30000305175781</ele>
<time>2014-02-15T15:10:31Z</time>
</trkpt>
<trkpt lat="52.58708190917969" lon="13.144044876098633">
<ele>71.4000015258789</ele>
<time>2014-02-15T15:10:32Z</time>
</trkpt>
<trkpt lat="52.5871467590332" lon="13.144021034240723">
<ele>72.0999984741211</ele>
<time>2014-02-15T15:10:33Z</time>
</trkpt>
<trkpt lat="52.58720779418945" lon="13.144021987915039">
<ele>70.30000305175781</ele>
<time>2014-02-15T15:10:34Z</time>
</trkpt>
<trkpt lat="52.5872802734375" lon="13.14394760131836">
<ele>67.5</ele>
<time>2014-02-15T15:10:36Z</time>
</trkpt>
<trkpt lat="52.58732604980469" lon="13.143826484680176">
<ele>68.0</ele>
<time>2014-02-15T15:10:38Z</time>
</trkpt>
<trkpt lat="52.58733367919922" lon="13.14374828338623">
<ele>67.19999694824219</ele>
<time>2014-02-15T15:10:39Z</time>
</trkpt>
<trkpt lat="52.587345123291016" lon="13.14363956451416">
<ele>67.19999694824219</ele>
<time>2014-02-15T15:10:40Z</time>
</trkpt>
<trkpt lat="52.58736038208008" lon="13.143555641174316">
<ele>67.30000305175781</ele>
<time>2014-02-15T15:10:41Z</time>
</trkpt>
<trkpt lat="52.587364196777344" lon="13.14346981048584">
<ele>67.19999694824219</ele>
<time>2014-02-15T15:10:42Z</time>
</trkpt>
<trkpt lat="52.58736801147461" lon="13.143385887145996">
<ele>66.5</ele>
<time>2014-02-15T15:10:43Z</time>
</trkpt>
<trkpt lat="52.58737564086914" lon="13.143301010131836">
<ele>66.19999694824219</ele>
<time>2014-02-15T15:10:44Z</time>
</trkpt>
<trkpt lat="52.5873908996582" lon="13.143224716186523">
<ele>66.69999694824219</ele>
<time>2014-02-15T15:10:45Z</time>
</trkpt>
<trkpt lat="52.587398529052734" lon="13.143148422241211">
<ele>66.5</ele>
<time>2014-02-15T15:10:46Z</time>
</trkpt>
<trkpt lat="52.587406158447266" lon="13.143070220947266">
<ele>66.69999694824219</ele>
<time>2014-02-15T15:10:47Z</time>
</trkpt>
<trkpt lat="52.58740997314453" lon="13.142986297607422">
<ele>66.5999984741211</ele>
<time>2014-02-15T15:10:48Z</time>
</trkpt>
<trkpt lat="52.587406158447266" lon="13.142903327941895">
<ele>66.5</ele>
<time>2014-02-15T15:10:49Z</time>
</trkpt>
<trkpt lat="52.58740234375" lon="13.142820358276367">
<ele>66.30000305175781</ele>
<time>2014-02-15T15:10:50Z</time>
</trkpt>
<trkpt lat="52.58740234375" lon="13.14273738861084">
<ele>67.0</ele>
<time>2014-02-15T15:10:51Z</time>
</trkpt>
<trkpt lat="52.58739471435547" lon="13.142646789550781">
<ele>66.5</ele>
<time>2014-02-15T15:10:52Z</time>
</trkpt>
<trkpt lat="52.58738327026367" lon="13.142555236816406">
<ele>66.0999984741211</ele>
<time>2014-02-15T15:10:53Z</time>
</trkpt>
<trkpt lat="52.58736801147461" lon="13.142474174499512">
<ele>65.9000015258789</ele>
<time>2014-02-15T15:10:54Z</time>
</trkpt>
<trkpt lat="52.58736038208008" lon="13.142400741577148">
<ele>66.19999694824219</ele>
<time>2014-02-15T15:10:55Z</time>
</trkpt>
<trkpt lat="52.58735275268555" lon="13.142324447631836">
<ele>66.19999694824219</ele>
<time>2014-02-15T15:10:56Z</time>
</trkpt>
<trkpt lat="52.58734130859375" lon="13.142243385314941">
<ele>66.69999694824219</ele>
<time>2014-02-15T15:10:57Z</time>
</trkpt>
<trkpt lat="52.58733367919922" lon="13.142152786254883">
<ele>66.69999694824219</ele>
<time>2014-02-15T15:10:58Z</time>
</trkpt>
<trkpt lat="52.58732604980469" lon="13.142073631286621">
<ele>66.5999984741211</ele>
<time>2014-02-15T15:10:59Z</time>
</trkpt>
<trkpt lat="52.58735275268555" lon="13.141989707946777">
<ele>67.19999694824219</ele>
<time>2014-02-15T15:11:00Z</time>
</trkpt>
<trkpt lat="52.587379455566406" lon="13.141924858093262">
<ele>66.80000305175781</ele>
<time>2014-02-15T15:11:01Z</time>
</trkpt>
<trkpt lat="52.587432861328125" lon="13.14190673828125">
<ele>67.19999694824219</ele>
<time>2014-02-15T15:11:01Z</time>
</trkpt>
<trkpt lat="52.58748245239258" lon="13.141907691955566">
<ele>67.19999694824219</ele>
<time>2014-02-15T15:11:03Z</time>
</trkpt>
<trkpt lat="52.587528228759766" lon="13.141898155212402">
<ele>66.9000015258789</ele>
<time>2014-02-15T15:11:04Z</time>
</trkpt>
<trkpt lat="52.587581634521484" lon="13.141890525817871">
<ele>66.80000305175781</ele>
<time>2014-02-15T15:11:05Z</time>
</trkpt>
<trkpt lat="52.5876350402832" lon="13.141877174377441">
<ele>67.0</ele>
<time>2014-02-15T15:11:06Z</time>
</trkpt>
<trkpt lat="52.58768844604492" lon="13.14186954498291">
<ele>67.4000015258789</ele>
<time>2014-02-15T15:11:07Z</time>
</trkpt>
<trkpt lat="52.58774185180664" lon="13.141853332519531">
<ele>67.5</ele>
<time>2014-02-15T15:11:08Z</time>
</trkpt>
<trkpt lat="52.58779525756836" lon="13.141846656799316">
<ele>67.69999694824219</ele>
<time>2014-02-15T15:11:09Z</time>
</trkpt>
<trkpt lat="52.58784866333008" lon="13.141849517822266">
<ele>67.69999694824219</ele>
<time>2014-02-15T15:11:10Z</time>
</trkpt>
<trkpt lat="52.58789825439453" lon="13.141864776611328">
<ele>67.30000305175781</ele>
<time>2014-02-15T15:11:11Z</time>
</trkpt>
<trkpt lat="52.58795166015625" lon="13.141873359680176">
<ele>67.0999984741211</ele>
<time>2014-02-15T15:11:12Z</time>
</trkpt>
<trkpt lat="52.58800506591797" lon="13.141886711120605">
<ele>67.0</ele>
<time>2014-02-15T15:11:13Z</time>
</trkpt>
<trkpt lat="52.58805847167969" lon="13.141895294189453">
<ele>67.0999984741211</ele>
<time>2014-02-15T15:11:14Z</time>
</trkpt>
<trkpt lat="52.588111877441406" lon="13.141900062561035">
<ele>67.30000305175781</ele>
<time>2014-02-15T15:11:15Z</time>
</trkpt>
<trkpt lat="52.588165283203125" lon="13.141902923583984">
<ele>67.19999694824219</ele>
<time>2014-02-15T15:11:16Z</time>
</trkpt>
<trkpt lat="52.58822250366211" lon="13.141895294189453">
<ele>67.69999694824219</ele>
<time>2014-02-15T15:11:17Z</time>
</trkpt>
<trkpt lat="52.588279724121094" lon="13.141880989074707">
<ele>67.5999984741211</ele>
<time>2014-02-15T15:11:18Z</time>
</trkpt>
<trkpt lat="52.58833312988281" lon="13.14186954498291">
<ele>67.5</ele>
<time>2014-02-15T15:11:19Z</time>
</trkpt>
<trkpt lat="52.588382720947266" lon="13.141852378845215">
<ele>67.69999694824219</ele>
<time>2014-02-15T15:11:20Z</time>
</trkpt>
<trkpt lat="52.588436126708984" lon="13.141839981079102">
<ele>67.5999984741211</ele>
<time>2014-02-15T15:11:21Z</time>
</trkpt>
<trkpt lat="52.58848190307617" lon="13.141829490661621">
<ele>67.5999984741211</ele>
<time>2014-02-15T15:11:22Z</time>
</trkpt>
<trkpt lat="52.588531494140625" lon="13.141819953918457">
<ele>67.5999984741211</ele>
<time>2014-02-15T15:11:23Z</time>
</trkpt>
<trkpt lat="52.58858108520508" lon="13.141816139221191">
<ele>67.30000305175781</ele>
<time>2014-02-15T15:11:24Z</time>
</trkpt>
<trkpt lat="52.588626861572266" lon="13.141817092895508">
<ele>67.19999694824219</ele>
<time>2014-02-15T15:11:25Z</time>
</trkpt>
<trkpt lat="52.58871841430664" lon="13.141830444335938">
<ele>67.19999694824219</ele>
<time>2014-02-15T15:11:27Z</time>
</trkpt>
<trkpt lat="52.58876419067383" lon="13.141840934753418">
<ele>67.4000015258789</ele>
<time>2014-02-15T15:11:28Z</time>
</trkpt>
<trkpt lat="52.588809967041016" lon="13.14185619354248">
<ele>67.69999694824219</ele>
<time>2014-02-15T15:11:29Z</time>
</trkpt>
<trkpt lat="52.5888557434082" lon="13.141871452331543">
<ele>67.30000305175781</ele>
<time>2014-02-15T15:11:30Z</time>
</trkpt>
<trkpt lat="52.588905334472656" lon="13.141890525817871">
<ele>67.0999984741211</ele>
<time>2014-02-15T15:11:31Z</time>
</trkpt>
<trkpt lat="52.58895492553711" lon="13.141912460327148">
<ele>67.30000305175781</ele>
<time>2014-02-15T15:11:32Z</time>
</trkpt>
<trkpt lat="52.58900451660156" lon="13.14193058013916">
<ele>67.0</ele>
<time>2014-02-15T15:11:33Z</time>
</trkpt>
<trkpt lat="52.589054107666016" lon="13.141960144042969">
<ele>66.9000015258789</ele>
<time>2014-02-15T15:11:34Z</time>
</trkpt>
<trkpt lat="52.58910369873047" lon="13.141984939575195">
<ele>67.0</ele>
<time>2014-02-15T15:11:35Z</time>
</trkpt>
<trkpt lat="52.58915710449219" lon="13.142009735107422">
<ele>67.19999694824219</ele>
<time>2014-02-15T15:11:36Z</time>
</trkpt>
<trkpt lat="52.589202880859375" lon="13.142045021057129">
<ele>67.0</ele>
<time>2014-02-15T15:11:37Z</time>
</trkpt>
<trkpt lat="52.58925247192383" lon="13.14209270477295">
<ele>66.69999694824219</ele>
<time>2014-02-15T15:11:38Z</time>
</trkpt>
<trkpt lat="52.589298248291016" lon="13.14215087890625">
<ele>66.69999694824219</ele>
<time>2014-02-15T15:11:39Z</time>
</trkpt>
<trkpt lat="52.58933639526367" lon="13.142218589782715">
<ele>66.80000305175781</ele>
<time>2014-02-15T15:11:39Z</time>
</trkpt>
<trkpt lat="52.58937454223633" lon="13.142292022705078">
<ele>67.0</ele>
<time>2014-02-15T15:11:41Z</time>
</trkpt>
<trkpt lat="52.58940887451172" lon="13.142376899719238">
<ele>66.9000015258789</ele>
<time>2014-02-15T15:11:42Z</time>
</trkpt>
<trkpt lat="52.58943557739258" lon="13.14246654510498">
<ele>67.5999984741211</ele>
<time>2014-02-15T15:11:43Z</time>
</trkpt>
<trkpt lat="52.58945846557617" lon="13.142557144165039">
<ele>67.69999694824219</ele>
<time>2014-02-15T15:11:43Z</time>
</trkpt>
<trkpt lat="52.589481353759766" lon="13.142648696899414">
<ele>67.9000015258789</ele>
<time>2014-02-15T15:11:45Z</time>
</trkpt>
<trkpt lat="52.589500427246094" lon="13.142738342285156">
<ele>67.9000015258789</ele>
<time>2014-02-15T15:11:46Z</time>
</trkpt>
<trkpt lat="52.58951950073242" lon="13.142827033996582">
<ele>68.30000305175781</ele>
<time>2014-02-15T15:11:47Z</time>
</trkpt>
<trkpt lat="52.589542388916016" lon="13.142914772033691">
<ele>68.5</ele>
<time>2014-02-15T15:11:48Z</time>
</trkpt>
<trkpt lat="52.58955764770508" lon="13.14300537109375">
<ele>68.4000015258789</ele>
<time>2014-02-15T15:11:48Z</time>
</trkpt>
<trkpt lat="52.58957290649414" lon="13.143094062805176">
<ele>68.30000305175781</ele>
<time>2014-02-15T15:11:50Z</time>
</trkpt>
<trkpt lat="52.589595794677734" lon="13.143186569213867">
<ele>68.30000305175781</ele>
<time>2014-02-15T15:11:51Z</time>
</trkpt>
<trkpt lat="52.58961486816406" lon="13.143275260925293">
<ele>68.4000015258789</ele>
<time>2014-02-15T15:11:52Z</time>
</trkpt>
<trkpt lat="52.589637756347656" lon="13.143360137939453">
<ele>68.69999694824219</ele>
<time>2014-02-15T15:11:53Z</time>
</trkpt>
<trkpt lat="52.58966064453125" lon="13.143445014953613">
<ele>69.0</ele>
<time>2014-02-15T15:11:54Z</time>
</trkpt>
<trkpt lat="52.589691162109375" lon="13.143525123596191">
<ele>69.0999984741211</ele>
<time>2014-02-15T15:11:55Z</time>
</trkpt>
<trkpt lat="52.5897216796875" lon="13.143606185913086">
<ele>69.19999694824219</ele>
<time>2014-02-15T15:11:56Z</time>
</trkpt>
<trkpt lat="52.589752197265625" lon="13.143682479858398">
<ele>69.5</ele>
<time>2014-02-15T15:11:57Z</time>
</trkpt>
<trkpt lat="52.58978271484375" lon="13.143757820129395">
<ele>69.80000305175781</ele>
<time>2014-02-15T15:11:58Z</time>
</trkpt>
<trkpt lat="52.58980941772461" lon="13.143838882446289">
<ele>69.9000015258789</ele>
<time>2014-02-15T15:11:59Z</time>
</trkpt>
<trkpt lat="52.58983612060547" lon="13.143913269042969">
<ele>70.19999694824219</ele>
<time>2014-02-15T15:12:00Z</time>
</trkpt>
<trkpt lat="52.589866638183594" lon="13.143990516662598">
<ele>70.30000305175781</ele>
<time>2014-02-15T15:12:00Z</time>
</trkpt>
<trkpt lat="52.58988952636719" lon="13.144062995910645">
<ele>70.5999984741211</ele>
<time>2014-02-15T15:12:02Z</time>
</trkpt>
<trkpt lat="52.58992004394531" lon="13.14413833618164">
<ele>71.0</ele>
<time>2014-02-15T15:12:03Z</time>
</trkpt>
<trkpt lat="52.58995056152344" lon="13.144210815429688">
<ele>71.30000305175781</ele>
<time>2014-02-15T15:12:04Z</time>
</trkpt>
<trkpt lat="52.5899772644043" lon="13.144281387329102">
<ele>71.69999694824219</ele>
<time>2014-02-15T15:12:05Z</time>
</trkpt>
<trkpt lat="52.590003967285156" lon="13.144349098205566">
<ele>71.80000305175781</ele>
<time>2014-02-15T15:12:06Z</time>
</trkpt>
<trkpt lat="52.59003448486328" lon="13.144426345825195">
<ele>71.9000015258789</ele>
<time>2014-02-15T15:12:07Z</time>
</trkpt>
<trkpt lat="52.59006118774414" lon="13.144499778747559">
<ele>71.80000305175781</ele>
<time>2014-02-15T15:12:08Z</time>
</trkpt>
<trkpt lat="52.590091705322266" lon="13.144576072692871">
<ele>71.69999694824219</ele>
<time>2014-02-15T15:12:09Z</time>
</trkpt>
<trkpt lat="52.590118408203125" lon="13.144652366638184">
<ele>71.69999694824219</ele>
<time>2014-02-15T15:12:10Z</time>
</trkpt>
<trkpt lat="52.59014892578125" lon="13.14472484588623">
<ele>71.69999694824219</ele>
<time>2014-02-15T15:12:11Z</time>
</trkpt>
<trkpt lat="52.59017562866211" lon="13.144803047180176">
<ele>71.80000305175781</ele>
<time>2014-02-15T15:12:12Z</time>
</trkpt>
<trkpt lat="52.5901985168457" lon="13.144882202148438">
<ele>72.30000305175781</ele>
<time>2014-02-15T15:12:13Z</time>
</trkpt>
<trkpt lat="52.59022903442383" lon="13.144957542419434">
<ele>72.5</ele>
<time>2014-02-15T15:12:14Z</time>
</trkpt>
<trkpt lat="52.59025573730469" lon="13.145030975341797">
<ele>72.5999984741211</ele>
<time>2014-02-15T15:12:15Z</time>
</trkpt>
<trkpt lat="52.59028244018555" lon="13.145110130310059">
<ele>72.5999984741211</ele>
<time>2014-02-15T15:12:16Z</time>
</trkpt>
<trkpt lat="52.59031295776367" lon="13.145182609558105">
<ele>72.5999984741211</ele>
<time>2014-02-15T15:12:17Z</time>
</trkpt>
<trkpt lat="52.59033966064453" lon="13.145252227783203">
<ele>72.5999984741211</ele>
<time>2014-02-15T15:12:18Z</time>
</trkpt>
<trkpt lat="52.590370178222656" lon="13.1453275680542">
<ele>72.80000305175781</ele>
<time>2014-02-15T15:12:19Z</time>
</trkpt>
<trkpt lat="52.59040451049805" lon="13.145394325256348">
<ele>72.5999984741211</ele>
<time>2014-02-15T15:12:20Z</time>
</trkpt>
<trkpt lat="52.59042739868164" lon="13.14547348022461">
<ele>72.5999984741211</ele>
<time>2014-02-15T15:12:21Z</time>
</trkpt>
<trkpt lat="52.590450286865234" lon="13.145549774169922">
<ele>72.19999694824219</ele>
<time>2014-02-15T15:12:22Z</time>
</trkpt>
<trkpt lat="52.590476989746094" lon="13.14562702178955">
<ele>72.19999694824219</ele>
<time>2014-02-15T15:12:23Z</time>
</trkpt>
<trkpt lat="52.59050369262695" lon="13.145705223083496">
<ele>72.0</ele>
<time>2014-02-15T15:12:24Z</time>
</trkpt>
<trkpt lat="52.59053039550781" lon="13.145782470703125">
<ele>72.19999694824219</ele>
<time>2014-02-15T15:12:24Z</time>
</trkpt>
<trkpt lat="52.59055709838867" lon="13.145857810974121">
<ele>72.0999984741211</ele>
<time>2014-02-15T15:12:26Z</time>
</trkpt>
<trkpt lat="52.5905876159668" lon="13.145939826965332">
<ele>72.0999984741211</ele>
<time>2014-02-15T15:12:27Z</time>
</trkpt>
<trkpt lat="52.59061813354492" lon="13.14601993560791">
<ele>72.0999984741211</ele>
<time>2014-02-15T15:12:28Z</time>
</trkpt>
<trkpt lat="52.59064483642578" lon="13.14610481262207">
<ele>72.0</ele>
<time>2014-02-15T15:12:29Z</time>
</trkpt>
<trkpt lat="52.59067153930664" lon="13.146186828613281">
<ele>72.0999984741211</ele>
<time>2014-02-15T15:12:30Z</time>
</trkpt>
<trkpt lat="52.5906982421875" lon="13.146267890930176">
<ele>72.0</ele>
<time>2014-02-15T15:12:31Z</time>
</trkpt>
<trkpt lat="52.59072494506836" lon="13.14634895324707">
<ele>71.69999694824219</ele>
<time>2014-02-15T15:12:32Z</time>
</trkpt>
<trkpt lat="52.59075927734375" lon="13.146415710449219">
<ele>71.9000015258789</ele>
<time>2014-02-15T15:12:33Z</time>
</trkpt>
<trkpt lat="52.59078598022461" lon="13.146492004394531">
<ele>72.19999694824219</ele>
<time>2014-02-15T15:12:34Z</time>
</trkpt>
<trkpt lat="52.59081268310547" lon="13.146565437316895">
<ele>72.19999694824219</ele>
<time>2014-02-15T15:12:35Z</time>
</trkpt>
<trkpt lat="52.59083938598633" lon="13.146644592285156">
<ele>72.19999694824219</ele>
<time>2014-02-15T15:12:36Z</time>
</trkpt>
<trkpt lat="52.59086608886719" lon="13.146723747253418">
<ele>72.30000305175781</ele>
<time>2014-02-15T15:12:36Z</time>
</trkpt>
<trkpt lat="52.59089660644531" lon="13.146809577941895">
<ele>72.30000305175781</ele>
<time>2014-02-15T15:12:38Z</time>
</trkpt>
<trkpt lat="52.59092712402344" lon="13.146890640258789">
<ele>72.30000305175781</ele>
<time>2014-02-15T15:12:39Z</time>
</trkpt>
<trkpt lat="52.59095764160156" lon="13.146968841552734">
<ele>71.9000015258789</ele>
<time>2014-02-15T15:12:39Z</time>
</trkpt>
<trkpt lat="52.59098434448242" lon="13.147049903869629">
<ele>71.9000015258789</ele>
<time>2014-02-15T15:12:41Z</time>
</trkpt>
<trkpt lat="52.59101486206055" lon="13.14712905883789">
<ele>72.0999984741211</ele>
<time>2014-02-15T15:12:42Z</time>
</trkpt>
<trkpt lat="52.591041564941406" lon="13.147208213806152">
<ele>72.19999694824219</ele>
<time>2014-02-15T15:12:43Z</time>
</trkpt>
<trkpt lat="52.591068267822266" lon="13.1472806930542">
<ele>72.0999984741211</ele>
<time>2014-02-15T15:12:44Z</time>
</trkpt>
<trkpt lat="52.59109878540039" lon="13.147360801696777">
<ele>72.0</ele>
<time>2014-02-15T15:12:45Z</time>
</trkpt>
<trkpt lat="52.59112548828125" lon="13.147439002990723">
<ele>72.0</ele>
<time>2014-02-15T15:12:46Z</time>
</trkpt>
<trkpt lat="52.591156005859375" lon="13.147512435913086">
<ele>72.19999694824219</ele>
<time>2014-02-15T15:12:47Z</time>
</trkpt>
<trkpt lat="52.591182708740234" lon="13.147588729858398">
<ele>72.19999694824219</ele>
<time>2014-02-15T15:12:48Z</time>
</trkpt>
<trkpt lat="52.591209411621094" lon="13.147672653198242">
<ele>72.0999984741211</ele>
<time>2014-02-15T15:12:49Z</time>
</trkpt>
<trkpt lat="52.59123611450195" lon="13.147754669189453">
<ele>72.0999984741211</ele>
<time>2014-02-15T15:12:50Z</time>
</trkpt>
<trkpt lat="52.59126281738281" lon="13.147832870483398">
<ele>72.19999694824219</ele>
<time>2014-02-15T15:12:51Z</time>
</trkpt>
<trkpt lat="52.59128952026367" lon="13.147911071777344">
<ele>72.4000015258789</ele>
<time>2014-02-15T15:12:52Z</time>
</trkpt>
<trkpt lat="52.59131622314453" lon="13.147991180419922">
<ele>72.4000015258789</ele>
<time>2014-02-15T15:12:53Z</time>
</trkpt>
<trkpt lat="52.59134292602539" lon="13.148070335388184">
<ele>72.30000305175781</ele>
<time>2014-02-15T15:12:54Z</time>
</trkpt>
<trkpt lat="52.591373443603516" lon="13.148144721984863">
<ele>72.0999984741211</ele>
<time>2014-02-15T15:12:55Z</time>
</trkpt>
<trkpt lat="52.591400146484375" lon="13.14821720123291">
<ele>72.4000015258789</ele>
<time>2014-02-15T15:12:56Z</time>
</trkpt>
<trkpt lat="52.591426849365234" lon="13.14829158782959">
<ele>72.30000305175781</ele>
<time>2014-02-15T15:12:57Z</time>
</trkpt>
<trkpt lat="52.591453552246094" lon="13.148367881774902">
<ele>72.5</ele>
<time>2014-02-15T15:12:58Z</time>
</trkpt>
<trkpt lat="52.59148025512695" lon="13.148447036743164">
<ele>72.5999984741211</ele>
<time>2014-02-15T15:12:59Z</time>
</trkpt>
<trkpt lat="52.59150695800781" lon="13.148517608642578">
<ele>72.5999984741211</ele>
<time>2014-02-15T15:13:00Z</time>
</trkpt>
<trkpt lat="52.59153366088867" lon="13.14859390258789">
<ele>72.5999984741211</ele>
<time>2014-02-15T15:13:00Z</time>
</trkpt>
<trkpt lat="52.59156036376953" lon="13.148669242858887">
<ele>72.5</ele>
<time>2014-02-15T15:13:02Z</time>
</trkpt>
<trkpt lat="52.591590881347656" lon="13.148744583129883">
<ele>72.80000305175781</ele>
<time>2014-02-15T15:13:03Z</time>
</trkpt>
<trkpt lat="52.591617584228516" lon="13.14881420135498">
<ele>72.5999984741211</ele>
<time>2014-02-15T15:13:04Z</time>
</trkpt>
<trkpt lat="52.59164810180664" lon="13.14889144897461">
<ele>72.30000305175781</ele>
<time>2014-02-15T15:13:05Z</time>
</trkpt>
<trkpt lat="52.5916748046875" lon="13.14896297454834">
<ele>72.30000305175781</ele>
<time>2014-02-15T15:13:06Z</time>
</trkpt>
<trkpt lat="52.59170913696289" lon="13.149041175842285">
<ele>72.19999694824219</ele>
<time>2014-02-15T15:13:07Z</time>
</trkpt>
<trkpt lat="52.591739654541016" lon="13.149121284484863">
<ele>72.0</ele>
<time>2014-02-15T15:13:08Z</time>
</trkpt>
<trkpt lat="52.591773986816406" lon="13.149195671081543">
<ele>71.69999694824219</ele>
<time>2014-02-15T15:13:09Z</time>
</trkpt>
<trkpt lat="52.5918083190918" lon="13.149266242980957">
<ele>71.5999984741211</ele>
<time>2014-02-15T15:13:10Z</time>
</trkpt>
<trkpt lat="52.59183883666992" lon="13.149332046508789">
<ele>71.30000305175781</ele>
<time>2014-02-15T15:13:11Z</time>
</trkpt>
<trkpt lat="52.591880798339844" lon="13.149396896362305">
<ele>71.4000015258789</ele>
<time>2014-02-15T15:13:12Z</time>
</trkpt>
<trkpt lat="52.591922760009766" lon="13.149456977844238">
<ele>71.30000305175781</ele>
<time>2014-02-15T15:13:13Z</time>
</trkpt>
<trkpt lat="52.59196853637695" lon="13.149519920349121">
<ele>71.4000015258789</ele>
<time>2014-02-15T15:13:14Z</time>
</trkpt>
<trkpt lat="52.592010498046875" lon="13.149574279785156">
<ele>71.5999984741211</ele>
<time>2014-02-15T15:13:15Z</time>
</trkpt>
<trkpt lat="52.5920524597168" lon="13.149628639221191">
<ele>71.0999984741211</ele>
<time>2014-02-15T15:13:16Z</time>
</trkpt>
<trkpt lat="52.59209442138672" lon="13.149680137634277">
<ele>70.9000015258789</ele>
<time>2014-02-15T15:13:16Z</time>
</trkpt>
<trkpt lat="52.59213638305664" lon="13.149730682373047">
<ele>70.5</ele>
<time>2014-02-15T15:13:18Z</time>
</trkpt>
<trkpt lat="52.59217834472656" lon="13.149786949157715">
<ele>70.5</ele>
<time>2014-02-15T15:13:19Z</time>
</trkpt>
<trkpt lat="52.592220306396484" lon="13.149843215942383">
<ele>70.4000015258789</ele>
<time>2014-02-15T15:13:20Z</time>
</trkpt>
<trkpt lat="52.592262268066406" lon="13.14989948272705">
<ele>70.30000305175781</ele>
<time>2014-02-15T15:13:21Z</time>
</trkpt>
<trkpt lat="52.592308044433594" lon="13.149956703186035">
<ele>70.0</ele>
<time>2014-02-15T15:13:22Z</time>
</trkpt>
<trkpt lat="52.59235763549805" lon="13.150012969970703">
<ele>69.30000305175781</ele>
<time>2014-02-15T15:13:23Z</time>
</trkpt>
<trkpt lat="52.592403411865234" lon="13.15007209777832">
<ele>69.0</ele>
<time>2014-02-15T15:13:24Z</time>
</trkpt>
<trkpt lat="52.59245300292969" lon="13.150131225585938">
<ele>68.5</ele>
<time>2014-02-15T15:13:25Z</time>
</trkpt>
<trkpt lat="52.59250259399414" lon="13.150191307067871">
<ele>68.4000015258789</ele>
<time>2014-02-15T15:13:26Z</time>
</trkpt>
<trkpt lat="52.59254837036133" lon="13.150253295898438">
<ele>68.19999694824219</ele>
<time>2014-02-15T15:13:27Z</time>
</trkpt>
<trkpt lat="52.592594146728516" lon="13.15031909942627">
<ele>68.19999694824219</ele>
<time>2014-02-15T15:13:28Z</time>
</trkpt>
<trkpt lat="52.59264373779297" lon="13.150383949279785">
<ele>68.0999984741211</ele>
<time>2014-02-15T15:13:29Z</time>
</trkpt>
<trkpt lat="52.59269332885742" lon="13.150449752807617">
<ele>68.30000305175781</ele>
<time>2014-02-15T15:13:30Z</time>
</trkpt>
<trkpt lat="52.59273910522461" lon="13.150511741638184">
<ele>68.69999694824219</ele>
<time>2014-02-15T15:13:31Z</time>
</trkpt>
<trkpt lat="52.5927848815918" lon="13.150571823120117">
<ele>68.69999694824219</ele>
<time>2014-02-15T15:13:32Z</time>
</trkpt>
<trkpt lat="52.592830657958984" lon="13.150629997253418">
<ele>68.5999984741211</ele>
<time>2014-02-15T15:13:33Z</time>
</trkpt>
<trkpt lat="52.59287643432617" lon="13.150690078735352">
<ele>68.80000305175781</ele>
<time>2014-02-15T15:13:34Z</time>
</trkpt>
<trkpt lat="52.59292221069336" lon="13.150748252868652">
<ele>69.0</ele>
<time>2014-02-15T15:13:34Z</time>
</trkpt>
<trkpt lat="52.59296798706055" lon="13.15080451965332">
<ele>68.9000015258789</ele>
<time>2014-02-15T15:13:36Z</time>
</trkpt>
<trkpt lat="52.593013763427734" lon="13.150861740112305">
<ele>68.9000015258789</ele>
<time>2014-02-15T15:13:36Z</time>
</trkpt>
<trkpt lat="52.59305953979492" lon="13.15091609954834">
<ele>68.9000015258789</ele>
<time>2014-02-15T15:13:38Z</time>
</trkpt>
<trkpt lat="52.593101501464844" lon="13.150973320007324">
<ele>68.9000015258789</ele>
<time>2014-02-15T15:13:39Z</time>
</trkpt>
<trkpt lat="52.59314727783203" lon="13.15102767944336">
<ele>69.0</ele>
<time>2014-02-15T15:13:40Z</time>
</trkpt>
<trkpt lat="52.593196868896484" lon="13.15108585357666">
<ele>68.80000305175781</ele>
<time>2014-02-15T15:13:41Z</time>
</trkpt>
<trkpt lat="52.59324264526367" lon="13.151142120361328">
<ele>68.69999694824219</ele>
<time>2014-02-15T15:13:42Z</time>
</trkpt>
<trkpt lat="52.59328842163086" lon="13.151201248168945">
<ele>68.5999984741211</ele>
<time>2014-02-15T15:13:43Z</time>
</trkpt>
<trkpt lat="52.59333038330078" lon="13.151260375976562">
<ele>69.0</ele>
<time>2014-02-15T15:13:44Z</time>
</trkpt>
<trkpt lat="52.59337615966797" lon="13.151326179504395">
<ele>69.30000305175781</ele>
<time>2014-02-15T15:13:45Z</time>
</trkpt>
<trkpt lat="52.59341812133789" lon="13.151388168334961">
<ele>69.4000015258789</ele>
<time>2014-02-15T15:13:46Z</time>
</trkpt>
<trkpt lat="52.59346389770508" lon="13.151442527770996">
<ele>68.9000015258789</ele>
<time>2014-02-15T15:13:47Z</time>
</trkpt>
<trkpt lat="52.593509674072266" lon="13.151504516601562">
<ele>68.9000015258789</ele>
<time>2014-02-15T15:13:48Z</time>
</trkpt>
<trkpt lat="52.59355163574219" lon="13.151566505432129">
<ele>68.80000305175781</ele>
<time>2014-02-15T15:13:49Z</time>
</trkpt>
<trkpt lat="52.593597412109375" lon="13.151633262634277">
<ele>69.0</ele>
<time>2014-02-15T15:13:50Z</time>
</trkpt>
<trkpt lat="52.59364700317383" lon="13.151693344116211">
<ele>68.80000305175781</ele>
<time>2014-02-15T15:13:51Z</time>
</trkpt>
<trkpt lat="52.593692779541016" lon="13.151754379272461">
<ele>68.80000305175781</ele>
<time>2014-02-15T15:13:52Z</time>
</trkpt>
<trkpt lat="52.5937385559082" lon="13.151814460754395">
<ele>68.80000305175781</ele>
<time>2014-02-15T15:13:53Z</time>
</trkpt>
<trkpt lat="52.59378433227539" lon="13.151871681213379">
<ele>68.5999984741211</ele>
<time>2014-02-15T15:13:54Z</time>
</trkpt>
<trkpt lat="52.59383773803711" lon="13.15192985534668">
<ele>68.4000015258789</ele>
<time>2014-02-15T15:13:55Z</time>
</trkpt>
<trkpt lat="52.5938835144043" lon="13.15199089050293">
<ele>68.19999694824219</ele>
<time>2014-02-15T15:13:56Z</time>
</trkpt>
<trkpt lat="52.593936920166016" lon="13.152056694030762">
<ele>68.0999984741211</ele>
<time>2014-02-15T15:13:57Z</time>
</trkpt>
<trkpt lat="52.59398651123047" lon="13.152120590209961">
<ele>67.80000305175781</ele>
<time>2014-02-15T15:13:58Z</time>
</trkpt>
<trkpt lat="52.59403610229492" lon="13.152181625366211">
<ele>67.80000305175781</ele>
<time>2014-02-15T15:13:59Z</time>
</trkpt>
<trkpt lat="52.59408950805664" lon="13.152240753173828">
<ele>67.69999694824219</ele>
<time>2014-02-15T15:14:00Z</time>
</trkpt>
<trkpt lat="52.594139099121094" lon="13.152301788330078">
<ele>67.69999694824219</ele>
<time>2014-02-15T15:14:01Z</time>
</trkpt>
<trkpt lat="52.59418869018555" lon="13.15235710144043">
<ele>67.5</ele>
<time>2014-02-15T15:14:02Z</time>
</trkpt>
<trkpt lat="52.594242095947266" lon="13.152417182922363">
<ele>67.80000305175781</ele>
<time>2014-02-15T15:14:03Z</time>
</trkpt>
<trkpt lat="52.59429168701172" lon="13.152470588684082">
<ele>68.30000305175781</ele>
<time>2014-02-15T15:14:04Z</time>
</trkpt>
<trkpt lat="52.594337463378906" lon="13.152520179748535">
<ele>68.5</ele>
<time>2014-02-15T15:14:05Z</time>
</trkpt>
<trkpt lat="52.594383239746094" lon="13.152568817138672">
<ele>68.5</ele>
<time>2014-02-15T15:14:06Z</time>
</trkpt>
<trkpt lat="52.59443283081055" lon="13.152621269226074">
<ele>68.30000305175781</ele>
<time>2014-02-15T15:14:07Z</time>
</trkpt>
<trkpt lat="52.594478607177734" lon="13.152669906616211">
<ele>68.4000015258789</ele>
<time>2014-02-15T15:14:08Z</time>
</trkpt>
<trkpt lat="52.59453201293945" lon="13.152719497680664">
<ele>68.5</ele>
<time>2014-02-15T15:14:09Z</time>
</trkpt>
<trkpt lat="52.594581604003906" lon="13.152770042419434">
<ele>68.4000015258789</ele>
<time>2014-02-15T15:14:10Z</time>
</trkpt>
<trkpt lat="52.59463119506836" lon="13.152815818786621">
<ele>68.19999694824219</ele>
<time>2014-02-15T15:14:11Z</time>
</trkpt>
<trkpt lat="52.59468078613281" lon="13.152863502502441">
<ele>68.5</ele>
<time>2014-02-15T15:14:12Z</time>
</trkpt>
<trkpt lat="52.5947265625" lon="13.152913093566895">
<ele>68.5999984741211</ele>
<time>2014-02-15T15:14:13Z</time>
</trkpt>
<trkpt lat="52.59477996826172" lon="13.152961730957031">
<ele>68.9000015258789</ele>
<time>2014-02-15T15:14:14Z</time>
</trkpt>
<trkpt lat="52.594825744628906" lon="13.153008460998535">
<ele>69.30000305175781</ele>
<time>2014-02-15T15:14:15Z</time>
</trkpt>
<trkpt lat="52.59487533569336" lon="13.153051376342773">
<ele>69.19999694824219</ele>
<time>2014-02-15T15:14:16Z</time>
</trkpt>
<trkpt lat="52.59492111206055" lon="13.153103828430176">
<ele>69.30000305175781</ele>
<time>2014-02-15T15:14:17Z</time>
</trkpt>
<trkpt lat="52.594970703125" lon="13.153153419494629">
<ele>69.19999694824219</ele>
<time>2014-02-15T15:14:18Z</time>
</trkpt>
<trkpt lat="52.59502029418945" lon="13.153206825256348">
<ele>69.19999694824219</ele>
<time>2014-02-15T15:14:19Z</time>
</trkpt>
<trkpt lat="52.595069885253906" lon="13.153261184692383">
<ele>69.0999984741211</ele>
<time>2014-02-15T15:14:20Z</time>
</trkpt>
<trkpt lat="52.59511947631836" lon="13.153316497802734">
<ele>69.0</ele>
<time>2014-02-15T15:14:21Z</time>
</trkpt>
<trkpt lat="52.59516906738281" lon="13.153364181518555">
<ele>69.0</ele>
<time>2014-02-15T15:14:22Z</time>
</trkpt>
<trkpt lat="52.595218658447266" lon="13.153416633605957">
<ele>69.0</ele>
<time>2014-02-15T15:14:23Z</time>
</trkpt>
<trkpt lat="52.59526443481445" lon="13.153465270996094">
<ele>69.0999984741211</ele>
<time>2014-02-15T15:14:24Z</time>
</trkpt>
<trkpt lat="52.595314025878906" lon="13.153511047363281">
<ele>68.9000015258789</ele>
<time>2014-02-15T15:14:25Z</time>
</trkpt>
<trkpt lat="52.59536361694336" lon="13.153559684753418">
<ele>68.9000015258789</ele>
<time>2014-02-15T15:14:26Z</time>
</trkpt>
<trkpt lat="52.59541320800781" lon="13.153609275817871">
<ele>69.19999694824219</ele>
<time>2014-02-15T15:14:27Z</time>
</trkpt>
<trkpt lat="52.595455169677734" lon="13.153656005859375">
<ele>69.0</ele>
<time>2014-02-15T15:14:28Z</time>
</trkpt>
<trkpt lat="52.595497131347656" lon="13.153705596923828">
<ele>69.0</ele>
<time>2014-02-15T15:14:29Z</time>
</trkpt>
<trkpt lat="52.59553527832031" lon="13.153759002685547">
<ele>68.9000015258789</ele>
<time>2014-02-15T15:14:30Z</time>
</trkpt>
<trkpt lat="52.595577239990234" lon="13.153814315795898">
<ele>69.0</ele>
<time>2014-02-15T15:14:31Z</time>
</trkpt>
<trkpt lat="52.59560775756836" lon="13.153871536254883">
<ele>69.5999984741211</ele>
<time>2014-02-15T15:14:32Z</time>
</trkpt>
<trkpt lat="52.595638275146484" lon="13.153926849365234">
<ele>70.0999984741211</ele>
<time>2014-02-15T15:14:33Z</time>
</trkpt>
<trkpt lat="52.59568786621094" lon="13.154029846191406">
<ele>70.69999694824219</ele>
<time>2014-02-15T15:14:35Z</time>
</trkpt>
<trkpt lat="52.595741271972656" lon="13.153968811035156">
<ele>69.5</ele>
<time>2014-02-15T15:14:38Z</time>
</trkpt>
<trkpt lat="52.59574508666992" lon="13.153831481933594">
<ele>71.19999694824219</ele>
<time>2014-02-15T15:14:40Z</time>
</trkpt>
<trkpt lat="52.59575271606445" lon="13.153751373291016">
<ele>71.9000015258789</ele>
<time>2014-02-15T15:14:41Z</time>
</trkpt>
<trkpt lat="52.59575653076172" lon="13.153674125671387">
<ele>72.80000305175781</ele>
<time>2014-02-15T15:14:42Z</time>
</trkpt>
<trkpt lat="52.595767974853516" lon="13.153560638427734">
<ele>71.69999694824219</ele>
<time>2014-02-15T15:14:44Z</time>
</trkpt>
<trkpt lat="52.59576416015625" lon="13.15341567993164">
<ele>72.0</ele>
<time>2014-02-15T15:14:46Z</time>
</trkpt>
<trkpt lat="52.59577560424805" lon="13.15326976776123">
<ele>71.19999694824219</ele>
<time>2014-02-15T15:14:48Z</time>
</trkpt>
<trkpt lat="52.595794677734375" lon="13.153141021728516">
<ele>69.5999984741211</ele>
<time>2014-02-15T15:14:50Z</time>
</trkpt>
<trkpt lat="52.595760345458984" lon="13.15322208404541">
<ele>68.5999984741211</ele>
<time>2014-02-15T15:14:53Z</time>
</trkpt>
<trkpt lat="52.59576416015625" lon="13.153332710266113">
<ele>68.0</ele>
<time>2014-02-15T15:14:56Z</time>
</trkpt>
<trkpt lat="52.59573745727539" lon="13.153427124023438">
<ele>68.69999694824219</ele>
<time>2014-02-15T15:14:58Z</time>
</trkpt>
<trkpt lat="52.595699310302734" lon="13.15347957611084">
<ele>69.5999984741211</ele>
<time>2014-02-15T15:15:02Z</time>
</trkpt>
<trkpt lat="52.59574508666992" lon="13.153475761413574">
<ele>71.30000305175781</ele>
<time>2014-02-15T15:21:36Z</time>
</trkpt>
<trkpt lat="52.595767974853516" lon="13.153402328491211">
<ele>71.30000305175781</ele>
<time>2014-02-15T15:21:38Z</time>
</trkpt>
<trkpt lat="52.59576416015625" lon="13.153326034545898">
<ele>71.80000305175781</ele>
<time>2014-02-15T15:22:03Z</time>
</trkpt>
<trkpt lat="52.59577560424805" lon="13.15323257446289">
<ele>72.80000305175781</ele>
<time>2014-02-15T15:22:05Z</time>
</trkpt>
<trkpt lat="52.595787048339844" lon="13.153132438659668">
<ele>74.0</ele>
<time>2014-02-15T15:22:08Z</time>
</trkpt>
<trkpt lat="52.59579086303711" lon="13.15304946899414">
<ele>72.69999694824219</ele>
<time>2014-02-15T15:22:08Z</time>
</trkpt>
<trkpt lat="52.595802307128906" lon="13.152913093566895">
<ele>72.5</ele>
<time>2014-02-15T15:22:11Z</time>
</trkpt>
<trkpt lat="52.59581756591797" lon="13.152799606323242">
<ele>72.0999984741211</ele>
<time>2014-02-15T15:22:13Z</time>
</trkpt>
<trkpt lat="52.595829010009766" lon="13.152674674987793">
<ele>71.5</ele>
<time>2014-02-15T15:22:14Z</time>
</trkpt>
<trkpt lat="52.59584045410156" lon="13.152533531188965">
<ele>71.80000305175781</ele>
<time>2014-02-15T15:22:17Z</time>
</trkpt>
<trkpt lat="52.595855712890625" lon="13.152396202087402">
<ele>70.9000015258789</ele>
<time>2014-02-15T15:22:19Z</time>
</trkpt>
<trkpt lat="52.59586715698242" lon="13.152267456054688">
<ele>70.4000015258789</ele>
<time>2014-02-15T15:22:20Z</time>
</trkpt>
<trkpt lat="52.595882415771484" lon="13.152141571044922">
<ele>70.69999694824219</ele>
<time>2014-02-15T15:22:22Z</time>
</trkpt>
<trkpt lat="52.595890045166016" lon="13.15202808380127">
<ele>70.30000305175781</ele>
<time>2014-02-15T15:22:24Z</time>
</trkpt>
<trkpt lat="52.595890045166016" lon="13.15192985534668">
<ele>68.9000015258789</ele>
<time>2014-02-15T15:22:26Z</time>
</trkpt>
<trkpt lat="52.595909118652344" lon="13.151854515075684">
<ele>69.80000305175781</ele>
<time>2014-02-15T15:22:28Z</time>
</trkpt>
<trkpt lat="52.59590530395508" lon="13.151778221130371">
<ele>68.9000015258789</ele>
<time>2014-02-15T15:22:30Z</time>
</trkpt>
<trkpt lat="52.595909118652344" lon="13.151700973510742">
<ele>69.4000015258789</ele>
<time>2014-02-15T15:22:32Z</time>
</trkpt>
<trkpt lat="52.595916748046875" lon="13.151583671569824">
<ele>69.80000305175781</ele>
<time>2014-02-15T15:22:34Z</time>
</trkpt>
<trkpt lat="52.59593200683594" lon="13.151439666748047">
<ele>68.9000015258789</ele>
<time>2014-02-15T15:22:36Z</time>
</trkpt>
<trkpt lat="52.5959358215332" lon="13.151360511779785">
<ele>68.5</ele>
<time>2014-02-15T15:22:37Z</time>
</trkpt>
<trkpt lat="52.595947265625" lon="13.15121841430664">
<ele>67.4000015258789</ele>
<time>2014-02-15T15:22:39Z</time>
</trkpt>
<trkpt lat="52.59596252441406" lon="13.151086807250977">
<ele>67.19999694824219</ele>
<time>2014-02-15T15:22:42Z</time>
</trkpt>
<trkpt lat="52.595977783203125" lon="13.150973320007324">
<ele>66.5999984741211</ele>
<time>2014-02-15T15:22:44Z</time>
</trkpt>
<trkpt lat="52.59598922729492" lon="13.150870323181152">
<ele>66.0999984741211</ele>
<time>2014-02-15T15:22:46Z</time>
</trkpt>
<trkpt lat="52.59599304199219" lon="13.150738716125488">
<ele>64.5</ele>
<time>2014-02-15T15:22:48Z</time>
</trkpt>
<trkpt lat="52.595985412597656" lon="13.150613784790039">
<ele>63.599998474121094</ele>
<time>2014-02-15T15:22:50Z</time>
</trkpt>
<trkpt lat="52.59600067138672" lon="13.15047550201416">
<ele>63.20000076293945</ele>
<time>2014-02-15T15:22:52Z</time>
</trkpt>
<trkpt lat="52.596012115478516" lon="13.150382041931152">
<ele>62.29999923706055</ele>
<time>2014-02-15T15:22:53Z</time>
</trkpt>
<trkpt lat="52.596031188964844" lon="13.150237083435059">
<ele>61.79999923706055</ele>
<time>2014-02-15T15:22:55Z</time>
</trkpt>
<trkpt lat="52.59603500366211" lon="13.150145530700684">
<ele>61.79999923706055</ele>
<time>2014-02-15T15:22:56Z</time>
</trkpt>
<trkpt lat="52.59605026245117" lon="13.149984359741211">
<ele>62.099998474121094</ele>
<time>2014-02-15T15:22:58Z</time>
</trkpt>
<trkpt lat="52.596065521240234" lon="13.14990520477295">
<ele>61.900001525878906</ele>
<time>2014-02-15T15:22:59Z</time>
</trkpt>
<trkpt lat="52.59609603881836" lon="13.149828910827637">
<ele>63.599998474121094</ele>
<time>2014-02-15T15:23:00Z</time>
</trkpt>
<trkpt lat="52.59611129760742" lon="13.149751663208008">
<ele>64.19999694824219</ele>
<time>2014-02-15T15:23:01Z</time>
</trkpt>
<trkpt lat="52.596160888671875" lon="13.149625778198242">
<ele>63.5</ele>
<time>2014-02-15T15:23:03Z</time>
</trkpt>
<trkpt lat="52.59618377685547" lon="13.149553298950195">
<ele>64.0999984741211</ele>
<time>2014-02-15T15:23:04Z</time>
</trkpt>
<trkpt lat="52.59621047973633" lon="13.149479866027832">
<ele>64.30000305175781</ele>
<time>2014-02-15T15:23:05Z</time>
</trkpt>
<trkpt lat="52.59623336791992" lon="13.14940071105957">
<ele>64.5</ele>
<time>2014-02-15T15:23:06Z</time>
</trkpt>
<trkpt lat="52.59626388549805" lon="13.149322509765625">
<ele>64.5999984741211</ele>
<time>2014-02-15T15:23:07Z</time>
</trkpt>
<trkpt lat="52.59629440307617" lon="13.149251937866211">
<ele>65.5</ele>
<time>2014-02-15T15:23:08Z</time>
</trkpt>
<trkpt lat="52.5963249206543" lon="13.149181365966797">
<ele>65.9000015258789</ele>
<time>2014-02-15T15:23:09Z</time>
</trkpt>
<trkpt lat="52.596343994140625" lon="13.149109840393066">
<ele>65.5</ele>
<time>2014-02-15T15:23:10Z</time>
</trkpt>
<trkpt lat="52.596378326416016" lon="13.149027824401855">
<ele>66.0999984741211</ele>
<time>2014-02-15T15:23:11Z</time>
</trkpt>
<trkpt lat="52.59640121459961" lon="13.14896011352539">
<ele>66.30000305175781</ele>
<time>2014-02-15T15:23:12Z</time>
</trkpt>
<trkpt lat="52.59645080566406" lon="13.148836135864258">
<ele>65.5999984741211</ele>
<time>2014-02-15T15:23:14Z</time>
</trkpt>
<trkpt lat="52.59648132324219" lon="13.14875316619873">
<ele>66.0</ele>
<time>2014-02-15T15:23:15Z</time>
</trkpt>
<trkpt lat="52.59651184082031" lon="13.148689270019531">
<ele>66.0</ele>
<time>2014-02-15T15:23:16Z</time>
</trkpt>
<trkpt lat="52.59651184082031" lon="13.14855670928955">
<ele>66.19999694824219</ele>
<time>2014-02-15T15:23:18Z</time>
</trkpt>
<trkpt lat="52.59651565551758" lon="13.148469924926758">
<ele>66.30000305175781</ele>
<time>2014-02-15T15:23:19Z</time>
</trkpt>
<trkpt lat="52.59652328491211" lon="13.1483736038208">
<ele>65.5999984741211</ele>
<time>2014-02-15T15:23:20Z</time>
</trkpt>
<trkpt lat="52.5965461730957" lon="13.148290634155273">
<ele>64.5999984741211</ele>
<time>2014-02-15T15:23:21Z</time>
</trkpt>
<trkpt lat="52.59656524658203" lon="13.148218154907227">
<ele>64.4000015258789</ele>
<time>2014-02-15T15:23:22Z</time>
</trkpt>
<trkpt lat="52.59660339355469" lon="13.148148536682129">
<ele>64.4000015258789</ele>
<time>2014-02-15T15:23:23Z</time>
</trkpt>
<trkpt lat="52.59663009643555" lon="13.14807415008545">
<ele>64.0</ele>
<time>2014-02-15T15:23:24Z</time>
</trkpt>
<trkpt lat="52.596649169921875" lon="13.148004531860352">
<ele>63.70000076293945</ele>
<time>2014-02-15T15:23:25Z</time>
</trkpt>
<trkpt lat="52.596683502197266" lon="13.147947311401367">
<ele>64.80000305175781</ele>
<time>2014-02-15T15:23:26Z</time>
</trkpt>
<trkpt lat="52.596702575683594" lon="13.147875785827637">
<ele>63.79999923706055</ele>
<time>2014-02-15T15:23:27Z</time>
</trkpt>
<trkpt lat="52.59672546386719" lon="13.147798538208008">
<ele>63.79999923706055</ele>
<time>2014-02-15T15:23:28Z</time>
</trkpt>
<trkpt lat="52.59675216674805" lon="13.147727012634277">
<ele>63.79999923706055</ele>
<time>2014-02-15T15:23:29Z</time>
</trkpt>
<trkpt lat="52.59678268432617" lon="13.147662162780762">
<ele>63.5</ele>
<time>2014-02-15T15:23:30Z</time>
</trkpt>
<trkpt lat="52.59681701660156" lon="13.147603034973145">
<ele>63.5</ele>
<time>2014-02-15T15:23:31Z</time>
</trkpt>
<trkpt lat="52.596839904785156" lon="13.147518157958984">
<ele>63.29999923706055</ele>
<time>2014-02-15T15:23:32Z</time>
</trkpt>
<trkpt lat="52.59687042236328" lon="13.147443771362305">
<ele>63.599998474121094</ele>
<time>2014-02-15T15:23:33Z</time>
</trkpt>
<trkpt lat="52.596885681152344" lon="13.14736557006836">
<ele>63.400001525878906</ele>
<time>2014-02-15T15:23:34Z</time>
</trkpt>
<trkpt lat="52.596954345703125" lon="13.147178649902344">
<ele>63.0</ele>
<time>2014-02-15T15:23:37Z</time>
</trkpt>
<trkpt lat="52.597015380859375" lon="13.14704418182373">
<ele>63.599998474121094</ele>
<time>2014-02-15T15:23:39Z</time>
</trkpt>
<trkpt lat="52.597049713134766" lon="13.14696979522705">
<ele>64.69999694824219</ele>
<time>2014-02-15T15:23:40Z</time>
</trkpt>
<trkpt lat="52.597084045410156" lon="13.146894454956055">
<ele>64.5</ele>
<time>2014-02-15T15:23:41Z</time>
</trkpt>
<trkpt lat="52.59712219238281" lon="13.146769523620605">
<ele>65.80000305175781</ele>
<time>2014-02-15T15:23:43Z</time>
</trkpt>
<trkpt lat="52.59714889526367" lon="13.14670181274414">
<ele>65.30000305175781</ele>
<time>2014-02-15T15:23:44Z</time>
</trkpt>
<trkpt lat="52.5971794128418" lon="13.146627426147461">
<ele>65.19999694824219</ele>
<time>2014-02-15T15:23:45Z</time>
</trkpt>
<trkpt lat="52.597198486328125" lon="13.14655876159668">
<ele>65.30000305175781</ele>
<time>2014-02-15T15:23:46Z</time>
</trkpt>
<trkpt lat="52.597225189208984" lon="13.146488189697266">
<ele>64.9000015258789</ele>
<time>2014-02-15T15:23:47Z</time>
</trkpt>
<trkpt lat="52.597259521484375" lon="13.146422386169434">
<ele>64.80000305175781</ele>
<time>2014-02-15T15:23:48Z</time>
</trkpt>
<trkpt lat="52.59729766845703" lon="13.146368026733398">
<ele>65.0999984741211</ele>
<time>2014-02-15T15:23:49Z</time>
</trkpt>
<trkpt lat="52.597347259521484" lon="13.14624309539795">
<ele>64.0999984741211</ele>
<time>2014-02-15T15:23:51Z</time>
</trkpt>
<trkpt lat="52.59737014770508" lon="13.146105766296387">
<ele>64.0</ele>
<time>2014-02-15T15:23:53Z</time>
</trkpt>
<trkpt lat="52.5974235534668" lon="13.146000862121582">
<ele>63.900001525878906</ele>
<time>2014-02-15T15:23:55Z</time>
</trkpt>
<trkpt lat="52.59744644165039" lon="13.145925521850586">
<ele>63.599998474121094</ele>
<time>2014-02-15T15:23:56Z</time>
</trkpt>
<trkpt lat="52.59749221801758" lon="13.145849227905273">
<ele>63.29999923706055</ele>
<time>2014-02-15T15:23:58Z</time>
</trkpt>
<trkpt lat="52.5975456237793" lon="13.145793914794922">
<ele>62.900001525878906</ele>
<time>2014-02-15T15:23:59Z</time>
</trkpt>
<trkpt lat="52.59760665893555" lon="13.145746231079102">
<ele>62.70000076293945</ele>
<time>2014-02-15T15:24:00Z</time>
</trkpt>
<trkpt lat="52.59765625" lon="13.145695686340332">
<ele>63.400001525878906</ele>
<time>2014-02-15T15:24:01Z</time>
</trkpt>
<trkpt lat="52.597740173339844" lon="13.145618438720703">
<ele>63.0</ele>
<time>2014-02-15T15:24:03Z</time>
</trkpt>
<trkpt lat="52.5977897644043" lon="13.145574569702148">
<ele>63.20000076293945</ele>
<time>2014-02-15T15:24:04Z</time>
</trkpt>
<trkpt lat="52.59783172607422" lon="13.145535469055176">
<ele>63.70000076293945</ele>
<time>2014-02-15T15:24:05Z</time>
</trkpt>
<trkpt lat="52.597877502441406" lon="13.145485877990723">
<ele>64.0</ele>
<time>2014-02-15T15:24:06Z</time>
</trkpt>
<trkpt lat="52.597930908203125" lon="13.145454406738281">
<ele>64.30000305175781</ele>
<time>2014-02-15T15:24:07Z</time>
</trkpt>
<trkpt lat="52.59796905517578" lon="13.145410537719727">
<ele>64.30000305175781</ele>
<time>2014-02-15T15:24:08Z</time>
</trkpt>
<trkpt lat="52.598045349121094" lon="13.145343780517578">
<ele>63.70000076293945</ele>
<time>2014-02-15T15:24:10Z</time>
</trkpt>
<trkpt lat="52.59810256958008" lon="13.145326614379883">
<ele>63.70000076293945</ele>
<time>2014-02-15T15:24:11Z</time>
</trkpt>
<trkpt lat="52.59815216064453" lon="13.145337104797363">
<ele>63.29999923706055</ele>
<time>2014-02-15T15:24:12Z</time>
</trkpt>
<trkpt lat="52.59819412231445" lon="13.145291328430176">
<ele>63.099998474121094</ele>
<time>2014-02-15T15:24:13Z</time>
</trkpt>
<trkpt lat="52.598236083984375" lon="13.145223617553711">
<ele>62.79999923706055</ele>
<time>2014-02-15T15:24:14Z</time>
</trkpt>
<trkpt lat="52.59828186035156" lon="13.145156860351562">
<ele>62.79999923706055</ele>
<time>2014-02-15T15:24:15Z</time>
</trkpt>
<trkpt lat="52.598365783691406" lon="13.145092010498047">
<ele>63.5</ele>
<time>2014-02-15T15:24:17Z</time>
</trkpt>
<trkpt lat="52.598411560058594" lon="13.145049095153809">
<ele>63.70000076293945</ele>
<time>2014-02-15T15:24:18Z</time>
</trkpt>
<trkpt lat="52.598487854003906" lon="13.144952774047852">
<ele>63.599998474121094</ele>
<time>2014-02-15T15:24:20Z</time>
</trkpt>
<trkpt lat="52.598533630371094" lon="13.144890785217285">
<ele>63.20000076293945</ele>
<time>2014-02-15T15:24:21Z</time>
</trkpt>
<trkpt lat="52.59861373901367" lon="13.144824981689453">
<ele>63.70000076293945</ele>
<time>2014-02-15T15:24:23Z</time>
</trkpt>
<trkpt lat="52.598663330078125" lon="13.144770622253418">
<ele>64.19999694824219</ele>
<time>2014-02-15T15:24:24Z</time>
</trkpt>
<trkpt lat="52.598716735839844" lon="13.144713401794434">
<ele>65.0999984741211</ele>
<time>2014-02-15T15:24:25Z</time>
</trkpt>
<trkpt lat="52.5987663269043" lon="13.144661903381348">
<ele>64.9000015258789</ele>
<time>2014-02-15T15:24:26Z</time>
</trkpt>
<trkpt lat="52.59880065917969" lon="13.144607543945312">
<ele>64.5999984741211</ele>
<time>2014-02-15T15:24:27Z</time>
</trkpt>
<trkpt lat="52.59881591796875" lon="13.144535064697266">
<ele>63.5</ele>
<time>2014-02-15T15:24:28Z</time>
</trkpt>
<trkpt lat="52.598854064941406" lon="13.144469261169434">
<ele>63.29999923706055</ele>
<time>2014-02-15T15:24:29Z</time>
</trkpt>
<trkpt lat="52.59888458251953" lon="13.14440631866455">
<ele>63.79999923706055</ele>
<time>2014-02-15T15:24:30Z</time>
</trkpt>
<trkpt lat="52.59889602661133" lon="13.144330024719238">
<ele>63.900001525878906</ele>
<time>2014-02-15T15:24:31Z</time>
</trkpt>
<trkpt lat="52.59891891479492" lon="13.144258499145508">
<ele>64.0</ele>
<time>2014-02-15T15:24:32Z</time>
</trkpt>
<trkpt lat="52.598941802978516" lon="13.144189834594727">
<ele>63.900001525878906</ele>
<time>2014-02-15T15:24:33Z</time>
</trkpt>
<trkpt lat="52.598968505859375" lon="13.14411449432373">
<ele>63.400001525878906</ele>
<time>2014-02-15T15:24:34Z</time>
</trkpt>
<trkpt lat="52.5989990234375" lon="13.14404296875">
<ele>63.20000076293945</ele>
<time>2014-02-15T15:24:35Z</time>
</trkpt>
<trkpt lat="52.599037170410156" lon="13.143928527832031">
<ele>62.70000076293945</ele>
<time>2014-02-15T15:24:37Z</time>
</trkpt>
<trkpt lat="52.59906768798828" lon="13.14383316040039">
<ele>63.099998474121094</ele>
<time>2014-02-15T15:24:38Z</time>
</trkpt>
<trkpt lat="52.59910202026367" lon="13.143770217895508">
<ele>66.0</ele>
<time>2014-02-15T15:24:39Z</time>
</trkpt>
<trkpt lat="52.59914779663086" lon="13.143636703491211">
<ele>66.69999694824219</ele>
<time>2014-02-15T15:24:41Z</time>
</trkpt>
<trkpt lat="52.59917068481445" lon="13.143563270568848">
<ele>66.69999694824219</ele>
<time>2014-02-15T15:24:42Z</time>
</trkpt>
<trkpt lat="52.59919357299805" lon="13.143485069274902">
<ele>66.80000305175781</ele>
<time>2014-02-15T15:24:43Z</time>
</trkpt>
<trkpt lat="52.599220275878906" lon="13.143418312072754">
<ele>67.30000305175781</ele>
<time>2014-02-15T15:24:44Z</time>
</trkpt>
<trkpt lat="52.59925842285156" lon="13.143289566040039">
<ele>66.19999694824219</ele>
<time>2014-02-15T15:24:46Z</time>
</trkpt>
<trkpt lat="52.59929275512695" lon="13.143147468566895">
<ele>66.30000305175781</ele>
<time>2014-02-15T15:24:48Z</time>
</trkpt>
<trkpt lat="52.59931945800781" lon="13.143074989318848">
<ele>66.19999694824219</ele>
<time>2014-02-15T15:24:49Z</time>
</trkpt>
<trkpt lat="52.59933090209961" lon="13.143003463745117">
<ele>65.69999694824219</ele>
<time>2014-02-15T15:24:50Z</time>
</trkpt>
<trkpt lat="52.59934997558594" lon="13.142908096313477">
<ele>63.70000076293945</ele>
<time>2014-02-15T15:24:51Z</time>
</trkpt>
<trkpt lat="52.599365234375" lon="13.142831802368164">
<ele>63.20000076293945</ele>
<time>2014-02-15T15:24:52Z</time>
</trkpt>
<trkpt lat="52.59938430786133" lon="13.142746925354004">
<ele>62.70000076293945</ele>
<time>2014-02-15T15:24:53Z</time>
</trkpt>
<trkpt lat="52.599403381347656" lon="13.142658233642578">
<ele>62.599998474121094</ele>
<time>2014-02-15T15:24:54Z</time>
</trkpt>
<trkpt lat="52.599430084228516" lon="13.142573356628418">
<ele>62.900001525878906</ele>
<time>2014-02-15T15:24:55Z</time>
</trkpt>
<trkpt lat="52.59944152832031" lon="13.142484664916992">
<ele>63.099998474121094</ele>
<time>2014-02-15T15:24:56Z</time>
</trkpt>
<trkpt lat="52.59946060180664" lon="13.142335891723633">
<ele>62.599998474121094</ele>
<time>2014-02-15T15:24:58Z</time>
</trkpt>
<trkpt lat="52.59947204589844" lon="13.142243385314941">
<ele>62.599998474121094</ele>
<time>2014-02-15T15:24:59Z</time>
</trkpt>
<trkpt lat="52.5994873046875" lon="13.142155647277832">
<ele>62.70000076293945</ele>
<time>2014-02-15T15:25:00Z</time>
</trkpt>
<trkpt lat="52.599510192871094" lon="13.142078399658203">
<ele>62.900001525878906</ele>
<time>2014-02-15T15:25:01Z</time>
</trkpt>
<trkpt lat="52.59953308105469" lon="13.14198112487793">
<ele>63.099998474121094</ele>
<time>2014-02-15T15:25:01Z</time>
</trkpt>
<trkpt lat="52.59954833984375" lon="13.1419095993042">
<ele>63.099998474121094</ele>
<time>2014-02-15T15:25:03Z</time>
</trkpt>
<trkpt lat="52.599578857421875" lon="13.14174747467041">
<ele>63.70000076293945</ele>
<time>2014-02-15T15:25:05Z</time>
</trkpt>
<trkpt lat="52.59959411621094" lon="13.141669273376465">
<ele>64.30000305175781</ele>
<time>2014-02-15T15:25:06Z</time>
</trkpt>
<trkpt lat="52.599613189697266" lon="13.141593933105469">
<ele>64.0999984741211</ele>
<time>2014-02-15T15:25:06Z</time>
</trkpt>
<trkpt lat="52.59962844848633" lon="13.141504287719727">
<ele>63.70000076293945</ele>
<time>2014-02-15T15:25:08Z</time>
</trkpt>
<trkpt lat="52.59965515136719" lon="13.141430854797363">
<ele>63.5</ele>
<time>2014-02-15T15:25:09Z</time>
</trkpt>
<trkpt lat="52.59967041015625" lon="13.141345977783203">
<ele>63.79999923706055</ele>
<time>2014-02-15T15:25:10Z</time>
</trkpt>
<trkpt lat="52.599693298339844" lon="13.14125919342041">
<ele>63.79999923706055</ele>
<time>2014-02-15T15:25:11Z</time>
</trkpt>
<trkpt lat="52.599708557128906" lon="13.141186714172363">
<ele>63.599998474121094</ele>
<time>2014-02-15T15:25:12Z</time>
</trkpt>
<trkpt lat="52.5997200012207" lon="13.14111328125">
<ele>62.79999923706055</ele>
<time>2014-02-15T15:25:13Z</time>
</trkpt>
<trkpt lat="52.59973907470703" lon="13.141034126281738">
<ele>62.900001525878906</ele>
<time>2014-02-15T15:25:14Z</time>
</trkpt>
<trkpt lat="52.59977340698242" lon="13.140965461730957">
<ele>64.0</ele>
<time>2014-02-15T15:25:15Z</time>
</trkpt>
<trkpt lat="52.599796295166016" lon="13.140890121459961">
<ele>63.900001525878906</ele>
<time>2014-02-15T15:25:16Z</time>
</trkpt>
<trkpt lat="52.59980773925781" lon="13.140813827514648">
<ele>63.599998474121094</ele>
<time>2014-02-15T15:25:17Z</time>
</trkpt>
<trkpt lat="52.599822998046875" lon="13.14072322845459">
<ele>63.79999923706055</ele>
<time>2014-02-15T15:25:18Z</time>
</trkpt>
<trkpt lat="52.5998420715332" lon="13.140647888183594">
<ele>63.599998474121094</ele>
<time>2014-02-15T15:25:19Z</time>
</trkpt>
<trkpt lat="52.59986114501953" lon="13.14057731628418">
<ele>63.900001525878906</ele>
<time>2014-02-15T15:25:20Z</time>
</trkpt>
<trkpt lat="52.59987258911133" lon="13.140496253967285">
<ele>64.0999984741211</ele>
<time>2014-02-15T15:25:21Z</time>
</trkpt>
<trkpt lat="52.59989929199219" lon="13.140425682067871">
<ele>64.80000305175781</ele>
<time>2014-02-15T15:25:22Z</time>
</trkpt>
<trkpt lat="52.59991455078125" lon="13.140347480773926">
<ele>65.9000015258789</ele>
<time>2014-02-15T15:25:23Z</time>
</trkpt>
<trkpt lat="52.59994888305664" lon="13.140210151672363">
<ele>66.19999694824219</ele>
<time>2014-02-15T15:25:25Z</time>
</trkpt>
<trkpt lat="52.599971771240234" lon="13.140130996704102">
<ele>66.5</ele>
<time>2014-02-15T15:25:26Z</time>
</trkpt>
<trkpt lat="52.599998474121094" lon="13.140046119689941">
<ele>66.4000015258789</ele>
<time>2014-02-15T15:25:27Z</time>
</trkpt>
<trkpt lat="52.599998474121094" lon="13.139966011047363">
<ele>66.9000015258789</ele>
<time>2014-02-15T15:25:28Z</time>
</trkpt>
<trkpt lat="52.59999084472656" lon="13.139892578125">
<ele>66.0</ele>
<time>2014-02-15T15:25:29Z</time>
</trkpt>
<trkpt lat="52.600013732910156" lon="13.139805793762207">
<ele>66.80000305175781</ele>
<time>2014-02-15T15:25:30Z</time>
</trkpt>
<trkpt lat="52.60002136230469" lon="13.139726638793945">
<ele>67.69999694824219</ele>
<time>2014-02-15T15:25:31Z</time>
</trkpt>
<trkpt lat="52.600013732910156" lon="13.139573097229004">
<ele>67.5</ele>
<time>2014-02-15T15:25:33Z</time>
</trkpt>
<trkpt lat="52.60000991821289" lon="13.139470100402832">
<ele>67.30000305175781</ele>
<time>2014-02-15T15:25:34Z</time>
</trkpt>
<trkpt lat="52.60002517700195" lon="13.139330863952637">
<ele>66.9000015258789</ele>
<time>2014-02-15T15:25:36Z</time>
</trkpt>
<trkpt lat="52.600032806396484" lon="13.139251708984375">
<ele>66.5999984741211</ele>
<time>2014-02-15T15:25:37Z</time>
</trkpt>
<trkpt lat="52.60004425048828" lon="13.139161109924316">
<ele>65.9000015258789</ele>
<time>2014-02-15T15:25:38Z</time>
</trkpt>
<trkpt lat="52.600067138671875" lon="13.13906478881836">
<ele>66.0</ele>
<time>2014-02-15T15:25:39Z</time>
</trkpt>
<trkpt lat="52.60008239746094" lon="13.138978004455566">
<ele>65.69999694824219</ele>
<time>2014-02-15T15:25:40Z</time>
</trkpt>
<trkpt lat="52.600101470947266" lon="13.13887882232666">
<ele>65.5</ele>
<time>2014-02-15T15:25:41Z</time>
</trkpt>
<trkpt lat="52.600120544433594" lon="13.13880443572998">
<ele>65.4000015258789</ele>
<time>2014-02-15T15:25:42Z</time>
</trkpt>
<trkpt lat="52.60013961791992" lon="13.138731002807617">
<ele>65.69999694824219</ele>
<time>2014-02-15T15:25:43Z</time>
</trkpt>
<trkpt lat="52.600162506103516" lon="13.138654708862305">
<ele>65.5999984741211</ele>
<time>2014-02-15T15:25:44Z</time>
</trkpt>
<trkpt lat="52.60017395019531" lon="13.138567924499512">
<ele>64.69999694824219</ele>
<time>2014-02-15T15:25:45Z</time>
</trkpt>
<trkpt lat="52.60016632080078" lon="13.138426780700684">
<ele>65.19999694824219</ele>
<time>2014-02-15T15:25:47Z</time>
</trkpt>
<trkpt lat="52.60012435913086" lon="13.138306617736816">
<ele>66.0</ele>
<time>2014-02-15T15:25:49Z</time>
</trkpt>
<trkpt lat="52.60009765625" lon="13.138228416442871">
<ele>65.80000305175781</ele>
<time>2014-02-15T15:25:50Z</time>
</trkpt>
<trkpt lat="52.6000862121582" lon="13.138134956359863">
<ele>65.5999984741211</ele>
<time>2014-02-15T15:25:51Z</time>
</trkpt>
<trkpt lat="52.60008239746094" lon="13.138050079345703">
<ele>65.19999694824219</ele>
<time>2014-02-15T15:25:52Z</time>
</trkpt>
<trkpt lat="52.60008239746094" lon="13.137969970703125">
<ele>65.80000305175781</ele>
<time>2014-02-15T15:25:53Z</time>
</trkpt>
<trkpt lat="52.60014343261719" lon="13.137823104858398">
<ele>66.69999694824219</ele>
<time>2014-02-15T15:25:55Z</time>
</trkpt>
<trkpt lat="52.60016632080078" lon="13.137749671936035">
<ele>66.69999694824219</ele>
<time>2014-02-15T15:25:56Z</time>
</trkpt>
<trkpt lat="52.60020065307617" lon="13.137612342834473">
<ele>66.0</ele>
<time>2014-02-15T15:25:58Z</time>
</trkpt>
<trkpt lat="52.60023880004883" lon="13.137484550476074">
<ele>66.0</ele>
<time>2014-02-15T15:26:00Z</time>
</trkpt>
<trkpt lat="52.60027313232422" lon="13.13741683959961">
<ele>66.0</ele>
<time>2014-02-15T15:26:01Z</time>
</trkpt>
<trkpt lat="52.60031509399414" lon="13.137282371520996">
<ele>65.80000305175781</ele>
<time>2014-02-15T15:26:03Z</time>
</trkpt>
<trkpt lat="52.6003303527832" lon="13.137200355529785">
<ele>65.5</ele>
<time>2014-02-15T15:26:04Z</time>
</trkpt>
<trkpt lat="52.60033416748047" lon="13.137125015258789">
<ele>66.19999694824219</ele>
<time>2014-02-15T15:26:05Z</time>
</trkpt>
<trkpt lat="52.6003303527832" lon="13.137041091918945">
<ele>66.19999694824219</ele>
<time>2014-02-15T15:26:06Z</time>
</trkpt>
<trkpt lat="52.60032653808594" lon="13.136966705322266">
<ele>66.19999694824219</ele>
<time>2014-02-15T15:26:07Z</time>
</trkpt>
<trkpt lat="52.60032653808594" lon="13.136886596679688">
<ele>66.4000015258789</ele>
<time>2014-02-15T15:26:08Z</time>
</trkpt>
<trkpt lat="52.60032272338867" lon="13.136800765991211">
<ele>66.0999984741211</ele>
<time>2014-02-15T15:26:09Z</time>
</trkpt>
<trkpt lat="52.600318908691406" lon="13.136724472045898">
<ele>66.0999984741211</ele>
<time>2014-02-15T15:26:09Z</time>
</trkpt>
<trkpt lat="52.60030746459961" lon="13.136650085449219">
<ele>65.9000015258789</ele>
<time>2014-02-15T15:26:11Z</time>
</trkpt>
<trkpt lat="52.60031509399414" lon="13.136512756347656">
<ele>67.80000305175781</ele>
<time>2014-02-15T15:26:13Z</time>
</trkpt>
<trkpt lat="52.600311279296875" lon="13.136425971984863">
<ele>69.19999694824219</ele>
<time>2014-02-15T15:26:14Z</time>
</trkpt>
<trkpt lat="52.60030746459961" lon="13.13634967803955">
<ele>69.9000015258789</ele>
<time>2014-02-15T15:26:15Z</time>
</trkpt>
<trkpt lat="52.60030746459961" lon="13.136272430419922">
<ele>71.80000305175781</ele>
<time>2014-02-15T15:26:16Z</time>
</trkpt>
<trkpt lat="52.60029983520508" lon="13.136129379272461">
<ele>72.19999694824219</ele>
<time>2014-02-15T15:26:18Z</time>
</trkpt>
<trkpt lat="52.60029220581055" lon="13.1360502243042">
<ele>72.5999984741211</ele>
<time>2014-02-15T15:26:19Z</time>
</trkpt>
<trkpt lat="52.60028076171875" lon="13.13592529296875">
<ele>73.5</ele>
<time>2014-02-15T15:26:21Z</time>
</trkpt>
<trkpt lat="52.60027313232422" lon="13.135849952697754">
<ele>73.69999694824219</ele>
<time>2014-02-15T15:26:22Z</time>
</trkpt>
<trkpt lat="52.60026550292969" lon="13.135701179504395">
<ele>74.80000305175781</ele>
<time>2014-02-15T15:26:24Z</time>
</trkpt>
<trkpt lat="52.600257873535156" lon="13.135550498962402">
<ele>74.80000305175781</ele>
<time>2014-02-15T15:26:26Z</time>
</trkpt>
<trkpt lat="52.60025405883789" lon="13.13547420501709">
<ele>74.69999694824219</ele>
<time>2014-02-15T15:26:27Z</time>
</trkpt>
<trkpt lat="52.600242614746094" lon="13.135329246520996">
<ele>73.80000305175781</ele>
<time>2014-02-15T15:26:29Z</time>
</trkpt>
<trkpt lat="52.6002311706543" lon="13.13520336151123">
<ele>73.4000015258789</ele>
<time>2014-02-15T15:26:31Z</time>
</trkpt>
<trkpt lat="52.600215911865234" lon="13.135063171386719">
<ele>73.0</ele>
<time>2014-02-15T15:26:33Z</time>
</trkpt>
<trkpt lat="52.600215911865234" lon="13.13493824005127">
<ele>73.0999984741211</ele>
<time>2014-02-15T15:26:35Z</time>
</trkpt>
<trkpt lat="52.6002197265625" lon="13.134861946105957">
<ele>73.19999694824219</ele>
<time>2014-02-15T15:26:36Z</time>
</trkpt>
<trkpt lat="52.60021209716797" lon="13.134730339050293">
<ele>73.0999984741211</ele>
<time>2014-02-15T15:26:38Z</time>
</trkpt>
<trkpt lat="52.60020065307617" lon="13.134658813476562">
<ele>72.80000305175781</ele>
<time>2014-02-15T15:26:39Z</time>
</trkpt>
<trkpt lat="52.600196838378906" lon="13.134523391723633">
<ele>73.0999984741211</ele>
<time>2014-02-15T15:26:41Z</time>
</trkpt>
<trkpt lat="52.60019302368164" lon="13.134449005126953">
<ele>73.5</ele>
<time>2014-02-15T15:26:42Z</time>
</trkpt>
<trkpt lat="52.600215911865234" lon="13.134366035461426">
<ele>74.4000015258789</ele>
<time>2014-02-15T15:26:45Z</time>
</trkpt>
<trkpt lat="52.60028839111328" lon="13.134357452392578">
<ele>72.69999694824219</ele>
<time>2014-02-15T15:26:48Z</time>
</trkpt>
<trkpt lat="52.60034942626953" lon="13.134374618530273">
<ele>73.19999694824219</ele>
<time>2014-02-15T15:26:50Z</time>
</trkpt>
<trkpt lat="52.60039520263672" lon="13.134324073791504">
<ele>75.9000015258789</ele>
<time>2014-02-15T15:26:52Z</time>
</trkpt>
<trkpt lat="52.60040283203125" lon="13.134238243103027">
<ele>76.5999984741211</ele>
<time>2014-02-15T15:26:53Z</time>
</trkpt>
<trkpt lat="52.60041427612305" lon="13.134114265441895">
<ele>76.5999984741211</ele>
<time>2014-02-15T15:26:55Z</time>
</trkpt>
<trkpt lat="52.600440979003906" lon="13.134034156799316">
<ele>76.4000015258789</ele>
<time>2014-02-15T15:26:56Z</time>
</trkpt>
<trkpt lat="52.600486755371094" lon="13.133947372436523">
<ele>75.5999984741211</ele>
<time>2014-02-15T15:26:58Z</time>
</trkpt>
<trkpt lat="52.60051345825195" lon="13.133880615234375">
<ele>74.80000305175781</ele>
<time>2014-02-15T15:26:59Z</time>
</trkpt>
<trkpt lat="52.600563049316406" lon="13.133739471435547">
<ele>74.5999984741211</ele>
<time>2014-02-15T15:27:01Z</time>
</trkpt>
<trkpt lat="52.600582122802734" lon="13.133646965026855">
<ele>74.19999694824219</ele>
<time>2014-02-15T15:27:02Z</time>
</trkpt>
<trkpt lat="52.600616455078125" lon="13.133573532104492">
<ele>74.0</ele>
<time>2014-02-15T15:27:03Z</time>
</trkpt>
<trkpt lat="52.60068130493164" lon="13.13344669342041">
<ele>71.69999694824219</ele>
<time>2014-02-15T15:27:05Z</time>
</trkpt>
<trkpt lat="52.6007194519043" lon="13.133400917053223">
<ele>72.19999694824219</ele>
<time>2014-02-15T15:27:06Z</time>
</trkpt>
<trkpt lat="52.60074996948242" lon="13.133344650268555">
<ele>71.69999694824219</ele>
<time>2014-02-15T15:27:07Z</time>
</trkpt>
<trkpt lat="52.60081481933594" lon="13.133207321166992">
<ele>70.9000015258789</ele>
<time>2014-02-15T15:27:09Z</time>
</trkpt>
<trkpt lat="52.600852966308594" lon="13.13314151763916">
<ele>70.69999694824219</ele>
<time>2014-02-15T15:27:10Z</time>
</trkpt>
<trkpt lat="52.600887298583984" lon="13.133090019226074">
<ele>70.30000305175781</ele>
<time>2014-02-15T15:27:11Z</time>
</trkpt>
<trkpt lat="52.60091781616211" lon="13.13302993774414">
<ele>70.0</ele>
<time>2014-02-15T15:27:12Z</time>
</trkpt>
<trkpt lat="52.600955963134766" lon="13.13297176361084">
<ele>70.5</ele>
<time>2014-02-15T15:27:13Z</time>
</trkpt>
<trkpt lat="52.600990295410156" lon="13.132925987243652">
<ele>71.19999694824219</ele>
<time>2014-02-15T15:27:14Z</time>
</trkpt>
<trkpt lat="52.60102844238281" lon="13.132877349853516">
<ele>71.5999984741211</ele>
<time>2014-02-15T15:27:15Z</time>
</trkpt>
<trkpt lat="52.60107421875" lon="13.132810592651367">
<ele>71.4000015258789</ele>
<time>2014-02-15T15:27:16Z</time>
</trkpt>
<trkpt lat="52.60112762451172" lon="13.132766723632812">
<ele>71.69999694824219</ele>
<time>2014-02-15T15:27:17Z</time>
</trkpt>
<trkpt lat="52.60116958618164" lon="13.132723808288574">
<ele>71.9000015258789</ele>
<time>2014-02-15T15:27:18Z</time>
</trkpt>
<trkpt lat="52.60125732421875" lon="13.132665634155273">
<ele>70.9000015258789</ele>
<time>2014-02-15T15:27:20Z</time>
</trkpt>
<trkpt lat="52.6013069152832" lon="13.132634162902832">
<ele>70.5999984741211</ele>
<time>2014-02-15T15:27:21Z</time>
</trkpt>
<trkpt lat="52.60136413574219" lon="13.132613182067871">
<ele>71.0</ele>
<time>2014-02-15T15:27:22Z</time>
</trkpt>
<trkpt lat="52.60141372680664" lon="13.132589340209961">
<ele>71.0</ele>
<time>2014-02-15T15:27:23Z</time>
</trkpt>
<trkpt lat="52.60149383544922" lon="13.132514953613281">
<ele>72.19999694824219</ele>
<time>2014-02-15T15:27:25Z</time>
</trkpt>
<trkpt lat="52.60153579711914" lon="13.132411003112793">
<ele>73.30000305175781</ele>
<time>2014-02-15T15:27:27Z</time>
</trkpt>
<trkpt lat="52.6015739440918" lon="13.132365226745605">
<ele>73.4000015258789</ele>
<time>2014-02-15T15:27:28Z</time>
</trkpt>
<trkpt lat="52.60161590576172" lon="13.13233470916748">
<ele>72.80000305175781</ele>
<time>2014-02-15T15:27:29Z</time>
</trkpt>
<trkpt lat="52.60167694091797" lon="13.132325172424316">
<ele>72.80000305175781</ele>
<time>2014-02-15T15:27:30Z</time>
</trkpt>
<trkpt lat="52.60173416137695" lon="13.132306098937988">
<ele>73.30000305175781</ele>
<time>2014-02-15T15:27:31Z</time>
</trkpt>
<trkpt lat="52.60178756713867" lon="13.132278442382812">
<ele>73.30000305175781</ele>
<time>2014-02-15T15:27:32Z</time>
</trkpt>
<trkpt lat="52.601837158203125" lon="13.132246017456055">
<ele>73.19999694824219</ele>
<time>2014-02-15T15:27:33Z</time>
</trkpt>
<trkpt lat="52.60188674926758" lon="13.132223129272461">
<ele>73.69999694824219</ele>
<time>2014-02-15T15:27:33Z</time>
</trkpt>
<trkpt lat="52.601932525634766" lon="13.13221263885498">
<ele>73.9000015258789</ele>
<time>2014-02-15T15:27:35Z</time>
</trkpt>
<trkpt lat="52.601993560791016" lon="13.13218879699707">
<ele>74.5</ele>
<time>2014-02-15T15:27:36Z</time>
</trkpt>
<trkpt lat="52.60205841064453" lon="13.13216781616211">
<ele>74.0999984741211</ele>
<time>2014-02-15T15:27:37Z</time>
</trkpt>
<trkpt lat="52.602108001708984" lon="13.132140159606934">
<ele>73.69999694824219</ele>
<time>2014-02-15T15:27:38Z</time>
</trkpt>
<trkpt lat="52.60215377807617" lon="13.132111549377441">
<ele>73.5</ele>
<time>2014-02-15T15:27:39Z</time>
</trkpt>
<trkpt lat="52.60219955444336" lon="13.132089614868164">
<ele>73.69999694824219</ele>
<time>2014-02-15T15:27:40Z</time>
</trkpt>
<trkpt lat="52.60224151611328" lon="13.132062911987305">
<ele>73.80000305175781</ele>
<time>2014-02-15T15:27:41Z</time>
</trkpt>
<trkpt lat="52.602291107177734" lon="13.132031440734863">
<ele>74.0999984741211</ele>
<time>2014-02-15T15:27:42Z</time>
</trkpt>
<trkpt lat="52.60234069824219" lon="13.131999015808105">
<ele>74.30000305175781</ele>
<time>2014-02-15T15:27:43Z</time>
</trkpt>
<trkpt lat="52.60239028930664" lon="13.131972312927246">
<ele>74.0999984741211</ele>
<time>2014-02-15T15:27:44Z</time>
</trkpt>
<trkpt lat="52.60244369506836" lon="13.131938934326172">
<ele>74.0</ele>
<time>2014-02-15T15:27:45Z</time>
</trkpt>
<trkpt lat="52.60249710083008" lon="13.131918907165527">
<ele>73.69999694824219</ele>
<time>2014-02-15T15:27:46Z</time>
</trkpt>
<trkpt lat="52.602542877197266" lon="13.131901741027832">
<ele>73.9000015258789</ele>
<time>2014-02-15T15:27:47Z</time>
</trkpt>
<trkpt lat="52.602596282958984" lon="13.131889343261719">
<ele>73.80000305175781</ele>
<time>2014-02-15T15:27:48Z</time>
</trkpt>
<trkpt lat="52.60265350341797" lon="13.131874084472656">
<ele>73.5</ele>
<time>2014-02-15T15:27:49Z</time>
</trkpt>
<trkpt lat="52.60270309448242" lon="13.131855010986328">
<ele>72.9000015258789</ele>
<time>2014-02-15T15:27:50Z</time>
</trkpt>
<trkpt lat="52.602760314941406" lon="13.131839752197266">
<ele>72.9000015258789</ele>
<time>2014-02-15T15:27:50Z</time>
</trkpt>
<trkpt lat="52.60280990600586" lon="13.131820678710938">
<ele>73.0999984741211</ele>
<time>2014-02-15T15:27:52Z</time>
</trkpt>
<trkpt lat="52.60285568237305" lon="13.131808280944824">
<ele>73.69999694824219</ele>
<time>2014-02-15T15:27:53Z</time>
</trkpt>
<trkpt lat="52.6029052734375" lon="13.131784439086914">
<ele>74.0999984741211</ele>
<time>2014-02-15T15:27:54Z</time>
</trkpt>
<trkpt lat="52.60295486450195" lon="13.131770133972168">
<ele>73.80000305175781</ele>
<time>2014-02-15T15:27:55Z</time>
</trkpt>
<trkpt lat="52.60300827026367" lon="13.131747245788574">
<ele>73.5</ele>
<time>2014-02-15T15:27:56Z</time>
</trkpt>
<trkpt lat="52.603057861328125" lon="13.131731986999512">
<ele>73.69999694824219</ele>
<time>2014-02-15T15:27:57Z</time>
</trkpt>
<trkpt lat="52.60310363769531" lon="13.131717681884766">
<ele>74.0</ele>
<time>2014-02-15T15:27:58Z</time>
</trkpt>
<trkpt lat="52.60315704345703" lon="13.131702423095703">
<ele>74.5</ele>
<time>2014-02-15T15:27:59Z</time>
</trkpt>
<trkpt lat="52.60321044921875" lon="13.131667137145996">
<ele>74.4000015258789</ele>
<time>2014-02-15T15:28:00Z</time>
</trkpt>
<trkpt lat="52.603267669677734" lon="13.13164234161377">
<ele>74.5999984741211</ele>
<time>2014-02-15T15:28:01Z</time>
</trkpt>
<trkpt lat="52.60331726074219" lon="13.131613731384277">
<ele>75.19999694824219</ele>
<time>2014-02-15T15:28:02Z</time>
</trkpt>
<trkpt lat="52.60337448120117" lon="13.131589889526367">
<ele>75.69999694824219</ele>
<time>2014-02-15T15:28:03Z</time>
</trkpt>
<trkpt lat="52.60342025756836" lon="13.13155746459961">
<ele>75.69999694824219</ele>
<time>2014-02-15T15:28:04Z</time>
</trkpt>
<trkpt lat="52.60346984863281" lon="13.131525039672852">
<ele>76.4000015258789</ele>
<time>2014-02-15T15:28:05Z</time>
</trkpt>
<trkpt lat="52.603511810302734" lon="13.131473541259766">
<ele>76.19999694824219</ele>
<time>2014-02-15T15:28:06Z</time>
</trkpt>
<trkpt lat="52.60355758666992" lon="13.131428718566895">
<ele>76.0</ele>
<time>2014-02-15T15:28:07Z</time>
</trkpt>
<trkpt lat="52.60361099243164" lon="13.131467819213867">
<ele>75.4000015258789</ele>
<time>2014-02-15T15:28:08Z</time>
</trkpt>
<trkpt lat="52.60365295410156" lon="13.13143539428711">
<ele>75.4000015258789</ele>
<time>2014-02-15T15:28:09Z</time>
</trkpt>
<trkpt lat="52.60370635986328" lon="13.131383895874023">
<ele>75.0</ele>
<time>2014-02-15T15:28:09Z</time>
</trkpt>
<trkpt lat="52.60375213623047" lon="13.131352424621582">
<ele>74.30000305175781</ele>
<time>2014-02-15T15:28:11Z</time>
</trkpt>
<trkpt lat="52.603790283203125" lon="13.131288528442383">
<ele>74.5999984741211</ele>
<time>2014-02-15T15:28:12Z</time>
</trkpt>
<trkpt lat="52.60383987426758" lon="13.131243705749512">
<ele>75.19999694824219</ele>
<time>2014-02-15T15:28:13Z</time>
</trkpt>
<trkpt lat="52.603885650634766" lon="13.131203651428223">
<ele>75.4000015258789</ele>
<time>2014-02-15T15:28:14Z</time>
</trkpt>
<trkpt lat="52.60393142700195" lon="13.131163597106934">
<ele>74.69999694824219</ele>
<time>2014-02-15T15:28:15Z</time>
</trkpt>
<trkpt lat="52.603973388671875" lon="13.131123542785645">
<ele>74.80000305175781</ele>
<time>2014-02-15T15:28:16Z</time>
</trkpt>
<trkpt lat="52.604000091552734" lon="13.131063461303711">
<ele>73.9000015258789</ele>
<time>2014-02-15T15:28:17Z</time>
</trkpt>
<trkpt lat="52.60403060913086" lon="13.130992889404297">
<ele>73.0</ele>
<time>2014-02-15T15:28:18Z</time>
</trkpt>
<trkpt lat="52.60405731201172" lon="13.13092041015625">
<ele>72.5999984741211</ele>
<time>2014-02-15T15:28:19Z</time>
</trkpt>
<trkpt lat="52.60408401489258" lon="13.130857467651367">
<ele>72.0</ele>
<time>2014-02-15T15:28:20Z</time>
</trkpt>
<trkpt lat="52.60413360595703" lon="13.130717277526855">
<ele>72.0</ele>
<time>2014-02-15T15:28:22Z</time>
</trkpt>
<trkpt lat="52.604156494140625" lon="13.130645751953125">
<ele>72.0</ele>
<time>2014-02-15T15:28:23Z</time>
</trkpt>
<trkpt lat="52.604190826416016" lon="13.130569458007812">
<ele>71.5999984741211</ele>
<time>2014-02-15T15:28:24Z</time>
</trkpt>
<trkpt lat="52.60422134399414" lon="13.130496978759766">
<ele>71.5</ele>
<time>2014-02-15T15:28:25Z</time>
</trkpt>
<trkpt lat="52.6042594909668" lon="13.130431175231934">
<ele>72.0999984741211</ele>
<time>2014-02-15T15:28:26Z</time>
</trkpt>
<trkpt lat="52.60429382324219" lon="13.130365371704102">
<ele>72.69999694824219</ele>
<time>2014-02-15T15:28:27Z</time>
</trkpt>
<trkpt lat="52.60432434082031" lon="13.130295753479004">
<ele>72.0999984741211</ele>
<time>2014-02-15T15:28:28Z</time>
</trkpt>
<trkpt lat="52.60435485839844" lon="13.130237579345703">
<ele>72.30000305175781</ele>
<time>2014-02-15T15:28:29Z</time>
</trkpt>
<trkpt lat="52.6043815612793" lon="13.130165100097656">
<ele>72.4000015258789</ele>
<time>2014-02-15T15:28:30Z</time>
</trkpt>
<trkpt lat="52.60444259643555" lon="13.13005256652832">
<ele>72.0</ele>
<time>2014-02-15T15:28:32Z</time>
</trkpt>
<trkpt lat="52.60446548461914" lon="13.129975318908691">
<ele>71.80000305175781</ele>
<time>2014-02-15T15:28:32Z</time>
</trkpt>
<trkpt lat="52.6044921875" lon="13.129916191101074">
<ele>71.5</ele>
<time>2014-02-15T15:28:34Z</time>
</trkpt>
<trkpt lat="52.604549407958984" lon="13.12978744506836">
<ele>71.69999694824219</ele>
<time>2014-02-15T15:28:36Z</time>
</trkpt>
<trkpt lat="52.60457992553711" lon="13.129663467407227">
<ele>70.80000305175781</ele>
<time>2014-02-15T15:28:38Z</time>
</trkpt>
<trkpt lat="52.6046257019043" lon="13.129533767700195">
<ele>71.30000305175781</ele>
<time>2014-02-15T15:28:40Z</time>
</trkpt>
<trkpt lat="52.604652404785156" lon="13.129451751708984">
<ele>71.4000015258789</ele>
<time>2014-02-15T15:28:40Z</time>
</trkpt>
<trkpt lat="52.60467529296875" lon="13.129380226135254">
<ele>71.19999694824219</ele>
<time>2014-02-15T15:28:42Z</time>
</trkpt>
<trkpt lat="52.60470199584961" lon="13.129318237304688">
<ele>71.0</ele>
<time>2014-02-15T15:28:43Z</time>
</trkpt>
<trkpt lat="52.60474395751953" lon="13.12920093536377">
<ele>70.0999984741211</ele>
<time>2014-02-15T15:28:45Z</time>
</trkpt>
<trkpt lat="52.60478591918945" lon="13.129073143005371">
<ele>69.4000015258789</ele>
<time>2014-02-15T15:28:47Z</time>
</trkpt>
<trkpt lat="52.60483932495117" lon="13.128925323486328">
<ele>69.0</ele>
<time>2014-02-15T15:28:49Z</time>
</trkpt>
<trkpt lat="52.6048698425293" lon="13.128866195678711">
<ele>68.69999694824219</ele>
<time>2014-02-15T15:28:50Z</time>
</trkpt>
<trkpt lat="52.60490798950195" lon="13.128779411315918">
<ele>67.80000305175781</ele>
<time>2014-02-15T15:28:51Z</time>
</trkpt>
<trkpt lat="52.60493850708008" lon="13.12870979309082">
<ele>68.0999984741211</ele>
<time>2014-02-15T15:28:52Z</time>
</trkpt>
<trkpt lat="52.604957580566406" lon="13.128594398498535">
<ele>68.5</ele>
<time>2014-02-15T15:28:54Z</time>
</trkpt>
<trkpt lat="52.60498809814453" lon="13.12852954864502">
<ele>67.69999694824219</ele>
<time>2014-02-15T15:28:55Z</time>
</trkpt>
<trkpt lat="52.60501480102539" lon="13.128445625305176">
<ele>67.9000015258789</ele>
<time>2014-02-15T15:28:56Z</time>
</trkpt>
<trkpt lat="52.60505294799805" lon="13.128363609313965">
<ele>68.30000305175781</ele>
<time>2014-02-15T15:28:57Z</time>
</trkpt>
<trkpt lat="52.60506820678711" lon="13.128268241882324">
<ele>69.19999694824219</ele>
<time>2014-02-15T15:28:58Z</time>
</trkpt>
<trkpt lat="52.605079650878906" lon="13.128173828125">
<ele>69.9000015258789</ele>
<time>2014-02-15T15:28:59Z</time>
</trkpt>
<trkpt lat="52.60507583618164" lon="13.128092765808105">
<ele>70.80000305175781</ele>
<time>2014-02-15T15:29:00Z</time>
</trkpt>
<trkpt lat="52.605064392089844" lon="13.128002166748047">
<ele>70.4000015258789</ele>
<time>2014-02-15T15:29:02Z</time>
</trkpt>
<trkpt lat="52.60512161254883" lon="13.127820014953613">
<ele>70.4000015258789</ele>
<time>2014-02-15T15:29:03Z</time>
</trkpt>
<trkpt lat="52.60517501831055" lon="13.127732276916504">
<ele>70.19999694824219</ele>
<time>2014-02-15T15:29:04Z</time>
</trkpt>
<trkpt lat="52.60520553588867" lon="13.127647399902344">
<ele>69.9000015258789</ele>
<time>2014-02-15T15:29:05Z</time>
</trkpt>
<trkpt lat="52.605228424072266" lon="13.127567291259766">
<ele>69.5999984741211</ele>
<time>2014-02-15T15:29:06Z</time>
</trkpt>
<trkpt lat="52.60525131225586" lon="13.127493858337402">
<ele>69.4000015258789</ele>
<time>2014-02-15T15:29:07Z</time>
</trkpt>
<trkpt lat="52.60527801513672" lon="13.127421379089355">
<ele>69.4000015258789</ele>
<time>2014-02-15T15:29:08Z</time>
</trkpt>
<trkpt lat="52.605323791503906" lon="13.127298355102539">
<ele>70.0</ele>
<time>2014-02-15T15:29:10Z</time>
</trkpt>
<trkpt lat="52.60539627075195" lon="13.127182006835938">
<ele>70.80000305175781</ele>
<time>2014-02-15T15:29:12Z</time>
</trkpt>
<trkpt lat="52.60542678833008" lon="13.127120018005371">
<ele>70.30000305175781</ele>
<time>2014-02-15T15:29:13Z</time>
</trkpt>
<trkpt lat="52.60545349121094" lon="13.127058982849121">
<ele>70.19999694824219</ele>
<time>2014-02-15T15:29:14Z</time>
</trkpt>
<trkpt lat="52.6054801940918" lon="13.126992225646973">
<ele>70.19999694824219</ele>
<time>2014-02-15T15:29:15Z</time>
</trkpt>
<trkpt lat="52.60551071166992" lon="13.126914978027344">
<ele>70.30000305175781</ele>
<time>2014-02-15T15:29:16Z</time>
</trkpt>
<trkpt lat="52.60554122924805" lon="13.126838684082031">
<ele>69.9000015258789</ele>
<time>2014-02-15T15:29:17Z</time>
</trkpt>
<trkpt lat="52.605560302734375" lon="13.126750946044922">
<ele>69.80000305175781</ele>
<time>2014-02-15T15:29:18Z</time>
</trkpt>
<trkpt lat="52.60558319091797" lon="13.126655578613281">
<ele>69.69999694824219</ele>
<time>2014-02-15T15:29:19Z</time>
</trkpt>
<trkpt lat="52.605613708496094" lon="13.126580238342285">
<ele>70.5999984741211</ele>
<time>2014-02-15T15:29:20Z</time>
</trkpt>
<trkpt lat="52.60564041137695" lon="13.126508712768555">
<ele>70.69999694824219</ele>
<time>2014-02-15T15:29:21Z</time>
</trkpt>
<trkpt lat="52.60567092895508" lon="13.126447677612305">
<ele>70.19999694824219</ele>
<time>2014-02-15T15:29:22Z</time>
</trkpt>
<trkpt lat="52.60570526123047" lon="13.126360893249512">
<ele>69.9000015258789</ele>
<time>2014-02-15T15:29:23Z</time>
</trkpt>
<trkpt lat="52.605751037597656" lon="13.12626838684082">
<ele>71.5999984741211</ele>
<time>2014-02-15T15:29:24Z</time>
</trkpt>
<trkpt lat="52.605777740478516" lon="13.126191139221191">
<ele>71.4000015258789</ele>
<time>2014-02-15T15:29:25Z</time>
</trkpt>
<trkpt lat="52.60581588745117" lon="13.126066207885742">
<ele>71.9000015258789</ele>
<time>2014-02-15T15:29:27Z</time>
</trkpt>
<trkpt lat="52.60586166381836" lon="13.125936508178711">
<ele>72.9000015258789</ele>
<time>2014-02-15T15:29:29Z</time>
</trkpt>
<trkpt lat="52.605899810791016" lon="13.125835418701172">
<ele>72.80000305175781</ele>
<time>2014-02-15T15:29:31Z</time>
</trkpt>
<trkpt lat="52.605926513671875" lon="13.125739097595215">
<ele>72.9000015258789</ele>
<time>2014-02-15T15:29:33Z</time>
</trkpt>
<trkpt lat="52.605979919433594" lon="13.125604629516602">
<ele>72.80000305175781</ele>
<time>2014-02-15T15:29:35Z</time>
</trkpt>
<trkpt lat="52.60600662231445" lon="13.125534057617188">
<ele>73.4000015258789</ele>
<time>2014-02-15T15:29:36Z</time>
</trkpt>
<trkpt lat="52.606040954589844" lon="13.12543773651123">
<ele>73.0</ele>
<time>2014-02-15T15:29:38Z</time>
</trkpt>
<trkpt lat="52.6060791015625" lon="13.125338554382324">
<ele>72.19999694824219</ele>
<time>2014-02-15T15:29:39Z</time>
</trkpt>
<trkpt lat="52.60612487792969" lon="13.125239372253418">
<ele>71.4000015258789</ele>
<time>2014-02-15T15:29:40Z</time>
</trkpt>
<trkpt lat="52.60614776611328" lon="13.125152587890625">
<ele>71.80000305175781</ele>
<time>2014-02-15T15:29:41Z</time>
</trkpt>
<trkpt lat="52.60618209838867" lon="13.125069618225098">
<ele>71.69999694824219</ele>
<time>2014-02-15T15:29:42Z</time>
</trkpt>
<trkpt lat="52.60622024536133" lon="13.124963760375977">
<ele>72.0</ele>
<time>2014-02-15T15:29:43Z</time>
</trkpt>
<trkpt lat="52.60624694824219" lon="13.12488079071045">
<ele>72.0</ele>
<time>2014-02-15T15:29:44Z</time>
</trkpt>
<trkpt lat="52.60627365112305" lon="13.1248140335083">
<ele>72.0</ele>
<time>2014-02-15T15:29:45Z</time>
</trkpt>
<trkpt lat="52.60630416870117" lon="13.124734878540039">
<ele>72.5999984741211</ele>
<time>2014-02-15T15:29:46Z</time>
</trkpt>
<trkpt lat="52.6063232421875" lon="13.124666213989258">
<ele>72.0</ele>
<time>2014-02-15T15:29:47Z</time>
</trkpt>
<trkpt lat="52.606346130371094" lon="13.124578475952148">
<ele>72.0999984741211</ele>
<time>2014-02-15T15:29:48Z</time>
</trkpt>
<trkpt lat="52.606388092041016" lon="13.124481201171875">
<ele>72.0999984741211</ele>
<time>2014-02-15T15:29:49Z</time>
</trkpt>
<trkpt lat="52.606414794921875" lon="13.124402046203613">
<ele>73.0</ele>
<time>2014-02-15T15:29:50Z</time>
</trkpt>
<trkpt lat="52.60643768310547" lon="13.12432861328125">
<ele>72.9000015258789</ele>
<time>2014-02-15T15:29:51Z</time>
</trkpt>
<trkpt lat="52.60645294189453" lon="13.124242782592773">
<ele>73.4000015258789</ele>
<time>2014-02-15T15:29:52Z</time>
</trkpt>
<trkpt lat="52.60647201538086" lon="13.124164581298828">
<ele>73.69999694824219</ele>
<time>2014-02-15T15:29:53Z</time>
</trkpt>
<trkpt lat="52.606502532958984" lon="13.124068260192871">
<ele>73.9000015258789</ele>
<time>2014-02-15T15:29:54Z</time>
</trkpt>
<trkpt lat="52.606544494628906" lon="13.123983383178711">
<ele>74.0999984741211</ele>
<time>2014-02-15T15:29:55Z</time>
</trkpt>
<trkpt lat="52.606571197509766" lon="13.123896598815918">
<ele>74.0999984741211</ele>
<time>2014-02-15T15:29:56Z</time>
</trkpt>
<trkpt lat="52.606590270996094" lon="13.123824119567871">
<ele>73.9000015258789</ele>
<time>2014-02-15T15:29:57Z</time>
</trkpt>
<trkpt lat="52.60660934448242" lon="13.123732566833496">
<ele>73.5999984741211</ele>
<time>2014-02-15T15:29:58Z</time>
</trkpt>
<trkpt lat="52.606632232666016" lon="13.123658180236816">
<ele>73.4000015258789</ele>
<time>2014-02-15T15:29:59Z</time>
</trkpt>
<trkpt lat="52.60667037963867" lon="13.123560905456543">
<ele>74.5999984741211</ele>
<time>2014-02-15T15:30:00Z</time>
</trkpt>
<trkpt lat="52.60670852661133" lon="13.123456954956055">
<ele>73.80000305175781</ele>
<time>2014-02-15T15:30:00Z</time>
</trkpt>
<trkpt lat="52.606727600097656" lon="13.123366355895996">
<ele>73.69999694824219</ele>
<time>2014-02-15T15:30:02Z</time>
</trkpt>
<trkpt lat="52.606754302978516" lon="13.123268127441406">
<ele>74.30000305175781</ele>
<time>2014-02-15T15:30:03Z</time>
</trkpt>
<trkpt lat="52.606781005859375" lon="13.123170852661133">
<ele>74.0</ele>
<time>2014-02-15T15:30:04Z</time>
</trkpt>
<trkpt lat="52.60679626464844" lon="13.123093605041504">
<ele>73.9000015258789</ele>
<time>2014-02-15T15:30:05Z</time>
</trkpt>
<trkpt lat="52.606815338134766" lon="13.122994422912598">
<ele>73.4000015258789</ele>
<time>2014-02-15T15:30:06Z</time>
</trkpt>
<trkpt lat="52.60684585571289" lon="13.122893333435059">
<ele>73.4000015258789</ele>
<time>2014-02-15T15:30:07Z</time>
</trkpt>
<trkpt lat="52.60685348510742" lon="13.122808456420898">
<ele>72.5999984741211</ele>
<time>2014-02-15T15:30:08Z</time>
</trkpt>
<trkpt lat="52.606876373291016" lon="13.122721672058105">
<ele>72.4000015258789</ele>
<time>2014-02-15T15:30:09Z</time>
</trkpt>
<trkpt lat="52.606895446777344" lon="13.122649192810059">
<ele>72.0999984741211</ele>
<time>2014-02-15T15:30:10Z</time>
</trkpt>
<trkpt lat="52.6069221496582" lon="13.122567176818848">
<ele>72.0</ele>
<time>2014-02-15T15:30:11Z</time>
</trkpt>
<trkpt lat="52.60694885253906" lon="13.122485160827637">
<ele>72.0999984741211</ele>
<time>2014-02-15T15:30:12Z</time>
</trkpt>
<trkpt lat="52.60697555541992" lon="13.122387886047363">
<ele>72.19999694824219</ele>
<time>2014-02-15T15:30:13Z</time>
</trkpt>
<trkpt lat="52.60700607299805" lon="13.122299194335938">
<ele>72.4000015258789</ele>
<time>2014-02-15T15:30:14Z</time>
</trkpt>
<trkpt lat="52.60703659057617" lon="13.122213363647461">
<ele>72.19999694824219</ele>
<time>2014-02-15T15:30:15Z</time>
</trkpt>
<trkpt lat="52.60706329345703" lon="13.122125625610352">
<ele>73.0999984741211</ele>
<time>2014-02-15T15:30:16Z</time>
</trkpt>
<trkpt lat="52.60710144042969" lon="13.12204647064209">
<ele>73.5</ele>
<time>2014-02-15T15:30:17Z</time>
</trkpt>
<trkpt lat="52.60712432861328" lon="13.12197208404541">
<ele>73.4000015258789</ele>
<time>2014-02-15T15:30:18Z</time>
</trkpt>
<trkpt lat="52.607147216796875" lon="13.121886253356934">
<ele>73.5</ele>
<time>2014-02-15T15:30:19Z</time>
</trkpt>
<trkpt lat="52.60719299316406" lon="13.121733665466309">
<ele>73.0999984741211</ele>
<time>2014-02-15T15:30:21Z</time>
</trkpt>
<trkpt lat="52.60720443725586" lon="13.121662139892578">
<ele>72.5999984741211</ele>
<time>2014-02-15T15:30:22Z</time>
</trkpt>
<trkpt lat="52.607242584228516" lon="13.121601104736328">
<ele>73.4000015258789</ele>
<time>2014-02-15T15:30:23Z</time>
</trkpt>
<trkpt lat="52.60725784301758" lon="13.121521949768066">
<ele>71.9000015258789</ele>
<time>2014-02-15T15:30:24Z</time>
</trkpt>
<trkpt lat="52.6072883605957" lon="13.121453285217285">
<ele>70.4000015258789</ele>
<time>2014-02-15T15:30:26Z</time>
</trkpt>
<trkpt lat="52.60730743408203" lon="13.121525764465332">
<ele>70.0999984741211</ele>
<time>2014-02-15T15:30:28Z</time>
</trkpt>
<trkpt lat="52.60734558105469" lon="13.12156867980957">
<ele>70.5999984741211</ele>
<time>2014-02-15T15:30:29Z</time>
</trkpt>
<trkpt lat="52.60740280151367" lon="13.121620178222656">
<ele>70.4000015258789</ele>
<time>2014-02-15T15:30:31Z</time>
</trkpt>
<trkpt lat="52.60744857788086" lon="13.121644020080566">
<ele>69.69999694824219</ele>
<time>2014-02-15T15:30:32Z</time>
</trkpt>
<trkpt lat="52.60749435424805" lon="13.121615409851074">
<ele>70.4000015258789</ele>
<time>2014-02-15T15:30:33Z</time>
</trkpt>
<trkpt lat="52.607547760009766" lon="13.121503829956055">
<ele>72.0999984741211</ele>
<time>2014-02-15T15:30:35Z</time>
</trkpt>
<trkpt lat="52.60759735107422" lon="13.121427536010742">
<ele>72.69999694824219</ele>
<time>2014-02-15T15:30:37Z</time>
</trkpt>
<trkpt lat="52.60765075683594" lon="13.121345520019531">
<ele>73.19999694824219</ele>
<time>2014-02-15T15:30:39Z</time>
</trkpt>
<trkpt lat="52.607723236083984" lon="13.121254920959473">
<ele>74.0</ele>
<time>2014-02-15T15:30:41Z</time>
</trkpt>
<trkpt lat="52.607791900634766" lon="13.121224403381348">
<ele>74.80000305175781</ele>
<time>2014-02-15T15:30:43Z</time>
</trkpt>
<trkpt lat="52.60785675048828" lon="13.121167182922363">
<ele>75.4000015258789</ele>
<time>2014-02-15T15:30:45Z</time>
</trkpt>
<trkpt lat="52.60792541503906" lon="13.121124267578125">
<ele>75.0999984741211</ele>
<time>2014-02-15T15:30:47Z</time>
</trkpt>
<trkpt lat="52.60799026489258" lon="13.121077537536621">
<ele>76.30000305175781</ele>
<time>2014-02-15T15:30:49Z</time>
</trkpt>
<trkpt lat="52.60806655883789" lon="13.121085166931152">
<ele>76.80000305175781</ele>
<time>2014-02-15T15:30:51Z</time>
</trkpt>
<trkpt lat="52.60813903808594" lon="13.121094703674316">
<ele>75.69999694824219</ele>
<time>2014-02-15T15:30:53Z</time>
</trkpt>
<trkpt lat="52.608219146728516" lon="13.121129035949707">
<ele>75.4000015258789</ele>
<time>2014-02-15T15:30:55Z</time>
</trkpt>
<trkpt lat="52.60829162597656" lon="13.12114429473877">
<ele>74.5</ele>
<time>2014-02-15T15:30:57Z</time>
</trkpt>
<trkpt lat="52.608367919921875" lon="13.121153831481934">
<ele>74.9000015258789</ele>
<time>2014-02-15T15:30:59Z</time>
</trkpt>
<trkpt lat="52.60844039916992" lon="13.12116813659668">
<ele>75.0</ele>
<time>2014-02-15T15:31:01Z</time>
</trkpt>
<trkpt lat="52.60851287841797" lon="13.121185302734375">
<ele>74.80000305175781</ele>
<time>2014-02-15T15:31:03Z</time>
</trkpt>
<trkpt lat="52.60859298706055" lon="13.12120246887207">
<ele>74.5</ele>
<time>2014-02-15T15:31:05Z</time>
</trkpt>
<trkpt lat="52.60866928100586" lon="13.12121868133545">
<ele>74.4000015258789</ele>
<time>2014-02-15T15:31:07Z</time>
</trkpt>
<trkpt lat="52.60874938964844" lon="13.121235847473145">
<ele>74.30000305175781</ele>
<time>2014-02-15T15:31:09Z</time>
</trkpt>
<trkpt lat="52.60882568359375" lon="13.121255874633789">
<ele>74.4000015258789</ele>
<time>2014-02-15T15:31:11Z</time>
</trkpt>
<trkpt lat="52.6088981628418" lon="13.121283531188965">
<ele>74.19999694824219</ele>
<time>2014-02-15T15:31:13Z</time>
</trkpt>
<trkpt lat="52.60897445678711" lon="13.121309280395508">
<ele>74.0</ele>
<time>2014-02-15T15:31:15Z</time>
</trkpt>
<trkpt lat="52.60902786254883" lon="13.121312141418457">
<ele>72.19999694824219</ele>
<time>2014-02-15T15:31:17Z</time>
</trkpt>
<trkpt lat="52.609073638916016" lon="13.121294021606445">
<ele>74.5</ele>
<time>2014-02-15T15:31:23Z</time>
</trkpt>
<trkpt lat="52.60914993286133" lon="13.121286392211914">
<ele>76.19999694824219</ele>
<time>2014-02-15T15:32:29Z</time>
</trkpt>
<trkpt lat="52.60920333862305" lon="13.121294975280762">
<ele>72.5</ele>
<time>2014-02-15T15:32:30Z</time>
</trkpt>
<trkpt lat="52.60928726196289" lon="13.121310234069824">
<ele>72.69999694824219</ele>
<time>2014-02-15T15:32:32Z</time>
</trkpt>
<trkpt lat="52.60934829711914" lon="13.121308326721191">
<ele>72.69999694824219</ele>
<time>2014-02-15T15:32:33Z</time>
</trkpt>
<trkpt lat="52.60940933227539" lon="13.121321678161621">
<ele>72.19999694824219</ele>
<time>2014-02-15T15:32:34Z</time>
</trkpt>
<trkpt lat="52.60946273803711" lon="13.121328353881836">
<ele>71.9000015258789</ele>
<time>2014-02-15T15:32:35Z</time>
</trkpt>
<trkpt lat="52.60952377319336" lon="13.12133502960205">
<ele>71.9000015258789</ele>
<time>2014-02-15T15:32:36Z</time>
</trkpt>
<trkpt lat="52.609580993652344" lon="13.121353149414062">
<ele>72.30000305175781</ele>
<time>2014-02-15T15:32:37Z</time>
</trkpt>
<trkpt lat="52.609642028808594" lon="13.121369361877441">
<ele>71.9000015258789</ele>
<time>2014-02-15T15:32:38Z</time>
</trkpt>
<trkpt lat="52.60970687866211" lon="13.12137508392334">
<ele>71.69999694824219</ele>
<time>2014-02-15T15:32:39Z</time>
</trkpt>
<trkpt lat="52.609771728515625" lon="13.121377944946289">
<ele>71.69999694824219</ele>
<time>2014-02-15T15:32:40Z</time>
</trkpt>
<trkpt lat="52.60983657836914" lon="13.12138843536377">
<ele>71.5</ele>
<time>2014-02-15T15:32:41Z</time>
</trkpt>
<trkpt lat="52.60990524291992" lon="13.121399879455566">
<ele>71.69999694824219</ele>
<time>2014-02-15T15:32:42Z</time>
</trkpt>
<trkpt lat="52.6099739074707" lon="13.121406555175781">
<ele>71.4000015258789</ele>
<time>2014-02-15T15:32:43Z</time>
</trkpt>
<trkpt lat="52.61004638671875" lon="13.121420860290527">
<ele>71.19999694824219</ele>
<time>2014-02-15T15:32:44Z</time>
</trkpt>
<trkpt lat="52.61011505126953" lon="13.121432304382324">
<ele>71.30000305175781</ele>
<time>2014-02-15T15:32:45Z</time>
</trkpt>
<trkpt lat="52.61018753051758" lon="13.121441841125488">
<ele>71.4000015258789</ele>
<time>2014-02-15T15:32:46Z</time>
</trkpt>
<trkpt lat="52.61025619506836" lon="13.12145709991455">
<ele>71.5999984741211</ele>
<time>2014-02-15T15:32:47Z</time>
</trkpt>
<trkpt lat="52.610328674316406" lon="13.121467590332031">
<ele>71.5999984741211</ele>
<time>2014-02-15T15:32:48Z</time>
</trkpt>
<trkpt lat="52.61040115356445" lon="13.121478080749512">
<ele>71.5</ele>
<time>2014-02-15T15:32:49Z</time>
</trkpt>
<trkpt lat="52.610469818115234" lon="13.121490478515625">
<ele>71.4000015258789</ele>
<time>2014-02-15T15:32:50Z</time>
</trkpt>
<trkpt lat="52.61054611206055" lon="13.121500968933105">
<ele>71.30000305175781</ele>
<time>2014-02-15T15:32:51Z</time>
</trkpt>
<trkpt lat="52.610618591308594" lon="13.121511459350586">
<ele>71.19999694824219</ele>
<time>2014-02-15T15:32:52Z</time>
</trkpt>
<trkpt lat="52.61069107055664" lon="13.121513366699219">
<ele>71.0999984741211</ele>
<time>2014-02-15T15:32:53Z</time>
</trkpt>
<trkpt lat="52.61076736450195" lon="13.121519088745117">
<ele>71.0999984741211</ele>
<time>2014-02-15T15:32:54Z</time>
</trkpt>
<trkpt lat="52.61083984375" lon="13.121530532836914">
<ele>70.9000015258789</ele>
<time>2014-02-15T15:32:55Z</time>
</trkpt>
<trkpt lat="52.61091232299805" lon="13.121543884277344">
<ele>70.80000305175781</ele>
<time>2014-02-15T15:32:56Z</time>
</trkpt>
<trkpt lat="52.610984802246094" lon="13.121553421020508">
<ele>70.9000015258789</ele>
<time>2014-02-15T15:32:57Z</time>
</trkpt>
<trkpt lat="52.61105728149414" lon="13.121565818786621">
<ele>71.0</ele>
<time>2014-02-15T15:32:57Z</time>
</trkpt>
<trkpt lat="52.61112976074219" lon="13.121576309204102">
<ele>71.0999984741211</ele>
<time>2014-02-15T15:32:59Z</time>
</trkpt>
<trkpt lat="52.6112060546875" lon="13.121587753295898">
<ele>71.0999984741211</ele>
<time>2014-02-15T15:33:00Z</time>
</trkpt>
<trkpt lat="52.61127853393555" lon="13.121604919433594">
<ele>71.0999984741211</ele>
<time>2014-02-15T15:33:01Z</time>
</trkpt>
<trkpt lat="52.61134338378906" lon="13.121618270874023">
<ele>71.0</ele>
<time>2014-02-15T15:33:02Z</time>
</trkpt>
<trkpt lat="52.611412048339844" lon="13.12164306640625">
<ele>71.19999694824219</ele>
<time>2014-02-15T15:33:03Z</time>
</trkpt>
<trkpt lat="52.611480712890625" lon="13.121661186218262">
<ele>71.0999984741211</ele>
<time>2014-02-15T15:33:04Z</time>
</trkpt>
<trkpt lat="52.611549377441406" lon="13.121688842773438">
<ele>70.9000015258789</ele>
<time>2014-02-15T15:33:05Z</time>
</trkpt>
<trkpt lat="52.61161422729492" lon="13.121718406677246">
<ele>70.80000305175781</ele>
<time>2014-02-15T15:33:06Z</time>
</trkpt>
<trkpt lat="52.6116828918457" lon="13.121737480163574">
<ele>70.69999694824219</ele>
<time>2014-02-15T15:33:07Z</time>
</trkpt>
<trkpt lat="52.611751556396484" lon="13.12176513671875">
<ele>70.5999984741211</ele>
<time>2014-02-15T15:33:08Z</time>
</trkpt>
<trkpt lat="52.611820220947266" lon="13.121793746948242">
<ele>70.5</ele>
<time>2014-02-15T15:33:09Z</time>
</trkpt>
<trkpt lat="52.61188507080078" lon="13.121827125549316">
<ele>70.19999694824219</ele>
<time>2014-02-15T15:33:10Z</time>
</trkpt>
<trkpt lat="52.6119499206543" lon="13.121866226196289">
<ele>70.19999694824219</ele>
<time>2014-02-15T15:33:11Z</time>
</trkpt>
<trkpt lat="52.61201095581055" lon="13.121912956237793">
<ele>70.0999984741211</ele>
<time>2014-02-15T15:33:12Z</time>
</trkpt>
<trkpt lat="52.61207580566406" lon="13.121950149536133">
<ele>70.0</ele>
<time>2014-02-15T15:33:13Z</time>
</trkpt>
<trkpt lat="52.61213684082031" lon="13.121994018554688">
<ele>69.80000305175781</ele>
<time>2014-02-15T15:33:14Z</time>
</trkpt>
<trkpt lat="52.61219787597656" lon="13.122040748596191">
<ele>69.80000305175781</ele>
<time>2014-02-15T15:33:15Z</time>
</trkpt>
<trkpt lat="52.61226272583008" lon="13.122089385986328">
<ele>69.9000015258789</ele>
<time>2014-02-15T15:33:16Z</time>
</trkpt>
<trkpt lat="52.61231994628906" lon="13.12214183807373">
<ele>69.9000015258789</ele>
<time>2014-02-15T15:33:17Z</time>
</trkpt>
<trkpt lat="52.61238098144531" lon="13.122190475463867">
<ele>69.9000015258789</ele>
<time>2014-02-15T15:33:18Z</time>
</trkpt>
<trkpt lat="52.6124382019043" lon="13.12224292755127">
<ele>70.0</ele>
<time>2014-02-15T15:33:19Z</time>
</trkpt>
<trkpt lat="52.61249542236328" lon="13.122299194335938">
<ele>69.69999694824219</ele>
<time>2014-02-15T15:33:20Z</time>
</trkpt>
<trkpt lat="52.61255645751953" lon="13.122355461120605">
<ele>69.69999694824219</ele>
<time>2014-02-15T15:33:21Z</time>
</trkpt>
<trkpt lat="52.612613677978516" lon="13.12241268157959">
<ele>69.5</ele>
<time>2014-02-15T15:33:22Z</time>
</trkpt>
<trkpt lat="52.612674713134766" lon="13.122471809387207">
<ele>69.80000305175781</ele>
<time>2014-02-15T15:33:23Z</time>
</trkpt>
<trkpt lat="52.612735748291016" lon="13.122529983520508">
<ele>70.0</ele>
<time>2014-02-15T15:33:24Z</time>
</trkpt>
<trkpt lat="52.612789154052734" lon="13.12259292602539">
<ele>70.0999984741211</ele>
<time>2014-02-15T15:33:25Z</time>
</trkpt>
<trkpt lat="52.612850189208984" lon="13.12265396118164">
<ele>70.4000015258789</ele>
<time>2014-02-15T15:33:26Z</time>
</trkpt>
<trkpt lat="52.6129035949707" lon="13.122718811035156">
<ele>70.5999984741211</ele>
<time>2014-02-15T15:33:27Z</time>
</trkpt>
<trkpt lat="52.61296081542969" lon="13.122783660888672">
<ele>71.0999984741211</ele>
<time>2014-02-15T15:33:28Z</time>
</trkpt>
<trkpt lat="52.61301803588867" lon="13.122845649719238">
<ele>71.4000015258789</ele>
<time>2014-02-15T15:33:29Z</time>
</trkpt>
<trkpt lat="52.61307144165039" lon="13.122909545898438">
<ele>71.30000305175781</ele>
<time>2014-02-15T15:33:30Z</time>
</trkpt>
<trkpt lat="52.613128662109375" lon="13.122970581054688">
<ele>71.4000015258789</ele>
<time>2014-02-15T15:33:31Z</time>
</trkpt>
<trkpt lat="52.61318588256836" lon="13.123031616210938">
<ele>71.5999984741211</ele>
<time>2014-02-15T15:33:32Z</time>
</trkpt>
<trkpt lat="52.61323928833008" lon="13.123091697692871">
<ele>71.5999984741211</ele>
<time>2014-02-15T15:33:33Z</time>
</trkpt>
<trkpt lat="52.6132926940918" lon="13.123157501220703">
<ele>71.5999984741211</ele>
<time>2014-02-15T15:33:34Z</time>
</trkpt>
<trkpt lat="52.613346099853516" lon="13.123221397399902">
<ele>71.5999984741211</ele>
<time>2014-02-15T15:33:35Z</time>
</trkpt>
<trkpt lat="52.613399505615234" lon="13.123281478881836">
<ele>71.5999984741211</ele>
<time>2014-02-15T15:33:36Z</time>
</trkpt>
<trkpt lat="52.61345291137695" lon="13.12334156036377">
<ele>71.4000015258789</ele>
<time>2014-02-15T15:33:37Z</time>
</trkpt>
<trkpt lat="52.61350631713867" lon="13.12339973449707">
<ele>71.0999984741211</ele>
<time>2014-02-15T15:33:38Z</time>
</trkpt>
<trkpt lat="52.613555908203125" lon="13.123464584350586">
<ele>71.19999694824219</ele>
<time>2014-02-15T15:33:39Z</time>
</trkpt>
<trkpt lat="52.613609313964844" lon="13.123527526855469">
<ele>71.19999694824219</ele>
<time>2014-02-15T15:33:40Z</time>
</trkpt>
<trkpt lat="52.6136589050293" lon="13.123592376708984">
<ele>71.19999694824219</ele>
<time>2014-02-15T15:33:41Z</time>
</trkpt>
<trkpt lat="52.613712310791016" lon="13.123655319213867">
<ele>71.0999984741211</ele>
<time>2014-02-15T15:33:42Z</time>
</trkpt>
<trkpt lat="52.613765716552734" lon="13.123717308044434">
<ele>71.0</ele>
<time>2014-02-15T15:33:43Z</time>
</trkpt>
<trkpt lat="52.61381912231445" lon="13.123781204223633">
<ele>70.9000015258789</ele>
<time>2014-02-15T15:33:44Z</time>
</trkpt>
<trkpt lat="52.61387252807617" lon="13.123847961425781">
<ele>70.69999694824219</ele>
<time>2014-02-15T15:33:45Z</time>
</trkpt>
<trkpt lat="52.613922119140625" lon="13.123910903930664">
<ele>70.5999984741211</ele>
<time>2014-02-15T15:33:46Z</time>
</trkpt>
<trkpt lat="52.61397171020508" lon="13.123974800109863">
<ele>70.69999694824219</ele>
<time>2014-02-15T15:33:47Z</time>
</trkpt>
<trkpt lat="52.6140251159668" lon="13.124039649963379">
<ele>70.69999694824219</ele>
<time>2014-02-15T15:33:48Z</time>
</trkpt>
<trkpt lat="52.61407470703125" lon="13.124107360839844">
<ele>70.5999984741211</ele>
<time>2014-02-15T15:33:48Z</time>
</trkpt>
<trkpt lat="52.6141242980957" lon="13.124171257019043">
<ele>70.5</ele>
<time>2014-02-15T15:33:50Z</time>
</trkpt>
<trkpt lat="52.614173889160156" lon="13.124237060546875">
<ele>70.5</ele>
<time>2014-02-15T15:33:51Z</time>
</trkpt>
<trkpt lat="52.61422348022461" lon="13.124302864074707">
<ele>70.4000015258789</ele>
<time>2014-02-15T15:33:52Z</time>
</trkpt>
<trkpt lat="52.61427307128906" lon="13.124366760253906">
<ele>70.0</ele>
<time>2014-02-15T15:33:53Z</time>
</trkpt>
<trkpt lat="52.61432647705078" lon="13.124430656433105">
<ele>70.0</ele>
<time>2014-02-15T15:33:54Z</time>
</trkpt>
<trkpt lat="52.614376068115234" lon="13.124492645263672">
<ele>70.0</ele>
<time>2014-02-15T15:33:55Z</time>
</trkpt>
<trkpt lat="52.61443328857422" lon="13.124555587768555">
<ele>70.19999694824219</ele>
<time>2014-02-15T15:33:56Z</time>
</trkpt>
<trkpt lat="52.614479064941406" lon="13.124619483947754">
<ele>70.0999984741211</ele>
<time>2014-02-15T15:33:57Z</time>
</trkpt>
<trkpt lat="52.61452865600586" lon="13.124683380126953">
<ele>70.0</ele>
<time>2014-02-15T15:33:58Z</time>
</trkpt>
<trkpt lat="52.61457061767578" lon="13.124746322631836">
<ele>69.69999694824219</ele>
<time>2014-02-15T15:33:59Z</time>
</trkpt>
<trkpt lat="52.614620208740234" lon="13.124811172485352">
<ele>69.69999694824219</ele>
<time>2014-02-15T15:34:00Z</time>
</trkpt>
<trkpt lat="52.61466598510742" lon="13.124874114990234">
<ele>69.19999694824219</ele>
<time>2014-02-15T15:34:01Z</time>
</trkpt>
<trkpt lat="52.61471176147461" lon="13.124939918518066">
<ele>69.0</ele>
<time>2014-02-15T15:34:02Z</time>
</trkpt>
<trkpt lat="52.6147575378418" lon="13.125001907348633">
<ele>68.80000305175781</ele>
<time>2014-02-15T15:34:03Z</time>
</trkpt>
<trkpt lat="52.61479568481445" lon="13.125066757202148">
<ele>68.69999694824219</ele>
<time>2014-02-15T15:34:04Z</time>
</trkpt>
<trkpt lat="52.61484146118164" lon="13.125126838684082">
<ele>68.5999984741211</ele>
<time>2014-02-15T15:34:05Z</time>
</trkpt>
<trkpt lat="52.61488342285156" lon="13.125189781188965">
<ele>68.30000305175781</ele>
<time>2014-02-15T15:34:06Z</time>
</trkpt>
<trkpt lat="52.61492156982422" lon="13.125255584716797">
<ele>68.19999694824219</ele>
<time>2014-02-15T15:34:07Z</time>
</trkpt>
<trkpt lat="52.61496353149414" lon="13.125322341918945">
<ele>68.19999694824219</ele>
<time>2014-02-15T15:34:08Z</time>
</trkpt>
<trkpt lat="52.6150016784668" lon="13.125387191772461">
<ele>68.0</ele>
<time>2014-02-15T15:34:09Z</time>
</trkpt>
<trkpt lat="52.61503982543945" lon="13.125446319580078">
<ele>68.0</ele>
<time>2014-02-15T15:34:10Z</time>
</trkpt>
<trkpt lat="52.615074157714844" lon="13.12550163269043">
<ele>68.0</ele>
<time>2014-02-15T15:34:11Z</time>
</trkpt>
<trkpt lat="52.615142822265625" lon="13.125594139099121">
<ele>68.0</ele>
<time>2014-02-15T15:34:13Z</time>
</trkpt>
<trkpt lat="52.61519241333008" lon="13.12569808959961">
<ele>68.0999984741211</ele>
<time>2014-02-15T15:34:15Z</time>
</trkpt>
<trkpt lat="52.61522674560547" lon="13.125802040100098">
<ele>68.0999984741211</ele>
<time>2014-02-15T15:34:17Z</time>
</trkpt>
<trkpt lat="52.615272521972656" lon="13.12584400177002">
<ele>69.0999984741211</ele>
<time>2014-02-15T15:34:19Z</time>
</trkpt>
<trkpt lat="52.61532211303711" lon="13.125855445861816">
<ele>69.5999984741211</ele>
<time>2014-02-15T15:34:28Z</time>
</trkpt>
<trkpt lat="52.61537551879883" lon="13.125866889953613">
<ele>69.69999694824219</ele>
<time>2014-02-15T15:34:35Z</time>
</trkpt>
<trkpt lat="52.61543655395508" lon="13.125834465026855">
<ele>70.30000305175781</ele>
<time>2014-02-15T15:34:37Z</time>
</trkpt>
<trkpt lat="52.615501403808594" lon="13.125808715820312">
<ele>73.0999984741211</ele>
<time>2014-02-15T15:34:39Z</time>
</trkpt>
<trkpt lat="52.61555099487305" lon="13.125812530517578">
<ele>71.5</ele>
<time>2014-02-15T15:34:40Z</time>
</trkpt>
<trkpt lat="52.615684509277344" lon="13.125801086425781">
<ele>71.30000305175781</ele>
<time>2014-02-15T15:34:43Z</time>
</trkpt>
<trkpt lat="52.61573028564453" lon="13.125814437866211">
<ele>70.69999694824219</ele>
<time>2014-02-15T15:34:44Z</time>
</trkpt>
<trkpt lat="52.61578369140625" lon="13.125823020935059">
<ele>70.4000015258789</ele>
<time>2014-02-15T15:34:45Z</time>
</trkpt>
<trkpt lat="52.61583709716797" lon="13.125825881958008">
<ele>70.69999694824219</ele>
<time>2014-02-15T15:34:46Z</time>
</trkpt>
<trkpt lat="52.61589050292969" lon="13.125825881958008">
<ele>70.80000305175781</ele>
<time>2014-02-15T15:34:47Z</time>
</trkpt>
<trkpt lat="52.61594009399414" lon="13.125832557678223">
<ele>70.80000305175781</ele>
<time>2014-02-15T15:34:48Z</time>
</trkpt>
<trkpt lat="52.615989685058594" lon="13.125837326049805">
<ele>71.0999984741211</ele>
<time>2014-02-15T15:34:49Z</time>
</trkpt>
<trkpt lat="52.61604309082031" lon="13.12584114074707">
<ele>71.5</ele>
<time>2014-02-15T15:34:50Z</time>
</trkpt>
<trkpt lat="52.6161003112793" lon="13.125843048095703">
<ele>71.19999694824219</ele>
<time>2014-02-15T15:34:51Z</time>
</trkpt>
<trkpt lat="52.61614990234375" lon="13.125845909118652">
<ele>71.19999694824219</ele>
<time>2014-02-15T15:34:52Z</time>
</trkpt>
<trkpt lat="52.6161994934082" lon="13.125852584838867">
<ele>71.30000305175781</ele>
<time>2014-02-15T15:34:53Z</time>
</trkpt>
<trkpt lat="52.61625289916992" lon="13.12586784362793">
<ele>71.0999984741211</ele>
<time>2014-02-15T15:34:54Z</time>
</trkpt>
<trkpt lat="52.61630630493164" lon="13.125886917114258">
<ele>70.69999694824219</ele>
<time>2014-02-15T15:34:55Z</time>
</trkpt>
<trkpt lat="52.616363525390625" lon="13.125901222229004">
<ele>70.9000015258789</ele>
<time>2014-02-15T15:34:56Z</time>
</trkpt>
<trkpt lat="52.616416931152344" lon="13.125919342041016">
<ele>70.4000015258789</ele>
<time>2014-02-15T15:34:57Z</time>
</trkpt>
<trkpt lat="52.61647415161133" lon="13.125943183898926">
<ele>70.19999694824219</ele>
<time>2014-02-15T15:34:58Z</time>
</trkpt>
<trkpt lat="52.61652374267578" lon="13.125959396362305">
<ele>69.9000015258789</ele>
<time>2014-02-15T15:34:59Z</time>
</trkpt>
<trkpt lat="52.616580963134766" lon="13.125978469848633">
<ele>70.0999984741211</ele>
<time>2014-02-15T15:35:00Z</time>
</trkpt>
<trkpt lat="52.616634368896484" lon="13.125992774963379">
<ele>69.80000305175781</ele>
<time>2014-02-15T15:35:01Z</time>
</trkpt>
<trkpt lat="52.61669158935547" lon="13.126008033752441">
<ele>69.5</ele>
<time>2014-02-15T15:35:02Z</time>
</trkpt>
<trkpt lat="52.61674880981445" lon="13.126020431518555">
<ele>69.5999984741211</ele>
<time>2014-02-15T15:35:03Z</time>
</trkpt>
<trkpt lat="52.61680603027344" lon="13.126042366027832">
<ele>69.4000015258789</ele>
<time>2014-02-15T15:35:04Z</time>
</trkpt>
<trkpt lat="52.616859436035156" lon="13.126057624816895">
<ele>69.5</ele>
<time>2014-02-15T15:35:05Z</time>
</trkpt>
<trkpt lat="52.616912841796875" lon="13.126068115234375">
<ele>69.5</ele>
<time>2014-02-15T15:35:06Z</time>
</trkpt>
<trkpt lat="52.616973876953125" lon="13.126086235046387">
<ele>69.5999984741211</ele>
<time>2014-02-15T15:35:07Z</time>
</trkpt>
<trkpt lat="52.61702346801758" lon="13.126105308532715">
<ele>69.5999984741211</ele>
<time>2014-02-15T15:35:07Z</time>
</trkpt>
<trkpt lat="52.6170768737793" lon="13.126128196716309">
<ele>69.69999694824219</ele>
<time>2014-02-15T15:35:09Z</time>
</trkpt>
<trkpt lat="52.617130279541016" lon="13.126145362854004">
<ele>69.9000015258789</ele>
<time>2014-02-15T15:35:10Z</time>
</trkpt>
<trkpt lat="52.617183685302734" lon="13.126163482666016">
<ele>69.80000305175781</ele>
<time>2014-02-15T15:35:11Z</time>
</trkpt>
<trkpt lat="52.61723709106445" lon="13.126182556152344">
<ele>69.80000305175781</ele>
<time>2014-02-15T15:35:12Z</time>
</trkpt>
<trkpt lat="52.61729431152344" lon="13.126201629638672">
<ele>69.80000305175781</ele>
<time>2014-02-15T15:35:13Z</time>
</trkpt>
<trkpt lat="52.61735153198242" lon="13.126219749450684">
<ele>70.0999984741211</ele>
<time>2014-02-15T15:35:14Z</time>
</trkpt>
<trkpt lat="52.61740493774414" lon="13.126235008239746">
<ele>70.0</ele>
<time>2014-02-15T15:35:15Z</time>
</trkpt>
<trkpt lat="52.61745834350586" lon="13.126245498657227">
<ele>69.9000015258789</ele>
<time>2014-02-15T15:35:15Z</time>
</trkpt>
<trkpt lat="52.61750793457031" lon="13.126265525817871">
<ele>69.80000305175781</ele>
<time>2014-02-15T15:35:17Z</time>
</trkpt>
<trkpt lat="52.61756896972656" lon="13.12629222869873">
<ele>69.80000305175781</ele>
<time>2014-02-15T15:35:18Z</time>
</trkpt>
<trkpt lat="52.61762237548828" lon="13.126309394836426">
<ele>69.69999694824219</ele>
<time>2014-02-15T15:35:19Z</time>
</trkpt>
<trkpt lat="52.61767578125" lon="13.126327514648438">
<ele>69.80000305175781</ele>
<time>2014-02-15T15:35:20Z</time>
</trkpt>
<trkpt lat="52.617733001708984" lon="13.126338005065918">
<ele>69.9000015258789</ele>
<time>2014-02-15T15:35:21Z</time>
</trkpt>
<trkpt lat="52.6177864074707" lon="13.12635326385498">
<ele>69.9000015258789</ele>
<time>2014-02-15T15:35:22Z</time>
</trkpt>
<trkpt lat="52.61783981323242" lon="13.126370429992676">
<ele>70.0999984741211</ele>
<time>2014-02-15T15:35:23Z</time>
</trkpt>
<trkpt lat="52.61789321899414" lon="13.126388549804688">
<ele>70.0</ele>
<time>2014-02-15T15:35:24Z</time>
</trkpt>
<trkpt lat="52.61794662475586" lon="13.126409530639648">
<ele>70.0</ele>
<time>2014-02-15T15:35:25Z</time>
</trkpt>
<trkpt lat="52.618003845214844" lon="13.126431465148926">
<ele>70.19999694824219</ele>
<time>2014-02-15T15:35:26Z</time>
</trkpt>
<trkpt lat="52.61805725097656" lon="13.126448631286621">
<ele>70.19999694824219</ele>
<time>2014-02-15T15:35:27Z</time>
</trkpt>
<trkpt lat="52.618106842041016" lon="13.126460075378418">
<ele>70.0</ele>
<time>2014-02-15T15:35:28Z</time>
</trkpt>
<trkpt lat="52.618160247802734" lon="13.126483917236328">
<ele>70.0</ele>
<time>2014-02-15T15:35:29Z</time>
</trkpt>
<trkpt lat="52.61821365356445" lon="13.126503944396973">
<ele>70.0999984741211</ele>
<time>2014-02-15T15:35:30Z</time>
</trkpt>
<trkpt lat="52.61827087402344" lon="13.126518249511719">
<ele>70.30000305175781</ele>
<time>2014-02-15T15:35:31Z</time>
</trkpt>
<trkpt lat="52.618324279785156" lon="13.126541137695312">
<ele>70.4000015258789</ele>
<time>2014-02-15T15:35:32Z</time>
</trkpt>
<trkpt lat="52.61837387084961" lon="13.126564979553223">
<ele>70.4000015258789</ele>
<time>2014-02-15T15:35:33Z</time>
</trkpt>
<trkpt lat="52.61842346191406" lon="13.126585960388184">
<ele>70.0999984741211</ele>
<time>2014-02-15T15:35:33Z</time>
</trkpt>
<trkpt lat="52.61848068237305" lon="13.12661075592041">
<ele>70.0999984741211</ele>
<time>2014-02-15T15:35:35Z</time>
</trkpt>
<trkpt lat="52.6185302734375" lon="13.126630783081055">
<ele>70.0999984741211</ele>
<time>2014-02-15T15:35:36Z</time>
</trkpt>
<trkpt lat="52.61858367919922" lon="13.126657485961914">
<ele>70.19999694824219</ele>
<time>2014-02-15T15:35:37Z</time>
</trkpt>
<trkpt lat="52.61863708496094" lon="13.12668228149414">
<ele>69.9000015258789</ele>
<time>2014-02-15T15:35:38Z</time>
</trkpt>
<trkpt lat="52.618690490722656" lon="13.126707077026367">
<ele>70.0</ele>
<time>2014-02-15T15:35:39Z</time>
</trkpt>
<trkpt lat="52.61874771118164" lon="13.126731872558594">
<ele>70.0</ele>
<time>2014-02-15T15:35:40Z</time>
</trkpt>
<trkpt lat="52.61880111694336" lon="13.126757621765137">
<ele>70.0999984741211</ele>
<time>2014-02-15T15:35:41Z</time>
</trkpt>
<trkpt lat="52.618858337402344" lon="13.126782417297363">
<ele>70.0999984741211</ele>
<time>2014-02-15T15:35:42Z</time>
</trkpt>
<trkpt lat="52.61890411376953" lon="13.126803398132324">
<ele>70.0999984741211</ele>
<time>2014-02-15T15:35:43Z</time>
</trkpt>
<trkpt lat="52.61895751953125" lon="13.126826286315918">
<ele>70.0999984741211</ele>
<time>2014-02-15T15:35:44Z</time>
</trkpt>
<trkpt lat="52.61901092529297" lon="13.126853942871094">
<ele>70.5</ele>
<time>2014-02-15T15:35:45Z</time>
</trkpt>
<trkpt lat="52.61906051635742" lon="13.126876831054688">
<ele>70.5999984741211</ele>
<time>2014-02-15T15:35:46Z</time>
</trkpt>
<trkpt lat="52.61911392211914" lon="13.126899719238281">
<ele>70.5999984741211</ele>
<time>2014-02-15T15:35:47Z</time>
</trkpt>
<trkpt lat="52.61916732788086" lon="13.126928329467773">
<ele>70.80000305175781</ele>
<time>2014-02-15T15:35:48Z</time>
</trkpt>
<trkpt lat="52.619224548339844" lon="13.126953125">
<ele>70.5999984741211</ele>
<time>2014-02-15T15:35:49Z</time>
</trkpt>
<trkpt lat="52.61927795410156" lon="13.126977920532227">
<ele>70.4000015258789</ele>
<time>2014-02-15T15:35:50Z</time>
</trkpt>
<trkpt lat="52.619327545166016" lon="13.126999855041504">
<ele>70.19999694824219</ele>
<time>2014-02-15T15:35:51Z</time>
</trkpt>
<trkpt lat="52.619380950927734" lon="13.127019882202148">
<ele>70.30000305175781</ele>
<time>2014-02-15T15:35:52Z</time>
</trkpt>
<trkpt lat="52.61943435668945" lon="13.127041816711426">
<ele>70.5</ele>
<time>2014-02-15T15:35:53Z</time>
</trkpt>
<trkpt lat="52.61949157714844" lon="13.12706470489502">
<ele>70.5999984741211</ele>
<time>2014-02-15T15:35:54Z</time>
</trkpt>
<trkpt lat="52.619544982910156" lon="13.127095222473145">
<ele>70.80000305175781</ele>
<time>2014-02-15T15:35:55Z</time>
</trkpt>
<trkpt lat="52.619598388671875" lon="13.127126693725586">
<ele>70.69999694824219</ele>
<time>2014-02-15T15:35:56Z</time>
</trkpt>
<trkpt lat="52.619651794433594" lon="13.127158164978027">
<ele>70.5999984741211</ele>
<time>2014-02-15T15:35:57Z</time>
</trkpt>
<trkpt lat="52.61970520019531" lon="13.127180099487305">
<ele>70.69999694824219</ele>
<time>2014-02-15T15:35:58Z</time>
</trkpt>
<trkpt lat="52.6197624206543" lon="13.127201080322266">
<ele>71.0</ele>
<time>2014-02-15T15:35:59Z</time>
</trkpt>
<trkpt lat="52.61981964111328" lon="13.127220153808594">
<ele>71.0999984741211</ele>
<time>2014-02-15T15:36:00Z</time>
</trkpt>
<trkpt lat="52.619873046875" lon="13.127241134643555">
<ele>71.0</ele>
<time>2014-02-15T15:36:01Z</time>
</trkpt>
<trkpt lat="52.619930267333984" lon="13.127269744873047">
<ele>71.0</ele>
<time>2014-02-15T15:36:02Z</time>
</trkpt>
<trkpt lat="52.6199836730957" lon="13.127288818359375">
<ele>70.80000305175781</ele>
<time>2014-02-15T15:36:03Z</time>
</trkpt>
<trkpt lat="52.62004089355469" lon="13.12730598449707">
<ele>70.5999984741211</ele>
<time>2014-02-15T15:36:04Z</time>
</trkpt>
<trkpt lat="52.62010192871094" lon="13.127317428588867">
<ele>70.5</ele>
<time>2014-02-15T15:36:05Z</time>
</trkpt>
<trkpt lat="52.620155334472656" lon="13.127326965332031">
<ele>70.5</ele>
<time>2014-02-15T15:36:06Z</time>
</trkpt>
<trkpt lat="52.62022018432617" lon="13.127336502075195">
<ele>70.9000015258789</ele>
<time>2014-02-15T15:36:07Z</time>
</trkpt>
<trkpt lat="52.620277404785156" lon="13.127354621887207">
<ele>71.19999694824219</ele>
<time>2014-02-15T15:36:08Z</time>
</trkpt>
<trkpt lat="52.620338439941406" lon="13.1273775100708">
<ele>71.4000015258789</ele>
<time>2014-02-15T15:36:09Z</time>
</trkpt>
<trkpt lat="52.62040328979492" lon="13.127389907836914">
<ele>71.0999984741211</ele>
<time>2014-02-15T15:36:10Z</time>
</trkpt>
<trkpt lat="52.62045669555664" lon="13.12741756439209">
<ele>71.0999984741211</ele>
<time>2014-02-15T15:36:11Z</time>
</trkpt>
<trkpt lat="52.620513916015625" lon="13.12744140625">
<ele>70.5</ele>
<time>2014-02-15T15:36:12Z</time>
</trkpt>
<trkpt lat="52.620574951171875" lon="13.127449989318848">
<ele>70.5999984741211</ele>
<time>2014-02-15T15:36:13Z</time>
</trkpt>
<trkpt lat="52.62063217163086" lon="13.127467155456543">
<ele>70.9000015258789</ele>
<time>2014-02-15T15:36:14Z</time>
</trkpt>
<trkpt lat="52.620689392089844" lon="13.127485275268555">
<ele>70.9000015258789</ele>
<time>2014-02-15T15:36:15Z</time>
</trkpt>
<trkpt lat="52.62074279785156" lon="13.12750244140625">
<ele>71.0999984741211</ele>
<time>2014-02-15T15:36:16Z</time>
</trkpt>
<trkpt lat="52.62079620361328" lon="13.127523422241211">
<ele>71.5</ele>
<time>2014-02-15T15:36:17Z</time>
</trkpt>
<trkpt lat="52.620853424072266" lon="13.127547264099121">
<ele>71.4000015258789</ele>
<time>2014-02-15T15:36:18Z</time>
</trkpt>
<trkpt lat="52.620906829833984" lon="13.127568244934082">
<ele>71.30000305175781</ele>
<time>2014-02-15T15:36:19Z</time>
</trkpt>
<trkpt lat="52.62096405029297" lon="13.127575874328613">
<ele>71.4000015258789</ele>
<time>2014-02-15T15:36:20Z</time>
</trkpt>
<trkpt lat="52.62102127075195" lon="13.127579689025879">
<ele>71.69999694824219</ele>
<time>2014-02-15T15:36:21Z</time>
</trkpt>
<trkpt lat="52.621070861816406" lon="13.127594947814941">
<ele>71.19999694824219</ele>
<time>2014-02-15T15:36:22Z</time>
</trkpt>
<trkpt lat="52.621124267578125" lon="13.127609252929688">
<ele>71.19999694824219</ele>
<time>2014-02-15T15:36:23Z</time>
</trkpt>
<trkpt lat="52.621185302734375" lon="13.127615928649902">
<ele>70.9000015258789</ele>
<time>2014-02-15T15:36:24Z</time>
</trkpt>
<trkpt lat="52.621238708496094" lon="13.1276216506958">
<ele>70.5</ele>
<time>2014-02-15T15:36:25Z</time>
</trkpt>
<trkpt lat="52.62129592895508" lon="13.127626419067383">
<ele>70.5</ele>
<time>2014-02-15T15:36:26Z</time>
</trkpt>
<trkpt lat="52.62135314941406" lon="13.12763500213623">
<ele>70.30000305175781</ele>
<time>2014-02-15T15:36:27Z</time>
</trkpt>
<trkpt lat="52.62141418457031" lon="13.127639770507812">
<ele>70.30000305175781</ele>
<time>2014-02-15T15:36:28Z</time>
</trkpt>
<trkpt lat="52.62147521972656" lon="13.127642631530762">
<ele>70.30000305175781</ele>
<time>2014-02-15T15:36:29Z</time>
</trkpt>
<trkpt lat="52.62153625488281" lon="13.127642631530762">
<ele>69.9000015258789</ele>
<time>2014-02-15T15:36:30Z</time>
</trkpt>
<trkpt lat="52.62159729003906" lon="13.127649307250977">
<ele>69.5</ele>
<time>2014-02-15T15:36:31Z</time>
</trkpt>
<trkpt lat="52.62165451049805" lon="13.127647399902344">
<ele>69.5999984741211</ele>
<time>2014-02-15T15:36:32Z</time>
</trkpt>
<trkpt lat="52.62171173095703" lon="13.127647399902344">
<ele>69.4000015258789</ele>
<time>2014-02-15T15:36:33Z</time>
</trkpt>
<trkpt lat="52.62177276611328" lon="13.12765884399414">
<ele>69.4000015258789</ele>
<time>2014-02-15T15:36:34Z</time>
</trkpt>
<trkpt lat="52.621829986572266" lon="13.127679824829102">
<ele>69.0999984741211</ele>
<time>2014-02-15T15:36:35Z</time>
</trkpt>
<trkpt lat="52.621891021728516" lon="13.127695083618164">
<ele>69.4000015258789</ele>
<time>2014-02-15T15:36:36Z</time>
</trkpt>
<trkpt lat="52.621952056884766" lon="13.127723693847656">
<ele>69.5</ele>
<time>2014-02-15T15:36:37Z</time>
</trkpt>
<trkpt lat="52.62200927734375" lon="13.1277494430542">
<ele>69.69999694824219</ele>
<time>2014-02-15T15:36:38Z</time>
</trkpt>
<trkpt lat="52.622066497802734" lon="13.127776145935059">
<ele>69.9000015258789</ele>
<time>2014-02-15T15:36:39Z</time>
</trkpt>
<trkpt lat="52.62212371826172" lon="13.12780475616455">
<ele>69.80000305175781</ele>
<time>2014-02-15T15:36:40Z</time>
</trkpt>
<trkpt lat="52.62218475341797" lon="13.127837181091309">
<ele>69.80000305175781</ele>
<time>2014-02-15T15:36:41Z</time>
</trkpt>
<trkpt lat="52.62224197387695" lon="13.127864837646484">
<ele>69.9000015258789</ele>
<time>2014-02-15T15:36:42Z</time>
</trkpt>
<trkpt lat="52.62229537963867" lon="13.127890586853027">
<ele>70.0</ele>
<time>2014-02-15T15:36:43Z</time>
</trkpt>
<trkpt lat="52.62234878540039" lon="13.127914428710938">
<ele>70.30000305175781</ele>
<time>2014-02-15T15:36:44Z</time>
</trkpt>
<trkpt lat="52.62240219116211" lon="13.127941131591797">
<ele>70.19999694824219</ele>
<time>2014-02-15T15:36:45Z</time>
</trkpt>
<trkpt lat="52.622459411621094" lon="13.127968788146973">
<ele>70.0</ele>
<time>2014-02-15T15:36:46Z</time>
</trkpt>
<trkpt lat="52.62251281738281" lon="13.127994537353516">
<ele>69.9000015258789</ele>
<time>2014-02-15T15:36:47Z</time>
</trkpt>
<trkpt lat="52.6225700378418" lon="13.128016471862793">
<ele>69.80000305175781</ele>
<time>2014-02-15T15:36:48Z</time>
</trkpt>
<trkpt lat="52.622623443603516" lon="13.128036499023438">
<ele>69.80000305175781</ele>
<time>2014-02-15T15:36:49Z</time>
</trkpt>
<trkpt lat="52.622676849365234" lon="13.128056526184082">
<ele>69.80000305175781</ele>
<time>2014-02-15T15:36:50Z</time>
</trkpt>
<trkpt lat="52.62273025512695" lon="13.128079414367676">
<ele>69.69999694824219</ele>
<time>2014-02-15T15:36:51Z</time>
</trkpt>
<trkpt lat="52.62278747558594" lon="13.128107070922852">
<ele>69.80000305175781</ele>
<time>2014-02-15T15:36:52Z</time>
</trkpt>
<trkpt lat="52.62283706665039" lon="13.128141403198242">
<ele>69.80000305175781</ele>
<time>2014-02-15T15:36:53Z</time>
</trkpt>
<trkpt lat="52.62289047241211" lon="13.12817668914795">
<ele>70.0</ele>
<time>2014-02-15T15:36:54Z</time>
</trkpt>
<trkpt lat="52.622947692871094" lon="13.128207206726074">
<ele>70.0</ele>
<time>2014-02-15T15:36:55Z</time>
</trkpt>
<trkpt lat="52.62300109863281" lon="13.128235816955566">
<ele>69.80000305175781</ele>
<time>2014-02-15T15:36:56Z</time>
</trkpt>
<trkpt lat="52.62305450439453" lon="13.128259658813477">
<ele>69.5</ele>
<time>2014-02-15T15:36:57Z</time>
</trkpt>
<trkpt lat="52.623104095458984" lon="13.128283500671387">
<ele>69.5</ele>
<time>2014-02-15T15:36:58Z</time>
</trkpt>
<trkpt lat="52.62314987182617" lon="13.12830924987793">
<ele>69.5</ele>
<time>2014-02-15T15:36:59Z</time>
</trkpt>
<trkpt lat="52.623191833496094" lon="13.12833309173584">
<ele>69.5</ele>
<time>2014-02-15T15:37:00Z</time>
</trkpt>
<trkpt lat="52.62323760986328" lon="13.128353118896484">
<ele>69.5</ele>
<time>2014-02-15T15:37:01Z</time>
</trkpt>
<trkpt lat="52.623287200927734" lon="13.128371238708496">
<ele>69.5</ele>
<time>2014-02-15T15:37:02Z</time>
</trkpt>
<trkpt lat="52.62333679199219" lon="13.128385543823242">
<ele>69.5999984741211</ele>
<time>2014-02-15T15:37:03Z</time>
</trkpt>
<trkpt lat="52.62338638305664" lon="13.128401756286621">
<ele>69.5999984741211</ele>
<time>2014-02-15T15:37:04Z</time>
</trkpt>
<trkpt lat="52.62343978881836" lon="13.128416061401367">
<ele>69.4000015258789</ele>
<time>2014-02-15T15:37:05Z</time>
</trkpt>
<trkpt lat="52.62349319458008" lon="13.128430366516113">
<ele>69.5</ele>
<time>2014-02-15T15:37:06Z</time>
</trkpt>
<trkpt lat="52.62354278564453" lon="13.128446578979492">
<ele>69.5</ele>
<time>2014-02-15T15:37:07Z</time>
</trkpt>
<trkpt lat="52.62360382080078" lon="13.128464698791504">
<ele>69.5999984741211</ele>
<time>2014-02-15T15:37:08Z</time>
</trkpt>
<trkpt lat="52.623653411865234" lon="13.1284818649292">
<ele>69.69999694824219</ele>
<time>2014-02-15T15:37:09Z</time>
</trkpt>
<trkpt lat="52.62371063232422" lon="13.128495216369629">
<ele>69.5999984741211</ele>
<time>2014-02-15T15:37:10Z</time>
</trkpt>
<trkpt lat="52.6237678527832" lon="13.12850284576416">
<ele>69.69999694824219</ele>
<time>2014-02-15T15:37:11Z</time>
</trkpt>
<trkpt lat="52.62382125854492" lon="13.128506660461426">
<ele>70.19999694824219</ele>
<time>2014-02-15T15:37:12Z</time>
</trkpt>
<trkpt lat="52.62387466430664" lon="13.128512382507324">
<ele>70.19999694824219</ele>
<time>2014-02-15T15:37:13Z</time>
</trkpt>
<trkpt lat="52.623931884765625" lon="13.128504753112793">
<ele>70.0</ele>
<time>2014-02-15T15:37:14Z</time>
</trkpt>
<trkpt lat="52.623985290527344" lon="13.128493309020996">
<ele>70.19999694824219</ele>
<time>2014-02-15T15:37:15Z</time>
</trkpt>
<trkpt lat="52.62403869628906" lon="13.128484725952148">
<ele>70.5</ele>
<time>2014-02-15T15:37:16Z</time>
</trkpt>
<trkpt lat="52.62409591674805" lon="13.128486633300781">
<ele>70.9000015258789</ele>
<time>2014-02-15T15:37:17Z</time>
</trkpt>
<trkpt lat="52.624149322509766" lon="13.128488540649414">
<ele>70.69999694824219</ele>
<time>2014-02-15T15:37:18Z</time>
</trkpt>
<trkpt lat="52.62420654296875" lon="13.1284818649292">
<ele>71.0999984741211</ele>
<time>2014-02-15T15:37:19Z</time>
</trkpt>
<trkpt lat="52.624267578125" lon="13.12846565246582">
<ele>71.19999694824219</ele>
<time>2014-02-15T15:37:20Z</time>
</trkpt>
<trkpt lat="52.62432861328125" lon="13.128454208374023">
<ele>71.4000015258789</ele>
<time>2014-02-15T15:37:21Z</time>
</trkpt>
<trkpt lat="52.62439727783203" lon="13.128443717956543">
<ele>71.80000305175781</ele>
<time>2014-02-15T15:37:22Z</time>
</trkpt>
<trkpt lat="52.62446212768555" lon="13.128433227539062">
<ele>71.69999694824219</ele>
<time>2014-02-15T15:37:23Z</time>
</trkpt>
<trkpt lat="52.62451934814453" lon="13.128434181213379">
<ele>72.0999984741211</ele>
<time>2014-02-15T15:37:24Z</time>
</trkpt>
<trkpt lat="52.62456512451172" lon="13.12842082977295">
<ele>71.9000015258789</ele>
<time>2014-02-15T15:37:25Z</time>
</trkpt>
<trkpt lat="52.6246337890625" lon="13.128403663635254">
<ele>71.80000305175781</ele>
<time>2014-02-15T15:37:26Z</time>
</trkpt>
<trkpt lat="52.62469482421875" lon="13.128396034240723">
<ele>72.19999694824219</ele>
<time>2014-02-15T15:37:27Z</time>
</trkpt>
<trkpt lat="52.624752044677734" lon="13.128369331359863">
<ele>72.5999984741211</ele>
<time>2014-02-15T15:37:28Z</time>
</trkpt>
<trkpt lat="52.62480926513672" lon="13.128366470336914">
<ele>72.9000015258789</ele>
<time>2014-02-15T15:37:29Z</time>
</trkpt>
<trkpt lat="52.62486267089844" lon="13.128355979919434">
<ele>73.19999694824219</ele>
<time>2014-02-15T15:37:30Z</time>
</trkpt>
<trkpt lat="52.62492752075195" lon="13.128341674804688">
<ele>73.5999984741211</ele>
<time>2014-02-15T15:37:31Z</time>
</trkpt>
<trkpt lat="52.6249885559082" lon="13.12833023071289">
<ele>73.19999694824219</ele>
<time>2014-02-15T15:37:32Z</time>
</trkpt>
<trkpt lat="52.62504959106445" lon="13.128314018249512">
<ele>73.0</ele>
<time>2014-02-15T15:37:33Z</time>
</trkpt>
<trkpt lat="52.6251106262207" lon="13.128291130065918">
<ele>73.5999984741211</ele>
<time>2014-02-15T15:37:34Z</time>
</trkpt>
<trkpt lat="52.62516403198242" lon="13.128277778625488">
<ele>73.80000305175781</ele>
<time>2014-02-15T15:37:35Z</time>
</trkpt>
<trkpt lat="52.62521743774414" lon="13.128270149230957">
<ele>74.0</ele>
<time>2014-02-15T15:37:36Z</time>
</trkpt>
<trkpt lat="52.625282287597656" lon="13.128275871276855">
<ele>74.19999694824219</ele>
<time>2014-02-15T15:37:37Z</time>
</trkpt>
<trkpt lat="52.625335693359375" lon="13.12825870513916">
<ele>74.80000305175781</ele>
<time>2014-02-15T15:37:38Z</time>
</trkpt>
<trkpt lat="52.625396728515625" lon="13.128244400024414">
<ele>75.0</ele>
<time>2014-02-15T15:37:39Z</time>
</trkpt>
<trkpt lat="52.62546157836914" lon="13.12823486328125">
<ele>74.69999694824219</ele>
<time>2014-02-15T15:37:40Z</time>
</trkpt>
<trkpt lat="52.62553024291992" lon="13.128233909606934">
<ele>74.30000305175781</ele>
<time>2014-02-15T15:37:41Z</time>
</trkpt>
<trkpt lat="52.625579833984375" lon="13.128223419189453">
<ele>74.30000305175781</ele>
<time>2014-02-15T15:37:42Z</time>
</trkpt>
<trkpt lat="52.625648498535156" lon="13.12822151184082">
<ele>73.80000305175781</ele>
<time>2014-02-15T15:37:43Z</time>
</trkpt>
<trkpt lat="52.62570571899414" lon="13.12820816040039">
<ele>74.0</ele>
<time>2014-02-15T15:37:44Z</time>
</trkpt>
<trkpt lat="52.625770568847656" lon="13.128198623657227">
<ele>73.5999984741211</ele>
<time>2014-02-15T15:37:45Z</time>
</trkpt>
<trkpt lat="52.625823974609375" lon="13.128190994262695">
<ele>73.5</ele>
<time>2014-02-15T15:37:46Z</time>
</trkpt>
<trkpt lat="52.62588119506836" lon="13.128181457519531">
<ele>73.4000015258789</ele>
<time>2014-02-15T15:37:47Z</time>
</trkpt>
<trkpt lat="52.62594223022461" lon="13.128175735473633">
<ele>73.19999694824219</ele>
<time>2014-02-15T15:37:48Z</time>
</trkpt>
<trkpt lat="52.62599563598633" lon="13.12817096710205">
<ele>73.0</ele>
<time>2014-02-15T15:37:49Z</time>
</trkpt>
<trkpt lat="52.62605667114258" lon="13.128167152404785">
<ele>73.0999984741211</ele>
<time>2014-02-15T15:37:50Z</time>
</trkpt>
<trkpt lat="52.6261100769043" lon="13.128157615661621">
<ele>72.5999984741211</ele>
<time>2014-02-15T15:37:51Z</time>
</trkpt>
<trkpt lat="52.62617492675781" lon="13.128144264221191">
<ele>72.80000305175781</ele>
<time>2014-02-15T15:37:52Z</time>
</trkpt>
<trkpt lat="52.62623596191406" lon="13.128133773803711">
<ele>72.69999694824219</ele>
<time>2014-02-15T15:37:53Z</time>
</trkpt>
<trkpt lat="52.62628936767578" lon="13.128128051757812">
<ele>72.5</ele>
<time>2014-02-15T15:37:54Z</time>
</trkpt>
<trkpt lat="52.626346588134766" lon="13.128117561340332">
<ele>72.69999694824219</ele>
<time>2014-02-15T15:37:55Z</time>
</trkpt>
<trkpt lat="52.626407623291016" lon="13.128108978271484">
<ele>72.69999694824219</ele>
<time>2014-02-15T15:37:56Z</time>
</trkpt>
<trkpt lat="52.62646484375" lon="13.128096580505371">
<ele>72.4000015258789</ele>
<time>2014-02-15T15:37:57Z</time>
</trkpt>
<trkpt lat="52.62651443481445" lon="13.128087997436523">
<ele>72.19999694824219</ele>
<time>2014-02-15T15:37:58Z</time>
</trkpt>
<trkpt lat="52.62657165527344" lon="13.12807559967041">
<ele>71.9000015258789</ele>
<time>2014-02-15T15:37:59Z</time>
</trkpt>
<trkpt lat="52.62663269042969" lon="13.128068923950195">
<ele>72.30000305175781</ele>
<time>2014-02-15T15:38:00Z</time>
</trkpt>
<trkpt lat="52.62668991088867" lon="13.128058433532715">
<ele>72.0999984741211</ele>
<time>2014-02-15T15:38:01Z</time>
</trkpt>
<trkpt lat="52.62674331665039" lon="13.128045082092285">
<ele>71.69999694824219</ele>
<time>2014-02-15T15:38:02Z</time>
</trkpt>
<trkpt lat="52.62680435180664" lon="13.128039360046387">
<ele>71.5</ele>
<time>2014-02-15T15:38:03Z</time>
</trkpt>
<trkpt lat="52.62685775756836" lon="13.128024101257324">
<ele>71.4000015258789</ele>
<time>2014-02-15T15:38:04Z</time>
</trkpt>
<trkpt lat="52.62691116333008" lon="13.128011703491211">
<ele>71.5999984741211</ele>
<time>2014-02-15T15:38:05Z</time>
</trkpt>
<trkpt lat="52.62697219848633" lon="13.128002166748047">
<ele>71.69999694824219</ele>
<time>2014-02-15T15:38:06Z</time>
</trkpt>
<trkpt lat="52.62703323364258" lon="13.127988815307617">
<ele>71.80000305175781</ele>
<time>2014-02-15T15:38:07Z</time>
</trkpt>
<trkpt lat="52.627098083496094" lon="13.127978324890137">
<ele>71.69999694824219</ele>
<time>2014-02-15T15:38:08Z</time>
</trkpt>
<trkpt lat="52.62715530395508" lon="13.127972602844238">
<ele>72.4000015258789</ele>
<time>2014-02-15T15:38:09Z</time>
</trkpt>
<trkpt lat="52.62721252441406" lon="13.127958297729492">
<ele>72.69999694824219</ele>
<time>2014-02-15T15:38:10Z</time>
</trkpt>
<trkpt lat="52.62726593017578" lon="13.127944946289062">
<ele>73.0</ele>
<time>2014-02-15T15:38:11Z</time>
</trkpt>
<trkpt lat="52.627323150634766" lon="13.12793254852295">
<ele>72.69999694824219</ele>
<time>2014-02-15T15:38:12Z</time>
</trkpt>
<trkpt lat="52.627376556396484" lon="13.127924919128418">
<ele>72.5999984741211</ele>
<time>2014-02-15T15:38:13Z</time>
</trkpt>
<trkpt lat="52.62743377685547" lon="13.127918243408203">
<ele>72.5999984741211</ele>
<time>2014-02-15T15:38:14Z</time>
</trkpt>
<trkpt lat="52.62748718261719" lon="13.127903938293457">
<ele>72.5</ele>
<time>2014-02-15T15:38:15Z</time>
</trkpt>
<trkpt lat="52.62754821777344" lon="13.127882957458496">
<ele>72.69999694824219</ele>
<time>2014-02-15T15:38:16Z</time>
</trkpt>
<trkpt lat="52.627601623535156" lon="13.127873420715332">
<ele>72.5999984741211</ele>
<time>2014-02-15T15:38:17Z</time>
</trkpt>
<trkpt lat="52.62765884399414" lon="13.127866744995117">
<ele>72.5999984741211</ele>
<time>2014-02-15T15:38:18Z</time>
</trkpt>
<trkpt lat="52.627708435058594" lon="13.127854347229004">
<ele>72.4000015258789</ele>
<time>2014-02-15T15:38:19Z</time>
</trkpt>
<trkpt lat="52.62776565551758" lon="13.127838134765625">
<ele>72.5999984741211</ele>
<time>2014-02-15T15:38:20Z</time>
</trkpt>
<trkpt lat="52.62782287597656" lon="13.127820014953613">
<ele>72.5999984741211</ele>
<time>2014-02-15T15:38:21Z</time>
</trkpt>
<trkpt lat="52.62787628173828" lon="13.12780475616455">
<ele>72.5</ele>
<time>2014-02-15T15:38:22Z</time>
</trkpt>
<trkpt lat="52.627933502197266" lon="13.127790451049805">
<ele>72.0</ele>
<time>2014-02-15T15:38:23Z</time>
</trkpt>
<trkpt lat="52.627986907958984" lon="13.127769470214844">
<ele>71.69999694824219</ele>
<time>2014-02-15T15:38:24Z</time>
</trkpt>
<trkpt lat="52.62804412841797" lon="13.127752304077148">
<ele>71.5</ele>
<time>2014-02-15T15:38:25Z</time>
</trkpt>
<trkpt lat="52.628150939941406" lon="13.12769603729248">
<ele>71.0999984741211</ele>
<time>2014-02-15T15:38:27Z</time>
</trkpt>
<trkpt lat="52.628204345703125" lon="13.127663612365723">
<ele>71.0</ele>
<time>2014-02-15T15:38:28Z</time>
</trkpt>
<trkpt lat="52.628257751464844" lon="13.127642631530762">
<ele>71.0</ele>
<time>2014-02-15T15:38:29Z</time>
</trkpt>
<trkpt lat="52.62831497192383" lon="13.1276216506958">
<ele>70.80000305175781</ele>
<time>2014-02-15T15:38:30Z</time>
</trkpt>
<trkpt lat="52.62837219238281" lon="13.12760066986084">
<ele>70.5999984741211</ele>
<time>2014-02-15T15:38:31Z</time>
</trkpt>
<trkpt lat="52.6284294128418" lon="13.127581596374512">
<ele>70.30000305175781</ele>
<time>2014-02-15T15:38:32Z</time>
</trkpt>
<trkpt lat="52.62849044799805" lon="13.127541542053223">
<ele>70.5</ele>
<time>2014-02-15T15:38:33Z</time>
</trkpt>
<trkpt lat="52.62854766845703" lon="13.127507209777832">
<ele>70.5999984741211</ele>
<time>2014-02-15T15:38:34Z</time>
</trkpt>
<trkpt lat="52.628604888916016" lon="13.127490997314453">
<ele>70.5999984741211</ele>
<time>2014-02-15T15:38:35Z</time>
</trkpt>
<trkpt lat="52.62865447998047" lon="13.127471923828125">
<ele>70.80000305175781</ele>
<time>2014-02-15T15:38:36Z</time>
</trkpt>
<trkpt lat="52.62869644165039" lon="13.127439498901367">
<ele>70.9000015258789</ele>
<time>2014-02-15T15:38:37Z</time>
</trkpt>
<trkpt lat="52.628753662109375" lon="13.127410888671875">
<ele>71.30000305175781</ele>
<time>2014-02-15T15:38:38Z</time>
</trkpt>
<trkpt lat="52.628807067871094" lon="13.127381324768066">
<ele>71.30000305175781</ele>
<time>2014-02-15T15:38:39Z</time>
</trkpt>
<trkpt lat="52.62885284423828" lon="13.127355575561523">
<ele>71.30000305175781</ele>
<time>2014-02-15T15:38:40Z</time>
</trkpt>
<trkpt lat="52.62891387939453" lon="13.127321243286133">
<ele>71.19999694824219</ele>
<time>2014-02-15T15:38:41Z</time>
</trkpt>
<trkpt lat="52.62895965576172" lon="13.127294540405273">
<ele>71.30000305175781</ele>
<time>2014-02-15T15:38:42Z</time>
</trkpt>
<trkpt lat="52.6290168762207" lon="13.127243995666504">
<ele>70.9000015258789</ele>
<time>2014-02-15T15:38:43Z</time>
</trkpt>
<trkpt lat="52.62907409667969" lon="13.127205848693848">
<ele>71.30000305175781</ele>
<time>2014-02-15T15:38:44Z</time>
</trkpt>
<trkpt lat="52.62913131713867" lon="13.127169609069824">
<ele>71.4000015258789</ele>
<time>2014-02-15T15:38:45Z</time>
</trkpt>
<trkpt lat="52.62919235229492" lon="13.127144813537598">
<ele>71.4000015258789</ele>
<time>2014-02-15T15:38:46Z</time>
</trkpt>
<trkpt lat="52.6292724609375" lon="13.127089500427246">
<ele>71.19999694824219</ele>
<time>2014-02-15T15:38:48Z</time>
</trkpt>
<trkpt lat="52.629364013671875" lon="13.127034187316895">
<ele>71.5</ele>
<time>2014-02-15T15:38:50Z</time>
</trkpt>
<trkpt lat="52.62940979003906" lon="13.12699031829834">
<ele>70.9000015258789</ele>
<time>2014-02-15T15:38:51Z</time>
</trkpt>
<trkpt lat="52.62946701049805" lon="13.126952171325684">
<ele>70.80000305175781</ele>
<time>2014-02-15T15:38:52Z</time>
</trkpt>
<trkpt lat="52.62956237792969" lon="13.126864433288574">
<ele>71.0999984741211</ele>
<time>2014-02-15T15:38:54Z</time>
</trkpt>
<trkpt lat="52.629615783691406" lon="13.126816749572754">
<ele>71.0999984741211</ele>
<time>2014-02-15T15:38:55Z</time>
</trkpt>
<trkpt lat="52.629669189453125" lon="13.126770973205566">
<ele>70.80000305175781</ele>
<time>2014-02-15T15:38:56Z</time>
</trkpt>
<trkpt lat="52.62971496582031" lon="13.126709938049316">
<ele>71.5999984741211</ele>
<time>2014-02-15T15:38:57Z</time>
</trkpt>
<trkpt lat="52.62977600097656" lon="13.126659393310547">
<ele>71.69999694824219</ele>
<time>2014-02-15T15:38:58Z</time>
</trkpt>
<trkpt lat="52.629825592041016" lon="13.126599311828613">
<ele>71.80000305175781</ele>
<time>2014-02-15T15:38:59Z</time>
</trkpt>
<trkpt lat="52.6298828125" lon="13.126559257507324">
<ele>73.19999694824219</ele>
<time>2014-02-15T15:39:00Z</time>
</trkpt>
<trkpt lat="52.629920959472656" lon="13.126494407653809">
<ele>72.4000015258789</ele>
<time>2014-02-15T15:39:01Z</time>
</trkpt>
<trkpt lat="52.62993621826172" lon="13.126422882080078">
<ele>71.0999984741211</ele>
<time>2014-02-15T15:39:02Z</time>
</trkpt>
<trkpt lat="52.62993240356445" lon="13.126341819763184">
<ele>71.0999984741211</ele>
<time>2014-02-15T15:39:03Z</time>
</trkpt>
<trkpt lat="52.62992477416992" lon="13.126261711120605">
<ele>71.4000015258789</ele>
<time>2014-02-15T15:39:04Z</time>
</trkpt>
<trkpt lat="52.62992477416992" lon="13.126172065734863">
<ele>71.5999984741211</ele>
<time>2014-02-15T15:39:05Z</time>
</trkpt>
<trkpt lat="52.629905700683594" lon="13.126084327697754">
<ele>71.9000015258789</ele>
<time>2014-02-15T15:39:06Z</time>
</trkpt>
<trkpt lat="52.62989807128906" lon="13.125997543334961">
<ele>72.0</ele>
<time>2014-02-15T15:39:07Z</time>
</trkpt>
<trkpt lat="52.629886627197266" lon="13.125913619995117">
<ele>71.69999694824219</ele>
<time>2014-02-15T15:39:08Z</time>
</trkpt>
<trkpt lat="52.62987518310547" lon="13.125825881958008">
<ele>71.5999984741211</ele>
<time>2014-02-15T15:39:09Z</time>
</trkpt>
<trkpt lat="52.62986373901367" lon="13.125733375549316">
<ele>71.80000305175781</ele>
<time>2014-02-15T15:39:10Z</time>
</trkpt>
<trkpt lat="52.62986373901367" lon="13.125642776489258">
<ele>72.19999694824219</ele>
<time>2014-02-15T15:39:11Z</time>
</trkpt>
<trkpt lat="52.629859924316406" lon="13.125556945800781">
<ele>72.19999694824219</ele>
<time>2014-02-15T15:39:12Z</time>
</trkpt>
<trkpt lat="52.629844665527344" lon="13.125472068786621">
<ele>73.5999984741211</ele>
<time>2014-02-15T15:39:13Z</time>
</trkpt>
<trkpt lat="52.62982940673828" lon="13.125370979309082">
<ele>73.4000015258789</ele>
<time>2014-02-15T15:39:14Z</time>
</trkpt>
<trkpt lat="52.62981414794922" lon="13.125271797180176">
<ele>73.5999984741211</ele>
<time>2014-02-15T15:39:15Z</time>
</trkpt>
<trkpt lat="52.62980270385742" lon="13.1251802444458">
<ele>73.4000015258789</ele>
<time>2014-02-15T15:39:16Z</time>
</trkpt>
<trkpt lat="52.629791259765625" lon="13.125086784362793">
<ele>73.5</ele>
<time>2014-02-15T15:39:17Z</time>
</trkpt>
<trkpt lat="52.62976837158203" lon="13.124945640563965">
<ele>73.69999694824219</ele>
<time>2014-02-15T15:39:19Z</time>
</trkpt>
<trkpt lat="52.629737854003906" lon="13.124847412109375">
<ele>72.5999984741211</ele>
<time>2014-02-15T15:39:20Z</time>
</trkpt>
<trkpt lat="52.62971878051758" lon="13.124761581420898">
<ele>72.5</ele>
<time>2014-02-15T15:39:21Z</time>
</trkpt>
<trkpt lat="52.629695892333984" lon="13.124678611755371">
<ele>73.0999984741211</ele>
<time>2014-02-15T15:39:22Z</time>
</trkpt>
<trkpt lat="52.62966537475586" lon="13.12458324432373">
<ele>73.19999694824219</ele>
<time>2014-02-15T15:39:23Z</time>
</trkpt>
<trkpt lat="52.62964630126953" lon="13.12448501586914">
<ele>73.5</ele>
<time>2014-02-15T15:39:24Z</time>
</trkpt>
<trkpt lat="52.62961959838867" lon="13.124390602111816">
<ele>73.4000015258789</ele>
<time>2014-02-15T15:39:25Z</time>
</trkpt>
<trkpt lat="52.62959671020508" lon="13.124305725097656">
<ele>72.9000015258789</ele>
<time>2014-02-15T15:39:26Z</time>
</trkpt>
<trkpt lat="52.629554748535156" lon="13.12421703338623">
<ele>74.5</ele>
<time>2014-02-15T15:39:27Z</time>
</trkpt>
<trkpt lat="52.629520416259766" lon="13.124140739440918">
<ele>74.4000015258789</ele>
<time>2014-02-15T15:39:28Z</time>
</trkpt>
<trkpt lat="52.629478454589844" lon="13.12406063079834">
<ele>74.4000015258789</ele>
<time>2014-02-15T15:39:29Z</time>
</trkpt>
<trkpt lat="52.62943649291992" lon="13.123991012573242">
<ele>74.4000015258789</ele>
<time>2014-02-15T15:39:30Z</time>
</trkpt>
<trkpt lat="52.629398345947266" lon="13.123916625976562">
<ele>74.80000305175781</ele>
<time>2014-02-15T15:39:31Z</time>
</trkpt>
<trkpt lat="52.629364013671875" lon="13.123841285705566">
<ele>74.80000305175781</ele>
<time>2014-02-15T15:39:32Z</time>
</trkpt>
<trkpt lat="52.62932586669922" lon="13.123769760131836">
<ele>74.80000305175781</ele>
<time>2014-02-15T15:39:33Z</time>
</trkpt>
<trkpt lat="52.62929916381836" lon="13.123692512512207">
<ele>75.30000305175781</ele>
<time>2014-02-15T15:39:34Z</time>
</trkpt>
<trkpt lat="52.62925720214844" lon="13.123623847961426">
<ele>75.5</ele>
<time>2014-02-15T15:39:35Z</time>
</trkpt>
<trkpt lat="52.62922286987305" lon="13.123546600341797">
<ele>75.30000305175781</ele>
<time>2014-02-15T15:39:36Z</time>
</trkpt>
<trkpt lat="52.62919616699219" lon="13.123457908630371">
<ele>77.19999694824219</ele>
<time>2014-02-15T15:39:37Z</time>
</trkpt>
<trkpt lat="52.62916946411133" lon="13.123373985290527">
<ele>77.5</ele>
<time>2014-02-15T15:39:38Z</time>
</trkpt>
<trkpt lat="52.629146575927734" lon="13.123285293579102">
<ele>77.5999984741211</ele>
<time>2014-02-15T15:39:39Z</time>
</trkpt>
<trkpt lat="52.629127502441406" lon="13.123189926147461">
<ele>77.30000305175781</ele>
<time>2014-02-15T15:39:40Z</time>
</trkpt>
<trkpt lat="52.629112243652344" lon="13.123098373413086">
<ele>77.19999694824219</ele>
<time>2014-02-15T15:39:41Z</time>
</trkpt>
<trkpt lat="52.62910842895508" lon="13.123007774353027">
<ele>77.19999694824219</ele>
<time>2014-02-15T15:39:42Z</time>
</trkpt>
<trkpt lat="52.62910461425781" lon="13.122913360595703">
<ele>77.19999694824219</ele>
<time>2014-02-15T15:39:43Z</time>
</trkpt>
<trkpt lat="52.62909698486328" lon="13.122820854187012">
<ele>77.0</ele>
<time>2014-02-15T15:39:44Z</time>
</trkpt>
<trkpt lat="52.629093170166016" lon="13.122727394104004">
<ele>76.69999694824219</ele>
<time>2014-02-15T15:39:45Z</time>
</trkpt>
<trkpt lat="52.62908935546875" lon="13.122636795043945">
<ele>77.0</ele>
<time>2014-02-15T15:39:46Z</time>
</trkpt>
<trkpt lat="52.62908172607422" lon="13.122544288635254">
<ele>77.0999984741211</ele>
<time>2014-02-15T15:39:47Z</time>
</trkpt>
<trkpt lat="52.629066467285156" lon="13.122456550598145">
<ele>76.5999984741211</ele>
<time>2014-02-15T15:39:48Z</time>
</trkpt>
<trkpt lat="52.62905502319336" lon="13.122363090515137">
<ele>76.9000015258789</ele>
<time>2014-02-15T15:39:49Z</time>
</trkpt>
<trkpt lat="52.62904357910156" lon="13.122273445129395">
<ele>76.9000015258789</ele>
<time>2014-02-15T15:39:50Z</time>
</trkpt>
<trkpt lat="52.629024505615234" lon="13.122187614440918">
<ele>76.9000015258789</ele>
<time>2014-02-15T15:39:51Z</time>
</trkpt>
<trkpt lat="52.62900161743164" lon="13.122099876403809">
<ele>76.5999984741211</ele>
<time>2014-02-15T15:39:52Z</time>
</trkpt>
<trkpt lat="52.62897872924805" lon="13.122011184692383">
<ele>76.19999694824219</ele>
<time>2014-02-15T15:39:53Z</time>
</trkpt>
<trkpt lat="52.62895965576172" lon="13.121927261352539">
<ele>76.30000305175781</ele>
<time>2014-02-15T15:39:54Z</time>
</trkpt>
<trkpt lat="52.628944396972656" lon="13.12183666229248">
<ele>76.30000305175781</ele>
<time>2014-02-15T15:39:55Z</time>
</trkpt>
<trkpt lat="52.6289176940918" lon="13.121748924255371">
<ele>76.5</ele>
<time>2014-02-15T15:39:56Z</time>
</trkpt>
<trkpt lat="52.6288948059082" lon="13.121663093566895">
<ele>76.5</ele>
<time>2014-02-15T15:39:57Z</time>
</trkpt>
<trkpt lat="52.62887954711914" lon="13.121572494506836">
<ele>76.69999694824219</ele>
<time>2014-02-15T15:39:58Z</time>
</trkpt>
<trkpt lat="52.62886047363281" lon="13.121489524841309">
<ele>76.5</ele>
<time>2014-02-15T15:39:59Z</time>
</trkpt>
<trkpt lat="52.628849029541016" lon="13.1213960647583">
<ele>76.5999984741211</ele>
<time>2014-02-15T15:40:00Z</time>
</trkpt>
<trkpt lat="52.62884521484375" lon="13.12130069732666">
<ele>76.69999694824219</ele>
<time>2014-02-15T15:40:01Z</time>
</trkpt>
<trkpt lat="52.628841400146484" lon="13.12121868133545">
<ele>76.69999694824219</ele>
<time>2014-02-15T15:40:02Z</time>
</trkpt>
<trkpt lat="52.628849029541016" lon="13.121131896972656">
<ele>76.5</ele>
<time>2014-02-15T15:40:03Z</time>
</trkpt>
<trkpt lat="52.62886047363281" lon="13.121044158935547">
<ele>76.5</ele>
<time>2014-02-15T15:40:04Z</time>
</trkpt>
<trkpt lat="52.628883361816406" lon="13.12095832824707">
<ele>76.4000015258789</ele>
<time>2014-02-15T15:40:05Z</time>
</trkpt>
<trkpt lat="52.6289176940918" lon="13.120892524719238">
<ele>77.19999694824219</ele>
<time>2014-02-15T15:40:06Z</time>
</trkpt>
<trkpt lat="52.62895202636719" lon="13.120834350585938">
<ele>77.19999694824219</ele>
<time>2014-02-15T15:40:07Z</time>
</trkpt>
<trkpt lat="52.62899398803711" lon="13.120781898498535">
<ele>76.5999984741211</ele>
<time>2014-02-15T15:40:08Z</time>
</trkpt>
<trkpt lat="52.6290283203125" lon="13.120723724365234">
<ele>76.30000305175781</ele>
<time>2014-02-15T15:40:09Z</time>
</trkpt>
<trkpt lat="52.62904357910156" lon="13.12063980102539">
<ele>75.69999694824219</ele>
<time>2014-02-15T15:40:10Z</time>
</trkpt>
<trkpt lat="52.62904357910156" lon="13.120546340942383">
<ele>75.5999984741211</ele>
<time>2014-02-15T15:40:11Z</time>
</trkpt>
<trkpt lat="52.6290168762207" lon="13.120471954345703">
<ele>75.69999694824219</ele>
<time>2014-02-15T15:40:12Z</time>
</trkpt>
<trkpt lat="52.62898254394531" lon="13.120406150817871">
<ele>75.9000015258789</ele>
<time>2014-02-15T15:40:13Z</time>
</trkpt>
<trkpt lat="52.62894821166992" lon="13.120339393615723">
<ele>75.5999984741211</ele>
<time>2014-02-15T15:40:14Z</time>
</trkpt>
<trkpt lat="52.628910064697266" lon="13.120271682739258">
<ele>75.5999984741211</ele>
<time>2014-02-15T15:40:15Z</time>
</trkpt>
<trkpt lat="52.62887191772461" lon="13.120198249816895">
<ele>75.5999984741211</ele>
<time>2014-02-15T15:40:16Z</time>
</trkpt>
<trkpt lat="52.62882995605469" lon="13.120131492614746">
<ele>75.9000015258789</ele>
<time>2014-02-15T15:40:17Z</time>
</trkpt>
<trkpt lat="52.62879180908203" lon="13.120063781738281">
<ele>76.0</ele>
<time>2014-02-15T15:40:18Z</time>
</trkpt>
<trkpt lat="52.62875747680664" lon="13.119985580444336">
<ele>76.0999984741211</ele>
<time>2014-02-15T15:40:19Z</time>
</trkpt>
<trkpt lat="52.62872314453125" lon="13.119913101196289">
<ele>76.30000305175781</ele>
<time>2014-02-15T15:40:20Z</time>
</trkpt>
<trkpt lat="52.628684997558594" lon="13.119841575622559">
<ele>76.0999984741211</ele>
<time>2014-02-15T15:40:21Z</time>
</trkpt>
<trkpt lat="52.6286506652832" lon="13.119767189025879">
<ele>76.30000305175781</ele>
<time>2014-02-15T15:40:22Z</time>
</trkpt>
<trkpt lat="52.62862014770508" lon="13.119698524475098">
<ele>76.69999694824219</ele>
<time>2014-02-15T15:40:23Z</time>
</trkpt>
<trkpt lat="52.62858581542969" lon="13.119625091552734">
<ele>76.80000305175781</ele>
<time>2014-02-15T15:40:24Z</time>
</trkpt>
<trkpt lat="52.6285514831543" lon="13.119553565979004">
<ele>77.0999984741211</ele>
<time>2014-02-15T15:40:25Z</time>
</trkpt>
<trkpt lat="52.62852096557617" lon="13.11948013305664">
<ele>77.19999694824219</ele>
<time>2014-02-15T15:40:26Z</time>
</trkpt>
<trkpt lat="52.62848663330078" lon="13.119409561157227">
<ele>77.30000305175781</ele>
<time>2014-02-15T15:40:27Z</time>
</trkpt>
<trkpt lat="52.628456115722656" lon="13.119335174560547">
<ele>77.4000015258789</ele>
<time>2014-02-15T15:40:28Z</time>
</trkpt>
<trkpt lat="52.628421783447266" lon="13.11926555633545">
<ele>77.4000015258789</ele>
<time>2014-02-15T15:40:29Z</time>
</trkpt>
<trkpt lat="52.628387451171875" lon="13.119193077087402">
<ele>77.5</ele>
<time>2014-02-15T15:40:30Z</time>
</trkpt>
<trkpt lat="52.62835693359375" lon="13.119122505187988">
<ele>77.69999694824219</ele>
<time>2014-02-15T15:40:31Z</time>
</trkpt>
<trkpt lat="52.628326416015625" lon="13.11904525756836">
<ele>77.9000015258789</ele>
<time>2014-02-15T15:40:32Z</time>
</trkpt>
<trkpt lat="52.628299713134766" lon="13.11897087097168">
<ele>77.9000015258789</ele>
<time>2014-02-15T15:40:33Z</time>
</trkpt>
<trkpt lat="52.628265380859375" lon="13.118897438049316">
<ele>78.19999694824219</ele>
<time>2014-02-15T15:40:34Z</time>
</trkpt>
<trkpt lat="52.62823486328125" lon="13.118823051452637">
<ele>78.19999694824219</ele>
<time>2014-02-15T15:40:35Z</time>
</trkpt>
<trkpt lat="52.62820053100586" lon="13.118754386901855">
<ele>78.0999984741211</ele>
<time>2014-02-15T15:40:36Z</time>
</trkpt>
<trkpt lat="52.628170013427734" lon="13.118687629699707">
<ele>77.9000015258789</ele>
<time>2014-02-15T15:40:37Z</time>
</trkpt>
<trkpt lat="52.62813949584961" lon="13.11861801147461">
<ele>77.9000015258789</ele>
<time>2014-02-15T15:40:38Z</time>
</trkpt>
<trkpt lat="52.62810516357422" lon="13.118546485900879">
<ele>77.69999694824219</ele>
<time>2014-02-15T15:40:39Z</time>
</trkpt>
<trkpt lat="52.628074645996094" lon="13.118476867675781">
<ele>77.69999694824219</ele>
<time>2014-02-15T15:40:40Z</time>
</trkpt>
<trkpt lat="52.62804412841797" lon="13.118408203125">
<ele>77.9000015258789</ele>
<time>2014-02-15T15:40:41Z</time>
</trkpt>
<trkpt lat="52.628013610839844" lon="13.11833667755127">
<ele>77.69999694824219</ele>
<time>2014-02-15T15:40:42Z</time>
</trkpt>
<trkpt lat="52.62798309326172" lon="13.11826229095459">
<ele>77.5999984741211</ele>
<time>2014-02-15T15:40:43Z</time>
</trkpt>
<trkpt lat="52.627952575683594" lon="13.118193626403809">
<ele>77.0</ele>
<time>2014-02-15T15:40:44Z</time>
</trkpt>
<trkpt lat="52.62792205810547" lon="13.118125915527344">
<ele>76.5999984741211</ele>
<time>2014-02-15T15:40:45Z</time>
</trkpt>
<trkpt lat="52.62788391113281" lon="13.118060111999512">
<ele>77.0</ele>
<time>2014-02-15T15:40:46Z</time>
</trkpt>
<trkpt lat="52.62785339355469" lon="13.117993354797363">
<ele>76.9000015258789</ele>
<time>2014-02-15T15:40:47Z</time>
</trkpt>
<trkpt lat="52.6278190612793" lon="13.117926597595215">
<ele>77.0</ele>
<time>2014-02-15T15:40:48Z</time>
</trkpt>
<trkpt lat="52.62778854370117" lon="13.1178617477417">
<ele>77.0</ele>
<time>2014-02-15T15:40:49Z</time>
</trkpt>
<trkpt lat="52.62775421142578" lon="13.117791175842285">
<ele>77.0</ele>
<time>2014-02-15T15:40:50Z</time>
</trkpt>
<trkpt lat="52.62771987915039" lon="13.117728233337402">
<ele>76.9000015258789</ele>
<time>2014-02-15T15:40:51Z</time>
</trkpt>
<trkpt lat="52.62769317626953" lon="13.117669105529785">
<ele>75.0999984741211</ele>
<time>2014-02-15T15:40:52Z</time>
</trkpt>
<trkpt lat="52.627662658691406" lon="13.117600440979004">
<ele>74.80000305175781</ele>
<time>2014-02-15T15:40:53Z</time>
</trkpt>
<trkpt lat="52.62763595581055" lon="13.117524147033691">
<ele>75.4000015258789</ele>
<time>2014-02-15T15:40:54Z</time>
</trkpt>
<trkpt lat="52.627601623535156" lon="13.117446899414062">
<ele>75.30000305175781</ele>
<time>2014-02-15T15:40:55Z</time>
</trkpt>
<trkpt lat="52.62757110595703" lon="13.117374420166016">
<ele>75.0</ele>
<time>2014-02-15T15:40:56Z</time>
</trkpt>
<trkpt lat="52.627540588378906" lon="13.117300987243652">
<ele>75.0</ele>
<time>2014-02-15T15:40:57Z</time>
</trkpt>
<trkpt lat="52.627506256103516" lon="13.117228507995605">
<ele>75.0999984741211</ele>
<time>2014-02-15T15:40:58Z</time>
</trkpt>
<trkpt lat="52.62747573852539" lon="13.117155075073242">
<ele>75.0999984741211</ele>
<time>2014-02-15T15:40:59Z</time>
</trkpt>
<trkpt lat="52.627445220947266" lon="13.117081642150879">
<ele>75.4000015258789</ele>
<time>2014-02-15T15:41:00Z</time>
</trkpt>
<trkpt lat="52.627410888671875" lon="13.117009162902832">
<ele>75.4000015258789</ele>
<time>2014-02-15T15:41:01Z</time>
</trkpt>
<trkpt lat="52.62738037109375" lon="13.116939544677734">
<ele>75.19999694824219</ele>
<time>2014-02-15T15:41:02Z</time>
</trkpt>
<trkpt lat="52.627349853515625" lon="13.116867065429688">
<ele>74.9000015258789</ele>
<time>2014-02-15T15:41:03Z</time>
</trkpt>
<trkpt lat="52.6273193359375" lon="13.116792678833008">
<ele>74.80000305175781</ele>
<time>2014-02-15T15:41:04Z</time>
</trkpt>
<trkpt lat="52.627296447753906" lon="13.116716384887695">
<ele>74.80000305175781</ele>
<time>2014-02-15T15:41:05Z</time>
</trkpt>
<trkpt lat="52.62727355957031" lon="13.116636276245117">
<ele>74.9000015258789</ele>
<time>2014-02-15T15:41:06Z</time>
</trkpt>
<trkpt lat="52.62725067138672" lon="13.116557121276855">
<ele>75.0999984741211</ele>
<time>2014-02-15T15:41:07Z</time>
</trkpt>
<trkpt lat="52.62722396850586" lon="13.11647891998291">
<ele>74.80000305175781</ele>
<time>2014-02-15T15:41:08Z</time>
</trkpt>
<trkpt lat="52.627201080322266" lon="13.116402626037598">
<ele>74.4000015258789</ele>
<time>2014-02-15T15:41:09Z</time>
</trkpt>
<trkpt lat="52.627174377441406" lon="13.11632251739502">
<ele>74.0</ele>
<time>2014-02-15T15:41:10Z</time>
</trkpt>
<trkpt lat="52.62714385986328" lon="13.116241455078125">
<ele>74.0999984741211</ele>
<time>2014-02-15T15:41:11Z</time>
</trkpt>
<trkpt lat="52.62712097167969" lon="13.116165161132812">
<ele>73.5999984741211</ele>
<time>2014-02-15T15:41:12Z</time>
</trkpt>
<trkpt lat="52.62709426879883" lon="13.116087913513184">
<ele>73.0</ele>
<time>2014-02-15T15:41:13Z</time>
</trkpt>
<trkpt lat="52.62706756591797" lon="13.116009712219238">
<ele>72.5999984741211</ele>
<time>2014-02-15T15:41:14Z</time>
</trkpt>
<trkpt lat="52.627044677734375" lon="13.115925788879395">
<ele>72.5</ele>
<time>2014-02-15T15:41:15Z</time>
</trkpt>
<trkpt lat="52.62702560424805" lon="13.1158447265625">
<ele>72.30000305175781</ele>
<time>2014-02-15T15:41:16Z</time>
</trkpt>
<trkpt lat="52.62701416015625" lon="13.11575698852539">
<ele>72.4000015258789</ele>
<time>2014-02-15T15:41:17Z</time>
</trkpt>
<trkpt lat="52.62699890136719" lon="13.115669250488281">
<ele>72.30000305175781</ele>
<time>2014-02-15T15:41:18Z</time>
</trkpt>
<trkpt lat="52.626991271972656" lon="13.115580558776855">
<ele>72.19999694824219</ele>
<time>2014-02-15T15:41:19Z</time>
</trkpt>
<trkpt lat="52.626991271972656" lon="13.115483283996582">
<ele>72.19999694824219</ele>
<time>2014-02-15T15:41:20Z</time>
</trkpt>
<trkpt lat="52.62699508666992" lon="13.115399360656738">
<ele>72.0999984741211</ele>
<time>2014-02-15T15:41:21Z</time>
</trkpt>
<trkpt lat="52.62700271606445" lon="13.115315437316895">
<ele>72.19999694824219</ele>
<time>2014-02-15T15:41:22Z</time>
</trkpt>
<trkpt lat="52.627010345458984" lon="13.115229606628418">
<ele>71.69999694824219</ele>
<time>2014-02-15T15:41:23Z</time>
</trkpt>
<trkpt lat="52.627010345458984" lon="13.115152359008789">
<ele>71.19999694824219</ele>
<time>2014-02-15T15:41:24Z</time>
</trkpt>
<trkpt lat="52.62702560424805" lon="13.115042686462402">
<ele>72.80000305175781</ele>
<time>2014-02-15T15:41:25Z</time>
</trkpt>
<trkpt lat="52.62704086303711" lon="13.114948272705078">
<ele>72.9000015258789</ele>
<time>2014-02-15T15:41:26Z</time>
</trkpt>
<trkpt lat="52.627052307128906" lon="13.114859580993652">
<ele>73.0</ele>
<time>2014-02-15T15:41:27Z</time>
</trkpt>
<trkpt lat="52.62705993652344" lon="13.114785194396973">
<ele>73.19999694824219</ele>
<time>2014-02-15T15:41:28Z</time>
</trkpt>
<trkpt lat="52.62705993652344" lon="13.114701271057129">
<ele>71.5</ele>
<time>2014-02-15T15:41:29Z</time>
</trkpt>
<trkpt lat="52.62706756591797" lon="13.114627838134766">
<ele>71.0999984741211</ele>
<time>2014-02-15T15:41:30Z</time>
</trkpt>
<trkpt lat="52.6270751953125" lon="13.114547729492188">
<ele>70.19999694824219</ele>
<time>2014-02-15T15:41:31Z</time>
</trkpt>
<trkpt lat="52.627079010009766" lon="13.114459991455078">
<ele>69.80000305175781</ele>
<time>2014-02-15T15:41:32Z</time>
</trkpt>
<trkpt lat="52.6270866394043" lon="13.114312171936035">
<ele>69.19999694824219</ele>
<time>2014-02-15T15:41:34Z</time>
</trkpt>
<trkpt lat="52.6270866394043" lon="13.114232063293457">
<ele>68.69999694824219</ele>
<time>2014-02-15T15:41:35Z</time>
</trkpt>
<trkpt lat="52.62709426879883" lon="13.114145278930664">
<ele>68.5</ele>
<time>2014-02-15T15:41:36Z</time>
</trkpt>
<trkpt lat="52.62710189819336" lon="13.114055633544922">
<ele>68.0</ele>
<time>2014-02-15T15:41:37Z</time>
</trkpt>
<trkpt lat="52.627105712890625" lon="13.113959312438965">
<ele>67.0</ele>
<time>2014-02-15T15:41:38Z</time>
</trkpt>
<trkpt lat="52.62712478637695" lon="13.113872528076172">
<ele>68.30000305175781</ele>
<time>2014-02-15T15:41:39Z</time>
</trkpt>
<trkpt lat="52.62713623046875" lon="13.113785743713379">
<ele>68.69999694824219</ele>
<time>2014-02-15T15:41:40Z</time>
</trkpt>
<trkpt lat="52.62714385986328" lon="13.113696098327637">
<ele>68.80000305175781</ele>
<time>2014-02-15T15:41:41Z</time>
</trkpt>
<trkpt lat="52.62715148925781" lon="13.113598823547363">
<ele>68.69999694824219</ele>
<time>2014-02-15T15:41:42Z</time>
</trkpt>
<trkpt lat="52.627174377441406" lon="13.113487243652344">
<ele>68.4000015258789</ele>
<time>2014-02-15T15:41:43Z</time>
</trkpt>
<trkpt lat="52.62718963623047" lon="13.113394737243652">
<ele>68.5</ele>
<time>2014-02-15T15:41:44Z</time>
</trkpt>
<trkpt lat="52.62720489501953" lon="13.113293647766113">
<ele>67.69999694824219</ele>
<time>2014-02-15T15:41:45Z</time>
</trkpt>
<trkpt lat="52.627227783203125" lon="13.113198280334473">
<ele>67.0</ele>
<time>2014-02-15T15:41:46Z</time>
</trkpt>
<trkpt lat="52.62723922729492" lon="13.113112449645996">
<ele>66.4000015258789</ele>
<time>2014-02-15T15:41:47Z</time>
</trkpt>
<trkpt lat="52.627254486083984" lon="13.113016128540039">
<ele>65.80000305175781</ele>
<time>2014-02-15T15:41:48Z</time>
</trkpt>
<trkpt lat="52.62727355957031" lon="13.112844467163086">
<ele>65.19999694824219</ele>
<time>2014-02-15T15:41:50Z</time>
</trkpt>
<trkpt lat="52.62730407714844" lon="13.112739562988281">
<ele>65.30000305175781</ele>
<time>2014-02-15T15:41:51Z</time>
</trkpt>
<trkpt lat="52.6273193359375" lon="13.112648963928223">
<ele>65.4000015258789</ele>
<time>2014-02-15T15:41:52Z</time>
</trkpt>
<trkpt lat="52.627323150634766" lon="13.112569808959961">
<ele>65.0999984741211</ele>
<time>2014-02-15T15:41:53Z</time>
</trkpt>
<trkpt lat="52.62733840942383" lon="13.112469673156738">
<ele>65.5999984741211</ele>
<time>2014-02-15T15:41:54Z</time>
</trkpt>
<trkpt lat="52.627357482910156" lon="13.112387657165527">
<ele>66.80000305175781</ele>
<time>2014-02-15T15:41:55Z</time>
</trkpt>
<trkpt lat="52.62736129760742" lon="13.11230754852295">
<ele>67.19999694824219</ele>
<time>2014-02-15T15:41:56Z</time>
</trkpt>
<trkpt lat="52.62737274169922" lon="13.112187385559082">
<ele>67.4000015258789</ele>
<time>2014-02-15T15:41:57Z</time>
</trkpt>
<trkpt lat="52.62736511230469" lon="13.112112045288086">
<ele>67.5</ele>
<time>2014-02-15T15:41:58Z</time>
</trkpt>
<trkpt lat="52.62736129760742" lon="13.112028121948242">
<ele>68.0999984741211</ele>
<time>2014-02-15T15:41:59Z</time>
</trkpt>
<trkpt lat="52.62736511230469" lon="13.111933708190918">
<ele>68.19999694824219</ele>
<time>2014-02-15T15:42:00Z</time>
</trkpt>
<trkpt lat="52.62736892700195" lon="13.11184024810791">
<ele>68.5</ele>
<time>2014-02-15T15:42:01Z</time>
</trkpt>
<trkpt lat="52.62736129760742" lon="13.111746788024902">
<ele>68.5999984741211</ele>
<time>2014-02-15T15:42:02Z</time>
</trkpt>
<trkpt lat="52.62736129760742" lon="13.111665725708008">
<ele>68.5999984741211</ele>
<time>2014-02-15T15:42:03Z</time>
</trkpt>
<trkpt lat="52.627349853515625" lon="13.111577033996582">
<ele>68.4000015258789</ele>
<time>2014-02-15T15:42:04Z</time>
</trkpt>
<trkpt lat="52.627342224121094" lon="13.111498832702637">
<ele>68.0999984741211</ele>
<time>2014-02-15T15:42:05Z</time>
</trkpt>
<trkpt lat="52.62733840942383" lon="13.111408233642578">
<ele>68.5999984741211</ele>
<time>2014-02-15T15:42:06Z</time>
</trkpt>
<trkpt lat="52.6273307800293" lon="13.111320495605469">
<ele>69.30000305175781</ele>
<time>2014-02-15T15:42:07Z</time>
</trkpt>
<trkpt lat="52.6273307800293" lon="13.111239433288574">
<ele>68.80000305175781</ele>
<time>2014-02-15T15:42:08Z</time>
</trkpt>
<trkpt lat="52.62733459472656" lon="13.111153602600098">
<ele>68.80000305175781</ele>
<time>2014-02-15T15:42:09Z</time>
</trkpt>
<trkpt lat="52.62732696533203" lon="13.111048698425293">
<ele>68.69999694824219</ele>
<time>2014-02-15T15:42:10Z</time>
</trkpt>
<trkpt lat="52.627323150634766" lon="13.110955238342285">
<ele>68.5</ele>
<time>2014-02-15T15:42:11Z</time>
</trkpt>
<trkpt lat="52.627323150634766" lon="13.110868453979492">
<ele>68.80000305175781</ele>
<time>2014-02-15T15:42:12Z</time>
</trkpt>
<trkpt lat="52.627315521240234" lon="13.110756874084473">
<ele>68.5</ele>
<time>2014-02-15T15:42:13Z</time>
</trkpt>
<trkpt lat="52.6273078918457" lon="13.110674858093262">
<ele>67.5</ele>
<time>2014-02-15T15:42:14Z</time>
</trkpt>
<trkpt lat="52.62731170654297" lon="13.110594749450684">
<ele>67.30000305175781</ele>
<time>2014-02-15T15:42:15Z</time>
</trkpt>
<trkpt lat="52.62731170654297" lon="13.110516548156738">
<ele>67.5999984741211</ele>
<time>2014-02-15T15:42:16Z</time>
</trkpt>
<trkpt lat="52.62730407714844" lon="13.110377311706543">
<ele>68.5</ele>
<time>2014-02-15T15:42:18Z</time>
</trkpt>
<trkpt lat="52.62730026245117" lon="13.11029052734375">
<ele>68.0999984741211</ele>
<time>2014-02-15T15:42:19Z</time>
</trkpt>
<trkpt lat="52.62729263305664" lon="13.110183715820312">
<ele>68.30000305175781</ele>
<time>2014-02-15T15:42:20Z</time>
</trkpt>
<trkpt lat="52.62727737426758" lon="13.110068321228027">
<ele>67.69999694824219</ele>
<time>2014-02-15T15:42:21Z</time>
</trkpt>
<trkpt lat="52.627281188964844" lon="13.109975814819336">
<ele>67.5</ele>
<time>2014-02-15T15:42:22Z</time>
</trkpt>
<trkpt lat="52.627281188964844" lon="13.109877586364746">
<ele>67.69999694824219</ele>
<time>2014-02-15T15:42:23Z</time>
</trkpt>
<trkpt lat="52.627281188964844" lon="13.109794616699219">
<ele>68.5</ele>
<time>2014-02-15T15:42:24Z</time>
</trkpt>
<trkpt lat="52.627281188964844" lon="13.109697341918945">
<ele>69.0</ele>
<time>2014-02-15T15:42:25Z</time>
</trkpt>
<trkpt lat="52.62727355957031" lon="13.109620094299316">
<ele>68.9000015258789</ele>
<time>2014-02-15T15:42:26Z</time>
</trkpt>
<trkpt lat="52.62726974487305" lon="13.109540939331055">
<ele>68.69999694824219</ele>
<time>2014-02-15T15:42:27Z</time>
</trkpt>
<trkpt lat="52.627262115478516" lon="13.109465599060059">
<ele>68.69999694824219</ele>
<time>2014-02-15T15:42:28Z</time>
</trkpt>
<trkpt lat="52.62725830078125" lon="13.10937786102295">
<ele>68.4000015258789</ele>
<time>2014-02-15T15:42:29Z</time>
</trkpt>
<trkpt lat="52.627262115478516" lon="13.109288215637207">
<ele>68.19999694824219</ele>
<time>2014-02-15T15:42:30Z</time>
</trkpt>
<trkpt lat="52.627254486083984" lon="13.109196662902832">
<ele>68.19999694824219</ele>
<time>2014-02-15T15:42:31Z</time>
</trkpt>
<trkpt lat="52.62724685668945" lon="13.109099388122559">
<ele>68.19999694824219</ele>
<time>2014-02-15T15:42:32Z</time>
</trkpt>
<trkpt lat="52.62725067138672" lon="13.10899543762207">
<ele>68.0999984741211</ele>
<time>2014-02-15T15:42:33Z</time>
</trkpt>
<trkpt lat="52.62724685668945" lon="13.108905792236328">
<ele>68.0</ele>
<time>2014-02-15T15:42:34Z</time>
</trkpt>
<trkpt lat="52.627254486083984" lon="13.108827590942383">
<ele>68.0999984741211</ele>
<time>2014-02-15T15:42:35Z</time>
</trkpt>
<trkpt lat="52.62724685668945" lon="13.108663558959961">
<ele>68.30000305175781</ele>
<time>2014-02-15T15:42:37Z</time>
</trkpt>
<trkpt lat="52.62724304199219" lon="13.10858154296875">
<ele>67.9000015258789</ele>
<time>2014-02-15T15:42:38Z</time>
</trkpt>
<trkpt lat="52.62726593017578" lon="13.108450889587402">
<ele>71.30000305175781</ele>
<time>2014-02-15T15:42:39Z</time>
</trkpt>
<trkpt lat="52.62728500366211" lon="13.108363151550293">
<ele>72.5999984741211</ele>
<time>2014-02-15T15:42:40Z</time>
</trkpt>
<trkpt lat="52.6273307800293" lon="13.108271598815918">
<ele>73.0</ele>
<time>2014-02-15T15:42:41Z</time>
</trkpt>
<trkpt lat="52.62736892700195" lon="13.108166694641113">
<ele>71.80000305175781</ele>
<time>2014-02-15T15:42:42Z</time>
</trkpt>
<trkpt lat="52.62739181518555" lon="13.108072280883789">
<ele>72.5999984741211</ele>
<time>2014-02-15T15:42:43Z</time>
</trkpt>
<trkpt lat="52.62739181518555" lon="13.10798454284668">
<ele>73.0</ele>
<time>2014-02-15T15:42:44Z</time>
</trkpt>
<trkpt lat="52.62738800048828" lon="13.107903480529785">
<ele>72.69999694824219</ele>
<time>2014-02-15T15:42:45Z</time>
</trkpt>
<trkpt lat="52.62739944458008" lon="13.10780143737793">
<ele>72.80000305175781</ele>
<time>2014-02-15T15:42:46Z</time>
</trkpt>
<trkpt lat="52.627410888671875" lon="13.107717514038086">
<ele>72.5999984741211</ele>
<time>2014-02-15T15:42:47Z</time>
</trkpt>
<trkpt lat="52.6274299621582" lon="13.107625007629395">
<ele>72.5999984741211</ele>
<time>2014-02-15T15:42:48Z</time>
</trkpt>
<trkpt lat="52.6274528503418" lon="13.1075439453125">
<ele>72.5999984741211</ele>
<time>2014-02-15T15:42:49Z</time>
</trkpt>
<trkpt lat="52.627471923828125" lon="13.107458114624023">
<ele>72.0</ele>
<time>2014-02-15T15:42:50Z</time>
</trkpt>
<trkpt lat="52.62749099731445" lon="13.107378005981445">
<ele>71.9000015258789</ele>
<time>2014-02-15T15:42:51Z</time>
</trkpt>
<trkpt lat="52.62752914428711" lon="13.107234954833984">
<ele>71.0999984741211</ele>
<time>2014-02-15T15:42:53Z</time>
</trkpt>
<trkpt lat="52.6275749206543" lon="13.107147216796875">
<ele>70.5999984741211</ele>
<time>2014-02-15T15:42:54Z</time>
</trkpt>
<trkpt lat="52.627601623535156" lon="13.107071876525879">
<ele>70.0999984741211</ele>
<time>2014-02-15T15:42:55Z</time>
</trkpt>
<trkpt lat="52.62762451171875" lon="13.106988906860352">
<ele>70.0</ele>
<time>2014-02-15T15:42:56Z</time>
</trkpt>
<trkpt lat="52.627647399902344" lon="13.106907844543457">
<ele>69.5999984741211</ele>
<time>2014-02-15T15:42:57Z</time>
</trkpt>
<trkpt lat="52.62767028808594" lon="13.10682487487793">
<ele>69.30000305175781</ele>
<time>2014-02-15T15:42:58Z</time>
</trkpt>
<trkpt lat="52.62770080566406" lon="13.106754302978516">
<ele>68.69999694824219</ele>
<time>2014-02-15T15:42:59Z</time>
</trkpt>
<trkpt lat="52.62772750854492" lon="13.106689453125">
<ele>68.19999694824219</ele>
<time>2014-02-15T15:43:00Z</time>
</trkpt>
<trkpt lat="52.62775421142578" lon="13.106607437133789">
<ele>68.0999984741211</ele>
<time>2014-02-15T15:43:01Z</time>
</trkpt>
<trkpt lat="52.62778854370117" lon="13.106515884399414">
<ele>68.30000305175781</ele>
<time>2014-02-15T15:43:02Z</time>
</trkpt>
<trkpt lat="52.6278076171875" lon="13.106444358825684">
<ele>67.9000015258789</ele>
<time>2014-02-15T15:43:03Z</time>
</trkpt>
<trkpt lat="52.627838134765625" lon="13.10637378692627">
<ele>68.69999694824219</ele>
<time>2014-02-15T15:43:04Z</time>
</trkpt>
<trkpt lat="52.62786102294922" lon="13.10629940032959">
<ele>68.5999984741211</ele>
<time>2014-02-15T15:43:05Z</time>
</trkpt>
<trkpt lat="52.62788772583008" lon="13.106231689453125">
<ele>68.0999984741211</ele>
<time>2014-02-15T15:43:06Z</time>
</trkpt>
<trkpt lat="52.6279296875" lon="13.106146812438965">
<ele>68.4000015258789</ele>
<time>2014-02-15T15:43:07Z</time>
</trkpt>
<trkpt lat="52.627960205078125" lon="13.106074333190918">
<ele>68.19999694824219</ele>
<time>2014-02-15T15:43:08Z</time>
</trkpt>
<trkpt lat="52.62798309326172" lon="13.105997085571289">
<ele>68.4000015258789</ele>
<time>2014-02-15T15:43:09Z</time>
</trkpt>
<trkpt lat="52.62800216674805" lon="13.105918884277344">
<ele>68.80000305175781</ele>
<time>2014-02-15T15:43:10Z</time>
</trkpt>
<trkpt lat="52.628028869628906" lon="13.105840682983398">
<ele>68.5999984741211</ele>
<time>2014-02-15T15:43:11Z</time>
</trkpt>
<trkpt lat="52.62804412841797" lon="13.105767250061035">
<ele>67.4000015258789</ele>
<time>2014-02-15T15:43:12Z</time>
</trkpt>
<trkpt lat="52.628074645996094" lon="13.105670928955078">
<ele>67.5</ele>
<time>2014-02-15T15:43:13Z</time>
</trkpt>
<trkpt lat="52.628089904785156" lon="13.10560131072998">
<ele>67.19999694824219</ele>
<time>2014-02-15T15:43:14Z</time>
</trkpt>
<trkpt lat="52.62812042236328" lon="13.105518341064453">
<ele>67.4000015258789</ele>
<time>2014-02-15T15:43:15Z</time>
</trkpt>
<trkpt lat="52.62814712524414" lon="13.105429649353027">
<ele>67.9000015258789</ele>
<time>2014-02-15T15:43:16Z</time>
</trkpt>
<trkpt lat="52.628170013427734" lon="13.105351448059082">
<ele>68.0999984741211</ele>
<time>2014-02-15T15:43:17Z</time>
</trkpt>
<trkpt lat="52.62819290161133" lon="13.105269432067871">
<ele>68.0999984741211</ele>
<time>2014-02-15T15:43:18Z</time>
</trkpt>
<trkpt lat="52.62820053100586" lon="13.105185508728027">
<ele>67.69999694824219</ele>
<time>2014-02-15T15:43:19Z</time>
</trkpt>
<trkpt lat="52.62821578979492" lon="13.105101585388184">
<ele>67.5999984741211</ele>
<time>2014-02-15T15:43:20Z</time>
</trkpt>
<trkpt lat="52.628238677978516" lon="13.10501480102539">
<ele>67.69999694824219</ele>
<time>2014-02-15T15:43:21Z</time>
</trkpt>
<trkpt lat="52.628238677978516" lon="13.104931831359863">
<ele>67.80000305175781</ele>
<time>2014-02-15T15:43:22Z</time>
</trkpt>
<trkpt lat="52.62825393676758" lon="13.104842185974121">
<ele>68.0</ele>
<time>2014-02-15T15:43:23Z</time>
</trkpt>
<trkpt lat="52.62826156616211" lon="13.104764938354492">
<ele>67.80000305175781</ele>
<time>2014-02-15T15:43:24Z</time>
</trkpt>
<trkpt lat="52.62827682495117" lon="13.104673385620117">
<ele>68.4000015258789</ele>
<time>2014-02-15T15:43:25Z</time>
</trkpt>
<trkpt lat="52.62828826904297" lon="13.104582786560059">
<ele>68.4000015258789</ele>
<time>2014-02-15T15:43:26Z</time>
</trkpt>
<trkpt lat="52.6282958984375" lon="13.104499816894531">
<ele>68.30000305175781</ele>
<time>2014-02-15T15:43:27Z</time>
</trkpt>
<trkpt lat="52.628318786621094" lon="13.104425430297852">
<ele>68.5</ele>
<time>2014-02-15T15:43:28Z</time>
</trkpt>
<trkpt lat="52.62834930419922" lon="13.10427474975586">
<ele>67.69999694824219</ele>
<time>2014-02-15T15:43:30Z</time>
</trkpt>
<trkpt lat="52.62836837768555" lon="13.104195594787598">
<ele>67.4000015258789</ele>
<time>2014-02-15T15:43:31Z</time>
</trkpt>
<trkpt lat="52.62838363647461" lon="13.104108810424805">
<ele>67.19999694824219</ele>
<time>2014-02-15T15:43:32Z</time>
</trkpt>
<trkpt lat="52.62840270996094" lon="13.104029655456543">
<ele>67.30000305175781</ele>
<time>2014-02-15T15:43:33Z</time>
</trkpt>
<trkpt lat="52.62842559814453" lon="13.10393238067627">
<ele>67.19999694824219</ele>
<time>2014-02-15T15:43:34Z</time>
</trkpt>
<trkpt lat="52.62843704223633" lon="13.103849411010742">
<ele>66.30000305175781</ele>
<time>2014-02-15T15:43:35Z</time>
</trkpt>
<trkpt lat="52.628440856933594" lon="13.10376262664795">
<ele>66.19999694824219</ele>
<time>2014-02-15T15:43:36Z</time>
</trkpt>
<trkpt lat="52.62844467163086" lon="13.10367202758789">
<ele>65.9000015258789</ele>
<time>2014-02-15T15:43:37Z</time>
</trkpt>
<trkpt lat="52.62846755981445" lon="13.103593826293945">
<ele>65.5</ele>
<time>2014-02-15T15:43:38Z</time>
</trkpt>
<trkpt lat="52.628475189208984" lon="13.103456497192383">
<ele>65.19999694824219</ele>
<time>2014-02-15T15:43:40Z</time>
</trkpt>
<trkpt lat="52.62848663330078" lon="13.103379249572754">
<ele>64.9000015258789</ele>
<time>2014-02-15T15:43:41Z</time>
</trkpt>
<trkpt lat="52.62853240966797" lon="13.103272438049316">
<ele>73.0999984741211</ele>
<time>2014-02-15T15:43:42Z</time>
</trkpt>
<trkpt lat="52.62855529785156" lon="13.103184700012207">
<ele>74.5999984741211</ele>
<time>2014-02-15T15:43:43Z</time>
</trkpt>
<trkpt lat="52.62856674194336" lon="13.103094100952148">
<ele>73.5</ele>
<time>2014-02-15T15:43:44Z</time>
</trkpt>
<trkpt lat="52.62857437133789" lon="13.103010177612305">
<ele>72.5</ele>
<time>2014-02-15T15:43:45Z</time>
</trkpt>
<trkpt lat="52.62858581542969" lon="13.102923393249512">
<ele>72.5</ele>
<time>2014-02-15T15:43:46Z</time>
</trkpt>
<trkpt lat="52.62861633300781" lon="13.102861404418945">
<ele>74.80000305175781</ele>
<time>2014-02-15T15:43:47Z</time>
</trkpt>
<trkpt lat="52.628631591796875" lon="13.102785110473633">
<ele>74.4000015258789</ele>
<time>2014-02-15T15:43:48Z</time>
</trkpt>
<trkpt lat="52.6286506652832" lon="13.102696418762207">
<ele>74.5</ele>
<time>2014-02-15T15:43:49Z</time>
</trkpt>
<trkpt lat="52.628658294677734" lon="13.102606773376465">
<ele>74.4000015258789</ele>
<time>2014-02-15T15:43:50Z</time>
</trkpt>
<trkpt lat="52.628662109375" lon="13.102513313293457">
<ele>73.5</ele>
<time>2014-02-15T15:43:51Z</time>
</trkpt>
<trkpt lat="52.628684997558594" lon="13.102432250976562">
<ele>72.5999984741211</ele>
<time>2014-02-15T15:43:52Z</time>
</trkpt>
<trkpt lat="52.62867736816406" lon="13.10235595703125">
<ele>72.0999984741211</ele>
<time>2014-02-15T15:43:53Z</time>
</trkpt>
<trkpt lat="52.628700256347656" lon="13.10219955444336">
<ele>70.5999984741211</ele>
<time>2014-02-15T15:43:55Z</time>
</trkpt>
<trkpt lat="52.62870788574219" lon="13.102091789245605">
<ele>70.0</ele>
<time>2014-02-15T15:43:56Z</time>
</trkpt>
<trkpt lat="52.628719329833984" lon="13.101968765258789">
<ele>69.19999694824219</ele>
<time>2014-02-15T15:43:57Z</time>
</trkpt>
<trkpt lat="52.62874984741211" lon="13.10186767578125">
<ele>70.9000015258789</ele>
<time>2014-02-15T15:43:58Z</time>
</trkpt>
<trkpt lat="52.62874984741211" lon="13.101783752441406">
<ele>70.5999984741211</ele>
<time>2014-02-15T15:43:59Z</time>
</trkpt>
<trkpt lat="52.628753662109375" lon="13.101709365844727">
<ele>70.80000305175781</ele>
<time>2014-02-15T15:44:00Z</time>
</trkpt>
<trkpt lat="52.628780364990234" lon="13.10162353515625">
<ele>70.5</ele>
<time>2014-02-15T15:44:01Z</time>
</trkpt>
<trkpt lat="52.62880325317383" lon="13.101531028747559">
<ele>70.0</ele>
<time>2014-02-15T15:44:02Z</time>
</trkpt>
<trkpt lat="52.628814697265625" lon="13.101433753967285">
<ele>70.0999984741211</ele>
<time>2014-02-15T15:44:03Z</time>
</trkpt>
<trkpt lat="52.62881851196289" lon="13.101349830627441">
<ele>69.80000305175781</ele>
<time>2014-02-15T15:44:04Z</time>
</trkpt>
<trkpt lat="52.62883758544922" lon="13.101251602172852">
<ele>70.30000305175781</ele>
<time>2014-02-15T15:44:05Z</time>
</trkpt>
<trkpt lat="52.62885284423828" lon="13.10114860534668">
<ele>70.0999984741211</ele>
<time>2014-02-15T15:44:06Z</time>
</trkpt>
<trkpt lat="52.628868103027344" lon="13.101072311401367">
<ele>70.0</ele>
<time>2014-02-15T15:44:07Z</time>
</trkpt>
<trkpt lat="52.628883361816406" lon="13.100994110107422">
<ele>69.30000305175781</ele>
<time>2014-02-15T15:44:08Z</time>
</trkpt>
<trkpt lat="52.62889099121094" lon="13.100911140441895">
<ele>68.80000305175781</ele>
<time>2014-02-15T15:44:09Z</time>
</trkpt>
<trkpt lat="52.62889862060547" lon="13.100837707519531">
<ele>69.30000305175781</ele>
<time>2014-02-15T15:44:10Z</time>
</trkpt>
<trkpt lat="52.6289176940918" lon="13.100747108459473">
<ele>68.9000015258789</ele>
<time>2014-02-15T15:44:11Z</time>
</trkpt>
<trkpt lat="52.62894058227539" lon="13.100642204284668">
<ele>69.0999984741211</ele>
<time>2014-02-15T15:44:12Z</time>
</trkpt>
<trkpt lat="52.62895584106445" lon="13.10055923461914">
<ele>68.9000015258789</ele>
<time>2014-02-15T15:44:13Z</time>
</trkpt>
<trkpt lat="52.628971099853516" lon="13.100407600402832">
<ele>68.9000015258789</ele>
<time>2014-02-15T15:44:15Z</time>
</trkpt>
<trkpt lat="52.62898635864258" lon="13.100314140319824">
<ele>68.5999984741211</ele>
<time>2014-02-15T15:44:16Z</time>
</trkpt>
<trkpt lat="52.629005432128906" lon="13.10021686553955">
<ele>68.69999694824219</ele>
<time>2014-02-15T15:44:17Z</time>
</trkpt>
<trkpt lat="52.629032135009766" lon="13.100123405456543">
<ele>69.30000305175781</ele>
<time>2014-02-15T15:44:18Z</time>
</trkpt>
<trkpt lat="52.62904357910156" lon="13.100049018859863">
<ele>69.69999694824219</ele>
<time>2014-02-15T15:44:19Z</time>
</trkpt>
<trkpt lat="52.62905502319336" lon="13.099967002868652">
<ele>68.5999984741211</ele>
<time>2014-02-15T15:44:20Z</time>
</trkpt>
<trkpt lat="52.62907028198242" lon="13.099881172180176">
<ele>68.9000015258789</ele>
<time>2014-02-15T15:44:21Z</time>
</trkpt>
<trkpt lat="52.62907791137695" lon="13.099802017211914">
<ele>68.0999984741211</ele>
<time>2014-02-15T15:44:22Z</time>
</trkpt>
<trkpt lat="52.62908172607422" lon="13.099726676940918">
<ele>67.80000305175781</ele>
<time>2014-02-15T15:44:23Z</time>
</trkpt>
<trkpt lat="52.62909698486328" lon="13.099656105041504">
<ele>67.5</ele>
<time>2014-02-15T15:44:24Z</time>
</trkpt>
<trkpt lat="52.62911605834961" lon="13.099557876586914">
<ele>66.4000015258789</ele>
<time>2014-02-15T15:44:25Z</time>
</trkpt>
<trkpt lat="52.62913131713867" lon="13.099454879760742">
<ele>66.5999984741211</ele>
<time>2014-02-15T15:44:26Z</time>
</trkpt>
<trkpt lat="52.62914276123047" lon="13.099370956420898">
<ele>66.5</ele>
<time>2014-02-15T15:44:27Z</time>
</trkpt>
<trkpt lat="52.62915802001953" lon="13.099287986755371">
<ele>66.4000015258789</ele>
<time>2014-02-15T15:44:28Z</time>
</trkpt>
<trkpt lat="52.6291618347168" lon="13.099207878112793">
<ele>66.5999984741211</ele>
<time>2014-02-15T15:44:29Z</time>
</trkpt>
<trkpt lat="52.62918472290039" lon="13.099124908447266">
<ele>66.69999694824219</ele>
<time>2014-02-15T15:44:30Z</time>
</trkpt>
<trkpt lat="52.62919235229492" lon="13.099021911621094">
<ele>65.69999694824219</ele>
<time>2014-02-15T15:44:31Z</time>
</trkpt>
<trkpt lat="52.62919998168945" lon="13.0989408493042">
<ele>65.30000305175781</ele>
<time>2014-02-15T15:44:32Z</time>
</trkpt>
<trkpt lat="52.62920379638672" lon="13.098859786987305">
<ele>65.19999694824219</ele>
<time>2014-02-15T15:44:33Z</time>
</trkpt>
<trkpt lat="52.62921142578125" lon="13.098773956298828">
<ele>65.0999984741211</ele>
<time>2014-02-15T15:44:34Z</time>
</trkpt>
<trkpt lat="52.62921905517578" lon="13.098701477050781">
<ele>64.30000305175781</ele>
<time>2014-02-15T15:44:35Z</time>
</trkpt>
<trkpt lat="52.629241943359375" lon="13.098570823669434">
<ele>64.69999694824219</ele>
<time>2014-02-15T15:44:36Z</time>
</trkpt>
<trkpt lat="52.62925720214844" lon="13.098474502563477">
<ele>64.9000015258789</ele>
<time>2014-02-15T15:44:37Z</time>
</trkpt>
<trkpt lat="52.62928771972656" lon="13.098381042480469">
<ele>65.69999694824219</ele>
<time>2014-02-15T15:44:38Z</time>
</trkpt>
<trkpt lat="52.62929916381836" lon="13.098306655883789">
<ele>64.69999694824219</ele>
<time>2014-02-15T15:44:39Z</time>
</trkpt>
<trkpt lat="52.629302978515625" lon="13.098213195800781">
<ele>64.9000015258789</ele>
<time>2014-02-15T15:44:40Z</time>
</trkpt>
<trkpt lat="52.629337310791016" lon="13.098114967346191">
<ele>64.19999694824219</ele>
<time>2014-02-15T15:44:41Z</time>
</trkpt>
<trkpt lat="52.62934112548828" lon="13.098026275634766">
<ele>62.099998474121094</ele>
<time>2014-02-15T15:44:42Z</time>
</trkpt>
<trkpt lat="52.62936019897461" lon="13.097941398620605">
<ele>62.0</ele>
<time>2014-02-15T15:44:43Z</time>
</trkpt>
<trkpt lat="52.629371643066406" lon="13.097856521606445">
<ele>61.5</ele>
<time>2014-02-15T15:44:44Z</time>
</trkpt>
<trkpt lat="52.6293830871582" lon="13.097770690917969">
<ele>61.70000076293945</ele>
<time>2014-02-15T15:44:45Z</time>
</trkpt>
<trkpt lat="52.629390716552734" lon="13.097696304321289">
<ele>60.70000076293945</ele>
<time>2014-02-15T15:44:46Z</time>
</trkpt>
<trkpt lat="52.62940216064453" lon="13.097601890563965">
<ele>60.900001525878906</ele>
<time>2014-02-15T15:44:47Z</time>
</trkpt>
<trkpt lat="52.62942123413086" lon="13.09752082824707">
<ele>61.0</ele>
<time>2014-02-15T15:44:48Z</time>
</trkpt>
<trkpt lat="52.62944793701172" lon="13.097431182861328">
<ele>61.0</ele>
<time>2014-02-15T15:44:49Z</time>
</trkpt>
<trkpt lat="52.629459381103516" lon="13.09733772277832">
<ele>60.900001525878906</ele>
<time>2014-02-15T15:44:50Z</time>
</trkpt>
<trkpt lat="52.62947463989258" lon="13.097248077392578">
<ele>60.20000076293945</ele>
<time>2014-02-15T15:44:51Z</time>
</trkpt>
<trkpt lat="52.62948989868164" lon="13.097152709960938">
<ele>59.79999923706055</ele>
<time>2014-02-15T15:44:52Z</time>
</trkpt>
<trkpt lat="52.6295166015625" lon="13.097054481506348">
<ele>60.0</ele>
<time>2014-02-15T15:44:53Z</time>
</trkpt>
<trkpt lat="52.629573822021484" lon="13.096907615661621">
<ele>59.20000076293945</ele>
<time>2014-02-15T15:44:55Z</time>
</trkpt>
<trkpt lat="52.62960433959961" lon="13.096835136413574">
<ele>60.70000076293945</ele>
<time>2014-02-15T15:44:56Z</time>
</trkpt>
<trkpt lat="52.62961196899414" lon="13.096760749816895">
<ele>61.70000076293945</ele>
<time>2014-02-15T15:44:57Z</time>
</trkpt>
<trkpt lat="52.629634857177734" lon="13.096672058105469">
<ele>62.400001525878906</ele>
<time>2014-02-15T15:44:58Z</time>
</trkpt>
<trkpt lat="52.6296501159668" lon="13.096582412719727">
<ele>62.599998474121094</ele>
<time>2014-02-15T15:44:59Z</time>
</trkpt>
<trkpt lat="52.629669189453125" lon="13.096494674682617">
<ele>62.70000076293945</ele>
<time>2014-02-15T15:45:00Z</time>
</trkpt>
<trkpt lat="52.62967300415039" lon="13.09640121459961">
<ele>62.0</ele>
<time>2014-02-15T15:45:01Z</time>
</trkpt>
<trkpt lat="52.62968063354492" lon="13.09632682800293">
<ele>62.29999923706055</ele>
<time>2014-02-15T15:45:02Z</time>
</trkpt>
<trkpt lat="52.629695892333984" lon="13.096235275268555">
<ele>62.5</ele>
<time>2014-02-15T15:45:03Z</time>
</trkpt>
<trkpt lat="52.62971115112305" lon="13.096144676208496">
<ele>62.0</ele>
<time>2014-02-15T15:45:04Z</time>
</trkpt>
<trkpt lat="52.629722595214844" lon="13.096051216125488">
<ele>61.79999923706055</ele>
<time>2014-02-15T15:45:05Z</time>
</trkpt>
<trkpt lat="52.62974166870117" lon="13.095953941345215">
<ele>61.900001525878906</ele>
<time>2014-02-15T15:45:06Z</time>
</trkpt>
<trkpt lat="52.62975311279297" lon="13.095868110656738">
<ele>62.099998474121094</ele>
<time>2014-02-15T15:45:07Z</time>
</trkpt>
<trkpt lat="52.629764556884766" lon="13.095784187316895">
<ele>62.400001525878906</ele>
<time>2014-02-15T15:45:08Z</time>
</trkpt>
<trkpt lat="52.62977600097656" lon="13.095696449279785">
<ele>62.5</ele>
<time>2014-02-15T15:45:09Z</time>
</trkpt>
<trkpt lat="52.62978744506836" lon="13.095610618591309">
<ele>62.70000076293945</ele>
<time>2014-02-15T15:45:10Z</time>
</trkpt>
<trkpt lat="52.62981033325195" lon="13.095516204833984">
<ele>63.400001525878906</ele>
<time>2014-02-15T15:45:11Z</time>
</trkpt>
<trkpt lat="52.62983703613281" lon="13.095437049865723">
<ele>65.5</ele>
<time>2014-02-15T15:45:12Z</time>
</trkpt>
<trkpt lat="52.629844665527344" lon="13.095362663269043">
<ele>66.0999984741211</ele>
<time>2014-02-15T15:45:13Z</time>
</trkpt>
<trkpt lat="52.62986373901367" lon="13.09528636932373">
<ele>65.80000305175781</ele>
<time>2014-02-15T15:45:14Z</time>
</trkpt>
<trkpt lat="52.62987518310547" lon="13.095200538635254">
<ele>65.30000305175781</ele>
<time>2014-02-15T15:45:15Z</time>
</trkpt>
<trkpt lat="52.6298828125" lon="13.095109939575195">
<ele>64.80000305175781</ele>
<time>2014-02-15T15:45:16Z</time>
</trkpt>
<trkpt lat="52.629905700683594" lon="13.094931602478027">
<ele>64.5</ele>
<time>2014-02-15T15:45:18Z</time>
</trkpt>
<trkpt lat="52.629920959472656" lon="13.094842910766602">
<ele>64.19999694824219</ele>
<time>2014-02-15T15:45:19Z</time>
</trkpt>
<trkpt lat="52.62992477416992" lon="13.094758987426758">
<ele>64.30000305175781</ele>
<time>2014-02-15T15:45:20Z</time>
</trkpt>
<trkpt lat="52.62992858886719" lon="13.094633102416992">
<ele>63.900001525878906</ele>
<time>2014-02-15T15:45:22Z</time>
</trkpt>
<trkpt lat="52.62995147705078" lon="13.094534873962402">
<ele>64.5999984741211</ele>
<time>2014-02-15T15:45:23Z</time>
</trkpt>
<trkpt lat="52.62997055053711" lon="13.094453811645508">
<ele>65.69999694824219</ele>
<time>2014-02-15T15:45:24Z</time>
</trkpt>
<trkpt lat="52.62998962402344" lon="13.09437370300293">
<ele>66.0</ele>
<time>2014-02-15T15:45:25Z</time>
</trkpt>
<trkpt lat="52.63001251220703" lon="13.094274520874023">
<ele>67.0999984741211</ele>
<time>2014-02-15T15:45:26Z</time>
</trkpt>
<trkpt lat="52.63002395629883" lon="13.094184875488281">
<ele>67.30000305175781</ele>
<time>2014-02-15T15:45:27Z</time>
</trkpt>
<trkpt lat="52.630035400390625" lon="13.094097137451172">
<ele>67.5</ele>
<time>2014-02-15T15:45:28Z</time>
</trkpt>
<trkpt lat="52.63005065917969" lon="13.09401798248291">
<ele>67.0</ele>
<time>2014-02-15T15:45:29Z</time>
</trkpt>
<trkpt lat="52.630069732666016" lon="13.093929290771484">
<ele>67.0</ele>
<time>2014-02-15T15:45:30Z</time>
</trkpt>
<trkpt lat="52.63008117675781" lon="13.093850135803223">
<ele>67.0</ele>
<time>2014-02-15T15:45:31Z</time>
</trkpt>
<trkpt lat="52.630096435546875" lon="13.09377670288086">
<ele>67.0</ele>
<time>2014-02-15T15:45:32Z</time>
</trkpt>
<trkpt lat="52.630104064941406" lon="13.093698501586914">
<ele>66.69999694824219</ele>
<time>2014-02-15T15:45:33Z</time>
</trkpt>
<trkpt lat="52.630104064941406" lon="13.093618392944336">
<ele>65.9000015258789</ele>
<time>2014-02-15T15:45:34Z</time>
</trkpt>
<trkpt lat="52.63011169433594" lon="13.09354305267334">
<ele>67.0999984741211</ele>
<time>2014-02-15T15:45:35Z</time>
</trkpt>
<trkpt lat="52.63013458251953" lon="13.093441009521484">
<ele>67.80000305175781</ele>
<time>2014-02-15T15:45:36Z</time>
</trkpt>
<trkpt lat="52.630149841308594" lon="13.093348503112793">
<ele>67.5999984741211</ele>
<time>2014-02-15T15:45:37Z</time>
</trkpt>
<trkpt lat="52.63017272949219" lon="13.09325122833252">
<ele>66.9000015258789</ele>
<time>2014-02-15T15:45:38Z</time>
</trkpt>
<trkpt lat="52.630191802978516" lon="13.09315299987793">
<ele>67.0</ele>
<time>2014-02-15T15:45:39Z</time>
</trkpt>
<trkpt lat="52.63020706176758" lon="13.093069076538086">
<ele>66.69999694824219</ele>
<time>2014-02-15T15:45:40Z</time>
</trkpt>
<trkpt lat="52.63021469116211" lon="13.092982292175293">
<ele>66.80000305175781</ele>
<time>2014-02-15T15:45:41Z</time>
</trkpt>
<trkpt lat="52.630226135253906" lon="13.092886924743652">
<ele>67.19999694824219</ele>
<time>2014-02-15T15:45:42Z</time>
</trkpt>
<trkpt lat="52.63024139404297" lon="13.092796325683594">
<ele>67.19999694824219</ele>
<time>2014-02-15T15:45:43Z</time>
</trkpt>
<trkpt lat="52.6302604675293" lon="13.092717170715332">
<ele>67.4000015258789</ele>
<time>2014-02-15T15:45:44Z</time>
</trkpt>
<trkpt lat="52.63026809692383" lon="13.092623710632324">
<ele>66.5</ele>
<time>2014-02-15T15:45:45Z</time>
</trkpt>
<trkpt lat="52.63028335571289" lon="13.09254264831543">
<ele>66.69999694824219</ele>
<time>2014-02-15T15:45:46Z</time>
</trkpt>
<trkpt lat="52.63029861450195" lon="13.09244441986084">
<ele>66.69999694824219</ele>
<time>2014-02-15T15:45:47Z</time>
</trkpt>
<trkpt lat="52.63031005859375" lon="13.092368125915527">
<ele>67.0999984741211</ele>
<time>2014-02-15T15:45:48Z</time>
</trkpt>
<trkpt lat="52.63032531738281" lon="13.092283248901367">
<ele>67.4000015258789</ele>
<time>2014-02-15T15:45:49Z</time>
</trkpt>
<trkpt lat="52.63033676147461" lon="13.092204093933105">
<ele>67.30000305175781</ele>
<time>2014-02-15T15:45:50Z</time>
</trkpt>
<trkpt lat="52.63035202026367" lon="13.092122077941895">
<ele>67.80000305175781</ele>
<time>2014-02-15T15:45:51Z</time>
</trkpt>
<trkpt lat="52.63037872314453" lon="13.092036247253418">
<ele>68.9000015258789</ele>
<time>2014-02-15T15:45:52Z</time>
</trkpt>
<trkpt lat="52.63038635253906" lon="13.09195327758789">
<ele>67.69999694824219</ele>
<time>2014-02-15T15:45:53Z</time>
</trkpt>
<trkpt lat="52.63039016723633" lon="13.091876983642578">
<ele>66.5999984741211</ele>
<time>2014-02-15T15:45:54Z</time>
</trkpt>
<trkpt lat="52.63039016723633" lon="13.091801643371582">
<ele>66.4000015258789</ele>
<time>2014-02-15T15:45:55Z</time>
</trkpt>
<trkpt lat="52.63039779663086" lon="13.091715812683105">
<ele>66.69999694824219</ele>
<time>2014-02-15T15:45:56Z</time>
</trkpt>
<trkpt lat="52.63041687011719" lon="13.091626167297363">
<ele>66.5999984741211</ele>
<time>2014-02-15T15:45:57Z</time>
</trkpt>
<trkpt lat="52.630428314208984" lon="13.091550827026367">
<ele>67.19999694824219</ele>
<time>2014-02-15T15:45:58Z</time>
</trkpt>
<trkpt lat="52.63044738769531" lon="13.09146499633789">
<ele>67.80000305175781</ele>
<time>2014-02-15T15:45:59Z</time>
</trkpt>
<trkpt lat="52.630462646484375" lon="13.091377258300781">
<ele>68.5999984741211</ele>
<time>2014-02-15T15:46:00Z</time>
</trkpt>
<trkpt lat="52.63047409057617" lon="13.091293334960938">
<ele>69.0</ele>
<time>2014-02-15T15:46:01Z</time>
</trkpt>
<trkpt lat="52.630489349365234" lon="13.091211318969727">
<ele>68.5</ele>
<time>2014-02-15T15:46:02Z</time>
</trkpt>
<trkpt lat="52.630496978759766" lon="13.0911226272583">
<ele>68.80000305175781</ele>
<time>2014-02-15T15:46:03Z</time>
</trkpt>
<trkpt lat="52.63050842285156" lon="13.091039657592773">
<ele>68.4000015258789</ele>
<time>2014-02-15T15:46:04Z</time>
</trkpt>
<trkpt lat="52.63052749633789" lon="13.090957641601562">
<ele>68.19999694824219</ele>
<time>2014-02-15T15:46:05Z</time>
</trkpt>
<trkpt lat="52.63054275512695" lon="13.090869903564453">
<ele>68.5999984741211</ele>
<time>2014-02-15T15:46:06Z</time>
</trkpt>
<trkpt lat="52.630558013916016" lon="13.090788841247559">
<ele>69.0</ele>
<time>2014-02-15T15:46:07Z</time>
</trkpt>
<trkpt lat="52.63056945800781" lon="13.090700149536133">
<ele>69.0999984741211</ele>
<time>2014-02-15T15:46:08Z</time>
</trkpt>
<trkpt lat="52.630584716796875" lon="13.090622901916504">
<ele>69.5999984741211</ele>
<time>2014-02-15T15:46:09Z</time>
</trkpt>
<trkpt lat="52.630592346191406" lon="13.090536117553711">
<ele>69.9000015258789</ele>
<time>2014-02-15T15:46:10Z</time>
</trkpt>
<trkpt lat="52.6306037902832" lon="13.090453147888184">
<ele>70.19999694824219</ele>
<time>2014-02-15T15:46:11Z</time>
</trkpt>
<trkpt lat="52.63062286376953" lon="13.09036922454834">
<ele>70.5999984741211</ele>
<time>2014-02-15T15:46:12Z</time>
</trkpt>
<trkpt lat="52.630638122558594" lon="13.090280532836914">
<ele>70.9000015258789</ele>
<time>2014-02-15T15:46:13Z</time>
</trkpt>
<trkpt lat="52.630653381347656" lon="13.090194702148438">
<ele>72.19999694824219</ele>
<time>2014-02-15T15:46:14Z</time>
</trkpt>
<trkpt lat="52.63066864013672" lon="13.090110778808594">
<ele>71.80000305175781</ele>
<time>2014-02-15T15:46:15Z</time>
</trkpt>
<trkpt lat="52.63068771362305" lon="13.0900239944458">
<ele>72.0</ele>
<time>2014-02-15T15:46:16Z</time>
</trkpt>
<trkpt lat="52.63070297241211" lon="13.089941024780273">
<ele>72.4000015258789</ele>
<time>2014-02-15T15:46:17Z</time>
</trkpt>
<trkpt lat="52.63071823120117" lon="13.089858055114746">
<ele>72.69999694824219</ele>
<time>2014-02-15T15:46:18Z</time>
</trkpt>
<trkpt lat="52.630733489990234" lon="13.089770317077637">
<ele>72.5</ele>
<time>2014-02-15T15:46:19Z</time>
</trkpt>
<trkpt lat="52.63074493408203" lon="13.089693069458008">
<ele>72.0</ele>
<time>2014-02-15T15:46:20Z</time>
</trkpt>
<trkpt lat="52.63076400756836" lon="13.089613914489746">
<ele>71.5999984741211</ele>
<time>2014-02-15T15:46:21Z</time>
</trkpt>
<trkpt lat="52.630775451660156" lon="13.089531898498535">
<ele>71.19999694824219</ele>
<time>2014-02-15T15:46:22Z</time>
</trkpt>
<trkpt lat="52.63078689575195" lon="13.08945083618164">
<ele>71.0999984741211</ele>
<time>2014-02-15T15:46:23Z</time>
</trkpt>
<trkpt lat="52.630802154541016" lon="13.089371681213379">
<ele>71.0</ele>
<time>2014-02-15T15:46:24Z</time>
</trkpt>
<trkpt lat="52.63081741333008" lon="13.089286804199219">
<ele>70.30000305175781</ele>
<time>2014-02-15T15:46:25Z</time>
</trkpt>
<trkpt lat="52.63082504272461" lon="13.089203834533691">
<ele>70.30000305175781</ele>
<time>2014-02-15T15:46:26Z</time>
</trkpt>
<trkpt lat="52.630836486816406" lon="13.089122772216797">
<ele>70.19999694824219</ele>
<time>2014-02-15T15:46:27Z</time>
</trkpt>
<trkpt lat="52.63085174560547" lon="13.089049339294434">
<ele>69.9000015258789</ele>
<time>2014-02-15T15:46:28Z</time>
</trkpt>
<trkpt lat="52.630863189697266" lon="13.088968276977539">
<ele>70.0</ele>
<time>2014-02-15T15:46:29Z</time>
</trkpt>
<trkpt lat="52.630863189697266" lon="13.088883399963379">
<ele>68.9000015258789</ele>
<time>2014-02-15T15:46:30Z</time>
</trkpt>
<trkpt lat="52.63088607788086" lon="13.088730812072754">
<ele>68.69999694824219</ele>
<time>2014-02-15T15:46:32Z</time>
</trkpt>
<trkpt lat="52.63091278076172" lon="13.088639259338379">
<ele>68.69999694824219</ele>
<time>2014-02-15T15:46:33Z</time>
</trkpt>
<trkpt lat="52.63092803955078" lon="13.088556289672852">
<ele>69.30000305175781</ele>
<time>2014-02-15T15:46:34Z</time>
</trkpt>
<trkpt lat="52.63093948364258" lon="13.088473320007324">
<ele>68.9000015258789</ele>
<time>2014-02-15T15:46:35Z</time>
</trkpt>
<trkpt lat="52.63095474243164" lon="13.088390350341797">
<ele>69.19999694824219</ele>
<time>2014-02-15T15:46:36Z</time>
</trkpt>
<trkpt lat="52.63096618652344" lon="13.088305473327637">
<ele>69.4000015258789</ele>
<time>2014-02-15T15:46:37Z</time>
</trkpt>
<trkpt lat="52.630985260009766" lon="13.088213920593262">
<ele>69.19999694824219</ele>
<time>2014-02-15T15:46:38Z</time>
</trkpt>
<trkpt lat="52.631011962890625" lon="13.088136672973633">
<ele>69.0999984741211</ele>
<time>2014-02-15T15:46:39Z</time>
</trkpt>
<trkpt lat="52.63104248046875" lon="13.088062286376953">
<ele>70.0999984741211</ele>
<time>2014-02-15T15:46:40Z</time>
</trkpt>
<trkpt lat="52.6310920715332" lon="13.088014602661133">
<ele>69.9000015258789</ele>
<time>2014-02-15T15:46:41Z</time>
</trkpt>
<trkpt lat="52.63113784790039" lon="13.087971687316895">
<ele>70.5999984741211</ele>
<time>2014-02-15T15:46:42Z</time>
</trkpt>
<trkpt lat="52.631195068359375" lon="13.087961196899414">
<ele>70.0999984741211</ele>
<time>2014-02-15T15:46:43Z</time>
</trkpt>
<trkpt lat="52.63124465942383" lon="13.087944984436035">
<ele>70.30000305175781</ele>
<time>2014-02-15T15:46:44Z</time>
</trkpt>
<trkpt lat="52.63129806518555" lon="13.087918281555176">
<ele>70.0999984741211</ele>
<time>2014-02-15T15:46:45Z</time>
</trkpt>
<trkpt lat="52.63135528564453" lon="13.087896347045898">
<ele>69.5</ele>
<time>2014-02-15T15:46:46Z</time>
</trkpt>
<trkpt lat="52.631404876708984" lon="13.087872505187988">
<ele>69.0</ele>
<time>2014-02-15T15:46:47Z</time>
</trkpt>
<trkpt lat="52.6314582824707" lon="13.087850570678711">
<ele>69.0</ele>
<time>2014-02-15T15:46:48Z</time>
</trkpt>
<trkpt lat="52.631507873535156" lon="13.0878324508667">
<ele>68.4000015258789</ele>
<time>2014-02-15T15:46:49Z</time>
</trkpt>
<trkpt lat="52.631561279296875" lon="13.087814331054688">
<ele>68.30000305175781</ele>
<time>2014-02-15T15:46:50Z</time>
</trkpt>
<trkpt lat="52.63161087036133" lon="13.087794303894043">
<ele>68.4000015258789</ele>
<time>2014-02-15T15:46:51Z</time>
</trkpt>
<trkpt lat="52.63166046142578" lon="13.087766647338867">
<ele>67.0999984741211</ele>
<time>2014-02-15T15:46:52Z</time>
</trkpt>
<trkpt lat="52.6317138671875" lon="13.087749481201172">
<ele>67.4000015258789</ele>
<time>2014-02-15T15:46:53Z</time>
</trkpt>
<trkpt lat="52.63176345825195" lon="13.087729454040527">
<ele>67.4000015258789</ele>
<time>2014-02-15T15:46:54Z</time>
</trkpt>
<trkpt lat="52.631813049316406" lon="13.087712287902832">
<ele>67.30000305175781</ele>
<time>2014-02-15T15:46:55Z</time>
</trkpt>
<trkpt lat="52.63186264038086" lon="13.087687492370605">
<ele>67.30000305175781</ele>
<time>2014-02-15T15:46:56Z</time>
</trkpt>
<trkpt lat="52.63191223144531" lon="13.087662696838379">
<ele>67.30000305175781</ele>
<time>2014-02-15T15:46:57Z</time>
</trkpt>
<trkpt lat="52.6319580078125" lon="13.087635040283203">
<ele>67.5999984741211</ele>
<time>2014-02-15T15:46:58Z</time>
</trkpt>
<trkpt lat="52.63200759887695" lon="13.087610244750977">
<ele>67.4000015258789</ele>
<time>2014-02-15T15:46:59Z</time>
</trkpt>
<trkpt lat="52.63206100463867" lon="13.087593078613281">
<ele>67.4000015258789</ele>
<time>2014-02-15T15:47:00Z</time>
</trkpt>
<trkpt lat="52.63211441040039" lon="13.08757209777832">
<ele>67.69999694824219</ele>
<time>2014-02-15T15:47:01Z</time>
</trkpt>
<trkpt lat="52.63216018676758" lon="13.087542533874512">
<ele>67.4000015258789</ele>
<time>2014-02-15T15:47:02Z</time>
</trkpt>
<trkpt lat="52.6322135925293" lon="13.087516784667969">
<ele>67.69999694824219</ele>
<time>2014-02-15T15:47:03Z</time>
</trkpt>
<trkpt lat="52.63227081298828" lon="13.087495803833008">
<ele>68.0999984741211</ele>
<time>2014-02-15T15:47:04Z</time>
</trkpt>
<trkpt lat="52.632328033447266" lon="13.08747386932373">
<ele>68.5</ele>
<time>2014-02-15T15:47:05Z</time>
</trkpt>
<trkpt lat="52.63237762451172" lon="13.087446212768555">
<ele>68.5999984741211</ele>
<time>2014-02-15T15:47:06Z</time>
</trkpt>
<trkpt lat="52.63242721557617" lon="13.087424278259277">
<ele>68.30000305175781</ele>
<time>2014-02-15T15:47:07Z</time>
</trkpt>
<trkpt lat="52.63248062133789" lon="13.087400436401367">
<ele>68.30000305175781</ele>
<time>2014-02-15T15:47:08Z</time>
</trkpt>
<trkpt lat="52.632537841796875" lon="13.087376594543457">
<ele>68.30000305175781</ele>
<time>2014-02-15T15:47:09Z</time>
</trkpt>
<trkpt lat="52.63259506225586" lon="13.087350845336914">
<ele>68.0</ele>
<time>2014-02-15T15:47:10Z</time>
</trkpt>
<trkpt lat="52.63264465332031" lon="13.087331771850586">
<ele>67.9000015258789</ele>
<time>2014-02-15T15:47:11Z</time>
</trkpt>
<trkpt lat="52.63269805908203" lon="13.087307929992676">
<ele>67.80000305175781</ele>
<time>2014-02-15T15:47:12Z</time>
</trkpt>
<trkpt lat="52.63275146484375" lon="13.087285041809082">
<ele>68.0999984741211</ele>
<time>2014-02-15T15:47:13Z</time>
</trkpt>
<trkpt lat="52.63280487060547" lon="13.087262153625488">
<ele>68.19999694824219</ele>
<time>2014-02-15T15:47:14Z</time>
</trkpt>
<trkpt lat="52.63285827636719" lon="13.087235450744629">
<ele>68.0</ele>
<time>2014-02-15T15:47:15Z</time>
</trkpt>
<trkpt lat="52.63291549682617" lon="13.087210655212402">
<ele>68.19999694824219</ele>
<time>2014-02-15T15:47:16Z</time>
</trkpt>
<trkpt lat="52.632972717285156" lon="13.08718490600586">
<ele>68.0999984741211</ele>
<time>2014-02-15T15:47:17Z</time>
</trkpt>
<trkpt lat="52.633026123046875" lon="13.087159156799316">
<ele>67.9000015258789</ele>
<time>2014-02-15T15:47:18Z</time>
</trkpt>
<trkpt lat="52.633079528808594" lon="13.087129592895508">
<ele>67.9000015258789</ele>
<time>2014-02-15T15:47:19Z</time>
</trkpt>
<trkpt lat="52.63313293457031" lon="13.087109565734863">
<ele>67.9000015258789</ele>
<time>2014-02-15T15:47:20Z</time>
</trkpt>
<trkpt lat="52.63318634033203" lon="13.087084770202637">
<ele>68.19999694824219</ele>
<time>2014-02-15T15:47:21Z</time>
</trkpt>
<trkpt lat="52.633243560791016" lon="13.087051391601562">
<ele>68.0999984741211</ele>
<time>2014-02-15T15:47:22Z</time>
</trkpt>
<trkpt lat="52.63330078125" lon="13.087031364440918">
<ele>68.0</ele>
<time>2014-02-15T15:47:23Z</time>
</trkpt>
<trkpt lat="52.63335418701172" lon="13.087005615234375">
<ele>68.0</ele>
<time>2014-02-15T15:47:24Z</time>
</trkpt>
<trkpt lat="52.63340377807617" lon="13.086980819702148">
<ele>68.0</ele>
<time>2014-02-15T15:47:25Z</time>
</trkpt>
<trkpt lat="52.633460998535156" lon="13.086958885192871">
<ele>67.80000305175781</ele>
<time>2014-02-15T15:47:26Z</time>
</trkpt>
<trkpt lat="52.63351058959961" lon="13.086933135986328">
<ele>67.5999984741211</ele>
<time>2014-02-15T15:47:27Z</time>
</trkpt>
<trkpt lat="52.63356399536133" lon="13.086908340454102">
<ele>67.4000015258789</ele>
<time>2014-02-15T15:47:28Z</time>
</trkpt>
<trkpt lat="52.63361740112305" lon="13.086885452270508">
<ele>67.0999984741211</ele>
<time>2014-02-15T15:47:29Z</time>
</trkpt>
<trkpt lat="52.6336669921875" lon="13.086859703063965">
<ele>67.19999694824219</ele>
<time>2014-02-15T15:47:30Z</time>
</trkpt>
<trkpt lat="52.63371658325195" lon="13.086836814880371">
<ele>67.0</ele>
<time>2014-02-15T15:47:31Z</time>
</trkpt>
<trkpt lat="52.63376998901367" lon="13.086812019348145">
<ele>67.0</ele>
<time>2014-02-15T15:47:32Z</time>
</trkpt>
<trkpt lat="52.633819580078125" lon="13.086788177490234">
<ele>67.0999984741211</ele>
<time>2014-02-15T15:47:33Z</time>
</trkpt>
<trkpt lat="52.633872985839844" lon="13.08676528930664">
<ele>66.80000305175781</ele>
<time>2014-02-15T15:47:34Z</time>
</trkpt>
<trkpt lat="52.6339225769043" lon="13.086740493774414">
<ele>66.69999694824219</ele>
<time>2014-02-15T15:47:35Z</time>
</trkpt>
<trkpt lat="52.63397216796875" lon="13.086713790893555">
<ele>66.19999694824219</ele>
<time>2014-02-15T15:47:36Z</time>
</trkpt>
<trkpt lat="52.6340217590332" lon="13.086689949035645">
<ele>65.9000015258789</ele>
<time>2014-02-15T15:47:37Z</time>
</trkpt>
<trkpt lat="52.634071350097656" lon="13.086665153503418">
<ele>65.5999984741211</ele>
<time>2014-02-15T15:47:38Z</time>
</trkpt>
<trkpt lat="52.63412094116211" lon="13.086638450622559">
<ele>65.4000015258789</ele>
<time>2014-02-15T15:47:39Z</time>
</trkpt>
<trkpt lat="52.63417434692383" lon="13.086613655090332">
<ele>65.0</ele>
<time>2014-02-15T15:47:40Z</time>
</trkpt>
<trkpt lat="52.63422775268555" lon="13.08658504486084">
<ele>64.9000015258789</ele>
<time>2014-02-15T15:47:41Z</time>
</trkpt>
<trkpt lat="52.634281158447266" lon="13.086557388305664">
<ele>64.9000015258789</ele>
<time>2014-02-15T15:47:42Z</time>
</trkpt>
<trkpt lat="52.634334564208984" lon="13.086520195007324">
<ele>64.5</ele>
<time>2014-02-15T15:47:43Z</time>
</trkpt>
<trkpt lat="52.6343879699707" lon="13.086496353149414">
<ele>64.30000305175781</ele>
<time>2014-02-15T15:47:44Z</time>
</trkpt>
<trkpt lat="52.634437561035156" lon="13.086470603942871">
<ele>64.4000015258789</ele>
<time>2014-02-15T15:47:45Z</time>
</trkpt>
<trkpt lat="52.634490966796875" lon="13.086443901062012">
<ele>64.5</ele>
<time>2014-02-15T15:47:46Z</time>
</trkpt>
<trkpt lat="52.63454055786133" lon="13.086420059204102">
<ele>64.5</ele>
<time>2014-02-15T15:47:47Z</time>
</trkpt>
<trkpt lat="52.63459014892578" lon="13.086390495300293">
<ele>64.5</ele>
<time>2014-02-15T15:47:48Z</time>
</trkpt>
<trkpt lat="52.634639739990234" lon="13.086360931396484">
<ele>64.5999984741211</ele>
<time>2014-02-15T15:47:49Z</time>
</trkpt>
<trkpt lat="52.63469314575195" lon="13.086329460144043">
<ele>64.5</ele>
<time>2014-02-15T15:47:50Z</time>
</trkpt>
<trkpt lat="52.63474655151367" lon="13.0863037109375">
<ele>64.80000305175781</ele>
<time>2014-02-15T15:47:51Z</time>
</trkpt>
<trkpt lat="52.634803771972656" lon="13.086278915405273">
<ele>64.9000015258789</ele>
<time>2014-02-15T15:47:52Z</time>
</trkpt>
<trkpt lat="52.63486099243164" lon="13.086248397827148">
<ele>65.30000305175781</ele>
<time>2014-02-15T15:47:53Z</time>
</trkpt>
<trkpt lat="52.63491439819336" lon="13.08621597290039">
<ele>65.4000015258789</ele>
<time>2014-02-15T15:47:54Z</time>
</trkpt>
<trkpt lat="52.63496780395508" lon="13.086189270019531">
<ele>65.0999984741211</ele>
<time>2014-02-15T15:47:55Z</time>
</trkpt>
<trkpt lat="52.63502502441406" lon="13.086159706115723">
<ele>65.0999984741211</ele>
<time>2014-02-15T15:47:56Z</time>
</trkpt>
<trkpt lat="52.63507843017578" lon="13.086133003234863">
<ele>65.0999984741211</ele>
<time>2014-02-15T15:47:57Z</time>
</trkpt>
<trkpt lat="52.6351318359375" lon="13.086105346679688">
<ele>65.0</ele>
<time>2014-02-15T15:47:58Z</time>
</trkpt>
<trkpt lat="52.63518524169922" lon="13.08607292175293">
<ele>65.0999984741211</ele>
<time>2014-02-15T15:47:59Z</time>
</trkpt>
<trkpt lat="52.6352424621582" lon="13.086047172546387">
<ele>65.19999694824219</ele>
<time>2014-02-15T15:48:00Z</time>
</trkpt>
<trkpt lat="52.63529586791992" lon="13.086020469665527">
<ele>65.19999694824219</ele>
<time>2014-02-15T15:48:01Z</time>
</trkpt>
<trkpt lat="52.635353088378906" lon="13.085988998413086">
<ele>65.19999694824219</ele>
<time>2014-02-15T15:48:02Z</time>
</trkpt>
<trkpt lat="52.635414123535156" lon="13.085953712463379">
<ele>65.80000305175781</ele>
<time>2014-02-15T15:48:03Z</time>
</trkpt>
<trkpt lat="52.63547134399414" lon="13.085915565490723">
<ele>66.19999694824219</ele>
<time>2014-02-15T15:48:04Z</time>
</trkpt>
<trkpt lat="52.63552474975586" lon="13.085883140563965">
<ele>66.0999984741211</ele>
<time>2014-02-15T15:48:05Z</time>
</trkpt>
<trkpt lat="52.63557815551758" lon="13.085853576660156">
<ele>65.80000305175781</ele>
<time>2014-02-15T15:48:06Z</time>
</trkpt>
<trkpt lat="52.6356315612793" lon="13.085822105407715">
<ele>65.80000305175781</ele>
<time>2014-02-15T15:48:07Z</time>
</trkpt>
<trkpt lat="52.63568878173828" lon="13.085792541503906">
<ele>66.0</ele>
<time>2014-02-15T15:48:08Z</time>
</trkpt>
<trkpt lat="52.6357421875" lon="13.085761070251465">
<ele>65.9000015258789</ele>
<time>2014-02-15T15:48:09Z</time>
</trkpt>
<trkpt lat="52.63579559326172" lon="13.08572769165039">
<ele>65.69999694824219</ele>
<time>2014-02-15T15:48:10Z</time>
</trkpt>
<trkpt lat="52.63584899902344" lon="13.085692405700684">
<ele>65.69999694824219</ele>
<time>2014-02-15T15:48:11Z</time>
</trkpt>
<trkpt lat="52.63590621948242" lon="13.085657119750977">
<ele>65.69999694824219</ele>
<time>2014-02-15T15:48:12Z</time>
</trkpt>
<trkpt lat="52.63595962524414" lon="13.085622787475586">
<ele>65.5999984741211</ele>
<time>2014-02-15T15:48:13Z</time>
</trkpt>
<trkpt lat="52.636016845703125" lon="13.085588455200195">
<ele>65.5999984741211</ele>
<time>2014-02-15T15:48:14Z</time>
</trkpt>
<trkpt lat="52.636070251464844" lon="13.085556030273438">
<ele>65.80000305175781</ele>
<time>2014-02-15T15:48:15Z</time>
</trkpt>
<trkpt lat="52.63612365722656" lon="13.085522651672363">
<ele>66.0</ele>
<time>2014-02-15T15:48:16Z</time>
</trkpt>
<trkpt lat="52.63618087768555" lon="13.085485458374023">
<ele>66.19999694824219</ele>
<time>2014-02-15T15:48:17Z</time>
</trkpt>
<trkpt lat="52.636234283447266" lon="13.085447311401367">
<ele>66.5</ele>
<time>2014-02-15T15:48:18Z</time>
</trkpt>
<trkpt lat="52.63629150390625" lon="13.085407257080078">
<ele>66.69999694824219</ele>
<time>2014-02-15T15:48:19Z</time>
</trkpt>
<trkpt lat="52.63634490966797" lon="13.085370063781738">
<ele>66.69999694824219</ele>
<time>2014-02-15T15:48:20Z</time>
</trkpt>
<trkpt lat="52.63640213012695" lon="13.085335731506348">
<ele>67.4000015258789</ele>
<time>2014-02-15T15:48:21Z</time>
</trkpt>
<trkpt lat="52.63645553588867" lon="13.085298538208008">
<ele>67.5</ele>
<time>2014-02-15T15:48:22Z</time>
</trkpt>
<trkpt lat="52.636505126953125" lon="13.085256576538086">
<ele>67.80000305175781</ele>
<time>2014-02-15T15:48:23Z</time>
</trkpt>
<trkpt lat="52.63655090332031" lon="13.085210800170898">
<ele>68.0999984741211</ele>
<time>2014-02-15T15:48:24Z</time>
</trkpt>
<trkpt lat="52.6365966796875" lon="13.085155487060547">
<ele>68.4000015258789</ele>
<time>2014-02-15T15:48:25Z</time>
</trkpt>
<trkpt lat="52.63664245605469" lon="13.085097312927246">
<ele>68.80000305175781</ele>
<time>2014-02-15T15:48:26Z</time>
</trkpt>
<trkpt lat="52.63668441772461" lon="13.085044860839844">
<ele>68.80000305175781</ele>
<time>2014-02-15T15:48:27Z</time>
</trkpt>
<trkpt lat="52.63672637939453" lon="13.084989547729492">
<ele>68.9000015258789</ele>
<time>2014-02-15T15:48:28Z</time>
</trkpt>
<trkpt lat="52.63676834106445" lon="13.084935188293457">
<ele>69.0999984741211</ele>
<time>2014-02-15T15:48:29Z</time>
</trkpt>
<trkpt lat="52.63681411743164" lon="13.08487606048584">
<ele>70.0</ele>
<time>2014-02-15T15:48:30Z</time>
</trkpt>
<trkpt lat="52.6368522644043" lon="13.084822654724121">
<ele>70.0999984741211</ele>
<time>2014-02-15T15:48:31Z</time>
</trkpt>
<trkpt lat="52.63690185546875" lon="13.084770202636719">
<ele>70.69999694824219</ele>
<time>2014-02-15T15:48:32Z</time>
</trkpt>
<trkpt lat="52.63694763183594" lon="13.084716796875">
<ele>71.0</ele>
<time>2014-02-15T15:48:33Z</time>
</trkpt>
<trkpt lat="52.636985778808594" lon="13.084661483764648">
<ele>71.4000015258789</ele>
<time>2014-02-15T15:48:34Z</time>
</trkpt>
<trkpt lat="52.63703536987305" lon="13.084601402282715">
<ele>71.5</ele>
<time>2014-02-15T15:48:35Z</time>
</trkpt>
<trkpt lat="52.6370735168457" lon="13.084535598754883">
<ele>71.5</ele>
<time>2014-02-15T15:48:36Z</time>
</trkpt>
<trkpt lat="52.637115478515625" lon="13.08447551727295">
<ele>71.80000305175781</ele>
<time>2014-02-15T15:48:37Z</time>
</trkpt>
<trkpt lat="52.63716125488281" lon="13.084415435791016">
<ele>72.0999984741211</ele>
<time>2014-02-15T15:48:38Z</time>
</trkpt>
<trkpt lat="52.637203216552734" lon="13.084357261657715">
<ele>72.30000305175781</ele>
<time>2014-02-15T15:48:39Z</time>
</trkpt>
<trkpt lat="52.637245178222656" lon="13.084306716918945">
<ele>72.5999984741211</ele>
<time>2014-02-15T15:48:40Z</time>
</trkpt>
<trkpt lat="52.63729476928711" lon="13.084253311157227">
<ele>72.5</ele>
<time>2014-02-15T15:48:41Z</time>
</trkpt>
<trkpt lat="52.6373405456543" lon="13.084196090698242">
<ele>71.5999984741211</ele>
<time>2014-02-15T15:48:42Z</time>
</trkpt>
<trkpt lat="52.637393951416016" lon="13.084136962890625">
<ele>71.5999984741211</ele>
<time>2014-02-15T15:48:43Z</time>
</trkpt>
<trkpt lat="52.63744354248047" lon="13.084090232849121">
<ele>71.0</ele>
<time>2014-02-15T15:48:44Z</time>
</trkpt>
<trkpt lat="52.637489318847656" lon="13.08403205871582">
<ele>71.69999694824219</ele>
<time>2014-02-15T15:48:45Z</time>
</trkpt>
<trkpt lat="52.637535095214844" lon="13.083967208862305">
<ele>71.9000015258789</ele>
<time>2014-02-15T15:48:46Z</time>
</trkpt>
<trkpt lat="52.63758850097656" lon="13.083913803100586">
<ele>72.0</ele>
<time>2014-02-15T15:48:47Z</time>
</trkpt>
<trkpt lat="52.63764572143555" lon="13.083868980407715">
<ele>71.80000305175781</ele>
<time>2014-02-15T15:48:48Z</time>
</trkpt>
<trkpt lat="52.63770294189453" lon="13.083832740783691">
<ele>72.19999694824219</ele>
<time>2014-02-15T15:48:49Z</time>
</trkpt>
<trkpt lat="52.637760162353516" lon="13.083803176879883">
<ele>72.30000305175781</ele>
<time>2014-02-15T15:48:50Z</time>
</trkpt>
<trkpt lat="52.6378173828125" lon="13.083776473999023">
<ele>72.80000305175781</ele>
<time>2014-02-15T15:48:51Z</time>
</trkpt>
<trkpt lat="52.63787078857422" lon="13.083751678466797">
<ele>72.80000305175781</ele>
<time>2014-02-15T15:48:52Z</time>
</trkpt>
<trkpt lat="52.6379280090332" lon="13.083723068237305">
<ele>73.0</ele>
<time>2014-02-15T15:48:53Z</time>
</trkpt>
<trkpt lat="52.63798522949219" lon="13.083703994750977">
<ele>72.80000305175781</ele>
<time>2014-02-15T15:48:54Z</time>
</trkpt>
<trkpt lat="52.638038635253906" lon="13.083688735961914">
<ele>72.9000015258789</ele>
<time>2014-02-15T15:48:55Z</time>
</trkpt>
<trkpt lat="52.63808822631836" lon="13.083684921264648">
<ele>72.5</ele>
<time>2014-02-15T15:48:56Z</time>
</trkpt>
<trkpt lat="52.638145446777344" lon="13.083681106567383">
<ele>72.19999694824219</ele>
<time>2014-02-15T15:48:57Z</time>
</trkpt>
<trkpt lat="52.63821029663086" lon="13.083670616149902">
<ele>72.0</ele>
<time>2014-02-15T15:48:58Z</time>
</trkpt>
<trkpt lat="52.638275146484375" lon="13.083663940429688">
<ele>71.5</ele>
<time>2014-02-15T15:48:59Z</time>
</trkpt>
<trkpt lat="52.63834762573242" lon="13.083649635314941">
<ele>71.0</ele>
<time>2014-02-15T15:49:00Z</time>
</trkpt>
<trkpt lat="52.63840103149414" lon="13.083645820617676">
<ele>70.69999694824219</ele>
<time>2014-02-15T15:49:01Z</time>
</trkpt>
<trkpt lat="52.63849639892578" lon="13.083650588989258">
<ele>70.9000015258789</ele>
<time>2014-02-15T15:49:03Z</time>
</trkpt>
<trkpt lat="52.638545989990234" lon="13.083654403686523">
<ele>71.30000305175781</ele>
<time>2014-02-15T15:49:04Z</time>
</trkpt>
<trkpt lat="52.63859176635742" lon="13.08365249633789">
<ele>70.30000305175781</ele>
<time>2014-02-15T15:49:05Z</time>
</trkpt>
<trkpt lat="52.6386833190918" lon="13.083657264709473">
<ele>70.9000015258789</ele>
<time>2014-02-15T15:49:07Z</time>
</trkpt>
<trkpt lat="52.638771057128906" lon="13.08365535736084">
<ele>70.9000015258789</ele>
<time>2014-02-15T15:49:09Z</time>
</trkpt>
<trkpt lat="52.63884353637695" lon="13.083662986755371">
<ele>70.19999694824219</ele>
<time>2014-02-15T15:49:11Z</time>
</trkpt>
<trkpt lat="52.63883590698242" lon="13.083526611328125">
<ele>70.19999694824219</ele>
<time>2014-02-15T15:49:13Z</time>
</trkpt>
<trkpt lat="52.63880157470703" lon="13.083401679992676">
<ele>71.0999984741211</ele>
<time>2014-02-15T15:49:15Z</time>
</trkpt>
<trkpt lat="52.63877868652344" lon="13.083255767822266">
<ele>70.80000305175781</ele>
<time>2014-02-15T15:49:17Z</time>
</trkpt>
<trkpt lat="52.63876724243164" lon="13.083178520202637">
<ele>70.9000015258789</ele>
<time>2014-02-15T15:49:18Z</time>
</trkpt>
<trkpt lat="52.63875961303711" lon="13.083100318908691">
<ele>71.0999984741211</ele>
<time>2014-02-15T15:49:19Z</time>
</trkpt>
<trkpt lat="52.63874816894531" lon="13.083026885986328">
<ele>71.0</ele>
<time>2014-02-15T15:49:20Z</time>
</trkpt>
<trkpt lat="52.63873291015625" lon="13.082938194274902">
<ele>70.5999984741211</ele>
<time>2014-02-15T15:49:21Z</time>
</trkpt>
<trkpt lat="52.63871765136719" lon="13.082853317260742">
<ele>70.69999694824219</ele>
<time>2014-02-15T15:49:22Z</time>
</trkpt>
<trkpt lat="52.638702392578125" lon="13.082765579223633">
<ele>70.5</ele>
<time>2014-02-15T15:49:23Z</time>
</trkpt>
<trkpt lat="52.63869094848633" lon="13.082683563232422">
<ele>70.80000305175781</ele>
<time>2014-02-15T15:49:24Z</time>
</trkpt>
<trkpt lat="52.638671875" lon="13.08261489868164">
<ele>71.19999694824219</ele>
<time>2014-02-15T15:49:25Z</time>
</trkpt>
<trkpt lat="52.6386604309082" lon="13.082527160644531">
<ele>71.19999694824219</ele>
<time>2014-02-15T15:49:26Z</time>
</trkpt>
<trkpt lat="52.638641357421875" lon="13.082446098327637">
<ele>71.5</ele>
<time>2014-02-15T15:49:27Z</time>
</trkpt>
<trkpt lat="52.63862609863281" lon="13.082367897033691">
<ele>71.5999984741211</ele>
<time>2014-02-15T15:49:28Z</time>
</trkpt>
<trkpt lat="52.63861083984375" lon="13.082284927368164">
<ele>71.69999694824219</ele>
<time>2014-02-15T15:49:29Z</time>
</trkpt>
<trkpt lat="52.63859939575195" lon="13.082207679748535">
<ele>71.4000015258789</ele>
<time>2014-02-15T15:49:30Z</time>
</trkpt>
<trkpt lat="52.638580322265625" lon="13.082135200500488">
<ele>71.5999984741211</ele>
<time>2014-02-15T15:49:31Z</time>
</trkpt>
<trkpt lat="52.63856506347656" lon="13.082058906555176">
<ele>71.9000015258789</ele>
<time>2014-02-15T15:49:32Z</time>
</trkpt>
<trkpt lat="52.6385498046875" lon="13.081981658935547">
<ele>71.5</ele>
<time>2014-02-15T15:49:33Z</time>
</trkpt>
<trkpt lat="52.63852310180664" lon="13.081899642944336">
<ele>71.5</ele>
<time>2014-02-15T15:49:34Z</time>
</trkpt>
<trkpt lat="52.63849639892578" lon="13.081819534301758">
<ele>71.4000015258789</ele>
<time>2014-02-15T15:49:35Z</time>
</trkpt>
<trkpt lat="52.63847351074219" lon="13.081751823425293">
<ele>71.4000015258789</ele>
<time>2014-02-15T15:49:36Z</time>
</trkpt>
<trkpt lat="52.6384391784668" lon="13.081659317016602">
<ele>71.80000305175781</ele>
<time>2014-02-15T15:49:38Z</time>
</trkpt>
<trkpt lat="52.638427734375" lon="13.08156967163086">
<ele>69.4000015258789</ele>
<time>2014-02-15T15:49:41Z</time>
</trkpt>
<trkpt lat="52.63847732543945" lon="13.081515312194824">
<ele>69.5</ele>
<time>2014-02-15T15:49:41Z</time>
</trkpt>
<trkpt lat="52.63850784301758" lon="13.08135986328125">
<ele>68.69999694824219</ele>
<time>2014-02-15T15:49:45Z</time>
</trkpt>
<trkpt lat="52.63850402832031" lon="13.0812406539917">
<ele>68.9000015258789</ele>
<time>2014-02-15T15:49:47Z</time>
</trkpt>
<trkpt lat="52.63848876953125" lon="13.081117630004883">
<ele>68.9000015258789</ele>
<time>2014-02-15T15:49:49Z</time>
</trkpt>
<trkpt lat="52.63846969604492" lon="13.081046104431152">
<ele>68.5999984741211</ele>
<time>2014-02-15T15:49:50Z</time>
</trkpt>
<trkpt lat="52.63844680786133" lon="13.080918312072754">
<ele>69.19999694824219</ele>
<time>2014-02-15T15:49:52Z</time>
</trkpt>
<trkpt lat="52.63841247558594" lon="13.08078670501709">
<ele>69.69999694824219</ele>
<time>2014-02-15T15:49:54Z</time>
</trkpt>
<trkpt lat="52.638397216796875" lon="13.080693244934082">
<ele>71.4000015258789</ele>
<time>2014-02-15T15:49:55Z</time>
</trkpt>
<trkpt lat="52.63838577270508" lon="13.080615043640137">
<ele>71.4000015258789</ele>
<time>2014-02-15T15:49:56Z</time>
</trkpt>
<trkpt lat="52.638362884521484" lon="13.080472946166992">
<ele>71.19999694824219</ele>
<time>2014-02-15T15:49:58Z</time>
</trkpt>
<trkpt lat="52.63835144042969" lon="13.08039665222168">
<ele>71.4000015258789</ele>
<time>2014-02-15T15:49:59Z</time>
</trkpt>
<trkpt lat="52.638328552246094" lon="13.080322265625">
<ele>71.69999694824219</ele>
<time>2014-02-15T15:50:00Z</time>
</trkpt>
<trkpt lat="52.638301849365234" lon="13.080187797546387">
<ele>71.30000305175781</ele>
<time>2014-02-15T15:50:02Z</time>
</trkpt>
<trkpt lat="52.63828659057617" lon="13.080060958862305">
<ele>71.4000015258789</ele>
<time>2014-02-15T15:50:04Z</time>
</trkpt>
<trkpt lat="52.63829040527344" lon="13.079972267150879">
<ele>71.30000305175781</ele>
<time>2014-02-15T15:50:05Z</time>
</trkpt>
<trkpt lat="52.638248443603516" lon="13.079841613769531">
<ele>71.4000015258789</ele>
<time>2014-02-15T15:50:07Z</time>
</trkpt>
<trkpt lat="52.638221740722656" lon="13.079744338989258">
<ele>71.80000305175781</ele>
<time>2014-02-15T15:50:08Z</time>
</trkpt>
<trkpt lat="52.638214111328125" lon="13.079666137695312">
<ele>71.80000305175781</ele>
<time>2014-02-15T15:50:09Z</time>
</trkpt>
<trkpt lat="52.63820266723633" lon="13.079594612121582">
<ele>72.0999984741211</ele>
<time>2014-02-15T15:50:10Z</time>
</trkpt>
<trkpt lat="52.63819122314453" lon="13.079520225524902">
<ele>72.19999694824219</ele>
<time>2014-02-15T15:50:11Z</time>
</trkpt>
<trkpt lat="52.63816452026367" lon="13.079362869262695">
<ele>72.69999694824219</ele>
<time>2014-02-15T15:50:13Z</time>
</trkpt>
<trkpt lat="52.63814163208008" lon="13.079293251037598">
<ele>73.19999694824219</ele>
<time>2014-02-15T15:50:14Z</time>
</trkpt>
<trkpt lat="52.63813781738281" lon="13.079216003417969">
<ele>73.9000015258789</ele>
<time>2014-02-15T15:50:15Z</time>
</trkpt>
<trkpt lat="52.638118743896484" lon="13.079146385192871">
<ele>73.69999694824219</ele>
<time>2014-02-15T15:50:16Z</time>
</trkpt>
<trkpt lat="52.63811111450195" lon="13.079062461853027">
<ele>74.0</ele>
<time>2014-02-15T15:50:17Z</time>
</trkpt>
<trkpt lat="52.638099670410156" lon="13.078972816467285">
<ele>74.0</ele>
<time>2014-02-15T15:50:18Z</time>
</trkpt>
<trkpt lat="52.63808822631836" lon="13.078893661499023">
<ele>74.0</ele>
<time>2014-02-15T15:50:19Z</time>
</trkpt>
<trkpt lat="52.63808059692383" lon="13.07880687713623">
<ele>74.0999984741211</ele>
<time>2014-02-15T15:50:20Z</time>
</trkpt>
<trkpt lat="52.6380500793457" lon="13.078709602355957">
<ele>74.0</ele>
<time>2014-02-15T15:50:21Z</time>
</trkpt>
<trkpt lat="52.63802719116211" lon="13.07862377166748">
<ele>74.0999984741211</ele>
<time>2014-02-15T15:50:22Z</time>
</trkpt>
<trkpt lat="52.63801956176758" lon="13.078539848327637">
<ele>74.0999984741211</ele>
<time>2014-02-15T15:50:23Z</time>
</trkpt>
<trkpt lat="52.63801193237305" lon="13.078462600708008">
<ele>74.30000305175781</ele>
<time>2014-02-15T15:50:24Z</time>
</trkpt>
<trkpt lat="52.637996673583984" lon="13.078381538391113">
<ele>74.30000305175781</ele>
<time>2014-02-15T15:50:25Z</time>
</trkpt>
<trkpt lat="52.63798141479492" lon="13.078301429748535">
<ele>74.30000305175781</ele>
<time>2014-02-15T15:50:26Z</time>
</trkpt>
<trkpt lat="52.637962341308594" lon="13.078137397766113">
<ele>73.69999694824219</ele>
<time>2014-02-15T15:50:28Z</time>
</trkpt>
<trkpt lat="52.637943267822266" lon="13.078052520751953">
<ele>73.80000305175781</ele>
<time>2014-02-15T15:50:29Z</time>
</trkpt>
<trkpt lat="52.637935638427734" lon="13.077977180480957">
<ele>74.5</ele>
<time>2014-02-15T15:50:30Z</time>
</trkpt>
<trkpt lat="52.637908935546875" lon="13.077899932861328">
<ele>74.4000015258789</ele>
<time>2014-02-15T15:50:31Z</time>
</trkpt>
<trkpt lat="52.63788986206055" lon="13.077804565429688">
<ele>74.69999694824219</ele>
<time>2014-02-15T15:50:32Z</time>
</trkpt>
<trkpt lat="52.63787078857422" lon="13.07772159576416">
<ele>74.69999694824219</ele>
<time>2014-02-15T15:50:33Z</time>
</trkpt>
<trkpt lat="52.637855529785156" lon="13.077619552612305">
<ele>75.4000015258789</ele>
<time>2014-02-15T15:50:34Z</time>
</trkpt>
<trkpt lat="52.637840270996094" lon="13.077534675598145">
<ele>76.4000015258789</ele>
<time>2014-02-15T15:50:35Z</time>
</trkpt>
<trkpt lat="52.63782501220703" lon="13.077454566955566">
<ele>76.5</ele>
<time>2014-02-15T15:50:36Z</time>
</trkpt>
<trkpt lat="52.63780975341797" lon="13.077370643615723">
<ele>77.0</ele>
<time>2014-02-15T15:50:37Z</time>
</trkpt>
<trkpt lat="52.6378059387207" lon="13.077282905578613">
<ele>76.30000305175781</ele>
<time>2014-02-15T15:50:38Z</time>
</trkpt>
<trkpt lat="52.637786865234375" lon="13.077192306518555">
<ele>76.30000305175781</ele>
<time>2014-02-15T15:50:39Z</time>
</trkpt>
<trkpt lat="52.63777160644531" lon="13.077106475830078">
<ele>76.80000305175781</ele>
<time>2014-02-15T15:50:40Z</time>
</trkpt>
<trkpt lat="52.63775634765625" lon="13.077008247375488">
<ele>76.9000015258789</ele>
<time>2014-02-15T15:50:41Z</time>
</trkpt>
<trkpt lat="52.637733459472656" lon="13.076910018920898">
<ele>77.30000305175781</ele>
<time>2014-02-15T15:50:42Z</time>
</trkpt>
<trkpt lat="52.63771438598633" lon="13.076828956604004">
<ele>78.0</ele>
<time>2014-02-15T15:50:43Z</time>
</trkpt>
<trkpt lat="52.63768768310547" lon="13.076740264892578">
<ele>78.30000305175781</ele>
<time>2014-02-15T15:50:44Z</time>
</trkpt>
<trkpt lat="52.637672424316406" lon="13.076652526855469">
<ele>78.9000015258789</ele>
<time>2014-02-15T15:50:45Z</time>
</trkpt>
<trkpt lat="52.637657165527344" lon="13.07656192779541">
<ele>79.4000015258789</ele>
<time>2014-02-15T15:50:46Z</time>
</trkpt>
<trkpt lat="52.637638092041016" lon="13.076472282409668">
<ele>78.80000305175781</ele>
<time>2014-02-15T15:50:47Z</time>
</trkpt>
<trkpt lat="52.63762664794922" lon="13.076395034790039">
<ele>78.0</ele>
<time>2014-02-15T15:50:48Z</time>
</trkpt>
<trkpt lat="52.63761520385742" lon="13.076305389404297">
<ele>78.0</ele>
<time>2014-02-15T15:50:49Z</time>
</trkpt>
<trkpt lat="52.637603759765625" lon="13.076216697692871">
<ele>78.19999694824219</ele>
<time>2014-02-15T15:50:50Z</time>
</trkpt>
<trkpt lat="52.637596130371094" lon="13.076126098632812">
<ele>79.0</ele>
<time>2014-02-15T15:50:51Z</time>
</trkpt>
<trkpt lat="52.6375846862793" lon="13.076041221618652">
<ele>78.5999984741211</ele>
<time>2014-02-15T15:50:52Z</time>
</trkpt>
<trkpt lat="52.637577056884766" lon="13.075959205627441">
<ele>78.4000015258789</ele>
<time>2014-02-15T15:50:53Z</time>
</trkpt>
<trkpt lat="52.637569427490234" lon="13.075868606567383">
<ele>78.30000305175781</ele>
<time>2014-02-15T15:50:54Z</time>
</trkpt>
<trkpt lat="52.63756561279297" lon="13.075784683227539">
<ele>78.30000305175781</ele>
<time>2014-02-15T15:50:55Z</time>
</trkpt>
<trkpt lat="52.63755798339844" lon="13.075700759887695">
<ele>78.0999984741211</ele>
<time>2014-02-15T15:50:56Z</time>
</trkpt>
<trkpt lat="52.63755416870117" lon="13.075614929199219">
<ele>78.19999694824219</ele>
<time>2014-02-15T15:50:57Z</time>
</trkpt>
<trkpt lat="52.63754653930664" lon="13.075526237487793">
<ele>77.80000305175781</ele>
<time>2014-02-15T15:50:58Z</time>
</trkpt>
<trkpt lat="52.637542724609375" lon="13.07543659210205">
<ele>77.4000015258789</ele>
<time>2014-02-15T15:50:59Z</time>
</trkpt>
<trkpt lat="52.63753890991211" lon="13.075346946716309">
<ele>77.5</ele>
<time>2014-02-15T15:51:00Z</time>
</trkpt>
<trkpt lat="52.63753128051758" lon="13.0752534866333">
<ele>77.5999984741211</ele>
<time>2014-02-15T15:51:01Z</time>
</trkpt>
<trkpt lat="52.637535095214844" lon="13.075161933898926">
<ele>77.30000305175781</ele>
<time>2014-02-15T15:51:02Z</time>
</trkpt>
<trkpt lat="52.637535095214844" lon="13.075072288513184">
<ele>77.19999694824219</ele>
<time>2014-02-15T15:51:03Z</time>
</trkpt>
<trkpt lat="52.63753890991211" lon="13.074984550476074">
<ele>76.9000015258789</ele>
<time>2014-02-15T15:51:04Z</time>
</trkpt>
<trkpt lat="52.637550354003906" lon="13.074895858764648">
<ele>77.0</ele>
<time>2014-02-15T15:51:05Z</time>
</trkpt>
<trkpt lat="52.63755798339844" lon="13.074801445007324">
<ele>76.69999694824219</ele>
<time>2014-02-15T15:51:06Z</time>
</trkpt>
<trkpt lat="52.63755416870117" lon="13.074711799621582">
<ele>76.19999694824219</ele>
<time>2014-02-15T15:51:07Z</time>
</trkpt>
<trkpt lat="52.63755416870117" lon="13.074626922607422">
<ele>75.9000015258789</ele>
<time>2014-02-15T15:51:08Z</time>
</trkpt>
<trkpt lat="52.63755416870117" lon="13.074538230895996">
<ele>76.0999984741211</ele>
<time>2014-02-15T15:51:09Z</time>
</trkpt>
<trkpt lat="52.63755798339844" lon="13.074454307556152">
<ele>76.30000305175781</ele>
<time>2014-02-15T15:51:10Z</time>
</trkpt>
<trkpt lat="52.63754653930664" lon="13.07435417175293">
<ele>75.80000305175781</ele>
<time>2014-02-15T15:51:11Z</time>
</trkpt>
<trkpt lat="52.63753890991211" lon="13.07425308227539">
<ele>75.5999984741211</ele>
<time>2014-02-15T15:51:12Z</time>
</trkpt>
<trkpt lat="52.637535095214844" lon="13.074163436889648">
<ele>75.5</ele>
<time>2014-02-15T15:51:13Z</time>
</trkpt>
<trkpt lat="52.63753890991211" lon="13.074069023132324">
<ele>75.30000305175781</ele>
<time>2014-02-15T15:51:14Z</time>
</trkpt>
<trkpt lat="52.637542724609375" lon="13.073970794677734">
<ele>74.80000305175781</ele>
<time>2014-02-15T15:51:15Z</time>
</trkpt>
<trkpt lat="52.63753890991211" lon="13.073882102966309">
<ele>75.0</ele>
<time>2014-02-15T15:51:16Z</time>
</trkpt>
<trkpt lat="52.637535095214844" lon="13.073793411254883">
<ele>75.19999694824219</ele>
<time>2014-02-15T15:51:17Z</time>
</trkpt>
<trkpt lat="52.63752746582031" lon="13.073698997497559">
<ele>74.69999694824219</ele>
<time>2014-02-15T15:51:18Z</time>
</trkpt>
<trkpt lat="52.63752365112305" lon="13.073598861694336">
<ele>75.19999694824219</ele>
<time>2014-02-15T15:51:19Z</time>
</trkpt>
<trkpt lat="52.63752746582031" lon="13.073516845703125">
<ele>75.30000305175781</ele>
<time>2014-02-15T15:51:20Z</time>
</trkpt>
<trkpt lat="52.63752746582031" lon="13.073426246643066">
<ele>75.30000305175781</ele>
<time>2014-02-15T15:51:21Z</time>
</trkpt>
<trkpt lat="52.63751983642578" lon="13.07323169708252">
<ele>74.9000015258789</ele>
<time>2014-02-15T15:51:23Z</time>
</trkpt>
<trkpt lat="52.63751983642578" lon="13.073148727416992">
<ele>75.0</ele>
<time>2014-02-15T15:51:24Z</time>
</trkpt>
<trkpt lat="52.63753128051758" lon="13.073060989379883">
<ele>75.0999984741211</ele>
<time>2014-02-15T15:51:25Z</time>
</trkpt>
<trkpt lat="52.63752746582031" lon="13.072972297668457">
<ele>77.19999694824219</ele>
<time>2014-02-15T15:51:26Z</time>
</trkpt>
<trkpt lat="52.63752365112305" lon="13.07288646697998">
<ele>77.30000305175781</ele>
<time>2014-02-15T15:51:27Z</time>
</trkpt>
<trkpt lat="52.63752746582031" lon="13.072798728942871">
<ele>77.30000305175781</ele>
<time>2014-02-15T15:51:28Z</time>
</trkpt>
<trkpt lat="52.63753128051758" lon="13.07271671295166">
<ele>77.30000305175781</ele>
<time>2014-02-15T15:51:29Z</time>
</trkpt>
<trkpt lat="52.63753128051758" lon="13.072619438171387">
<ele>77.19999694824219</ele>
<time>2014-02-15T15:51:30Z</time>
</trkpt>
<trkpt lat="52.63752365112305" lon="13.072547912597656">
<ele>77.0</ele>
<time>2014-02-15T15:51:31Z</time>
</trkpt>
<trkpt lat="52.63751220703125" lon="13.072470664978027">
<ele>76.4000015258789</ele>
<time>2014-02-15T15:51:32Z</time>
</trkpt>
<trkpt lat="52.63751983642578" lon="13.072381019592285">
<ele>75.5999984741211</ele>
<time>2014-02-15T15:51:33Z</time>
</trkpt>
<trkpt lat="52.637516021728516" lon="13.072286605834961">
<ele>74.9000015258789</ele>
<time>2014-02-15T15:51:34Z</time>
</trkpt>
<trkpt lat="52.63750457763672" lon="13.072205543518066">
<ele>76.5</ele>
<time>2014-02-15T15:51:35Z</time>
</trkpt>
<trkpt lat="52.63750457763672" lon="13.072115898132324">
<ele>76.19999694824219</ele>
<time>2014-02-15T15:51:36Z</time>
</trkpt>
<trkpt lat="52.637508392333984" lon="13.072036743164062">
<ele>76.4000015258789</ele>
<time>2014-02-15T15:51:37Z</time>
</trkpt>
<trkpt lat="52.63750457763672" lon="13.071935653686523">
<ele>76.5</ele>
<time>2014-02-15T15:51:38Z</time>
</trkpt>
<trkpt lat="52.637508392333984" lon="13.071813583374023">
<ele>76.0999984741211</ele>
<time>2014-02-15T15:51:39Z</time>
</trkpt>
<trkpt lat="52.63750457763672" lon="13.071734428405762">
<ele>75.80000305175781</ele>
<time>2014-02-15T15:51:40Z</time>
</trkpt>
<trkpt lat="52.63749694824219" lon="13.071660041809082">
<ele>75.5999984741211</ele>
<time>2014-02-15T15:51:41Z</time>
</trkpt>
<trkpt lat="52.637489318847656" lon="13.071560859680176">
<ele>75.0</ele>
<time>2014-02-15T15:51:42Z</time>
</trkpt>
<trkpt lat="52.63748550415039" lon="13.071464538574219">
<ele>74.9000015258789</ele>
<time>2014-02-15T15:51:43Z</time>
</trkpt>
<trkpt lat="52.637474060058594" lon="13.071392059326172">
<ele>74.5999984741211</ele>
<time>2014-02-15T15:51:44Z</time>
</trkpt>
<trkpt lat="52.63746643066406" lon="13.071300506591797">
<ele>74.19999694824219</ele>
<time>2014-02-15T15:51:45Z</time>
</trkpt>
<trkpt lat="52.6374626159668" lon="13.071208000183105">
<ele>74.30000305175781</ele>
<time>2014-02-15T15:51:46Z</time>
</trkpt>
<trkpt lat="52.63747024536133" lon="13.071113586425781">
<ele>74.30000305175781</ele>
<time>2014-02-15T15:51:47Z</time>
</trkpt>
<trkpt lat="52.63747024536133" lon="13.071023941040039">
<ele>74.69999694824219</ele>
<time>2014-02-15T15:51:48Z</time>
</trkpt>
<trkpt lat="52.637474060058594" lon="13.070928573608398">
<ele>74.5</ele>
<time>2014-02-15T15:51:49Z</time>
</trkpt>
<trkpt lat="52.63746643066406" lon="13.070841789245605">
<ele>74.5999984741211</ele>
<time>2014-02-15T15:51:50Z</time>
</trkpt>
<trkpt lat="52.63747024536133" lon="13.070741653442383">
<ele>75.0</ele>
<time>2014-02-15T15:51:51Z</time>
</trkpt>
<trkpt lat="52.6374626159668" lon="13.070662498474121">
<ele>73.19999694824219</ele>
<time>2014-02-15T15:51:52Z</time>
</trkpt>
<trkpt lat="52.637454986572266" lon="13.070556640625">
<ele>72.69999694824219</ele>
<time>2014-02-15T15:51:53Z</time>
</trkpt>
<trkpt lat="52.637451171875" lon="13.070478439331055">
<ele>72.4000015258789</ele>
<time>2014-02-15T15:51:54Z</time>
</trkpt>
<trkpt lat="52.63743591308594" lon="13.070343017578125">
<ele>72.0</ele>
<time>2014-02-15T15:51:56Z</time>
</trkpt>
<trkpt lat="52.6374397277832" lon="13.070266723632812">
<ele>72.0</ele>
<time>2014-02-15T15:51:57Z</time>
</trkpt>
<trkpt lat="52.637451171875" lon="13.07016372680664">
<ele>71.80000305175781</ele>
<time>2014-02-15T15:51:58Z</time>
</trkpt>
<trkpt lat="52.637451171875" lon="13.070076942443848">
<ele>72.0999984741211</ele>
<time>2014-02-15T15:51:59Z</time>
</trkpt>
<trkpt lat="52.637447357177734" lon="13.069931983947754">
<ele>72.19999694824219</ele>
<time>2014-02-15T15:52:01Z</time>
</trkpt>
<trkpt lat="52.637451171875" lon="13.069750785827637">
<ele>72.30000305175781</ele>
<time>2014-02-15T15:52:03Z</time>
</trkpt>
<trkpt lat="52.6374397277832" lon="13.069664001464844">
<ele>72.19999694824219</ele>
<time>2014-02-15T15:52:04Z</time>
</trkpt>
<trkpt lat="52.637428283691406" lon="13.06958293914795">
<ele>72.30000305175781</ele>
<time>2014-02-15T15:52:05Z</time>
</trkpt>
<trkpt lat="52.63742446899414" lon="13.06948471069336">
<ele>72.80000305175781</ele>
<time>2014-02-15T15:52:06Z</time>
</trkpt>
<trkpt lat="52.63742446899414" lon="13.069393157958984">
<ele>73.5</ele>
<time>2014-02-15T15:52:07Z</time>
</trkpt>
<trkpt lat="52.63743209838867" lon="13.069307327270508">
<ele>73.9000015258789</ele>
<time>2014-02-15T15:52:08Z</time>
</trkpt>
<trkpt lat="52.637420654296875" lon="13.06922435760498">
<ele>74.4000015258789</ele>
<time>2014-02-15T15:52:09Z</time>
</trkpt>
<trkpt lat="52.63741683959961" lon="13.069060325622559">
<ele>74.69999694824219</ele>
<time>2014-02-15T15:52:11Z</time>
</trkpt>
<trkpt lat="52.63740921020508" lon="13.068968772888184">
<ele>74.4000015258789</ele>
<time>2014-02-15T15:52:12Z</time>
</trkpt>
<trkpt lat="52.63741683959961" lon="13.068870544433594">
<ele>74.0999984741211</ele>
<time>2014-02-15T15:52:13Z</time>
</trkpt>
<trkpt lat="52.637413024902344" lon="13.068779945373535">
<ele>74.0</ele>
<time>2014-02-15T15:52:14Z</time>
</trkpt>
<trkpt lat="52.63741683959961" lon="13.068683624267578">
<ele>73.30000305175781</ele>
<time>2014-02-15T15:52:15Z</time>
</trkpt>
<trkpt lat="52.63743209838867" lon="13.068591117858887">
<ele>72.80000305175781</ele>
<time>2014-02-15T15:52:16Z</time>
</trkpt>
<trkpt lat="52.637428283691406" lon="13.068502426147461">
<ele>71.5999984741211</ele>
<time>2014-02-15T15:52:17Z</time>
</trkpt>
<trkpt lat="52.63743209838867" lon="13.068351745605469">
<ele>71.0</ele>
<time>2014-02-15T15:52:19Z</time>
</trkpt>
<trkpt lat="52.637420654296875" lon="13.068171501159668">
<ele>70.0999984741211</ele>
<time>2014-02-15T15:52:22Z</time>
</trkpt>
<trkpt lat="52.63740539550781" lon="13.068013191223145">
<ele>69.69999694824219</ele>
<time>2014-02-15T15:52:23Z</time>
</trkpt>
<trkpt lat="52.637393951416016" lon="13.06783676147461">
<ele>70.5999984741211</ele>
<time>2014-02-15T15:52:25Z</time>
</trkpt>
<trkpt lat="52.63738250732422" lon="13.067728042602539">
<ele>70.0</ele>
<time>2014-02-15T15:52:26Z</time>
</trkpt>
<trkpt lat="52.63737487792969" lon="13.067651748657227">
<ele>69.80000305175781</ele>
<time>2014-02-15T15:52:27Z</time>
</trkpt>
<trkpt lat="52.63737487792969" lon="13.067521095275879">
<ele>71.9000015258789</ele>
<time>2014-02-15T15:52:28Z</time>
</trkpt>
<trkpt lat="52.63737106323242" lon="13.067439079284668">
<ele>71.9000015258789</ele>
<time>2014-02-15T15:52:29Z</time>
</trkpt>
<trkpt lat="52.63737487792969" lon="13.067353248596191">
<ele>72.0999984741211</ele>
<time>2014-02-15T15:52:30Z</time>
</trkpt>
<trkpt lat="52.637359619140625" lon="13.06725025177002">
<ele>72.69999694824219</ele>
<time>2014-02-15T15:52:31Z</time>
</trkpt>
<trkpt lat="52.63734817504883" lon="13.067163467407227">
<ele>72.4000015258789</ele>
<time>2014-02-15T15:52:32Z</time>
</trkpt>
<trkpt lat="52.63734817504883" lon="13.06698989868164">
<ele>71.9000015258789</ele>
<time>2014-02-15T15:52:34Z</time>
</trkpt>
<trkpt lat="52.63733673095703" lon="13.066895484924316">
<ele>71.5</ele>
<time>2014-02-15T15:52:35Z</time>
</trkpt>
<trkpt lat="52.6373291015625" lon="13.066819190979004">
<ele>71.4000015258789</ele>
<time>2014-02-15T15:52:36Z</time>
</trkpt>
<trkpt lat="52.6373291015625" lon="13.06672191619873">
<ele>71.19999694824219</ele>
<time>2014-02-15T15:52:37Z</time>
</trkpt>
<trkpt lat="52.6373291015625" lon="13.066636085510254">
<ele>71.80000305175781</ele>
<time>2014-02-15T15:52:38Z</time>
</trkpt>
<trkpt lat="52.6373291015625" lon="13.066539764404297">
<ele>72.0</ele>
<time>2014-02-15T15:52:39Z</time>
</trkpt>
<trkpt lat="52.6373291015625" lon="13.066447257995605">
<ele>71.69999694824219</ele>
<time>2014-02-15T15:52:40Z</time>
</trkpt>
<trkpt lat="52.637332916259766" lon="13.066357612609863">
<ele>71.5999984741211</ele>
<time>2014-02-15T15:52:41Z</time>
</trkpt>
<trkpt lat="52.63732147216797" lon="13.06627082824707">
<ele>71.5</ele>
<time>2014-02-15T15:52:42Z</time>
</trkpt>
<trkpt lat="52.63731002807617" lon="13.066183090209961">
<ele>71.69999694824219</ele>
<time>2014-02-15T15:52:43Z</time>
</trkpt>
<trkpt lat="52.637298583984375" lon="13.066094398498535">
<ele>72.4000015258789</ele>
<time>2014-02-15T15:52:44Z</time>
</trkpt>
<trkpt lat="52.63727569580078" lon="13.065935134887695">
<ele>72.19999694824219</ele>
<time>2014-02-15T15:52:46Z</time>
</trkpt>
<trkpt lat="52.63728332519531" lon="13.065834999084473">
<ele>72.0</ele>
<time>2014-02-15T15:52:47Z</time>
</trkpt>
<trkpt lat="52.637290954589844" lon="13.065755844116211">
<ele>72.5999984741211</ele>
<time>2014-02-15T15:52:48Z</time>
</trkpt>
<trkpt lat="52.63730239868164" lon="13.065656661987305">
<ele>73.5</ele>
<time>2014-02-15T15:52:49Z</time>
</trkpt>
<trkpt lat="52.63731002807617" lon="13.065563201904297">
<ele>73.5999984741211</ele>
<time>2014-02-15T15:52:50Z</time>
</trkpt>
<trkpt lat="52.637298583984375" lon="13.065479278564453">
<ele>74.19999694824219</ele>
<time>2014-02-15T15:52:51Z</time>
</trkpt>
<trkpt lat="52.637306213378906" lon="13.065328598022461">
<ele>73.9000015258789</ele>
<time>2014-02-15T15:52:53Z</time>
</trkpt>
<trkpt lat="52.63727951049805" lon="13.065228462219238">
<ele>73.9000015258789</ele>
<time>2014-02-15T15:52:54Z</time>
</trkpt>
<trkpt lat="52.63727951049805" lon="13.065135955810547">
<ele>74.0</ele>
<time>2014-02-15T15:52:55Z</time>
</trkpt>
<trkpt lat="52.63728332519531" lon="13.065044403076172">
<ele>73.9000015258789</ele>
<time>2014-02-15T15:52:56Z</time>
</trkpt>
<trkpt lat="52.637290954589844" lon="13.064889907836914">
<ele>73.30000305175781</ele>
<time>2014-02-15T15:52:58Z</time>
</trkpt>
<trkpt lat="52.637306213378906" lon="13.064804077148438">
<ele>73.0999984741211</ele>
<time>2014-02-15T15:52:59Z</time>
</trkpt>
<trkpt lat="52.63732147216797" lon="13.064629554748535">
<ele>74.5</ele>
<time>2014-02-15T15:53:01Z</time>
</trkpt>
<trkpt lat="52.63732147216797" lon="13.064541816711426">
<ele>75.4000015258789</ele>
<time>2014-02-15T15:53:02Z</time>
</trkpt>
<trkpt lat="52.637325286865234" lon="13.064454078674316">
<ele>75.4000015258789</ele>
<time>2014-02-15T15:53:03Z</time>
</trkpt>
<trkpt lat="52.63733673095703" lon="13.064309120178223">
<ele>75.19999694824219</ele>
<time>2014-02-15T15:53:05Z</time>
</trkpt>
<trkpt lat="52.63735580444336" lon="13.064231872558594">
<ele>74.9000015258789</ele>
<time>2014-02-15T15:53:06Z</time>
</trkpt>
<trkpt lat="52.63734817504883" lon="13.0641450881958">
<ele>74.0</ele>
<time>2014-02-15T15:53:07Z</time>
</trkpt>
<trkpt lat="52.63734817504883" lon="13.064058303833008">
<ele>73.9000015258789</ele>
<time>2014-02-15T15:53:08Z</time>
</trkpt>
<trkpt lat="52.637359619140625" lon="13.06396770477295">
<ele>73.5</ele>
<time>2014-02-15T15:53:09Z</time>
</trkpt>
<trkpt lat="52.637351989746094" lon="13.063876152038574">
<ele>73.4000015258789</ele>
<time>2014-02-15T15:53:10Z</time>
</trkpt>
<trkpt lat="52.637359619140625" lon="13.063786506652832">
<ele>73.4000015258789</ele>
<time>2014-02-15T15:53:11Z</time>
</trkpt>
<trkpt lat="52.637359619140625" lon="13.063709259033203">
<ele>72.80000305175781</ele>
<time>2014-02-15T15:53:12Z</time>
</trkpt>
<trkpt lat="52.637359619140625" lon="13.063621520996094">
<ele>72.80000305175781</ele>
<time>2014-02-15T15:53:13Z</time>
</trkpt>
<trkpt lat="52.637386322021484" lon="13.063542366027832">
<ele>72.69999694824219</ele>
<time>2014-02-15T15:53:14Z</time>
</trkpt>
<trkpt lat="52.63739013671875" lon="13.063448905944824">
<ele>72.4000015258789</ele>
<time>2014-02-15T15:53:15Z</time>
</trkpt>
<trkpt lat="52.63740158081055" lon="13.06335735321045">
<ele>72.9000015258789</ele>
<time>2014-02-15T15:53:16Z</time>
</trkpt>
<trkpt lat="52.63740921020508" lon="13.063254356384277">
<ele>72.5999984741211</ele>
<time>2014-02-15T15:53:17Z</time>
</trkpt>
<trkpt lat="52.63740921020508" lon="13.063172340393066">
<ele>72.30000305175781</ele>
<time>2014-02-15T15:53:18Z</time>
</trkpt>
<trkpt lat="52.63741683959961" lon="13.063097953796387">
<ele>72.0999984741211</ele>
<time>2014-02-15T15:53:19Z</time>
</trkpt>
<trkpt lat="52.6374397277832" lon="13.063014030456543">
<ele>72.5</ele>
<time>2014-02-15T15:53:20Z</time>
</trkpt>
<trkpt lat="52.637428283691406" lon="13.062919616699219">
<ele>71.5999984741211</ele>
<time>2014-02-15T15:53:21Z</time>
</trkpt>
<trkpt lat="52.637447357177734" lon="13.062809944152832">
<ele>70.80000305175781</ele>
<time>2014-02-15T15:53:22Z</time>
</trkpt>
<trkpt lat="52.637451171875" lon="13.062713623046875">
<ele>70.30000305175781</ele>
<time>2014-02-15T15:53:23Z</time>
</trkpt>
<trkpt lat="52.63745880126953" lon="13.062636375427246">
<ele>70.4000015258789</ele>
<time>2014-02-15T15:53:24Z</time>
</trkpt>
<trkpt lat="52.637474060058594" lon="13.062546730041504">
<ele>70.9000015258789</ele>
<time>2014-02-15T15:53:25Z</time>
</trkpt>
<trkpt lat="52.637481689453125" lon="13.062467575073242">
<ele>71.0999984741211</ele>
<time>2014-02-15T15:53:26Z</time>
</trkpt>
<trkpt lat="52.637489318847656" lon="13.0623779296875">
<ele>71.19999694824219</ele>
<time>2014-02-15T15:53:27Z</time>
</trkpt>
<trkpt lat="52.63749313354492" lon="13.06228256225586">
<ele>71.0999984741211</ele>
<time>2014-02-15T15:53:28Z</time>
</trkpt>
<trkpt lat="52.63751220703125" lon="13.062199592590332">
<ele>71.0999984741211</ele>
<time>2014-02-15T15:53:29Z</time>
</trkpt>
<trkpt lat="52.63752746582031" lon="13.062108993530273">
<ele>71.0999984741211</ele>
<time>2014-02-15T15:53:30Z</time>
</trkpt>
<trkpt lat="52.637550354003906" lon="13.062016487121582">
<ele>71.30000305175781</ele>
<time>2014-02-15T15:53:31Z</time>
</trkpt>
<trkpt lat="52.637577056884766" lon="13.061922073364258">
<ele>71.30000305175781</ele>
<time>2014-02-15T15:53:32Z</time>
</trkpt>
<trkpt lat="52.63759231567383" lon="13.061841011047363">
<ele>71.19999694824219</ele>
<time>2014-02-15T15:53:33Z</time>
</trkpt>
<trkpt lat="52.637596130371094" lon="13.06175422668457">
<ele>71.19999694824219</ele>
<time>2014-02-15T15:53:34Z</time>
</trkpt>
<trkpt lat="52.63761901855469" lon="13.06165885925293">
<ele>71.0999984741211</ele>
<time>2014-02-15T15:53:35Z</time>
</trkpt>
<trkpt lat="52.637630462646484" lon="13.061576843261719">
<ele>71.19999694824219</ele>
<time>2014-02-15T15:53:36Z</time>
</trkpt>
<trkpt lat="52.637638092041016" lon="13.06149673461914">
<ele>71.5999984741211</ele>
<time>2014-02-15T15:53:37Z</time>
</trkpt>
<trkpt lat="52.637657165527344" lon="13.061415672302246">
<ele>71.5999984741211</ele>
<time>2014-02-15T15:53:38Z</time>
</trkpt>
<trkpt lat="52.63767623901367" lon="13.06134033203125">
<ele>71.5999984741211</ele>
<time>2014-02-15T15:53:39Z</time>
</trkpt>
<trkpt lat="52.637691497802734" lon="13.061254501342773">
<ele>71.5999984741211</ele>
<time>2014-02-15T15:53:40Z</time>
</trkpt>
<trkpt lat="52.6376953125" lon="13.061164855957031">
<ele>71.9000015258789</ele>
<time>2014-02-15T15:53:41Z</time>
</trkpt>
<trkpt lat="52.63771438598633" lon="13.061079025268555">
<ele>71.5</ele>
<time>2014-02-15T15:53:42Z</time>
</trkpt>
<trkpt lat="52.63774108886719" lon="13.060994148254395">
<ele>71.5</ele>
<time>2014-02-15T15:53:43Z</time>
</trkpt>
<trkpt lat="52.63774490356445" lon="13.060906410217285">
<ele>71.0</ele>
<time>2014-02-15T15:53:44Z</time>
</trkpt>
<trkpt lat="52.63774871826172" lon="13.060802459716797">
<ele>70.5999984741211</ele>
<time>2014-02-15T15:53:45Z</time>
</trkpt>
<trkpt lat="52.63777160644531" lon="13.060723304748535">
<ele>70.5</ele>
<time>2014-02-15T15:53:46Z</time>
</trkpt>
<trkpt lat="52.63779067993164" lon="13.060622215270996">
<ele>70.19999694824219</ele>
<time>2014-02-15T15:53:47Z</time>
</trkpt>
<trkpt lat="52.637794494628906" lon="13.060537338256836">
<ele>70.80000305175781</ele>
<time>2014-02-15T15:53:48Z</time>
</trkpt>
<trkpt lat="52.637813568115234" lon="13.060434341430664">
<ele>70.69999694824219</ele>
<time>2014-02-15T15:53:49Z</time>
</trkpt>
<trkpt lat="52.63783645629883" lon="13.060345649719238">
<ele>70.0</ele>
<time>2014-02-15T15:53:50Z</time>
</trkpt>
<trkpt lat="52.63783645629883" lon="13.06025505065918">
<ele>70.4000015258789</ele>
<time>2014-02-15T15:53:51Z</time>
</trkpt>
<trkpt lat="52.637847900390625" lon="13.06016731262207">
<ele>70.5</ele>
<time>2014-02-15T15:53:52Z</time>
</trkpt>
<trkpt lat="52.63786315917969" lon="13.060077667236328">
<ele>70.4000015258789</ele>
<time>2014-02-15T15:53:53Z</time>
</trkpt>
<trkpt lat="52.63789749145508" lon="13.059924125671387">
<ele>70.30000305175781</ele>
<time>2014-02-15T15:53:55Z</time>
</trkpt>
<trkpt lat="52.637901306152344" lon="13.059809684753418">
<ele>69.80000305175781</ele>
<time>2014-02-15T15:53:56Z</time>
</trkpt>
<trkpt lat="52.63792419433594" lon="13.05972957611084">
<ele>69.80000305175781</ele>
<time>2014-02-15T15:53:57Z</time>
</trkpt>
<trkpt lat="52.637943267822266" lon="13.059632301330566">
<ele>69.5999984741211</ele>
<time>2014-02-15T15:53:58Z</time>
</trkpt>
<trkpt lat="52.63794708251953" lon="13.059527397155762">
<ele>69.4000015258789</ele>
<time>2014-02-15T15:53:59Z</time>
</trkpt>
<trkpt lat="52.637962341308594" lon="13.05943775177002">
<ele>70.0</ele>
<time>2014-02-15T15:54:00Z</time>
</trkpt>
<trkpt lat="52.63798522949219" lon="13.059334754943848">
<ele>69.5</ele>
<time>2014-02-15T15:54:01Z</time>
</trkpt>
<trkpt lat="52.638004302978516" lon="13.05924129486084">
<ele>69.5</ele>
<time>2014-02-15T15:54:02Z</time>
</trkpt>
<trkpt lat="52.63801574707031" lon="13.059165000915527">
<ele>68.4000015258789</ele>
<time>2014-02-15T15:54:03Z</time>
</trkpt>
<trkpt lat="52.638023376464844" lon="13.059087753295898">
<ele>68.30000305175781</ele>
<time>2014-02-15T15:54:04Z</time>
</trkpt>
<trkpt lat="52.63804244995117" lon="13.058999061584473">
<ele>68.0999984741211</ele>
<time>2014-02-15T15:54:05Z</time>
</trkpt>
<trkpt lat="52.6380615234375" lon="13.058917999267578">
<ele>68.0</ele>
<time>2014-02-15T15:54:06Z</time>
</trkpt>
<trkpt lat="52.6380615234375" lon="13.058772087097168">
<ele>68.0</ele>
<time>2014-02-15T15:54:08Z</time>
</trkpt>
<trkpt lat="52.6380729675293" lon="13.058695793151855">
<ele>68.19999694824219</ele>
<time>2014-02-15T15:54:09Z</time>
</trkpt>
<trkpt lat="52.63808822631836" lon="13.058591842651367">
<ele>68.80000305175781</ele>
<time>2014-02-15T15:54:10Z</time>
</trkpt>
<trkpt lat="52.63809585571289" lon="13.058516502380371">
<ele>69.5</ele>
<time>2014-02-15T15:54:11Z</time>
</trkpt>
<trkpt lat="52.63810729980469" lon="13.058423042297363">
<ele>69.4000015258789</ele>
<time>2014-02-15T15:54:12Z</time>
</trkpt>
<trkpt lat="52.638126373291016" lon="13.058279037475586">
<ele>69.30000305175781</ele>
<time>2014-02-15T15:54:14Z</time>
</trkpt>
<trkpt lat="52.638126373291016" lon="13.058196067810059">
<ele>69.0</ele>
<time>2014-02-15T15:54:15Z</time>
</trkpt>
<trkpt lat="52.63813400268555" lon="13.05810832977295">
<ele>69.0</ele>
<time>2014-02-15T15:54:16Z</time>
</trkpt>
<trkpt lat="52.638153076171875" lon="13.058029174804688">
<ele>68.5</ele>
<time>2014-02-15T15:54:17Z</time>
</trkpt>
<trkpt lat="52.63816452026367" lon="13.057931900024414">
<ele>68.4000015258789</ele>
<time>2014-02-15T15:54:18Z</time>
</trkpt>
<trkpt lat="52.638179779052734" lon="13.057829856872559">
<ele>68.30000305175781</ele>
<time>2014-02-15T15:54:19Z</time>
</trkpt>
<trkpt lat="52.638187408447266" lon="13.057690620422363">
<ele>67.5</ele>
<time>2014-02-15T15:54:22Z</time>
</trkpt>
<trkpt lat="52.6381950378418" lon="13.057554244995117">
<ele>66.0999984741211</ele>
<time>2014-02-15T15:54:23Z</time>
</trkpt>
<trkpt lat="52.6381950378418" lon="13.057401657104492">
<ele>65.30000305175781</ele>
<time>2014-02-15T15:54:25Z</time>
</trkpt>
<trkpt lat="52.6381950378418" lon="13.057215690612793">
<ele>64.5</ele>
<time>2014-02-15T15:54:27Z</time>
</trkpt>
<trkpt lat="52.63819885253906" lon="13.05709457397461">
<ele>64.5999984741211</ele>
<time>2014-02-15T15:54:28Z</time>
</trkpt>
<trkpt lat="52.63819885253906" lon="13.057012557983398">
<ele>64.80000305175781</ele>
<time>2014-02-15T15:54:29Z</time>
</trkpt>
<trkpt lat="52.63821792602539" lon="13.056900978088379">
<ele>64.5999984741211</ele>
<time>2014-02-15T15:54:30Z</time>
</trkpt>
<trkpt lat="52.638221740722656" lon="13.056739807128906">
<ele>65.30000305175781</ele>
<time>2014-02-15T15:54:32Z</time>
</trkpt>
<trkpt lat="52.638214111328125" lon="13.05664348602295">
<ele>65.0999984741211</ele>
<time>2014-02-15T15:54:33Z</time>
</trkpt>
<trkpt lat="52.63823318481445" lon="13.05655288696289">
<ele>65.5</ele>
<time>2014-02-15T15:54:34Z</time>
</trkpt>
<trkpt lat="52.63821792602539" lon="13.056479454040527">
<ele>65.4000015258789</ele>
<time>2014-02-15T15:54:35Z</time>
</trkpt>
<trkpt lat="52.638221740722656" lon="13.05639934539795">
<ele>65.69999694824219</ele>
<time>2014-02-15T15:54:36Z</time>
</trkpt>
<trkpt lat="52.63825225830078" lon="13.056316375732422">
<ele>66.30000305175781</ele>
<time>2014-02-15T15:54:37Z</time>
</trkpt>
<trkpt lat="52.638267517089844" lon="13.056241989135742">
<ele>67.0</ele>
<time>2014-02-15T15:54:38Z</time>
</trkpt>
<trkpt lat="52.63826370239258" lon="13.056110382080078">
<ele>66.9000015258789</ele>
<time>2014-02-15T15:54:40Z</time>
</trkpt>
<trkpt lat="52.63825607299805" lon="13.056008338928223">
<ele>67.30000305175781</ele>
<time>2014-02-15T15:54:41Z</time>
</trkpt>
<trkpt lat="52.63825607299805" lon="13.055926322937012">
<ele>67.30000305175781</ele>
<time>2014-02-15T15:54:42Z</time>
</trkpt>
<trkpt lat="52.63825988769531" lon="13.055834770202637">
<ele>67.9000015258789</ele>
<time>2014-02-15T15:54:43Z</time>
</trkpt>
<trkpt lat="52.638267517089844" lon="13.055753707885742">
<ele>68.5</ele>
<time>2014-02-15T15:54:44Z</time>
</trkpt>
<trkpt lat="52.63826370239258" lon="13.055648803710938">
<ele>68.9000015258789</ele>
<time>2014-02-15T15:54:45Z</time>
</trkpt>
<trkpt lat="52.63827133178711" lon="13.055562973022461">
<ele>69.0999984741211</ele>
<time>2014-02-15T15:54:46Z</time>
</trkpt>
<trkpt lat="52.63829040527344" lon="13.05547046661377">
<ele>69.0</ele>
<time>2014-02-15T15:54:47Z</time>
</trkpt>
<trkpt lat="52.638282775878906" lon="13.055376052856445">
<ele>70.0999984741211</ele>
<time>2014-02-15T15:54:48Z</time>
</trkpt>
<trkpt lat="52.63829040527344" lon="13.055290222167969">
<ele>70.80000305175781</ele>
<time>2014-02-15T15:54:49Z</time>
</trkpt>
<trkpt lat="52.63829040527344" lon="13.05519962310791">
<ele>71.19999694824219</ele>
<time>2014-02-15T15:54:50Z</time>
</trkpt>
<trkpt lat="52.638301849365234" lon="13.055106163024902">
<ele>71.9000015258789</ele>
<time>2014-02-15T15:54:51Z</time>
</trkpt>
<trkpt lat="52.6382942199707" lon="13.055002212524414">
<ele>72.5</ele>
<time>2014-02-15T15:54:52Z</time>
</trkpt>
<trkpt lat="52.63829803466797" lon="13.054909706115723">
<ele>72.5999984741211</ele>
<time>2014-02-15T15:54:53Z</time>
</trkpt>
<trkpt lat="52.6383056640625" lon="13.05481243133545">
<ele>72.4000015258789</ele>
<time>2014-02-15T15:54:54Z</time>
</trkpt>
<trkpt lat="52.638301849365234" lon="13.054734230041504">
<ele>72.80000305175781</ele>
<time>2014-02-15T15:54:55Z</time>
</trkpt>
<trkpt lat="52.638309478759766" lon="13.054646492004395">
<ele>73.0</ele>
<time>2014-02-15T15:54:56Z</time>
</trkpt>
<trkpt lat="52.638336181640625" lon="13.054567337036133">
<ele>73.0999984741211</ele>
<time>2014-02-15T15:54:57Z</time>
</trkpt>
<trkpt lat="52.638343811035156" lon="13.054469108581543">
<ele>71.69999694824219</ele>
<time>2014-02-15T15:54:58Z</time>
</trkpt>
<trkpt lat="52.63833999633789" lon="13.054375648498535">
<ele>72.0</ele>
<time>2014-02-15T15:54:59Z</time>
</trkpt>
<trkpt lat="52.63835144042969" lon="13.054289817810059">
<ele>72.5</ele>
<time>2014-02-15T15:55:00Z</time>
</trkpt>
<trkpt lat="52.638336181640625" lon="13.054205894470215">
<ele>72.19999694824219</ele>
<time>2014-02-15T15:55:01Z</time>
</trkpt>
<trkpt lat="52.638336181640625" lon="13.054122924804688">
<ele>71.80000305175781</ele>
<time>2014-02-15T15:55:02Z</time>
</trkpt>
<trkpt lat="52.63833999633789" lon="13.054033279418945">
<ele>71.9000015258789</ele>
<time>2014-02-15T15:55:03Z</time>
</trkpt>
<trkpt lat="52.63835525512695" lon="13.053959846496582">
<ele>72.0</ele>
<time>2014-02-15T15:55:04Z</time>
</trkpt>
<trkpt lat="52.63835906982422" lon="13.053882598876953">
<ele>71.80000305175781</ele>
<time>2014-02-15T15:55:05Z</time>
</trkpt>
<trkpt lat="52.63835906982422" lon="13.05380916595459">
<ele>71.4000015258789</ele>
<time>2014-02-15T15:55:06Z</time>
</trkpt>
<trkpt lat="52.638362884521484" lon="13.053709983825684">
<ele>71.0</ele>
<time>2014-02-15T15:55:07Z</time>
</trkpt>
<trkpt lat="52.638362884521484" lon="13.05362606048584">
<ele>71.0</ele>
<time>2014-02-15T15:55:08Z</time>
</trkpt>
<trkpt lat="52.63835906982422" lon="13.053544044494629">
<ele>71.0999984741211</ele>
<time>2014-02-15T15:55:09Z</time>
</trkpt>
<trkpt lat="52.63835906982422" lon="13.053464889526367">
<ele>70.5</ele>
<time>2014-02-15T15:55:10Z</time>
</trkpt>
<trkpt lat="52.63836669921875" lon="13.053373336791992">
<ele>70.5999984741211</ele>
<time>2014-02-15T15:55:11Z</time>
</trkpt>
<trkpt lat="52.63835906982422" lon="13.053278923034668">
<ele>70.4000015258789</ele>
<time>2014-02-15T15:55:12Z</time>
</trkpt>
<trkpt lat="52.638370513916016" lon="13.053175926208496">
<ele>70.5</ele>
<time>2014-02-15T15:55:13Z</time>
</trkpt>
<trkpt lat="52.638362884521484" lon="13.05309772491455">
<ele>70.19999694824219</ele>
<time>2014-02-15T15:55:14Z</time>
</trkpt>
<trkpt lat="52.63835906982422" lon="13.052945137023926">
<ele>70.69999694824219</ele>
<time>2014-02-15T15:55:16Z</time>
</trkpt>
<trkpt lat="52.63837432861328" lon="13.052791595458984">
<ele>70.9000015258789</ele>
<time>2014-02-15T15:55:18Z</time>
</trkpt>
<trkpt lat="52.63837814331055" lon="13.052712440490723">
<ele>70.80000305175781</ele>
<time>2014-02-15T15:55:19Z</time>
</trkpt>
<trkpt lat="52.638389587402344" lon="13.052629470825195">
<ele>71.19999694824219</ele>
<time>2014-02-15T15:55:20Z</time>
</trkpt>
<trkpt lat="52.63839340209961" lon="13.052550315856934">
<ele>70.5999984741211</ele>
<time>2014-02-15T15:55:21Z</time>
</trkpt>
<trkpt lat="52.638389587402344" lon="13.052469253540039">
<ele>70.4000015258789</ele>
<time>2014-02-15T15:55:22Z</time>
</trkpt>
<trkpt lat="52.63839340209961" lon="13.052327156066895">
<ele>69.30000305175781</ele>
<time>2014-02-15T15:55:24Z</time>
</trkpt>
<trkpt lat="52.63837432861328" lon="13.052170753479004">
<ele>68.0999984741211</ele>
<time>2014-02-15T15:55:26Z</time>
</trkpt>
<trkpt lat="52.63838577270508" lon="13.052090644836426">
<ele>68.5</ele>
<time>2014-02-15T15:55:27Z</time>
</trkpt>
<trkpt lat="52.638397216796875" lon="13.051995277404785">
<ele>68.0999984741211</ele>
<time>2014-02-15T15:55:28Z</time>
</trkpt>
<trkpt lat="52.638404846191406" lon="13.051849365234375">
<ele>68.80000305175781</ele>
<time>2014-02-15T15:55:30Z</time>
</trkpt>
<trkpt lat="52.63840103149414" lon="13.051763534545898">
<ele>68.69999694824219</ele>
<time>2014-02-15T15:55:31Z</time>
</trkpt>
<trkpt lat="52.63840103149414" lon="13.05167007446289">
<ele>68.9000015258789</ele>
<time>2014-02-15T15:55:32Z</time>
</trkpt>
<trkpt lat="52.638397216796875" lon="13.051583290100098">
<ele>69.19999694824219</ele>
<time>2014-02-15T15:55:33Z</time>
</trkpt>
<trkpt lat="52.63840103149414" lon="13.051505088806152">
<ele>69.9000015258789</ele>
<time>2014-02-15T15:55:34Z</time>
</trkpt>
<trkpt lat="52.63839340209961" lon="13.051422119140625">
<ele>69.4000015258789</ele>
<time>2014-02-15T15:55:35Z</time>
</trkpt>
<trkpt lat="52.638389587402344" lon="13.051336288452148">
<ele>69.9000015258789</ele>
<time>2014-02-15T15:55:36Z</time>
</trkpt>
<trkpt lat="52.638404846191406" lon="13.051257133483887">
<ele>69.69999694824219</ele>
<time>2014-02-15T15:55:37Z</time>
</trkpt>
<trkpt lat="52.638404846191406" lon="13.051177024841309">
<ele>70.0999984741211</ele>
<time>2014-02-15T15:55:38Z</time>
</trkpt>
<trkpt lat="52.63841247558594" lon="13.051066398620605">
<ele>69.5999984741211</ele>
<time>2014-02-15T15:55:39Z</time>
</trkpt>
<trkpt lat="52.63842010498047" lon="13.050956726074219">
<ele>70.19999694824219</ele>
<time>2014-02-15T15:55:40Z</time>
</trkpt>
<trkpt lat="52.6384162902832" lon="13.050859451293945">
<ele>69.4000015258789</ele>
<time>2014-02-15T15:55:41Z</time>
</trkpt>
<trkpt lat="52.63842010498047" lon="13.050765991210938">
<ele>70.0999984741211</ele>
<time>2014-02-15T15:55:42Z</time>
</trkpt>
<trkpt lat="52.63842010498047" lon="13.050681114196777">
<ele>70.5999984741211</ele>
<time>2014-02-15T15:55:43Z</time>
</trkpt>
<trkpt lat="52.638427734375" lon="13.050591468811035">
<ele>70.5</ele>
<time>2014-02-15T15:55:43Z</time>
</trkpt>
<trkpt lat="52.63841247558594" lon="13.050518989562988">
<ele>72.30000305175781</ele>
<time>2014-02-15T15:55:45Z</time>
</trkpt>
<trkpt lat="52.63841247558594" lon="13.050419807434082">
<ele>72.5</ele>
<time>2014-02-15T15:55:46Z</time>
</trkpt>
<trkpt lat="52.638423919677734" lon="13.050345420837402">
<ele>72.80000305175781</ele>
<time>2014-02-15T15:55:47Z</time>
</trkpt>
<trkpt lat="52.6384162902832" lon="13.050188064575195">
<ele>73.5999984741211</ele>
<time>2014-02-15T15:55:49Z</time>
</trkpt>
<trkpt lat="52.63842010498047" lon="13.05007553100586">
<ele>73.69999694824219</ele>
<time>2014-02-15T15:55:50Z</time>
</trkpt>
<trkpt lat="52.63842010498047" lon="13.04993724822998">
<ele>71.69999694824219</ele>
<time>2014-02-15T15:55:52Z</time>
</trkpt>
<trkpt lat="52.63842010498047" lon="13.049849510192871">
<ele>71.4000015258789</ele>
<time>2014-02-15T15:55:53Z</time>
</trkpt>
<trkpt lat="52.6384162902832" lon="13.049768447875977">
<ele>71.4000015258789</ele>
<time>2014-02-15T15:55:54Z</time>
</trkpt>
<trkpt lat="52.63841247558594" lon="13.049680709838867">
<ele>72.19999694824219</ele>
<time>2014-02-15T15:55:55Z</time>
</trkpt>
<trkpt lat="52.63841247558594" lon="13.049585342407227">
<ele>73.0999984741211</ele>
<time>2014-02-15T15:55:56Z</time>
</trkpt>
<trkpt lat="52.63840866088867" lon="13.049498558044434">
<ele>73.4000015258789</ele>
<time>2014-02-15T15:55:57Z</time>
</trkpt>
<trkpt lat="52.638404846191406" lon="13.04940414428711">
<ele>73.19999694824219</ele>
<time>2014-02-15T15:55:58Z</time>
</trkpt>
<trkpt lat="52.63841247558594" lon="13.04931354522705">
<ele>73.0</ele>
<time>2014-02-15T15:55:59Z</time>
</trkpt>
<trkpt lat="52.63841247558594" lon="13.049223899841309">
<ele>73.19999694824219</ele>
<time>2014-02-15T15:56:00Z</time>
</trkpt>
<trkpt lat="52.63841247558594" lon="13.049139022827148">
<ele>73.30000305175781</ele>
<time>2014-02-15T15:56:01Z</time>
</trkpt>
<trkpt lat="52.63841247558594" lon="13.049053192138672">
<ele>73.5999984741211</ele>
<time>2014-02-15T15:56:02Z</time>
</trkpt>
<trkpt lat="52.63840103149414" lon="13.048965454101562">
<ele>73.5</ele>
<time>2014-02-15T15:56:03Z</time>
</trkpt>
<trkpt lat="52.638404846191406" lon="13.048876762390137">
<ele>74.30000305175781</ele>
<time>2014-02-15T15:56:04Z</time>
</trkpt>
<trkpt lat="52.638404846191406" lon="13.048787117004395">
<ele>74.5999984741211</ele>
<time>2014-02-15T15:56:05Z</time>
</trkpt>
<trkpt lat="52.63841247558594" lon="13.048698425292969">
<ele>74.30000305175781</ele>
<time>2014-02-15T15:56:06Z</time>
</trkpt>
<trkpt lat="52.63840866088867" lon="13.048606872558594">
<ele>74.19999694824219</ele>
<time>2014-02-15T15:56:07Z</time>
</trkpt>
<trkpt lat="52.63840103149414" lon="13.048521041870117">
<ele>74.19999694824219</ele>
<time>2014-02-15T15:56:08Z</time>
</trkpt>
<trkpt lat="52.638404846191406" lon="13.048428535461426">
<ele>74.0999984741211</ele>
<time>2014-02-15T15:56:09Z</time>
</trkpt>
<trkpt lat="52.638404846191406" lon="13.048338890075684">
<ele>74.19999694824219</ele>
<time>2014-02-15T15:56:10Z</time>
</trkpt>
<trkpt lat="52.63840103149414" lon="13.048248291015625">
<ele>74.0999984741211</ele>
<time>2014-02-15T15:56:11Z</time>
</trkpt>
<trkpt lat="52.638397216796875" lon="13.048152923583984">
<ele>73.30000305175781</ele>
<time>2014-02-15T15:56:12Z</time>
</trkpt>
<trkpt lat="52.638397216796875" lon="13.048002243041992">
<ele>73.30000305175781</ele>
<time>2014-02-15T15:56:14Z</time>
</trkpt>
<trkpt lat="52.638397216796875" lon="13.047910690307617">
<ele>73.5</ele>
<time>2014-02-15T15:56:15Z</time>
</trkpt>
<trkpt lat="52.638389587402344" lon="13.047828674316406">
<ele>74.0</ele>
<time>2014-02-15T15:56:16Z</time>
</trkpt>
<trkpt lat="52.638389587402344" lon="13.047739028930664">
<ele>73.69999694824219</ele>
<time>2014-02-15T15:56:17Z</time>
</trkpt>
<trkpt lat="52.638389587402344" lon="13.047646522521973">
<ele>73.9000015258789</ele>
<time>2014-02-15T15:56:18Z</time>
</trkpt>
<trkpt lat="52.63838577270508" lon="13.047563552856445">
<ele>74.0999984741211</ele>
<time>2014-02-15T15:56:19Z</time>
</trkpt>
<trkpt lat="52.63838195800781" lon="13.0474853515625">
<ele>74.0999984741211</ele>
<time>2014-02-15T15:56:20Z</time>
</trkpt>
<trkpt lat="52.63838195800781" lon="13.047401428222656">
<ele>73.5</ele>
<time>2014-02-15T15:56:21Z</time>
</trkpt>
<trkpt lat="52.63837814331055" lon="13.047318458557129">
<ele>73.19999694824219</ele>
<time>2014-02-15T15:56:22Z</time>
</trkpt>
<trkpt lat="52.63837432861328" lon="13.04723834991455">
<ele>72.80000305175781</ele>
<time>2014-02-15T15:56:23Z</time>
</trkpt>
<trkpt lat="52.63836669921875" lon="13.047151565551758">
<ele>72.80000305175781</ele>
<time>2014-02-15T15:56:24Z</time>
</trkpt>
<trkpt lat="52.63833999633789" lon="13.04701042175293">
<ele>74.0</ele>
<time>2014-02-15T15:56:26Z</time>
</trkpt>
<trkpt lat="52.638336181640625" lon="13.046919822692871">
<ele>73.9000015258789</ele>
<time>2014-02-15T15:56:27Z</time>
</trkpt>
<trkpt lat="52.63833236694336" lon="13.0468168258667">
<ele>73.5999984741211</ele>
<time>2014-02-15T15:56:28Z</time>
</trkpt>
<trkpt lat="52.638343811035156" lon="13.04672622680664">
<ele>73.80000305175781</ele>
<time>2014-02-15T15:56:29Z</time>
</trkpt>
<trkpt lat="52.63833999633789" lon="13.046594619750977">
<ele>74.69999694824219</ele>
<time>2014-02-15T15:56:30Z</time>
</trkpt>
<trkpt lat="52.63833999633789" lon="13.046518325805664">
<ele>75.30000305175781</ele>
<time>2014-02-15T15:56:31Z</time>
</trkpt>
<trkpt lat="52.638328552246094" lon="13.046419143676758">
<ele>75.30000305175781</ele>
<time>2014-02-15T15:56:32Z</time>
</trkpt>
<trkpt lat="52.638328552246094" lon="13.046329498291016">
<ele>75.0</ele>
<time>2014-02-15T15:56:33Z</time>
</trkpt>
<trkpt lat="52.63833236694336" lon="13.046215057373047">
<ele>73.5999984741211</ele>
<time>2014-02-15T15:56:35Z</time>
</trkpt>
<trkpt lat="52.638328552246094" lon="13.04613208770752">
<ele>73.4000015258789</ele>
<time>2014-02-15T15:56:36Z</time>
</trkpt>
<trkpt lat="52.638328552246094" lon="13.046052932739258">
<ele>73.4000015258789</ele>
<time>2014-02-15T15:56:37Z</time>
</trkpt>
<trkpt lat="52.63831329345703" lon="13.045919418334961">
<ele>73.5999984741211</ele>
<time>2014-02-15T15:56:39Z</time>
</trkpt>
<trkpt lat="52.63829803466797" lon="13.045843124389648">
<ele>73.0999984741211</ele>
<time>2014-02-15T15:56:40Z</time>
</trkpt>
<trkpt lat="52.63829803466797" lon="13.045759201049805">
<ele>73.0999984741211</ele>
<time>2014-02-15T15:56:41Z</time>
</trkpt>
<trkpt lat="52.63828659057617" lon="13.045665740966797">
<ele>73.0999984741211</ele>
<time>2014-02-15T15:56:42Z</time>
</trkpt>
<trkpt lat="52.63829040527344" lon="13.045489311218262">
<ele>72.4000015258789</ele>
<time>2014-02-15T15:56:44Z</time>
</trkpt>
<trkpt lat="52.63832092285156" lon="13.04540729522705">
<ele>72.69999694824219</ele>
<time>2014-02-15T15:56:45Z</time>
</trkpt>
<trkpt lat="52.63834762573242" lon="13.045327186584473">
<ele>72.0999984741211</ele>
<time>2014-02-15T15:56:46Z</time>
</trkpt>
<trkpt lat="52.638370513916016" lon="13.045257568359375">
<ele>72.19999694824219</ele>
<time>2014-02-15T15:56:47Z</time>
</trkpt>
<trkpt lat="52.638389587402344" lon="13.045183181762695">
<ele>72.5999984741211</ele>
<time>2014-02-15T15:56:48Z</time>
</trkpt>
<trkpt lat="52.63840866088867" lon="13.045110702514648">
<ele>72.30000305175781</ele>
<time>2014-02-15T15:56:49Z</time>
</trkpt>
<trkpt lat="52.63844299316406" lon="13.044970512390137">
<ele>72.19999694824219</ele>
<time>2014-02-15T15:56:51Z</time>
</trkpt>
<trkpt lat="52.638465881347656" lon="13.044897079467773">
<ele>72.5999984741211</ele>
<time>2014-02-15T15:56:52Z</time>
</trkpt>
<trkpt lat="52.638484954833984" lon="13.044822692871094">
<ele>72.80000305175781</ele>
<time>2014-02-15T15:56:53Z</time>
</trkpt>
<trkpt lat="52.638526916503906" lon="13.044683456420898">
<ele>73.5</ele>
<time>2014-02-15T15:56:55Z</time>
</trkpt>
<trkpt lat="52.638553619384766" lon="13.044622421264648">
<ele>73.30000305175781</ele>
<time>2014-02-15T15:56:56Z</time>
</trkpt>
<trkpt lat="52.63857650756836" lon="13.044543266296387">
<ele>73.5999984741211</ele>
<time>2014-02-15T15:56:57Z</time>
</trkpt>
<trkpt lat="52.63859939575195" lon="13.044473648071289">
<ele>73.5</ele>
<time>2014-02-15T15:56:58Z</time>
</trkpt>
<trkpt lat="52.63862228393555" lon="13.044395446777344">
<ele>73.9000015258789</ele>
<time>2014-02-15T15:56:59Z</time>
</trkpt>
<trkpt lat="52.638641357421875" lon="13.044321060180664">
<ele>74.19999694824219</ele>
<time>2014-02-15T15:57:00Z</time>
</trkpt>
<trkpt lat="52.63866424560547" lon="13.0442533493042">
<ele>73.9000015258789</ele>
<time>2014-02-15T15:57:01Z</time>
</trkpt>
<trkpt lat="52.63868713378906" lon="13.044179916381836">
<ele>73.9000015258789</ele>
<time>2014-02-15T15:57:02Z</time>
</trkpt>
<trkpt lat="52.63870620727539" lon="13.044109344482422">
<ele>73.80000305175781</ele>
<time>2014-02-15T15:57:03Z</time>
</trkpt>
<trkpt lat="52.638729095458984" lon="13.044034004211426">
<ele>74.0999984741211</ele>
<time>2014-02-15T15:57:04Z</time>
</trkpt>
<trkpt lat="52.63875198364258" lon="13.043953895568848">
<ele>74.0</ele>
<time>2014-02-15T15:57:05Z</time>
</trkpt>
<trkpt lat="52.638771057128906" lon="13.043879508972168">
<ele>74.5</ele>
<time>2014-02-15T15:57:06Z</time>
</trkpt>
<trkpt lat="52.638790130615234" lon="13.043806076049805">
<ele>74.5999984741211</ele>
<time>2014-02-15T15:57:07Z</time>
</trkpt>
<trkpt lat="52.63880920410156" lon="13.043730735778809">
<ele>74.9000015258789</ele>
<time>2014-02-15T15:57:08Z</time>
</trkpt>
<trkpt lat="52.63883590698242" lon="13.043659210205078">
<ele>74.5999984741211</ele>
<time>2014-02-15T15:57:09Z</time>
</trkpt>
<trkpt lat="52.63885498046875" lon="13.043582916259766">
<ele>74.4000015258789</ele>
<time>2014-02-15T15:57:10Z</time>
</trkpt>
<trkpt lat="52.63887405395508" lon="13.043500900268555">
<ele>74.5999984741211</ele>
<time>2014-02-15T15:57:11Z</time>
</trkpt>
<trkpt lat="52.63889694213867" lon="13.043428421020508">
<ele>74.5999984741211</ele>
<time>2014-02-15T15:57:12Z</time>
</trkpt>
<trkpt lat="52.638919830322266" lon="13.043355941772461">
<ele>74.5999984741211</ele>
<time>2014-02-15T15:57:13Z</time>
</trkpt>
<trkpt lat="52.638938903808594" lon="13.043272018432617">
<ele>75.0</ele>
<time>2014-02-15T15:57:14Z</time>
</trkpt>
<trkpt lat="52.63896179199219" lon="13.043203353881836">
<ele>74.9000015258789</ele>
<time>2014-02-15T15:57:15Z</time>
</trkpt>
<trkpt lat="52.63898849487305" lon="13.043132781982422">
<ele>74.69999694824219</ele>
<time>2014-02-15T15:57:16Z</time>
</trkpt>
<trkpt lat="52.639007568359375" lon="13.043059349060059">
<ele>74.5</ele>
<time>2014-02-15T15:57:17Z</time>
</trkpt>
<trkpt lat="52.63903045654297" lon="13.042987823486328">
<ele>74.5999984741211</ele>
<time>2014-02-15T15:57:18Z</time>
</trkpt>
<trkpt lat="52.63905715942383" lon="13.042917251586914">
<ele>74.30000305175781</ele>
<time>2014-02-15T15:57:19Z</time>
</trkpt>
<trkpt lat="52.63908004760742" lon="13.04284381866455">
<ele>74.5</ele>
<time>2014-02-15T15:57:20Z</time>
</trkpt>
<trkpt lat="52.639122009277344" lon="13.042707443237305">
<ele>75.0</ele>
<time>2014-02-15T15:57:22Z</time>
</trkpt>
<trkpt lat="52.639137268066406" lon="13.042634010314941">
<ele>75.0</ele>
<time>2014-02-15T15:57:23Z</time>
</trkpt>
<trkpt lat="52.639156341552734" lon="13.042501449584961">
<ele>74.69999694824219</ele>
<time>2014-02-15T15:57:25Z</time>
</trkpt>
<trkpt lat="52.63917541503906" lon="13.042427062988281">
<ele>75.30000305175781</ele>
<time>2014-02-15T15:57:26Z</time>
</trkpt>
<trkpt lat="52.63919448852539" lon="13.04234790802002">
<ele>75.0999984741211</ele>
<time>2014-02-15T15:57:27Z</time>
</trkpt>
<trkpt lat="52.639217376708984" lon="13.042283058166504">
<ele>74.80000305175781</ele>
<time>2014-02-15T15:57:28Z</time>
</trkpt>
<trkpt lat="52.63924026489258" lon="13.042204856872559">
<ele>74.5999984741211</ele>
<time>2014-02-15T15:57:29Z</time>
</trkpt>
<trkpt lat="52.639259338378906" lon="13.042128562927246">
<ele>74.30000305175781</ele>
<time>2014-02-15T15:57:30Z</time>
</trkpt>
<trkpt lat="52.639278411865234" lon="13.042059898376465">
<ele>74.0</ele>
<time>2014-02-15T15:57:31Z</time>
</trkpt>
<trkpt lat="52.63929748535156" lon="13.041987419128418">
<ele>73.9000015258789</ele>
<time>2014-02-15T15:57:32Z</time>
</trkpt>
<trkpt lat="52.639320373535156" lon="13.04191780090332">
<ele>74.0999984741211</ele>
<time>2014-02-15T15:57:33Z</time>
</trkpt>
<trkpt lat="52.639339447021484" lon="13.04184627532959">
<ele>74.0</ele>
<time>2014-02-15T15:57:34Z</time>
</trkpt>
<trkpt lat="52.63936233520508" lon="13.041776657104492">
<ele>74.5</ele>
<time>2014-02-15T15:57:35Z</time>
</trkpt>
<trkpt lat="52.639381408691406" lon="13.041704177856445">
<ele>74.0</ele>
<time>2014-02-15T15:57:36Z</time>
</trkpt>
<trkpt lat="52.639400482177734" lon="13.041629791259766">
<ele>73.9000015258789</ele>
<time>2014-02-15T15:57:37Z</time>
</trkpt>
<trkpt lat="52.63941955566406" lon="13.04155445098877">
<ele>74.19999694824219</ele>
<time>2014-02-15T15:57:38Z</time>
</trkpt>
<trkpt lat="52.639442443847656" lon="13.04147720336914">
<ele>74.4000015258789</ele>
<time>2014-02-15T15:57:39Z</time>
</trkpt>
<trkpt lat="52.639461517333984" lon="13.041400909423828">
<ele>74.80000305175781</ele>
<time>2014-02-15T15:57:40Z</time>
</trkpt>
<trkpt lat="52.63949203491211" lon="13.041327476501465">
<ele>74.4000015258789</ele>
<time>2014-02-15T15:57:41Z</time>
</trkpt>
<trkpt lat="52.6395149230957" lon="13.041254997253418">
<ele>74.80000305175781</ele>
<time>2014-02-15T15:57:42Z</time>
</trkpt>
<trkpt lat="52.6395378112793" lon="13.041181564331055">
<ele>74.5</ele>
<time>2014-02-15T15:57:43Z</time>
</trkpt>
<trkpt lat="52.63956069946289" lon="13.04110336303711">
<ele>74.5</ele>
<time>2014-02-15T15:57:44Z</time>
</trkpt>
<trkpt lat="52.639583587646484" lon="13.041029930114746">
<ele>74.4000015258789</ele>
<time>2014-02-15T15:57:45Z</time>
</trkpt>
<trkpt lat="52.63960647583008" lon="13.04095458984375">
<ele>74.0999984741211</ele>
<time>2014-02-15T15:57:46Z</time>
</trkpt>
<trkpt lat="52.63962936401367" lon="13.040875434875488">
<ele>74.0</ele>
<time>2014-02-15T15:57:47Z</time>
</trkpt>
<trkpt lat="52.6396484375" lon="13.040794372558594">
<ele>74.0999984741211</ele>
<time>2014-02-15T15:57:48Z</time>
</trkpt>
<trkpt lat="52.639671325683594" lon="13.040715217590332">
<ele>74.0999984741211</ele>
<time>2014-02-15T15:57:49Z</time>
</trkpt>
<trkpt lat="52.63969421386719" lon="13.040640830993652">
<ele>74.0</ele>
<time>2014-02-15T15:57:50Z</time>
</trkpt>
<trkpt lat="52.63971710205078" lon="13.040560722351074">
<ele>74.0</ele>
<time>2014-02-15T15:57:51Z</time>
</trkpt>
<trkpt lat="52.639739990234375" lon="13.040482521057129">
<ele>74.0</ele>
<time>2014-02-15T15:57:52Z</time>
</trkpt>
<trkpt lat="52.6397590637207" lon="13.040404319763184">
<ele>74.0</ele>
<time>2014-02-15T15:57:53Z</time>
</trkpt>
<trkpt lat="52.6397819519043" lon="13.040328979492188">
<ele>74.30000305175781</ele>
<time>2014-02-15T15:57:54Z</time>
</trkpt>
<trkpt lat="52.63980484008789" lon="13.040250778198242">
<ele>74.19999694824219</ele>
<time>2014-02-15T15:57:55Z</time>
</trkpt>
<trkpt lat="52.639827728271484" lon="13.040177345275879">
<ele>74.30000305175781</ele>
<time>2014-02-15T15:57:56Z</time>
</trkpt>
<trkpt lat="52.63984680175781" lon="13.040096282958984">
<ele>74.0999984741211</ele>
<time>2014-02-15T15:57:57Z</time>
</trkpt>
<trkpt lat="52.63987350463867" lon="13.040017127990723">
<ele>74.30000305175781</ele>
<time>2014-02-15T15:57:58Z</time>
</trkpt>
<trkpt lat="52.639892578125" lon="13.03994369506836">
<ele>74.5</ele>
<time>2014-02-15T15:57:59Z</time>
</trkpt>
<trkpt lat="52.639923095703125" lon="13.03986644744873">
<ele>74.5999984741211</ele>
<time>2014-02-15T15:58:00Z</time>
</trkpt>
<trkpt lat="52.63994598388672" lon="13.039787292480469">
<ele>74.30000305175781</ele>
<time>2014-02-15T15:58:01Z</time>
</trkpt>
<trkpt lat="52.63996887207031" lon="13.03970718383789">
<ele>74.4000015258789</ele>
<time>2014-02-15T15:58:02Z</time>
</trkpt>
<trkpt lat="52.63999938964844" lon="13.039629936218262">
<ele>74.19999694824219</ele>
<time>2014-02-15T15:58:03Z</time>
</trkpt>
<trkpt lat="52.64003372192383" lon="13.039548873901367">
<ele>74.0999984741211</ele>
<time>2014-02-15T15:58:04Z</time>
</trkpt>
<trkpt lat="52.64006423950195" lon="13.039469718933105">
<ele>74.0999984741211</ele>
<time>2014-02-15T15:58:05Z</time>
</trkpt>
<trkpt lat="52.64009475708008" lon="13.039388656616211">
<ele>74.30000305175781</ele>
<time>2014-02-15T15:58:06Z</time>
</trkpt>
<trkpt lat="52.6401252746582" lon="13.039311408996582">
<ele>74.19999694824219</ele>
<time>2014-02-15T15:58:07Z</time>
</trkpt>
<trkpt lat="52.64015579223633" lon="13.039237022399902">
<ele>74.0</ele>
<time>2014-02-15T15:58:08Z</time>
</trkpt>
<trkpt lat="52.64018249511719" lon="13.039167404174805">
<ele>73.80000305175781</ele>
<time>2014-02-15T15:58:09Z</time>
</trkpt>
<trkpt lat="52.64020919799805" lon="13.039091110229492">
<ele>73.5999984741211</ele>
<time>2014-02-15T15:58:10Z</time>
</trkpt>
<trkpt lat="52.64023971557617" lon="13.039021492004395">
<ele>73.30000305175781</ele>
<time>2014-02-15T15:58:11Z</time>
</trkpt>
<trkpt lat="52.64027404785156" lon="13.038959503173828">
<ele>73.30000305175781</ele>
<time>2014-02-15T15:58:12Z</time>
</trkpt>
<trkpt lat="52.640377044677734" lon="13.038939476013184">
<ele>72.9000015258789</ele>
<time>2014-02-15T15:58:14Z</time>
</trkpt>
<trkpt lat="52.64042282104492" lon="13.038920402526855">
<ele>72.9000015258789</ele>
<time>2014-02-15T15:58:15Z</time>
</trkpt>
<trkpt lat="52.64046859741211" lon="13.038887023925781">
<ele>73.0</ele>
<time>2014-02-15T15:58:16Z</time>
</trkpt>
<trkpt lat="52.64051818847656" lon="13.03884220123291">
<ele>73.0</ele>
<time>2014-02-15T15:58:17Z</time>
</trkpt>
<trkpt lat="52.64056396484375" lon="13.038799285888672">
<ele>72.5</ele>
<time>2014-02-15T15:58:18Z</time>
</trkpt>
<trkpt lat="52.64060592651367" lon="13.038768768310547">
<ele>72.4000015258789</ele>
<time>2014-02-15T15:58:19Z</time>
</trkpt>
<trkpt lat="52.64065933227539" lon="13.038737297058105">
<ele>72.30000305175781</ele>
<time>2014-02-15T15:58:20Z</time>
</trkpt>
<trkpt lat="52.640716552734375" lon="13.038708686828613">
<ele>72.0</ele>
<time>2014-02-15T15:58:21Z</time>
</trkpt>
<trkpt lat="52.640769958496094" lon="13.03867244720459">
<ele>71.80000305175781</ele>
<time>2014-02-15T15:58:22Z</time>
</trkpt>
<trkpt lat="52.64081954956055" lon="13.038639068603516">
<ele>71.5999984741211</ele>
<time>2014-02-15T15:58:23Z</time>
</trkpt>
<trkpt lat="52.640865325927734" lon="13.038604736328125">
<ele>71.69999694824219</ele>
<time>2014-02-15T15:58:24Z</time>
</trkpt>
<trkpt lat="52.64091491699219" lon="13.03857421875">
<ele>71.5</ele>
<time>2014-02-15T15:58:25Z</time>
</trkpt>
<trkpt lat="52.640960693359375" lon="13.038543701171875">
<ele>71.30000305175781</ele>
<time>2014-02-15T15:58:26Z</time>
</trkpt>
<trkpt lat="52.64100646972656" lon="13.038505554199219">
<ele>71.19999694824219</ele>
<time>2014-02-15T15:58:27Z</time>
</trkpt>
<trkpt lat="52.641056060791016" lon="13.038474082946777">
<ele>70.9000015258789</ele>
<time>2014-02-15T15:58:28Z</time>
</trkpt>
<trkpt lat="52.64109802246094" lon="13.038435935974121">
<ele>70.5</ele>
<time>2014-02-15T15:58:29Z</time>
</trkpt>
<trkpt lat="52.64114761352539" lon="13.038400650024414">
<ele>70.4000015258789</ele>
<time>2014-02-15T15:58:30Z</time>
</trkpt>
<trkpt lat="52.641197204589844" lon="13.038358688354492">
<ele>70.30000305175781</ele>
<time>2014-02-15T15:58:31Z</time>
</trkpt>
<trkpt lat="52.64124298095703" lon="13.038336753845215">
<ele>69.9000015258789</ele>
<time>2014-02-15T15:58:32Z</time>
</trkpt>
<trkpt lat="52.641292572021484" lon="13.038302421569824">
<ele>69.69999694824219</ele>
<time>2014-02-15T15:58:33Z</time>
</trkpt>
<trkpt lat="52.64134979248047" lon="13.038268089294434">
<ele>69.69999694824219</ele>
<time>2014-02-15T15:58:34Z</time>
</trkpt>
<trkpt lat="52.641395568847656" lon="13.038240432739258">
<ele>69.0</ele>
<time>2014-02-15T15:58:35Z</time>
</trkpt>
<trkpt lat="52.64144515991211" lon="13.038211822509766">
<ele>68.69999694824219</ele>
<time>2014-02-15T15:58:36Z</time>
</trkpt>
<trkpt lat="52.64149475097656" lon="13.038168907165527">
<ele>68.69999694824219</ele>
<time>2014-02-15T15:58:37Z</time>
</trkpt>
<trkpt lat="52.64154815673828" lon="13.038141250610352">
<ele>68.69999694824219</ele>
<time>2014-02-15T15:58:38Z</time>
</trkpt>
<trkpt lat="52.64160919189453" lon="13.038093566894531">
<ele>68.69999694824219</ele>
<time>2014-02-15T15:58:39Z</time>
</trkpt>
<trkpt lat="52.641658782958984" lon="13.038052558898926">
<ele>68.5</ele>
<time>2014-02-15T15:58:40Z</time>
</trkpt>
<trkpt lat="52.64171600341797" lon="13.038009643554688">
<ele>68.4000015258789</ele>
<time>2014-02-15T15:58:41Z</time>
</trkpt>
<trkpt lat="52.64177322387695" lon="13.037985801696777">
<ele>68.4000015258789</ele>
<time>2014-02-15T15:58:42Z</time>
</trkpt>
<trkpt lat="52.64183044433594" lon="13.03795051574707">
<ele>68.19999694824219</ele>
<time>2014-02-15T15:58:43Z</time>
</trkpt>
<trkpt lat="52.641883850097656" lon="13.037921905517578">
<ele>67.9000015258789</ele>
<time>2014-02-15T15:58:44Z</time>
</trkpt>
<trkpt lat="52.64195251464844" lon="13.037884712219238">
<ele>68.5</ele>
<time>2014-02-15T15:58:45Z</time>
</trkpt>
<trkpt lat="52.64199447631836" lon="13.037845611572266">
<ele>69.30000305175781</ele>
<time>2014-02-15T15:58:46Z</time>
</trkpt>
<trkpt lat="52.64204406738281" lon="13.037809371948242">
<ele>69.5</ele>
<time>2014-02-15T15:58:47Z</time>
</trkpt>
<trkpt lat="52.642093658447266" lon="13.03777027130127">
<ele>69.5999984741211</ele>
<time>2014-02-15T15:58:48Z</time>
</trkpt>
<trkpt lat="52.64213943481445" lon="13.037714004516602">
<ele>69.5999984741211</ele>
<time>2014-02-15T15:58:49Z</time>
</trkpt>
<trkpt lat="52.642173767089844" lon="13.037667274475098">
<ele>69.5</ele>
<time>2014-02-15T15:58:50Z</time>
</trkpt>
<trkpt lat="52.642250061035156" lon="13.037592887878418">
<ele>73.4000015258789</ele>
<time>2014-02-15T15:58:52Z</time>
</trkpt>
<trkpt lat="52.64228820800781" lon="13.03754711151123">
<ele>75.5</ele>
<time>2014-02-15T15:58:53Z</time>
</trkpt>
<trkpt lat="52.642337799072266" lon="13.037510871887207">
<ele>76.5999984741211</ele>
<time>2014-02-15T15:58:54Z</time>
</trkpt>
<trkpt lat="52.64238739013672" lon="13.037480354309082">
<ele>76.80000305175781</ele>
<time>2014-02-15T15:58:55Z</time>
</trkpt>
<trkpt lat="52.64242935180664" lon="13.03744125366211">
<ele>76.80000305175781</ele>
<time>2014-02-15T15:58:56Z</time>
</trkpt>
<trkpt lat="52.64250564575195" lon="13.037379264831543">
<ele>77.0999984741211</ele>
<time>2014-02-15T15:58:58Z</time>
</trkpt>
<trkpt lat="52.64259719848633" lon="13.037276268005371">
<ele>76.9000015258789</ele>
<time>2014-02-15T15:59:00Z</time>
</trkpt>
<trkpt lat="52.64265060424805" lon="13.037222862243652">
<ele>76.9000015258789</ele>
<time>2014-02-15T15:59:01Z</time>
</trkpt>
<trkpt lat="52.64274978637695" lon="13.037176132202148">
<ele>77.0999984741211</ele>
<time>2014-02-15T15:59:03Z</time>
</trkpt>
<trkpt lat="52.642826080322266" lon="13.037118911743164">
<ele>77.19999694824219</ele>
<time>2014-02-15T15:59:05Z</time>
</trkpt>
<trkpt lat="52.64287567138672" lon="13.037071228027344">
<ele>77.4000015258789</ele>
<time>2014-02-15T15:59:06Z</time>
</trkpt>
<trkpt lat="52.6429443359375" lon="13.036983489990234">
<ele>78.0999984741211</ele>
<time>2014-02-15T15:59:08Z</time>
</trkpt>
<trkpt lat="52.64298629760742" lon="13.036945343017578">
<ele>78.0999984741211</ele>
<time>2014-02-15T15:59:09Z</time>
</trkpt>
<trkpt lat="52.64306640625" lon="13.036867141723633">
<ele>77.69999694824219</ele>
<time>2014-02-15T15:59:11Z</time>
</trkpt>
<trkpt lat="52.643150329589844" lon="13.036794662475586">
<ele>77.80000305175781</ele>
<time>2014-02-15T15:59:13Z</time>
</trkpt>
<trkpt lat="52.64319610595703" lon="13.0367431640625">
<ele>77.9000015258789</ele>
<time>2014-02-15T15:59:14Z</time>
</trkpt>
<trkpt lat="52.643253326416016" lon="13.036706924438477">
<ele>78.0</ele>
<time>2014-02-15T15:59:15Z</time>
</trkpt>
<trkpt lat="52.64329147338867" lon="13.036664009094238">
<ele>78.0999984741211</ele>
<time>2014-02-15T15:59:16Z</time>
</trkpt>
<trkpt lat="52.64337158203125" lon="13.03658390045166">
<ele>77.4000015258789</ele>
<time>2014-02-15T15:59:18Z</time>
</trkpt>
<trkpt lat="52.64342498779297" lon="13.036439895629883">
<ele>78.30000305175781</ele>
<time>2014-02-15T15:59:20Z</time>
</trkpt>
<trkpt lat="52.643455505371094" lon="13.036299705505371">
<ele>78.5</ele>
<time>2014-02-15T15:59:22Z</time>
</trkpt>
<trkpt lat="52.643470764160156" lon="13.036160469055176">
<ele>78.5999984741211</ele>
<time>2014-02-15T15:59:24Z</time>
</trkpt>
<trkpt lat="52.64348220825195" lon="13.036086082458496">
<ele>78.80000305175781</ele>
<time>2014-02-15T15:59:25Z</time>
</trkpt>
<trkpt lat="52.643497467041016" lon="13.035941123962402">
<ele>78.0999984741211</ele>
<time>2014-02-15T15:59:27Z</time>
</trkpt>
<trkpt lat="52.64351272583008" lon="13.035844802856445">
<ele>79.5999984741211</ele>
<time>2014-02-15T15:59:28Z</time>
</trkpt>
<trkpt lat="52.643531799316406" lon="13.035752296447754">
<ele>79.4000015258789</ele>
<time>2014-02-15T15:59:29Z</time>
</trkpt>
<trkpt lat="52.64356231689453" lon="13.035660743713379">
<ele>79.30000305175781</ele>
<time>2014-02-15T15:59:30Z</time>
</trkpt>
<trkpt lat="52.643585205078125" lon="13.035579681396484">
<ele>79.5999984741211</ele>
<time>2014-02-15T15:59:31Z</time>
</trkpt>
<trkpt lat="52.64360046386719" lon="13.035499572753906">
<ele>79.19999694824219</ele>
<time>2014-02-15T15:59:32Z</time>
</trkpt>
<trkpt lat="52.643611907958984" lon="13.035374641418457">
<ele>79.19999694824219</ele>
<time>2014-02-15T15:59:34Z</time>
</trkpt>
<trkpt lat="52.64363098144531" lon="13.035266876220703">
<ele>78.4000015258789</ele>
<time>2014-02-15T15:59:36Z</time>
</trkpt>
<trkpt lat="52.643646240234375" lon="13.035147666931152">
<ele>78.4000015258789</ele>
<time>2014-02-15T15:59:38Z</time>
</trkpt>
<trkpt lat="52.643672943115234" lon="13.035014152526855">
<ele>78.4000015258789</ele>
<time>2014-02-15T15:59:40Z</time>
</trkpt>
<trkpt lat="52.643680572509766" lon="13.034937858581543">
<ele>77.69999694824219</ele>
<time>2014-02-15T15:59:41Z</time>
</trkpt>
<trkpt lat="52.64369201660156" lon="13.034852981567383">
<ele>77.5999984741211</ele>
<time>2014-02-15T15:59:42Z</time>
</trkpt>
<trkpt lat="52.64371109008789" lon="13.034771919250488">
<ele>77.4000015258789</ele>
<time>2014-02-15T15:59:43Z</time>
</trkpt>
<trkpt lat="52.64372253417969" lon="13.034684181213379">
<ele>77.19999694824219</ele>
<time>2014-02-15T15:59:44Z</time>
</trkpt>
<trkpt lat="52.64375305175781" lon="13.03459358215332">
<ele>76.69999694824219</ele>
<time>2014-02-15T15:59:45Z</time>
</trkpt>
<trkpt lat="52.643775939941406" lon="13.034492492675781">
<ele>76.5</ele>
<time>2014-02-15T15:59:46Z</time>
</trkpt>
<trkpt lat="52.64379119873047" lon="13.034405708312988">
<ele>76.5</ele>
<time>2014-02-15T15:59:47Z</time>
</trkpt>
<trkpt lat="52.64380645751953" lon="13.034331321716309">
<ele>76.30000305175781</ele>
<time>2014-02-15T15:59:48Z</time>
</trkpt>
<trkpt lat="52.643829345703125" lon="13.034248352050781">
<ele>76.4000015258789</ele>
<time>2014-02-15T15:59:49Z</time>
</trkpt>
<trkpt lat="52.64384078979492" lon="13.034172058105469">
<ele>76.69999694824219</ele>
<time>2014-02-15T15:59:50Z</time>
</trkpt>
<trkpt lat="52.643863677978516" lon="13.03403091430664">
<ele>75.80000305175781</ele>
<time>2014-02-15T15:59:52Z</time>
</trkpt>
<trkpt lat="52.64389419555664" lon="13.033895492553711">
<ele>76.19999694824219</ele>
<time>2014-02-15T15:59:54Z</time>
</trkpt>
<trkpt lat="52.643917083740234" lon="13.033770561218262">
<ele>76.5999984741211</ele>
<time>2014-02-15T15:59:56Z</time>
</trkpt>
<trkpt lat="52.64393615722656" lon="13.033682823181152">
<ele>76.5999984741211</ele>
<time>2014-02-15T15:59:57Z</time>
</trkpt>
<trkpt lat="52.64396286010742" lon="13.033601760864258">
<ele>76.69999694824219</ele>
<time>2014-02-15T15:59:58Z</time>
</trkpt>
<trkpt lat="52.64397048950195" lon="13.033506393432617">
<ele>76.5999984741211</ele>
<time>2014-02-15T15:59:59Z</time>
</trkpt>
<trkpt lat="52.64398956298828" lon="13.033421516418457">
<ele>77.0</ele>
<time>2014-02-15T16:00:00Z</time>
</trkpt>
<trkpt lat="52.644004821777344" lon="13.033342361450195">
<ele>77.19999694824219</ele>
<time>2014-02-15T16:00:01Z</time>
</trkpt>
<trkpt lat="52.64402389526367" lon="13.03327751159668">
<ele>76.80000305175781</ele>
<time>2014-02-15T16:00:02Z</time>
</trkpt>
<trkpt lat="52.644046783447266" lon="13.033111572265625">
<ele>77.0</ele>
<time>2014-02-15T16:00:04Z</time>
</trkpt>
<trkpt lat="52.6440544128418" lon="13.033023834228516">
<ele>77.5</ele>
<time>2014-02-15T16:00:05Z</time>
</trkpt>
<trkpt lat="52.64406204223633" lon="13.032937049865723">
<ele>76.5999984741211</ele>
<time>2014-02-15T16:00:06Z</time>
</trkpt>
<trkpt lat="52.64407730102539" lon="13.032843589782715">
<ele>76.69999694824219</ele>
<time>2014-02-15T16:00:07Z</time>
</trkpt>
<trkpt lat="52.64409255981445" lon="13.032752990722656">
<ele>77.0999984741211</ele>
<time>2014-02-15T16:00:08Z</time>
</trkpt>
<trkpt lat="52.64412307739258" lon="13.03264331817627">
<ele>76.9000015258789</ele>
<time>2014-02-15T16:00:09Z</time>
</trkpt>
<trkpt lat="52.64414596557617" lon="13.032554626464844">
<ele>77.69999694824219</ele>
<time>2014-02-15T16:00:10Z</time>
</trkpt>
<trkpt lat="52.644168853759766" lon="13.032459259033203">
<ele>78.0</ele>
<time>2014-02-15T16:00:11Z</time>
</trkpt>
<trkpt lat="52.644203186035156" lon="13.032360076904297">
<ele>78.30000305175781</ele>
<time>2014-02-15T16:00:12Z</time>
</trkpt>
<trkpt lat="52.644222259521484" lon="13.032273292541504">
<ele>78.5</ele>
<time>2014-02-15T16:00:13Z</time>
</trkpt>
<trkpt lat="52.644256591796875" lon="13.032102584838867">
<ele>78.69999694824219</ele>
<time>2014-02-15T16:00:15Z</time>
</trkpt>
<trkpt lat="52.64425277709961" lon="13.03200912475586">
<ele>78.4000015258789</ele>
<time>2014-02-15T16:00:16Z</time>
</trkpt>
<trkpt lat="52.64426803588867" lon="13.031929016113281">
<ele>78.5999984741211</ele>
<time>2014-02-15T16:00:17Z</time>
</trkpt>
<trkpt lat="52.6442756652832" lon="13.031835556030273">
<ele>78.0</ele>
<time>2014-02-15T16:00:18Z</time>
</trkpt>
<trkpt lat="52.64429473876953" lon="13.031742095947266">
<ele>77.30000305175781</ele>
<time>2014-02-15T16:00:19Z</time>
</trkpt>
<trkpt lat="52.64430236816406" lon="13.031665802001953">
<ele>77.5</ele>
<time>2014-02-15T16:00:20Z</time>
</trkpt>
<trkpt lat="52.64432144165039" lon="13.031579971313477">
<ele>77.19999694824219</ele>
<time>2014-02-15T16:00:21Z</time>
</trkpt>
<trkpt lat="52.64434814453125" lon="13.031468391418457">
<ele>76.5999984741211</ele>
<time>2014-02-15T16:00:22Z</time>
</trkpt>
<trkpt lat="52.64435577392578" lon="13.031388282775879">
<ele>76.5999984741211</ele>
<time>2014-02-15T16:00:23Z</time>
</trkpt>
<trkpt lat="52.64436721801758" lon="13.031305313110352">
<ele>75.9000015258789</ele>
<time>2014-02-15T16:00:24Z</time>
</trkpt>
<trkpt lat="52.64440155029297" lon="13.0311918258667">
<ele>76.0</ele>
<time>2014-02-15T16:00:25Z</time>
</trkpt>
<trkpt lat="52.6444206237793" lon="13.031110763549805">
<ele>76.69999694824219</ele>
<time>2014-02-15T16:00:26Z</time>
</trkpt>
<trkpt lat="52.644432067871094" lon="13.031039237976074">
<ele>77.80000305175781</ele>
<time>2014-02-15T16:00:27Z</time>
</trkpt>
<trkpt lat="52.64443588256836" lon="13.030954360961914">
<ele>77.9000015258789</ele>
<time>2014-02-15T16:00:28Z</time>
</trkpt>
<trkpt lat="52.64445495605469" lon="13.030869483947754">
<ele>78.0</ele>
<time>2014-02-15T16:00:29Z</time>
</trkpt>
<trkpt lat="52.64445114135742" lon="13.030771255493164">
<ele>78.19999694824219</ele>
<time>2014-02-15T16:00:30Z</time>
</trkpt>
<trkpt lat="52.64447021484375" lon="13.03067684173584">
<ele>77.69999694824219</ele>
<time>2014-02-15T16:00:31Z</time>
</trkpt>
<trkpt lat="52.644493103027344" lon="13.03060531616211">
<ele>76.80000305175781</ele>
<time>2014-02-15T16:00:27Z</time>
</trkpt>
<trkpt lat="52.644535064697266" lon="13.030425071716309">
<ele>74.69999694824219</ele>
<time>2014-02-15T16:00:29Z</time>
</trkpt>
<trkpt lat="52.64458084106445" lon="13.030252456665039">
<ele>73.69999694824219</ele>
<time>2014-02-15T16:00:31Z</time>
</trkpt>
<trkpt lat="52.6446418762207" lon="13.030083656311035">
<ele>74.9000015258789</ele>
<time>2014-02-15T16:00:32Z</time>
</trkpt>
<trkpt lat="52.644657135009766" lon="13.030007362365723">
<ele>74.9000015258789</ele>
<time>2014-02-15T16:00:33Z</time>
</trkpt>
<trkpt lat="52.64468002319336" lon="13.029916763305664">
<ele>75.0</ele>
<time>2014-02-15T16:00:34Z</time>
</trkpt>
<trkpt lat="52.644691467285156" lon="13.02983283996582">
<ele>75.0</ele>
<time>2014-02-15T16:00:35Z</time>
</trkpt>
<trkpt lat="52.644710540771484" lon="13.029739379882812">
<ele>74.9000015258789</ele>
<time>2014-02-15T16:00:36Z</time>
</trkpt>
<trkpt lat="52.64471435546875" lon="13.029583930969238">
<ele>78.9000015258789</ele>
<time>2014-02-15T16:00:39Z</time>
</trkpt>
<trkpt lat="52.64473342895508" lon="13.029431343078613">
<ele>80.0999984741211</ele>
<time>2014-02-15T16:00:40Z</time>
</trkpt>
<trkpt lat="52.64476776123047" lon="13.029277801513672">
<ele>81.5</ele>
<time>2014-02-15T16:00:42Z</time>
</trkpt>
<trkpt lat="52.64480209350586" lon="13.029125213623047">
<ele>82.30000305175781</ele>
<time>2014-02-15T16:00:44Z</time>
</trkpt>
<trkpt lat="52.64482116699219" lon="13.029038429260254">
<ele>81.80000305175781</ele>
<time>2014-02-15T16:00:45Z</time>
</trkpt>
<trkpt lat="52.64483642578125" lon="13.028945922851562">
<ele>82.0</ele>
<time>2014-02-15T16:00:46Z</time>
</trkpt>
<trkpt lat="52.644866943359375" lon="13.028762817382812">
<ele>81.5</ele>
<time>2014-02-15T16:00:48Z</time>
</trkpt>
<trkpt lat="52.6448860168457" lon="13.02868938446045">
<ele>81.80000305175781</ele>
<time>2014-02-15T16:00:49Z</time>
</trkpt>
<trkpt lat="52.64490509033203" lon="13.028532981872559">
<ele>81.80000305175781</ele>
<time>2014-02-15T16:00:51Z</time>
</trkpt>
<trkpt lat="52.64491653442383" lon="13.028458595275879">
<ele>81.4000015258789</ele>
<time>2014-02-15T16:00:52Z</time>
</trkpt>
<trkpt lat="52.64494323730469" lon="13.028385162353516">
<ele>81.30000305175781</ele>
<time>2014-02-15T16:00:53Z</time>
</trkpt>
<trkpt lat="52.64497375488281" lon="13.028270721435547">
<ele>81.19999694824219</ele>
<time>2014-02-15T16:00:54Z</time>
</trkpt>
<trkpt lat="52.644996643066406" lon="13.028181076049805">
<ele>80.9000015258789</ele>
<time>2014-02-15T16:00:55Z</time>
</trkpt>
<trkpt lat="52.64501190185547" lon="13.028092384338379">
<ele>80.80000305175781</ele>
<time>2014-02-15T16:00:56Z</time>
</trkpt>
<trkpt lat="52.64504623413086" lon="13.028017044067383">
<ele>80.5</ele>
<time>2014-02-15T16:00:57Z</time>
</trkpt>
<trkpt lat="52.645057678222656" lon="13.027926445007324">
<ele>80.4000015258789</ele>
<time>2014-02-15T16:00:58Z</time>
</trkpt>
<trkpt lat="52.64508056640625" lon="13.027832984924316">
<ele>80.19999694824219</ele>
<time>2014-02-15T16:00:59Z</time>
</trkpt>
<trkpt lat="52.64509582519531" lon="13.027732849121094">
<ele>79.0999984741211</ele>
<time>2014-02-15T16:01:00Z</time>
</trkpt>
<trkpt lat="52.645111083984375" lon="13.027626037597656">
<ele>79.30000305175781</ele>
<time>2014-02-15T16:01:01Z</time>
</trkpt>
<trkpt lat="52.645137786865234" lon="13.02753734588623">
<ele>79.5999984741211</ele>
<time>2014-02-15T16:01:02Z</time>
</trkpt>
<trkpt lat="52.64513397216797" lon="13.027424812316895">
<ele>79.4000015258789</ele>
<time>2014-02-15T16:01:03Z</time>
</trkpt>
<trkpt lat="52.64514923095703" lon="13.027338981628418">
<ele>79.4000015258789</ele>
<time>2014-02-15T16:01:04Z</time>
</trkpt>
<trkpt lat="52.645164489746094" lon="13.027241706848145">
<ele>79.30000305175781</ele>
<time>2014-02-15T16:01:05Z</time>
</trkpt>
<trkpt lat="52.64518356323242" lon="13.027148246765137">
<ele>79.5</ele>
<time>2014-02-15T16:01:06Z</time>
</trkpt>
<trkpt lat="52.64521408081055" lon="13.027017593383789">
<ele>79.5</ele>
<time>2014-02-15T16:01:07Z</time>
</trkpt>
<trkpt lat="52.64522933959961" lon="13.026923179626465">
<ele>80.0</ele>
<time>2014-02-15T16:01:08Z</time>
</trkpt>
<trkpt lat="52.6452522277832" lon="13.026836395263672">
<ele>80.0</ele>
<time>2014-02-15T16:01:09Z</time>
</trkpt>
<trkpt lat="52.645267486572266" lon="13.02673625946045">
<ele>80.19999694824219</ele>
<time>2014-02-15T16:01:10Z</time>
</trkpt>
<trkpt lat="52.645286560058594" lon="13.026633262634277">
<ele>79.5999984741211</ele>
<time>2014-02-15T16:01:11Z</time>
</trkpt>
<trkpt lat="52.64529800415039" lon="13.026549339294434">
<ele>79.80000305175781</ele>
<time>2014-02-15T16:01:12Z</time>
</trkpt>
<trkpt lat="52.64532470703125" lon="13.026439666748047">
<ele>79.9000015258789</ele>
<time>2014-02-15T16:01:13Z</time>
</trkpt>
<trkpt lat="52.645328521728516" lon="13.026349067687988">
<ele>80.0</ele>
<time>2014-02-15T16:01:14Z</time>
</trkpt>
<trkpt lat="52.64535140991211" lon="13.026263236999512">
<ele>78.80000305175781</ele>
<time>2014-02-15T16:01:15Z</time>
</trkpt>
<trkpt lat="52.64537048339844" lon="13.026188850402832">
<ele>77.5999984741211</ele>
<time>2014-02-15T16:01:16Z</time>
</trkpt>
<trkpt lat="52.64539337158203" lon="13.026102066040039">
<ele>78.0999984741211</ele>
<time>2014-02-15T16:01:17Z</time>
</trkpt>
<trkpt lat="52.645416259765625" lon="13.026013374328613">
<ele>78.30000305175781</ele>
<time>2014-02-15T16:01:18Z</time>
</trkpt>
<trkpt lat="52.64543914794922" lon="13.025922775268555">
<ele>78.30000305175781</ele>
<time>2014-02-15T16:01:19Z</time>
</trkpt>
<trkpt lat="52.64545822143555" lon="13.02583122253418">
<ele>77.69999694824219</ele>
<time>2014-02-15T16:01:20Z</time>
</trkpt>
<trkpt lat="52.645469665527344" lon="13.025740623474121">
<ele>77.0999984741211</ele>
<time>2014-02-15T16:01:21Z</time>
</trkpt>
<trkpt lat="52.64548873901367" lon="13.025653839111328">
<ele>76.80000305175781</ele>
<time>2014-02-15T16:01:22Z</time>
</trkpt>
<trkpt lat="52.6455078125" lon="13.025578498840332">
<ele>76.9000015258789</ele>
<time>2014-02-15T16:01:23Z</time>
</trkpt>
<trkpt lat="52.64552688598633" lon="13.025492668151855">
<ele>76.80000305175781</ele>
<time>2014-02-15T16:01:24Z</time>
</trkpt>
<trkpt lat="52.64553451538086" lon="13.025412559509277">
<ele>75.9000015258789</ele>
<time>2014-02-15T16:01:25Z</time>
</trkpt>
<trkpt lat="52.64554977416992" lon="13.025320053100586">
<ele>75.69999694824219</ele>
<time>2014-02-15T16:01:26Z</time>
</trkpt>
<trkpt lat="52.64556884765625" lon="13.02523422241211">
<ele>75.4000015258789</ele>
<time>2014-02-15T16:01:27Z</time>
</trkpt>
<trkpt lat="52.64558410644531" lon="13.025150299072266">
<ele>74.9000015258789</ele>
<time>2014-02-15T16:01:28Z</time>
</trkpt>
<trkpt lat="52.64560317993164" lon="13.025070190429688">
<ele>74.80000305175781</ele>
<time>2014-02-15T16:01:29Z</time>
</trkpt>
<trkpt lat="52.64561462402344" lon="13.024986267089844">
<ele>75.0999984741211</ele>
<time>2014-02-15T16:01:30Z</time>
</trkpt>
<trkpt lat="52.6456298828125" lon="13.024897575378418">
<ele>74.5</ele>
<time>2014-02-15T16:01:31Z</time>
</trkpt>
<trkpt lat="52.64564514160156" lon="13.024823188781738">
<ele>73.9000015258789</ele>
<time>2014-02-15T16:01:32Z</time>
</trkpt>
<trkpt lat="52.64566421508789" lon="13.024738311767578">
<ele>73.19999694824219</ele>
<time>2014-02-15T16:01:33Z</time>
</trkpt>
<trkpt lat="52.64567947387695" lon="13.02466106414795">
<ele>73.0999984741211</ele>
<time>2014-02-15T16:01:34Z</time>
</trkpt>
<trkpt lat="52.64569091796875" lon="13.024577140808105">
<ele>72.69999694824219</ele>
<time>2014-02-15T16:01:35Z</time>
</trkpt>
<trkpt lat="52.64570617675781" lon="13.02449893951416">
<ele>72.69999694824219</ele>
<time>2014-02-15T16:01:36Z</time>
</trkpt>
<trkpt lat="52.645713806152344" lon="13.024415016174316">
<ele>72.30000305175781</ele>
<time>2014-02-15T16:01:37Z</time>
</trkpt>
<trkpt lat="52.6457405090332" lon="13.024332046508789">
<ele>72.0</ele>
<time>2014-02-15T16:01:38Z</time>
</trkpt>
<trkpt lat="52.64574432373047" lon="13.024250030517578">
<ele>72.4000015258789</ele>
<time>2014-02-15T16:01:39Z</time>
</trkpt>
<trkpt lat="52.645755767822266" lon="13.024177551269531">
<ele>72.0999984741211</ele>
<time>2014-02-15T16:01:40Z</time>
</trkpt>
<trkpt lat="52.64577102661133" lon="13.02409839630127">
<ele>72.0999984741211</ele>
<time>2014-02-15T16:01:41Z</time>
</trkpt>
<trkpt lat="52.645782470703125" lon="13.024018287658691">
<ele>72.0</ele>
<time>2014-02-15T16:01:42Z</time>
</trkpt>
<trkpt lat="52.64580154418945" lon="13.02393913269043">
<ele>71.69999694824219</ele>
<time>2014-02-15T16:01:43Z</time>
</trkpt>
<trkpt lat="52.645816802978516" lon="13.023847579956055">
<ele>71.5</ele>
<time>2014-02-15T16:01:44Z</time>
</trkpt>
<trkpt lat="52.64582824707031" lon="13.023758888244629">
<ele>71.69999694824219</ele>
<time>2014-02-15T16:01:45Z</time>
</trkpt>
<trkpt lat="52.64584732055664" lon="13.023685455322266">
<ele>71.5999984741211</ele>
<time>2014-02-15T16:01:46Z</time>
</trkpt>
<trkpt lat="52.6458740234375" lon="13.023541450500488">
<ele>71.4000015258789</ele>
<time>2014-02-15T16:01:48Z</time>
</trkpt>
<trkpt lat="52.6458740234375" lon="13.023460388183594">
<ele>71.30000305175781</ele>
<time>2014-02-15T16:01:49Z</time>
</trkpt>
<trkpt lat="52.64590835571289" lon="13.023356437683105">
<ele>71.30000305175781</ele>
<time>2014-02-15T16:01:50Z</time>
</trkpt>
<trkpt lat="52.64591979980469" lon="13.02327823638916">
<ele>71.0999984741211</ele>
<time>2014-02-15T16:01:51Z</time>
</trkpt>
<trkpt lat="52.64595031738281" lon="13.023187637329102">
<ele>71.4000015258789</ele>
<time>2014-02-15T16:01:52Z</time>
</trkpt>
<trkpt lat="52.64596176147461" lon="13.023086547851562">
<ele>71.9000015258789</ele>
<time>2014-02-15T16:01:53Z</time>
</trkpt>
<trkpt lat="52.6459846496582" lon="13.022995948791504">
<ele>72.5</ele>
<time>2014-02-15T16:01:54Z</time>
</trkpt>
<trkpt lat="52.6460075378418" lon="13.022930145263672">
<ele>72.9000015258789</ele>
<time>2014-02-15T16:01:55Z</time>
</trkpt>
<trkpt lat="52.64604187011719" lon="13.022806167602539">
<ele>72.69999694824219</ele>
<time>2014-02-15T16:01:57Z</time>
</trkpt>
<trkpt lat="52.64606857299805" lon="13.022661209106445">
<ele>72.80000305175781</ele>
<time>2014-02-15T16:01:59Z</time>
</trkpt>
<trkpt lat="52.64609146118164" lon="13.022537231445312">
<ele>72.69999694824219</ele>
<time>2014-02-15T16:02:01Z</time>
</trkpt>
<trkpt lat="52.646114349365234" lon="13.022466659545898">
<ele>72.9000015258789</ele>
<time>2014-02-15T16:02:02Z</time>
</trkpt>
<trkpt lat="52.64613342285156" lon="13.022375106811523">
<ele>72.5</ele>
<time>2014-02-15T16:02:03Z</time>
</trkpt>
<trkpt lat="52.64615249633789" lon="13.02229118347168">
<ele>72.69999694824219</ele>
<time>2014-02-15T16:02:04Z</time>
</trkpt>
<trkpt lat="52.64617156982422" lon="13.02220344543457">
<ele>71.0</ele>
<time>2014-02-15T16:02:05Z</time>
</trkpt>
<trkpt lat="52.64619064331055" lon="13.022127151489258">
<ele>70.5</ele>
<time>2014-02-15T16:02:06Z</time>
</trkpt>
<trkpt lat="52.646236419677734" lon="13.022000312805176">
<ele>71.19999694824219</ele>
<time>2014-02-15T16:02:08Z</time>
</trkpt>
<trkpt lat="52.646240234375" lon="13.021924018859863">
<ele>71.9000015258789</ele>
<time>2014-02-15T16:02:09Z</time>
</trkpt>
<trkpt lat="52.646236419677734" lon="13.021827697753906">
<ele>71.9000015258789</ele>
<time>2014-02-15T16:02:10Z</time>
</trkpt>
<trkpt lat="52.6462516784668" lon="13.021739959716797">
<ele>72.0</ele>
<time>2014-02-15T16:02:11Z</time>
</trkpt>
<trkpt lat="52.64626693725586" lon="13.021655082702637">
<ele>72.19999694824219</ele>
<time>2014-02-15T16:02:12Z</time>
</trkpt>
<trkpt lat="52.64628601074219" lon="13.021575927734375">
<ele>72.4000015258789</ele>
<time>2014-02-15T16:02:13Z</time>
</trkpt>
<trkpt lat="52.64631271362305" lon="13.021483421325684">
<ele>72.69999694824219</ele>
<time>2014-02-15T16:02:14Z</time>
</trkpt>
<trkpt lat="52.64634704589844" lon="13.021329879760742">
<ele>72.69999694824219</ele>
<time>2014-02-15T16:02:16Z</time>
</trkpt>
<trkpt lat="52.646358489990234" lon="13.021230697631836">
<ele>73.4000015258789</ele>
<time>2014-02-15T16:02:17Z</time>
</trkpt>
<trkpt lat="52.64637756347656" lon="13.021138191223145">
<ele>73.4000015258789</ele>
<time>2014-02-15T16:02:18Z</time>
</trkpt>
<trkpt lat="52.646400451660156" lon="13.021068572998047">
<ele>73.69999694824219</ele>
<time>2014-02-15T16:02:19Z</time>
</trkpt>
<trkpt lat="52.64643478393555" lon="13.02101993560791">
<ele>74.0999984741211</ele>
<time>2014-02-15T16:02:20Z</time>
</trkpt>
<trkpt lat="52.64650344848633" lon="13.021087646484375">
<ele>75.5</ele>
<time>2014-02-15T16:02:24Z</time>
</trkpt>
<trkpt lat="52.646583557128906" lon="13.021127700805664">
<ele>76.0999984741211</ele>
<time>2014-02-15T16:02:26Z</time>
</trkpt>
<trkpt lat="52.64662551879883" lon="13.021153450012207">
<ele>76.30000305175781</ele>
<time>2014-02-15T16:02:27Z</time>
</trkpt>
<trkpt lat="52.64667892456055" lon="13.021166801452637">
<ele>77.5999984741211</ele>
<time>2014-02-15T16:02:28Z</time>
</trkpt>
<trkpt lat="52.64674377441406" lon="13.021248817443848">
<ele>78.5999984741211</ele>
<time>2014-02-15T16:02:30Z</time>
</trkpt>
<trkpt lat="52.64679718017578" lon="13.021282196044922">
<ele>79.5</ele>
<time>2014-02-15T16:02:31Z</time>
</trkpt>
<trkpt lat="52.6468391418457" lon="13.021316528320312">
<ele>79.9000015258789</ele>
<time>2014-02-15T16:02:32Z</time>
</trkpt>
<trkpt lat="52.64690017700195" lon="13.021350860595703">
<ele>81.19999694824219</ele>
<time>2014-02-15T16:02:33Z</time>
</trkpt>
<trkpt lat="52.64694595336914" lon="13.021406173706055">
<ele>81.5999984741211</ele>
<time>2014-02-15T16:02:34Z</time>
</trkpt>
<trkpt lat="52.64698028564453" lon="13.021456718444824">
<ele>82.5999984741211</ele>
<time>2014-02-15T16:02:35Z</time>
</trkpt>
<trkpt lat="52.64708709716797" lon="13.021525382995605">
<ele>84.0</ele>
<time>2014-02-15T16:02:37Z</time>
</trkpt>
<trkpt lat="52.64714431762695" lon="13.021512031555176">
<ele>84.4000015258789</ele>
<time>2014-02-15T16:02:38Z</time>
</trkpt>
<trkpt lat="52.64719772338867" lon="13.021479606628418">
<ele>84.19999694824219</ele>
<time>2014-02-15T16:02:39Z</time>
</trkpt>
<trkpt lat="52.64723205566406" lon="13.021413803100586">
<ele>85.30000305175781</ele>
<time>2014-02-15T16:02:40Z</time>
</trkpt>
<trkpt lat="52.64727020263672" lon="13.021349906921387">
<ele>85.69999694824219</ele>
<time>2014-02-15T16:02:41Z</time>
</trkpt>
<trkpt lat="52.6473503112793" lon="13.02125072479248">
<ele>84.0</ele>
<time>2014-02-15T16:02:43Z</time>
</trkpt>
<trkpt lat="52.64739227294922" lon="13.02118968963623">
<ele>83.0999984741211</ele>
<time>2014-02-15T16:02:44Z</time>
</trkpt>
<trkpt lat="52.64743423461914" lon="13.021140098571777">
<ele>83.0</ele>
<time>2014-02-15T16:02:45Z</time>
</trkpt>
<trkpt lat="52.64746856689453" lon="13.021093368530273">
<ele>82.5</ele>
<time>2014-02-15T16:02:46Z</time>
</trkpt>
<trkpt lat="52.64753341674805" lon="13.02099323272705">
<ele>81.30000305175781</ele>
<time>2014-02-15T16:02:48Z</time>
</trkpt>
<trkpt lat="52.64756774902344" lon="13.020929336547852">
<ele>81.5999984741211</ele>
<time>2014-02-15T16:02:49Z</time>
</trkpt>
<trkpt lat="52.64760971069336" lon="13.020856857299805">
<ele>81.0999984741211</ele>
<time>2014-02-15T16:02:50Z</time>
</trkpt>
<trkpt lat="52.64766311645508" lon="13.020746231079102">
<ele>81.0999984741211</ele>
<time>2014-02-15T16:02:52Z</time>
</trkpt>
<trkpt lat="52.647701263427734" lon="13.020694732666016">
<ele>80.0999984741211</ele>
<time>2014-02-15T16:02:53Z</time>
</trkpt>
<trkpt lat="52.64773941040039" lon="13.020625114440918">
<ele>79.30000305175781</ele>
<time>2014-02-15T16:02:54Z</time>
</trkpt>
<trkpt lat="52.647769927978516" lon="13.020551681518555">
<ele>79.9000015258789</ele>
<time>2014-02-15T16:02:55Z</time>
</trkpt>
<trkpt lat="52.64780807495117" lon="13.02048397064209">
<ele>79.5</ele>
<time>2014-02-15T16:02:56Z</time>
</trkpt>
<trkpt lat="52.64786148071289" lon="13.020421028137207">
<ele>80.0999984741211</ele>
<time>2014-02-15T16:02:57Z</time>
</trkpt>
<trkpt lat="52.64788818359375" lon="13.020309448242188">
<ele>79.9000015258789</ele>
<time>2014-02-15T16:02:59Z</time>
</trkpt>
<trkpt lat="52.647926330566406" lon="13.020221710205078">
<ele>79.5</ele>
<time>2014-02-15T16:03:00Z</time>
</trkpt>
<trkpt lat="52.64796829223633" lon="13.020158767700195">
<ele>78.9000015258789</ele>
<time>2014-02-15T16:03:01Z</time>
</trkpt>
<trkpt lat="52.648006439208984" lon="13.0200777053833">
<ele>78.5999984741211</ele>
<time>2014-02-15T16:03:02Z</time>
</trkpt>
<trkpt lat="52.648048400878906" lon="13.019965171813965">
<ele>78.5</ele>
<time>2014-02-15T16:03:04Z</time>
</trkpt>
<trkpt lat="52.64807891845703" lon="13.019887924194336">
<ele>78.19999694824219</ele>
<time>2014-02-15T16:03:05Z</time>
</trkpt>
<trkpt lat="52.64811325073242" lon="13.019830703735352">
<ele>78.0999984741211</ele>
<time>2014-02-15T16:03:06Z</time>
</trkpt>
<trkpt lat="52.64816665649414" lon="13.019762992858887">
<ele>78.69999694824219</ele>
<time>2014-02-15T16:03:07Z</time>
</trkpt>
<trkpt lat="52.64820098876953" lon="13.019699096679688">
<ele>79.4000015258789</ele>
<time>2014-02-15T16:03:08Z</time>
</trkpt>
<trkpt lat="52.64822769165039" lon="13.019641876220703">
<ele>79.0999984741211</ele>
<time>2014-02-15T16:03:09Z</time>
</trkpt>
<trkpt lat="52.64826202392578" lon="13.019579887390137">
<ele>79.19999694824219</ele>
<time>2014-02-15T16:03:10Z</time>
</trkpt>
<trkpt lat="52.64829635620117" lon="13.019523620605469">
<ele>79.30000305175781</ele>
<time>2014-02-15T16:03:11Z</time>
</trkpt>
<trkpt lat="52.64832305908203" lon="13.019449234008789">
<ele>79.80000305175781</ele>
<time>2014-02-15T16:03:12Z</time>
</trkpt>
<trkpt lat="52.64835739135742" lon="13.019383430480957">
<ele>79.9000015258789</ele>
<time>2014-02-15T16:03:13Z</time>
</trkpt>
<trkpt lat="52.648399353027344" lon="13.019309043884277">
<ele>80.0999984741211</ele>
<time>2014-02-15T16:03:14Z</time>
</trkpt>
<trkpt lat="52.6484260559082" lon="13.019237518310547">
<ele>81.0999984741211</ele>
<time>2014-02-15T16:03:15Z</time>
</trkpt>
<trkpt lat="52.64847183227539" lon="13.019164085388184">
<ele>81.5</ele>
<time>2014-02-15T16:03:16Z</time>
</trkpt>
<trkpt lat="52.64850616455078" lon="13.019098281860352">
<ele>81.80000305175781</ele>
<time>2014-02-15T16:03:17Z</time>
</trkpt>
<trkpt lat="52.648536682128906" lon="13.019035339355469">
<ele>82.9000015258789</ele>
<time>2014-02-15T16:03:18Z</time>
</trkpt>
<trkpt lat="52.64857482910156" lon="13.018951416015625">
<ele>82.5999984741211</ele>
<time>2014-02-15T16:03:19Z</time>
</trkpt>
<trkpt lat="52.64860916137695" lon="13.018877029418945">
<ele>82.9000015258789</ele>
<time>2014-02-15T16:03:20Z</time>
</trkpt>
<trkpt lat="52.64864730834961" lon="13.018795013427734">
<ele>83.0</ele>
<time>2014-02-15T16:03:21Z</time>
</trkpt>
<trkpt lat="52.64867401123047" lon="13.018715858459473">
<ele>83.5</ele>
<time>2014-02-15T16:03:22Z</time>
</trkpt>
<trkpt lat="52.648712158203125" lon="13.018587112426758">
<ele>83.30000305175781</ele>
<time>2014-02-15T16:03:24Z</time>
</trkpt>
<trkpt lat="52.64874267578125" lon="13.018521308898926">
<ele>82.5</ele>
<time>2014-02-15T16:03:25Z</time>
</trkpt>
<trkpt lat="52.64876937866211" lon="13.01844310760498">
<ele>82.0</ele>
<time>2014-02-15T16:03:26Z</time>
</trkpt>
<trkpt lat="52.6488151550293" lon="13.018372535705566">
<ele>81.5999984741211</ele>
<time>2014-02-15T16:03:27Z</time>
</trkpt>
<trkpt lat="52.64885711669922" lon="13.018317222595215">
<ele>81.5</ele>
<time>2014-02-15T16:03:28Z</time>
</trkpt>
<trkpt lat="52.64889144897461" lon="13.018265724182129">
<ele>81.4000015258789</ele>
<time>2014-02-15T16:03:29Z</time>
</trkpt>
<trkpt lat="52.6489372253418" lon="13.018227577209473">
<ele>81.4000015258789</ele>
<time>2014-02-15T16:03:30Z</time>
</trkpt>
<trkpt lat="52.64899444580078" lon="13.018173217773438">
<ele>84.0999984741211</ele>
<time>2014-02-15T16:03:31Z</time>
</trkpt>
<trkpt lat="52.64904022216797" lon="13.018126487731934">
<ele>83.9000015258789</ele>
<time>2014-02-15T16:03:32Z</time>
</trkpt>
<trkpt lat="52.64907455444336" lon="13.018062591552734">
<ele>84.19999694824219</ele>
<time>2014-02-15T16:03:33Z</time>
</trkpt>
<trkpt lat="52.649078369140625" lon="13.017986297607422">
<ele>82.19999694824219</ele>
<time>2014-02-15T16:03:34Z</time>
</trkpt>
<trkpt lat="52.64910888671875" lon="13.017908096313477">
<ele>82.69999694824219</ele>
<time>2014-02-15T16:03:35Z</time>
</trkpt>
<trkpt lat="52.64913558959961" lon="13.017834663391113">
<ele>82.5</ele>
<time>2014-02-15T16:03:36Z</time>
</trkpt>
<trkpt lat="52.64916229248047" lon="13.017755508422852">
<ele>83.0999984741211</ele>
<time>2014-02-15T16:03:37Z</time>
</trkpt>
<trkpt lat="52.64918899536133" lon="13.017682075500488">
<ele>82.9000015258789</ele>
<time>2014-02-15T16:03:38Z</time>
</trkpt>
<trkpt lat="52.649227142333984" lon="13.017547607421875">
<ele>80.5999984741211</ele>
<time>2014-02-15T16:03:40Z</time>
</trkpt>
<trkpt lat="52.649253845214844" lon="13.01747989654541">
<ele>80.0999984741211</ele>
<time>2014-02-15T16:03:41Z</time>
</trkpt>
<trkpt lat="52.64928436279297" lon="13.017407417297363">
<ele>80.0</ele>
<time>2014-02-15T16:03:42Z</time>
</trkpt>
<trkpt lat="52.64931106567383" lon="13.01733684539795">
<ele>79.80000305175781</ele>
<time>2014-02-15T16:03:43Z</time>
</trkpt>
<trkpt lat="52.64933776855469" lon="13.017263412475586">
<ele>79.0</ele>
<time>2014-02-15T16:03:44Z</time>
</trkpt>
<trkpt lat="52.64936447143555" lon="13.01720142364502">
<ele>78.69999694824219</ele>
<time>2014-02-15T16:03:45Z</time>
</trkpt>
<trkpt lat="52.6494026184082" lon="13.017131805419922">
<ele>78.19999694824219</ele>
<time>2014-02-15T16:03:46Z</time>
</trkpt>
<trkpt lat="52.64943313598633" lon="13.017056465148926">
<ele>78.0999984741211</ele>
<time>2014-02-15T16:03:47Z</time>
</trkpt>
<trkpt lat="52.64945983886719" lon="13.016990661621094">
<ele>77.5</ele>
<time>2014-02-15T16:03:48Z</time>
</trkpt>
<trkpt lat="52.64949417114258" lon="13.016919136047363">
<ele>77.0</ele>
<time>2014-02-15T16:03:49Z</time>
</trkpt>
<trkpt lat="52.6495246887207" lon="13.016845703125">
<ele>76.5</ele>
<time>2014-02-15T16:03:50Z</time>
</trkpt>
<trkpt lat="52.64956283569336" lon="13.016776084899902">
<ele>76.4000015258789</ele>
<time>2014-02-15T16:03:51Z</time>
</trkpt>
<trkpt lat="52.64958953857422" lon="13.016716003417969">
<ele>76.30000305175781</ele>
<time>2014-02-15T16:03:52Z</time>
</trkpt>
<trkpt lat="52.64962387084961" lon="13.016643524169922">
<ele>76.0999984741211</ele>
<time>2014-02-15T16:03:53Z</time>
</trkpt>
<trkpt lat="52.649654388427734" lon="13.01657485961914">
<ele>75.9000015258789</ele>
<time>2014-02-15T16:03:54Z</time>
</trkpt>
<trkpt lat="52.649688720703125" lon="13.016510009765625">
<ele>75.80000305175781</ele>
<time>2014-02-15T16:03:55Z</time>
</trkpt>
<trkpt lat="52.64971923828125" lon="13.016441345214844">
<ele>75.0</ele>
<time>2014-02-15T16:03:56Z</time>
</trkpt>
<trkpt lat="52.649749755859375" lon="13.016379356384277">
<ele>75.0999984741211</ele>
<time>2014-02-15T16:03:57Z</time>
</trkpt>
<trkpt lat="52.64979934692383" lon="13.016250610351562">
<ele>73.9000015258789</ele>
<time>2014-02-15T16:03:59Z</time>
</trkpt>
<trkpt lat="52.64986038208008" lon="13.016129493713379">
<ele>74.30000305175781</ele>
<time>2014-02-15T16:04:01Z</time>
</trkpt>
<trkpt lat="52.64992141723633" lon="13.016021728515625">
<ele>74.19999694824219</ele>
<time>2014-02-15T16:04:03Z</time>
</trkpt>
<trkpt lat="52.64995193481445" lon="13.015962600708008">
<ele>74.0</ele>
<time>2014-02-15T16:04:04Z</time>
</trkpt>
<trkpt lat="52.64997863769531" lon="13.015898704528809">
<ele>74.0</ele>
<time>2014-02-15T16:04:05Z</time>
</trkpt>
<trkpt lat="52.65000915527344" lon="13.01583480834961">
<ele>73.9000015258789</ele>
<time>2014-02-15T16:04:06Z</time>
</trkpt>
<trkpt lat="52.6500358581543" lon="13.015772819519043">
<ele>73.5999984741211</ele>
<time>2014-02-15T16:04:07Z</time>
</trkpt>
<trkpt lat="52.65009307861328" lon="13.015647888183594">
<ele>73.0</ele>
<time>2014-02-15T16:04:09Z</time>
</trkpt>
<trkpt lat="52.650150299072266" lon="13.015539169311523">
<ele>72.5</ele>
<time>2014-02-15T16:04:11Z</time>
</trkpt>
<trkpt lat="52.650203704833984" lon="13.015434265136719">
<ele>72.5999984741211</ele>
<time>2014-02-15T16:04:13Z</time>
</trkpt>
<trkpt lat="52.65023422241211" lon="13.015372276306152">
<ele>72.4000015258789</ele>
<time>2014-02-15T16:04:14Z</time>
</trkpt>
<trkpt lat="52.650264739990234" lon="13.015314102172852">
<ele>72.5</ele>
<time>2014-02-15T16:04:15Z</time>
</trkpt>
<trkpt lat="52.650291442871094" lon="13.01524829864502">
<ele>72.69999694824219</ele>
<time>2014-02-15T16:04:16Z</time>
</trkpt>
<trkpt lat="52.65031814575195" lon="13.015182495117188">
<ele>72.9000015258789</ele>
<time>2014-02-15T16:04:17Z</time>
</trkpt>
<trkpt lat="52.65034484863281" lon="13.015121459960938">
<ele>73.0</ele>
<time>2014-02-15T16:04:18Z</time>
</trkpt>
<trkpt lat="52.650394439697266" lon="13.014994621276855">
<ele>73.30000305175781</ele>
<time>2014-02-15T16:04:20Z</time>
</trkpt>
<trkpt lat="52.65041732788086" lon="13.014924049377441">
<ele>73.0999984741211</ele>
<time>2014-02-15T16:04:21Z</time>
</trkpt>
<trkpt lat="52.650447845458984" lon="13.014861106872559">
<ele>73.5999984741211</ele>
<time>2014-02-15T16:04:22Z</time>
</trkpt>
<trkpt lat="52.650474548339844" lon="13.014789581298828">
<ele>73.69999694824219</ele>
<time>2014-02-15T16:04:23Z</time>
</trkpt>
<trkpt lat="52.65049743652344" lon="13.014718055725098">
<ele>73.9000015258789</ele>
<time>2014-02-15T16:04:24Z</time>
</trkpt>
<trkpt lat="52.6505241394043" lon="13.01464557647705">
<ele>74.0999984741211</ele>
<time>2014-02-15T16:04:25Z</time>
</trkpt>
<trkpt lat="52.65054702758789" lon="13.014572143554688">
<ele>73.9000015258789</ele>
<time>2014-02-15T16:04:26Z</time>
</trkpt>
<trkpt lat="52.65057373046875" lon="13.014497756958008">
<ele>74.4000015258789</ele>
<time>2014-02-15T16:04:27Z</time>
</trkpt>
<trkpt lat="52.65059280395508" lon="13.014425277709961">
<ele>74.30000305175781</ele>
<time>2014-02-15T16:04:28Z</time>
</trkpt>
<trkpt lat="52.650630950927734" lon="13.014281272888184">
<ele>74.30000305175781</ele>
<time>2014-02-15T16:04:31Z</time>
</trkpt>
<trkpt lat="52.65067672729492" lon="13.01414680480957">
<ele>74.0999984741211</ele>
<time>2014-02-15T16:04:32Z</time>
</trkpt>
<trkpt lat="52.65072250366211" lon="13.014082908630371">
<ele>74.30000305175781</ele>
<time>2014-02-15T16:04:33Z</time>
</trkpt>
<trkpt lat="52.650753021240234" lon="13.014029502868652">
<ele>73.69999694824219</ele>
<time>2014-02-15T16:04:34Z</time>
</trkpt>
<trkpt lat="52.65079116821289" lon="13.013965606689453">
<ele>74.0999984741211</ele>
<time>2014-02-15T16:04:35Z</time>
</trkpt>
<trkpt lat="52.65082550048828" lon="13.01390266418457">
<ele>73.69999694824219</ele>
<time>2014-02-15T16:04:36Z</time>
</trkpt>
<trkpt lat="52.650856018066406" lon="13.01383113861084">
<ele>73.69999694824219</ele>
<time>2014-02-15T16:04:37Z</time>
</trkpt>
<trkpt lat="52.65089416503906" lon="13.013761520385742">
<ele>73.5</ele>
<time>2014-02-15T16:04:38Z</time>
</trkpt>
<trkpt lat="52.650917053222656" lon="13.01369571685791">
<ele>72.9000015258789</ele>
<time>2014-02-15T16:04:39Z</time>
</trkpt>
<trkpt lat="52.65094757080078" lon="13.013631820678711">
<ele>72.5999984741211</ele>
<time>2014-02-15T16:04:40Z</time>
</trkpt>
<trkpt lat="52.65097427368164" lon="13.013570785522461">
<ele>72.5999984741211</ele>
<time>2014-02-15T16:04:41Z</time>
</trkpt>
<trkpt lat="52.65100860595703" lon="13.013509750366211">
<ele>73.4000015258789</ele>
<time>2014-02-15T16:04:42Z</time>
</trkpt>
<trkpt lat="52.65104675292969" lon="13.013455390930176">
<ele>74.19999694824219</ele>
<time>2014-02-15T16:04:43Z</time>
</trkpt>
<trkpt lat="52.65107727050781" lon="13.013389587402344">
<ele>74.4000015258789</ele>
<time>2014-02-15T16:04:44Z</time>
</trkpt>
<trkpt lat="52.65110778808594" lon="13.013325691223145">
<ele>74.5999984741211</ele>
<time>2014-02-15T16:04:45Z</time>
</trkpt>
<trkpt lat="52.65114212036133" lon="13.013266563415527">
<ele>74.5999984741211</ele>
<time>2014-02-15T16:04:46Z</time>
</trkpt>
<trkpt lat="52.65117263793945" lon="13.013205528259277">
<ele>74.80000305175781</ele>
<time>2014-02-15T16:04:47Z</time>
</trkpt>
<trkpt lat="52.651214599609375" lon="13.013138771057129">
<ele>75.19999694824219</ele>
<time>2014-02-15T16:04:48Z</time>
</trkpt>
<trkpt lat="52.6512451171875" lon="13.013073921203613">
<ele>75.4000015258789</ele>
<time>2014-02-15T16:04:49Z</time>
</trkpt>
<trkpt lat="52.65129470825195" lon="13.013006210327148">
<ele>76.4000015258789</ele>
<time>2014-02-15T16:04:50Z</time>
</trkpt>
<trkpt lat="52.651336669921875" lon="13.012935638427734">
<ele>77.0</ele>
<time>2014-02-15T16:04:51Z</time>
</trkpt>
<trkpt lat="52.6513786315918" lon="13.012856483459473">
<ele>77.4000015258789</ele>
<time>2014-02-15T16:04:52Z</time>
</trkpt>
<trkpt lat="52.65142059326172" lon="13.012778282165527">
<ele>77.4000015258789</ele>
<time>2014-02-15T16:04:53Z</time>
</trkpt>
<trkpt lat="52.65146255493164" lon="13.012697219848633">
<ele>77.30000305175781</ele>
<time>2014-02-15T16:04:54Z</time>
</trkpt>
<trkpt lat="52.6515007019043" lon="13.01262092590332">
<ele>77.4000015258789</ele>
<time>2014-02-15T16:04:55Z</time>
</trkpt>
<trkpt lat="52.65153884887695" lon="13.01256275177002">
<ele>77.5</ele>
<time>2014-02-15T16:04:56Z</time>
</trkpt>
<trkpt lat="52.65153121948242" lon="13.01248836517334">
<ele>77.4000015258789</ele>
<time>2014-02-15T16:04:57Z</time>
</trkpt>
<trkpt lat="52.65154266357422" lon="13.012373924255371">
<ele>77.69999694824219</ele>
<time>2014-02-15T16:04:59Z</time>
</trkpt>
<trkpt lat="52.65156173706055" lon="13.012236595153809">
<ele>78.19999694824219</ele>
<time>2014-02-15T16:05:01Z</time>
</trkpt>
<trkpt lat="52.6515998840332" lon="13.012107849121094">
<ele>79.4000015258789</ele>
<time>2014-02-15T16:05:03Z</time>
</trkpt>
<trkpt lat="52.6516227722168" lon="13.012038230895996">
<ele>79.4000015258789</ele>
<time>2014-02-15T16:05:04Z</time>
</trkpt>
<trkpt lat="52.65166091918945" lon="13.011905670166016">
<ele>80.5</ele>
<time>2014-02-15T16:05:06Z</time>
</trkpt>
<trkpt lat="52.65168380737305" lon="13.011836051940918">
<ele>80.69999694824219</ele>
<time>2014-02-15T16:05:07Z</time>
</trkpt>
<trkpt lat="52.651695251464844" lon="13.011757850646973">
<ele>81.0</ele>
<time>2014-02-15T16:05:08Z</time>
</trkpt>
<trkpt lat="52.65170669555664" lon="13.011683464050293">
<ele>80.9000015258789</ele>
<time>2014-02-15T16:05:09Z</time>
</trkpt>
<trkpt lat="52.65169906616211" lon="13.011576652526855">
<ele>81.0</ele>
<time>2014-02-15T16:05:11Z</time>
</trkpt>
<trkpt lat="52.65165328979492" lon="13.011458396911621">
<ele>80.80000305175781</ele>
<time>2014-02-15T16:05:13Z</time>
</trkpt>
<trkpt lat="52.651634216308594" lon="13.011385917663574">
<ele>80.5</ele>
<time>2014-02-15T16:05:14Z</time>
</trkpt>
<trkpt lat="52.65161895751953" lon="13.011295318603516">
<ele>80.0999984741211</ele>
<time>2014-02-15T16:05:15Z</time>
</trkpt>
<trkpt lat="52.65163803100586" lon="13.01120662689209">
<ele>80.19999694824219</ele>
<time>2014-02-15T16:05:16Z</time>
</trkpt>
<trkpt lat="52.65166091918945" lon="13.01111125946045">
<ele>79.5</ele>
<time>2014-02-15T16:05:17Z</time>
</trkpt>
<trkpt lat="52.65168762207031" lon="13.01103401184082">
<ele>79.0999984741211</ele>
<time>2014-02-15T16:05:18Z</time>
</trkpt>
<trkpt lat="52.65171432495117" lon="13.010943412780762">
<ele>78.9000015258789</ele>
<time>2014-02-15T16:05:19Z</time>
</trkpt>
<trkpt lat="52.65174102783203" lon="13.010872840881348">
<ele>79.5999984741211</ele>
<time>2014-02-15T16:05:20Z</time>
</trkpt>
<trkpt lat="52.65176773071289" lon="13.01079273223877">
<ele>79.80000305175781</ele>
<time>2014-02-15T16:05:21Z</time>
</trkpt>
<trkpt lat="52.65179443359375" lon="13.010713577270508">
<ele>79.5</ele>
<time>2014-02-15T16:05:22Z</time>
</trkpt>
<trkpt lat="52.651851654052734" lon="13.010607719421387">
<ele>77.69999694824219</ele>
<time>2014-02-15T16:05:24Z</time>
</trkpt>
<trkpt lat="52.65190887451172" lon="13.010568618774414">
<ele>77.9000015258789</ele>
<time>2014-02-15T16:05:25Z</time>
</trkpt>
<trkpt lat="52.65193557739258" lon="13.01051139831543">
<ele>76.80000305175781</ele>
<time>2014-02-15T16:05:26Z</time>
</trkpt>
<trkpt lat="52.651973724365234" lon="13.010458946228027">
<ele>76.80000305175781</ele>
<time>2014-02-15T16:05:27Z</time>
</trkpt>
<trkpt lat="52.652008056640625" lon="13.010405540466309">
<ele>76.69999694824219</ele>
<time>2014-02-15T16:05:28Z</time>
</trkpt>
<trkpt lat="52.652042388916016" lon="13.010271072387695">
<ele>75.5999984741211</ele>
<time>2014-02-15T16:05:30Z</time>
</trkpt>
<trkpt lat="52.652076721191406" lon="13.010146141052246">
<ele>74.9000015258789</ele>
<time>2014-02-15T16:05:32Z</time>
</trkpt>
<trkpt lat="52.65214157104492" lon="13.010056495666504">
<ele>74.5999984741211</ele>
<time>2014-02-15T16:05:34Z</time>
</trkpt>
<trkpt lat="52.652191162109375" lon="13.010093688964844">
<ele>74.30000305175781</ele>
<time>2014-02-15T16:05:35Z</time>
</trkpt>
<trkpt lat="52.6522331237793" lon="13.010108947753906">
<ele>74.0999984741211</ele>
<time>2014-02-15T16:05:36Z</time>
</trkpt>
<trkpt lat="52.65228271484375" lon="13.010139465332031">
<ele>73.80000305175781</ele>
<time>2014-02-15T16:05:37Z</time>
</trkpt>
<trkpt lat="52.65232849121094" lon="13.01015567779541">
<ele>74.0999984741211</ele>
<time>2014-02-15T16:05:38Z</time>
</trkpt>
<trkpt lat="52.65242004394531" lon="13.010190963745117">
<ele>74.5</ele>
<time>2014-02-15T16:05:40Z</time>
</trkpt>
<trkpt lat="52.6524658203125" lon="13.010210990905762">
<ele>74.19999694824219</ele>
<time>2014-02-15T16:05:41Z</time>
</trkpt>
<trkpt lat="52.65251159667969" lon="13.010232925415039">
<ele>74.19999694824219</ele>
<time>2014-02-15T16:05:42Z</time>
</trkpt>
<trkpt lat="52.652565002441406" lon="13.010261535644531">
<ele>73.80000305175781</ele>
<time>2014-02-15T16:05:43Z</time>
</trkpt>
<trkpt lat="52.65264892578125" lon="13.010316848754883">
<ele>74.0</ele>
<time>2014-02-15T16:05:45Z</time>
</trkpt>
<trkpt lat="52.65269470214844" lon="13.01034927368164">
<ele>74.0999984741211</ele>
<time>2014-02-15T16:05:46Z</time>
</trkpt>
<trkpt lat="52.65277862548828" lon="13.010400772094727">
<ele>73.9000015258789</ele>
<time>2014-02-15T16:05:48Z</time>
</trkpt>
<trkpt lat="52.652854919433594" lon="13.010462760925293">
<ele>74.0</ele>
<time>2014-02-15T16:05:50Z</time>
</trkpt>
<trkpt lat="52.65293502807617" lon="13.010491371154785">
<ele>75.30000305175781</ele>
<time>2014-02-15T16:05:52Z</time>
</trkpt>
<trkpt lat="52.65299987792969" lon="13.010411262512207">
<ele>75.80000305175781</ele>
<time>2014-02-15T16:05:54Z</time>
</trkpt>
<trkpt lat="52.65303421020508" lon="13.010305404663086">
<ele>75.80000305175781</ele>
<time>2014-02-15T16:05:56Z</time>
</trkpt>
<trkpt lat="52.653076171875" lon="13.010213851928711">
<ele>75.9000015258789</ele>
<time>2014-02-15T16:05:58Z</time>
</trkpt>
<trkpt lat="52.65311813354492" lon="13.010124206542969">
<ele>75.80000305175781</ele>
<time>2014-02-15T16:06:00Z</time>
</trkpt>
<trkpt lat="52.653160095214844" lon="13.01003646850586">
<ele>75.69999694824219</ele>
<time>2014-02-15T16:06:02Z</time>
</trkpt>
<trkpt lat="52.65320587158203" lon="13.009954452514648">
<ele>75.80000305175781</ele>
<time>2014-02-15T16:06:04Z</time>
</trkpt>
<trkpt lat="52.65324783325195" lon="13.009886741638184">
<ele>75.5999984741211</ele>
<time>2014-02-15T16:06:06Z</time>
</trkpt>
<trkpt lat="52.65324401855469" lon="13.009809494018555">
<ele>72.30000305175781</ele>
<time>2014-02-15T16:06:09Z</time>
</trkpt>
<trkpt lat="52.65327835083008" lon="13.00973129272461">
<ele>73.9000015258789</ele>
<time>2014-02-15T16:06:11Z</time>
</trkpt>
<trkpt lat="52.65324401855469" lon="13.009588241577148">
<ele>74.80000305175781</ele>
<time>2014-02-15T16:06:15Z</time>
</trkpt>
<trkpt lat="52.65315246582031" lon="13.009526252746582">
<ele>76.5</ele>
<time>2014-02-15T16:06:17Z</time>
</trkpt>
<trkpt lat="52.65308380126953" lon="13.009466171264648">
<ele>77.0</ele>
<time>2014-02-15T16:06:19Z</time>
</trkpt>
<trkpt lat="52.65301513671875" lon="13.00940990447998">
<ele>77.5</ele>
<time>2014-02-15T16:06:21Z</time>
</trkpt>
<trkpt lat="52.65297317504883" lon="13.009381294250488">
<ele>77.19999694824219</ele>
<time>2014-02-15T16:06:23Z</time>
</trkpt>
<trkpt lat="52.652889251708984" lon="13.00931167602539">
<ele>77.5</ele>
<time>2014-02-15T16:06:24Z</time>
</trkpt>
<trkpt lat="52.65284729003906" lon="13.00927734375">
<ele>77.4000015258789</ele>
<time>2014-02-15T16:06:25Z</time>
</trkpt>
<trkpt lat="52.65280532836914" lon="13.009248733520508">
<ele>77.4000015258789</ele>
<time>2014-02-15T16:06:26Z</time>
</trkpt>
<trkpt lat="52.652767181396484" lon="13.009212493896484">
<ele>77.30000305175781</ele>
<time>2014-02-15T16:06:28Z</time>
</trkpt>
<trkpt lat="52.65268325805664" lon="13.009121894836426">
<ele>77.0999984741211</ele>
<time>2014-02-15T16:06:29Z</time>
</trkpt>
<trkpt lat="52.65263748168945" lon="13.00908088684082">
<ele>76.80000305175781</ele>
<time>2014-02-15T16:06:30Z</time>
</trkpt>
<trkpt lat="52.6525993347168" lon="13.009037017822266">
<ele>76.80000305175781</ele>
<time>2014-02-15T16:06:31Z</time>
</trkpt>
<trkpt lat="52.65256118774414" lon="13.008997917175293">
<ele>76.9000015258789</ele>
<time>2014-02-15T16:06:32Z</time>
</trkpt>
<trkpt lat="52.65251922607422" lon="13.00895881652832">
<ele>76.80000305175781</ele>
<time>2014-02-15T16:06:33Z</time>
</trkpt>
<trkpt lat="52.6524772644043" lon="13.008926391601562">
<ele>76.80000305175781</ele>
<time>2014-02-15T16:06:34Z</time>
</trkpt>
<trkpt lat="52.65243148803711" lon="13.008878707885742">
<ele>77.0</ele>
<time>2014-02-15T16:06:35Z</time>
</trkpt>
<trkpt lat="52.652366638183594" lon="13.008817672729492">
<ele>76.19999694824219</ele>
<time>2014-02-15T16:06:37Z</time>
</trkpt>
<trkpt lat="52.652313232421875" lon="13.008767127990723">
<ele>75.30000305175781</ele>
<time>2014-02-15T16:06:39Z</time>
</trkpt>
<trkpt lat="52.65226745605469" lon="13.008708953857422">
<ele>73.30000305175781</ele>
<time>2014-02-15T16:06:42Z</time>
</trkpt>
<trkpt lat="52.65230178833008" lon="13.008648872375488">
<ele>78.0999984741211</ele>
<time>2014-02-15T16:12:10Z</time>
</trkpt>
<trkpt lat="52.65225601196289" lon="13.008602142333984">
<ele>77.9000015258789</ele>
<time>2014-02-15T16:12:17Z</time>
</trkpt>
<trkpt lat="52.652191162109375" lon="13.008574485778809">
<ele>78.19999694824219</ele>
<time>2014-02-15T16:12:19Z</time>
</trkpt>
<trkpt lat="52.652122497558594" lon="13.008498191833496">
<ele>78.80000305175781</ele>
<time>2014-02-15T16:12:22Z</time>
</trkpt>
<trkpt lat="52.65204620361328" lon="13.008415222167969">
<ele>79.0</ele>
<time>2014-02-15T16:12:23Z</time>
</trkpt>
<trkpt lat="52.65196990966797" lon="13.008326530456543">
<ele>78.19999694824219</ele>
<time>2014-02-15T16:12:25Z</time>
</trkpt>
<trkpt lat="52.65193557739258" lon="13.008279800415039">
<ele>77.69999694824219</ele>
<time>2014-02-15T16:12:26Z</time>
</trkpt>
<trkpt lat="52.65189743041992" lon="13.0082368850708">
<ele>77.4000015258789</ele>
<time>2014-02-15T16:12:27Z</time>
</trkpt>
<trkpt lat="52.65185546875" lon="13.008197784423828">
<ele>77.80000305175781</ele>
<time>2014-02-15T16:12:28Z</time>
</trkpt>
<trkpt lat="52.65181350708008" lon="13.008152961730957">
<ele>77.0</ele>
<time>2014-02-15T16:12:29Z</time>
</trkpt>
<trkpt lat="52.651771545410156" lon="13.008113861083984">
<ele>77.0999984741211</ele>
<time>2014-02-15T16:12:30Z</time>
</trkpt>
<trkpt lat="52.65169906616211" lon="13.008038520812988">
<ele>77.4000015258789</ele>
<time>2014-02-15T16:12:32Z</time>
</trkpt>
<trkpt lat="52.65166473388672" lon="13.007986068725586">
<ele>77.0999984741211</ele>
<time>2014-02-15T16:12:33Z</time>
</trkpt>
<trkpt lat="52.65160369873047" lon="13.007866859436035">
<ele>76.80000305175781</ele>
<time>2014-02-15T16:12:35Z</time>
</trkpt>
<trkpt lat="52.65155792236328" lon="13.007811546325684">
<ele>76.4000015258789</ele>
<time>2014-02-15T16:12:36Z</time>
</trkpt>
<trkpt lat="52.651485443115234" lon="13.007736206054688">
<ele>76.30000305175781</ele>
<time>2014-02-15T16:12:38Z</time>
</trkpt>
<trkpt lat="52.65143966674805" lon="13.007694244384766">
<ele>76.5999984741211</ele>
<time>2014-02-15T16:12:39Z</time>
</trkpt>
<trkpt lat="52.65139389038086" lon="13.007651329040527">
<ele>76.5999984741211</ele>
<time>2014-02-15T16:12:40Z</time>
</trkpt>
<trkpt lat="52.6513557434082" lon="13.007603645324707">
<ele>76.0999984741211</ele>
<time>2014-02-15T16:12:41Z</time>
</trkpt>
<trkpt lat="52.65131378173828" lon="13.007564544677734">
<ele>76.30000305175781</ele>
<time>2014-02-15T16:12:42Z</time>
</trkpt>
<trkpt lat="52.6512451171875" lon="13.00748062133789">
<ele>76.0999984741211</ele>
<time>2014-02-15T16:12:44Z</time>
</trkpt>
<trkpt lat="52.651206970214844" lon="13.007437705993652">
<ele>75.69999694824219</ele>
<time>2014-02-15T16:12:45Z</time>
</trkpt>
<trkpt lat="52.651161193847656" lon="13.007393836975098">
<ele>75.69999694824219</ele>
<time>2014-02-15T16:12:46Z</time>
</trkpt>
<trkpt lat="52.651084899902344" lon="13.00731372833252">
<ele>75.19999694824219</ele>
<time>2014-02-15T16:12:48Z</time>
</trkpt>
<trkpt lat="52.65100860595703" lon="13.007237434387207">
<ele>74.9000015258789</ele>
<time>2014-02-15T16:12:50Z</time>
</trkpt>
<trkpt lat="52.650970458984375" lon="13.007187843322754">
<ele>75.0999984741211</ele>
<time>2014-02-15T16:12:51Z</time>
</trkpt>
<trkpt lat="52.65092086791992" lon="13.00716781616211">
<ele>73.80000305175781</ele>
<time>2014-02-15T16:12:52Z</time>
</trkpt>
<trkpt lat="52.6508674621582" lon="13.007078170776367">
<ele>74.0999984741211</ele>
<time>2014-02-15T16:12:54Z</time>
</trkpt>
<trkpt lat="52.65082931518555" lon="13.007025718688965">
<ele>74.19999694824219</ele>
<time>2014-02-15T16:12:55Z</time>
</trkpt>
<trkpt lat="52.650787353515625" lon="13.00698184967041">
<ele>73.69999694824219</ele>
<time>2014-02-15T16:12:56Z</time>
</trkpt>
<trkpt lat="52.65071105957031" lon="13.006903648376465">
<ele>73.5</ele>
<time>2014-02-15T16:12:58Z</time>
</trkpt>
<trkpt lat="52.650665283203125" lon="13.006857872009277">
<ele>73.19999694824219</ele>
<time>2014-02-15T16:12:59Z</time>
</trkpt>
<trkpt lat="52.6506233215332" lon="13.00681209564209">
<ele>72.9000015258789</ele>
<time>2014-02-15T16:13:00Z</time>
</trkpt>
<trkpt lat="52.650577545166016" lon="13.00676441192627">
<ele>72.9000015258789</ele>
<time>2014-02-15T16:13:01Z</time>
</trkpt>
<trkpt lat="52.65053939819336" lon="13.00671672821045">
<ele>73.5</ele>
<time>2014-02-15T16:13:02Z</time>
</trkpt>
<trkpt lat="52.65049362182617" lon="13.006673812866211">
<ele>73.0999984741211</ele>
<time>2014-02-15T16:13:03Z</time>
</trkpt>
<trkpt lat="52.650447845458984" lon="13.006635665893555">
<ele>73.0999984741211</ele>
<time>2014-02-15T16:13:04Z</time>
</trkpt>
<trkpt lat="52.65040969848633" lon="13.006599426269531">
<ele>72.5999984741211</ele>
<time>2014-02-15T16:13:05Z</time>
</trkpt>
<trkpt lat="52.65037155151367" lon="13.00655460357666">
<ele>72.80000305175781</ele>
<time>2014-02-15T16:13:06Z</time>
</trkpt>
<trkpt lat="52.65034103393555" lon="13.006502151489258">
<ele>73.5</ele>
<time>2014-02-15T16:13:07Z</time>
</trkpt>
<trkpt lat="52.650299072265625" lon="13.00645923614502">
<ele>73.0999984741211</ele>
<time>2014-02-15T16:13:08Z</time>
</trkpt>
<trkpt lat="52.6502571105957" lon="13.006418228149414">
<ele>73.0</ele>
<time>2014-02-15T16:13:09Z</time>
</trkpt>
<trkpt lat="52.65021514892578" lon="13.006379127502441">
<ele>73.0</ele>
<time>2014-02-15T16:13:10Z</time>
</trkpt>
<trkpt lat="52.65018081665039" lon="13.006329536437988">
<ele>73.0999984741211</ele>
<time>2014-02-15T16:13:11Z</time>
</trkpt>
<trkpt lat="52.650142669677734" lon="13.006278991699219">
<ele>73.0999984741211</ele>
<time>2014-02-15T16:13:12Z</time>
</trkpt>
<trkpt lat="52.65010452270508" lon="13.006229400634766">
<ele>72.9000015258789</ele>
<time>2014-02-15T16:13:13Z</time>
</trkpt>
<trkpt lat="52.65006637573242" lon="13.006182670593262">
<ele>72.69999694824219</ele>
<time>2014-02-15T16:13:14Z</time>
</trkpt>
<trkpt lat="52.65003967285156" lon="13.006124496459961">
<ele>73.0</ele>
<time>2014-02-15T16:13:15Z</time>
</trkpt>
<trkpt lat="52.650001525878906" lon="13.006083488464355">
<ele>73.0999984741211</ele>
<time>2014-02-15T16:13:16Z</time>
</trkpt>
<trkpt lat="52.64994430541992" lon="13.00599479675293">
<ele>73.19999694824219</ele>
<time>2014-02-15T16:13:18Z</time>
</trkpt>
<trkpt lat="52.64987564086914" lon="13.005908012390137">
<ele>73.0</ele>
<time>2014-02-15T16:13:20Z</time>
</trkpt>
<trkpt lat="52.649837493896484" lon="13.005863189697266">
<ele>73.19999694824219</ele>
<time>2014-02-15T16:13:21Z</time>
</trkpt>
<trkpt lat="52.64979934692383" lon="13.005817413330078">
<ele>73.19999694824219</ele>
<time>2014-02-15T16:13:22Z</time>
</trkpt>
<trkpt lat="52.649757385253906" lon="13.005780220031738">
<ele>73.19999694824219</ele>
<time>2014-02-15T16:13:23Z</time>
</trkpt>
<trkpt lat="52.649715423583984" lon="13.005735397338867">
<ele>73.0</ele>
<time>2014-02-15T16:13:24Z</time>
</trkpt>
<trkpt lat="52.64967727661133" lon="13.005690574645996">
<ele>73.30000305175781</ele>
<time>2014-02-15T16:13:25Z</time>
</trkpt>
<trkpt lat="52.64963912963867" lon="13.00564956665039">
<ele>73.30000305175781</ele>
<time>2014-02-15T16:13:26Z</time>
</trkpt>
<trkpt lat="52.64958572387695" lon="13.005592346191406">
<ele>73.5999984741211</ele>
<time>2014-02-15T16:13:27Z</time>
</trkpt>
<trkpt lat="52.64954376220703" lon="13.005550384521484">
<ele>73.80000305175781</ele>
<time>2014-02-15T16:13:28Z</time>
</trkpt>
<trkpt lat="52.64949417114258" lon="13.005501747131348">
<ele>73.80000305175781</ele>
<time>2014-02-15T16:13:29Z</time>
</trkpt>
<trkpt lat="52.64944839477539" lon="13.005457878112793">
<ele>73.80000305175781</ele>
<time>2014-02-15T16:13:30Z</time>
</trkpt>
<trkpt lat="52.64939498901367" lon="13.005413055419922">
<ele>73.80000305175781</ele>
<time>2014-02-15T16:13:31Z</time>
</trkpt>
<trkpt lat="52.649356842041016" lon="13.005359649658203">
<ele>73.9000015258789</ele>
<time>2014-02-15T16:13:32Z</time>
</trkpt>
<trkpt lat="52.64929962158203" lon="13.005309104919434">
<ele>74.0999984741211</ele>
<time>2014-02-15T16:13:33Z</time>
</trkpt>
<trkpt lat="52.64924621582031" lon="13.00527286529541">
<ele>74.4000015258789</ele>
<time>2014-02-15T16:13:34Z</time>
</trkpt>
<trkpt lat="52.6491813659668" lon="13.005188941955566">
<ele>74.5999984741211</ele>
<time>2014-02-15T16:13:36Z</time>
</trkpt>
<trkpt lat="52.64909744262695" lon="13.005098342895508">
<ele>74.80000305175781</ele>
<time>2014-02-15T16:13:38Z</time>
</trkpt>
<trkpt lat="52.649051666259766" lon="13.005051612854004">
<ele>74.30000305175781</ele>
<time>2014-02-15T16:13:39Z</time>
</trkpt>
<trkpt lat="52.649009704589844" lon="13.005003929138184">
<ele>74.5</ele>
<time>2014-02-15T16:13:40Z</time>
</trkpt>
<trkpt lat="52.64896774291992" lon="13.004961967468262">
<ele>74.30000305175781</ele>
<time>2014-02-15T16:13:41Z</time>
</trkpt>
<trkpt lat="52.64889144897461" lon="13.004895210266113">
<ele>73.80000305175781</ele>
<time>2014-02-15T16:13:43Z</time>
</trkpt>
<trkpt lat="52.64882278442383" lon="13.004798889160156">
<ele>72.5999984741211</ele>
<time>2014-02-15T16:13:45Z</time>
</trkpt>
<trkpt lat="52.64878845214844" lon="13.004738807678223">
<ele>72.4000015258789</ele>
<time>2014-02-15T16:13:46Z</time>
</trkpt>
<trkpt lat="52.648719787597656" lon="13.00466537475586">
<ele>72.0999984741211</ele>
<time>2014-02-15T16:13:48Z</time>
</trkpt>
<trkpt lat="52.648643493652344" lon="13.004606246948242">
<ele>71.9000015258789</ele>
<time>2014-02-15T16:13:50Z</time>
</trkpt>
<trkpt lat="52.648597717285156" lon="13.004551887512207">
<ele>71.9000015258789</ele>
<time>2014-02-15T16:13:51Z</time>
</trkpt>
<trkpt lat="52.6485595703125" lon="13.004508972167969">
<ele>72.4000015258789</ele>
<time>2014-02-15T16:13:52Z</time>
</trkpt>
<trkpt lat="52.64851760864258" lon="13.004467964172363">
<ele>73.5</ele>
<time>2014-02-15T16:13:53Z</time>
</trkpt>
<trkpt lat="52.64847183227539" lon="13.00442886352539">
<ele>74.0999984741211</ele>
<time>2014-02-15T16:13:54Z</time>
</trkpt>
<trkpt lat="52.64841842651367" lon="13.00439739227295">
<ele>74.30000305175781</ele>
<time>2014-02-15T16:13:55Z</time>
</trkpt>
<trkpt lat="52.64833450317383" lon="13.004340171813965">
<ele>74.69999694824219</ele>
<time>2014-02-15T16:13:57Z</time>
</trkpt>
<trkpt lat="52.64829635620117" lon="13.00426197052002">
<ele>74.9000015258789</ele>
<time>2014-02-15T16:13:59Z</time>
</trkpt>
<trkpt lat="52.64826965332031" lon="13.004148483276367">
<ele>73.0999984741211</ele>
<time>2014-02-15T16:14:01Z</time>
</trkpt>
<trkpt lat="52.64826202392578" lon="13.0040283203125">
<ele>72.9000015258789</ele>
<time>2014-02-15T16:14:03Z</time>
</trkpt>
<trkpt lat="52.648250579833984" lon="13.003899574279785">
<ele>72.30000305175781</ele>
<time>2014-02-15T16:14:05Z</time>
</trkpt>
<trkpt lat="52.64823532104492" lon="13.003788948059082">
<ele>71.9000015258789</ele>
<time>2014-02-15T16:14:07Z</time>
</trkpt>
<trkpt lat="52.648231506347656" lon="13.003707885742188">
<ele>70.4000015258789</ele>
<time>2014-02-15T16:14:10Z</time>
</trkpt>
<trkpt lat="52.64824295043945" lon="13.003588676452637">
<ele>69.5999984741211</ele>
<time>2014-02-15T16:14:11Z</time>
</trkpt>
<trkpt lat="52.64828109741211" lon="13.0034761428833">
<ele>70.4000015258789</ele>
<time>2014-02-15T16:14:13Z</time>
</trkpt>
<trkpt lat="52.648311614990234" lon="13.003352165222168">
<ele>69.4000015258789</ele>
<time>2014-02-15T16:14:16Z</time>
</trkpt>
<trkpt lat="52.64835739135742" lon="13.003220558166504">
<ele>69.5999984741211</ele>
<time>2014-02-15T16:14:17Z</time>
</trkpt>
<trkpt lat="52.64839172363281" lon="13.003095626831055">
<ele>69.5999984741211</ele>
<time>2014-02-15T16:14:19Z</time>
</trkpt>
<trkpt lat="52.64841079711914" lon="13.00302791595459">
<ele>70.0</ele>
<time>2014-02-15T16:14:20Z</time>
</trkpt>
<trkpt lat="52.6484489440918" lon="13.00290298461914">
<ele>71.5</ele>
<time>2014-02-15T16:14:22Z</time>
</trkpt>
<trkpt lat="52.64848327636719" lon="13.002779960632324">
<ele>71.19999694824219</ele>
<time>2014-02-15T16:14:24Z</time>
</trkpt>
<trkpt lat="52.64849853515625" lon="13.002701759338379">
<ele>71.30000305175781</ele>
<time>2014-02-15T16:14:25Z</time>
</trkpt>
<trkpt lat="52.648529052734375" lon="13.002569198608398">
<ele>71.9000015258789</ele>
<time>2014-02-15T16:14:27Z</time>
</trkpt>
<trkpt lat="52.64855194091797" lon="13.002496719360352">
<ele>72.5999984741211</ele>
<time>2014-02-15T16:14:28Z</time>
</trkpt>
<trkpt lat="52.6485710144043" lon="13.002425193786621">
<ele>72.80000305175781</ele>
<time>2014-02-15T16:14:29Z</time>
</trkpt>
<trkpt lat="52.648590087890625" lon="13.002355575561523">
<ele>73.4000015258789</ele>
<time>2014-02-15T16:14:30Z</time>
</trkpt>
<trkpt lat="52.64860153198242" lon="13.002277374267578">
<ele>73.30000305175781</ele>
<time>2014-02-15T16:14:31Z</time>
</trkpt>
<trkpt lat="52.64863586425781" lon="13.002148628234863">
<ele>72.30000305175781</ele>
<time>2014-02-15T16:14:33Z</time>
</trkpt>
<trkpt lat="52.64865493774414" lon="13.0020751953125">
<ele>72.69999694824219</ele>
<time>2014-02-15T16:14:34Z</time>
</trkpt>
<trkpt lat="52.648681640625" lon="13.001941680908203">
<ele>72.30000305175781</ele>
<time>2014-02-15T16:14:36Z</time>
</trkpt>
<trkpt lat="52.648719787597656" lon="13.001808166503906">
<ele>72.69999694824219</ele>
<time>2014-02-15T16:14:38Z</time>
</trkpt>
<trkpt lat="52.64875411987305" lon="13.001678466796875">
<ele>73.19999694824219</ele>
<time>2014-02-15T16:14:40Z</time>
</trkpt>
<trkpt lat="52.648780822753906" lon="13.001571655273438">
<ele>73.0</ele>
<time>2014-02-15T16:14:42Z</time>
</trkpt>
<trkpt lat="52.6488037109375" lon="13.001458168029785">
<ele>73.19999694824219</ele>
<time>2014-02-15T16:14:44Z</time>
</trkpt>
<trkpt lat="52.64883041381836" lon="13.001347541809082">
<ele>74.19999694824219</ele>
<time>2014-02-15T16:14:46Z</time>
</trkpt>
<trkpt lat="52.64885330200195" lon="13.001242637634277">
<ele>74.30000305175781</ele>
<time>2014-02-15T16:14:48Z</time>
</trkpt>
<trkpt lat="52.64887619018555" lon="13.001144409179688">
<ele>74.9000015258789</ele>
<time>2014-02-15T16:14:50Z</time>
</trkpt>
<trkpt lat="52.648895263671875" lon="13.00106143951416">
<ele>74.80000305175781</ele>
<time>2014-02-15T16:14:52Z</time>
</trkpt>
<trkpt lat="52.64893341064453" lon="13.000929832458496">
<ele>73.4000015258789</ele>
<time>2014-02-15T16:14:55Z</time>
</trkpt>
<trkpt lat="52.64897155761719" lon="13.000754356384277">
<ele>75.5</ele>
<time>2014-02-15T16:14:59Z</time>
</trkpt>
<trkpt lat="52.648990631103516" lon="13.000661849975586">
<ele>76.9000015258789</ele>
<time>2014-02-15T16:15:01Z</time>
</trkpt>
<trkpt lat="52.64902114868164" lon="13.000516891479492">
<ele>78.5</ele>
<time>2014-02-15T16:15:04Z</time>
</trkpt>
<trkpt lat="52.6490478515625" lon="13.000414848327637">
<ele>78.80000305175781</ele>
<time>2014-02-15T16:15:06Z</time>
</trkpt>
<trkpt lat="52.64907455444336" lon="13.000319480895996">
<ele>80.0</ele>
<time>2014-02-15T16:15:08Z</time>
</trkpt>
<trkpt lat="52.64910888671875" lon="13.00017261505127">
<ele>81.30000305175781</ele>
<time>2014-02-15T16:15:11Z</time>
</trkpt>
<trkpt lat="52.64913558959961" lon="13.000075340270996">
<ele>81.5999984741211</ele>
<time>2014-02-15T16:15:13Z</time>
</trkpt>
<trkpt lat="52.64916229248047" lon="12.999969482421875">
<ele>81.69999694824219</ele>
<time>2014-02-15T16:15:15Z</time>
</trkpt>
<trkpt lat="52.649192810058594" lon="12.999865531921387">
<ele>81.9000015258789</ele>
<time>2014-02-15T16:15:17Z</time>
</trkpt>
<trkpt lat="52.64921569824219" lon="12.99975299835205">
<ele>81.80000305175781</ele>
<time>2014-02-15T16:15:19Z</time>
</trkpt>
<trkpt lat="52.64924240112305" lon="12.999649047851562">
<ele>82.19999694824219</ele>
<time>2014-02-15T16:15:21Z</time>
</trkpt>
<trkpt lat="52.649269104003906" lon="12.999547004699707">
<ele>82.19999694824219</ele>
<time>2014-02-15T16:15:23Z</time>
</trkpt>
<trkpt lat="52.649295806884766" lon="12.999444961547852">
<ele>82.4000015258789</ele>
<time>2014-02-15T16:15:25Z</time>
</trkpt>
<trkpt lat="52.64932632446289" lon="12.999338150024414">
<ele>82.5</ele>
<time>2014-02-15T16:15:27Z</time>
</trkpt>
<trkpt lat="52.64935302734375" lon="12.999227523803711">
<ele>82.9000015258789</ele>
<time>2014-02-15T16:15:29Z</time>
</trkpt>
<trkpt lat="52.64937973022461" lon="12.999106407165527">
<ele>82.5</ele>
<time>2014-02-15T16:15:31Z</time>
</trkpt>
<trkpt lat="52.64940643310547" lon="12.998981475830078">
<ele>82.5</ele>
<time>2014-02-15T16:15:33Z</time>
</trkpt>
<trkpt lat="52.649436950683594" lon="12.99885082244873">
<ele>81.69999694824219</ele>
<time>2014-02-15T16:15:35Z</time>
</trkpt>
<trkpt lat="52.64946746826172" lon="12.998716354370117">
<ele>81.5</ele>
<time>2014-02-15T16:15:37Z</time>
</trkpt>
<trkpt lat="52.64948272705078" lon="12.99864387512207">
<ele>81.4000015258789</ele>
<time>2014-02-15T16:15:38Z</time>
</trkpt>
<trkpt lat="52.64950180053711" lon="12.99856948852539">
<ele>81.19999694824219</ele>
<time>2014-02-15T16:15:39Z</time>
</trkpt>
<trkpt lat="52.64951705932617" lon="12.998491287231445">
<ele>80.9000015258789</ele>
<time>2014-02-15T16:15:40Z</time>
</trkpt>
<trkpt lat="52.6495361328125" lon="12.998408317565918">
<ele>80.80000305175781</ele>
<time>2014-02-15T16:15:41Z</time>
</trkpt>
<trkpt lat="52.64955520629883" lon="12.998321533203125">
<ele>80.69999694824219</ele>
<time>2014-02-15T16:15:42Z</time>
</trkpt>
<trkpt lat="52.649574279785156" lon="12.99824047088623">
<ele>80.4000015258789</ele>
<time>2014-02-15T16:15:43Z</time>
</trkpt>
<trkpt lat="52.64959716796875" lon="12.998153686523438">
<ele>79.9000015258789</ele>
<time>2014-02-15T16:15:44Z</time>
</trkpt>
<trkpt lat="52.64962387084961" lon="12.998066902160645">
<ele>79.5999984741211</ele>
<time>2014-02-15T16:15:45Z</time>
</trkpt>
<trkpt lat="52.6496467590332" lon="12.997971534729004">
<ele>79.0999984741211</ele>
<time>2014-02-15T16:15:46Z</time>
</trkpt>
<trkpt lat="52.64967346191406" lon="12.99787712097168">
<ele>78.69999694824219</ele>
<time>2014-02-15T16:15:47Z</time>
</trkpt>
<trkpt lat="52.64970397949219" lon="12.997782707214355">
<ele>78.69999694824219</ele>
<time>2014-02-15T16:15:48Z</time>
</trkpt>
<trkpt lat="52.64973831176758" lon="12.997685432434082">
<ele>78.4000015258789</ele>
<time>2014-02-15T16:15:49Z</time>
</trkpt>
<trkpt lat="52.6497688293457" lon="12.997586250305176">
<ele>78.0999984741211</ele>
<time>2014-02-15T16:15:50Z</time>
</trkpt>
<trkpt lat="52.64980697631836" lon="12.997482299804688">
<ele>77.80000305175781</ele>
<time>2014-02-15T16:15:51Z</time>
</trkpt>
<trkpt lat="52.64984130859375" lon="12.997376441955566">
<ele>77.5999984741211</ele>
<time>2014-02-15T16:15:52Z</time>
</trkpt>
<trkpt lat="52.649879455566406" lon="12.997271537780762">
<ele>77.5</ele>
<time>2014-02-15T16:15:53Z</time>
</trkpt>
<trkpt lat="52.649925231933594" lon="12.997164726257324">
<ele>77.0</ele>
<time>2014-02-15T16:15:54Z</time>
</trkpt>
<trkpt lat="52.64998245239258" lon="12.997035026550293">
<ele>78.30000305175781</ele>
<time>2014-02-15T16:15:55Z</time>
</trkpt>
<trkpt lat="52.650028228759766" lon="12.996906280517578">
<ele>79.5999984741211</ele>
<time>2014-02-15T16:15:56Z</time>
</trkpt>
<trkpt lat="52.65007400512695" lon="12.99682331085205">
<ele>78.69999694824219</ele>
<time>2014-02-15T16:15:57Z</time>
</trkpt>
<trkpt lat="52.65012741088867" lon="12.996719360351562">
<ele>78.69999694824219</ele>
<time>2014-02-15T16:15:58Z</time>
</trkpt>
<trkpt lat="52.65018081665039" lon="12.996615409851074">
<ele>78.5</ele>
<time>2014-02-15T16:15:59Z</time>
</trkpt>
<trkpt lat="52.650230407714844" lon="12.996515274047852">
<ele>77.9000015258789</ele>
<time>2014-02-15T16:16:00Z</time>
</trkpt>
<trkpt lat="52.65027618408203" lon="12.99641227722168">
<ele>77.80000305175781</ele>
<time>2014-02-15T16:16:01Z</time>
</trkpt>
<trkpt lat="52.65032958984375" lon="12.996304512023926">
<ele>77.4000015258789</ele>
<time>2014-02-15T16:16:02Z</time>
</trkpt>
<trkpt lat="52.65037536621094" lon="12.99620532989502">
<ele>77.19999694824219</ele>
<time>2014-02-15T16:16:03Z</time>
</trkpt>
<trkpt lat="52.65042495727539" lon="12.99610710144043">
<ele>76.4000015258789</ele>
<time>2014-02-15T16:16:04Z</time>
</trkpt>
<trkpt lat="52.650474548339844" lon="12.996016502380371">
<ele>76.0</ele>
<time>2014-02-15T16:16:05Z</time>
</trkpt>
<trkpt lat="52.65052032470703" lon="12.995920181274414">
<ele>75.9000015258789</ele>
<time>2014-02-15T16:16:06Z</time>
</trkpt>
<trkpt lat="52.65056228637695" lon="12.995821952819824">
<ele>75.5999984741211</ele>
<time>2014-02-15T16:16:07Z</time>
</trkpt>
<trkpt lat="52.65060806274414" lon="12.995721817016602">
<ele>75.19999694824219</ele>
<time>2014-02-15T16:16:08Z</time>
</trkpt>
<trkpt lat="52.65065002441406" lon="12.995626449584961">
<ele>75.0999984741211</ele>
<time>2014-02-15T16:16:09Z</time>
</trkpt>
<trkpt lat="52.650691986083984" lon="12.995530128479004">
<ele>75.0999984741211</ele>
<time>2014-02-15T16:16:10Z</time>
</trkpt>
<trkpt lat="52.650733947753906" lon="12.995437622070312">
<ele>74.80000305175781</ele>
<time>2014-02-15T16:16:11Z</time>
</trkpt>
<trkpt lat="52.65077590942383" lon="12.995342254638672">
<ele>74.5</ele>
<time>2014-02-15T16:16:12Z</time>
</trkpt>
<trkpt lat="52.65081787109375" lon="12.995245933532715">
<ele>74.4000015258789</ele>
<time>2014-02-15T16:16:13Z</time>
</trkpt>
<trkpt lat="52.650856018066406" lon="12.995150566101074">
<ele>74.0999984741211</ele>
<time>2014-02-15T16:16:14Z</time>
</trkpt>
<trkpt lat="52.65089416503906" lon="12.9950532913208">
<ele>73.9000015258789</ele>
<time>2014-02-15T16:16:15Z</time>
</trkpt>
<trkpt lat="52.650936126708984" lon="12.994959831237793">
<ele>73.80000305175781</ele>
<time>2014-02-15T16:16:16Z</time>
</trkpt>
<trkpt lat="52.65097427368164" lon="12.994871139526367">
<ele>73.69999694824219</ele>
<time>2014-02-15T16:16:17Z</time>
</trkpt>
<trkpt lat="52.6510124206543" lon="12.994780540466309">
<ele>73.5</ele>
<time>2014-02-15T16:16:18Z</time>
</trkpt>
<trkpt lat="52.65104675292969" lon="12.994688987731934">
<ele>73.4000015258789</ele>
<time>2014-02-15T16:16:19Z</time>
</trkpt>
<trkpt lat="52.65108108520508" lon="12.994596481323242">
<ele>73.4000015258789</ele>
<time>2014-02-15T16:16:20Z</time>
</trkpt>
<trkpt lat="52.65111541748047" lon="12.994504928588867">
<ele>73.30000305175781</ele>
<time>2014-02-15T16:16:21Z</time>
</trkpt>
<trkpt lat="52.651145935058594" lon="12.994410514831543">
<ele>73.0999984741211</ele>
<time>2014-02-15T16:16:22Z</time>
</trkpt>
<trkpt lat="52.651180267333984" lon="12.994321823120117">
<ele>73.19999694824219</ele>
<time>2014-02-15T16:16:23Z</time>
</trkpt>
<trkpt lat="52.65121078491211" lon="12.994231224060059">
<ele>73.0999984741211</ele>
<time>2014-02-15T16:16:24Z</time>
</trkpt>
<trkpt lat="52.651248931884766" lon="12.994139671325684">
<ele>73.0999984741211</ele>
<time>2014-02-15T16:16:25Z</time>
</trkpt>
<trkpt lat="52.651275634765625" lon="12.994047164916992">
<ele>73.0</ele>
<time>2014-02-15T16:16:26Z</time>
</trkpt>
<trkpt lat="52.65130615234375" lon="12.993958473205566">
<ele>73.0</ele>
<time>2014-02-15T16:16:27Z</time>
</trkpt>
<trkpt lat="52.65133285522461" lon="12.993870735168457">
<ele>72.9000015258789</ele>
<time>2014-02-15T16:16:28Z</time>
</trkpt>
<trkpt lat="52.651363372802734" lon="12.993780136108398">
<ele>72.80000305175781</ele>
<time>2014-02-15T16:16:29Z</time>
</trkpt>
<trkpt lat="52.65139389038086" lon="12.993693351745605">
<ele>72.69999694824219</ele>
<time>2014-02-15T16:16:30Z</time>
</trkpt>
<trkpt lat="52.651424407958984" lon="12.993599891662598">
<ele>72.9000015258789</ele>
<time>2014-02-15T16:16:31Z</time>
</trkpt>
<trkpt lat="52.65145492553711" lon="12.993509292602539">
<ele>72.5999984741211</ele>
<time>2014-02-15T16:16:32Z</time>
</trkpt>
<trkpt lat="52.651485443115234" lon="12.993419647216797">
<ele>72.30000305175781</ele>
<time>2014-02-15T16:16:33Z</time>
</trkpt>
<trkpt lat="52.651512145996094" lon="12.993330955505371">
<ele>72.30000305175781</ele>
<time>2014-02-15T16:16:34Z</time>
</trkpt>
<trkpt lat="52.65154266357422" lon="12.993243217468262">
<ele>72.0999984741211</ele>
<time>2014-02-15T16:16:35Z</time>
</trkpt>
<trkpt lat="52.65156936645508" lon="12.993157386779785">
<ele>72.0999984741211</ele>
<time>2014-02-15T16:16:36Z</time>
</trkpt>
<trkpt lat="52.65159606933594" lon="12.993071556091309">
<ele>72.0</ele>
<time>2014-02-15T16:16:37Z</time>
</trkpt>
<trkpt lat="52.65162658691406" lon="12.992990493774414">
<ele>72.0999984741211</ele>
<time>2014-02-15T16:16:38Z</time>
</trkpt>
<trkpt lat="52.65165328979492" lon="12.99290943145752">
<ele>72.30000305175781</ele>
<time>2014-02-15T16:16:39Z</time>
</trkpt>
<trkpt lat="52.65168380737305" lon="12.992826461791992">
<ele>72.30000305175781</ele>
<time>2014-02-15T16:16:40Z</time>
</trkpt>
<trkpt lat="52.651710510253906" lon="12.992744445800781">
<ele>72.19999694824219</ele>
<time>2014-02-15T16:16:41Z</time>
</trkpt>
<trkpt lat="52.65174102783203" lon="12.99266242980957">
<ele>72.19999694824219</ele>
<time>2014-02-15T16:16:42Z</time>
</trkpt>
<trkpt lat="52.651771545410156" lon="12.99257755279541">
<ele>72.5</ele>
<time>2014-02-15T16:16:43Z</time>
</trkpt>
<trkpt lat="52.65179443359375" lon="12.992490768432617">
<ele>72.69999694824219</ele>
<time>2014-02-15T16:16:44Z</time>
</trkpt>
<trkpt lat="52.651817321777344" lon="12.992402076721191">
<ele>72.5999984741211</ele>
<time>2014-02-15T16:16:45Z</time>
</trkpt>
<trkpt lat="52.65184783935547" lon="12.992316246032715">
<ele>72.5</ele>
<time>2014-02-15T16:16:46Z</time>
</trkpt>
<trkpt lat="52.65187072753906" lon="12.992236137390137">
<ele>72.0999984741211</ele>
<time>2014-02-15T16:16:47Z</time>
</trkpt>
<trkpt lat="52.65189743041992" lon="12.992155075073242">
<ele>71.9000015258789</ele>
<time>2014-02-15T16:16:48Z</time>
</trkpt>
<trkpt lat="52.65192413330078" lon="12.992070198059082">
<ele>72.0</ele>
<time>2014-02-15T16:16:49Z</time>
</trkpt>
<trkpt lat="52.651947021484375" lon="12.991987228393555">
<ele>72.0</ele>
<time>2014-02-15T16:16:50Z</time>
</trkpt>
<trkpt lat="52.651973724365234" lon="12.991900444030762">
<ele>71.9000015258789</ele>
<time>2014-02-15T16:16:51Z</time>
</trkpt>
<trkpt lat="52.65199661254883" lon="12.991819381713867">
<ele>71.80000305175781</ele>
<time>2014-02-15T16:16:52Z</time>
</trkpt>
<trkpt lat="52.65202331542969" lon="12.991744041442871">
<ele>72.0999984741211</ele>
<time>2014-02-15T16:16:53Z</time>
</trkpt>
<trkpt lat="52.65205383300781" lon="12.99166488647461">
<ele>71.5999984741211</ele>
<time>2014-02-15T16:16:54Z</time>
</trkpt>
<trkpt lat="52.652076721191406" lon="12.991584777832031">
<ele>71.5</ele>
<time>2014-02-15T16:16:55Z</time>
</trkpt>
<trkpt lat="52.652103424072266" lon="12.991507530212402">
<ele>71.5999984741211</ele>
<time>2014-02-15T16:16:56Z</time>
</trkpt>
<trkpt lat="52.652130126953125" lon="12.99142837524414">
<ele>71.5999984741211</ele>
<time>2014-02-15T16:16:57Z</time>
</trkpt>
<trkpt lat="52.652156829833984" lon="12.991355895996094">
<ele>71.69999694824219</ele>
<time>2014-02-15T16:16:58Z</time>
</trkpt>
<trkpt lat="52.65218734741211" lon="12.991284370422363">
<ele>72.0</ele>
<time>2014-02-15T16:16:59Z</time>
</trkpt>
<trkpt lat="52.6522102355957" lon="12.991212844848633">
<ele>72.4000015258789</ele>
<time>2014-02-15T16:17:00Z</time>
</trkpt>
<trkpt lat="52.65223693847656" lon="12.991144180297852">
<ele>72.0</ele>
<time>2014-02-15T16:17:01Z</time>
</trkpt>
<trkpt lat="52.65226745605469" lon="12.991067886352539">
<ele>72.0999984741211</ele>
<time>2014-02-15T16:17:02Z</time>
</trkpt>
<trkpt lat="52.65229034423828" lon="12.990995407104492">
<ele>72.30000305175781</ele>
<time>2014-02-15T16:17:03Z</time>
</trkpt>
<trkpt lat="52.652313232421875" lon="12.990921020507812">
<ele>72.30000305175781</ele>
<time>2014-02-15T16:17:04Z</time>
</trkpt>
<trkpt lat="52.65234375" lon="12.990856170654297">
<ele>72.5</ele>
<time>2014-02-15T16:17:05Z</time>
</trkpt>
<trkpt lat="52.652381896972656" lon="12.990801811218262">
<ele>72.69999694824219</ele>
<time>2014-02-15T16:17:06Z</time>
</trkpt>
<trkpt lat="52.65241622924805" lon="12.990741729736328">
<ele>73.0</ele>
<time>2014-02-15T16:17:07Z</time>
</trkpt>
<trkpt lat="52.65243148803711" lon="12.990660667419434">
<ele>72.9000015258789</ele>
<time>2014-02-15T16:17:08Z</time>
</trkpt>
<trkpt lat="52.65243148803711" lon="12.99057388305664">
<ele>72.9000015258789</ele>
<time>2014-02-15T16:17:09Z</time>
</trkpt>
<trkpt lat="52.65241622924805" lon="12.990490913391113">
<ele>72.30000305175781</ele>
<time>2014-02-15T16:17:10Z</time>
</trkpt>
<trkpt lat="52.65239715576172" lon="12.990410804748535">
<ele>72.0999984741211</ele>
<time>2014-02-15T16:17:11Z</time>
</trkpt>
<trkpt lat="52.652381896972656" lon="12.990324974060059">
<ele>71.5999984741211</ele>
<time>2014-02-15T16:17:12Z</time>
</trkpt>
<trkpt lat="52.65237045288086" lon="12.990238189697266">
<ele>71.5999984741211</ele>
<time>2014-02-15T16:17:13Z</time>
</trkpt>
<trkpt lat="52.65235900878906" lon="12.990156173706055">
<ele>71.5</ele>
<time>2014-02-15T16:17:14Z</time>
</trkpt>
<trkpt lat="52.65234375" lon="12.99007511138916">
<ele>71.9000015258789</ele>
<time>2014-02-15T16:17:15Z</time>
</trkpt>
<trkpt lat="52.65231704711914" lon="12.990004539489746">
<ele>72.0999984741211</ele>
<time>2014-02-15T16:17:16Z</time>
</trkpt>
<trkpt lat="52.65229797363281" lon="12.98992919921875">
<ele>72.0</ele>
<time>2014-02-15T16:17:17Z</time>
</trkpt>
<trkpt lat="52.652278900146484" lon="12.989853858947754">
<ele>71.5999984741211</ele>
<time>2014-02-15T16:17:18Z</time>
</trkpt>
<trkpt lat="52.652252197265625" lon="12.989770889282227">
<ele>70.9000015258789</ele>
<time>2014-02-15T16:17:19Z</time>
</trkpt>
<trkpt lat="52.6522331237793" lon="12.989697456359863">
<ele>70.5999984741211</ele>
<time>2014-02-15T16:17:20Z</time>
</trkpt>
<trkpt lat="52.6522102355957" lon="12.9896240234375">
<ele>70.5999984741211</ele>
<time>2014-02-15T16:17:21Z</time>
</trkpt>
<trkpt lat="52.65217590332031" lon="12.989482879638672">
<ele>70.30000305175781</ele>
<time>2014-02-15T16:17:23Z</time>
</trkpt>
<trkpt lat="52.652156829833984" lon="12.989397048950195">
<ele>70.80000305175781</ele>
<time>2014-02-15T16:17:24Z</time>
</trkpt>
<trkpt lat="52.65214157104492" lon="12.989314079284668">
<ele>71.19999694824219</ele>
<time>2014-02-15T16:17:25Z</time>
</trkpt>
<trkpt lat="52.65211868286133" lon="12.989235877990723">
<ele>71.69999694824219</ele>
<time>2014-02-15T16:17:26Z</time>
</trkpt>
<trkpt lat="52.65210723876953" lon="12.989165306091309">
<ele>71.9000015258789</ele>
<time>2014-02-15T16:17:27Z</time>
</trkpt>
<trkpt lat="52.65209197998047" lon="12.989094734191895">
<ele>71.69999694824219</ele>
<time>2014-02-15T16:17:28Z</time>
</trkpt>
<trkpt lat="52.652069091796875" lon="12.989026069641113">
<ele>72.19999694824219</ele>
<time>2014-02-15T16:17:29Z</time>
</trkpt>
<trkpt lat="52.65205764770508" lon="12.988945960998535">
<ele>72.4000015258789</ele>
<time>2014-02-15T16:17:30Z</time>
</trkpt>
<trkpt lat="52.652015686035156" lon="12.988801002502441">
<ele>72.5999984741211</ele>
<time>2014-02-15T16:17:32Z</time>
</trkpt>
<trkpt lat="52.65199661254883" lon="12.988734245300293">
<ele>72.5999984741211</ele>
<time>2014-02-15T16:17:33Z</time>
</trkpt>
<trkpt lat="52.65196990966797" lon="12.988669395446777">
<ele>72.9000015258789</ele>
<time>2014-02-15T16:17:34Z</time>
</trkpt>
<trkpt lat="52.651939392089844" lon="12.988533973693848">
<ele>72.9000015258789</ele>
<time>2014-02-15T16:17:36Z</time>
</trkpt>
<trkpt lat="52.651912689208984" lon="12.988445281982422">
<ele>72.9000015258789</ele>
<time>2014-02-15T16:17:37Z</time>
</trkpt>
<trkpt lat="52.65188980102539" lon="12.988375663757324">
<ele>72.69999694824219</ele>
<time>2014-02-15T16:17:38Z</time>
</trkpt>
<trkpt lat="52.65187454223633" lon="12.988296508789062">
<ele>72.5999984741211</ele>
<time>2014-02-15T16:17:39Z</time>
</trkpt>
<trkpt lat="52.651851654052734" lon="12.988213539123535">
<ele>72.80000305175781</ele>
<time>2014-02-15T16:17:40Z</time>
</trkpt>
<trkpt lat="52.65180969238281" lon="12.988090515136719">
<ele>72.19999694824219</ele>
<time>2014-02-15T16:17:42Z</time>
</trkpt>
<trkpt lat="52.65176010131836" lon="12.987968444824219">
<ele>71.9000015258789</ele>
<time>2014-02-15T16:17:44Z</time>
</trkpt>
<trkpt lat="52.6517333984375" lon="12.987896919250488">
<ele>71.80000305175781</ele>
<time>2014-02-15T16:17:45Z</time>
</trkpt>
<trkpt lat="52.651702880859375" lon="12.987826347351074">
<ele>72.0</ele>
<time>2014-02-15T16:17:46Z</time>
</trkpt>
<trkpt lat="52.65167999267578" lon="12.987763404846191">
<ele>72.0999984741211</ele>
<time>2014-02-15T16:17:47Z</time>
</trkpt>
<trkpt lat="52.65165328979492" lon="12.987701416015625">
<ele>72.0999984741211</ele>
<time>2014-02-15T16:17:48Z</time>
</trkpt>
<trkpt lat="52.651615142822266" lon="12.987640380859375">
<ele>72.19999694824219</ele>
<time>2014-02-15T16:17:49Z</time>
</trkpt>
<trkpt lat="52.65158462524414" lon="12.987581253051758">
<ele>72.19999694824219</ele>
<time>2014-02-15T16:17:50Z</time>
</trkpt>
<trkpt lat="52.65155029296875" lon="12.987524032592773">
<ele>72.19999694824219</ele>
<time>2014-02-15T16:17:51Z</time>
</trkpt>
<trkpt lat="52.65152359008789" lon="12.987459182739258">
<ele>72.0999984741211</ele>
<time>2014-02-15T16:17:52Z</time>
</trkpt>
<trkpt lat="52.651493072509766" lon="12.98738956451416">
<ele>72.0</ele>
<time>2014-02-15T16:17:53Z</time>
</trkpt>
<trkpt lat="52.65146255493164" lon="12.987319946289062">
<ele>72.0</ele>
<time>2014-02-15T16:17:54Z</time>
</trkpt>
<trkpt lat="52.65143585205078" lon="12.987248420715332">
<ele>71.69999694824219</ele>
<time>2014-02-15T16:17:55Z</time>
</trkpt>
<trkpt lat="52.65140914916992" lon="12.987174987792969">
<ele>71.30000305175781</ele>
<time>2014-02-15T16:17:56Z</time>
</trkpt>
<trkpt lat="52.651390075683594" lon="12.987088203430176">
<ele>71.0999984741211</ele>
<time>2014-02-15T16:17:57Z</time>
</trkpt>
<trkpt lat="52.6513786315918" lon="12.98701000213623">
<ele>70.80000305175781</ele>
<time>2014-02-15T16:17:58Z</time>
</trkpt>
<trkpt lat="52.6513671875" lon="12.986921310424805">
<ele>70.80000305175781</ele>
<time>2014-02-15T16:17:59Z</time>
</trkpt>
<trkpt lat="52.651363372802734" lon="12.986831665039062">
<ele>70.4000015258789</ele>
<time>2014-02-15T16:18:00Z</time>
</trkpt>
<trkpt lat="52.651363372802734" lon="12.98674201965332">
<ele>70.0999984741211</ele>
<time>2014-02-15T16:18:01Z</time>
</trkpt>
<trkpt lat="52.6513671875" lon="12.986652374267578">
<ele>69.9000015258789</ele>
<time>2014-02-15T16:18:02Z</time>
</trkpt>
<trkpt lat="52.65137481689453" lon="12.98656177520752">
<ele>70.30000305175781</ele>
<time>2014-02-15T16:18:03Z</time>
</trkpt>
<trkpt lat="52.65138244628906" lon="12.986473083496094">
<ele>70.5</ele>
<time>2014-02-15T16:18:04Z</time>
</trkpt>
<trkpt lat="52.65139389038086" lon="12.986382484436035">
<ele>70.5</ele>
<time>2014-02-15T16:18:05Z</time>
</trkpt>
<trkpt lat="52.65140151977539" lon="12.98629379272461">
<ele>70.5</ele>
<time>2014-02-15T16:18:06Z</time>
</trkpt>
<trkpt lat="52.65141296386719" lon="12.9862060546875">
<ele>70.30000305175781</ele>
<time>2014-02-15T16:18:07Z</time>
</trkpt>
<trkpt lat="52.651424407958984" lon="12.98612117767334">
<ele>70.19999694824219</ele>
<time>2014-02-15T16:18:08Z</time>
</trkpt>
<trkpt lat="52.65142822265625" lon="12.986035346984863">
<ele>70.30000305175781</ele>
<time>2014-02-15T16:18:09Z</time>
</trkpt>
<trkpt lat="52.65144348144531" lon="12.985945701599121">
<ele>70.0</ele>
<time>2014-02-15T16:18:10Z</time>
</trkpt>
<trkpt lat="52.65145492553711" lon="12.985857009887695">
<ele>70.30000305175781</ele>
<time>2014-02-15T16:18:11Z</time>
</trkpt>
<trkpt lat="52.651466369628906" lon="12.985769271850586">
<ele>70.30000305175781</ele>
<time>2014-02-15T16:18:12Z</time>
</trkpt>
<trkpt lat="52.65147399902344" lon="12.98568058013916">
<ele>69.80000305175781</ele>
<time>2014-02-15T16:18:13Z</time>
</trkpt>
<trkpt lat="52.65148162841797" lon="12.985594749450684">
<ele>69.9000015258789</ele>
<time>2014-02-15T16:18:14Z</time>
</trkpt>
<trkpt lat="52.6514892578125" lon="12.985509872436523">
<ele>69.80000305175781</ele>
<time>2014-02-15T16:18:15Z</time>
</trkpt>
<trkpt lat="52.6515007019043" lon="12.985424041748047">
<ele>70.0999984741211</ele>
<time>2014-02-15T16:18:16Z</time>
</trkpt>
<trkpt lat="52.65150833129883" lon="12.985337257385254">
<ele>69.69999694824219</ele>
<time>2014-02-15T16:18:17Z</time>
</trkpt>
<trkpt lat="52.65151596069336" lon="12.985258102416992">
<ele>69.5</ele>
<time>2014-02-15T16:18:18Z</time>
</trkpt>
<trkpt lat="52.65152359008789" lon="12.985173225402832">
<ele>69.4000015258789</ele>
<time>2014-02-15T16:18:19Z</time>
</trkpt>
<trkpt lat="52.65153503417969" lon="12.985086441040039">
<ele>69.69999694824219</ele>
<time>2014-02-15T16:18:20Z</time>
</trkpt>
<trkpt lat="52.65154266357422" lon="12.985002517700195">
<ele>69.5999984741211</ele>
<time>2014-02-15T16:18:21Z</time>
</trkpt>
<trkpt lat="52.651554107666016" lon="12.984914779663086">
<ele>69.69999694824219</ele>
<time>2014-02-15T16:18:22Z</time>
</trkpt>
<trkpt lat="52.65156936645508" lon="12.984822273254395">
<ele>69.69999694824219</ele>
<time>2014-02-15T16:18:23Z</time>
</trkpt>
<trkpt lat="52.651580810546875" lon="12.984734535217285">
<ele>69.5999984741211</ele>
<time>2014-02-15T16:18:24Z</time>
</trkpt>
<trkpt lat="52.65159225463867" lon="12.984643936157227">
<ele>69.69999694824219</ele>
<time>2014-02-15T16:18:25Z</time>
</trkpt>
<trkpt lat="52.65160369873047" lon="12.98455810546875">
<ele>69.80000305175781</ele>
<time>2014-02-15T16:18:26Z</time>
</trkpt>
<trkpt lat="52.651611328125" lon="12.98447322845459">
<ele>69.80000305175781</ele>
<time>2014-02-15T16:18:27Z</time>
</trkpt>
<trkpt lat="52.65161895751953" lon="12.984387397766113">
<ele>70.0</ele>
<time>2014-02-15T16:18:28Z</time>
</trkpt>
<trkpt lat="52.65162658691406" lon="12.984299659729004">
<ele>70.0999984741211</ele>
<time>2014-02-15T16:18:29Z</time>
</trkpt>
<trkpt lat="52.651641845703125" lon="12.984211921691895">
<ele>70.0</ele>
<time>2014-02-15T16:18:30Z</time>
</trkpt>
<trkpt lat="52.651649475097656" lon="12.984130859375">
<ele>70.0</ele>
<time>2014-02-15T16:18:31Z</time>
</trkpt>
<trkpt lat="52.65166091918945" lon="12.984046936035156">
<ele>70.0</ele>
<time>2014-02-15T16:18:32Z</time>
</trkpt>
<trkpt lat="52.651668548583984" lon="12.983960151672363">
<ele>70.0999984741211</ele>
<time>2014-02-15T16:18:33Z</time>
</trkpt>
<trkpt lat="52.651676177978516" lon="12.983874320983887">
<ele>70.0</ele>
<time>2014-02-15T16:18:34Z</time>
</trkpt>
<trkpt lat="52.65168762207031" lon="12.983790397644043">
<ele>70.0999984741211</ele>
<time>2014-02-15T16:18:35Z</time>
</trkpt>
<trkpt lat="52.651695251464844" lon="12.983704566955566">
<ele>70.30000305175781</ele>
<time>2014-02-15T16:18:36Z</time>
</trkpt>
<trkpt lat="52.65170669555664" lon="12.98361873626709">
<ele>70.19999694824219</ele>
<time>2014-02-15T16:18:37Z</time>
</trkpt>
<trkpt lat="52.65171432495117" lon="12.983532905578613">
<ele>69.9000015258789</ele>
<time>2014-02-15T16:18:38Z</time>
</trkpt>
<trkpt lat="52.6517219543457" lon="12.98344898223877">
<ele>70.0</ele>
<time>2014-02-15T16:18:39Z</time>
</trkpt>
<trkpt lat="52.65172576904297" lon="12.983369827270508">
<ele>70.0</ele>
<time>2014-02-15T16:18:40Z</time>
</trkpt>
<trkpt lat="52.651737213134766" lon="12.983283996582031">
<ele>69.69999694824219</ele>
<time>2014-02-15T16:18:41Z</time>
</trkpt>
<trkpt lat="52.6517448425293" lon="12.983201026916504">
<ele>69.69999694824219</ele>
<time>2014-02-15T16:18:42Z</time>
</trkpt>
<trkpt lat="52.65175247192383" lon="12.983118057250977">
<ele>69.9000015258789</ele>
<time>2014-02-15T16:18:43Z</time>
</trkpt>
<trkpt lat="52.65176010131836" lon="12.983033180236816">
<ele>69.80000305175781</ele>
<time>2014-02-15T16:18:44Z</time>
</trkpt>
<trkpt lat="52.65176773071289" lon="12.982949256896973">
<ele>70.0</ele>
<time>2014-02-15T16:18:45Z</time>
</trkpt>
<trkpt lat="52.65177536010742" lon="12.982864379882812">
<ele>70.0</ele>
<time>2014-02-15T16:18:46Z</time>
</trkpt>
<trkpt lat="52.65178298950195" lon="12.98278522491455">
<ele>70.0999984741211</ele>
<time>2014-02-15T16:18:47Z</time>
</trkpt>
<trkpt lat="52.651790618896484" lon="12.982699394226074">
<ele>70.0999984741211</ele>
<time>2014-02-15T16:18:48Z</time>
</trkpt>
<trkpt lat="52.65180206298828" lon="12.98261833190918">
<ele>70.19999694824219</ele>
<time>2014-02-15T16:18:49Z</time>
</trkpt>
<trkpt lat="52.65180969238281" lon="12.982534408569336">
<ele>70.0999984741211</ele>
<time>2014-02-15T16:18:50Z</time>
</trkpt>
<trkpt lat="52.651817321777344" lon="12.982450485229492">
<ele>70.0</ele>
<time>2014-02-15T16:18:51Z</time>
</trkpt>
<trkpt lat="52.65182113647461" lon="12.9823637008667">
<ele>70.0</ele>
<time>2014-02-15T16:18:52Z</time>
</trkpt>
<trkpt lat="52.65182876586914" lon="12.982276916503906">
<ele>69.9000015258789</ele>
<time>2014-02-15T16:18:53Z</time>
</trkpt>
<trkpt lat="52.65183639526367" lon="12.982186317443848">
<ele>69.9000015258789</ele>
<time>2014-02-15T16:18:54Z</time>
</trkpt>
<trkpt lat="52.65184783935547" lon="12.982107162475586">
<ele>70.0</ele>
<time>2014-02-15T16:18:55Z</time>
</trkpt>
<trkpt lat="52.65185546875" lon="12.98202896118164">
<ele>70.0999984741211</ele>
<time>2014-02-15T16:18:56Z</time>
</trkpt>
<trkpt lat="52.6518669128418" lon="12.98194408416748">
<ele>70.0</ele>
<time>2014-02-15T16:18:57Z</time>
</trkpt>
<trkpt lat="52.65187454223633" lon="12.98185920715332">
<ele>70.0999984741211</ele>
<time>2014-02-15T16:18:58Z</time>
</trkpt>
<trkpt lat="52.65188217163086" lon="12.981778144836426">
<ele>70.5</ele>
<time>2014-02-15T16:18:59Z</time>
</trkpt>
<trkpt lat="52.65188980102539" lon="12.981698989868164">
<ele>70.30000305175781</ele>
<time>2014-02-15T16:19:00Z</time>
</trkpt>
<trkpt lat="52.65189743041992" lon="12.981618881225586">
<ele>70.5999984741211</ele>
<time>2014-02-15T16:19:01Z</time>
</trkpt>
<trkpt lat="52.65190505981445" lon="12.981536865234375">
<ele>70.4000015258789</ele>
<time>2014-02-15T16:19:02Z</time>
</trkpt>
<trkpt lat="52.651912689208984" lon="12.98145866394043">
<ele>70.4000015258789</ele>
<time>2014-02-15T16:19:03Z</time>
</trkpt>
<trkpt lat="52.651920318603516" lon="12.981372833251953">
<ele>70.5</ele>
<time>2014-02-15T16:19:04Z</time>
</trkpt>
<trkpt lat="52.65192413330078" lon="12.981287956237793">
<ele>70.5</ele>
<time>2014-02-15T16:19:05Z</time>
</trkpt>
<trkpt lat="52.651920318603516" lon="12.981201171875">
<ele>70.5999984741211</ele>
<time>2014-02-15T16:19:06Z</time>
</trkpt>
<trkpt lat="52.65191650390625" lon="12.981117248535156">
<ele>70.9000015258789</ele>
<time>2014-02-15T16:19:07Z</time>
</trkpt>
<trkpt lat="52.651912689208984" lon="12.981034278869629">
<ele>71.0</ele>
<time>2014-02-15T16:19:08Z</time>
</trkpt>
<trkpt lat="52.65191650390625" lon="12.980955123901367">
<ele>71.0</ele>
<time>2014-02-15T16:19:09Z</time>
</trkpt>
<trkpt lat="52.651920318603516" lon="12.980877876281738">
<ele>71.0999984741211</ele>
<time>2014-02-15T16:19:10Z</time>
</trkpt>
<trkpt lat="52.65198516845703" lon="12.980785369873047">
<ele>71.0</ele>
<time>2014-02-15T16:19:12Z</time>
</trkpt>
<trkpt lat="52.652069091796875" lon="12.980818748474121">
<ele>71.0</ele>
<time>2014-02-15T16:19:14Z</time>
</trkpt>
<trkpt lat="52.65212631225586" lon="12.980920791625977">
<ele>70.69999694824219</ele>
<time>2014-02-15T16:19:16Z</time>
</trkpt>
<trkpt lat="52.65215301513672" lon="12.980985641479492">
<ele>70.69999694824219</ele>
<time>2014-02-15T16:19:17Z</time>
</trkpt>
<trkpt lat="52.652183532714844" lon="12.981043815612793">
<ele>70.9000015258789</ele>
<time>2014-02-15T16:19:18Z</time>
</trkpt>
<trkpt lat="52.652217864990234" lon="12.981104850769043">
<ele>71.0999984741211</ele>
<time>2014-02-15T16:19:19Z</time>
</trkpt>
<trkpt lat="52.652252197265625" lon="12.981169700622559">
<ele>71.0999984741211</ele>
<time>2014-02-15T16:19:20Z</time>
</trkpt>
<trkpt lat="52.652286529541016" lon="12.981230735778809">
<ele>70.69999694824219</ele>
<time>2014-02-15T16:19:21Z</time>
</trkpt>
<trkpt lat="52.65232467651367" lon="12.98128890991211">
<ele>70.69999694824219</ele>
<time>2014-02-15T16:19:22Z</time>
</trkpt>
<trkpt lat="52.65236282348633" lon="12.981340408325195">
<ele>70.5999984741211</ele>
<time>2014-02-15T16:19:23Z</time>
</trkpt>
<trkpt lat="52.65240478515625" lon="12.981380462646484">
<ele>70.5999984741211</ele>
<time>2014-02-15T16:19:24Z</time>
</trkpt>
<trkpt lat="52.652462005615234" lon="12.98139762878418">
<ele>70.30000305175781</ele>
<time>2014-02-15T16:19:25Z</time>
</trkpt>
<trkpt lat="52.652503967285156" lon="12.981426239013672">
<ele>70.5999984741211</ele>
<time>2014-02-15T16:19:26Z</time>
</trkpt>
<trkpt lat="52.65255355834961" lon="12.981452941894531">
<ele>70.5999984741211</ele>
<time>2014-02-15T16:19:27Z</time>
</trkpt>
<trkpt lat="52.65260696411133" lon="12.981480598449707">
<ele>70.69999694824219</ele>
<time>2014-02-15T16:19:28Z</time>
</trkpt>
<trkpt lat="52.65265655517578" lon="12.981511116027832">
<ele>70.80000305175781</ele>
<time>2014-02-15T16:19:29Z</time>
</trkpt>
<trkpt lat="52.652706146240234" lon="12.981545448303223">
<ele>71.19999694824219</ele>
<time>2014-02-15T16:19:30Z</time>
</trkpt>
<trkpt lat="52.65275573730469" lon="12.981572151184082">
<ele>71.4000015258789</ele>
<time>2014-02-15T16:19:31Z</time>
</trkpt>
<trkpt lat="52.65280532836914" lon="12.981598854064941">
<ele>71.9000015258789</ele>
<time>2014-02-15T16:19:32Z</time>
</trkpt>
<trkpt lat="52.65285110473633" lon="12.9816312789917">
<ele>71.5999984741211</ele>
<time>2014-02-15T16:19:33Z</time>
</trkpt>
<trkpt lat="52.652896881103516" lon="12.98166275024414">
<ele>71.80000305175781</ele>
<time>2014-02-15T16:19:34Z</time>
</trkpt>
<trkpt lat="52.65294647216797" lon="12.981693267822266">
<ele>71.5999984741211</ele>
<time>2014-02-15T16:19:35Z</time>
</trkpt>
<trkpt lat="52.65299606323242" lon="12.981725692749023">
<ele>71.4000015258789</ele>
<time>2014-02-15T16:19:36Z</time>
</trkpt>
<trkpt lat="52.65304946899414" lon="12.981756210327148">
<ele>71.30000305175781</ele>
<time>2014-02-15T16:19:37Z</time>
</trkpt>
<trkpt lat="52.653099060058594" lon="12.981786727905273">
<ele>71.30000305175781</ele>
<time>2014-02-15T16:19:38Z</time>
</trkpt>
<trkpt lat="52.65315246582031" lon="12.981817245483398">
<ele>71.0</ele>
<time>2014-02-15T16:19:39Z</time>
</trkpt>
<trkpt lat="52.653194427490234" lon="12.981841087341309">
<ele>70.80000305175781</ele>
<time>2014-02-15T16:19:40Z</time>
</trkpt>
<trkpt lat="52.65324401855469" lon="12.98186206817627">
<ele>70.5999984741211</ele>
<time>2014-02-15T16:19:41Z</time>
</trkpt>
<trkpt lat="52.65331268310547" lon="12.981892585754395">
<ele>73.4000015258789</ele>
<time>2014-02-15T16:19:42Z</time>
</trkpt>
<trkpt lat="52.65337371826172" lon="12.981914520263672">
<ele>74.0999984741211</ele>
<time>2014-02-15T16:19:43Z</time>
</trkpt>
<trkpt lat="52.65342330932617" lon="12.981941223144531">
<ele>74.5</ele>
<time>2014-02-15T16:19:44Z</time>
</trkpt>
<trkpt lat="52.65346908569336" lon="12.981975555419922">
<ele>74.9000015258789</ele>
<time>2014-02-15T16:19:45Z</time>
</trkpt>
<trkpt lat="52.65351867675781" lon="12.982007026672363">
<ele>72.0999984741211</ele>
<time>2014-02-15T16:19:47Z</time>
</trkpt>
<trkpt lat="52.653587341308594" lon="12.982023239135742">
<ele>72.4000015258789</ele>
<time>2014-02-15T16:19:49Z</time>
</trkpt>
<trkpt lat="52.6536750793457" lon="12.981887817382812">
<ele>72.4000015258789</ele>
<time>2014-02-15T16:19:55Z</time>
</trkpt>
<trkpt lat="52.65370178222656" lon="12.981754302978516">
<ele>71.69999694824219</ele>
<time>2014-02-15T16:19:57Z</time>
</trkpt>
<trkpt lat="52.65373229980469" lon="12.981623649597168">
<ele>72.4000015258789</ele>
<time>2014-02-15T16:19:59Z</time>
</trkpt>
<trkpt lat="52.65375518798828" lon="12.981557846069336">
<ele>73.4000015258789</ele>
<time>2014-02-15T16:20:01Z</time>
</trkpt>
<trkpt lat="52.653785705566406" lon="12.981447219848633">
<ele>73.69999694824219</ele>
<time>2014-02-15T16:20:02Z</time>
</trkpt>
<trkpt lat="52.65384292602539" lon="12.98138427734375">
<ele>73.19999694824219</ele>
<time>2014-02-15T16:20:04Z</time>
</trkpt>
<trkpt lat="52.653892517089844" lon="12.98126220703125">
<ele>73.9000015258789</ele>
<time>2014-02-15T16:20:06Z</time>
</trkpt>
<trkpt lat="52.6539306640625" lon="12.981134414672852">
<ele>73.19999694824219</ele>
<time>2014-02-15T16:20:08Z</time>
</trkpt>
<trkpt lat="52.653968811035156" lon="12.981005668640137">
<ele>72.69999694824219</ele>
<time>2014-02-15T16:20:10Z</time>
</trkpt>
<trkpt lat="52.653987884521484" lon="12.980932235717773">
<ele>72.4000015258789</ele>
<time>2014-02-15T16:20:11Z</time>
</trkpt>
<trkpt lat="52.65400314331055" lon="12.98086166381836">
<ele>72.5</ele>
<time>2014-02-15T16:20:12Z</time>
</trkpt>
<trkpt lat="52.65401840209961" lon="12.980792999267578">
<ele>72.80000305175781</ele>
<time>2014-02-15T16:20:13Z</time>
</trkpt>
<trkpt lat="52.65403747558594" lon="12.980724334716797">
<ele>73.0</ele>
<time>2014-02-15T16:20:14Z</time>
</trkpt>
<trkpt lat="52.65406036376953" lon="12.980655670166016">
<ele>73.0</ele>
<time>2014-02-15T16:20:15Z</time>
</trkpt>
<trkpt lat="52.65407943725586" lon="12.9805908203125">
<ele>73.0</ele>
<time>2014-02-15T16:20:16Z</time>
</trkpt>
<trkpt lat="52.65411376953125" lon="12.980450630187988">
<ele>72.5999984741211</ele>
<time>2014-02-15T16:20:18Z</time>
</trkpt>
<trkpt lat="52.65412902832031" lon="12.980378150939941">
<ele>72.30000305175781</ele>
<time>2014-02-15T16:20:19Z</time>
</trkpt>
<trkpt lat="52.65414047241211" lon="12.980300903320312">
<ele>72.30000305175781</ele>
<time>2014-02-15T16:20:20Z</time>
</trkpt>
<trkpt lat="52.654178619384766" lon="12.980171203613281">
<ele>72.4000015258789</ele>
<time>2014-02-15T16:20:22Z</time>
</trkpt>
<trkpt lat="52.65419387817383" lon="12.980100631713867">
<ele>72.4000015258789</ele>
<time>2014-02-15T16:20:23Z</time>
</trkpt>
<trkpt lat="52.65422821044922" lon="12.979971885681152">
<ele>73.0</ele>
<time>2014-02-15T16:20:25Z</time>
</trkpt>
<trkpt lat="52.654258728027344" lon="12.97983455657959">
<ele>72.80000305175781</ele>
<time>2014-02-15T16:20:27Z</time>
</trkpt>
<trkpt lat="52.65427780151367" lon="12.979763984680176">
<ele>73.0</ele>
<time>2014-02-15T16:20:28Z</time>
</trkpt>
<trkpt lat="52.654293060302734" lon="12.979691505432129">
<ele>73.19999694824219</ele>
<time>2014-02-15T16:20:29Z</time>
</trkpt>
<trkpt lat="52.654327392578125" lon="12.979558944702148">
<ele>72.80000305175781</ele>
<time>2014-02-15T16:20:31Z</time>
</trkpt>
<trkpt lat="52.65435791015625" lon="12.979423522949219">
<ele>72.80000305175781</ele>
<time>2014-02-15T16:20:33Z</time>
</trkpt>
<trkpt lat="52.654388427734375" lon="12.979286193847656">
<ele>73.0999984741211</ele>
<time>2014-02-15T16:20:35Z</time>
</trkpt>
<trkpt lat="52.654422760009766" lon="12.979148864746094">
<ele>73.0</ele>
<time>2014-02-15T16:20:37Z</time>
</trkpt>
<trkpt lat="52.65443801879883" lon="12.979080200195312">
<ele>73.0</ele>
<time>2014-02-15T16:20:38Z</time>
</trkpt>
<trkpt lat="52.65447235107422" lon="12.978944778442383">
<ele>73.0</ele>
<time>2014-02-15T16:20:40Z</time>
</trkpt>
<trkpt lat="52.65450668334961" lon="12.978813171386719">
<ele>73.19999694824219</ele>
<time>2014-02-15T16:20:42Z</time>
</trkpt>
<trkpt lat="52.654537200927734" lon="12.978680610656738">
<ele>73.0</ele>
<time>2014-02-15T16:20:44Z</time>
</trkpt>
<trkpt lat="52.654571533203125" lon="12.978545188903809">
<ele>72.5</ele>
<time>2014-02-15T16:20:46Z</time>
</trkpt>
<trkpt lat="52.65459060668945" lon="12.978475570678711">
<ele>72.4000015258789</ele>
<time>2014-02-15T16:20:47Z</time>
</trkpt>
<trkpt lat="52.65461349487305" lon="12.978403091430664">
<ele>72.5</ele>
<time>2014-02-15T16:20:48Z</time>
</trkpt>
<trkpt lat="52.654632568359375" lon="12.978328704833984">
<ele>72.4000015258789</ele>
<time>2014-02-15T16:20:49Z</time>
</trkpt>
<trkpt lat="52.6546516418457" lon="12.978254318237305">
<ele>72.5999984741211</ele>
<time>2014-02-15T16:20:50Z</time>
</trkpt>
<trkpt lat="52.6546745300293" lon="12.978182792663574">
<ele>72.5999984741211</ele>
<time>2014-02-15T16:20:51Z</time>
</trkpt>
<trkpt lat="52.654693603515625" lon="12.978110313415527">
<ele>72.5</ele>
<time>2014-02-15T16:20:52Z</time>
</trkpt>
<trkpt lat="52.65471267700195" lon="12.978029251098633">
<ele>72.69999694824219</ele>
<time>2014-02-15T16:20:53Z</time>
</trkpt>
<trkpt lat="52.654727935791016" lon="12.977958679199219">
<ele>72.30000305175781</ele>
<time>2014-02-15T16:20:54Z</time>
</trkpt>
<trkpt lat="52.65474319458008" lon="12.977880477905273">
<ele>72.0999984741211</ele>
<time>2014-02-15T16:20:55Z</time>
</trkpt>
<trkpt lat="52.65476608276367" lon="12.97780990600586">
<ele>73.19999694824219</ele>
<time>2014-02-15T16:20:56Z</time>
</trkpt>
<trkpt lat="52.65479278564453" lon="12.977731704711914">
<ele>73.69999694824219</ele>
<time>2014-02-15T16:20:57Z</time>
</trkpt>
<trkpt lat="52.65481948852539" lon="12.977656364440918">
<ele>73.9000015258789</ele>
<time>2014-02-15T16:20:58Z</time>
</trkpt>
<trkpt lat="52.65483474731445" lon="12.977580070495605">
<ele>73.0999984741211</ele>
<time>2014-02-15T16:20:59Z</time>
</trkpt>
<trkpt lat="52.65485763549805" lon="12.977509498596191">
<ele>73.19999694824219</ele>
<time>2014-02-15T16:21:00Z</time>
</trkpt>
<trkpt lat="52.65488052368164" lon="12.977437019348145">
<ele>73.4000015258789</ele>
<time>2014-02-15T16:21:01Z</time>
</trkpt>
<trkpt lat="52.654903411865234" lon="12.97736644744873">
<ele>73.5</ele>
<time>2014-02-15T16:21:02Z</time>
</trkpt>
<trkpt lat="52.65492248535156" lon="12.977298736572266">
<ele>74.0</ele>
<time>2014-02-15T16:21:03Z</time>
</trkpt>
<trkpt lat="52.65494918823242" lon="12.977235794067383">
<ele>73.69999694824219</ele>
<time>2014-02-15T16:21:04Z</time>
</trkpt>
<trkpt lat="52.654998779296875" lon="12.977106094360352">
<ele>73.69999694824219</ele>
<time>2014-02-15T16:21:06Z</time>
</trkpt>
<trkpt lat="52.655025482177734" lon="12.977039337158203">
<ele>73.9000015258789</ele>
<time>2014-02-15T16:21:07Z</time>
</trkpt>
<trkpt lat="52.65507125854492" lon="12.976912498474121">
<ele>73.30000305175781</ele>
<time>2014-02-15T16:21:09Z</time>
</trkpt>
<trkpt lat="52.655094146728516" lon="12.976847648620605">
<ele>73.30000305175781</ele>
<time>2014-02-15T16:21:10Z</time>
</trkpt>
<trkpt lat="52.65511703491211" lon="12.976781845092773">
<ele>73.4000015258789</ele>
<time>2014-02-15T16:21:11Z</time>
</trkpt>
<trkpt lat="52.6551399230957" lon="12.976712226867676">
<ele>73.4000015258789</ele>
<time>2014-02-15T16:21:12Z</time>
</trkpt>
<trkpt lat="52.65515899658203" lon="12.976642608642578">
<ele>73.5</ele>
<time>2014-02-15T16:21:13Z</time>
</trkpt>
<trkpt lat="52.65517807006836" lon="12.976573944091797">
<ele>73.19999694824219</ele>
<time>2014-02-15T16:21:14Z</time>
</trkpt>
<trkpt lat="52.65523910522461" lon="12.976469039916992">
<ele>73.4000015258789</ele>
<time>2014-02-15T16:21:16Z</time>
</trkpt>
<trkpt lat="52.65531539916992" lon="12.976422309875488">
<ele>73.0</ele>
<time>2014-02-15T16:21:18Z</time>
</trkpt>
<trkpt lat="52.655364990234375" lon="12.976433753967285">
<ele>72.5999984741211</ele>
<time>2014-02-15T16:21:19Z</time>
</trkpt>
<trkpt lat="52.6554069519043" lon="12.976472854614258">
<ele>72.80000305175781</ele>
<time>2014-02-15T16:21:20Z</time>
</trkpt>
<trkpt lat="52.65545654296875" lon="12.976494789123535">
<ele>73.69999694824219</ele>
<time>2014-02-15T16:21:21Z</time>
</trkpt>
<trkpt lat="52.65553283691406" lon="12.976545333862305">
<ele>73.5999984741211</ele>
<time>2014-02-15T16:21:24Z</time>
</trkpt>
<trkpt lat="52.65562057495117" lon="12.976598739624023">
<ele>73.4000015258789</ele>
<time>2014-02-15T16:21:25Z</time>
</trkpt>
<trkpt lat="52.65566635131836" lon="12.9766206741333">
<ele>73.19999694824219</ele>
<time>2014-02-15T16:21:26Z</time>
</trkpt>
<trkpt lat="52.65571212768555" lon="12.976652145385742">
<ele>73.5</ele>
<time>2014-02-15T16:21:27Z</time>
</trkpt>
<trkpt lat="52.65575408935547" lon="12.976675987243652">
<ele>73.5999984741211</ele>
<time>2014-02-15T16:21:28Z</time>
</trkpt>
<trkpt lat="52.65583801269531" lon="12.97673511505127">
<ele>73.5999984741211</ele>
<time>2014-02-15T16:21:30Z</time>
</trkpt>
<trkpt lat="52.655879974365234" lon="12.976761817932129">
<ele>73.69999694824219</ele>
<time>2014-02-15T16:21:31Z</time>
</trkpt>
<trkpt lat="52.65592575073242" lon="12.976786613464355">
<ele>73.80000305175781</ele>
<time>2014-02-15T16:21:32Z</time>
</trkpt>
<trkpt lat="52.65597152709961" lon="12.976811408996582">
<ele>73.5999984741211</ele>
<time>2014-02-15T16:21:33Z</time>
</trkpt>
<trkpt lat="52.65601348876953" lon="12.976841926574707">
<ele>73.5999984741211</ele>
<time>2014-02-15T16:21:34Z</time>
</trkpt>
<trkpt lat="52.65605926513672" lon="12.97686767578125">
<ele>73.5</ele>
<time>2014-02-15T16:21:35Z</time>
</trkpt>
<trkpt lat="52.65614700317383" lon="12.976927757263184">
<ele>73.5</ele>
<time>2014-02-15T16:21:37Z</time>
</trkpt>
<trkpt lat="52.65619659423828" lon="12.976948738098145">
<ele>73.5999984741211</ele>
<time>2014-02-15T16:21:38Z</time>
</trkpt>
<trkpt lat="52.65624237060547" lon="12.976972579956055">
<ele>73.19999694824219</ele>
<time>2014-02-15T16:21:39Z</time>
</trkpt>
<trkpt lat="52.65633010864258" lon="12.977023124694824">
<ele>73.0999984741211</ele>
<time>2014-02-15T16:21:41Z</time>
</trkpt>
<trkpt lat="52.6563720703125" lon="12.977049827575684">
<ele>73.30000305175781</ele>
<time>2014-02-15T16:21:42Z</time>
</trkpt>
<trkpt lat="52.65641784667969" lon="12.97707748413086">
<ele>73.69999694824219</ele>
<time>2014-02-15T16:21:43Z</time>
</trkpt>
<trkpt lat="52.65645980834961" lon="12.977108001708984">
<ele>74.0</ele>
<time>2014-02-15T16:21:44Z</time>
</trkpt>
<trkpt lat="52.65654373168945" lon="12.977156639099121">
<ele>73.0999984741211</ele>
<time>2014-02-15T16:21:46Z</time>
</trkpt>
<trkpt lat="52.656585693359375" lon="12.97716999053955">
<ele>73.0999984741211</ele>
<time>2014-02-15T16:21:47Z</time>
</trkpt>
<trkpt lat="52.65663528442383" lon="12.977169036865234">
<ele>73.19999694824219</ele>
<time>2014-02-15T16:21:48Z</time>
</trkpt>
<trkpt lat="52.656681060791016" lon="12.977134704589844">
<ele>73.69999694824219</ele>
<time>2014-02-15T16:21:49Z</time>
</trkpt>
<trkpt lat="52.65672302246094" lon="12.977083206176758">
<ele>73.69999694824219</ele>
<time>2014-02-15T16:21:50Z</time>
</trkpt>
<trkpt lat="52.6567497253418" lon="12.977014541625977">
<ele>73.5999984741211</ele>
<time>2014-02-15T16:21:51Z</time>
</trkpt>
<trkpt lat="52.65676498413086" lon="12.976938247680664">
<ele>73.80000305175781</ele>
<time>2014-02-15T16:21:52Z</time>
</trkpt>
<trkpt lat="52.65678405761719" lon="12.976861953735352">
<ele>73.0999984741211</ele>
<time>2014-02-15T16:21:53Z</time>
</trkpt>
<trkpt lat="52.65680694580078" lon="12.976790428161621">
<ele>73.0999984741211</ele>
<time>2014-02-15T16:21:54Z</time>
</trkpt>
<trkpt lat="52.656829833984375" lon="12.976720809936523">
<ele>72.80000305175781</ele>
<time>2014-02-15T16:21:55Z</time>
</trkpt>
<trkpt lat="52.65685272216797" lon="12.97665023803711">
<ele>72.5999984741211</ele>
<time>2014-02-15T16:21:56Z</time>
</trkpt>
<trkpt lat="52.6568717956543" lon="12.976581573486328">
<ele>72.5</ele>
<time>2014-02-15T16:21:57Z</time>
</trkpt>
<trkpt lat="52.656898498535156" lon="12.976515769958496">
<ele>72.5</ele>
<time>2014-02-15T16:21:58Z</time>
</trkpt>
<trkpt lat="52.656917572021484" lon="12.976449966430664">
<ele>72.19999694824219</ele>
<time>2014-02-15T16:21:59Z</time>
</trkpt>
<trkpt lat="52.65694046020508" lon="12.976381301879883">
<ele>71.9000015258789</ele>
<time>2014-02-15T16:22:00Z</time>
</trkpt>
<trkpt lat="52.65696334838867" lon="12.97631549835205">
<ele>71.9000015258789</ele>
<time>2014-02-15T16:22:01Z</time>
</trkpt>
<trkpt lat="52.65699005126953" lon="12.976247787475586">
<ele>71.9000015258789</ele>
<time>2014-02-15T16:22:02Z</time>
</trkpt>
<trkpt lat="52.65700912475586" lon="12.976181030273438">
<ele>71.9000015258789</ele>
<time>2014-02-15T16:22:03Z</time>
</trkpt>
<trkpt lat="52.65703201293945" lon="12.97611141204834">
<ele>71.69999694824219</ele>
<time>2014-02-15T16:22:04Z</time>
</trkpt>
<trkpt lat="52.65705871582031" lon="12.976046562194824">
<ele>71.9000015258789</ele>
<time>2014-02-15T16:22:05Z</time>
</trkpt>
<trkpt lat="52.657081604003906" lon="12.97597885131836">
<ele>72.0</ele>
<time>2014-02-15T16:22:06Z</time>
</trkpt>
<trkpt lat="52.657100677490234" lon="12.975912094116211">
<ele>71.9000015258789</ele>
<time>2014-02-15T16:22:07Z</time>
</trkpt>
<trkpt lat="52.65712356567383" lon="12.97584342956543">
<ele>71.80000305175781</ele>
<time>2014-02-15T16:22:08Z</time>
</trkpt>
<trkpt lat="52.65714645385742" lon="12.975775718688965">
<ele>71.5</ele>
<time>2014-02-15T16:22:09Z</time>
</trkpt>
<trkpt lat="52.657169342041016" lon="12.975709915161133">
<ele>71.5</ele>
<time>2014-02-15T16:22:10Z</time>
</trkpt>
<trkpt lat="52.657196044921875" lon="12.975639343261719">
<ele>71.5</ele>
<time>2014-02-15T16:22:11Z</time>
</trkpt>
<trkpt lat="52.65721893310547" lon="12.975570678710938">
<ele>71.69999694824219</ele>
<time>2014-02-15T16:22:12Z</time>
</trkpt>
<trkpt lat="52.65724182128906" lon="12.975502014160156">
<ele>71.69999694824219</ele>
<time>2014-02-15T16:22:13Z</time>
</trkpt>
<trkpt lat="52.65726852416992" lon="12.975432395935059">
<ele>71.69999694824219</ele>
<time>2014-02-15T16:22:14Z</time>
</trkpt>
<trkpt lat="52.657310485839844" lon="12.97529125213623">
<ele>71.69999694824219</ele>
<time>2014-02-15T16:22:16Z</time>
</trkpt>
<trkpt lat="52.6573371887207" lon="12.975221633911133">
<ele>71.80000305175781</ele>
<time>2014-02-15T16:22:17Z</time>
</trkpt>
<trkpt lat="52.65735626220703" lon="12.975152969360352">
<ele>72.0999984741211</ele>
<time>2014-02-15T16:22:18Z</time>
</trkpt>
<trkpt lat="52.65738296508789" lon="12.97508430480957">
<ele>72.0</ele>
<time>2014-02-15T16:22:20Z</time>
</trkpt>
<trkpt lat="52.657432556152344" lon="12.974940299987793">
<ele>72.0</ele>
<time>2014-02-15T16:22:22Z</time>
</trkpt>
<trkpt lat="52.65746307373047" lon="12.974876403808594">
<ele>72.19999694824219</ele>
<time>2014-02-15T16:22:22Z</time>
</trkpt>
<trkpt lat="52.65748596191406" lon="12.974804878234863">
<ele>72.5</ele>
<time>2014-02-15T16:22:23Z</time>
</trkpt>
<trkpt lat="52.657508850097656" lon="12.97473430633545">
<ele>72.5999984741211</ele>
<time>2014-02-15T16:22:24Z</time>
</trkpt>
<trkpt lat="52.657527923583984" lon="12.9746675491333">
<ele>72.5999984741211</ele>
<time>2014-02-15T16:22:25Z</time>
</trkpt>
<trkpt lat="52.65754699707031" lon="12.97459602355957">
<ele>72.9000015258789</ele>
<time>2014-02-15T16:22:26Z</time>
</trkpt>
<trkpt lat="52.65757369995117" lon="12.974525451660156">
<ele>72.80000305175781</ele>
<time>2014-02-15T16:22:27Z</time>
</trkpt>
<trkpt lat="52.65760040283203" lon="12.97446060180664">
<ele>72.30000305175781</ele>
<time>2014-02-15T16:22:28Z</time>
</trkpt>
<trkpt lat="52.65762710571289" lon="12.974392890930176">
<ele>72.30000305175781</ele>
<time>2014-02-15T16:22:29Z</time>
</trkpt>
<trkpt lat="52.65765380859375" lon="12.974322319030762">
<ele>72.5</ele>
<time>2014-02-15T16:22:30Z</time>
</trkpt>
<trkpt lat="52.657676696777344" lon="12.974252700805664">
<ele>72.5</ele>
<time>2014-02-15T16:22:31Z</time>
</trkpt>
<trkpt lat="52.65769958496094" lon="12.974184036254883">
<ele>72.30000305175781</ele>
<time>2014-02-15T16:22:32Z</time>
</trkpt>
<trkpt lat="52.65772247314453" lon="12.974109649658203">
<ele>72.4000015258789</ele>
<time>2014-02-15T16:22:33Z</time>
</trkpt>
<trkpt lat="52.65773010253906" lon="12.974023818969727">
<ele>72.19999694824219</ele>
<time>2014-02-15T16:22:34Z</time>
</trkpt>
<trkpt lat="52.65774917602539" lon="12.973953247070312">
<ele>72.30000305175781</ele>
<time>2014-02-15T16:22:35Z</time>
</trkpt>
<trkpt lat="52.65778350830078" lon="12.973888397216797">
<ele>72.0</ele>
<time>2014-02-15T16:22:37Z</time>
</trkpt>
<trkpt lat="52.65782928466797" lon="12.97374153137207">
<ele>72.0999984741211</ele>
<time>2014-02-15T16:22:38Z</time>
</trkpt>
<trkpt lat="52.65785217285156" lon="12.973670959472656">
<ele>72.0</ele>
<time>2014-02-15T16:22:39Z</time>
</trkpt>
<trkpt lat="52.657875061035156" lon="12.97359561920166">
<ele>71.9000015258789</ele>
<time>2014-02-15T16:22:41Z</time>
</trkpt>
<trkpt lat="52.65791702270508" lon="12.9734468460083">
<ele>72.0</ele>
<time>2014-02-15T16:22:42Z</time>
</trkpt>
<trkpt lat="52.657962799072266" lon="12.973298072814941">
<ele>72.0999984741211</ele>
<time>2014-02-15T16:22:44Z</time>
</trkpt>
<trkpt lat="52.657989501953125" lon="12.97321891784668">
<ele>72.0</ele>
<time>2014-02-15T16:22:45Z</time>
</trkpt>
<trkpt lat="52.65800857543945" lon="12.973140716552734">
<ele>72.0</ele>
<time>2014-02-15T16:22:46Z</time>
</trkpt>
<trkpt lat="52.65803146362305" lon="12.973064422607422">
<ele>71.80000305175781</ele>
<time>2014-02-15T16:22:48Z</time>
</trkpt>
<trkpt lat="52.6580810546875" lon="12.972912788391113">
<ele>71.5999984741211</ele>
<time>2014-02-15T16:22:49Z</time>
</trkpt>
<trkpt lat="52.658103942871094" lon="12.97283935546875">
<ele>71.80000305175781</ele>
<time>2014-02-15T16:22:50Z</time>
</trkpt>
<trkpt lat="52.65813064575195" lon="12.97276782989502">
<ele>71.80000305175781</ele>
<time>2014-02-15T16:22:51Z</time>
</trkpt>
<trkpt lat="52.65815734863281" lon="12.972696304321289">
<ele>71.80000305175781</ele>
<time>2014-02-15T16:22:52Z</time>
</trkpt>
<trkpt lat="52.658180236816406" lon="12.97261905670166">
<ele>71.80000305175781</ele>
<time>2014-02-15T16:22:53Z</time>
</trkpt>
<trkpt lat="52.658206939697266" lon="12.97254467010498">
<ele>71.69999694824219</ele>
<time>2014-02-15T16:22:54Z</time>
</trkpt>
<trkpt lat="52.65822982788086" lon="12.972471237182617">
<ele>71.80000305175781</ele>
<time>2014-02-15T16:22:55Z</time>
</trkpt>
<trkpt lat="52.658260345458984" lon="12.972405433654785">
<ele>71.80000305175781</ele>
<time>2014-02-15T16:22:56Z</time>
</trkpt>
<trkpt lat="52.658287048339844" lon="12.972332954406738">
<ele>72.19999694824219</ele>
<time>2014-02-15T16:22:57Z</time>
</trkpt>
<trkpt lat="52.658302307128906" lon="12.972248077392578">
<ele>72.0999984741211</ele>
<time>2014-02-15T16:22:58Z</time>
</trkpt>
<trkpt lat="52.65831756591797" lon="12.972167015075684">
<ele>72.5999984741211</ele>
<time>2014-02-15T16:22:59Z</time>
</trkpt>
<trkpt lat="52.65834426879883" lon="12.972090721130371">
<ele>72.4000015258789</ele>
<time>2014-02-15T16:23:00Z</time>
</trkpt>
<trkpt lat="52.65836715698242" lon="12.97201156616211">
<ele>72.5</ele>
<time>2014-02-15T16:23:01Z</time>
</trkpt>
<trkpt lat="52.65838623046875" lon="12.97193431854248">
<ele>72.5</ele>
<time>2014-02-15T16:23:02Z</time>
</trkpt>
<trkpt lat="52.65840530395508" lon="12.971854209899902">
<ele>72.5</ele>
<time>2014-02-15T16:23:03Z</time>
</trkpt>
<trkpt lat="52.658424377441406" lon="12.971771240234375">
<ele>72.5</ele>
<time>2014-02-15T16:23:04Z</time>
</trkpt>
<trkpt lat="52.658447265625" lon="12.971694946289062">
<ele>72.5</ele>
<time>2014-02-15T16:23:05Z</time>
</trkpt>
<trkpt lat="52.658470153808594" lon="12.9716215133667">
<ele>72.80000305175781</ele>
<time>2014-02-15T16:23:06Z</time>
</trkpt>
<trkpt lat="52.65848922729492" lon="12.97154712677002">
<ele>72.80000305175781</ele>
<time>2014-02-15T16:23:07Z</time>
</trkpt>
<trkpt lat="52.658512115478516" lon="12.971473693847656">
<ele>72.80000305175781</ele>
<time>2014-02-15T16:23:08Z</time>
</trkpt>
<trkpt lat="52.658531188964844" lon="12.971397399902344">
<ele>72.69999694824219</ele>
<time>2014-02-15T16:23:09Z</time>
</trkpt>
<trkpt lat="52.65855026245117" lon="12.971315383911133">
<ele>72.5</ele>
<time>2014-02-15T16:23:10Z</time>
</trkpt>
<trkpt lat="52.658573150634766" lon="12.971235275268555">
<ele>72.30000305175781</ele>
<time>2014-02-15T16:23:11Z</time>
</trkpt>
<trkpt lat="52.65859603881836" lon="12.971160888671875">
<ele>72.19999694824219</ele>
<time>2014-02-15T16:23:12Z</time>
</trkpt>
<trkpt lat="52.65861892700195" lon="12.971085548400879">
<ele>72.0</ele>
<time>2014-02-15T16:23:13Z</time>
</trkpt>
<trkpt lat="52.65864181518555" lon="12.971007347106934">
<ele>71.9000015258789</ele>
<time>2014-02-15T16:23:14Z</time>
</trkpt>
<trkpt lat="52.658660888671875" lon="12.970930099487305">
<ele>72.0999984741211</ele>
<time>2014-02-15T16:23:15Z</time>
</trkpt>
<trkpt lat="52.6586799621582" lon="12.970847129821777">
<ele>72.19999694824219</ele>
<time>2014-02-15T16:23:16Z</time>
</trkpt>
<trkpt lat="52.6587028503418" lon="12.9707670211792">
<ele>72.0999984741211</ele>
<time>2014-02-15T16:23:17Z</time>
</trkpt>
<trkpt lat="52.65872573852539" lon="12.970688819885254">
<ele>72.0</ele>
<time>2014-02-15T16:23:18Z</time>
</trkpt>
<trkpt lat="52.65874481201172" lon="12.970611572265625">
<ele>72.0</ele>
<time>2014-02-15T16:23:19Z</time>
</trkpt>
<trkpt lat="52.65877151489258" lon="12.970532417297363">
<ele>71.80000305175781</ele>
<time>2014-02-15T16:23:20Z</time>
</trkpt>
<trkpt lat="52.658790588378906" lon="12.970454216003418">
<ele>72.0999984741211</ele>
<time>2014-02-15T16:23:21Z</time>
</trkpt>
<trkpt lat="52.6588134765625" lon="12.970373153686523">
<ele>71.9000015258789</ele>
<time>2014-02-15T16:23:22Z</time>
</trkpt>
<trkpt lat="52.65883255004883" lon="12.970293998718262">
<ele>71.80000305175781</ele>
<time>2014-02-15T16:23:23Z</time>
</trkpt>
<trkpt lat="52.65885543823242" lon="12.97021484375">
<ele>71.5</ele>
<time>2014-02-15T16:23:24Z</time>
</trkpt>
<trkpt lat="52.658878326416016" lon="12.970138549804688">
<ele>71.5</ele>
<time>2014-02-15T16:23:25Z</time>
</trkpt>
<trkpt lat="52.65890121459961" lon="12.970060348510742">
<ele>71.5999984741211</ele>
<time>2014-02-15T16:23:26Z</time>
</trkpt>
<trkpt lat="52.6589241027832" lon="12.969978332519531">
<ele>71.80000305175781</ele>
<time>2014-02-15T16:23:27Z</time>
</trkpt>
<trkpt lat="52.6589469909668" lon="12.96989631652832">
<ele>71.80000305175781</ele>
<time>2014-02-15T16:23:28Z</time>
</trkpt>
<trkpt lat="52.658966064453125" lon="12.96981430053711">
<ele>71.5</ele>
<time>2014-02-15T16:23:29Z</time>
</trkpt>
<trkpt lat="52.65898513793945" lon="12.969735145568848">
<ele>71.80000305175781</ele>
<time>2014-02-15T16:23:30Z</time>
</trkpt>
<trkpt lat="52.65900802612305" lon="12.969660758972168">
<ele>72.0</ele>
<time>2014-02-15T16:23:31Z</time>
</trkpt>
<trkpt lat="52.65903091430664" lon="12.969584465026855">
<ele>72.19999694824219</ele>
<time>2014-02-15T16:23:32Z</time>
</trkpt>
<trkpt lat="52.65904998779297" lon="12.969511985778809">
<ele>72.4000015258789</ele>
<time>2014-02-15T16:23:33Z</time>
</trkpt>
<trkpt lat="52.6590690612793" lon="12.969429016113281">
<ele>72.4000015258789</ele>
<time>2014-02-15T16:23:34Z</time>
</trkpt>
<trkpt lat="52.659088134765625" lon="12.969348907470703">
<ele>72.5</ele>
<time>2014-02-15T16:23:35Z</time>
</trkpt>
<trkpt lat="52.65911102294922" lon="12.969268798828125">
<ele>72.19999694824219</ele>
<time>2014-02-15T16:23:36Z</time>
</trkpt>
<trkpt lat="52.65913391113281" lon="12.969194412231445">
<ele>72.0999984741211</ele>
<time>2014-02-15T16:23:37Z</time>
</trkpt>
<trkpt lat="52.65915298461914" lon="12.969118118286133">
<ele>72.0999984741211</ele>
<time>2014-02-15T16:23:38Z</time>
</trkpt>
<trkpt lat="52.6591682434082" lon="12.969039916992188">
<ele>71.9000015258789</ele>
<time>2014-02-15T16:23:39Z</time>
</trkpt>
<trkpt lat="52.659183502197266" lon="12.968958854675293">
<ele>71.9000015258789</ele>
<time>2014-02-15T16:23:40Z</time>
</trkpt>
<trkpt lat="52.65919494628906" lon="12.96887493133545">
<ele>71.80000305175781</ele>
<time>2014-02-15T16:23:41Z</time>
</trkpt>
<trkpt lat="52.65920639038086" lon="12.968790054321289">
<ele>71.5999984741211</ele>
<time>2014-02-15T16:23:42Z</time>
</trkpt>
<trkpt lat="52.65922164916992" lon="12.968707084655762">
<ele>71.5999984741211</ele>
<time>2014-02-15T16:23:43Z</time>
</trkpt>
<trkpt lat="52.65922927856445" lon="12.96862506866455">
<ele>71.5</ele>
<time>2014-02-15T16:23:44Z</time>
</trkpt>
<trkpt lat="52.659236907958984" lon="12.968542098999023">
<ele>71.69999694824219</ele>
<time>2014-02-15T16:23:45Z</time>
</trkpt>
<trkpt lat="52.659236907958984" lon="12.968461990356445">
<ele>71.5999984741211</ele>
<time>2014-02-15T16:23:46Z</time>
</trkpt>
<trkpt lat="52.65924835205078" lon="12.968376159667969">
<ele>72.0</ele>
<time>2014-02-15T16:23:47Z</time>
</trkpt>
<trkpt lat="52.65925216674805" lon="12.968293190002441">
<ele>72.19999694824219</ele>
<time>2014-02-15T16:23:48Z</time>
</trkpt>
<trkpt lat="52.65925598144531" lon="12.968215942382812">
<ele>72.19999694824219</ele>
<time>2014-02-15T16:23:49Z</time>
</trkpt>
<trkpt lat="52.65925979614258" lon="12.968134880065918">
<ele>71.9000015258789</ele>
<time>2014-02-15T16:23:50Z</time>
</trkpt>
<trkpt lat="52.65925979614258" lon="12.968049049377441">
<ele>72.0999984741211</ele>
<time>2014-02-15T16:23:51Z</time>
</trkpt>
<trkpt lat="52.659263610839844" lon="12.96796703338623">
<ele>71.69999694824219</ele>
<time>2014-02-15T16:23:52Z</time>
</trkpt>
<trkpt lat="52.659271240234375" lon="12.967883110046387">
<ele>71.5999984741211</ele>
<time>2014-02-15T16:23:53Z</time>
</trkpt>
<trkpt lat="52.65927505493164" lon="12.967801094055176">
<ele>71.69999694824219</ele>
<time>2014-02-15T16:23:54Z</time>
</trkpt>
<trkpt lat="52.659278869628906" lon="12.967718124389648">
<ele>71.69999694824219</ele>
<time>2014-02-15T16:23:55Z</time>
</trkpt>
<trkpt lat="52.659278869628906" lon="12.967635154724121">
<ele>71.69999694824219</ele>
<time>2014-02-15T16:23:56Z</time>
</trkpt>
<trkpt lat="52.65928268432617" lon="12.967552185058594">
<ele>71.69999694824219</ele>
<time>2014-02-15T16:23:57Z</time>
</trkpt>
<trkpt lat="52.65928268432617" lon="12.967469215393066">
<ele>71.5999984741211</ele>
<time>2014-02-15T16:23:58Z</time>
</trkpt>
<trkpt lat="52.65928268432617" lon="12.967382431030273">
<ele>71.5999984741211</ele>
<time>2014-02-15T16:23:59Z</time>
</trkpt>
<trkpt lat="52.65928649902344" lon="12.967301368713379">
<ele>71.5999984741211</ele>
<time>2014-02-15T16:24:00Z</time>
</trkpt>
<trkpt lat="52.65928649902344" lon="12.967219352722168">
<ele>71.30000305175781</ele>
<time>2014-02-15T16:24:01Z</time>
</trkpt>
<trkpt lat="52.65928649902344" lon="12.96713638305664">
<ele>71.4000015258789</ele>
<time>2014-02-15T16:24:02Z</time>
</trkpt>
<trkpt lat="52.65928649902344" lon="12.967060089111328">
<ele>71.5</ele>
<time>2014-02-15T16:24:03Z</time>
</trkpt>
<trkpt lat="52.65929412841797" lon="12.966981887817383">
<ele>71.19999694824219</ele>
<time>2014-02-15T16:24:04Z</time>
</trkpt>
<trkpt lat="52.65929412841797" lon="12.966900825500488">
<ele>70.80000305175781</ele>
<time>2014-02-15T16:24:05Z</time>
</trkpt>
<trkpt lat="52.6592903137207" lon="12.966821670532227">
<ele>71.0</ele>
<time>2014-02-15T16:24:06Z</time>
</trkpt>
<trkpt lat="52.65928649902344" lon="12.966741561889648">
<ele>71.19999694824219</ele>
<time>2014-02-15T16:24:07Z</time>
</trkpt>
<trkpt lat="52.65928649902344" lon="12.966659545898438">
<ele>71.0999984741211</ele>
<time>2014-02-15T16:24:08Z</time>
</trkpt>
<trkpt lat="52.659278869628906" lon="12.96657657623291">
<ele>70.9000015258789</ele>
<time>2014-02-15T16:24:09Z</time>
</trkpt>
<trkpt lat="52.65927505493164" lon="12.966500282287598">
<ele>70.80000305175781</ele>
<time>2014-02-15T16:24:10Z</time>
</trkpt>
<trkpt lat="52.659271240234375" lon="12.96641731262207">
<ele>70.69999694824219</ele>
<time>2014-02-15T16:24:11Z</time>
</trkpt>
<trkpt lat="52.659263610839844" lon="12.96633243560791">
<ele>70.9000015258789</ele>
<time>2014-02-15T16:24:12Z</time>
</trkpt>
<trkpt lat="52.65925979614258" lon="12.9662446975708">
<ele>70.5999984741211</ele>
<time>2014-02-15T16:24:13Z</time>
</trkpt>
<trkpt lat="52.65925216674805" lon="12.966155052185059">
<ele>70.4000015258789</ele>
<time>2014-02-15T16:24:14Z</time>
</trkpt>
<trkpt lat="52.65924072265625" lon="12.96607494354248">
<ele>70.0999984741211</ele>
<time>2014-02-15T16:24:15Z</time>
</trkpt>
<trkpt lat="52.65923309326172" lon="12.965991973876953">
<ele>69.69999694824219</ele>
<time>2014-02-15T16:24:16Z</time>
</trkpt>
<trkpt lat="52.65922546386719" lon="12.965912818908691">
<ele>69.4000015258789</ele>
<time>2014-02-15T16:24:17Z</time>
</trkpt>
<trkpt lat="52.659217834472656" lon="12.965827941894531">
<ele>69.5</ele>
<time>2014-02-15T16:24:18Z</time>
</trkpt>
<trkpt lat="52.659210205078125" lon="12.965747833251953">
<ele>69.9000015258789</ele>
<time>2014-02-15T16:24:19Z</time>
</trkpt>
<trkpt lat="52.65920639038086" lon="12.965592384338379">
<ele>69.80000305175781</ele>
<time>2014-02-15T16:24:21Z</time>
</trkpt>
<trkpt lat="52.65920639038086" lon="12.96551513671875">
<ele>70.0999984741211</ele>
<time>2014-02-15T16:24:22Z</time>
</trkpt>
<trkpt lat="52.65920639038086" lon="12.965435028076172">
<ele>70.4000015258789</ele>
<time>2014-02-15T16:24:23Z</time>
</trkpt>
<trkpt lat="52.659210205078125" lon="12.965357780456543">
<ele>70.4000015258789</ele>
<time>2014-02-15T16:24:24Z</time>
</trkpt>
<trkpt lat="52.659217834472656" lon="12.965279579162598">
<ele>70.30000305175781</ele>
<time>2014-02-15T16:24:25Z</time>
</trkpt>
<trkpt lat="52.65922546386719" lon="12.965205192565918">
<ele>70.19999694824219</ele>
<time>2014-02-15T16:24:26Z</time>
</trkpt>
<trkpt lat="52.659236907958984" lon="12.965131759643555">
<ele>70.19999694824219</ele>
<time>2014-02-15T16:24:27Z</time>
</trkpt>
<trkpt lat="52.65924835205078" lon="12.965055465698242">
<ele>70.69999694824219</ele>
<time>2014-02-15T16:24:28Z</time>
</trkpt>
<trkpt lat="52.65925598144531" lon="12.964977264404297">
<ele>70.5</ele>
<time>2014-02-15T16:24:29Z</time>
</trkpt>
<trkpt lat="52.659263610839844" lon="12.964900016784668">
<ele>70.9000015258789</ele>
<time>2014-02-15T16:24:30Z</time>
</trkpt>
<trkpt lat="52.659271240234375" lon="12.96481990814209">
<ele>70.9000015258789</ele>
<time>2014-02-15T16:24:31Z</time>
</trkpt>
<trkpt lat="52.659278869628906" lon="12.964743614196777">
<ele>71.0999984741211</ele>
<time>2014-02-15T16:24:32Z</time>
</trkpt>
<trkpt lat="52.65928268432617" lon="12.964669227600098">
<ele>70.9000015258789</ele>
<time>2014-02-15T16:24:33Z</time>
</trkpt>
<trkpt lat="52.65928649902344" lon="12.964592933654785">
<ele>70.80000305175781</ele>
<time>2014-02-15T16:24:34Z</time>
</trkpt>
<trkpt lat="52.65929412841797" lon="12.964513778686523">
<ele>71.0</ele>
<time>2014-02-15T16:24:35Z</time>
</trkpt>
<trkpt lat="52.659297943115234" lon="12.964436531066895">
<ele>71.0999984741211</ele>
<time>2014-02-15T16:24:36Z</time>
</trkpt>
<trkpt lat="52.6593017578125" lon="12.964362144470215">
<ele>71.5999984741211</ele>
<time>2014-02-15T16:24:37Z</time>
</trkpt>
<trkpt lat="52.659305572509766" lon="12.964286804199219">
<ele>71.80000305175781</ele>
<time>2014-02-15T16:24:38Z</time>
</trkpt>
<trkpt lat="52.65930938720703" lon="12.964207649230957">
<ele>71.9000015258789</ele>
<time>2014-02-15T16:24:39Z</time>
</trkpt>
<trkpt lat="52.65930938720703" lon="12.964132308959961">
<ele>72.0999984741211</ele>
<time>2014-02-15T16:24:40Z</time>
</trkpt>
<trkpt lat="52.6593132019043" lon="12.964055061340332">
<ele>72.0</ele>
<time>2014-02-15T16:24:41Z</time>
</trkpt>
<trkpt lat="52.6593132019043" lon="12.96397590637207">
<ele>72.19999694824219</ele>
<time>2014-02-15T16:24:42Z</time>
</trkpt>
<trkpt lat="52.6593132019043" lon="12.963898658752441">
<ele>72.4000015258789</ele>
<time>2014-02-15T16:24:43Z</time>
</trkpt>
<trkpt lat="52.65931701660156" lon="12.963820457458496">
<ele>72.0999984741211</ele>
<time>2014-02-15T16:24:44Z</time>
</trkpt>
<trkpt lat="52.65931701660156" lon="12.96374225616455">
<ele>72.0999984741211</ele>
<time>2014-02-15T16:24:45Z</time>
</trkpt>
<trkpt lat="52.6593132019043" lon="12.963663101196289">
<ele>72.0</ele>
<time>2014-02-15T16:24:46Z</time>
</trkpt>
<trkpt lat="52.65930938720703" lon="12.963582038879395">
<ele>71.80000305175781</ele>
<time>2014-02-15T16:24:47Z</time>
</trkpt>
<trkpt lat="52.65930938720703" lon="12.963501930236816">
<ele>71.9000015258789</ele>
<time>2014-02-15T16:24:48Z</time>
</trkpt>
<trkpt lat="52.659305572509766" lon="12.963427543640137">
<ele>71.80000305175781</ele>
<time>2014-02-15T16:24:49Z</time>
</trkpt>
<trkpt lat="52.659305572509766" lon="12.963348388671875">
<ele>71.80000305175781</ele>
<time>2014-02-15T16:24:50Z</time>
</trkpt>
<trkpt lat="52.6593017578125" lon="12.963274002075195">
<ele>71.5999984741211</ele>
<time>2014-02-15T16:24:51Z</time>
</trkpt>
<trkpt lat="52.659297943115234" lon="12.963194847106934">
<ele>71.80000305175781</ele>
<time>2014-02-15T16:24:52Z</time>
</trkpt>
<trkpt lat="52.65929412841797" lon="12.963117599487305">
<ele>71.9000015258789</ele>
<time>2014-02-15T16:24:53Z</time>
</trkpt>
<trkpt lat="52.6592903137207" lon="12.96303939819336">
<ele>72.0</ele>
<time>2014-02-15T16:24:54Z</time>
</trkpt>
<trkpt lat="52.65928268432617" lon="12.962960243225098">
<ele>71.9000015258789</ele>
<time>2014-02-15T16:24:55Z</time>
</trkpt>
<trkpt lat="52.65927505493164" lon="12.962885856628418">
<ele>71.69999694824219</ele>
<time>2014-02-15T16:24:56Z</time>
</trkpt>
<trkpt lat="52.659263610839844" lon="12.962810516357422">
<ele>71.69999694824219</ele>
<time>2014-02-15T16:24:57Z</time>
</trkpt>
<trkpt lat="52.65925598144531" lon="12.962735176086426">
<ele>71.5999984741211</ele>
<time>2014-02-15T16:24:58Z</time>
</trkpt>
<trkpt lat="52.659244537353516" lon="12.962662696838379">
<ele>71.5999984741211</ele>
<time>2014-02-15T16:24:59Z</time>
</trkpt>
<trkpt lat="52.659236907958984" lon="12.9625883102417">
<ele>71.5</ele>
<time>2014-02-15T16:25:00Z</time>
</trkpt>
<trkpt lat="52.65923309326172" lon="12.962512016296387">
<ele>71.4000015258789</ele>
<time>2014-02-15T16:25:01Z</time>
</trkpt>
<trkpt lat="52.65922164916992" lon="12.962431907653809">
<ele>71.30000305175781</ele>
<time>2014-02-15T16:25:02Z</time>
</trkpt>
<trkpt lat="52.659217834472656" lon="12.962355613708496">
<ele>71.30000305175781</ele>
<time>2014-02-15T16:25:03Z</time>
</trkpt>
<trkpt lat="52.659217834472656" lon="12.962279319763184">
<ele>71.5</ele>
<time>2014-02-15T16:25:04Z</time>
</trkpt>
<trkpt lat="52.65921401977539" lon="12.962203025817871">
<ele>71.5</ele>
<time>2014-02-15T16:25:05Z</time>
</trkpt>
<trkpt lat="52.659210205078125" lon="12.962126731872559">
<ele>71.5999984741211</ele>
<time>2014-02-15T16:25:06Z</time>
</trkpt>
<trkpt lat="52.65920639038086" lon="12.96204662322998">
<ele>71.5999984741211</ele>
<time>2014-02-15T16:25:07Z</time>
</trkpt>
<trkpt lat="52.65918731689453" lon="12.961973190307617">
<ele>71.5</ele>
<time>2014-02-15T16:25:08Z</time>
</trkpt>
<trkpt lat="52.659175872802734" lon="12.961893081665039">
<ele>71.69999694824219</ele>
<time>2014-02-15T16:25:09Z</time>
</trkpt>
<trkpt lat="52.659156799316406" lon="12.961823463439941">
<ele>72.0</ele>
<time>2014-02-15T16:25:10Z</time>
</trkpt>
<trkpt lat="52.65914535522461" lon="12.961748123168945">
<ele>72.19999694824219</ele>
<time>2014-02-15T16:25:11Z</time>
</trkpt>
<trkpt lat="52.65913009643555" lon="12.961677551269531">
<ele>72.4000015258789</ele>
<time>2014-02-15T16:25:12Z</time>
</trkpt>
<trkpt lat="52.659114837646484" lon="12.961601257324219">
<ele>72.5999984741211</ele>
<time>2014-02-15T16:25:13Z</time>
</trkpt>
<trkpt lat="52.65909194946289" lon="12.961456298828125">
<ele>71.5999984741211</ele>
<time>2014-02-15T16:25:15Z</time>
</trkpt>
<trkpt lat="52.65907669067383" lon="12.961380958557129">
<ele>71.69999694824219</ele>
<time>2014-02-15T16:25:16Z</time>
</trkpt>
<trkpt lat="52.659061431884766" lon="12.961297988891602">
<ele>72.0999984741211</ele>
<time>2014-02-15T16:25:17Z</time>
</trkpt>
<trkpt lat="52.6590461730957" lon="12.961227416992188">
<ele>72.19999694824219</ele>
<time>2014-02-15T16:25:18Z</time>
</trkpt>
<trkpt lat="52.65903091430664" lon="12.961156845092773">
<ele>72.30000305175781</ele>
<time>2014-02-15T16:25:19Z</time>
</trkpt>
<trkpt lat="52.659019470214844" lon="12.961084365844727">
<ele>71.9000015258789</ele>
<time>2014-02-15T16:25:20Z</time>
</trkpt>
<trkpt lat="52.65900421142578" lon="12.961010932922363">
<ele>71.80000305175781</ele>
<time>2014-02-15T16:25:21Z</time>
</trkpt>
<trkpt lat="52.658992767333984" lon="12.960936546325684">
<ele>71.69999694824219</ele>
<time>2014-02-15T16:25:22Z</time>
</trkpt>
<trkpt lat="52.65897750854492" lon="12.96086597442627">
<ele>71.80000305175781</ele>
<time>2014-02-15T16:25:23Z</time>
</trkpt>
<trkpt lat="52.65895462036133" lon="12.960722923278809">
<ele>72.19999694824219</ele>
<time>2014-02-15T16:25:25Z</time>
</trkpt>
<trkpt lat="52.65894317626953" lon="12.960649490356445">
<ele>72.19999694824219</ele>
<time>2014-02-15T16:25:26Z</time>
</trkpt>
<trkpt lat="52.658939361572266" lon="12.960576057434082">
<ele>72.0</ele>
<time>2014-02-15T16:25:27Z</time>
</trkpt>
<trkpt lat="52.658931732177734" lon="12.960424423217773">
<ele>71.69999694824219</ele>
<time>2014-02-15T16:25:29Z</time>
</trkpt>
<trkpt lat="52.65892791748047" lon="12.960350036621094">
<ele>71.69999694824219</ele>
<time>2014-02-15T16:25:30Z</time>
</trkpt>
<trkpt lat="52.65892791748047" lon="12.960274696350098">
<ele>71.69999694824219</ele>
<time>2014-02-15T16:25:31Z</time>
</trkpt>
<trkpt lat="52.658931732177734" lon="12.960200309753418">
<ele>71.80000305175781</ele>
<time>2014-02-15T16:25:32Z</time>
</trkpt>
<trkpt lat="52.658939361572266" lon="12.960054397583008">
<ele>72.19999694824219</ele>
<time>2014-02-15T16:25:34Z</time>
</trkpt>
<trkpt lat="52.65894317626953" lon="12.959978103637695">
<ele>72.0999984741211</ele>
<time>2014-02-15T16:25:35Z</time>
</trkpt>
<trkpt lat="52.65894317626953" lon="12.9599027633667">
<ele>72.19999694824219</ele>
<time>2014-02-15T16:25:36Z</time>
</trkpt>
<trkpt lat="52.65895462036133" lon="12.959759712219238">
<ele>72.5</ele>
<time>2014-02-15T16:25:38Z</time>
</trkpt>
<trkpt lat="52.658966064453125" lon="12.959611892700195">
<ele>72.9000015258789</ele>
<time>2014-02-15T16:25:40Z</time>
</trkpt>
<trkpt lat="52.65897750854492" lon="12.9595365524292">
<ele>73.0</ele>
<time>2014-02-15T16:25:41Z</time>
</trkpt>
<trkpt lat="52.65898513793945" lon="12.959455490112305">
<ele>73.0999984741211</ele>
<time>2014-02-15T16:25:42Z</time>
</trkpt>
<trkpt lat="52.65899658203125" lon="12.959381103515625">
<ele>72.80000305175781</ele>
<time>2014-02-15T16:25:43Z</time>
</trkpt>
<trkpt lat="52.65900802612305" lon="12.959306716918945">
<ele>72.69999694824219</ele>
<time>2014-02-15T16:25:44Z</time>
</trkpt>
<trkpt lat="52.659019470214844" lon="12.959229469299316">
<ele>72.80000305175781</ele>
<time>2014-02-15T16:25:45Z</time>
</trkpt>
<trkpt lat="52.65903091430664" lon="12.959145545959473">
<ele>72.9000015258789</ele>
<time>2014-02-15T16:25:46Z</time>
</trkpt>
<trkpt lat="52.6590461730957" lon="12.959060668945312">
<ele>72.5999984741211</ele>
<time>2014-02-15T16:25:47Z</time>
</trkpt>
<trkpt lat="52.6590576171875" lon="12.95897388458252">
<ele>72.69999694824219</ele>
<time>2014-02-15T16:25:48Z</time>
</trkpt>
<trkpt lat="52.6590690612793" lon="12.958887100219727">
<ele>72.4000015258789</ele>
<time>2014-02-15T16:25:49Z</time>
</trkpt>
<trkpt lat="52.659080505371094" lon="12.95880126953125">
<ele>72.30000305175781</ele>
<time>2014-02-15T16:25:50Z</time>
</trkpt>
<trkpt lat="52.659088134765625" lon="12.958715438842773">
<ele>72.69999694824219</ele>
<time>2014-02-15T16:25:51Z</time>
</trkpt>
<trkpt lat="52.65909957885742" lon="12.95862102508545">
<ele>72.69999694824219</ele>
<time>2014-02-15T16:25:52Z</time>
</trkpt>
<trkpt lat="52.65911102294922" lon="12.958534240722656">
<ele>72.69999694824219</ele>
<time>2014-02-15T16:25:53Z</time>
</trkpt>
<trkpt lat="52.659122467041016" lon="12.958444595336914">
<ele>72.80000305175781</ele>
<time>2014-02-15T16:25:54Z</time>
</trkpt>
<trkpt lat="52.65913391113281" lon="12.958356857299805">
<ele>72.5</ele>
<time>2014-02-15T16:25:55Z</time>
</trkpt>
<trkpt lat="52.65914535522461" lon="12.958267211914062">
<ele>72.5999984741211</ele>
<time>2014-02-15T16:25:56Z</time>
</trkpt>
<trkpt lat="52.659156799316406" lon="12.958179473876953">
<ele>72.4000015258789</ele>
<time>2014-02-15T16:25:57Z</time>
</trkpt>
<trkpt lat="52.6591682434082" lon="12.958091735839844">
<ele>72.19999694824219</ele>
<time>2014-02-15T16:25:58Z</time>
</trkpt>
<trkpt lat="52.659175872802734" lon="12.958003997802734">
<ele>72.0</ele>
<time>2014-02-15T16:25:59Z</time>
</trkpt>
<trkpt lat="52.6591796875" lon="12.957916259765625">
<ele>72.0</ele>
<time>2014-02-15T16:26:00Z</time>
</trkpt>
<trkpt lat="52.65918731689453" lon="12.957825660705566">
<ele>71.5</ele>
<time>2014-02-15T16:26:01Z</time>
</trkpt>
<trkpt lat="52.65919876098633" lon="12.957732200622559">
<ele>71.80000305175781</ele>
<time>2014-02-15T16:26:02Z</time>
</trkpt>
<trkpt lat="52.659202575683594" lon="12.957643508911133">
<ele>71.5999984741211</ele>
<time>2014-02-15T16:26:03Z</time>
</trkpt>
<trkpt lat="52.65920639038086" lon="12.957555770874023">
<ele>71.4000015258789</ele>
<time>2014-02-15T16:26:04Z</time>
</trkpt>
<trkpt lat="52.659210205078125" lon="12.957467079162598">
<ele>71.5999984741211</ele>
<time>2014-02-15T16:26:05Z</time>
</trkpt>
<trkpt lat="52.65921401977539" lon="12.957377433776855">
<ele>71.69999694824219</ele>
<time>2014-02-15T16:26:06Z</time>
</trkpt>
<trkpt lat="52.659217834472656" lon="12.957289695739746">
<ele>71.5999984741211</ele>
<time>2014-02-15T16:26:07Z</time>
</trkpt>
<trkpt lat="52.659217834472656" lon="12.95720100402832">
<ele>71.4000015258789</ele>
<time>2014-02-15T16:26:08Z</time>
</trkpt>
<trkpt lat="52.65921401977539" lon="12.957109451293945">
<ele>71.30000305175781</ele>
<time>2014-02-15T16:26:09Z</time>
</trkpt>
<trkpt lat="52.659210205078125" lon="12.95702075958252">
<ele>71.19999694824219</ele>
<time>2014-02-15T16:26:10Z</time>
</trkpt>
<trkpt lat="52.659210205078125" lon="12.95693302154541">
<ele>71.0</ele>
<time>2014-02-15T16:26:11Z</time>
</trkpt>
<trkpt lat="52.65920639038086" lon="12.956847190856934">
<ele>70.9000015258789</ele>
<time>2014-02-15T16:26:12Z</time>
</trkpt>
<trkpt lat="52.659202575683594" lon="12.95676040649414">
<ele>70.9000015258789</ele>
<time>2014-02-15T16:26:13Z</time>
</trkpt>
<trkpt lat="52.65919876098633" lon="12.956673622131348">
<ele>71.0</ele>
<time>2014-02-15T16:26:14Z</time>
</trkpt>
<trkpt lat="52.6591911315918" lon="12.956599235534668">
<ele>70.4000015258789</ele>
<time>2014-02-15T16:26:15Z</time>
</trkpt>
<trkpt lat="52.659183502197266" lon="12.95651912689209">
<ele>70.30000305175781</ele>
<time>2014-02-15T16:26:16Z</time>
</trkpt>
<trkpt lat="52.659183502197266" lon="12.956441879272461">
<ele>70.0</ele>
<time>2014-02-15T16:26:17Z</time>
</trkpt>
<trkpt lat="52.659175872802734" lon="12.956358909606934">
<ele>69.5999984741211</ele>
<time>2014-02-15T16:26:18Z</time>
</trkpt>
<trkpt lat="52.65917205810547" lon="12.956274032592773">
<ele>69.5</ele>
<time>2014-02-15T16:26:19Z</time>
</trkpt>
<trkpt lat="52.6591682434082" lon="12.956192016601562">
<ele>69.5999984741211</ele>
<time>2014-02-15T16:26:20Z</time>
</trkpt>
<trkpt lat="52.65916442871094" lon="12.956108093261719">
<ele>69.19999694824219</ele>
<time>2014-02-15T16:26:21Z</time>
</trkpt>
<trkpt lat="52.659156799316406" lon="12.956021308898926">
<ele>68.9000015258789</ele>
<time>2014-02-15T16:26:22Z</time>
</trkpt>
<trkpt lat="52.659156799316406" lon="12.955936431884766">
<ele>68.80000305175781</ele>
<time>2014-02-15T16:26:23Z</time>
</trkpt>
<trkpt lat="52.659149169921875" lon="12.955850601196289">
<ele>68.69999694824219</ele>
<time>2014-02-15T16:26:24Z</time>
</trkpt>
<trkpt lat="52.65914535522461" lon="12.955763816833496">
<ele>68.5</ele>
<time>2014-02-15T16:26:25Z</time>
</trkpt>
<trkpt lat="52.659141540527344" lon="12.955680847167969">
<ele>68.4000015258789</ele>
<time>2014-02-15T16:26:26Z</time>
</trkpt>
<trkpt lat="52.65913391113281" lon="12.955599784851074">
<ele>68.0</ele>
<time>2014-02-15T16:26:27Z</time>
</trkpt>
<trkpt lat="52.65913009643555" lon="12.955513000488281">
<ele>68.0</ele>
<time>2014-02-15T16:26:28Z</time>
</trkpt>
<trkpt lat="52.65912628173828" lon="12.955431938171387">
<ele>67.9000015258789</ele>
<time>2014-02-15T16:26:29Z</time>
</trkpt>
<trkpt lat="52.659122467041016" lon="12.95534610748291">
<ele>68.0999984741211</ele>
<time>2014-02-15T16:26:30Z</time>
</trkpt>
<trkpt lat="52.659114837646484" lon="12.955267906188965">
<ele>67.80000305175781</ele>
<time>2014-02-15T16:26:31Z</time>
</trkpt>
<trkpt lat="52.65911102294922" lon="12.955184936523438">
<ele>67.80000305175781</ele>
<time>2014-02-15T16:26:32Z</time>
</trkpt>
<trkpt lat="52.65910720825195" lon="12.955099105834961">
<ele>67.80000305175781</ele>
<time>2014-02-15T16:26:33Z</time>
</trkpt>
<trkpt lat="52.65910339355469" lon="12.955012321472168">
<ele>67.69999694824219</ele>
<time>2014-02-15T16:26:34Z</time>
</trkpt>
<trkpt lat="52.659095764160156" lon="12.954924583435059">
<ele>67.69999694824219</ele>
<time>2014-02-15T16:26:35Z</time>
</trkpt>
<trkpt lat="52.65909194946289" lon="12.95484447479248">
<ele>67.5</ele>
<time>2014-02-15T16:26:36Z</time>
</trkpt>
<trkpt lat="52.65908432006836" lon="12.954763412475586">
<ele>67.30000305175781</ele>
<time>2014-02-15T16:26:37Z</time>
</trkpt>
<trkpt lat="52.659080505371094" lon="12.954681396484375">
<ele>66.80000305175781</ele>
<time>2014-02-15T16:26:38Z</time>
</trkpt>
<trkpt lat="52.65907669067383" lon="12.954593658447266">
<ele>66.5</ele>
<time>2014-02-15T16:26:39Z</time>
</trkpt>
<trkpt lat="52.65907287597656" lon="12.954505920410156">
<ele>66.5999984741211</ele>
<time>2014-02-15T16:26:40Z</time>
</trkpt>
<trkpt lat="52.65906524658203" lon="12.954421043395996">
<ele>66.80000305175781</ele>
<time>2014-02-15T16:26:41Z</time>
</trkpt>
<trkpt lat="52.6590576171875" lon="12.954336166381836">
<ele>66.9000015258789</ele>
<time>2014-02-15T16:26:42Z</time>
</trkpt>
<trkpt lat="52.659053802490234" lon="12.95425033569336">
<ele>67.0999984741211</ele>
<time>2014-02-15T16:26:43Z</time>
</trkpt>
<trkpt lat="52.65904998779297" lon="12.954167366027832">
<ele>67.0</ele>
<time>2014-02-15T16:26:44Z</time>
</trkpt>
<trkpt lat="52.6590461730957" lon="12.954083442687988">
<ele>67.0</ele>
<time>2014-02-15T16:26:45Z</time>
</trkpt>
<trkpt lat="52.65904235839844" lon="12.953998565673828">
<ele>66.80000305175781</ele>
<time>2014-02-15T16:26:46Z</time>
</trkpt>
<trkpt lat="52.65903854370117" lon="12.953914642333984">
<ele>66.9000015258789</ele>
<time>2014-02-15T16:26:47Z</time>
</trkpt>
<trkpt lat="52.659034729003906" lon="12.953825950622559">
<ele>66.9000015258789</ele>
<time>2014-02-15T16:26:48Z</time>
</trkpt>
<trkpt lat="52.65903091430664" lon="12.953736305236816">
<ele>66.69999694824219</ele>
<time>2014-02-15T16:26:49Z</time>
</trkpt>
<trkpt lat="52.65903091430664" lon="12.953646659851074">
<ele>66.9000015258789</ele>
<time>2014-02-15T16:26:50Z</time>
</trkpt>
<trkpt lat="52.659027099609375" lon="12.953559875488281">
<ele>66.69999694824219</ele>
<time>2014-02-15T16:26:51Z</time>
</trkpt>
<trkpt lat="52.65902328491211" lon="12.953469276428223">
<ele>66.30000305175781</ele>
<time>2014-02-15T16:26:52Z</time>
</trkpt>
<trkpt lat="52.659019470214844" lon="12.953380584716797">
<ele>66.5</ele>
<time>2014-02-15T16:26:53Z</time>
</trkpt>
<trkpt lat="52.65901565551758" lon="12.953290939331055">
<ele>66.4000015258789</ele>
<time>2014-02-15T16:26:54Z</time>
</trkpt>
<trkpt lat="52.65901184082031" lon="12.953203201293945">
<ele>66.4000015258789</ele>
<time>2014-02-15T16:26:55Z</time>
</trkpt>
<trkpt lat="52.65900802612305" lon="12.953116416931152">
<ele>66.4000015258789</ele>
<time>2014-02-15T16:26:56Z</time>
</trkpt>
<trkpt lat="52.65900421142578" lon="12.953032493591309">
<ele>66.5999984741211</ele>
<time>2014-02-15T16:26:57Z</time>
</trkpt>
<trkpt lat="52.65899658203125" lon="12.952950477600098">
<ele>66.4000015258789</ele>
<time>2014-02-15T16:26:58Z</time>
</trkpt>
<trkpt lat="52.65899658203125" lon="12.952858924865723">
<ele>66.0999984741211</ele>
<time>2014-02-15T16:26:59Z</time>
</trkpt>
<trkpt lat="52.65898513793945" lon="12.952764511108398">
<ele>65.0999984741211</ele>
<time>2014-02-15T16:27:00Z</time>
</trkpt>
<trkpt lat="52.65898513793945" lon="12.952681541442871">
<ele>65.30000305175781</ele>
<time>2014-02-15T16:27:01Z</time>
</trkpt>
<trkpt lat="52.65898513793945" lon="12.952594757080078">
<ele>65.9000015258789</ele>
<time>2014-02-15T16:27:02Z</time>
</trkpt>
<trkpt lat="52.65898513793945" lon="12.952502250671387">
<ele>66.30000305175781</ele>
<time>2014-02-15T16:27:03Z</time>
</trkpt>
<trkpt lat="52.65898513793945" lon="12.952421188354492">
<ele>66.80000305175781</ele>
<time>2014-02-15T16:27:04Z</time>
</trkpt>
<trkpt lat="52.65898132324219" lon="12.952340126037598">
<ele>67.19999694824219</ele>
<time>2014-02-15T16:27:05Z</time>
</trkpt>
<trkpt lat="52.65897750854492" lon="12.952259063720703">
<ele>67.19999694824219</ele>
<time>2014-02-15T16:27:06Z</time>
</trkpt>
<trkpt lat="52.658973693847656" lon="12.952170372009277">
<ele>67.30000305175781</ele>
<time>2014-02-15T16:27:07Z</time>
</trkpt>
<trkpt lat="52.65896987915039" lon="12.95208740234375">
<ele>67.69999694824219</ele>
<time>2014-02-15T16:27:08Z</time>
</trkpt>
<trkpt lat="52.65896987915039" lon="12.952005386352539">
<ele>67.69999694824219</ele>
<time>2014-02-15T16:27:09Z</time>
</trkpt>
<trkpt lat="52.658966064453125" lon="12.951915740966797">
<ele>67.80000305175781</ele>
<time>2014-02-15T16:27:10Z</time>
</trkpt>
<trkpt lat="52.658958435058594" lon="12.95183277130127">
<ele>67.80000305175781</ele>
<time>2014-02-15T16:27:11Z</time>
</trkpt>
<trkpt lat="52.658958435058594" lon="12.951748847961426">
<ele>68.0</ele>
<time>2014-02-15T16:27:12Z</time>
</trkpt>
<trkpt lat="52.65895462036133" lon="12.951665878295898">
<ele>68.4000015258789</ele>
<time>2014-02-15T16:27:13Z</time>
</trkpt>
<trkpt lat="52.6589469909668" lon="12.951586723327637">
<ele>68.4000015258789</ele>
<time>2014-02-15T16:27:14Z</time>
</trkpt>
<trkpt lat="52.65894317626953" lon="12.95150375366211">
<ele>68.5999984741211</ele>
<time>2014-02-15T16:27:15Z</time>
</trkpt>
<trkpt lat="52.658935546875" lon="12.95141887664795">
<ele>68.5</ele>
<time>2014-02-15T16:27:16Z</time>
</trkpt>
<trkpt lat="52.65892791748047" lon="12.951333045959473">
<ele>68.69999694824219</ele>
<time>2014-02-15T16:27:17Z</time>
</trkpt>
<trkpt lat="52.65891647338867" lon="12.951252937316895">
<ele>68.5</ele>
<time>2014-02-15T16:27:18Z</time>
</trkpt>
<trkpt lat="52.65890884399414" lon="12.951167106628418">
<ele>68.5</ele>
<time>2014-02-15T16:27:19Z</time>
</trkpt>
<trkpt lat="52.658905029296875" lon="12.95108413696289">
<ele>68.69999694824219</ele>
<time>2014-02-15T16:27:20Z</time>
</trkpt>
<trkpt lat="52.658897399902344" lon="12.951001167297363">
<ele>68.5</ele>
<time>2014-02-15T16:27:21Z</time>
</trkpt>
<trkpt lat="52.658897399902344" lon="12.950916290283203">
<ele>68.5999984741211</ele>
<time>2014-02-15T16:27:22Z</time>
</trkpt>
<trkpt lat="52.65888977050781" lon="12.950835227966309">
<ele>68.80000305175781</ele>
<time>2014-02-15T16:27:23Z</time>
</trkpt>
<trkpt lat="52.65888595581055" lon="12.950751304626465">
<ele>68.80000305175781</ele>
<time>2014-02-15T16:27:24Z</time>
</trkpt>
<trkpt lat="52.65888595581055" lon="12.950666427612305">
<ele>69.19999694824219</ele>
<time>2014-02-15T16:27:25Z</time>
</trkpt>
<trkpt lat="52.65888214111328" lon="12.950587272644043">
<ele>69.4000015258789</ele>
<time>2014-02-15T16:27:26Z</time>
</trkpt>
<trkpt lat="52.65888214111328" lon="12.950504302978516">
<ele>69.4000015258789</ele>
<time>2014-02-15T16:27:27Z</time>
</trkpt>
<trkpt lat="52.65888214111328" lon="12.950419425964355">
<ele>69.0999984741211</ele>
<time>2014-02-15T16:27:28Z</time>
</trkpt>
<trkpt lat="52.65888214111328" lon="12.950338363647461">
<ele>69.19999694824219</ele>
<time>2014-02-15T16:27:29Z</time>
</trkpt>
<trkpt lat="52.65888595581055" lon="12.950255393981934">
<ele>69.0</ele>
<time>2014-02-15T16:27:30Z</time>
</trkpt>
<trkpt lat="52.658878326416016" lon="12.950169563293457">
<ele>69.0</ele>
<time>2014-02-15T16:27:31Z</time>
</trkpt>
<trkpt lat="52.658878326416016" lon="12.950081825256348">
<ele>69.0999984741211</ele>
<time>2014-02-15T16:27:32Z</time>
</trkpt>
<trkpt lat="52.65888214111328" lon="12.94999885559082">
<ele>69.19999694824219</ele>
<time>2014-02-15T16:27:33Z</time>
</trkpt>
<trkpt lat="52.65888595581055" lon="12.949918746948242">
<ele>69.0999984741211</ele>
<time>2014-02-15T16:27:34Z</time>
</trkpt>
<trkpt lat="52.65888977050781" lon="12.949836730957031">
<ele>69.0999984741211</ele>
<time>2014-02-15T16:27:35Z</time>
</trkpt>
<trkpt lat="52.658897399902344" lon="12.94975471496582">
<ele>69.0</ele>
<time>2014-02-15T16:27:36Z</time>
</trkpt>
<trkpt lat="52.65890121459961" lon="12.949661254882812">
<ele>68.80000305175781</ele>
<time>2014-02-15T16:27:37Z</time>
</trkpt>
<trkpt lat="52.65890884399414" lon="12.949570655822754">
<ele>69.0</ele>
<time>2014-02-15T16:27:38Z</time>
</trkpt>
<trkpt lat="52.658912658691406" lon="12.94948959350586">
<ele>69.19999694824219</ele>
<time>2014-02-15T16:27:39Z</time>
</trkpt>
<trkpt lat="52.65892028808594" lon="12.9494047164917">
<ele>69.5</ele>
<time>2014-02-15T16:27:40Z</time>
</trkpt>
<trkpt lat="52.65892028808594" lon="12.94931697845459">
<ele>69.4000015258789</ele>
<time>2014-02-15T16:27:41Z</time>
</trkpt>
<trkpt lat="52.65892791748047" lon="12.949241638183594">
<ele>69.4000015258789</ele>
<time>2014-02-15T16:27:42Z</time>
</trkpt>
<trkpt lat="52.65894317626953" lon="12.949156761169434">
<ele>70.0</ele>
<time>2014-02-15T16:27:43Z</time>
</trkpt>
<trkpt lat="52.658939361572266" lon="12.949068069458008">
<ele>70.30000305175781</ele>
<time>2014-02-15T16:27:44Z</time>
</trkpt>
<trkpt lat="52.658939361572266" lon="12.948973655700684">
<ele>70.19999694824219</ele>
<time>2014-02-15T16:27:45Z</time>
</trkpt>
<trkpt lat="52.6589469909668" lon="12.948868751525879">
<ele>70.5</ele>
<time>2014-02-15T16:27:46Z</time>
</trkpt>
<trkpt lat="52.658958435058594" lon="12.948759078979492">
<ele>70.69999694824219</ele>
<time>2014-02-15T16:27:47Z</time>
</trkpt>
<trkpt lat="52.658966064453125" lon="12.9486722946167">
<ele>71.30000305175781</ele>
<time>2014-02-15T16:27:48Z</time>
</trkpt>
<trkpt lat="52.658973693847656" lon="12.948585510253906">
<ele>71.5999984741211</ele>
<time>2014-02-15T16:27:49Z</time>
</trkpt>
<trkpt lat="52.65897750854492" lon="12.948500633239746">
<ele>71.5</ele>
<time>2014-02-15T16:27:50Z</time>
</trkpt>
<trkpt lat="52.65898132324219" lon="12.948410034179688">
<ele>71.5</ele>
<time>2014-02-15T16:27:51Z</time>
</trkpt>
<trkpt lat="52.65898132324219" lon="12.94832992553711">
<ele>71.69999694824219</ele>
<time>2014-02-15T16:27:52Z</time>
</trkpt>
<trkpt lat="52.65896987915039" lon="12.948251724243164">
<ele>72.0</ele>
<time>2014-02-15T16:27:53Z</time>
</trkpt>
<trkpt lat="52.65897750854492" lon="12.948179244995117">
<ele>71.9000015258789</ele>
<time>2014-02-15T16:27:54Z</time>
</trkpt>
<trkpt lat="52.658992767333984" lon="12.948036193847656">
<ele>71.5</ele>
<time>2014-02-15T16:27:56Z</time>
</trkpt>
<trkpt lat="52.659000396728516" lon="12.947885513305664">
<ele>72.0</ele>
<time>2014-02-15T16:27:58Z</time>
</trkpt>
<trkpt lat="52.65899658203125" lon="12.947795867919922">
<ele>71.80000305175781</ele>
<time>2014-02-15T16:27:59Z</time>
</trkpt>
<trkpt lat="52.65901565551758" lon="12.947698593139648">
<ele>71.80000305175781</ele>
<time>2014-02-15T16:28:00Z</time>
</trkpt>
<trkpt lat="52.65901565551758" lon="12.947613716125488">
<ele>72.0999984741211</ele>
<time>2014-02-15T16:28:01Z</time>
</trkpt>
<trkpt lat="52.65901565551758" lon="12.947538375854492">
<ele>72.0</ele>
<time>2014-02-15T16:28:02Z</time>
</trkpt>
<trkpt lat="52.659027099609375" lon="12.94743824005127">
<ele>69.80000305175781</ele>
<time>2014-02-15T16:28:03Z</time>
</trkpt>
<trkpt lat="52.659034729003906" lon="12.947358131408691">
<ele>70.0999984741211</ele>
<time>2014-02-15T16:28:04Z</time>
</trkpt>
<trkpt lat="52.65903091430664" lon="12.94721508026123">
<ele>69.69999694824219</ele>
<time>2014-02-15T16:28:06Z</time>
</trkpt>
<trkpt lat="52.659027099609375" lon="12.947132110595703">
<ele>69.9000015258789</ele>
<time>2014-02-15T16:28:07Z</time>
</trkpt>
<trkpt lat="52.65902328491211" lon="12.94698429107666">
<ele>70.19999694824219</ele>
<time>2014-02-15T16:28:09Z</time>
</trkpt>
<trkpt lat="52.659034729003906" lon="12.946901321411133">
<ele>70.4000015258789</ele>
<time>2014-02-15T16:28:10Z</time>
</trkpt>
<trkpt lat="52.65904998779297" lon="12.94682502746582">
<ele>70.30000305175781</ele>
<time>2014-02-15T16:28:11Z</time>
</trkpt>
<trkpt lat="52.659061431884766" lon="12.946727752685547">
<ele>70.5</ele>
<time>2014-02-15T16:28:12Z</time>
</trkpt>
<trkpt lat="52.6590690612793" lon="12.94662857055664">
<ele>70.5999984741211</ele>
<time>2014-02-15T16:28:13Z</time>
</trkpt>
<trkpt lat="52.65907669067383" lon="12.946455001831055">
<ele>71.19999694824219</ele>
<time>2014-02-15T16:28:15Z</time>
</trkpt>
<trkpt lat="52.65907669067383" lon="12.946355819702148">
<ele>71.0</ele>
<time>2014-02-15T16:28:16Z</time>
</trkpt>
<trkpt lat="52.659088134765625" lon="12.946276664733887">
<ele>71.19999694824219</ele>
<time>2014-02-15T16:28:17Z</time>
</trkpt>
<trkpt lat="52.659095764160156" lon="12.946191787719727">
<ele>71.5999984741211</ele>
<time>2014-02-15T16:28:18Z</time>
</trkpt>
<trkpt lat="52.65909957885742" lon="12.946033477783203">
<ele>72.5999984741211</ele>
<time>2014-02-15T16:28:20Z</time>
</trkpt>
<trkpt lat="52.65911102294922" lon="12.945959091186523">
<ele>72.80000305175781</ele>
<time>2014-02-15T16:28:21Z</time>
</trkpt>
<trkpt lat="52.65913391113281" lon="12.945893287658691">
<ele>72.69999694824219</ele>
<time>2014-02-15T16:28:22Z</time>
</trkpt>
<trkpt lat="52.65913772583008" lon="12.945804595947266">
<ele>73.19999694824219</ele>
<time>2014-02-15T16:28:23Z</time>
</trkpt>
<trkpt lat="52.65913009643555" lon="12.945713996887207">
<ele>73.69999694824219</ele>
<time>2014-02-15T16:28:24Z</time>
</trkpt>
<trkpt lat="52.65913009643555" lon="12.945611000061035">
<ele>74.0</ele>
<time>2014-02-15T16:28:25Z</time>
</trkpt>
<trkpt lat="52.65912628173828" lon="12.945500373840332">
<ele>74.80000305175781</ele>
<time>2014-02-15T16:28:26Z</time>
</trkpt>
<trkpt lat="52.65911102294922" lon="12.945414543151855">
<ele>75.0</ele>
<time>2014-02-15T16:28:27Z</time>
</trkpt>
<trkpt lat="52.65910339355469" lon="12.945324897766113">
<ele>75.30000305175781</ele>
<time>2014-02-15T16:28:28Z</time>
</trkpt>
<trkpt lat="52.65909957885742" lon="12.945233345031738">
<ele>75.9000015258789</ele>
<time>2014-02-15T16:28:29Z</time>
</trkpt>
<trkpt lat="52.659088134765625" lon="12.945158958435059">
<ele>75.4000015258789</ele>
<time>2014-02-15T16:28:30Z</time>
</trkpt>
<trkpt lat="52.659095764160156" lon="12.945072174072266">
<ele>75.5</ele>
<time>2014-02-15T16:28:31Z</time>
</trkpt>
<trkpt lat="52.65909194946289" lon="12.944991111755371">
<ele>75.0</ele>
<time>2014-02-15T16:28:32Z</time>
</trkpt>
<trkpt lat="52.65911102294922" lon="12.944891929626465">
<ele>75.0</ele>
<time>2014-02-15T16:28:33Z</time>
</trkpt>
<trkpt lat="52.659114837646484" lon="12.944814682006836">
<ele>74.5</ele>
<time>2014-02-15T16:28:34Z</time>
</trkpt>
<trkpt lat="52.65911102294922" lon="12.944725036621094">
<ele>75.0</ele>
<time>2014-02-15T16:28:35Z</time>
</trkpt>
<trkpt lat="52.65911865234375" lon="12.944634437561035">
<ele>74.0999984741211</ele>
<time>2014-02-15T16:28:36Z</time>
</trkpt>
<trkpt lat="52.65911865234375" lon="12.944544792175293">
<ele>73.9000015258789</ele>
<time>2014-02-15T16:28:37Z</time>
</trkpt>
<trkpt lat="52.65913009643555" lon="12.944456100463867">
<ele>73.4000015258789</ele>
<time>2014-02-15T16:28:38Z</time>
</trkpt>
<trkpt lat="52.65913391113281" lon="12.944378852844238">
<ele>73.80000305175781</ele>
<time>2014-02-15T16:28:39Z</time>
</trkpt>
<trkpt lat="52.65913009643555" lon="12.944258689880371">
<ele>74.69999694824219</ele>
<time>2014-02-15T16:28:41Z</time>
</trkpt>
<trkpt lat="52.65913772583008" lon="12.944184303283691">
<ele>74.5</ele>
<time>2014-02-15T16:28:42Z</time>
</trkpt>
<trkpt lat="52.65915298461914" lon="12.944087028503418">
<ele>73.80000305175781</ele>
<time>2014-02-15T16:28:43Z</time>
</trkpt>
<trkpt lat="52.659175872802734" lon="12.943890571594238">
<ele>74.0</ele>
<time>2014-02-15T16:28:45Z</time>
</trkpt>
<trkpt lat="52.65918731689453" lon="12.94381046295166">
<ele>74.0999984741211</ele>
<time>2014-02-15T16:28:46Z</time>
</trkpt>
<trkpt lat="52.659210205078125" lon="12.943674087524414">
<ele>75.0</ele>
<time>2014-02-15T16:28:48Z</time>
</trkpt>
<trkpt lat="52.65922927856445" lon="12.943603515625">
<ele>74.5999984741211</ele>
<time>2014-02-15T16:28:49Z</time>
</trkpt>
<trkpt lat="52.65925979614258" lon="12.943524360656738">
<ele>74.9000015258789</ele>
<time>2014-02-15T16:28:50Z</time>
</trkpt>
<trkpt lat="52.659271240234375" lon="12.94344711303711">
<ele>74.5999984741211</ele>
<time>2014-02-15T16:28:51Z</time>
</trkpt>
<trkpt lat="52.65929412841797" lon="12.94327449798584">
<ele>73.5</ele>
<time>2014-02-15T16:28:53Z</time>
</trkpt>
<trkpt lat="52.659297943115234" lon="12.94318962097168">
<ele>73.69999694824219</ele>
<time>2014-02-15T16:28:54Z</time>
</trkpt>
<trkpt lat="52.659305572509766" lon="12.943109512329102">
<ele>73.4000015258789</ele>
<time>2014-02-15T16:28:55Z</time>
</trkpt>
<trkpt lat="52.659324645996094" lon="12.943037986755371">
<ele>73.5</ele>
<time>2014-02-15T16:28:56Z</time>
</trkpt>
<trkpt lat="52.659339904785156" lon="12.94296932220459">
<ele>73.0999984741211</ele>
<time>2014-02-15T16:28:57Z</time>
</trkpt>
<trkpt lat="52.659358978271484" lon="12.942886352539062">
<ele>72.80000305175781</ele>
<time>2014-02-15T16:28:58Z</time>
</trkpt>
<trkpt lat="52.65938186645508" lon="12.942791938781738">
<ele>72.19999694824219</ele>
<time>2014-02-15T16:28:59Z</time>
</trkpt>
<trkpt lat="52.659393310546875" lon="12.942715644836426">
<ele>72.5999984741211</ele>
<time>2014-02-15T16:29:00Z</time>
</trkpt>
<trkpt lat="52.65940856933594" lon="12.942643165588379">
<ele>72.30000305175781</ele>
<time>2014-02-15T16:29:01Z</time>
</trkpt>
<trkpt lat="52.659420013427734" lon="12.942560195922852">
<ele>72.0</ele>
<time>2014-02-15T16:29:02Z</time>
</trkpt>
<trkpt lat="52.659423828125" lon="12.94246768951416">
<ele>72.19999694824219</ele>
<time>2014-02-15T16:29:03Z</time>
</trkpt>
<trkpt lat="52.659423828125" lon="12.94237995147705">
<ele>73.30000305175781</ele>
<time>2014-02-15T16:29:04Z</time>
</trkpt>
<trkpt lat="52.659427642822266" lon="12.942241668701172">
<ele>75.0</ele>
<time>2014-02-15T16:29:06Z</time>
</trkpt>
<trkpt lat="52.659427642822266" lon="12.942138671875">
<ele>75.5999984741211</ele>
<time>2014-02-15T16:29:07Z</time>
</trkpt>
<trkpt lat="52.659461975097656" lon="12.942036628723145">
<ele>75.4000015258789</ele>
<time>2014-02-15T16:29:08Z</time>
</trkpt>
<trkpt lat="52.65949249267578" lon="12.941936492919922">
<ele>75.4000015258789</ele>
<time>2014-02-15T16:29:09Z</time>
</trkpt>
<trkpt lat="52.659507751464844" lon="12.94186019897461">
<ele>75.30000305175781</ele>
<time>2014-02-15T16:29:10Z</time>
</trkpt>
<trkpt lat="52.65955352783203" lon="12.94173812866211">
<ele>70.9000015258789</ele>
<time>2014-02-15T16:29:12Z</time>
</trkpt>
<trkpt lat="52.65957260131836" lon="12.941669464111328">
<ele>70.69999694824219</ele>
<time>2014-02-15T16:29:13Z</time>
</trkpt>
<trkpt lat="52.65960693359375" lon="12.941566467285156">
<ele>70.5</ele>
<time>2014-02-15T16:29:15Z</time>
</trkpt>
<trkpt lat="52.65962600708008" lon="12.941427230834961">
<ele>70.0</ele>
<time>2014-02-15T16:29:17Z</time>
</trkpt>
<trkpt lat="52.65962600708008" lon="12.9413480758667">
<ele>70.69999694824219</ele>
<time>2014-02-15T16:29:18Z</time>
</trkpt>
<trkpt lat="52.659629821777344" lon="12.941267013549805">
<ele>71.19999694824219</ele>
<time>2014-02-15T16:29:19Z</time>
</trkpt>
<trkpt lat="52.65964126586914" lon="12.941121101379395">
<ele>71.4000015258789</ele>
<time>2014-02-15T16:29:21Z</time>
</trkpt>
<trkpt lat="52.65965270996094" lon="12.940971374511719">
<ele>71.69999694824219</ele>
<time>2014-02-15T16:29:23Z</time>
</trkpt>
<trkpt lat="52.6596565246582" lon="12.940850257873535">
<ele>72.80000305175781</ele>
<time>2014-02-15T16:29:24Z</time>
</trkpt>
<trkpt lat="52.65966033935547" lon="12.940753936767578">
<ele>73.69999694824219</ele>
<time>2014-02-15T16:29:25Z</time>
</trkpt>
<trkpt lat="52.65966033935547" lon="12.940672874450684">
<ele>74.0999984741211</ele>
<time>2014-02-15T16:29:26Z</time>
</trkpt>
<trkpt lat="52.659664154052734" lon="12.940597534179688">
<ele>74.80000305175781</ele>
<time>2014-02-15T16:29:27Z</time>
</trkpt>
<trkpt lat="52.65966796875" lon="12.94050407409668">
<ele>76.0</ele>
<time>2014-02-15T16:29:28Z</time>
</trkpt>
<trkpt lat="52.6596565246582" lon="12.940417289733887">
<ele>77.5999984741211</ele>
<time>2014-02-15T16:29:29Z</time>
</trkpt>
<trkpt lat="52.659645080566406" lon="12.94033145904541">
<ele>78.19999694824219</ele>
<time>2014-02-15T16:29:30Z</time>
</trkpt>
<trkpt lat="52.65964126586914" lon="12.940239906311035">
<ele>78.19999694824219</ele>
<time>2014-02-15T16:29:31Z</time>
</trkpt>
<trkpt lat="52.65964889526367" lon="12.940143585205078">
<ele>78.5999984741211</ele>
<time>2014-02-15T16:29:32Z</time>
</trkpt>
<trkpt lat="52.65964126586914" lon="12.939996719360352">
<ele>77.4000015258789</ele>
<time>2014-02-15T16:29:34Z</time>
</trkpt>
<trkpt lat="52.65964889526367" lon="12.939915657043457">
<ele>76.9000015258789</ele>
<time>2014-02-15T16:29:35Z</time>
</trkpt>
<trkpt lat="52.65964126586914" lon="12.939764976501465">
<ele>75.0999984741211</ele>
<time>2014-02-15T16:29:37Z</time>
</trkpt>
<trkpt lat="52.6596565246582" lon="12.939682006835938">
<ele>74.5999984741211</ele>
<time>2014-02-15T16:29:38Z</time>
</trkpt>
<trkpt lat="52.659671783447266" lon="12.939597129821777">
<ele>74.69999694824219</ele>
<time>2014-02-15T16:29:39Z</time>
</trkpt>
<trkpt lat="52.65969467163086" lon="12.939513206481934">
<ele>73.9000015258789</ele>
<time>2014-02-15T16:29:40Z</time>
</trkpt>
<trkpt lat="52.65970230102539" lon="12.939423561096191">
<ele>72.80000305175781</ele>
<time>2014-02-15T16:29:41Z</time>
</trkpt>
<trkpt lat="52.65971755981445" lon="12.93934154510498">
<ele>73.30000305175781</ele>
<time>2014-02-15T16:29:42Z</time>
</trkpt>
<trkpt lat="52.65973663330078" lon="12.939250946044922">
<ele>73.69999694824219</ele>
<time>2014-02-15T16:29:43Z</time>
</trkpt>
<trkpt lat="52.65976333618164" lon="12.939167976379395">
<ele>72.9000015258789</ele>
<time>2014-02-15T16:29:44Z</time>
</trkpt>
<trkpt lat="52.65977478027344" lon="12.939065933227539">
<ele>72.80000305175781</ele>
<time>2014-02-15T16:29:45Z</time>
</trkpt>
<trkpt lat="52.6598014831543" lon="12.93897533416748">
<ele>73.19999694824219</ele>
<time>2014-02-15T16:29:47Z</time>
</trkpt>
<trkpt lat="52.65981674194336" lon="12.938895225524902">
<ele>73.0999984741211</ele>
<time>2014-02-15T16:29:50Z</time>
</trkpt>
<trkpt lat="52.65988540649414" lon="12.938673973083496">
<ele>72.80000305175781</ele>
<time>2014-02-15T16:29:51Z</time>
</trkpt>
<trkpt lat="52.659912109375" lon="12.938517570495605">
<ele>72.5</ele>
<time>2014-02-15T16:29:52Z</time>
</trkpt>
<trkpt lat="52.65993118286133" lon="12.938430786132812">
<ele>73.30000305175781</ele>
<time>2014-02-15T16:29:53Z</time>
</trkpt>
<trkpt lat="52.65996551513672" lon="12.938335418701172">
<ele>73.0</ele>
<time>2014-02-15T16:29:54Z</time>
</trkpt>
<trkpt lat="52.660003662109375" lon="12.93818187713623">
<ele>72.69999694824219</ele>
<time>2014-02-15T16:29:56Z</time>
</trkpt>
<trkpt lat="52.66002655029297" lon="12.938089370727539">
<ele>72.9000015258789</ele>
<time>2014-02-15T16:29:57Z</time>
</trkpt>
<trkpt lat="52.6600456237793" lon="12.93798542022705">
<ele>72.9000015258789</ele>
<time>2014-02-15T16:29:58Z</time>
</trkpt>
<trkpt lat="52.66006088256836" lon="12.937901496887207">
<ele>73.0999984741211</ele>
<time>2014-02-15T16:29:59Z</time>
</trkpt>
<trkpt lat="52.660064697265625" lon="12.937828063964844">
<ele>72.69999694824219</ele>
<time>2014-02-15T16:30:00Z</time>
</trkpt>
<trkpt lat="52.66006088256836" lon="12.937724113464355">
<ele>72.69999694824219</ele>
<time>2014-02-15T16:30:01Z</time>
</trkpt>
<trkpt lat="52.660072326660156" lon="12.937614440917969">
<ele>72.19999694824219</ele>
<time>2014-02-15T16:30:02Z</time>
</trkpt>
<trkpt lat="52.66007995605469" lon="12.937517166137695">
<ele>72.5</ele>
<time>2014-02-15T16:30:03Z</time>
</trkpt>
<trkpt lat="52.66006851196289" lon="12.937435150146484">
<ele>72.5999984741211</ele>
<time>2014-02-15T16:30:04Z</time>
</trkpt>
<trkpt lat="52.66006088256836" lon="12.937342643737793">
<ele>73.0</ele>
<time>2014-02-15T16:30:05Z</time>
</trkpt>
<trkpt lat="52.66004943847656" lon="12.937225341796875">
<ele>72.30000305175781</ele>
<time>2014-02-15T16:30:06Z</time>
</trkpt>
<trkpt lat="52.6600341796875" lon="12.937117576599121">
<ele>72.5</ele>
<time>2014-02-15T16:30:07Z</time>
</trkpt>
<trkpt lat="52.66001892089844" lon="12.937036514282227">
<ele>73.0999984741211</ele>
<time>2014-02-15T16:30:08Z</time>
</trkpt>
<trkpt lat="52.65999984741211" lon="12.9369535446167">
<ele>73.0</ele>
<time>2014-02-15T16:30:09Z</time>
</trkpt>
<trkpt lat="52.65998077392578" lon="12.936870574951172">
<ele>73.0999984741211</ele>
<time>2014-02-15T16:30:10Z</time>
</trkpt>
<trkpt lat="52.65998077392578" lon="12.93679428100586">
<ele>73.5</ele>
<time>2014-02-15T16:30:11Z</time>
</trkpt>
<trkpt lat="52.65998077392578" lon="12.936700820922852">
<ele>73.30000305175781</ele>
<time>2014-02-15T16:30:12Z</time>
</trkpt>
<trkpt lat="52.65996551513672" lon="12.936616897583008">
<ele>72.9000015258789</ele>
<time>2014-02-15T16:30:12Z</time>
</trkpt>
<trkpt lat="52.65995407104492" lon="12.93653678894043">
<ele>72.80000305175781</ele>
<time>2014-02-15T16:30:14Z</time>
</trkpt>
<trkpt lat="52.6599235534668" lon="12.936470031738281">
<ele>72.80000305175781</ele>
<time>2014-02-15T16:30:15Z</time>
</trkpt>
<trkpt lat="52.65990447998047" lon="12.936391830444336">
<ele>72.80000305175781</ele>
<time>2014-02-15T16:30:16Z</time>
</trkpt>
<trkpt lat="52.65988540649414" lon="12.93623161315918">
<ele>73.4000015258789</ele>
<time>2014-02-15T16:30:18Z</time>
</trkpt>
<trkpt lat="52.65986251831055" lon="12.936161041259766">
<ele>73.0999984741211</ele>
<time>2014-02-15T16:30:19Z</time>
</trkpt>
<trkpt lat="52.65985107421875" lon="12.936088562011719">
<ele>73.0</ele>
<time>2014-02-15T16:30:20Z</time>
</trkpt>
<trkpt lat="52.65983200073242" lon="12.936016082763672">
<ele>72.69999694824219</ele>
<time>2014-02-15T16:30:21Z</time>
</trkpt>
<trkpt lat="52.65978240966797" lon="12.935935020446777">
<ele>65.80000305175781</ele>
<time>2014-02-15T16:30:23Z</time>
</trkpt>
<trkpt lat="52.659751892089844" lon="12.935807228088379">
<ele>64.0999984741211</ele>
<time>2014-02-15T16:30:25Z</time>
</trkpt>
<trkpt lat="52.65973663330078" lon="12.9357328414917">
<ele>64.0</ele>
<time>2014-02-15T16:30:26Z</time>
</trkpt>
<trkpt lat="52.65971755981445" lon="12.935651779174805">
<ele>63.79999923706055</ele>
<time>2014-02-15T16:30:27Z</time>
</trkpt>
<trkpt lat="52.659706115722656" lon="12.935569763183594">
<ele>64.0</ele>
<time>2014-02-15T16:30:28Z</time>
</trkpt>
<trkpt lat="52.65969467163086" lon="12.93549633026123">
<ele>63.29999923706055</ele>
<time>2014-02-15T16:30:29Z</time>
</trkpt>
<trkpt lat="52.6596794128418" lon="12.93539810180664">
<ele>62.5</ele>
<time>2014-02-15T16:30:30Z</time>
</trkpt>
<trkpt lat="52.659671783447266" lon="12.935302734375">
<ele>62.599998474121094</ele>
<time>2014-02-15T16:30:31Z</time>
</trkpt>
<trkpt lat="52.659645080566406" lon="12.935215950012207">
<ele>61.599998474121094</ele>
<time>2014-02-15T16:30:32Z</time>
</trkpt>
<trkpt lat="52.659637451171875" lon="12.935131072998047">
<ele>61.400001525878906</ele>
<time>2014-02-15T16:30:33Z</time>
</trkpt>
<trkpt lat="52.65963363647461" lon="12.935050010681152">
<ele>62.0</ele>
<time>2014-02-15T16:30:34Z</time>
</trkpt>
<trkpt lat="52.65962600708008" lon="12.934976577758789">
<ele>62.70000076293945</ele>
<time>2014-02-15T16:30:35Z</time>
</trkpt>
<trkpt lat="52.659603118896484" lon="12.934832572937012">
<ele>62.599998474121094</ele>
<time>2014-02-15T16:30:37Z</time>
</trkpt>
<trkpt lat="52.659584045410156" lon="12.934758186340332">
<ele>62.20000076293945</ele>
<time>2014-02-15T16:30:38Z</time>
</trkpt>
<trkpt lat="52.6595458984375" lon="12.934596061706543">
<ele>63.29999923706055</ele>
<time>2014-02-15T16:30:40Z</time>
</trkpt>
<trkpt lat="52.659523010253906" lon="12.934511184692383">
<ele>62.900001525878906</ele>
<time>2014-02-15T16:30:41Z</time>
</trkpt>
<trkpt lat="52.65951156616211" lon="12.934418678283691">
<ele>61.0</ele>
<time>2014-02-15T16:30:42Z</time>
</trkpt>
<trkpt lat="52.65950393676758" lon="12.934331893920898">
<ele>60.0</ele>
<time>2014-02-15T16:30:43Z</time>
</trkpt>
<trkpt lat="52.65948486328125" lon="12.934245109558105">
<ele>59.099998474121094</ele>
<time>2014-02-15T16:30:44Z</time>
</trkpt>
<trkpt lat="52.65946578979492" lon="12.934152603149414">
<ele>59.400001525878906</ele>
<time>2014-02-15T16:30:45Z</time>
</trkpt>
<trkpt lat="52.65944290161133" lon="12.934038162231445">
<ele>60.20000076293945</ele>
<time>2014-02-15T16:30:46Z</time>
</trkpt>
<trkpt lat="52.659423828125" lon="12.933934211730957">
<ele>60.79999923706055</ele>
<time>2014-02-15T16:30:47Z</time>
</trkpt>
<trkpt lat="52.65940475463867" lon="12.933847427368164">
<ele>61.5</ele>
<time>2014-02-15T16:30:48Z</time>
</trkpt>
<trkpt lat="52.659393310546875" lon="12.933768272399902">
<ele>62.0</ele>
<time>2014-02-15T16:30:49Z</time>
</trkpt>
<trkpt lat="52.65938186645508" lon="12.933673858642578">
<ele>62.70000076293945</ele>
<time>2014-02-15T16:30:50Z</time>
</trkpt>
<trkpt lat="52.65937423706055" lon="12.933553695678711">
<ele>63.599998474121094</ele>
<time>2014-02-15T16:30:51Z</time>
</trkpt>
<trkpt lat="52.65937423706055" lon="12.933435440063477">
<ele>65.0</ele>
<time>2014-02-15T16:30:52Z</time>
</trkpt>
<trkpt lat="52.659385681152344" lon="12.93333625793457">
<ele>65.69999694824219</ele>
<time>2014-02-15T16:30:53Z</time>
</trkpt>
<trkpt lat="52.65938949584961" lon="12.933242797851562">
<ele>66.30000305175781</ele>
<time>2014-02-15T16:30:53Z</time>
</trkpt>
<trkpt lat="52.659393310546875" lon="12.933140754699707">
<ele>66.80000305175781</ele>
<time>2014-02-15T16:30:55Z</time>
</trkpt>
<trkpt lat="52.659400939941406" lon="12.933056831359863">
<ele>67.80000305175781</ele>
<time>2014-02-15T16:30:56Z</time>
</trkpt>
<trkpt lat="52.65940856933594" lon="12.932961463928223">
<ele>68.30000305175781</ele>
<time>2014-02-15T16:30:57Z</time>
</trkpt>
<trkpt lat="52.65940856933594" lon="12.932870864868164">
<ele>68.69999694824219</ele>
<time>2014-02-15T16:30:58Z</time>
</trkpt>
<trkpt lat="52.65940856933594" lon="12.932783126831055">
<ele>69.0</ele>
<time>2014-02-15T16:30:59Z</time>
</trkpt>
<trkpt lat="52.659400939941406" lon="12.93268871307373">
<ele>68.5999984741211</ele>
<time>2014-02-15T16:31:00Z</time>
</trkpt>
<trkpt lat="52.65940475463867" lon="12.932597160339355">
<ele>68.30000305175781</ele>
<time>2014-02-15T16:31:01Z</time>
</trkpt>
<trkpt lat="52.659400939941406" lon="12.932493209838867">
<ele>67.80000305175781</ele>
<time>2014-02-15T16:31:02Z</time>
</trkpt>
<trkpt lat="52.65941619873047" lon="12.93239974975586">
<ele>67.69999694824219</ele>
<time>2014-02-15T16:31:03Z</time>
</trkpt>
<trkpt lat="52.659423828125" lon="12.932315826416016">
<ele>67.9000015258789</ele>
<time>2014-02-15T16:31:04Z</time>
</trkpt>
<trkpt lat="52.65943908691406" lon="12.932242393493652">
<ele>67.5999984741211</ele>
<time>2014-02-15T16:31:05Z</time>
</trkpt>
<trkpt lat="52.65945053100586" lon="12.932165145874023">
<ele>68.0</ele>
<time>2014-02-15T16:31:06Z</time>
</trkpt>
<trkpt lat="52.659454345703125" lon="12.932076454162598">
<ele>68.19999694824219</ele>
<time>2014-02-15T16:31:07Z</time>
</trkpt>
<trkpt lat="52.65945053100586" lon="12.931978225708008">
<ele>68.69999694824219</ele>
<time>2014-02-15T16:31:08Z</time>
</trkpt>
<trkpt lat="52.659454345703125" lon="12.931891441345215">
<ele>68.30000305175781</ele>
<time>2014-02-15T16:31:09Z</time>
</trkpt>
<trkpt lat="52.65945816040039" lon="12.931814193725586">
<ele>68.4000015258789</ele>
<time>2014-02-15T16:31:10Z</time>
</trkpt>
<trkpt lat="52.65945053100586" lon="12.93173885345459">
<ele>68.5999984741211</ele>
<time>2014-02-15T16:31:11Z</time>
</trkpt>
<trkpt lat="52.65945816040039" lon="12.931620597839355">
<ele>68.80000305175781</ele>
<time>2014-02-15T16:31:12Z</time>
</trkpt>
<trkpt lat="52.65945816040039" lon="12.931534767150879">
<ele>69.4000015258789</ele>
<time>2014-02-15T16:31:13Z</time>
</trkpt>
<trkpt lat="52.65945816040039" lon="12.931451797485352">
<ele>69.69999694824219</ele>
<time>2014-02-15T16:31:14Z</time>
</trkpt>
<trkpt lat="52.65945816040039" lon="12.931367874145508">
<ele>70.30000305175781</ele>
<time>2014-02-15T16:31:15Z</time>
</trkpt>
<trkpt lat="52.65945816040039" lon="12.931286811828613">
<ele>71.19999694824219</ele>
<time>2014-02-15T16:31:16Z</time>
</trkpt>
<trkpt lat="52.65946578979492" lon="12.931197166442871">
<ele>70.9000015258789</ele>
<time>2014-02-15T16:31:17Z</time>
</trkpt>
<trkpt lat="52.65947341918945" lon="12.931090354919434">
<ele>69.30000305175781</ele>
<time>2014-02-15T16:31:18Z</time>
</trkpt>
<trkpt lat="52.65947341918945" lon="12.930994033813477">
<ele>69.0</ele>
<time>2014-02-15T16:31:19Z</time>
</trkpt>
<trkpt lat="52.65948486328125" lon="12.930858612060547">
<ele>65.5999984741211</ele>
<time>2014-02-15T16:31:21Z</time>
</trkpt>
<trkpt lat="52.65947723388672" lon="12.930776596069336">
<ele>65.4000015258789</ele>
<time>2014-02-15T16:31:22Z</time>
</trkpt>
<trkpt lat="52.65947723388672" lon="12.930622100830078">
<ele>66.30000305175781</ele>
<time>2014-02-15T16:31:24Z</time>
</trkpt>
<trkpt lat="52.65947341918945" lon="12.930480003356934">
<ele>66.19999694824219</ele>
<time>2014-02-15T16:31:26Z</time>
</trkpt>
<trkpt lat="52.65947341918945" lon="12.930394172668457">
<ele>65.5</ele>
<time>2014-02-15T16:31:27Z</time>
</trkpt>
<trkpt lat="52.65946578979492" lon="12.930313110351562">
<ele>65.5</ele>
<time>2014-02-15T16:31:28Z</time>
</trkpt>
<trkpt lat="52.65945816040039" lon="12.930150985717773">
<ele>62.900001525878906</ele>
<time>2014-02-15T16:31:30Z</time>
</trkpt>
<trkpt lat="52.659461975097656" lon="12.930028915405273">
<ele>62.400001525878906</ele>
<time>2014-02-15T16:31:31Z</time>
</trkpt>
<trkpt lat="52.65945816040039" lon="12.929916381835938">
<ele>62.400001525878906</ele>
<time>2014-02-15T16:31:32Z</time>
</trkpt>
<trkpt lat="52.659454345703125" lon="12.929814338684082">
<ele>62.599998474121094</ele>
<time>2014-02-15T16:31:33Z</time>
</trkpt>
<trkpt lat="52.659446716308594" lon="12.92967700958252">
<ele>63.099998474121094</ele>
<time>2014-02-15T16:31:35Z</time>
</trkpt>
<trkpt lat="52.65945816040039" lon="12.92960262298584">
<ele>63.900001525878906</ele>
<time>2014-02-15T16:31:36Z</time>
</trkpt>
<trkpt lat="52.659446716308594" lon="12.929485321044922">
<ele>64.80000305175781</ele>
<time>2014-02-15T16:31:38Z</time>
</trkpt>
<trkpt lat="52.6594352722168" lon="12.929397583007812">
<ele>66.0</ele>
<time>2014-02-15T16:31:39Z</time>
</trkpt>
<trkpt lat="52.659420013427734" lon="12.929312705993652">
<ele>66.30000305175781</ele>
<time>2014-02-15T16:31:40Z</time>
</trkpt>
<trkpt lat="52.6594123840332" lon="12.92922306060791">
<ele>66.0999984741211</ele>
<time>2014-02-15T16:31:41Z</time>
</trkpt>
<trkpt lat="52.65941619873047" lon="12.929140090942383">
<ele>65.80000305175781</ele>
<time>2014-02-15T16:31:42Z</time>
</trkpt>
<trkpt lat="52.6594123840332" lon="12.92905330657959">
<ele>65.5999984741211</ele>
<time>2014-02-15T16:31:43Z</time>
</trkpt>
<trkpt lat="52.6594123840332" lon="12.928954124450684">
<ele>66.0</ele>
<time>2014-02-15T16:31:44Z</time>
</trkpt>
<trkpt lat="52.65941619873047" lon="12.928847312927246">
<ele>67.4000015258789</ele>
<time>2014-02-15T16:31:45Z</time>
</trkpt>
<trkpt lat="52.659420013427734" lon="12.92873764038086">
<ele>67.5</ele>
<time>2014-02-15T16:31:46Z</time>
</trkpt>
<trkpt lat="52.65943145751953" lon="12.928635597229004">
<ele>68.0</ele>
<time>2014-02-15T16:31:47Z</time>
</trkpt>
<trkpt lat="52.65943908691406" lon="12.928545951843262">
<ele>68.80000305175781</ele>
<time>2014-02-15T16:31:48Z</time>
</trkpt>
<trkpt lat="52.659454345703125" lon="12.928475379943848">
<ele>68.69999694824219</ele>
<time>2014-02-15T16:31:49Z</time>
</trkpt>
<trkpt lat="52.65945816040039" lon="12.928390502929688">
<ele>69.0</ele>
<time>2014-02-15T16:31:50Z</time>
</trkpt>
<trkpt lat="52.65947341918945" lon="12.928305625915527">
<ele>69.69999694824219</ele>
<time>2014-02-15T16:31:51Z</time>
</trkpt>
<trkpt lat="52.65949630737305" lon="12.928228378295898">
<ele>69.80000305175781</ele>
<time>2014-02-15T16:31:52Z</time>
</trkpt>
<trkpt lat="52.65951156616211" lon="12.928150177001953">
<ele>70.0</ele>
<time>2014-02-15T16:31:52Z</time>
</trkpt>
<trkpt lat="52.65951919555664" lon="12.928068161010742">
<ele>69.5999984741211</ele>
<time>2014-02-15T16:31:54Z</time>
</trkpt>
<trkpt lat="52.659542083740234" lon="12.927995681762695">
<ele>69.80000305175781</ele>
<time>2014-02-15T16:31:55Z</time>
</trkpt>
<trkpt lat="52.6595458984375" lon="12.927844047546387">
<ele>69.80000305175781</ele>
<time>2014-02-15T16:31:57Z</time>
</trkpt>
<trkpt lat="52.65955352783203" lon="12.927762031555176">
<ele>69.80000305175781</ele>
<time>2014-02-15T16:31:58Z</time>
</trkpt>
<trkpt lat="52.65955352783203" lon="12.927687644958496">
<ele>69.0999984741211</ele>
<time>2014-02-15T16:31:59Z</time>
</trkpt>
<trkpt lat="52.65956497192383" lon="12.92759895324707">
<ele>69.19999694824219</ele>
<time>2014-02-15T16:32:00Z</time>
</trkpt>
<trkpt lat="52.659576416015625" lon="12.927507400512695">
<ele>68.9000015258789</ele>
<time>2014-02-15T16:32:01Z</time>
</trkpt>
<trkpt lat="52.65959167480469" lon="12.9274263381958">
<ele>69.19999694824219</ele>
<time>2014-02-15T16:32:02Z</time>
</trkpt>
<trkpt lat="52.659603118896484" lon="12.927281379699707">
<ele>69.5999984741211</ele>
<time>2014-02-15T16:32:04Z</time>
</trkpt>
<trkpt lat="52.65961456298828" lon="12.927205085754395">
<ele>70.4000015258789</ele>
<time>2014-02-15T16:32:05Z</time>
</trkpt>
<trkpt lat="52.65961837768555" lon="12.927123069763184">
<ele>70.30000305175781</ele>
<time>2014-02-15T16:32:06Z</time>
</trkpt>
<trkpt lat="52.659645080566406" lon="12.927032470703125">
<ele>70.5</ele>
<time>2014-02-15T16:32:07Z</time>
</trkpt>
<trkpt lat="52.659664154052734" lon="12.926949501037598">
<ele>71.30000305175781</ele>
<time>2014-02-15T16:32:08Z</time>
</trkpt>
<trkpt lat="52.659671783447266" lon="12.926867485046387">
<ele>72.0</ele>
<time>2014-02-15T16:32:09Z</time>
</trkpt>
<trkpt lat="52.6596794128418" lon="12.926791191101074">
<ele>71.5</ele>
<time>2014-02-15T16:32:10Z</time>
</trkpt>
<trkpt lat="52.65969467163086" lon="12.926701545715332">
<ele>71.80000305175781</ele>
<time>2014-02-15T16:32:11Z</time>
</trkpt>
<trkpt lat="52.65970230102539" lon="12.926623344421387">
<ele>72.5999984741211</ele>
<time>2014-02-15T16:32:12Z</time>
</trkpt>
<trkpt lat="52.65970993041992" lon="12.926544189453125">
<ele>71.80000305175781</ele>
<time>2014-02-15T16:32:13Z</time>
</trkpt>
<trkpt lat="52.65970993041992" lon="12.926458358764648">
<ele>72.4000015258789</ele>
<time>2014-02-15T16:32:14Z</time>
</trkpt>
<trkpt lat="52.65970993041992" lon="12.926382064819336">
<ele>71.5999984741211</ele>
<time>2014-02-15T16:32:15Z</time>
</trkpt>
<trkpt lat="52.65971755981445" lon="12.926294326782227">
<ele>72.0999984741211</ele>
<time>2014-02-15T16:32:16Z</time>
</trkpt>
<trkpt lat="52.65971755981445" lon="12.926218032836914">
<ele>71.4000015258789</ele>
<time>2014-02-15T16:32:17Z</time>
</trkpt>
<trkpt lat="52.659732818603516" lon="12.926139831542969">
<ele>72.0999984741211</ele>
<time>2014-02-15T16:32:18Z</time>
</trkpt>
<trkpt lat="52.65974044799805" lon="12.926046371459961">
<ele>72.30000305175781</ele>
<time>2014-02-15T16:32:19Z</time>
</trkpt>
<trkpt lat="52.65974044799805" lon="12.925969123840332">
<ele>72.5999984741211</ele>
<time>2014-02-15T16:32:20Z</time>
</trkpt>
<trkpt lat="52.65973663330078" lon="12.925881385803223">
<ele>72.69999694824219</ele>
<time>2014-02-15T16:32:21Z</time>
</trkpt>
<trkpt lat="52.659732818603516" lon="12.925795555114746">
<ele>72.19999694824219</ele>
<time>2014-02-15T16:32:22Z</time>
</trkpt>
<trkpt lat="52.65974426269531" lon="12.925691604614258">
<ele>71.80000305175781</ele>
<time>2014-02-15T16:32:23Z</time>
</trkpt>
<trkpt lat="52.659759521484375" lon="12.925602912902832">
<ele>71.5999984741211</ele>
<time>2014-02-15T16:32:24Z</time>
</trkpt>
<trkpt lat="52.659767150878906" lon="12.925512313842773">
<ele>72.0999984741211</ele>
<time>2014-02-15T16:32:25Z</time>
</trkpt>
<trkpt lat="52.659767150878906" lon="12.92542552947998">
<ele>72.4000015258789</ele>
<time>2014-02-15T16:32:26Z</time>
</trkpt>
<trkpt lat="52.659767150878906" lon="12.92534351348877">
<ele>71.4000015258789</ele>
<time>2014-02-15T16:32:27Z</time>
</trkpt>
<trkpt lat="52.659759521484375" lon="12.925262451171875">
<ele>70.9000015258789</ele>
<time>2014-02-15T16:32:28Z</time>
</trkpt>
<trkpt lat="52.65974807739258" lon="12.925189971923828">
<ele>70.30000305175781</ele>
<time>2014-02-15T16:32:29Z</time>
</trkpt>
<trkpt lat="52.65973663330078" lon="12.925113677978516">
<ele>69.5999984741211</ele>
<time>2014-02-15T16:32:30Z</time>
</trkpt>
<trkpt lat="52.659732818603516" lon="12.92503547668457">
<ele>68.69999694824219</ele>
<time>2014-02-15T16:32:31Z</time>
</trkpt>
<trkpt lat="52.65971755981445" lon="12.92496395111084">
<ele>68.5999984741211</ele>
<time>2014-02-15T16:32:32Z</time>
</trkpt>
<trkpt lat="52.659698486328125" lon="12.924835205078125">
<ele>67.80000305175781</ele>
<time>2014-02-15T16:32:34Z</time>
</trkpt>
<trkpt lat="52.65965270996094" lon="12.924668312072754">
<ele>67.69999694824219</ele>
<time>2014-02-15T16:32:36Z</time>
</trkpt>
<trkpt lat="52.65962600708008" lon="12.924595832824707">
<ele>67.5</ele>
<time>2014-02-15T16:32:37Z</time>
</trkpt>
<trkpt lat="52.65961456298828" lon="12.924506187438965">
<ele>67.69999694824219</ele>
<time>2014-02-15T16:32:38Z</time>
</trkpt>
<trkpt lat="52.65959930419922" lon="12.924416542053223">
<ele>67.4000015258789</ele>
<time>2014-02-15T16:32:39Z</time>
</trkpt>
<trkpt lat="52.659576416015625" lon="12.924323081970215">
<ele>67.0</ele>
<time>2014-02-15T16:32:40Z</time>
</trkpt>
<trkpt lat="52.65956497192383" lon="12.924225807189941">
<ele>67.19999694824219</ele>
<time>2014-02-15T16:32:41Z</time>
</trkpt>
<trkpt lat="52.65955352783203" lon="12.924153327941895">
<ele>67.0</ele>
<time>2014-02-15T16:32:42Z</time>
</trkpt>
<trkpt lat="52.65951919555664" lon="12.924022674560547">
<ele>66.69999694824219</ele>
<time>2014-02-15T16:32:44Z</time>
</trkpt>
<trkpt lat="52.65949249267578" lon="12.923879623413086">
<ele>67.0999984741211</ele>
<time>2014-02-15T16:32:46Z</time>
</trkpt>
<trkpt lat="52.659454345703125" lon="12.923731803894043">
<ele>67.0999984741211</ele>
<time>2014-02-15T16:32:48Z</time>
</trkpt>
<trkpt lat="52.65944290161133" lon="12.923643112182617">
<ele>67.0999984741211</ele>
<time>2014-02-15T16:32:49Z</time>
</trkpt>
<trkpt lat="52.65941619873047" lon="12.923521995544434">
<ele>67.30000305175781</ele>
<time>2014-02-15T16:32:50Z</time>
</trkpt>
<trkpt lat="52.65939712524414" lon="12.923419952392578">
<ele>67.4000015258789</ele>
<time>2014-02-15T16:32:51Z</time>
</trkpt>
<trkpt lat="52.65937805175781" lon="12.923351287841797">
<ele>67.4000015258789</ele>
<time>2014-02-15T16:32:52Z</time>
</trkpt>
<trkpt lat="52.659366607666016" lon="12.923218727111816">
<ele>67.0</ele>
<time>2014-02-15T16:32:54Z</time>
</trkpt>
<trkpt lat="52.65934371948242" lon="12.92314624786377">
<ele>67.0999984741211</ele>
<time>2014-02-15T16:32:55Z</time>
</trkpt>
<trkpt lat="52.6592903137207" lon="12.923030853271484">
<ele>66.4000015258789</ele>
<time>2014-02-15T16:32:57Z</time>
</trkpt>
<trkpt lat="52.65926742553711" lon="12.922910690307617">
<ele>66.80000305175781</ele>
<time>2014-02-15T16:32:59Z</time>
</trkpt>
<trkpt lat="52.65924835205078" lon="12.922789573669434">
<ele>66.69999694824219</ele>
<time>2014-02-15T16:33:01Z</time>
</trkpt>
<trkpt lat="52.659236907958984" lon="12.9226713180542">
<ele>66.69999694824219</ele>
<time>2014-02-15T16:33:04Z</time>
</trkpt>
<trkpt lat="52.659236907958984" lon="12.922595977783203">
<ele>66.5999984741211</ele>
<time>2014-02-15T16:33:08Z</time>
</trkpt>
<trkpt lat="52.65916442871094" lon="12.922524452209473">
<ele>69.0999984741211</ele>
<time>2014-02-15T16:33:12Z</time>
</trkpt>
<trkpt lat="52.65913009643555" lon="12.922430992126465">
<ele>68.5999984741211</ele>
<time>2014-02-15T16:33:15Z</time>
</trkpt>
<trkpt lat="52.65909957885742" lon="12.922348022460938">
<ele>68.0</ele>
<time>2014-02-15T16:33:17Z</time>
</trkpt>
<trkpt lat="52.659183502197266" lon="12.92236328125">
<ele>71.4000015258789</ele>
<time>2014-02-15T16:33:24Z</time>
</trkpt>
<trkpt lat="52.65922927856445" lon="12.922384262084961">
<ele>71.5999984741211</ele>
<time>2014-02-15T16:33:25Z</time>
</trkpt>
<trkpt lat="52.659297943115234" lon="12.9224214553833">
<ele>71.4000015258789</ele>
<time>2014-02-15T16:33:26Z</time>
</trkpt>
<trkpt lat="52.65937423706055" lon="12.922460556030273">
<ele>70.69999694824219</ele>
<time>2014-02-15T16:33:28Z</time>
</trkpt>
<trkpt lat="52.659427642822266" lon="12.92248249053955">
<ele>71.30000305175781</ele>
<time>2014-02-15T16:33:29Z</time>
</trkpt>
<trkpt lat="52.65951156616211" lon="12.922513961791992">
<ele>70.69999694824219</ele>
<time>2014-02-15T16:33:31Z</time>
</trkpt>
<trkpt lat="52.65956497192383" lon="12.922528266906738">
<ele>69.9000015258789</ele>
<time>2014-02-15T16:33:32Z</time>
</trkpt>
<trkpt lat="52.659629821777344" lon="12.922526359558105">
<ele>69.5</ele>
<time>2014-02-15T16:33:33Z</time>
</trkpt>
<trkpt lat="52.6596794128418" lon="12.922523498535156">
<ele>69.5999984741211</ele>
<time>2014-02-15T16:33:34Z</time>
</trkpt>
<trkpt lat="52.65973663330078" lon="12.922525405883789">
<ele>68.19999694824219</ele>
<time>2014-02-15T16:33:35Z</time>
</trkpt>
<trkpt lat="52.659786224365234" lon="12.922530174255371">
<ele>68.0999984741211</ele>
<time>2014-02-15T16:33:36Z</time>
</trkpt>
<trkpt lat="52.65983963012695" lon="12.922540664672852">
<ele>67.69999694824219</ele>
<time>2014-02-15T16:33:37Z</time>
</trkpt>
<trkpt lat="52.65989303588867" lon="12.922551155090332">
<ele>68.19999694824219</ele>
<time>2014-02-15T16:33:38Z</time>
</trkpt>
<trkpt lat="52.65994644165039" lon="12.922555923461914">
<ele>68.4000015258789</ele>
<time>2014-02-15T16:33:39Z</time>
</trkpt>
<trkpt lat="52.65999984741211" lon="12.922554016113281">
<ele>68.4000015258789</ele>
<time>2014-02-15T16:33:40Z</time>
</trkpt>
<trkpt lat="52.660057067871094" lon="12.922566413879395">
<ele>68.30000305175781</ele>
<time>2014-02-15T16:33:41Z</time>
</trkpt>
<trkpt lat="52.66011428833008" lon="12.922597885131836">
<ele>68.5</ele>
<time>2014-02-15T16:33:42Z</time>
</trkpt>
<trkpt lat="52.66017150878906" lon="12.922624588012695">
<ele>68.80000305175781</ele>
<time>2014-02-15T16:33:43Z</time>
</trkpt>
<trkpt lat="52.66022872924805" lon="12.922654151916504">
<ele>68.69999694824219</ele>
<time>2014-02-15T16:33:44Z</time>
</trkpt>
<trkpt lat="52.660282135009766" lon="12.922680854797363">
<ele>68.4000015258789</ele>
<time>2014-02-15T16:33:45Z</time>
</trkpt>
<trkpt lat="52.66033935546875" lon="12.922707557678223">
<ele>68.4000015258789</ele>
<time>2014-02-15T16:33:46Z</time>
</trkpt>
<trkpt lat="52.660396575927734" lon="12.922736167907715">
<ele>68.5999984741211</ele>
<time>2014-02-15T16:33:47Z</time>
</trkpt>
<trkpt lat="52.66044998168945" lon="12.922762870788574">
<ele>68.69999694824219</ele>
<time>2014-02-15T16:33:48Z</time>
</trkpt>
<trkpt lat="52.66049575805664" lon="12.922796249389648">
<ele>68.0999984741211</ele>
<time>2014-02-15T16:33:49Z</time>
</trkpt>
<trkpt lat="52.6605339050293" lon="12.922832489013672">
<ele>67.0999984741211</ele>
<time>2014-02-15T16:33:50Z</time>
</trkpt>
<trkpt lat="52.66058349609375" lon="12.92287540435791">
<ele>66.4000015258789</ele>
<time>2014-02-15T16:33:51Z</time>
</trkpt>
<trkpt lat="52.660640716552734" lon="12.92291259765625">
<ele>66.5999984741211</ele>
<time>2014-02-15T16:33:52Z</time>
</trkpt>
<trkpt lat="52.66069412231445" lon="12.922957420349121">
<ele>66.9000015258789</ele>
<time>2014-02-15T16:33:53Z</time>
</trkpt>
<trkpt lat="52.66074752807617" lon="12.923001289367676">
<ele>67.0999984741211</ele>
<time>2014-02-15T16:33:54Z</time>
</trkpt>
<trkpt lat="52.660797119140625" lon="12.923043251037598">
<ele>67.30000305175781</ele>
<time>2014-02-15T16:33:55Z</time>
</trkpt>
<trkpt lat="52.66084671020508" lon="12.923097610473633">
<ele>67.19999694824219</ele>
<time>2014-02-15T16:33:56Z</time>
</trkpt>
<trkpt lat="52.660892486572266" lon="12.923145294189453">
<ele>67.69999694824219</ele>
<time>2014-02-15T16:33:57Z</time>
</trkpt>
<trkpt lat="52.66093826293945" lon="12.923198699951172">
<ele>67.80000305175781</ele>
<time>2014-02-15T16:33:58Z</time>
</trkpt>
<trkpt lat="52.66099166870117" lon="12.92324447631836">
<ele>67.5999984741211</ele>
<time>2014-02-15T16:33:59Z</time>
</trkpt>
<trkpt lat="52.661033630371094" lon="12.923290252685547">
<ele>67.5</ele>
<time>2014-02-15T16:34:00Z</time>
</trkpt>
<trkpt lat="52.661075592041016" lon="12.923332214355469">
<ele>67.4000015258789</ele>
<time>2014-02-15T16:34:01Z</time>
</trkpt>
<trkpt lat="52.66112518310547" lon="12.923371315002441">
<ele>67.30000305175781</ele>
<time>2014-02-15T16:34:02Z</time>
</trkpt>
<trkpt lat="52.66116714477539" lon="12.923419952392578">
<ele>66.9000015258789</ele>
<time>2014-02-15T16:34:03Z</time>
</trkpt>
<trkpt lat="52.661216735839844" lon="12.923460960388184">
<ele>66.69999694824219</ele>
<time>2014-02-15T16:34:04Z</time>
</trkpt>
<trkpt lat="52.66126251220703" lon="12.923501014709473">
<ele>66.30000305175781</ele>
<time>2014-02-15T16:34:05Z</time>
</trkpt>
<trkpt lat="52.661312103271484" lon="12.923542976379395">
<ele>66.0999984741211</ele>
<time>2014-02-15T16:34:06Z</time>
</trkpt>
<trkpt lat="52.6613655090332" lon="12.923590660095215">
<ele>66.0</ele>
<time>2014-02-15T16:34:07Z</time>
</trkpt>
<trkpt lat="52.661415100097656" lon="12.923636436462402">
<ele>65.69999694824219</ele>
<time>2014-02-15T16:34:08Z</time>
</trkpt>
<trkpt lat="52.66146469116211" lon="12.92369270324707">
<ele>65.69999694824219</ele>
<time>2014-02-15T16:34:09Z</time>
</trkpt>
<trkpt lat="52.66151428222656" lon="12.92374324798584">
<ele>65.9000015258789</ele>
<time>2014-02-15T16:34:10Z</time>
</trkpt>
<trkpt lat="52.66156005859375" lon="12.923788070678711">
<ele>66.0</ele>
<time>2014-02-15T16:34:11Z</time>
</trkpt>
<trkpt lat="52.6616096496582" lon="12.923829078674316">
<ele>65.9000015258789</ele>
<time>2014-02-15T16:34:12Z</time>
</trkpt>
<trkpt lat="52.661659240722656" lon="12.923876762390137">
<ele>66.0999984741211</ele>
<time>2014-02-15T16:34:13Z</time>
</trkpt>
<trkpt lat="52.661705017089844" lon="12.923919677734375">
<ele>66.19999694824219</ele>
<time>2014-02-15T16:34:14Z</time>
</trkpt>
<trkpt lat="52.66175842285156" lon="12.923957824707031">
<ele>66.19999694824219</ele>
<time>2014-02-15T16:34:15Z</time>
</trkpt>
<trkpt lat="52.66180419921875" lon="12.924001693725586">
<ele>66.30000305175781</ele>
<time>2014-02-15T16:34:16Z</time>
</trkpt>
<trkpt lat="52.6618537902832" lon="12.924042701721191">
<ele>66.0</ele>
<time>2014-02-15T16:34:17Z</time>
</trkpt>
<trkpt lat="52.661903381347656" lon="12.924083709716797">
<ele>66.0</ele>
<time>2014-02-15T16:34:18Z</time>
</trkpt>
<trkpt lat="52.66194534301758" lon="12.924126625061035">
<ele>66.30000305175781</ele>
<time>2014-02-15T16:34:19Z</time>
</trkpt>
<trkpt lat="52.6619987487793" lon="12.924155235290527">
<ele>66.19999694824219</ele>
<time>2014-02-15T16:34:20Z</time>
</trkpt>
<trkpt lat="52.662044525146484" lon="12.924203872680664">
<ele>66.30000305175781</ele>
<time>2014-02-15T16:34:21Z</time>
</trkpt>
<trkpt lat="52.66209411621094" lon="12.924254417419434">
<ele>66.5</ele>
<time>2014-02-15T16:34:22Z</time>
</trkpt>
<trkpt lat="52.662139892578125" lon="12.92428970336914">
<ele>66.5</ele>
<time>2014-02-15T16:34:23Z</time>
</trkpt>
<trkpt lat="52.66218185424805" lon="12.924330711364746">
<ele>66.0999984741211</ele>
<time>2014-02-15T16:34:24Z</time>
</trkpt>
<trkpt lat="52.662227630615234" lon="12.924376487731934">
<ele>66.5</ele>
<time>2014-02-15T16:34:25Z</time>
</trkpt>
<trkpt lat="52.66227340698242" lon="12.924419403076172">
<ele>66.19999694824219</ele>
<time>2014-02-15T16:34:26Z</time>
</trkpt>
<trkpt lat="52.662322998046875" lon="12.924459457397461">
<ele>66.0</ele>
<time>2014-02-15T16:34:27Z</time>
</trkpt>
<trkpt lat="52.66236877441406" lon="12.924503326416016">
<ele>66.0999984741211</ele>
<time>2014-02-15T16:34:28Z</time>
</trkpt>
<trkpt lat="52.66242218017578" lon="12.924544334411621">
<ele>65.9000015258789</ele>
<time>2014-02-15T16:34:29Z</time>
</trkpt>
<trkpt lat="52.662471771240234" lon="12.924588203430176">
<ele>65.9000015258789</ele>
<time>2014-02-15T16:34:30Z</time>
</trkpt>
<trkpt lat="52.66251754760742" lon="12.924628257751465">
<ele>66.0999984741211</ele>
<time>2014-02-15T16:34:31Z</time>
</trkpt>
<trkpt lat="52.66257095336914" lon="12.924660682678223">
<ele>66.4000015258789</ele>
<time>2014-02-15T16:34:32Z</time>
</trkpt>
<trkpt lat="52.66262435913086" lon="12.924698829650879">
<ele>66.9000015258789</ele>
<time>2014-02-15T16:34:33Z</time>
</trkpt>
<trkpt lat="52.66267776489258" lon="12.924729347229004">
<ele>66.4000015258789</ele>
<time>2014-02-15T16:34:34Z</time>
</trkpt>
<trkpt lat="52.66272735595703" lon="12.924765586853027">
<ele>66.19999694824219</ele>
<time>2014-02-15T16:34:35Z</time>
</trkpt>
<trkpt lat="52.662776947021484" lon="12.924811363220215">
<ele>66.80000305175781</ele>
<time>2014-02-15T16:34:36Z</time>
</trkpt>
<trkpt lat="52.66282653808594" lon="12.924846649169922">
<ele>66.80000305175781</ele>
<time>2014-02-15T16:34:37Z</time>
</trkpt>
<trkpt lat="52.662872314453125" lon="12.924893379211426">
<ele>66.9000015258789</ele>
<time>2014-02-15T16:34:38Z</time>
</trkpt>
<trkpt lat="52.66291809082031" lon="12.92494010925293">
<ele>67.0</ele>
<time>2014-02-15T16:34:39Z</time>
</trkpt>
<trkpt lat="52.66297149658203" lon="12.924988746643066">
<ele>67.19999694824219</ele>
<time>2014-02-15T16:34:40Z</time>
</trkpt>
<trkpt lat="52.66301727294922" lon="12.92502498626709">
<ele>67.4000015258789</ele>
<time>2014-02-15T16:34:41Z</time>
</trkpt>
<trkpt lat="52.663063049316406" lon="12.925071716308594">
<ele>67.4000015258789</ele>
<time>2014-02-15T16:34:42Z</time>
</trkpt>
<trkpt lat="52.66311264038086" lon="12.925124168395996">
<ele>67.5</ele>
<time>2014-02-15T16:34:43Z</time>
</trkpt>
<trkpt lat="52.66315841674805" lon="12.9251708984375">
<ele>67.80000305175781</ele>
<time>2014-02-15T16:34:44Z</time>
</trkpt>
<trkpt lat="52.66320037841797" lon="12.925216674804688">
<ele>67.80000305175781</ele>
<time>2014-02-15T16:34:45Z</time>
</trkpt>
<trkpt lat="52.66324234008789" lon="12.92526912689209">
<ele>67.5999984741211</ele>
<time>2014-02-15T16:34:46Z</time>
</trkpt>
<trkpt lat="52.66328811645508" lon="12.925329208374023">
<ele>67.5</ele>
<time>2014-02-15T16:34:47Z</time>
</trkpt>
<trkpt lat="52.663330078125" lon="12.925374984741211">
<ele>67.19999694824219</ele>
<time>2014-02-15T16:34:48Z</time>
</trkpt>
<trkpt lat="52.66338348388672" lon="12.925422668457031">
<ele>66.9000015258789</ele>
<time>2014-02-15T16:34:49Z</time>
</trkpt>
<trkpt lat="52.66343307495117" lon="12.925477027893066">
<ele>67.0</ele>
<time>2014-02-15T16:34:50Z</time>
</trkpt>
<trkpt lat="52.663482666015625" lon="12.925519943237305">
<ele>67.19999694824219</ele>
<time>2014-02-15T16:34:51Z</time>
</trkpt>
<trkpt lat="52.66353225708008" lon="12.925556182861328">
<ele>66.9000015258789</ele>
<time>2014-02-15T16:34:52Z</time>
</trkpt>
<trkpt lat="52.66358947753906" lon="12.925591468811035">
<ele>66.9000015258789</ele>
<time>2014-02-15T16:34:53Z</time>
</trkpt>
<trkpt lat="52.663639068603516" lon="12.92562198638916">
<ele>66.9000015258789</ele>
<time>2014-02-15T16:34:54Z</time>
</trkpt>
<trkpt lat="52.66368865966797" lon="12.92565631866455">
<ele>66.80000305175781</ele>
<time>2014-02-15T16:34:55Z</time>
</trkpt>
<trkpt lat="52.66376495361328" lon="12.925752639770508">
<ele>67.30000305175781</ele>
<time>2014-02-15T16:34:57Z</time>
</trkpt>
<trkpt lat="52.663753509521484" lon="12.925825119018555">
<ele>67.30000305175781</ele>
<time>2014-02-15T16:34:58Z</time>
</trkpt>
<trkpt lat="52.66380310058594" lon="12.925911903381348">
<ele>67.30000305175781</ele>
<time>2014-02-15T16:34:59Z</time>
</trkpt>
<trkpt lat="52.66383743286133" lon="12.925971984863281">
<ele>67.19999694824219</ele>
<time>2014-02-15T16:35:00Z</time>
</trkpt>
<trkpt lat="52.66387939453125" lon="12.926009178161621">
<ele>67.0999984741211</ele>
<time>2014-02-15T16:35:01Z</time>
</trkpt>
<trkpt lat="52.66392517089844" lon="12.92602252960205">
<ele>67.0</ele>
<time>2014-02-15T16:35:02Z</time>
</trkpt>
<trkpt lat="52.66401672363281" lon="12.926070213317871">
<ele>66.9000015258789</ele>
<time>2014-02-15T16:35:04Z</time>
</trkpt>
<trkpt lat="52.6640625" lon="12.926100730895996">
<ele>66.80000305175781</ele>
<time>2014-02-15T16:35:05Z</time>
</trkpt>
<trkpt lat="52.664222717285156" lon="12.926162719726562">
<ele>69.0999984741211</ele>
<time>2014-02-15T16:35:07Z</time>
</trkpt>
<trkpt lat="52.66429901123047" lon="12.926191329956055">
<ele>70.5</ele>
<time>2014-02-15T16:35:08Z</time>
</trkpt>
<trkpt lat="52.66435241699219" lon="12.926197052001953">
<ele>71.0</ele>
<time>2014-02-15T16:35:09Z</time>
</trkpt>
<trkpt lat="52.66442108154297" lon="12.926206588745117">
<ele>71.80000305175781</ele>
<time>2014-02-15T16:35:11Z</time>
</trkpt>
<trkpt lat="52.664466857910156" lon="12.926227569580078">
<ele>71.69999694824219</ele>
<time>2014-02-15T16:35:12Z</time>
</trkpt>
<trkpt lat="52.66453170776367" lon="12.92625904083252">
<ele>71.19999694824219</ele>
<time>2014-02-15T16:35:13Z</time>
</trkpt>
<trkpt lat="52.664588928222656" lon="12.926278114318848">
<ele>71.19999694824219</ele>
<time>2014-02-15T16:35:14Z</time>
</trkpt>
<trkpt lat="52.664676666259766" lon="12.926301002502441">
<ele>71.5</ele>
<time>2014-02-15T16:35:16Z</time>
</trkpt>
<trkpt lat="52.664730072021484" lon="12.926322937011719">
<ele>71.5</ele>
<time>2014-02-15T16:35:17Z</time>
</trkpt>
<trkpt lat="52.664794921875" lon="12.9263277053833">
<ele>71.5</ele>
<time>2014-02-15T16:35:18Z</time>
</trkpt>
<trkpt lat="52.66484069824219" lon="12.926348686218262">
<ele>71.5999984741211</ele>
<time>2014-02-15T16:35:19Z</time>
</trkpt>
<trkpt lat="52.664894104003906" lon="12.926362037658691">
<ele>71.5</ele>
<time>2014-02-15T16:35:20Z</time>
</trkpt>
<trkpt lat="52.66497039794922" lon="12.926401138305664">
<ele>65.0999984741211</ele>
<time>2014-02-15T16:35:23Z</time>
</trkpt>
<trkpt lat="52.665016174316406" lon="12.926433563232422">
<ele>64.9000015258789</ele>
<time>2014-02-15T16:35:24Z</time>
</trkpt>
<trkpt lat="52.66510009765625" lon="12.926453590393066">
<ele>66.9000015258789</ele>
<time>2014-02-15T16:35:25Z</time>
</trkpt>
<trkpt lat="52.665157318115234" lon="12.926474571228027">
<ele>67.19999694824219</ele>
<time>2014-02-15T16:35:26Z</time>
</trkpt>
<trkpt lat="52.665218353271484" lon="12.926493644714355">
<ele>67.19999694824219</ele>
<time>2014-02-15T16:35:27Z</time>
</trkpt>
<trkpt lat="52.665279388427734" lon="12.926513671875">
<ele>67.0</ele>
<time>2014-02-15T16:35:28Z</time>
</trkpt>
<trkpt lat="52.66534423828125" lon="12.926545143127441">
<ele>67.19999694824219</ele>
<time>2014-02-15T16:35:29Z</time>
</trkpt>
<trkpt lat="52.66539764404297" lon="12.926562309265137">
<ele>67.19999694824219</ele>
<time>2014-02-15T16:35:30Z</time>
</trkpt>
<trkpt lat="52.66545486450195" lon="12.926568031311035">
<ele>67.5</ele>
<time>2014-02-15T16:35:31Z</time>
</trkpt>
<trkpt lat="52.66551971435547" lon="12.926587104797363">
<ele>67.4000015258789</ele>
<time>2014-02-15T16:35:32Z</time>
</trkpt>
<trkpt lat="52.66559600830078" lon="12.926620483398438">
<ele>68.9000015258789</ele>
<time>2014-02-15T16:35:34Z</time>
</trkpt>
<trkpt lat="52.66569519042969" lon="12.926673889160156">
<ele>70.5999984741211</ele>
<time>2014-02-15T16:35:36Z</time>
</trkpt>
<trkpt lat="52.665771484375" lon="12.926708221435547">
<ele>70.5</ele>
<time>2014-02-15T16:35:38Z</time>
</trkpt>
<trkpt lat="52.66584396362305" lon="12.926716804504395">
<ele>70.5999984741211</ele>
<time>2014-02-15T16:35:40Z</time>
</trkpt>
<trkpt lat="52.665889739990234" lon="12.926735877990723">
<ele>70.0</ele>
<time>2014-02-15T16:35:41Z</time>
</trkpt>
<trkpt lat="52.665950775146484" lon="12.92674446105957">
<ele>69.30000305175781</ele>
<time>2014-02-15T16:35:42Z</time>
</trkpt>
<trkpt lat="52.66600036621094" lon="12.926774024963379">
<ele>69.4000015258789</ele>
<time>2014-02-15T16:35:43Z</time>
</trkpt>
<trkpt lat="52.66609573364258" lon="12.9268217086792">
<ele>69.5</ele>
<time>2014-02-15T16:35:45Z</time>
</trkpt>
<trkpt lat="52.666141510009766" lon="12.926835060119629">
<ele>69.69999694824219</ele>
<time>2014-02-15T16:35:46Z</time>
</trkpt>
<trkpt lat="52.66618728637695" lon="12.926858901977539">
<ele>69.5999984741211</ele>
<time>2014-02-15T16:35:47Z</time>
</trkpt>
<trkpt lat="52.66624069213867" lon="12.92690658569336">
<ele>69.69999694824219</ele>
<time>2014-02-15T16:35:48Z</time>
</trkpt>
<trkpt lat="52.66630935668945" lon="12.926935195922852">
<ele>71.69999694824219</ele>
<time>2014-02-15T16:35:49Z</time>
</trkpt>
<trkpt lat="52.6663703918457" lon="12.926958084106445">
<ele>71.5</ele>
<time>2014-02-15T16:35:50Z</time>
</trkpt>
<trkpt lat="52.66642379760742" lon="12.926980018615723">
<ele>71.4000015258789</ele>
<time>2014-02-15T16:35:51Z</time>
</trkpt>
<trkpt lat="52.66646957397461" lon="12.92699146270752">
<ele>71.4000015258789</ele>
<time>2014-02-15T16:35:52Z</time>
</trkpt>
<trkpt lat="52.6665153503418" lon="12.927014350891113">
<ele>71.5</ele>
<time>2014-02-15T16:35:53Z</time>
</trkpt>
<trkpt lat="52.66656494140625" lon="12.927032470703125">
<ele>71.5999984741211</ele>
<time>2014-02-15T16:35:54Z</time>
</trkpt>
<trkpt lat="52.6666259765625" lon="12.927072525024414">
<ele>71.5</ele>
<time>2014-02-15T16:35:55Z</time>
</trkpt>
<trkpt lat="52.66668701171875" lon="12.927101135253906">
<ele>71.69999694824219</ele>
<time>2014-02-15T16:35:56Z</time>
</trkpt>
<trkpt lat="52.666751861572266" lon="12.927116394042969">
<ele>71.69999694824219</ele>
<time>2014-02-15T16:35:57Z</time>
</trkpt>
<trkpt lat="52.666805267333984" lon="12.927144050598145">
<ele>71.9000015258789</ele>
<time>2014-02-15T16:35:58Z</time>
</trkpt>
<trkpt lat="52.66686248779297" lon="12.927159309387207">
<ele>72.19999694824219</ele>
<time>2014-02-15T16:35:59Z</time>
</trkpt>
<trkpt lat="52.66693115234375" lon="12.927193641662598">
<ele>70.5999984741211</ele>
<time>2014-02-15T16:36:01Z</time>
</trkpt>
<trkpt lat="52.6670036315918" lon="12.927204132080078">
<ele>71.30000305175781</ele>
<time>2014-02-15T16:36:03Z</time>
</trkpt>
<trkpt lat="52.66708755493164" lon="12.927226066589355">
<ele>71.0999984741211</ele>
<time>2014-02-15T16:36:05Z</time>
</trkpt>
<trkpt lat="52.667144775390625" lon="12.927248001098633">
<ele>70.80000305175781</ele>
<time>2014-02-15T16:36:06Z</time>
</trkpt>
<trkpt lat="52.66720199584961" lon="12.927267074584961">
<ele>71.0</ele>
<time>2014-02-15T16:36:07Z</time>
</trkpt>
<trkpt lat="52.667266845703125" lon="12.92729377746582">
<ele>70.9000015258789</ele>
<time>2014-02-15T16:36:08Z</time>
</trkpt>
<trkpt lat="52.66733932495117" lon="12.927343368530273">
<ele>70.9000015258789</ele>
<time>2014-02-15T16:36:10Z</time>
</trkpt>
<trkpt lat="52.667388916015625" lon="12.927343368530273">
<ele>72.30000305175781</ele>
<time>2014-02-15T16:36:11Z</time>
</trkpt>
<trkpt lat="52.66745376586914" lon="12.927364349365234">
<ele>73.80000305175781</ele>
<time>2014-02-15T16:36:12Z</time>
</trkpt>
<trkpt lat="52.66751480102539" lon="12.927393913269043">
<ele>74.0</ele>
<time>2014-02-15T16:36:13Z</time>
</trkpt>
<trkpt lat="52.66755676269531" lon="12.927412033081055">
<ele>74.4000015258789</ele>
<time>2014-02-15T16:36:14Z</time>
</trkpt>
<trkpt lat="52.66761016845703" lon="12.927431106567383">
<ele>75.4000015258789</ele>
<time>2014-02-15T16:36:15Z</time>
</trkpt>
<trkpt lat="52.66769027709961" lon="12.927459716796875">
<ele>74.5999984741211</ele>
<time>2014-02-15T16:36:17Z</time>
</trkpt>
<trkpt lat="52.6677360534668" lon="12.927483558654785">
<ele>74.4000015258789</ele>
<time>2014-02-15T16:36:18Z</time>
</trkpt>
<trkpt lat="52.66781997680664" lon="12.927511215209961">
<ele>73.80000305175781</ele>
<time>2014-02-15T16:36:20Z</time>
</trkpt>
<trkpt lat="52.66791915893555" lon="12.9275484085083">
<ele>73.69999694824219</ele>
<time>2014-02-15T16:36:22Z</time>
</trkpt>
<trkpt lat="52.66797637939453" lon="12.927562713623047">
<ele>73.69999694824219</ele>
<time>2014-02-15T16:36:23Z</time>
</trkpt>
<trkpt lat="52.66803741455078" lon="12.927584648132324">
<ele>73.5999984741211</ele>
<time>2014-02-15T16:36:24Z</time>
</trkpt>
<trkpt lat="52.66809844970703" lon="12.927608489990234">
<ele>73.5</ele>
<time>2014-02-15T16:36:25Z</time>
</trkpt>
<trkpt lat="52.668155670166016" lon="12.927637100219727">
<ele>73.5999984741211</ele>
<time>2014-02-15T16:36:26Z</time>
</trkpt>
<trkpt lat="52.66822814941406" lon="12.927663803100586">
<ele>71.19999694824219</ele>
<time>2014-02-15T16:36:28Z</time>
</trkpt>
<trkpt lat="52.66832733154297" lon="12.927695274353027">
<ele>71.0</ele>
<time>2014-02-15T16:36:30Z</time>
</trkpt>
<trkpt lat="52.668426513671875" lon="12.927739143371582">
<ele>71.0</ele>
<time>2014-02-15T16:36:32Z</time>
</trkpt>
<trkpt lat="52.66847610473633" lon="12.92774486541748">
<ele>70.80000305175781</ele>
<time>2014-02-15T16:36:33Z</time>
</trkpt>
<trkpt lat="52.66853713989258" lon="12.927760124206543">
<ele>70.69999694824219</ele>
<time>2014-02-15T16:36:34Z</time>
</trkpt>
<trkpt lat="52.668601989746094" lon="12.927806854248047">
<ele>70.9000015258789</ele>
<time>2014-02-15T16:36:36Z</time>
</trkpt>
<trkpt lat="52.668643951416016" lon="12.927828788757324">
<ele>71.0</ele>
<time>2014-02-15T16:36:37Z</time>
</trkpt>
<trkpt lat="52.668704986572266" lon="12.927833557128906">
<ele>70.9000015258789</ele>
<time>2014-02-15T16:36:38Z</time>
</trkpt>
<trkpt lat="52.66879653930664" lon="12.92788314819336">
<ele>70.9000015258789</ele>
<time>2014-02-15T16:36:40Z</time>
</trkpt>
<trkpt lat="52.668846130371094" lon="12.927891731262207">
<ele>71.0999984741211</ele>
<time>2014-02-15T16:36:41Z</time>
</trkpt>
<trkpt lat="52.668922424316406" lon="12.927925109863281">
<ele>71.19999694824219</ele>
<time>2014-02-15T16:36:42Z</time>
</trkpt>
<trkpt lat="52.66899490356445" lon="12.927952766418457">
<ele>70.9000015258789</ele>
<time>2014-02-15T16:36:43Z</time>
</trkpt>
<trkpt lat="52.66904067993164" lon="12.927977561950684">
<ele>70.80000305175781</ele>
<time>2014-02-15T16:36:44Z</time>
</trkpt>
<trkpt lat="52.669124603271484" lon="12.928016662597656">
<ele>70.69999694824219</ele>
<time>2014-02-15T16:36:46Z</time>
</trkpt>
<trkpt lat="52.66917037963867" lon="12.928037643432617">
<ele>70.80000305175781</ele>
<time>2014-02-15T16:36:47Z</time>
</trkpt>
<trkpt lat="52.669219970703125" lon="12.92805290222168">
<ele>70.5999984741211</ele>
<time>2014-02-15T16:36:48Z</time>
</trkpt>
<trkpt lat="52.66927719116211" lon="12.92806625366211">
<ele>70.5</ele>
<time>2014-02-15T16:36:49Z</time>
</trkpt>
<trkpt lat="52.66936111450195" lon="12.928106307983398">
<ele>71.4000015258789</ele>
<time>2014-02-15T16:36:51Z</time>
</trkpt>
<trkpt lat="52.66942596435547" lon="12.928138732910156">
<ele>72.69999694824219</ele>
<time>2014-02-15T16:36:52Z</time>
</trkpt>
<trkpt lat="52.669471740722656" lon="12.928152084350586">
<ele>72.0</ele>
<time>2014-02-15T16:36:53Z</time>
</trkpt>
<trkpt lat="52.669517517089844" lon="12.928173065185547">
<ele>71.80000305175781</ele>
<time>2014-02-15T16:36:54Z</time>
</trkpt>
<trkpt lat="52.669578552246094" lon="12.92819595336914">
<ele>71.5999984741211</ele>
<time>2014-02-15T16:36:55Z</time>
</trkpt>
<trkpt lat="52.66962432861328" lon="12.928216934204102">
<ele>72.0</ele>
<time>2014-02-15T16:36:56Z</time>
</trkpt>
<trkpt lat="52.66967010498047" lon="12.928241729736328">
<ele>72.19999694824219</ele>
<time>2014-02-15T16:36:57Z</time>
</trkpt>
<trkpt lat="52.669742584228516" lon="12.92827320098877">
<ele>73.80000305175781</ele>
<time>2014-02-15T16:36:58Z</time>
</trkpt>
<trkpt lat="52.669830322265625" lon="12.928288459777832">
<ele>73.80000305175781</ele>
<time>2014-02-15T16:37:00Z</time>
</trkpt>
<trkpt lat="52.669921875" lon="12.928317070007324">
<ele>75.4000015258789</ele>
<time>2014-02-15T16:37:02Z</time>
</trkpt>
<trkpt lat="52.66997146606445" lon="12.928336143493652">
<ele>75.19999694824219</ele>
<time>2014-02-15T16:37:03Z</time>
</trkpt>
<trkpt lat="52.670074462890625" lon="12.92838191986084">
<ele>82.0999984741211</ele>
<time>2014-02-15T16:37:04Z</time>
</trkpt>
<trkpt lat="52.67015838623047" lon="12.928404808044434">
<ele>82.69999694824219</ele>
<time>2014-02-15T16:37:05Z</time>
</trkpt>
<trkpt lat="52.67020797729492" lon="12.928423881530762">
<ele>83.80000305175781</ele>
<time>2014-02-15T16:37:06Z</time>
</trkpt>
<trkpt lat="52.6702766418457" lon="12.92844009399414">
<ele>84.19999694824219</ele>
<time>2014-02-15T16:37:06Z</time>
</trkpt>
<trkpt lat="52.67033386230469" lon="12.928464889526367">
<ele>84.69999694824219</ele>
<time>2014-02-15T16:37:08Z</time>
</trkpt>
<trkpt lat="52.67038345336914" lon="12.928500175476074">
<ele>85.4000015258789</ele>
<time>2014-02-15T16:37:09Z</time>
</trkpt>
<trkpt lat="52.67044448852539" lon="12.928520202636719">
<ele>85.30000305175781</ele>
<time>2014-02-15T16:37:10Z</time>
</trkpt>
<trkpt lat="52.670501708984375" lon="12.92855167388916">
<ele>85.5999984741211</ele>
<time>2014-02-15T16:37:12Z</time>
</trkpt>
<trkpt lat="52.67055892944336" lon="12.92855453491211">
<ele>86.4000015258789</ele>
<time>2014-02-15T16:37:13Z</time>
</trkpt>
<trkpt lat="52.670654296875" lon="12.928592681884766">
<ele>85.80000305175781</ele>
<time>2014-02-15T16:37:15Z</time>
</trkpt>
<trkpt lat="52.67070388793945" lon="12.928606033325195">
<ele>86.0</ele>
<time>2014-02-15T16:37:16Z</time>
</trkpt>
<trkpt lat="52.67076873779297" lon="12.928622245788574">
<ele>77.0</ele>
<time>2014-02-15T16:37:19Z</time>
</trkpt>
<trkpt lat="52.670814514160156" lon="12.92863941192627">
<ele>76.4000015258789</ele>
<time>2014-02-15T16:37:20Z</time>
</trkpt>
<trkpt lat="52.670867919921875" lon="12.92866325378418">
<ele>76.30000305175781</ele>
<time>2014-02-15T16:37:21Z</time>
</trkpt>
<trkpt lat="52.67091751098633" lon="12.928692817687988">
<ele>76.19999694824219</ele>
<time>2014-02-15T16:37:22Z</time>
</trkpt>
<trkpt lat="52.67100143432617" lon="12.92874813079834">
<ele>75.0</ele>
<time>2014-02-15T16:37:24Z</time>
</trkpt>
<trkpt lat="52.67103958129883" lon="12.928792953491211">
<ele>74.9000015258789</ele>
<time>2014-02-15T16:37:25Z</time>
</trkpt>
<trkpt lat="52.67108917236328" lon="12.92882251739502">
<ele>75.0999984741211</ele>
<time>2014-02-15T16:37:26Z</time>
</trkpt>
<trkpt lat="52.671138763427734" lon="12.928853034973145">
<ele>75.4000015258789</ele>
<time>2014-02-15T16:37:27Z</time>
</trkpt>
<trkpt lat="52.671180725097656" lon="12.928878784179688">
<ele>75.19999694824219</ele>
<time>2014-02-15T16:37:28Z</time>
</trkpt>
<trkpt lat="52.67125701904297" lon="12.928942680358887">
<ele>75.0</ele>
<time>2014-02-15T16:37:30Z</time>
</trkpt>
<trkpt lat="52.67129898071289" lon="12.928975105285645">
<ele>74.5</ele>
<time>2014-02-15T16:37:31Z</time>
</trkpt>
<trkpt lat="52.67134475708008" lon="12.929011344909668">
<ele>74.69999694824219</ele>
<time>2014-02-15T16:37:32Z</time>
</trkpt>
<trkpt lat="52.671390533447266" lon="12.929037094116211">
<ele>74.0</ele>
<time>2014-02-15T16:37:33Z</time>
</trkpt>
<trkpt lat="52.67143630981445" lon="12.92907428741455">
<ele>74.30000305175781</ele>
<time>2014-02-15T16:37:34Z</time>
</trkpt>
<trkpt lat="52.67148208618164" lon="12.92910385131836">
<ele>74.0999984741211</ele>
<time>2014-02-15T16:37:35Z</time>
</trkpt>
<trkpt lat="52.67152786254883" lon="12.9291353225708">
<ele>74.0999984741211</ele>
<time>2014-02-15T16:37:36Z</time>
</trkpt>
<trkpt lat="52.67156982421875" lon="12.929168701171875">
<ele>74.0</ele>
<time>2014-02-15T16:37:37Z</time>
</trkpt>
<trkpt lat="52.67162322998047" lon="12.929197311401367">
<ele>74.30000305175781</ele>
<time>2014-02-15T16:37:38Z</time>
</trkpt>
<trkpt lat="52.671669006347656" lon="12.929230690002441">
<ele>73.69999694824219</ele>
<time>2014-02-15T16:37:39Z</time>
</trkpt>
<trkpt lat="52.671722412109375" lon="12.92926025390625">
<ele>73.30000305175781</ele>
<time>2014-02-15T16:37:40Z</time>
</trkpt>
<trkpt lat="52.67176818847656" lon="12.929289817810059">
<ele>73.5999984741211</ele>
<time>2014-02-15T16:37:41Z</time>
</trkpt>
<trkpt lat="52.67181396484375" lon="12.92932415008545">
<ele>73.80000305175781</ele>
<time>2014-02-15T16:37:42Z</time>
</trkpt>
<trkpt lat="52.671852111816406" lon="12.929363250732422">
<ele>74.0999984741211</ele>
<time>2014-02-15T16:37:43Z</time>
</trkpt>
<trkpt lat="52.671905517578125" lon="12.929399490356445">
<ele>74.30000305175781</ele>
<time>2014-02-15T16:37:44Z</time>
</trkpt>
<trkpt lat="52.67195129394531" lon="12.929418563842773">
<ele>74.0999984741211</ele>
<time>2014-02-15T16:37:45Z</time>
</trkpt>
<trkpt lat="52.672000885009766" lon="12.929441452026367">
<ele>74.5999984741211</ele>
<time>2014-02-15T16:37:46Z</time>
</trkpt>
<trkpt lat="52.67204284667969" lon="12.929471015930176">
<ele>74.0999984741211</ele>
<time>2014-02-15T16:37:47Z</time>
</trkpt>
<trkpt lat="52.672088623046875" lon="12.929497718811035">
<ele>73.9000015258789</ele>
<time>2014-02-15T16:37:48Z</time>
</trkpt>
<trkpt lat="52.67217254638672" lon="12.929563522338867">
<ele>73.5</ele>
<time>2014-02-15T16:37:50Z</time>
</trkpt>
<trkpt lat="52.67221450805664" lon="12.92959213256836">
<ele>73.0</ele>
<time>2014-02-15T16:37:51Z</time>
</trkpt>
<trkpt lat="52.672264099121094" lon="12.92962646484375">
<ele>73.0</ele>
<time>2014-02-15T16:37:52Z</time>
</trkpt>
<trkpt lat="52.67235565185547" lon="12.929676055908203">
<ele>72.30000305175781</ele>
<time>2014-02-15T16:37:54Z</time>
</trkpt>
<trkpt lat="52.67240524291992" lon="12.929713249206543">
<ele>72.5</ele>
<time>2014-02-15T16:37:55Z</time>
</trkpt>
<trkpt lat="52.67245101928711" lon="12.929749488830566">
<ele>72.5999984741211</ele>
<time>2014-02-15T16:37:56Z</time>
</trkpt>
<trkpt lat="52.67249298095703" lon="12.929791450500488">
<ele>72.69999694824219</ele>
<time>2014-02-15T16:37:57Z</time>
</trkpt>
<trkpt lat="52.67253875732422" lon="12.929818153381348">
<ele>73.69999694824219</ele>
<time>2014-02-15T16:37:58Z</time>
</trkpt>
<trkpt lat="52.67258834838867" lon="12.929841041564941">
<ele>73.9000015258789</ele>
<time>2014-02-15T16:37:59Z</time>
</trkpt>
<trkpt lat="52.672637939453125" lon="12.929868698120117">
<ele>74.0999984741211</ele>
<time>2014-02-15T16:38:00Z</time>
</trkpt>
<trkpt lat="52.6727294921875" lon="12.929930686950684">
<ele>75.4000015258789</ele>
<time>2014-02-15T16:38:02Z</time>
</trkpt>
<trkpt lat="52.67281723022461" lon="12.929994583129883">
<ele>75.30000305175781</ele>
<time>2014-02-15T16:38:04Z</time>
</trkpt>
<trkpt lat="52.67285919189453" lon="12.930032730102539">
<ele>75.5</ele>
<time>2014-02-15T16:38:05Z</time>
</trkpt>
<trkpt lat="52.672908782958984" lon="12.93006420135498">
<ele>75.5999984741211</ele>
<time>2014-02-15T16:38:06Z</time>
</trkpt>
<trkpt lat="52.67295455932617" lon="12.930087089538574">
<ele>75.5</ele>
<time>2014-02-15T16:38:07Z</time>
</trkpt>
<trkpt lat="52.67303466796875" lon="12.930140495300293">
<ele>75.0999984741211</ele>
<time>2014-02-15T16:38:09Z</time>
</trkpt>
<trkpt lat="52.67308044433594" lon="12.930171966552734">
<ele>75.69999694824219</ele>
<time>2014-02-15T16:38:10Z</time>
</trkpt>
<trkpt lat="52.67313003540039" lon="12.930196762084961">
<ele>75.69999694824219</ele>
<time>2014-02-15T16:38:11Z</time>
</trkpt>
<trkpt lat="52.67317199707031" lon="12.930230140686035">
<ele>75.5999984741211</ele>
<time>2014-02-15T16:38:12Z</time>
</trkpt>
<trkpt lat="52.6732177734375" lon="12.930261611938477">
<ele>75.5</ele>
<time>2014-02-15T16:38:13Z</time>
</trkpt>
<trkpt lat="52.67326354980469" lon="12.930288314819336">
<ele>75.4000015258789</ele>
<time>2014-02-15T16:38:14Z</time>
</trkpt>
<trkpt lat="52.673309326171875" lon="12.930320739746094">
<ele>75.4000015258789</ele>
<time>2014-02-15T16:38:15Z</time>
</trkpt>
<trkpt lat="52.67335891723633" lon="12.930350303649902">
<ele>75.5999984741211</ele>
<time>2014-02-15T16:38:16Z</time>
</trkpt>
<trkpt lat="52.67340087890625" lon="12.930381774902344">
<ele>75.69999694824219</ele>
<time>2014-02-15T16:38:17Z</time>
</trkpt>
<trkpt lat="52.67348098754883" lon="12.930445671081543">
<ele>75.19999694824219</ele>
<time>2014-02-15T16:38:19Z</time>
</trkpt>
<trkpt lat="52.673561096191406" lon="12.930500030517578">
<ele>75.0999984741211</ele>
<time>2014-02-15T16:38:21Z</time>
</trkpt>
<trkpt lat="52.673641204833984" lon="12.930558204650879">
<ele>75.19999694824219</ele>
<time>2014-02-15T16:38:23Z</time>
</trkpt>
<trkpt lat="52.67372512817383" lon="12.930623054504395">
<ele>75.0999984741211</ele>
<time>2014-02-15T16:38:25Z</time>
</trkpt>
<trkpt lat="52.673770904541016" lon="12.930651664733887">
<ele>75.0</ele>
<time>2014-02-15T16:38:26Z</time>
</trkpt>
<trkpt lat="52.673824310302734" lon="12.930684089660645">
<ele>75.9000015258789</ele>
<time>2014-02-15T16:38:27Z</time>
</trkpt>
<trkpt lat="52.67390441894531" lon="12.930743217468262">
<ele>75.80000305175781</ele>
<time>2014-02-15T16:38:29Z</time>
</trkpt>
<trkpt lat="52.6739501953125" lon="12.93077564239502">
<ele>75.80000305175781</ele>
<time>2014-02-15T16:38:30Z</time>
</trkpt>
<trkpt lat="52.67399597167969" lon="12.93080997467041">
<ele>75.9000015258789</ele>
<time>2014-02-15T16:38:31Z</time>
</trkpt>
<trkpt lat="52.674034118652344" lon="12.930840492248535">
<ele>75.80000305175781</ele>
<time>2014-02-15T16:38:32Z</time>
</trkpt>
<trkpt lat="52.674076080322266" lon="12.930876731872559">
<ele>75.69999694824219</ele>
<time>2014-02-15T16:38:33Z</time>
</trkpt>
<trkpt lat="52.67412185668945" lon="12.930901527404785">
<ele>75.80000305175781</ele>
<time>2014-02-15T16:38:34Z</time>
</trkpt>
<trkpt lat="52.674171447753906" lon="12.93091106414795">
<ele>75.5</ele>
<time>2014-02-15T16:38:35Z</time>
</trkpt>
<trkpt lat="52.674251556396484" lon="12.930959701538086">
<ele>75.5999984741211</ele>
<time>2014-02-15T16:38:37Z</time>
</trkpt>
<trkpt lat="52.67429733276367" lon="12.930991172790527">
<ele>75.5</ele>
<time>2014-02-15T16:38:38Z</time>
</trkpt>
<trkpt lat="52.67434310913086" lon="12.931012153625488">
<ele>75.0999984741211</ele>
<time>2014-02-15T16:38:39Z</time>
</trkpt>
<trkpt lat="52.67442321777344" lon="12.931070327758789">
<ele>74.80000305175781</ele>
<time>2014-02-15T16:38:41Z</time>
</trkpt>
<trkpt lat="52.67446517944336" lon="12.931099891662598">
<ele>74.5999984741211</ele>
<time>2014-02-15T16:38:42Z</time>
</trkpt>
<trkpt lat="52.67451095581055" lon="12.93112850189209">
<ele>74.69999694824219</ele>
<time>2014-02-15T16:38:43Z</time>
</trkpt>
<trkpt lat="52.67460632324219" lon="12.93118953704834">
<ele>74.69999694824219</ele>
<time>2014-02-15T16:38:45Z</time>
</trkpt>
<trkpt lat="52.674659729003906" lon="12.931225776672363">
<ele>75.0</ele>
<time>2014-02-15T16:38:46Z</time>
</trkpt>
<trkpt lat="52.674705505371094" lon="12.931256294250488">
<ele>74.5</ele>
<time>2014-02-15T16:38:47Z</time>
</trkpt>
<trkpt lat="52.67475128173828" lon="12.931286811828613">
<ele>75.0</ele>
<time>2014-02-15T16:38:52Z</time>
</trkpt>
<trkpt lat="52.67490768432617" lon="12.931415557861328">
<ele>74.5</ele>
<time>2014-02-15T16:38:58Z</time>
</trkpt>
<trkpt lat="52.675045013427734" lon="12.931513786315918">
<ele>71.80000305175781</ele>
<time>2014-02-15T16:38:58Z</time>
</trkpt>
<trkpt lat="52.67515182495117" lon="12.931558609008789">
<ele>71.5999984741211</ele>
<time>2014-02-15T16:39:01Z</time>
</trkpt>
<trkpt lat="52.675201416015625" lon="12.93154525756836">
<ele>73.0</ele>
<time>2014-02-15T16:41:34Z</time>
</trkpt>
<trkpt lat="52.675262451171875" lon="12.931608200073242">
<ele>74.4000015258789</ele>
<time>2014-02-15T16:41:38Z</time>
</trkpt>
<trkpt lat="52.67533493041992" lon="12.931659698486328">
<ele>72.69999694824219</ele>
<time>2014-02-15T16:41:40Z</time>
</trkpt>
<trkpt lat="52.67547607421875" lon="12.93175220489502">
<ele>75.69999694824219</ele>
<time>2014-02-15T16:41:41Z</time>
</trkpt>
<trkpt lat="52.67560958862305" lon="12.931846618652344">
<ele>75.80000305175781</ele>
<time>2014-02-15T16:41:43Z</time>
</trkpt>
<trkpt lat="52.67570114135742" lon="12.931915283203125">
<ele>75.5999984741211</ele>
<time>2014-02-15T16:41:45Z</time>
</trkpt>
<trkpt lat="52.67579650878906" lon="12.931979179382324">
<ele>75.30000305175781</ele>
<time>2014-02-15T16:41:47Z</time>
</trkpt>
<trkpt lat="52.67588806152344" lon="12.932042121887207">
<ele>75.9000015258789</ele>
<time>2014-02-15T16:41:48Z</time>
</trkpt>
<trkpt lat="52.67593765258789" lon="12.932069778442383">
<ele>76.0999984741211</ele>
<time>2014-02-15T16:41:49Z</time>
</trkpt>
<trkpt lat="52.67598342895508" lon="12.932100296020508">
<ele>75.80000305175781</ele>
<time>2014-02-15T16:41:50Z</time>
</trkpt>
<trkpt lat="52.676025390625" lon="12.93212890625">
<ele>76.19999694824219</ele>
<time>2014-02-15T16:41:51Z</time>
</trkpt>
<trkpt lat="52.67607116699219" lon="12.932158470153809">
<ele>76.30000305175781</ele>
<time>2014-02-15T16:41:52Z</time>
</trkpt>
<trkpt lat="52.67612838745117" lon="12.932184219360352">
<ele>76.30000305175781</ele>
<time>2014-02-15T16:41:53Z</time>
</trkpt>
<trkpt lat="52.676177978515625" lon="12.932208061218262">
<ele>76.4000015258789</ele>
<time>2014-02-15T16:41:54Z</time>
</trkpt>
<trkpt lat="52.67621994018555" lon="12.932242393493652">
<ele>76.0999984741211</ele>
<time>2014-02-15T16:41:55Z</time>
</trkpt>
<trkpt lat="52.676265716552734" lon="12.932282447814941">
<ele>76.0</ele>
<time>2014-02-15T16:41:56Z</time>
</trkpt>
<trkpt lat="52.67631149291992" lon="12.932312965393066">
<ele>75.80000305175781</ele>
<time>2014-02-15T16:41:57Z</time>
</trkpt>
<trkpt lat="52.67635726928711" lon="12.93234634399414">
<ele>75.80000305175781</ele>
<time>2014-02-15T16:41:58Z</time>
</trkpt>
<trkpt lat="52.67644500732422" lon="12.932409286499023">
<ele>75.9000015258789</ele>
<time>2014-02-15T16:42:00Z</time>
</trkpt>
<trkpt lat="52.676490783691406" lon="12.93244457244873">
<ele>76.4000015258789</ele>
<time>2014-02-15T16:42:01Z</time>
</trkpt>
<trkpt lat="52.676536560058594" lon="12.932477951049805">
<ele>76.30000305175781</ele>
<time>2014-02-15T16:42:02Z</time>
</trkpt>
<trkpt lat="52.67658615112305" lon="12.932517051696777">
<ele>76.30000305175781</ele>
<time>2014-02-15T16:42:03Z</time>
</trkpt>
<trkpt lat="52.676631927490234" lon="12.932549476623535">
<ele>76.4000015258789</ele>
<time>2014-02-15T16:42:04Z</time>
</trkpt>
<trkpt lat="52.67667770385742" lon="12.932584762573242">
<ele>76.5</ele>
<time>2014-02-15T16:42:05Z</time>
</trkpt>
<trkpt lat="52.67672348022461" lon="12.932613372802734">
<ele>76.0</ele>
<time>2014-02-15T16:42:06Z</time>
</trkpt>
<trkpt lat="52.6767692565918" lon="12.932641983032227">
<ele>75.69999694824219</ele>
<time>2014-02-15T16:42:07Z</time>
</trkpt>
<trkpt lat="52.676815032958984" lon="12.9326810836792">
<ele>75.69999694824219</ele>
<time>2014-02-15T16:42:08Z</time>
</trkpt>
<trkpt lat="52.67686080932617" lon="12.932713508605957">
<ele>75.80000305175781</ele>
<time>2014-02-15T16:42:09Z</time>
</trkpt>
<trkpt lat="52.676910400390625" lon="12.932744979858398">
<ele>75.4000015258789</ele>
<time>2014-02-15T16:42:10Z</time>
</trkpt>
<trkpt lat="52.67695999145508" lon="12.93277645111084">
<ele>75.0999984741211</ele>
<time>2014-02-15T16:42:11Z</time>
</trkpt>
<trkpt lat="52.677005767822266" lon="12.932804107666016">
<ele>75.19999694824219</ele>
<time>2014-02-15T16:42:12Z</time>
</trkpt>
<trkpt lat="52.677059173583984" lon="12.932838439941406">
<ele>76.30000305175781</ele>
<time>2014-02-15T16:42:13Z</time>
</trkpt>
<trkpt lat="52.67710494995117" lon="12.93287181854248">
<ele>76.19999694824219</ele>
<time>2014-02-15T16:42:14Z</time>
</trkpt>
<trkpt lat="52.67715835571289" lon="12.932902336120605">
<ele>76.30000305175781</ele>
<time>2014-02-15T16:42:15Z</time>
</trkpt>
<trkpt lat="52.677207946777344" lon="12.93293285369873">
<ele>76.4000015258789</ele>
<time>2014-02-15T16:42:16Z</time>
</trkpt>
<trkpt lat="52.67725372314453" lon="12.932966232299805">
<ele>76.0999984741211</ele>
<time>2014-02-15T16:42:17Z</time>
</trkpt>
<trkpt lat="52.677303314208984" lon="12.932992935180664">
<ele>76.19999694824219</ele>
<time>2014-02-15T16:42:18Z</time>
</trkpt>
<trkpt lat="52.67734909057617" lon="12.933021545410156">
<ele>76.30000305175781</ele>
<time>2014-02-15T16:42:19Z</time>
</trkpt>
<trkpt lat="52.677398681640625" lon="12.93305778503418">
<ele>76.4000015258789</ele>
<time>2014-02-15T16:42:20Z</time>
</trkpt>
<trkpt lat="52.67744827270508" lon="12.933087348937988">
<ele>76.9000015258789</ele>
<time>2014-02-15T16:42:21Z</time>
</trkpt>
<trkpt lat="52.6775016784668" lon="12.933122634887695">
<ele>77.0999984741211</ele>
<time>2014-02-15T16:42:22Z</time>
</trkpt>
<trkpt lat="52.67755126953125" lon="12.933158874511719">
<ele>77.0999984741211</ele>
<time>2014-02-15T16:42:23Z</time>
</trkpt>
<trkpt lat="52.6776008605957" lon="12.933194160461426">
<ele>78.0</ele>
<time>2014-02-15T16:42:24Z</time>
</trkpt>
<trkpt lat="52.67764663696289" lon="12.933222770690918">
<ele>77.5</ele>
<time>2014-02-15T16:42:25Z</time>
</trkpt>
<trkpt lat="52.677696228027344" lon="12.933250427246094">
<ele>76.9000015258789</ele>
<time>2014-02-15T16:42:26Z</time>
</trkpt>
<trkpt lat="52.6777458190918" lon="12.933279037475586">
<ele>76.69999694824219</ele>
<time>2014-02-15T16:42:27Z</time>
</trkpt>
<trkpt lat="52.677791595458984" lon="12.93331241607666">
<ele>76.4000015258789</ele>
<time>2014-02-15T16:42:28Z</time>
</trkpt>
<trkpt lat="52.6778450012207" lon="12.933349609375">
<ele>76.4000015258789</ele>
<time>2014-02-15T16:42:29Z</time>
</trkpt>
<trkpt lat="52.67789077758789" lon="12.93338680267334">
<ele>76.69999694824219</ele>
<time>2014-02-15T16:42:30Z</time>
</trkpt>
<trkpt lat="52.67793655395508" lon="12.933422088623047">
<ele>76.4000015258789</ele>
<time>2014-02-15T16:42:31Z</time>
</trkpt>
<trkpt lat="52.67798614501953" lon="12.933457374572754">
<ele>76.0999984741211</ele>
<time>2014-02-15T16:42:32Z</time>
</trkpt>
<trkpt lat="52.678035736083984" lon="12.933490753173828">
<ele>76.5</ele>
<time>2014-02-15T16:42:33Z</time>
</trkpt>
<trkpt lat="52.6780891418457" lon="12.933526039123535">
<ele>76.5</ele>
<time>2014-02-15T16:42:34Z</time>
</trkpt>
<trkpt lat="52.678138732910156" lon="12.933560371398926">
<ele>76.4000015258789</ele>
<time>2014-02-15T16:42:35Z</time>
</trkpt>
<trkpt lat="52.678192138671875" lon="12.933592796325684">
<ele>76.30000305175781</ele>
<time>2014-02-15T16:42:36Z</time>
</trkpt>
<trkpt lat="52.678245544433594" lon="12.933623313903809">
<ele>76.0999984741211</ele>
<time>2014-02-15T16:42:37Z</time>
</trkpt>
<trkpt lat="52.67829895019531" lon="12.9336576461792">
<ele>76.0999984741211</ele>
<time>2014-02-15T16:42:38Z</time>
</trkpt>
<trkpt lat="52.678348541259766" lon="12.933693885803223">
<ele>76.0</ele>
<time>2014-02-15T16:42:39Z</time>
</trkpt>
<trkpt lat="52.678401947021484" lon="12.933727264404297">
<ele>75.9000015258789</ele>
<time>2014-02-15T16:42:39Z</time>
</trkpt>
<trkpt lat="52.6784553527832" lon="12.933760643005371">
<ele>76.0</ele>
<time>2014-02-15T16:42:41Z</time>
</trkpt>
<trkpt lat="52.678504943847656" lon="12.933793067932129">
<ele>75.80000305175781</ele>
<time>2014-02-15T16:42:42Z</time>
</trkpt>
<trkpt lat="52.678558349609375" lon="12.933826446533203">
<ele>75.9000015258789</ele>
<time>2014-02-15T16:42:43Z</time>
</trkpt>
<trkpt lat="52.67860794067383" lon="12.933859825134277">
<ele>76.0</ele>
<time>2014-02-15T16:42:44Z</time>
</trkpt>
<trkpt lat="52.67865753173828" lon="12.933894157409668">
<ele>76.0999984741211</ele>
<time>2014-02-15T16:42:45Z</time>
</trkpt>
<trkpt lat="52.678707122802734" lon="12.933924674987793">
<ele>75.5999984741211</ele>
<time>2014-02-15T16:42:46Z</time>
</trkpt>
<trkpt lat="52.67876052856445" lon="12.933956146240234">
<ele>75.5999984741211</ele>
<time>2014-02-15T16:42:47Z</time>
</trkpt>
<trkpt lat="52.678810119628906" lon="12.933991432189941">
<ele>75.5999984741211</ele>
<time>2014-02-15T16:42:48Z</time>
</trkpt>
<trkpt lat="52.678863525390625" lon="12.934028625488281">
<ele>75.5</ele>
<time>2014-02-15T16:42:49Z</time>
</trkpt>
<trkpt lat="52.67890930175781" lon="12.934065818786621">
<ele>75.0</ele>
<time>2014-02-15T16:42:50Z</time>
</trkpt>
<trkpt lat="52.678955078125" lon="12.934102058410645">
<ele>74.5</ele>
<time>2014-02-15T16:42:51Z</time>
</trkpt>
<trkpt lat="52.67900466918945" lon="12.934142112731934">
<ele>74.19999694824219</ele>
<time>2014-02-15T16:42:52Z</time>
</trkpt>
<trkpt lat="52.67905807495117" lon="12.934176445007324">
<ele>74.0</ele>
<time>2014-02-15T16:42:53Z</time>
</trkpt>
<trkpt lat="52.679107666015625" lon="12.934212684631348">
<ele>73.9000015258789</ele>
<time>2014-02-15T16:42:54Z</time>
</trkpt>
<trkpt lat="52.67915725708008" lon="12.934246063232422">
<ele>73.9000015258789</ele>
<time>2014-02-15T16:42:55Z</time>
</trkpt>
<trkpt lat="52.67920684814453" lon="12.934286117553711">
<ele>73.9000015258789</ele>
<time>2014-02-15T16:42:55Z</time>
</trkpt>
<trkpt lat="52.679256439208984" lon="12.934328079223633">
<ele>73.69999694824219</ele>
<time>2014-02-15T16:42:57Z</time>
</trkpt>
<trkpt lat="52.67930603027344" lon="12.934366226196289">
<ele>73.5999984741211</ele>
<time>2014-02-15T16:42:58Z</time>
</trkpt>
<trkpt lat="52.67935562133789" lon="12.93440055847168">
<ele>73.4000015258789</ele>
<time>2014-02-15T16:42:59Z</time>
</trkpt>
<trkpt lat="52.679405212402344" lon="12.934433937072754">
<ele>73.30000305175781</ele>
<time>2014-02-15T16:43:00Z</time>
</trkpt>
<trkpt lat="52.6794548034668" lon="12.934469223022461">
<ele>73.30000305175781</ele>
<time>2014-02-15T16:43:01Z</time>
</trkpt>
<trkpt lat="52.67950439453125" lon="12.934505462646484">
<ele>73.30000305175781</ele>
<time>2014-02-15T16:43:02Z</time>
</trkpt>
<trkpt lat="52.6795539855957" lon="12.934540748596191">
<ele>73.0999984741211</ele>
<time>2014-02-15T16:43:03Z</time>
</trkpt>
<trkpt lat="52.679603576660156" lon="12.934574127197266">
<ele>73.19999694824219</ele>
<time>2014-02-15T16:43:04Z</time>
</trkpt>
<trkpt lat="52.67965316772461" lon="12.934609413146973">
<ele>73.4000015258789</ele>
<time>2014-02-15T16:43:05Z</time>
</trkpt>
<trkpt lat="52.67970275878906" lon="12.934640884399414">
<ele>73.30000305175781</ele>
<time>2014-02-15T16:43:06Z</time>
</trkpt>
<trkpt lat="52.679752349853516" lon="12.934673309326172">
<ele>73.19999694824219</ele>
<time>2014-02-15T16:43:07Z</time>
</trkpt>
<trkpt lat="52.679805755615234" lon="12.934707641601562">
<ele>73.19999694824219</ele>
<time>2014-02-15T16:43:08Z</time>
</trkpt>
<trkpt lat="52.67985534667969" lon="12.934739112854004">
<ele>73.0</ele>
<time>2014-02-15T16:43:09Z</time>
</trkpt>
<trkpt lat="52.67990493774414" lon="12.934771537780762">
<ele>72.69999694824219</ele>
<time>2014-02-15T16:43:10Z</time>
</trkpt>
<trkpt lat="52.67995834350586" lon="12.93480396270752">
<ele>72.80000305175781</ele>
<time>2014-02-15T16:43:11Z</time>
</trkpt>
<trkpt lat="52.68000793457031" lon="12.934837341308594">
<ele>72.80000305175781</ele>
<time>2014-02-15T16:43:12Z</time>
</trkpt>
<trkpt lat="52.680057525634766" lon="12.934868812561035">
<ele>73.0</ele>
<time>2014-02-15T16:43:12Z</time>
</trkpt>
<trkpt lat="52.68010711669922" lon="12.934904098510742">
<ele>72.80000305175781</ele>
<time>2014-02-15T16:43:14Z</time>
</trkpt>
<trkpt lat="52.68015670776367" lon="12.93493938446045">
<ele>72.69999694824219</ele>
<time>2014-02-15T16:43:15Z</time>
</trkpt>
<trkpt lat="52.68021011352539" lon="12.93497371673584">
<ele>72.80000305175781</ele>
<time>2014-02-15T16:43:16Z</time>
</trkpt>
<trkpt lat="52.680259704589844" lon="12.93500804901123">
<ele>72.9000015258789</ele>
<time>2014-02-15T16:43:17Z</time>
</trkpt>
<trkpt lat="52.68031311035156" lon="12.935043334960938">
<ele>72.80000305175781</ele>
<time>2014-02-15T16:43:18Z</time>
</trkpt>
<trkpt lat="52.680362701416016" lon="12.935081481933594">
<ele>72.69999694824219</ele>
<time>2014-02-15T16:43:19Z</time>
</trkpt>
<trkpt lat="52.68041229248047" lon="12.935113906860352">
<ele>72.5999984741211</ele>
<time>2014-02-15T16:43:20Z</time>
</trkpt>
<trkpt lat="52.68046188354492" lon="12.935144424438477">
<ele>72.5999984741211</ele>
<time>2014-02-15T16:43:21Z</time>
</trkpt>
<trkpt lat="52.68051528930664" lon="12.935174942016602">
<ele>72.5999984741211</ele>
<time>2014-02-15T16:43:22Z</time>
</trkpt>
<trkpt lat="52.680564880371094" lon="12.93520736694336">
<ele>72.4000015258789</ele>
<time>2014-02-15T16:43:23Z</time>
</trkpt>
<trkpt lat="52.68061828613281" lon="12.935243606567383">
<ele>72.30000305175781</ele>
<time>2014-02-15T16:43:24Z</time>
</trkpt>
<trkpt lat="52.6806640625" lon="12.935291290283203">
<ele>72.0999984741211</ele>
<time>2014-02-15T16:43:25Z</time>
</trkpt>
<trkpt lat="52.68070983886719" lon="12.935338973999023">
<ele>71.5999984741211</ele>
<time>2014-02-15T16:43:26Z</time>
</trkpt>
<trkpt lat="52.68074417114258" lon="12.935397148132324">
<ele>71.19999694824219</ele>
<time>2014-02-15T16:43:27Z</time>
</trkpt>
<trkpt lat="52.680782318115234" lon="12.93546199798584">
<ele>71.19999694824219</ele>
<time>2014-02-15T16:43:28Z</time>
</trkpt>
<trkpt lat="52.680824279785156" lon="12.935510635375977">
<ele>71.5</ele>
<time>2014-02-15T16:43:29Z</time>
</trkpt>
<trkpt lat="52.68086624145508" lon="12.935559272766113">
<ele>71.5999984741211</ele>
<time>2014-02-15T16:43:30Z</time>
</trkpt>
<trkpt lat="52.68091583251953" lon="12.935606956481934">
<ele>71.80000305175781</ele>
<time>2014-02-15T16:43:31Z</time>
</trkpt>
<trkpt lat="52.680965423583984" lon="12.935656547546387">
<ele>72.19999694824219</ele>
<time>2014-02-15T16:43:32Z</time>
</trkpt>
<trkpt lat="52.6810188293457" lon="12.935688972473145">
<ele>72.19999694824219</ele>
<time>2014-02-15T16:43:33Z</time>
</trkpt>
<trkpt lat="52.68107604980469" lon="12.935721397399902">
<ele>72.19999694824219</ele>
<time>2014-02-15T16:43:34Z</time>
</trkpt>
<trkpt lat="52.681129455566406" lon="12.935748100280762">
<ele>72.0</ele>
<time>2014-02-15T16:43:35Z</time>
</trkpt>
<trkpt lat="52.681182861328125" lon="12.935773849487305">
<ele>72.30000305175781</ele>
<time>2014-02-15T16:43:36Z</time>
</trkpt>
<trkpt lat="52.681236267089844" lon="12.935805320739746">
<ele>72.5999984741211</ele>
<time>2014-02-15T16:43:37Z</time>
</trkpt>
<trkpt lat="52.6812858581543" lon="12.935844421386719">
<ele>72.80000305175781</ele>
<time>2014-02-15T16:43:38Z</time>
</trkpt>
<trkpt lat="52.681339263916016" lon="12.935882568359375">
<ele>72.4000015258789</ele>
<time>2014-02-15T16:43:39Z</time>
</trkpt>
<trkpt lat="52.68138885498047" lon="12.935917854309082">
<ele>72.5</ele>
<time>2014-02-15T16:43:40Z</time>
</trkpt>
<trkpt lat="52.68143844604492" lon="12.93593978881836">
<ele>72.19999694824219</ele>
<time>2014-02-15T16:43:41Z</time>
</trkpt>
<trkpt lat="52.681488037109375" lon="12.935977935791016">
<ele>72.19999694824219</ele>
<time>2014-02-15T16:43:42Z</time>
</trkpt>
<trkpt lat="52.68153762817383" lon="12.936020851135254">
<ele>72.4000015258789</ele>
<time>2014-02-15T16:43:43Z</time>
</trkpt>
<trkpt lat="52.68159103393555" lon="12.936054229736328">
<ele>72.19999694824219</ele>
<time>2014-02-15T16:43:44Z</time>
</trkpt>
<trkpt lat="52.681640625" lon="12.936092376708984">
<ele>72.19999694824219</ele>
<time>2014-02-15T16:43:45Z</time>
</trkpt>
<trkpt lat="52.68169403076172" lon="12.936123847961426">
<ele>72.4000015258789</ele>
<time>2014-02-15T16:43:46Z</time>
</trkpt>
<trkpt lat="52.68174743652344" lon="12.936159133911133">
<ele>72.5</ele>
<time>2014-02-15T16:43:47Z</time>
</trkpt>
<trkpt lat="52.68180465698242" lon="12.936192512512207">
<ele>72.5</ele>
<time>2014-02-15T16:43:48Z</time>
</trkpt>
<trkpt lat="52.68185806274414" lon="12.936225891113281">
<ele>72.30000305175781</ele>
<time>2014-02-15T16:43:49Z</time>
</trkpt>
<trkpt lat="52.68190002441406" lon="12.936261177062988">
<ele>72.19999694824219</ele>
<time>2014-02-15T16:43:50Z</time>
</trkpt>
<trkpt lat="52.68195343017578" lon="12.93628978729248">
<ele>72.5999984741211</ele>
<time>2014-02-15T16:43:51Z</time>
</trkpt>
<trkpt lat="52.6820068359375" lon="12.936322212219238">
<ele>72.5</ele>
<time>2014-02-15T16:43:52Z</time>
</trkpt>
<trkpt lat="52.68206024169922" lon="12.936354637145996">
<ele>72.4000015258789</ele>
<time>2014-02-15T16:43:52Z</time>
</trkpt>
<trkpt lat="52.68210983276367" lon="12.936392784118652">
<ele>72.4000015258789</ele>
<time>2014-02-15T16:43:54Z</time>
</trkpt>
<trkpt lat="52.682159423828125" lon="12.93642807006836">
<ele>72.4000015258789</ele>
<time>2014-02-15T16:43:55Z</time>
</trkpt>
<trkpt lat="52.682212829589844" lon="12.936463356018066">
<ele>72.5999984741211</ele>
<time>2014-02-15T16:43:56Z</time>
</trkpt>
<trkpt lat="52.6822624206543" lon="12.936494827270508">
<ele>72.80000305175781</ele>
<time>2014-02-15T16:43:57Z</time>
</trkpt>
<trkpt lat="52.68231201171875" lon="12.936529159545898">
<ele>73.30000305175781</ele>
<time>2014-02-15T16:43:58Z</time>
</trkpt>
<trkpt lat="52.6823616027832" lon="12.936568260192871">
<ele>73.0999984741211</ele>
<time>2014-02-15T16:43:59Z</time>
</trkpt>
<trkpt lat="52.68240737915039" lon="12.936607360839844">
<ele>73.19999694824219</ele>
<time>2014-02-15T16:44:00Z</time>
</trkpt>
<trkpt lat="52.682456970214844" lon="12.936637878417969">
<ele>72.9000015258789</ele>
<time>2014-02-15T16:44:01Z</time>
</trkpt>
<trkpt lat="52.68251037597656" lon="12.936671257019043">
<ele>72.9000015258789</ele>
<time>2014-02-15T16:44:02Z</time>
</trkpt>
<trkpt lat="52.682559967041016" lon="12.9367036819458">
<ele>72.9000015258789</ele>
<time>2014-02-15T16:44:03Z</time>
</trkpt>
<trkpt lat="52.68260192871094" lon="12.936734199523926">
<ele>72.69999694824219</ele>
<time>2014-02-15T16:44:04Z</time>
</trkpt>
<trkpt lat="52.68265151977539" lon="12.936772346496582">
<ele>72.5</ele>
<time>2014-02-15T16:44:05Z</time>
</trkpt>
<trkpt lat="52.682701110839844" lon="12.936799049377441">
<ele>72.4000015258789</ele>
<time>2014-02-15T16:44:06Z</time>
</trkpt>
<trkpt lat="52.6827507019043" lon="12.9368257522583">
<ele>72.30000305175781</ele>
<time>2014-02-15T16:44:07Z</time>
</trkpt>
<trkpt lat="52.68279266357422" lon="12.936845779418945">
<ele>72.0999984741211</ele>
<time>2014-02-15T16:44:08Z</time>
</trkpt>
<trkpt lat="52.68284225463867" lon="12.936882972717285">
<ele>72.4000015258789</ele>
<time>2014-02-15T16:44:09Z</time>
</trkpt>
<trkpt lat="52.68288803100586" lon="12.936910629272461">
<ele>72.4000015258789</ele>
<time>2014-02-15T16:44:10Z</time>
</trkpt>
<trkpt lat="52.68294143676758" lon="12.936929702758789">
<ele>72.9000015258789</ele>
<time>2014-02-15T16:44:11Z</time>
</trkpt>
<trkpt lat="52.68299102783203" lon="12.936944007873535">
<ele>72.5999984741211</ele>
<time>2014-02-15T16:44:12Z</time>
</trkpt>
<trkpt lat="52.68304443359375" lon="12.936959266662598">
<ele>72.69999694824219</ele>
<time>2014-02-15T16:44:13Z</time>
</trkpt>
<trkpt lat="52.68309020996094" lon="12.936972618103027">
<ele>72.5</ele>
<time>2014-02-15T16:44:14Z</time>
</trkpt>
<trkpt lat="52.683143615722656" lon="12.936976432800293">
<ele>72.30000305175781</ele>
<time>2014-02-15T16:44:15Z</time>
</trkpt>
<trkpt lat="52.68319320678711" lon="12.936981201171875">
<ele>72.4000015258789</ele>
<time>2014-02-15T16:44:16Z</time>
</trkpt>
<trkpt lat="52.68324279785156" lon="12.936981201171875">
<ele>72.30000305175781</ele>
<time>2014-02-15T16:44:17Z</time>
</trkpt>
<trkpt lat="52.683292388916016" lon="12.936969757080078">
<ele>71.80000305175781</ele>
<time>2014-02-15T16:44:18Z</time>
</trkpt>
<trkpt lat="52.683349609375" lon="12.936972618103027">
<ele>72.0</ele>
<time>2014-02-15T16:44:19Z</time>
</trkpt>
<trkpt lat="52.68340301513672" lon="12.936969757080078">
<ele>71.5</ele>
<time>2014-02-15T16:44:20Z</time>
</trkpt>
<trkpt lat="52.6834602355957" lon="12.936968803405762">
<ele>71.4000015258789</ele>
<time>2014-02-15T16:44:21Z</time>
</trkpt>
<trkpt lat="52.68351745605469" lon="12.936978340148926">
<ele>71.5</ele>
<time>2014-02-15T16:44:22Z</time>
</trkpt>
<trkpt lat="52.68357467651367" lon="12.936973571777344">
<ele>71.19999694824219</ele>
<time>2014-02-15T16:44:23Z</time>
</trkpt>
<trkpt lat="52.683624267578125" lon="12.936971664428711">
<ele>71.5999984741211</ele>
<time>2014-02-15T16:44:24Z</time>
</trkpt>
<trkpt lat="52.68367385864258" lon="12.93696403503418">
<ele>71.69999694824219</ele>
<time>2014-02-15T16:44:25Z</time>
</trkpt>
<trkpt lat="52.6837272644043" lon="12.936951637268066">
<ele>72.0999984741211</ele>
<time>2014-02-15T16:44:26Z</time>
</trkpt>
<trkpt lat="52.68377685546875" lon="12.936948776245117">
<ele>72.19999694824219</ele>
<time>2014-02-15T16:44:27Z</time>
</trkpt>
<trkpt lat="52.68383026123047" lon="12.9369478225708">
<ele>72.19999694824219</ele>
<time>2014-02-15T16:44:28Z</time>
</trkpt>
<trkpt lat="52.68387985229492" lon="12.936966896057129">
<ele>72.4000015258789</ele>
<time>2014-02-15T16:44:29Z</time>
</trkpt>
<trkpt lat="52.683921813964844" lon="12.93701457977295">
<ele>72.4000015258789</ele>
<time>2014-02-15T16:44:30Z</time>
</trkpt>
<trkpt lat="52.68396759033203" lon="12.937067985534668">
<ele>72.30000305175781</ele>
<time>2014-02-15T16:44:31Z</time>
</trkpt>
<trkpt lat="52.68397521972656" lon="12.93715763092041">
<ele>72.5</ele>
<time>2014-02-15T16:44:32Z</time>
</trkpt>
<trkpt lat="52.6839714050293" lon="12.937244415283203">
<ele>72.69999694824219</ele>
<time>2014-02-15T16:44:33Z</time>
</trkpt>
<trkpt lat="52.68396759033203" lon="12.937336921691895">
<ele>73.0999984741211</ele>
<time>2014-02-15T16:44:34Z</time>
</trkpt>
<trkpt lat="52.683956146240234" lon="12.93741512298584">
<ele>73.4000015258789</ele>
<time>2014-02-15T16:44:35Z</time>
</trkpt>
<trkpt lat="52.68394470214844" lon="12.937504768371582">
<ele>73.4000015258789</ele>
<time>2014-02-15T16:44:36Z</time>
</trkpt>
<trkpt lat="52.68393325805664" lon="12.937596321105957">
<ele>73.5999984741211</ele>
<time>2014-02-15T16:44:37Z</time>
</trkpt>
<trkpt lat="52.683929443359375" lon="12.93768310546875">
<ele>73.69999694824219</ele>
<time>2014-02-15T16:44:38Z</time>
</trkpt>
<trkpt lat="52.683921813964844" lon="12.937761306762695">
<ele>73.80000305175781</ele>
<time>2014-02-15T16:44:39Z</time>
</trkpt>
<trkpt lat="52.68391418457031" lon="12.93783950805664">
<ele>73.5999984741211</ele>
<time>2014-02-15T16:44:40Z</time>
</trkpt>
<trkpt lat="52.68391036987305" lon="12.937922477722168">
<ele>73.30000305175781</ele>
<time>2014-02-15T16:44:41Z</time>
</trkpt>
<trkpt lat="52.683902740478516" lon="12.93800163269043">
<ele>73.69999694824219</ele>
<time>2014-02-15T16:44:42Z</time>
</trkpt>
<trkpt lat="52.683895111083984" lon="12.938078880310059">
<ele>73.80000305175781</ele>
<time>2014-02-15T16:44:43Z</time>
</trkpt>
<trkpt lat="52.68388748168945" lon="12.938158988952637">
<ele>74.0999984741211</ele>
<time>2014-02-15T16:44:44Z</time>
</trkpt>
<trkpt lat="52.68387985229492" lon="12.938234329223633">
<ele>74.19999694824219</ele>
<time>2014-02-15T16:44:45Z</time>
</trkpt>
<trkpt lat="52.68387222290039" lon="12.938313484191895">
<ele>74.0999984741211</ele>
<time>2014-02-15T16:44:46Z</time>
</trkpt>
<trkpt lat="52.68386459350586" lon="12.938395500183105">
<ele>73.5</ele>
<time>2014-02-15T16:44:47Z</time>
</trkpt>
<trkpt lat="52.68385314941406" lon="12.938474655151367">
<ele>73.0999984741211</ele>
<time>2014-02-15T16:44:48Z</time>
</trkpt>
<trkpt lat="52.683841705322266" lon="12.938559532165527">
<ele>72.5999984741211</ele>
<time>2014-02-15T16:44:49Z</time>
</trkpt>
<trkpt lat="52.683834075927734" lon="12.938643455505371">
<ele>72.0</ele>
<time>2014-02-15T16:44:50Z</time>
</trkpt>
<trkpt lat="52.6838264465332" lon="12.938724517822266">
<ele>71.80000305175781</ele>
<time>2014-02-15T16:44:51Z</time>
</trkpt>
<trkpt lat="52.68381881713867" lon="12.938801765441895">
<ele>71.5</ele>
<time>2014-02-15T16:44:52Z</time>
</trkpt>
<trkpt lat="52.683807373046875" lon="12.93887996673584">
<ele>71.4000015258789</ele>
<time>2014-02-15T16:44:52Z</time>
</trkpt>
<trkpt lat="52.68379211425781" lon="12.93896770477295">
<ele>71.30000305175781</ele>
<time>2014-02-15T16:44:54Z</time>
</trkpt>
<trkpt lat="52.68378448486328" lon="12.939047813415527">
<ele>71.4000015258789</ele>
<time>2014-02-15T16:44:55Z</time>
</trkpt>
<trkpt lat="52.68376922607422" lon="12.939130783081055">
<ele>71.0</ele>
<time>2014-02-15T16:44:56Z</time>
</trkpt>
<trkpt lat="52.68376159667969" lon="12.939207077026367">
<ele>71.30000305175781</ele>
<time>2014-02-15T16:44:57Z</time>
</trkpt>
<trkpt lat="52.683753967285156" lon="12.939285278320312">
<ele>71.5999984741211</ele>
<time>2014-02-15T16:44:58Z</time>
</trkpt>
<trkpt lat="52.683746337890625" lon="12.939361572265625">
<ele>71.5</ele>
<time>2014-02-15T16:44:59Z</time>
</trkpt>
<trkpt lat="52.68373489379883" lon="12.939441680908203">
<ele>71.5</ele>
<time>2014-02-15T16:45:00Z</time>
</trkpt>
<trkpt lat="52.68372344970703" lon="12.939517974853516">
<ele>71.80000305175781</ele>
<time>2014-02-15T16:45:01Z</time>
</trkpt>
<trkpt lat="52.68370819091797" lon="12.939589500427246">
<ele>72.19999694824219</ele>
<time>2014-02-15T16:45:02Z</time>
</trkpt>
<trkpt lat="52.683692932128906" lon="12.939661026000977">
<ele>72.30000305175781</ele>
<time>2014-02-15T16:45:03Z</time>
</trkpt>
<trkpt lat="52.683685302734375" lon="12.93973445892334">
<ele>72.19999694824219</ele>
<time>2014-02-15T16:45:04Z</time>
</trkpt>
<trkpt lat="52.68368148803711" lon="12.939809799194336">
<ele>72.0999984741211</ele>
<time>2014-02-15T16:45:05Z</time>
</trkpt>
<trkpt lat="52.68370056152344" lon="12.93995189666748">
<ele>72.30000305175781</ele>
<time>2014-02-15T16:45:07Z</time>
</trkpt>
<trkpt lat="52.683738708496094" lon="12.940080642700195">
<ele>72.30000305175781</ele>
<time>2014-02-15T16:45:09Z</time>
</trkpt>
<trkpt lat="52.68376159667969" lon="12.940150260925293">
<ele>72.30000305175781</ele>
<time>2014-02-15T16:45:09Z</time>
</trkpt>
<trkpt lat="52.68377685546875" lon="12.94021987915039">
<ele>72.4000015258789</ele>
<time>2014-02-15T16:45:11Z</time>
</trkpt>
<trkpt lat="52.68378829956055" lon="12.940299987792969">
<ele>72.30000305175781</ele>
<time>2014-02-15T16:45:12Z</time>
</trkpt>
<trkpt lat="52.68380355834961" lon="12.940372467041016">
<ele>72.5</ele>
<time>2014-02-15T16:45:13Z</time>
</trkpt>
<trkpt lat="52.683837890625" lon="12.940497398376465">
<ele>72.5</ele>
<time>2014-02-15T16:45:15Z</time>
</trkpt>
<trkpt lat="52.68387985229492" lon="12.940603256225586">
<ele>72.9000015258789</ele>
<time>2014-02-15T16:45:17Z</time>
</trkpt>
<trkpt lat="52.68390655517578" lon="12.940730094909668">
<ele>72.80000305175781</ele>
<time>2014-02-15T16:45:19Z</time>
</trkpt>
<trkpt lat="52.68393325805664" lon="12.940875053405762">
<ele>73.0999984741211</ele>
<time>2014-02-15T16:45:21Z</time>
</trkpt>
<trkpt lat="52.6839599609375" lon="12.941010475158691">
<ele>73.0999984741211</ele>
<time>2014-02-15T16:45:23Z</time>
</trkpt>
<trkpt lat="52.6839714050293" lon="12.941082000732422">
<ele>73.80000305175781</ele>
<time>2014-02-15T16:45:24Z</time>
</trkpt>
<trkpt lat="52.68399429321289" lon="12.941154479980469">
<ele>74.30000305175781</ele>
<time>2014-02-15T16:45:25Z</time>
</trkpt>
<trkpt lat="52.68404006958008" lon="12.941264152526855">
<ele>74.5</ele>
<time>2014-02-15T16:45:27Z</time>
</trkpt>
<trkpt lat="52.68407440185547" lon="12.941384315490723">
<ele>74.19999694824219</ele>
<time>2014-02-15T16:45:29Z</time>
</trkpt>
<trkpt lat="52.68410110473633" lon="12.941508293151855">
<ele>73.0</ele>
<time>2014-02-15T16:45:31Z</time>
</trkpt>
<trkpt lat="52.68414306640625" lon="12.941627502441406">
<ele>72.69999694824219</ele>
<time>2014-02-15T16:45:33Z</time>
</trkpt>
<trkpt lat="52.68418884277344" lon="12.941746711730957">
<ele>71.69999694824219</ele>
<time>2014-02-15T16:45:35Z</time>
</trkpt>
<trkpt lat="52.68421173095703" lon="12.941861152648926">
<ele>71.19999694824219</ele>
<time>2014-02-15T16:45:37Z</time>
</trkpt>
<trkpt lat="52.68421173095703" lon="12.941995620727539">
<ele>73.69999694824219</ele>
<time>2014-02-15T16:45:39Z</time>
</trkpt>
<trkpt lat="52.68425369262695" lon="12.942092895507812">
<ele>74.0999984741211</ele>
<time>2014-02-15T16:45:41Z</time>
</trkpt>
<trkpt lat="52.68430709838867" lon="12.942161560058594">
<ele>73.9000015258789</ele>
<time>2014-02-15T16:45:45Z</time>
</trkpt>
<trkpt lat="52.68435287475586" lon="12.942217826843262">
<ele>71.5</ele>
<time>2014-02-15T16:45:50Z</time>
</trkpt>
<trkpt lat="52.68448257446289" lon="12.942316055297852">
<ele>71.0999984741211</ele>
<time>2014-02-15T16:45:51Z</time>
</trkpt>
<trkpt lat="52.68455505371094" lon="12.942389488220215">
<ele>69.4000015258789</ele>
<time>2014-02-15T16:45:56Z</time>
</trkpt>
<trkpt lat="52.68461608886719" lon="12.9423828125">
<ele>67.19999694824219</ele>
<time>2014-02-15T16:46:00Z</time>
</trkpt>
<trkpt lat="52.684574127197266" lon="12.942448616027832">
<ele>66.80000305175781</ele>
<time>2014-02-15T16:46:02Z</time>
</trkpt>
<trkpt lat="52.68461990356445" lon="12.94244384765625">
<ele>67.80000305175781</ele>
<time>2014-02-15T16:46:11Z</time>
</trkpt>
<trkpt lat="52.684635162353516" lon="12.942319869995117">
<ele>80.5999984741211</ele>
<time>2014-02-16T13:08:39Z</time>
</trkpt>
<trkpt lat="52.684574127197266" lon="12.94231128692627">
<ele>77.69999694824219</ele>
<time>2014-02-16T13:09:25Z</time>
</trkpt>
<trkpt lat="52.684532165527344" lon="12.942276954650879">
<ele>79.9000015258789</ele>
<time>2014-02-16T13:09:27Z</time>
</trkpt>
<trkpt lat="52.68440628051758" lon="12.942188262939453">
<ele>77.5999984741211</ele>
<time>2014-02-16T13:09:39Z</time>
</trkpt>
<trkpt lat="52.6844482421875" lon="12.942566871643066">
<ele>74.5999984741211</ele>
<time>2014-02-16T13:09:43Z</time>
</trkpt>
<trkpt lat="52.68455123901367" lon="12.942862510681152">
<ele>73.0999984741211</ele>
<time>2014-02-16T13:09:47Z</time>
</trkpt>
<trkpt lat="52.684593200683594" lon="12.943053245544434">
<ele>70.5</ele>
<time>2014-02-16T13:09:49Z</time>
</trkpt>
<trkpt lat="52.684635162353516" lon="12.943263053894043">
<ele>71.5</ele>
<time>2014-02-16T13:09:50Z</time>
</trkpt>
<trkpt lat="52.68465805053711" lon="12.943376541137695">
<ele>71.30000305175781</ele>
<time>2014-02-16T13:09:52Z</time>
</trkpt>
<trkpt lat="52.68471145629883" lon="12.943427085876465">
<ele>71.19999694824219</ele>
<time>2014-02-16T13:09:53Z</time>
</trkpt>
<trkpt lat="52.68476104736328" lon="12.943533897399902">
<ele>72.4000015258789</ele>
<time>2014-02-16T13:09:55Z</time>
</trkpt>
<trkpt lat="52.684783935546875" lon="12.94360637664795">
<ele>73.5</ele>
<time>2014-02-16T13:09:56Z</time>
</trkpt>
<trkpt lat="52.68482208251953" lon="12.943737983703613">
<ele>73.0</ele>
<time>2014-02-16T13:09:58Z</time>
</trkpt>
<trkpt lat="52.68484115600586" lon="12.943864822387695">
<ele>73.80000305175781</ele>
<time>2014-02-16T13:10:01Z</time>
</trkpt>
<trkpt lat="52.68486022949219" lon="12.94398021697998">
<ele>74.80000305175781</ele>
<time>2014-02-16T13:10:02Z</time>
</trkpt>
<trkpt lat="52.68487548828125" lon="12.944064140319824">
<ele>74.5999984741211</ele>
<time>2014-02-16T13:10:03Z</time>
</trkpt>
<trkpt lat="52.684906005859375" lon="12.944136619567871">
<ele>74.4000015258789</ele>
<time>2014-02-16T13:10:04Z</time>
</trkpt>
<trkpt lat="52.6849365234375" lon="12.944255828857422">
<ele>74.5999984741211</ele>
<time>2014-02-16T13:10:07Z</time>
</trkpt>
<trkpt lat="52.68495559692383" lon="12.944350242614746">
<ele>74.4000015258789</ele>
<time>2014-02-16T13:10:07Z</time>
</trkpt>
<trkpt lat="52.68500518798828" lon="12.944514274597168">
<ele>73.80000305175781</ele>
<time>2014-02-16T13:10:10Z</time>
</trkpt>
<trkpt lat="52.68502426147461" lon="12.944595336914062">
<ele>73.80000305175781</ele>
<time>2014-02-16T13:10:10Z</time>
</trkpt>
<trkpt lat="52.685054779052734" lon="12.944649696350098">
<ele>73.5</ele>
<time>2014-02-16T13:10:11Z</time>
</trkpt>
<trkpt lat="52.68507385253906" lon="12.944757461547852">
<ele>72.69999694824219</ele>
<time>2014-02-16T13:10:13Z</time>
</trkpt>
<trkpt lat="52.68508529663086" lon="12.944854736328125">
<ele>74.30000305175781</ele>
<time>2014-02-16T13:10:16Z</time>
</trkpt>
<trkpt lat="52.685123443603516" lon="12.944927215576172">
<ele>74.0999984741211</ele>
<time>2014-02-16T13:10:17Z</time>
</trkpt>
<trkpt lat="52.68511962890625" lon="12.94501781463623">
<ele>74.5</ele>
<time>2014-02-16T13:10:19Z</time>
</trkpt>
<trkpt lat="52.68516540527344" lon="12.945116996765137">
<ele>76.4000015258789</ele>
<time>2014-02-16T13:10:43Z</time>
</trkpt>
<trkpt lat="52.68520736694336" lon="12.94517707824707">
<ele>77.0</ele>
<time>2014-02-16T13:10:45Z</time>
</trkpt>
<trkpt lat="52.68524169921875" lon="12.945279121398926">
<ele>77.80000305175781</ele>
<time>2014-02-16T13:10:46Z</time>
</trkpt>
<trkpt lat="52.68525695800781" lon="12.945358276367188">
<ele>77.80000305175781</ele>
<time>2014-02-16T13:10:47Z</time>
</trkpt>
<trkpt lat="52.68528366088867" lon="12.945487976074219">
<ele>77.69999694824219</ele>
<time>2014-02-16T13:10:49Z</time>
</trkpt>
<trkpt lat="52.685306549072266" lon="12.9456148147583">
<ele>77.80000305175781</ele>
<time>2014-02-16T13:10:51Z</time>
</trkpt>
<trkpt lat="52.68535614013672" lon="12.945732116699219">
<ele>77.30000305175781</ele>
<time>2014-02-16T13:10:53Z</time>
</trkpt>
<trkpt lat="52.68537139892578" lon="12.945801734924316">
<ele>78.0999984741211</ele>
<time>2014-02-16T13:10:54Z</time>
</trkpt>
<trkpt lat="52.68539047241211" lon="12.945879936218262">
<ele>78.5999984741211</ele>
<time>2014-02-16T13:10:55Z</time>
</trkpt>
<trkpt lat="52.685428619384766" lon="12.946014404296875">
<ele>79.4000015258789</ele>
<time>2014-02-16T13:10:57Z</time>
</trkpt>
<trkpt lat="52.68547058105469" lon="12.946141242980957">
<ele>80.19999694824219</ele>
<time>2014-02-16T13:10:59Z</time>
</trkpt>
<trkpt lat="52.68549346923828" lon="12.946264266967773">
<ele>80.19999694824219</ele>
<time>2014-02-16T13:11:01Z</time>
</trkpt>
<trkpt lat="52.6855354309082" lon="12.946325302124023">
<ele>80.4000015258789</ele>
<time>2014-02-16T13:11:02Z</time>
</trkpt>
<trkpt lat="52.6855583190918" lon="12.946393966674805">
<ele>80.30000305175781</ele>
<time>2014-02-16T13:11:03Z</time>
</trkpt>
<trkpt lat="52.685569763183594" lon="12.946475982666016">
<ele>79.5999984741211</ele>
<time>2014-02-16T13:11:04Z</time>
</trkpt>
<trkpt lat="52.68558883666992" lon="12.946557998657227">
<ele>78.80000305175781</ele>
<time>2014-02-16T13:11:06Z</time>
</trkpt>
<trkpt lat="52.68563461303711" lon="12.946763038635254">
<ele>80.0999984741211</ele>
<time>2014-02-16T13:11:08Z</time>
</trkpt>
<trkpt lat="52.685665130615234" lon="12.94683837890625">
<ele>80.19999694824219</ele>
<time>2014-02-16T13:11:09Z</time>
</trkpt>
<trkpt lat="52.68567657470703" lon="12.946911811828613">
<ele>79.69999694824219</ele>
<time>2014-02-16T13:11:10Z</time>
</trkpt>
<trkpt lat="52.68569564819336" lon="12.946990966796875">
<ele>79.80000305175781</ele>
<time>2014-02-16T13:11:11Z</time>
</trkpt>
<trkpt lat="52.68573760986328" lon="12.947059631347656">
<ele>80.0</ele>
<time>2014-02-16T13:11:12Z</time>
</trkpt>
<trkpt lat="52.68577575683594" lon="12.94713020324707">
<ele>80.4000015258789</ele>
<time>2014-02-16T13:11:13Z</time>
</trkpt>
<trkpt lat="52.68579864501953" lon="12.947196960449219">
<ele>80.4000015258789</ele>
<time>2014-02-16T13:11:14Z</time>
</trkpt>
<trkpt lat="52.68581771850586" lon="12.947283744812012">
<ele>79.80000305175781</ele>
<time>2014-02-16T13:11:16Z</time>
</trkpt>
<trkpt lat="52.68585205078125" lon="12.947420120239258">
<ele>79.0</ele>
<time>2014-02-16T13:11:18Z</time>
</trkpt>
<trkpt lat="52.68589782714844" lon="12.94754409790039">
<ele>79.0999984741211</ele>
<time>2014-02-16T13:11:20Z</time>
</trkpt>
<trkpt lat="52.6859130859375" lon="12.947694778442383">
<ele>80.0</ele>
<time>2014-02-16T13:11:22Z</time>
</trkpt>
<trkpt lat="52.685951232910156" lon="12.947844505310059">
<ele>80.4000015258789</ele>
<time>2014-02-16T13:11:24Z</time>
</trkpt>
<trkpt lat="52.68600082397461" lon="12.948012351989746">
<ele>80.80000305175781</ele>
<time>2014-02-16T13:11:26Z</time>
</trkpt>
<trkpt lat="52.686065673828125" lon="12.948177337646484">
<ele>80.5</ele>
<time>2014-02-16T13:11:27Z</time>
</trkpt>
<trkpt lat="52.68609619140625" lon="12.94830322265625">
<ele>80.4000015258789</ele>
<time>2014-02-16T13:11:30Z</time>
</trkpt>
<trkpt lat="52.686134338378906" lon="12.948467254638672">
<ele>80.80000305175781</ele>
<time>2014-02-16T13:11:31Z</time>
</trkpt>
<trkpt lat="52.6861572265625" lon="12.948546409606934">
<ele>80.9000015258789</ele>
<time>2014-02-16T13:11:32Z</time>
</trkpt>
<trkpt lat="52.68619918823242" lon="12.948700904846191">
<ele>80.5</ele>
<time>2014-02-16T13:11:34Z</time>
</trkpt>
<trkpt lat="52.686241149902344" lon="12.948776245117188">
<ele>80.5</ele>
<time>2014-02-16T13:11:35Z</time>
</trkpt>
<trkpt lat="52.686279296875" lon="12.948870658874512">
<ele>80.9000015258789</ele>
<time>2014-02-16T13:11:36Z</time>
</trkpt>
<trkpt lat="52.68630599975586" lon="12.948959350585938">
<ele>81.19999694824219</ele>
<time>2014-02-16T13:11:37Z</time>
</trkpt>
<trkpt lat="52.68633270263672" lon="12.949024200439453">
<ele>80.5999984741211</ele>
<time>2014-02-16T13:11:38Z</time>
</trkpt>
<trkpt lat="52.68634033203125" lon="12.949105262756348">
<ele>80.5999984741211</ele>
<time>2014-02-16T13:11:39Z</time>
</trkpt>
<trkpt lat="52.686370849609375" lon="12.949179649353027">
<ele>80.5</ele>
<time>2014-02-16T13:11:40Z</time>
</trkpt>
<trkpt lat="52.68640899658203" lon="12.949310302734375">
<ele>79.9000015258789</ele>
<time>2014-02-16T13:11:42Z</time>
</trkpt>
<trkpt lat="52.68645095825195" lon="12.949462890625">
<ele>78.80000305175781</ele>
<time>2014-02-16T13:11:44Z</time>
</trkpt>
<trkpt lat="52.68647766113281" lon="12.949551582336426">
<ele>78.4000015258789</ele>
<time>2014-02-16T13:11:45Z</time>
</trkpt>
<trkpt lat="52.68650436401367" lon="12.949617385864258">
<ele>78.4000015258789</ele>
<time>2014-02-16T13:11:46Z</time>
</trkpt>
<trkpt lat="52.6865234375" lon="12.949691772460938">
<ele>78.5</ele>
<time>2014-02-16T13:11:47Z</time>
</trkpt>
<trkpt lat="52.686546325683594" lon="12.949766159057617">
<ele>78.5999984741211</ele>
<time>2014-02-16T13:11:48Z</time>
</trkpt>
<trkpt lat="52.68659210205078" lon="12.949909210205078">
<ele>77.69999694824219</ele>
<time>2014-02-16T13:11:50Z</time>
</trkpt>
<trkpt lat="52.68660354614258" lon="12.949990272521973">
<ele>76.9000015258789</ele>
<time>2014-02-16T13:11:51Z</time>
</trkpt>
<trkpt lat="52.686622619628906" lon="12.95014762878418">
<ele>77.5999984741211</ele>
<time>2014-02-16T13:11:53Z</time>
</trkpt>
<trkpt lat="52.686649322509766" lon="12.950258255004883">
<ele>79.0999984741211</ele>
<time>2014-02-16T13:11:55Z</time>
</trkpt>
<trkpt lat="52.68666458129883" lon="12.95034122467041">
<ele>78.5999984741211</ele>
<time>2014-02-16T13:11:56Z</time>
</trkpt>
<trkpt lat="52.686683654785156" lon="12.950417518615723">
<ele>77.9000015258789</ele>
<time>2014-02-16T13:11:57Z</time>
</trkpt>
<trkpt lat="52.68668746948242" lon="12.950499534606934">
<ele>77.5999984741211</ele>
<time>2014-02-16T13:11:58Z</time>
</trkpt>
<trkpt lat="52.686710357666016" lon="12.950586318969727">
<ele>77.5999984741211</ele>
<time>2014-02-16T13:11:59Z</time>
</trkpt>
<trkpt lat="52.68673324584961" lon="12.950671195983887">
<ele>76.9000015258789</ele>
<time>2014-02-16T13:12:00Z</time>
</trkpt>
<trkpt lat="52.686744689941406" lon="12.95074462890625">
<ele>77.5</ele>
<time>2014-02-16T13:12:01Z</time>
</trkpt>
<trkpt lat="52.686763763427734" lon="12.950824737548828">
<ele>76.4000015258789</ele>
<time>2014-02-16T13:12:02Z</time>
</trkpt>
<trkpt lat="52.686790466308594" lon="12.950883865356445">
<ele>76.19999694824219</ele>
<time>2014-02-16T13:12:03Z</time>
</trkpt>
<trkpt lat="52.68680191040039" lon="12.950966835021973">
<ele>75.5999984741211</ele>
<time>2014-02-16T13:12:04Z</time>
</trkpt>
<trkpt lat="52.68684005737305" lon="12.951041221618652">
<ele>75.5</ele>
<time>2014-02-16T13:12:05Z</time>
</trkpt>
<trkpt lat="52.686866760253906" lon="12.9511137008667">
<ele>75.30000305175781</ele>
<time>2014-02-16T13:12:06Z</time>
</trkpt>
<trkpt lat="52.6868896484375" lon="12.951187133789062">
<ele>75.5</ele>
<time>2014-02-16T13:12:07Z</time>
</trkpt>
<trkpt lat="52.68691635131836" lon="12.951266288757324">
<ele>75.0999984741211</ele>
<time>2014-02-16T13:12:08Z</time>
</trkpt>
<trkpt lat="52.686946868896484" lon="12.951366424560547">
<ele>74.80000305175781</ele>
<time>2014-02-16T13:12:09Z</time>
</trkpt>
<trkpt lat="52.68696975708008" lon="12.951434135437012">
<ele>74.9000015258789</ele>
<time>2014-02-16T13:12:10Z</time>
</trkpt>
<trkpt lat="52.68699264526367" lon="12.951510429382324">
<ele>75.5</ele>
<time>2014-02-16T13:12:11Z</time>
</trkpt>
<trkpt lat="52.687015533447266" lon="12.951582908630371">
<ele>75.30000305175781</ele>
<time>2014-02-16T13:12:12Z</time>
</trkpt>
<trkpt lat="52.68705368041992" lon="12.951678276062012">
<ele>75.5</ele>
<time>2014-02-16T13:12:13Z</time>
</trkpt>
<trkpt lat="52.68708419799805" lon="12.95174503326416">
<ele>75.69999694824219</ele>
<time>2014-02-16T13:12:14Z</time>
</trkpt>
<trkpt lat="52.68708038330078" lon="12.951826095581055">
<ele>75.9000015258789</ele>
<time>2014-02-16T13:12:15Z</time>
</trkpt>
<trkpt lat="52.68710708618164" lon="12.951911926269531">
<ele>75.4000015258789</ele>
<time>2014-02-16T13:12:16Z</time>
</trkpt>
<trkpt lat="52.6871223449707" lon="12.952010154724121">
<ele>75.4000015258789</ele>
<time>2014-02-16T13:12:17Z</time>
</trkpt>
<trkpt lat="52.68714141845703" lon="12.952082633972168">
<ele>75.4000015258789</ele>
<time>2014-02-16T13:12:18Z</time>
</trkpt>
<trkpt lat="52.687164306640625" lon="12.952218055725098">
<ele>75.5</ele>
<time>2014-02-16T13:12:20Z</time>
</trkpt>
<trkpt lat="52.68720245361328" lon="12.952311515808105">
<ele>75.19999694824219</ele>
<time>2014-02-16T13:12:22Z</time>
</trkpt>
<trkpt lat="52.6872444152832" lon="12.952381134033203">
<ele>74.5999984741211</ele>
<time>2014-02-16T13:12:23Z</time>
</trkpt>
<trkpt lat="52.687278747558594" lon="12.952515602111816">
<ele>73.80000305175781</ele>
<time>2014-02-16T13:12:25Z</time>
</trkpt>
<trkpt lat="52.68730163574219" lon="12.952600479125977">
<ele>73.80000305175781</ele>
<time>2014-02-16T13:12:26Z</time>
</trkpt>
<trkpt lat="52.687339782714844" lon="12.952676773071289">
<ele>73.80000305175781</ele>
<time>2014-02-16T13:12:27Z</time>
</trkpt>
<trkpt lat="52.6873779296875" lon="12.952756881713867">
<ele>74.30000305175781</ele>
<time>2014-02-16T13:12:28Z</time>
</trkpt>
<trkpt lat="52.6873893737793" lon="12.95285415649414">
<ele>74.4000015258789</ele>
<time>2014-02-16T13:12:29Z</time>
</trkpt>
<trkpt lat="52.68742752075195" lon="12.953008651733398">
<ele>75.0</ele>
<time>2014-02-16T13:12:31Z</time>
</trkpt>
<trkpt lat="52.68745803833008" lon="12.953082084655762">
<ele>75.0</ele>
<time>2014-02-16T13:12:32Z</time>
</trkpt>
<trkpt lat="52.687469482421875" lon="12.953165054321289">
<ele>75.5</ele>
<time>2014-02-16T13:12:33Z</time>
</trkpt>
<trkpt lat="52.6874885559082" lon="12.953251838684082">
<ele>75.69999694824219</ele>
<time>2014-02-16T13:12:34Z</time>
</trkpt>
<trkpt lat="52.687503814697266" lon="12.95332145690918">
<ele>75.69999694824219</ele>
<time>2014-02-16T13:12:35Z</time>
</trkpt>
<trkpt lat="52.687522888183594" lon="12.95345687866211">
<ele>77.0999984741211</ele>
<time>2014-02-16T13:12:37Z</time>
</trkpt>
<trkpt lat="52.687530517578125" lon="12.953558921813965">
<ele>76.80000305175781</ele>
<time>2014-02-16T13:12:38Z</time>
</trkpt>
<trkpt lat="52.68754577636719" lon="12.953643798828125">
<ele>77.0</ele>
<time>2014-02-16T13:12:39Z</time>
</trkpt>
<trkpt lat="52.68758773803711" lon="12.953713417053223">
<ele>77.0999984741211</ele>
<time>2014-02-16T13:12:40Z</time>
</trkpt>
<trkpt lat="52.68760681152344" lon="12.953783988952637">
<ele>78.0999984741211</ele>
<time>2014-02-16T13:12:42Z</time>
</trkpt>
<trkpt lat="52.68764114379883" lon="12.95385456085205">
<ele>77.30000305175781</ele>
<time>2014-02-16T13:12:42Z</time>
</trkpt>
<trkpt lat="52.68767166137695" lon="12.95392894744873">
<ele>77.4000015258789</ele>
<time>2014-02-16T13:12:43Z</time>
</trkpt>
<trkpt lat="52.68769836425781" lon="12.954007148742676">
<ele>77.30000305175781</ele>
<time>2014-02-16T13:12:44Z</time>
</trkpt>
<trkpt lat="52.687713623046875" lon="12.954085350036621">
<ele>77.4000015258789</ele>
<time>2014-02-16T13:12:45Z</time>
</trkpt>
<trkpt lat="52.68773651123047" lon="12.954154968261719">
<ele>77.5</ele>
<time>2014-02-16T13:12:46Z</time>
</trkpt>
<trkpt lat="52.68776321411133" lon="12.954221725463867">
<ele>77.5</ele>
<time>2014-02-16T13:12:47Z</time>
</trkpt>
<trkpt lat="52.687782287597656" lon="12.954299926757812">
<ele>77.5999984741211</ele>
<time>2014-02-16T13:12:48Z</time>
</trkpt>
<trkpt lat="52.68781661987305" lon="12.954377174377441">
<ele>78.19999694824219</ele>
<time>2014-02-16T13:12:49Z</time>
</trkpt>
<trkpt lat="52.687843322753906" lon="12.954466819763184">
<ele>78.30000305175781</ele>
<time>2014-02-16T13:12:50Z</time>
</trkpt>
<trkpt lat="52.68788146972656" lon="12.954532623291016">
<ele>78.19999694824219</ele>
<time>2014-02-16T13:12:51Z</time>
</trkpt>
<trkpt lat="52.68790817260742" lon="12.954628944396973">
<ele>78.0</ele>
<time>2014-02-16T13:12:52Z</time>
</trkpt>
<trkpt lat="52.68791961669922" lon="12.954726219177246">
<ele>77.9000015258789</ele>
<time>2014-02-16T13:12:53Z</time>
</trkpt>
<trkpt lat="52.68793487548828" lon="12.954797744750977">
<ele>77.80000305175781</ele>
<time>2014-02-16T13:12:54Z</time>
</trkpt>
<trkpt lat="52.68796920776367" lon="12.954977035522461">
<ele>79.0</ele>
<time>2014-02-16T13:12:56Z</time>
</trkpt>
<trkpt lat="52.68798828125" lon="12.955056190490723">
<ele>79.5</ele>
<time>2014-02-16T13:12:57Z</time>
</trkpt>
<trkpt lat="52.68801498413086" lon="12.955143928527832">
<ele>80.9000015258789</ele>
<time>2014-02-16T13:12:58Z</time>
</trkpt>
<trkpt lat="52.68804168701172" lon="12.955222129821777">
<ele>81.9000015258789</ele>
<time>2014-02-16T13:12:59Z</time>
</trkpt>
<trkpt lat="52.68806076049805" lon="12.955293655395508">
<ele>82.0</ele>
<time>2014-02-16T13:13:00Z</time>
</trkpt>
<trkpt lat="52.68808364868164" lon="12.955358505249023">
<ele>82.0</ele>
<time>2014-02-16T13:13:01Z</time>
</trkpt>
<trkpt lat="52.688114166259766" lon="12.955429077148438">
<ele>82.4000015258789</ele>
<time>2014-02-16T13:13:02Z</time>
</trkpt>
<trkpt lat="52.688140869140625" lon="12.955583572387695">
<ele>82.0999984741211</ele>
<time>2014-02-16T13:13:04Z</time>
</trkpt>
<trkpt lat="52.68815231323242" lon="12.955669403076172">
<ele>82.19999694824219</ele>
<time>2014-02-16T13:13:05Z</time>
</trkpt>
<trkpt lat="52.68818664550781" lon="12.95573902130127">
<ele>82.30000305175781</ele>
<time>2014-02-16T13:13:06Z</time>
</trkpt>
<trkpt lat="52.6882209777832" lon="12.95580768585205">
<ele>82.30000305175781</ele>
<time>2014-02-16T13:13:07Z</time>
</trkpt>
<trkpt lat="52.68825149536133" lon="12.955892562866211">
<ele>82.30000305175781</ele>
<time>2014-02-16T13:13:08Z</time>
</trkpt>
<trkpt lat="52.688270568847656" lon="12.955979347229004">
<ele>82.0</ele>
<time>2014-02-16T13:13:09Z</time>
</trkpt>
<trkpt lat="52.68829345703125" lon="12.956061363220215">
<ele>82.0999984741211</ele>
<time>2014-02-16T13:13:10Z</time>
</trkpt>
<trkpt lat="52.68830871582031" lon="12.956141471862793">
<ele>82.30000305175781</ele>
<time>2014-02-16T13:13:11Z</time>
</trkpt>
<trkpt lat="52.68833923339844" lon="12.956218719482422">
<ele>82.30000305175781</ele>
<time>2014-02-16T13:13:12Z</time>
</trkpt>
<trkpt lat="52.6883430480957" lon="12.956324577331543">
<ele>82.4000015258789</ele>
<time>2014-02-16T13:13:13Z</time>
</trkpt>
<trkpt lat="52.688392639160156" lon="12.956459045410156">
<ele>82.80000305175781</ele>
<time>2014-02-16T13:13:15Z</time>
</trkpt>
<trkpt lat="52.68840408325195" lon="12.956563949584961">
<ele>82.5999984741211</ele>
<time>2014-02-16T13:13:16Z</time>
</trkpt>
<trkpt lat="52.68843078613281" lon="12.956658363342285">
<ele>85.4000015258789</ele>
<time>2014-02-16T13:13:17Z</time>
</trkpt>
<trkpt lat="52.688453674316406" lon="12.956724166870117">
<ele>86.30000305175781</ele>
<time>2014-02-16T13:13:18Z</time>
</trkpt>
<trkpt lat="52.68849182128906" lon="12.956808090209961">
<ele>86.9000015258789</ele>
<time>2014-02-16T13:13:19Z</time>
</trkpt>
<trkpt lat="52.688514709472656" lon="12.956881523132324">
<ele>87.5</ele>
<time>2014-02-16T13:13:20Z</time>
</trkpt>
<trkpt lat="52.68853759765625" lon="12.956950187683105">
<ele>87.30000305175781</ele>
<time>2014-02-16T13:13:21Z</time>
</trkpt>
<trkpt lat="52.688560485839844" lon="12.957029342651367">
<ele>87.5</ele>
<time>2014-02-16T13:13:22Z</time>
</trkpt>
<trkpt lat="52.6885871887207" lon="12.957181930541992">
<ele>86.69999694824219</ele>
<time>2014-02-16T13:13:24Z</time>
</trkpt>
<trkpt lat="52.688621520996094" lon="12.957313537597656">
<ele>85.5</ele>
<time>2014-02-16T13:13:26Z</time>
</trkpt>
<trkpt lat="52.68864059448242" lon="12.957388877868652">
<ele>85.5999984741211</ele>
<time>2014-02-16T13:13:27Z</time>
</trkpt>
<trkpt lat="52.68866729736328" lon="12.957470893859863">
<ele>85.0999984741211</ele>
<time>2014-02-16T13:13:28Z</time>
</trkpt>
<trkpt lat="52.68870162963867" lon="12.957551002502441">
<ele>85.0</ele>
<time>2014-02-16T13:13:29Z</time>
</trkpt>
<trkpt lat="52.68873596191406" lon="12.957624435424805">
<ele>84.19999694824219</ele>
<time>2014-02-16T13:13:30Z</time>
</trkpt>
<trkpt lat="52.68876266479492" lon="12.957687377929688">
<ele>84.5</ele>
<time>2014-02-16T13:13:31Z</time>
</trkpt>
<trkpt lat="52.68878173828125" lon="12.957756996154785">
<ele>84.5</ele>
<time>2014-02-16T13:13:32Z</time>
</trkpt>
<trkpt lat="52.68879699707031" lon="12.957833290100098">
<ele>84.19999694824219</ele>
<time>2014-02-16T13:13:33Z</time>
</trkpt>
<trkpt lat="52.688812255859375" lon="12.957919120788574">
<ele>84.5999984741211</ele>
<time>2014-02-16T13:13:34Z</time>
</trkpt>
<trkpt lat="52.68883514404297" lon="12.958060264587402">
<ele>84.5999984741211</ele>
<time>2014-02-16T13:13:36Z</time>
</trkpt>
<trkpt lat="52.688838958740234" lon="12.958148002624512">
<ele>83.9000015258789</ele>
<time>2014-02-16T13:13:37Z</time>
</trkpt>
<trkpt lat="52.68886184692383" lon="12.958243370056152">
<ele>82.69999694824219</ele>
<time>2014-02-16T13:13:38Z</time>
</trkpt>
<trkpt lat="52.68888473510742" lon="12.958309173583984">
<ele>82.5999984741211</ele>
<time>2014-02-16T13:13:39Z</time>
</trkpt>
<trkpt lat="52.688907623291016" lon="12.958394050598145">
<ele>82.9000015258789</ele>
<time>2014-02-16T13:13:40Z</time>
</trkpt>
<trkpt lat="52.68892288208008" lon="12.958486557006836">
<ele>82.9000015258789</ele>
<time>2014-02-16T13:13:41Z</time>
</trkpt>
<trkpt lat="52.68893814086914" lon="12.9585542678833">
<ele>82.80000305175781</ele>
<time>2014-02-16T13:13:42Z</time>
</trkpt>
<trkpt lat="52.68897247314453" lon="12.958612442016602">
<ele>83.5999984741211</ele>
<time>2014-02-16T13:13:43Z</time>
</trkpt>
<trkpt lat="52.68901062011719" lon="12.958688735961914">
<ele>83.5999984741211</ele>
<time>2014-02-16T13:13:44Z</time>
</trkpt>
<trkpt lat="52.689022064208984" lon="12.958794593811035">
<ele>83.4000015258789</ele>
<time>2014-02-16T13:13:45Z</time>
</trkpt>
<trkpt lat="52.68906784057617" lon="12.958901405334473">
<ele>83.80000305175781</ele>
<time>2014-02-16T13:13:47Z</time>
</trkpt>
<trkpt lat="52.68906784057617" lon="12.958985328674316">
<ele>83.5</ele>
<time>2014-02-16T13:13:48Z</time>
</trkpt>
<trkpt lat="52.6890869140625" lon="12.959053993225098">
<ele>83.5</ele>
<time>2014-02-16T13:13:49Z</time>
</trkpt>
<trkpt lat="52.689125061035156" lon="12.959118843078613">
<ele>83.80000305175781</ele>
<time>2014-02-16T13:13:50Z</time>
</trkpt>
<trkpt lat="52.68914794921875" lon="12.959208488464355">
<ele>83.5999984741211</ele>
<time>2014-02-16T13:13:51Z</time>
</trkpt>
<trkpt lat="52.68916320800781" lon="12.959299087524414">
<ele>83.5999984741211</ele>
<time>2014-02-16T13:13:52Z</time>
</trkpt>
<trkpt lat="52.689186096191406" lon="12.959365844726562">
<ele>83.4000015258789</ele>
<time>2014-02-16T13:13:53Z</time>
</trkpt>
<trkpt lat="52.689212799072266" lon="12.959444046020508">
<ele>83.69999694824219</ele>
<time>2014-02-16T13:13:54Z</time>
</trkpt>
<trkpt lat="52.689247131347656" lon="12.959525108337402">
<ele>83.9000015258789</ele>
<time>2014-02-16T13:13:55Z</time>
</trkpt>
<trkpt lat="52.68926239013672" lon="12.959625244140625">
<ele>83.69999694824219</ele>
<time>2014-02-16T13:13:56Z</time>
</trkpt>
<trkpt lat="52.68928527832031" lon="12.959698677062988">
<ele>83.80000305175781</ele>
<time>2014-02-16T13:13:57Z</time>
</trkpt>
<trkpt lat="52.68930435180664" lon="12.959798812866211">
<ele>83.9000015258789</ele>
<time>2014-02-16T13:13:58Z</time>
</trkpt>
<trkpt lat="52.689334869384766" lon="12.95986557006836">
<ele>83.9000015258789</ele>
<time>2014-02-16T13:13:59Z</time>
</trkpt>
<trkpt lat="52.689353942871094" lon="12.959940910339355">
<ele>83.9000015258789</ele>
<time>2014-02-16T13:14:00Z</time>
</trkpt>
<trkpt lat="52.68937301635742" lon="12.960025787353516">
<ele>83.80000305175781</ele>
<time>2014-02-16T13:14:01Z</time>
</trkpt>
<trkpt lat="52.689395904541016" lon="12.96009635925293">
<ele>83.5999984741211</ele>
<time>2014-02-16T13:14:02Z</time>
</trkpt>
<trkpt lat="52.68942642211914" lon="12.960246086120605">
<ele>83.5999984741211</ele>
<time>2014-02-16T13:14:04Z</time>
</trkpt>
<trkpt lat="52.68944549560547" lon="12.960320472717285">
<ele>83.69999694824219</ele>
<time>2014-02-16T13:14:05Z</time>
</trkpt>
<trkpt lat="52.689456939697266" lon="12.96039867401123">
<ele>83.9000015258789</ele>
<time>2014-02-16T13:14:06Z</time>
</trkpt>
<trkpt lat="52.689483642578125" lon="12.96054458618164">
<ele>85.0</ele>
<time>2014-02-16T13:14:08Z</time>
</trkpt>
<trkpt lat="52.68949508666992" lon="12.960623741149902">
<ele>84.80000305175781</ele>
<time>2014-02-16T13:14:09Z</time>
</trkpt>
<trkpt lat="52.68950653076172" lon="12.960701942443848">
<ele>84.80000305175781</ele>
<time>2014-02-16T13:14:10Z</time>
</trkpt>
<trkpt lat="52.68951416015625" lon="12.960776329040527">
<ele>84.9000015258789</ele>
<time>2014-02-16T13:14:11Z</time>
</trkpt>
<trkpt lat="52.68952941894531" lon="12.960846900939941">
<ele>84.80000305175781</ele>
<time>2014-02-16T13:14:12Z</time>
</trkpt>
<trkpt lat="52.689552307128906" lon="12.960925102233887">
<ele>84.80000305175781</ele>
<time>2014-02-16T13:14:13Z</time>
</trkpt>
<trkpt lat="52.68955993652344" lon="12.961017608642578">
<ele>84.80000305175781</ele>
<time>2014-02-16T13:14:14Z</time>
</trkpt>
<trkpt lat="52.68956756591797" lon="12.96110725402832">
<ele>85.0</ele>
<time>2014-02-16T13:14:15Z</time>
</trkpt>
<trkpt lat="52.689571380615234" lon="12.961186408996582">
<ele>85.0999984741211</ele>
<time>2014-02-16T13:14:16Z</time>
</trkpt>
<trkpt lat="52.68958282470703" lon="12.96127700805664">
<ele>85.0999984741211</ele>
<time>2014-02-16T13:14:17Z</time>
</trkpt>
<trkpt lat="52.68959426879883" lon="12.961358070373535">
<ele>85.80000305175781</ele>
<time>2014-02-16T13:14:18Z</time>
</trkpt>
<trkpt lat="52.689598083496094" lon="12.961454391479492">
<ele>86.0</ele>
<time>2014-02-16T13:14:19Z</time>
</trkpt>
<trkpt lat="52.689605712890625" lon="12.961538314819336">
<ele>85.19999694824219</ele>
<time>2014-02-16T13:14:20Z</time>
</trkpt>
<trkpt lat="52.68962478637695" lon="12.961626052856445">
<ele>85.0999984741211</ele>
<time>2014-02-16T13:14:21Z</time>
</trkpt>
<trkpt lat="52.689640045166016" lon="12.96176815032959">
<ele>85.5999984741211</ele>
<time>2014-02-16T13:14:23Z</time>
</trkpt>
<trkpt lat="52.689666748046875" lon="12.96190357208252">
<ele>84.5</ele>
<time>2014-02-16T13:14:25Z</time>
</trkpt>
<trkpt lat="52.689697265625" lon="12.961957931518555">
<ele>84.80000305175781</ele>
<time>2014-02-16T13:14:26Z</time>
</trkpt>
<trkpt lat="52.68973159790039" lon="12.962014198303223">
<ele>85.0</ele>
<time>2014-02-16T13:14:27Z</time>
</trkpt>
<trkpt lat="52.689735412597656" lon="12.962088584899902">
<ele>85.19999694824219</ele>
<time>2014-02-16T13:14:28Z</time>
</trkpt>
<trkpt lat="52.689762115478516" lon="12.962162971496582">
<ele>85.5</ele>
<time>2014-02-16T13:14:29Z</time>
</trkpt>
<trkpt lat="52.689788818359375" lon="12.962244033813477">
<ele>85.5999984741211</ele>
<time>2014-02-16T13:14:30Z</time>
</trkpt>
<trkpt lat="52.689823150634766" lon="12.962322235107422">
<ele>85.69999694824219</ele>
<time>2014-02-16T13:14:31Z</time>
</trkpt>
<trkpt lat="52.68984603881836" lon="12.962471008300781">
<ele>85.19999694824219</ele>
<time>2014-02-16T13:14:33Z</time>
</trkpt>
<trkpt lat="52.689849853515625" lon="12.96256160736084">
<ele>85.5</ele>
<time>2014-02-16T13:14:34Z</time>
</trkpt>
<trkpt lat="52.689876556396484" lon="12.962640762329102">
<ele>85.19999694824219</ele>
<time>2014-02-16T13:14:35Z</time>
</trkpt>
<trkpt lat="52.68989181518555" lon="12.962733268737793">
<ele>85.5</ele>
<time>2014-02-16T13:14:36Z</time>
</trkpt>
<trkpt lat="52.68991470336914" lon="12.962807655334473">
<ele>85.19999694824219</ele>
<time>2014-02-16T13:14:37Z</time>
</trkpt>
<trkpt lat="52.68993377685547" lon="12.96287727355957">
<ele>85.4000015258789</ele>
<time>2014-02-16T13:14:38Z</time>
</trkpt>
<trkpt lat="52.689945220947266" lon="12.962977409362793">
<ele>85.30000305175781</ele>
<time>2014-02-16T13:14:39Z</time>
</trkpt>
<trkpt lat="52.689979553222656" lon="12.963050842285156">
<ele>85.30000305175781</ele>
<time>2014-02-16T13:14:40Z</time>
</trkpt>
<trkpt lat="52.68998718261719" lon="12.963140487670898">
<ele>85.80000305175781</ele>
<time>2014-02-16T13:14:41Z</time>
</trkpt>
<trkpt lat="52.69001388549805" lon="12.96320629119873">
<ele>86.4000015258789</ele>
<time>2014-02-16T13:14:42Z</time>
</trkpt>
<trkpt lat="52.690040588378906" lon="12.963347434997559">
<ele>86.30000305175781</ele>
<time>2014-02-16T13:14:44Z</time>
</trkpt>
<trkpt lat="52.690059661865234" lon="12.963476181030273">
<ele>85.30000305175781</ele>
<time>2014-02-16T13:14:46Z</time>
</trkpt>
<trkpt lat="52.69008255004883" lon="12.963546752929688">
<ele>85.80000305175781</ele>
<time>2014-02-16T13:14:47Z</time>
</trkpt>
<trkpt lat="52.690093994140625" lon="12.963622093200684">
<ele>86.0</ele>
<time>2014-02-16T13:14:48Z</time>
</trkpt>
<trkpt lat="52.69011688232422" lon="12.96369743347168">
<ele>84.9000015258789</ele>
<time>2014-02-16T13:14:49Z</time>
</trkpt>
<trkpt lat="52.69013595581055" lon="12.963778495788574">
<ele>84.9000015258789</ele>
<time>2014-02-16T13:14:50Z</time>
</trkpt>
<trkpt lat="52.69016647338867" lon="12.963866233825684">
<ele>85.0999984741211</ele>
<time>2014-02-16T13:14:51Z</time>
</trkpt>
<trkpt lat="52.6901969909668" lon="12.963996887207031">
<ele>85.30000305175781</ele>
<time>2014-02-16T13:14:53Z</time>
</trkpt>
<trkpt lat="52.69021224975586" lon="12.96408748626709">
<ele>85.30000305175781</ele>
<time>2014-02-16T13:14:55Z</time>
</trkpt>
<trkpt lat="52.69023895263672" lon="12.964171409606934">
<ele>85.30000305175781</ele>
<time>2014-02-16T13:14:55Z</time>
</trkpt>
<trkpt lat="52.69026565551758" lon="12.964247703552246">
<ele>85.19999694824219</ele>
<time>2014-02-16T13:14:56Z</time>
</trkpt>
<trkpt lat="52.69031524658203" lon="12.964306831359863">
<ele>85.4000015258789</ele>
<time>2014-02-16T13:14:57Z</time>
</trkpt>
<trkpt lat="52.69035720825195" lon="12.964369773864746">
<ele>85.5</ele>
<time>2014-02-16T13:14:58Z</time>
</trkpt>
<trkpt lat="52.69038772583008" lon="12.964444160461426">
<ele>85.5999984741211</ele>
<time>2014-02-16T13:14:59Z</time>
</trkpt>
<trkpt lat="52.690433502197266" lon="12.96450424194336">
<ele>85.5999984741211</ele>
<time>2014-02-16T13:15:00Z</time>
</trkpt>
<trkpt lat="52.69047546386719" lon="12.96456241607666">
<ele>85.5</ele>
<time>2014-02-16T13:15:01Z</time>
</trkpt>
<trkpt lat="52.69050979614258" lon="12.964703559875488">
<ele>85.0</ele>
<time>2014-02-16T13:15:03Z</time>
</trkpt>
<trkpt lat="52.690574645996094" lon="12.964832305908203">
<ele>85.0999984741211</ele>
<time>2014-02-16T13:15:05Z</time>
</trkpt>
<trkpt lat="52.69059753417969" lon="12.964958190917969">
<ele>85.0999984741211</ele>
<time>2014-02-16T13:15:07Z</time>
</trkpt>
<trkpt lat="52.69062423706055" lon="12.965094566345215">
<ele>84.69999694824219</ele>
<time>2014-02-16T13:15:09Z</time>
</trkpt>
<trkpt lat="52.6906623840332" lon="12.965145111083984">
<ele>84.0999984741211</ele>
<time>2014-02-16T13:15:10Z</time>
</trkpt>
<trkpt lat="52.6906852722168" lon="12.965217590332031">
<ele>83.9000015258789</ele>
<time>2014-02-16T13:15:11Z</time>
</trkpt>
<trkpt lat="52.69072341918945" lon="12.965368270874023">
<ele>84.9000015258789</ele>
<time>2014-02-16T13:15:13Z</time>
</trkpt>
<trkpt lat="52.69075012207031" lon="12.965450286865234">
<ele>85.30000305175781</ele>
<time>2014-02-16T13:15:14Z</time>
</trkpt>
<trkpt lat="52.69077682495117" lon="12.965519905090332">
<ele>85.5999984741211</ele>
<time>2014-02-16T13:15:15Z</time>
</trkpt>
<trkpt lat="52.6907958984375" lon="12.965596199035645">
<ele>85.5</ele>
<time>2014-02-16T13:15:16Z</time>
</trkpt>
<trkpt lat="52.6908073425293" lon="12.965675354003906">
<ele>85.5</ele>
<time>2014-02-16T13:15:17Z</time>
</trkpt>
<trkpt lat="52.69083023071289" lon="12.965767860412598">
<ele>84.19999694824219</ele>
<time>2014-02-16T13:15:18Z</time>
</trkpt>
<trkpt lat="52.69086456298828" lon="12.965909957885742">
<ele>83.30000305175781</ele>
<time>2014-02-16T13:15:20Z</time>
</trkpt>
<trkpt lat="52.6909065246582" lon="12.965977668762207">
<ele>83.19999694824219</ele>
<time>2014-02-16T13:15:21Z</time>
</trkpt>
<trkpt lat="52.69092559814453" lon="12.966047286987305">
<ele>82.5</ele>
<time>2014-02-16T13:15:22Z</time>
</trkpt>
<trkpt lat="52.69094467163086" lon="12.966141700744629">
<ele>82.69999694824219</ele>
<time>2014-02-16T13:15:23Z</time>
</trkpt>
<trkpt lat="52.690948486328125" lon="12.966219902038574">
<ele>82.80000305175781</ele>
<time>2014-02-16T13:15:24Z</time>
</trkpt>
<trkpt lat="52.690975189208984" lon="12.966299057006836">
<ele>82.9000015258789</ele>
<time>2014-02-16T13:15:25Z</time>
</trkpt>
<trkpt lat="52.691009521484375" lon="12.966414451599121">
<ele>85.19999694824219</ele>
<time>2014-02-16T13:15:27Z</time>
</trkpt>
<trkpt lat="52.69102478027344" lon="12.966487884521484">
<ele>86.0</ele>
<time>2014-02-16T13:15:28Z</time>
</trkpt>
<trkpt lat="52.691062927246094" lon="12.9666166305542">
<ele>86.0999984741211</ele>
<time>2014-02-16T13:15:30Z</time>
</trkpt>
<trkpt lat="52.69108963012695" lon="12.96667766571045">
<ele>86.69999694824219</ele>
<time>2014-02-16T13:15:31Z</time>
</trkpt>
<trkpt lat="52.69110870361328" lon="12.966763496398926">
<ele>86.80000305175781</ele>
<time>2014-02-16T13:15:32Z</time>
</trkpt>
<trkpt lat="52.69114303588867" lon="12.966852188110352">
<ele>87.0999984741211</ele>
<time>2014-02-16T13:15:33Z</time>
</trkpt>
<trkpt lat="52.69116973876953" lon="12.966998100280762">
<ele>87.4000015258789</ele>
<time>2014-02-16T13:15:35Z</time>
</trkpt>
<trkpt lat="52.69119644165039" lon="12.967124938964844">
<ele>87.5999984741211</ele>
<time>2014-02-16T13:15:37Z</time>
</trkpt>
<trkpt lat="52.691246032714844" lon="12.967239379882812">
<ele>88.0999984741211</ele>
<time>2014-02-16T13:15:39Z</time>
</trkpt>
<trkpt lat="52.69129943847656" lon="12.967358589172363">
<ele>88.80000305175781</ele>
<time>2014-02-16T13:15:41Z</time>
</trkpt>
<trkpt lat="52.69131851196289" lon="12.967427253723145">
<ele>88.80000305175781</ele>
<time>2014-02-16T13:15:42Z</time>
</trkpt>
<trkpt lat="52.69134521484375" lon="12.967499732971191">
<ele>88.9000015258789</ele>
<time>2014-02-16T13:15:43Z</time>
</trkpt>
<trkpt lat="52.69136428833008" lon="12.967572212219238">
<ele>88.9000015258789</ele>
<time>2014-02-16T13:15:44Z</time>
</trkpt>
<trkpt lat="52.69140625" lon="12.967704772949219">
<ele>89.4000015258789</ele>
<time>2014-02-16T13:15:46Z</time>
</trkpt>
<trkpt lat="52.691429138183594" lon="12.9677734375">
<ele>89.5</ele>
<time>2014-02-16T13:15:47Z</time>
</trkpt>
<trkpt lat="52.69145584106445" lon="12.967853546142578">
<ele>89.5</ele>
<time>2014-02-16T13:15:48Z</time>
</trkpt>
<trkpt lat="52.69148254394531" lon="12.967921257019043">
<ele>89.4000015258789</ele>
<time>2014-02-16T13:15:49Z</time>
</trkpt>
<trkpt lat="52.69151306152344" lon="12.967994689941406">
<ele>89.4000015258789</ele>
<time>2014-02-16T13:15:50Z</time>
</trkpt>
<trkpt lat="52.69154739379883" lon="12.968119621276855">
<ele>89.69999694824219</ele>
<time>2014-02-16T13:15:52Z</time>
</trkpt>
<trkpt lat="52.69154739379883" lon="12.968199729919434">
<ele>90.30000305175781</ele>
<time>2014-02-16T13:15:53Z</time>
</trkpt>
<trkpt lat="52.691558837890625" lon="12.968276023864746">
<ele>91.30000305175781</ele>
<time>2014-02-16T13:15:54Z</time>
</trkpt>
<trkpt lat="52.69158172607422" lon="12.968344688415527">
<ele>91.0</ele>
<time>2014-02-16T13:15:55Z</time>
</trkpt>
<trkpt lat="52.69162368774414" lon="12.968467712402344">
<ele>90.5999984741211</ele>
<time>2014-02-16T13:15:57Z</time>
</trkpt>
<trkpt lat="52.6916618347168" lon="12.96854019165039">
<ele>90.69999694824219</ele>
<time>2014-02-16T13:15:58Z</time>
</trkpt>
<trkpt lat="52.691680908203125" lon="12.96861743927002">
<ele>90.80000305175781</ele>
<time>2014-02-16T13:15:59Z</time>
</trkpt>
<trkpt lat="52.69167709350586" lon="12.968700408935547">
<ele>90.0</ele>
<time>2014-02-16T13:16:00Z</time>
</trkpt>
<trkpt lat="52.69171142578125" lon="12.968826293945312">
<ele>90.19999694824219</ele>
<time>2014-02-16T13:16:02Z</time>
</trkpt>
<trkpt lat="52.69172286987305" lon="12.968905448913574">
<ele>89.0999984741211</ele>
<time>2014-02-16T13:16:03Z</time>
</trkpt>
<trkpt lat="52.691741943359375" lon="12.968973159790039">
<ele>89.5999984741211</ele>
<time>2014-02-16T13:16:04Z</time>
</trkpt>
<trkpt lat="52.69175338745117" lon="12.969050407409668">
<ele>89.9000015258789</ele>
<time>2014-02-16T13:16:05Z</time>
</trkpt>
<trkpt lat="52.691768646240234" lon="12.969135284423828">
<ele>90.69999694824219</ele>
<time>2014-02-16T13:16:06Z</time>
</trkpt>
<trkpt lat="52.6917724609375" lon="12.969216346740723">
<ele>90.69999694824219</ele>
<time>2014-02-16T13:16:07Z</time>
</trkpt>
<trkpt lat="52.69181823730469" lon="12.96931266784668">
<ele>90.30000305175781</ele>
<time>2014-02-16T13:16:08Z</time>
</trkpt>
<trkpt lat="52.69184875488281" lon="12.96937370300293">
<ele>90.0999984741211</ele>
<time>2014-02-16T13:16:09Z</time>
</trkpt>
<trkpt lat="52.69187545776367" lon="12.969444274902344">
<ele>88.5</ele>
<time>2014-02-16T13:16:10Z</time>
</trkpt>
<trkpt lat="52.69192123413086" lon="12.969576835632324">
<ele>88.5999984741211</ele>
<time>2014-02-16T13:16:12Z</time>
</trkpt>
<trkpt lat="52.69194030761719" lon="12.969655990600586">
<ele>88.5999984741211</ele>
<time>2014-02-16T13:16:13Z</time>
</trkpt>
<trkpt lat="52.69197463989258" lon="12.969735145568848">
<ele>88.5</ele>
<time>2014-02-16T13:16:14Z</time>
</trkpt>
<trkpt lat="52.69200897216797" lon="12.969818115234375">
<ele>88.5999984741211</ele>
<time>2014-02-16T13:16:15Z</time>
</trkpt>
<trkpt lat="52.69205093383789" lon="12.969890594482422">
<ele>88.30000305175781</ele>
<time>2014-02-16T13:16:16Z</time>
</trkpt>
<trkpt lat="52.69207000732422" lon="12.969972610473633">
<ele>88.30000305175781</ele>
<time>2014-02-16T13:16:17Z</time>
</trkpt>
<trkpt lat="52.69206237792969" lon="12.970060348510742">
<ele>87.5999984741211</ele>
<time>2014-02-16T13:16:18Z</time>
</trkpt>
<trkpt lat="52.692073822021484" lon="12.970149993896484">
<ele>86.9000015258789</ele>
<time>2014-02-16T13:16:19Z</time>
</trkpt>
<trkpt lat="52.692073822021484" lon="12.970224380493164">
<ele>85.5</ele>
<time>2014-02-16T13:16:20Z</time>
</trkpt>
<trkpt lat="52.69209289550781" lon="12.970366477966309">
<ele>84.5999984741211</ele>
<time>2014-02-16T13:16:22Z</time>
</trkpt>
<trkpt lat="52.692100524902344" lon="12.97044563293457">
<ele>84.80000305175781</ele>
<time>2014-02-16T13:16:23Z</time>
</trkpt>
<trkpt lat="52.69211959838867" lon="12.970515251159668">
<ele>85.30000305175781</ele>
<time>2014-02-16T13:16:24Z</time>
</trkpt>
<trkpt lat="52.692134857177734" lon="12.970656394958496">
<ele>85.80000305175781</ele>
<time>2014-02-16T13:16:26Z</time>
</trkpt>
<trkpt lat="52.692142486572266" lon="12.970800399780273">
<ele>85.19999694824219</ele>
<time>2014-02-16T13:16:28Z</time>
</trkpt>
<trkpt lat="52.69215393066406" lon="12.970932006835938">
<ele>85.69999694824219</ele>
<time>2014-02-16T13:16:30Z</time>
</trkpt>
<trkpt lat="52.69215393066406" lon="12.971075057983398">
<ele>85.30000305175781</ele>
<time>2014-02-16T13:16:32Z</time>
</trkpt>
<trkpt lat="52.69215774536133" lon="12.971208572387695">
<ele>84.5999984741211</ele>
<time>2014-02-16T13:16:34Z</time>
</trkpt>
<trkpt lat="52.69215393066406" lon="12.971333503723145">
<ele>83.19999694824219</ele>
<time>2014-02-16T13:16:36Z</time>
</trkpt>
<trkpt lat="52.69215393066406" lon="12.971463203430176">
<ele>82.9000015258789</ele>
<time>2014-02-16T13:16:38Z</time>
</trkpt>
<trkpt lat="52.69215774536133" lon="12.971589088439941">
<ele>82.80000305175781</ele>
<time>2014-02-16T13:16:40Z</time>
</trkpt>
<trkpt lat="52.69215774536133" lon="12.97172737121582">
<ele>83.19999694824219</ele>
<time>2014-02-16T13:16:42Z</time>
</trkpt>
<trkpt lat="52.69215774536133" lon="12.971870422363281">
<ele>83.4000015258789</ele>
<time>2014-02-16T13:16:44Z</time>
</trkpt>
<trkpt lat="52.69215774536133" lon="12.972015380859375">
<ele>84.4000015258789</ele>
<time>2014-02-16T13:16:46Z</time>
</trkpt>
<trkpt lat="52.692161560058594" lon="12.972158432006836">
<ele>84.80000305175781</ele>
<time>2014-02-16T13:16:48Z</time>
</trkpt>
<trkpt lat="52.69216537475586" lon="12.972307205200195">
<ele>84.69999694824219</ele>
<time>2014-02-16T13:16:50Z</time>
</trkpt>
<trkpt lat="52.692169189453125" lon="12.972447395324707">
<ele>84.4000015258789</ele>
<time>2014-02-16T13:16:52Z</time>
</trkpt>
<trkpt lat="52.692176818847656" lon="12.972586631774902">
<ele>84.19999694824219</ele>
<time>2014-02-16T13:16:54Z</time>
</trkpt>
<trkpt lat="52.692176818847656" lon="12.972721099853516">
<ele>84.0</ele>
<time>2014-02-16T13:16:56Z</time>
</trkpt>
<trkpt lat="52.69219207763672" lon="12.972862243652344">
<ele>85.0</ele>
<time>2014-02-16T13:16:58Z</time>
</trkpt>
<trkpt lat="52.692203521728516" lon="12.973011016845703">
<ele>84.69999694824219</ele>
<time>2014-02-16T13:17:00Z</time>
</trkpt>
<trkpt lat="52.69221496582031" lon="12.973153114318848">
<ele>84.9000015258789</ele>
<time>2014-02-16T13:17:02Z</time>
</trkpt>
<trkpt lat="52.69221878051758" lon="12.973295211791992">
<ele>84.5</ele>
<time>2014-02-16T13:17:04Z</time>
</trkpt>
<trkpt lat="52.69221115112305" lon="12.973380088806152">
<ele>84.69999694824219</ele>
<time>2014-02-16T13:17:05Z</time>
</trkpt>
<trkpt lat="52.69221878051758" lon="12.973464012145996">
<ele>84.9000015258789</ele>
<time>2014-02-16T13:17:06Z</time>
</trkpt>
<trkpt lat="52.69222640991211" lon="12.973610877990723">
<ele>85.0999984741211</ele>
<time>2014-02-16T13:17:08Z</time>
</trkpt>
<trkpt lat="52.692230224609375" lon="12.973694801330566">
<ele>84.80000305175781</ele>
<time>2014-02-16T13:17:09Z</time>
</trkpt>
<trkpt lat="52.69222640991211" lon="12.973775863647461">
<ele>84.4000015258789</ele>
<time>2014-02-16T13:17:10Z</time>
</trkpt>
<trkpt lat="52.692230224609375" lon="12.973928451538086">
<ele>84.4000015258789</ele>
<time>2014-02-16T13:17:12Z</time>
</trkpt>
<trkpt lat="52.69222640991211" lon="12.974008560180664">
<ele>84.5999984741211</ele>
<time>2014-02-16T13:17:13Z</time>
</trkpt>
<trkpt lat="52.69221878051758" lon="12.974092483520508">
<ele>85.0</ele>
<time>2014-02-16T13:17:14Z</time>
</trkpt>
<trkpt lat="52.692222595214844" lon="12.974174499511719">
<ele>85.0</ele>
<time>2014-02-16T13:17:15Z</time>
</trkpt>
<trkpt lat="52.692222595214844" lon="12.974249839782715">
<ele>85.30000305175781</ele>
<time>2014-02-16T13:17:16Z</time>
</trkpt>
<trkpt lat="52.692230224609375" lon="12.97433090209961">
<ele>85.4000015258789</ele>
<time>2014-02-16T13:17:17Z</time>
</trkpt>
<trkpt lat="52.69223403930664" lon="12.974411964416504">
<ele>85.5999984741211</ele>
<time>2014-02-16T13:17:18Z</time>
</trkpt>
<trkpt lat="52.692237854003906" lon="12.974495887756348">
<ele>86.0</ele>
<time>2014-02-16T13:17:19Z</time>
</trkpt>
<trkpt lat="52.69224166870117" lon="12.974578857421875">
<ele>86.19999694824219</ele>
<time>2014-02-16T13:17:20Z</time>
</trkpt>
<trkpt lat="52.692237854003906" lon="12.974665641784668">
<ele>85.9000015258789</ele>
<time>2014-02-16T13:17:21Z</time>
</trkpt>
<trkpt lat="52.692237854003906" lon="12.974752426147461">
<ele>85.9000015258789</ele>
<time>2014-02-16T13:17:22Z</time>
</trkpt>
<trkpt lat="52.692237854003906" lon="12.974831581115723">
<ele>85.69999694824219</ele>
<time>2014-02-16T13:17:23Z</time>
</trkpt>
<trkpt lat="52.69224548339844" lon="12.97491455078125">
<ele>85.5</ele>
<time>2014-02-16T13:17:24Z</time>
</trkpt>
<trkpt lat="52.69224548339844" lon="12.975005149841309">
<ele>86.0</ele>
<time>2014-02-16T13:17:25Z</time>
</trkpt>
<trkpt lat="52.692237854003906" lon="12.97508716583252">
<ele>85.80000305175781</ele>
<time>2014-02-16T13:17:26Z</time>
</trkpt>
<trkpt lat="52.69224166870117" lon="12.975175857543945">
<ele>85.80000305175781</ele>
<time>2014-02-16T13:17:27Z</time>
</trkpt>
<trkpt lat="52.69224548339844" lon="12.975259780883789">
<ele>85.4000015258789</ele>
<time>2014-02-16T13:17:28Z</time>
</trkpt>
<trkpt lat="52.69224548339844" lon="12.975350379943848">
<ele>85.30000305175781</ele>
<time>2014-02-16T13:17:29Z</time>
</trkpt>
<trkpt lat="52.69224548339844" lon="12.975434303283691">
<ele>85.30000305175781</ele>
<time>2014-02-16T13:17:30Z</time>
</trkpt>
<trkpt lat="52.6922492980957" lon="12.975518226623535">
<ele>85.5</ele>
<time>2014-02-16T13:17:31Z</time>
</trkpt>
<trkpt lat="52.6922492980957" lon="12.975605964660645">
<ele>85.4000015258789</ele>
<time>2014-02-16T13:17:32Z</time>
</trkpt>
<trkpt lat="52.6922492980957" lon="12.975682258605957">
<ele>85.19999694824219</ele>
<time>2014-02-16T13:17:33Z</time>
</trkpt>
<trkpt lat="52.69224548339844" lon="12.975768089294434">
<ele>85.4000015258789</ele>
<time>2014-02-16T13:17:34Z</time>
</trkpt>
<trkpt lat="52.69224548339844" lon="12.975852012634277">
<ele>85.19999694824219</ele>
<time>2014-02-16T13:17:35Z</time>
</trkpt>
<trkpt lat="52.69224548339844" lon="12.975927352905273">
<ele>85.0999984741211</ele>
<time>2014-02-16T13:17:36Z</time>
</trkpt>
<trkpt lat="52.69224166870117" lon="12.976014137268066">
<ele>84.80000305175781</ele>
<time>2014-02-16T13:17:37Z</time>
</trkpt>
<trkpt lat="52.69224548339844" lon="12.976090431213379">
<ele>85.0</ele>
<time>2014-02-16T13:17:38Z</time>
</trkpt>
<trkpt lat="52.69224166870117" lon="12.97617244720459">
<ele>85.30000305175781</ele>
<time>2014-02-16T13:17:39Z</time>
</trkpt>
<trkpt lat="52.69224548339844" lon="12.976255416870117">
<ele>85.30000305175781</ele>
<time>2014-02-16T13:17:40Z</time>
</trkpt>
<trkpt lat="52.6922492980957" lon="12.976338386535645">
<ele>85.30000305175781</ele>
<time>2014-02-16T13:17:41Z</time>
</trkpt>
<trkpt lat="52.6922492980957" lon="12.976422309875488">
<ele>85.30000305175781</ele>
<time>2014-02-16T13:17:42Z</time>
</trkpt>
<trkpt lat="52.6922607421875" lon="12.97651195526123">
<ele>85.0999984741211</ele>
<time>2014-02-16T13:17:43Z</time>
</trkpt>
<trkpt lat="52.692264556884766" lon="12.976593017578125">
<ele>85.0</ele>
<time>2014-02-16T13:17:44Z</time>
</trkpt>
<trkpt lat="52.6922721862793" lon="12.976675033569336">
<ele>84.9000015258789</ele>
<time>2014-02-16T13:17:45Z</time>
</trkpt>
<trkpt lat="52.69227600097656" lon="12.976762771606445">
<ele>84.5999984741211</ele>
<time>2014-02-16T13:17:46Z</time>
</trkpt>
<trkpt lat="52.69227981567383" lon="12.976848602294922">
<ele>84.5</ele>
<time>2014-02-16T13:17:47Z</time>
</trkpt>
<trkpt lat="52.692283630371094" lon="12.9769287109375">
<ele>84.5</ele>
<time>2014-02-16T13:17:48Z</time>
</trkpt>
<trkpt lat="52.69228744506836" lon="12.977012634277344">
<ele>84.5</ele>
<time>2014-02-16T13:17:49Z</time>
</trkpt>
<trkpt lat="52.69228744506836" lon="12.97709846496582">
<ele>84.5999984741211</ele>
<time>2014-02-16T13:17:50Z</time>
</trkpt>
<trkpt lat="52.69229507446289" lon="12.977182388305664">
<ele>84.80000305175781</ele>
<time>2014-02-16T13:17:51Z</time>
</trkpt>
<trkpt lat="52.69229507446289" lon="12.977262496948242">
<ele>84.9000015258789</ele>
<time>2014-02-16T13:17:52Z</time>
</trkpt>
<trkpt lat="52.692298889160156" lon="12.97734546661377">
<ele>84.69999694824219</ele>
<time>2014-02-16T13:17:53Z</time>
</trkpt>
<trkpt lat="52.69230651855469" lon="12.977426528930664">
<ele>85.0999984741211</ele>
<time>2014-02-16T13:17:54Z</time>
</trkpt>
<trkpt lat="52.69230651855469" lon="12.977505683898926">
<ele>85.0</ele>
<time>2014-02-16T13:17:55Z</time>
</trkpt>
<trkpt lat="52.69231414794922" lon="12.977594375610352">
<ele>85.19999694824219</ele>
<time>2014-02-16T13:17:56Z</time>
</trkpt>
<trkpt lat="52.69231414794922" lon="12.977677345275879">
<ele>85.30000305175781</ele>
<time>2014-02-16T13:17:58Z</time>
</trkpt>
<trkpt lat="52.692317962646484" lon="12.977824211120605">
<ele>85.0999984741211</ele>
<time>2014-02-16T13:17:59Z</time>
</trkpt>
<trkpt lat="52.692317962646484" lon="12.977900505065918">
<ele>85.19999694824219</ele>
<time>2014-02-16T13:18:00Z</time>
</trkpt>
<trkpt lat="52.692317962646484" lon="12.977978706359863">
<ele>85.0999984741211</ele>
<time>2014-02-16T13:18:03Z</time>
</trkpt>
<trkpt lat="52.692325592041016" lon="12.978140830993652">
<ele>85.69999694824219</ele>
<time>2014-02-16T13:18:04Z</time>
</trkpt>
<trkpt lat="52.69233322143555" lon="12.978304862976074">
<ele>86.0999984741211</ele>
<time>2014-02-16T13:18:06Z</time>
</trkpt>
<trkpt lat="52.69233703613281" lon="12.978475570678711">
<ele>86.69999694824219</ele>
<time>2014-02-16T13:18:08Z</time>
</trkpt>
<trkpt lat="52.692352294921875" lon="12.978788375854492">
<ele>86.0</ele>
<time>2014-02-16T13:18:11Z</time>
</trkpt>
<trkpt lat="52.692359924316406" lon="12.978865623474121">
<ele>86.30000305175781</ele>
<time>2014-02-16T13:18:12Z</time>
</trkpt>
<trkpt lat="52.69236373901367" lon="12.9789400100708">
<ele>86.4000015258789</ele>
<time>2014-02-16T13:18:13Z</time>
</trkpt>
<trkpt lat="52.69239807128906" lon="12.979082107543945">
<ele>85.9000015258789</ele>
<time>2014-02-16T13:18:15Z</time>
</trkpt>
<trkpt lat="52.69240951538086" lon="12.979153633117676">
<ele>85.0</ele>
<time>2014-02-16T13:18:16Z</time>
</trkpt>
<trkpt lat="52.692405700683594" lon="12.979265213012695">
<ele>85.9000015258789</ele>
<time>2014-02-16T13:18:17Z</time>
</trkpt>
<trkpt lat="52.692413330078125" lon="12.97934341430664">
<ele>85.80000305175781</ele>
<time>2014-02-16T13:18:18Z</time>
</trkpt>
<trkpt lat="52.692420959472656" lon="12.979433059692383">
<ele>85.80000305175781</ele>
<time>2014-02-16T13:18:19Z</time>
</trkpt>
<trkpt lat="52.692420959472656" lon="12.979516983032227">
<ele>85.80000305175781</ele>
<time>2014-02-16T13:18:20Z</time>
</trkpt>
<trkpt lat="52.692420959472656" lon="12.979604721069336">
<ele>85.80000305175781</ele>
<time>2014-02-16T13:18:21Z</time>
</trkpt>
<trkpt lat="52.692420959472656" lon="12.97968578338623">
<ele>86.19999694824219</ele>
<time>2014-02-16T13:18:22Z</time>
</trkpt>
<trkpt lat="52.69242858886719" lon="12.979775428771973">
<ele>86.69999694824219</ele>
<time>2014-02-16T13:18:23Z</time>
</trkpt>
<trkpt lat="52.69243621826172" lon="12.979867935180664">
<ele>86.5999984741211</ele>
<time>2014-02-16T13:18:24Z</time>
</trkpt>
<trkpt lat="52.69243240356445" lon="12.979951858520508">
<ele>86.5</ele>
<time>2014-02-16T13:18:25Z</time>
</trkpt>
<trkpt lat="52.692440032958984" lon="12.980039596557617">
<ele>87.0999984741211</ele>
<time>2014-02-16T13:18:26Z</time>
</trkpt>
<trkpt lat="52.69245529174805" lon="12.98012924194336">
<ele>87.5</ele>
<time>2014-02-16T13:18:27Z</time>
</trkpt>
<trkpt lat="52.69245147705078" lon="12.980203628540039">
<ele>87.4000015258789</ele>
<time>2014-02-16T13:18:28Z</time>
</trkpt>
<trkpt lat="52.69243240356445" lon="12.98031234741211">
<ele>88.80000305175781</ele>
<time>2014-02-16T13:18:29Z</time>
</trkpt>
<trkpt lat="52.69243621826172" lon="12.980388641357422">
<ele>88.0999984741211</ele>
<time>2014-02-16T13:18:30Z</time>
</trkpt>
<trkpt lat="52.69244384765625" lon="12.980469703674316">
<ele>88.0</ele>
<time>2014-02-16T13:18:31Z</time>
</trkpt>
<trkpt lat="52.69244384765625" lon="12.980547904968262">
<ele>87.69999694824219</ele>
<time>2014-02-16T13:18:32Z</time>
</trkpt>
<trkpt lat="52.69246292114258" lon="12.98067569732666">
<ele>86.5</ele>
<time>2014-02-16T13:18:34Z</time>
</trkpt>
<trkpt lat="52.692481994628906" lon="12.98082160949707">
<ele>86.19999694824219</ele>
<time>2014-02-16T13:18:36Z</time>
</trkpt>
<trkpt lat="52.69247817993164" lon="12.980916976928711">
<ele>86.4000015258789</ele>
<time>2014-02-16T13:18:37Z</time>
</trkpt>
<trkpt lat="52.69247817993164" lon="12.980998992919922">
<ele>87.0999984741211</ele>
<time>2014-02-16T13:18:38Z</time>
</trkpt>
<trkpt lat="52.692481994628906" lon="12.98108196258545">
<ele>86.9000015258789</ele>
<time>2014-02-16T13:18:39Z</time>
</trkpt>
<trkpt lat="52.69247817993164" lon="12.981229782104492">
<ele>86.30000305175781</ele>
<time>2014-02-16T13:18:41Z</time>
</trkpt>
<trkpt lat="52.69247817993164" lon="12.981305122375488">
<ele>86.69999694824219</ele>
<time>2014-02-16T13:18:42Z</time>
</trkpt>
<trkpt lat="52.69247055053711" lon="12.981389045715332">
<ele>87.19999694824219</ele>
<time>2014-02-16T13:18:43Z</time>
</trkpt>
<trkpt lat="52.692474365234375" lon="12.981532096862793">
<ele>86.80000305175781</ele>
<time>2014-02-16T13:18:45Z</time>
</trkpt>
<trkpt lat="52.692474365234375" lon="12.981610298156738">
<ele>86.80000305175781</ele>
<time>2014-02-16T13:18:46Z</time>
</trkpt>
<trkpt lat="52.69247055053711" lon="12.981694221496582">
<ele>87.4000015258789</ele>
<time>2014-02-16T13:18:47Z</time>
</trkpt>
<trkpt lat="52.69247055053711" lon="12.981771469116211">
<ele>87.30000305175781</ele>
<time>2014-02-16T13:18:48Z</time>
</trkpt>
<trkpt lat="52.69247817993164" lon="12.981924057006836">
<ele>87.69999694824219</ele>
<time>2014-02-16T13:18:50Z</time>
</trkpt>
<trkpt lat="52.69247055053711" lon="12.982067108154297">
<ele>88.0999984741211</ele>
<time>2014-02-16T13:18:52Z</time>
</trkpt>
<trkpt lat="52.69246292114258" lon="12.982148170471191">
<ele>88.30000305175781</ele>
<time>2014-02-16T13:18:53Z</time>
</trkpt>
<trkpt lat="52.692466735839844" lon="12.982276916503906">
<ele>86.5</ele>
<time>2014-02-16T13:18:55Z</time>
</trkpt>
<trkpt lat="52.692466735839844" lon="12.982422828674316">
<ele>86.80000305175781</ele>
<time>2014-02-16T13:18:57Z</time>
</trkpt>
<trkpt lat="52.69245910644531" lon="12.98256778717041">
<ele>86.5</ele>
<time>2014-02-16T13:18:59Z</time>
</trkpt>
<trkpt lat="52.69245910644531" lon="12.98264217376709">
<ele>86.9000015258789</ele>
<time>2014-02-16T13:19:00Z</time>
</trkpt>
<trkpt lat="52.69244384765625" lon="12.982772827148438">
<ele>89.69999694824219</ele>
<time>2014-02-16T13:19:02Z</time>
</trkpt>
<trkpt lat="52.692440032958984" lon="12.982850074768066">
<ele>89.0999984741211</ele>
<time>2014-02-16T13:19:03Z</time>
</trkpt>
<trkpt lat="52.69242858886719" lon="12.982992172241211">
<ele>88.69999694824219</ele>
<time>2014-02-16T13:19:05Z</time>
</trkpt>
<trkpt lat="52.69243240356445" lon="12.98306941986084">
<ele>88.80000305175781</ele>
<time>2014-02-16T13:19:06Z</time>
</trkpt>
<trkpt lat="52.69244384765625" lon="12.983216285705566">
<ele>88.80000305175781</ele>
<time>2014-02-16T13:19:08Z</time>
</trkpt>
<trkpt lat="52.69243621826172" lon="12.983290672302246">
<ele>88.5999984741211</ele>
<time>2014-02-16T13:19:09Z</time>
</trkpt>
<trkpt lat="52.69243621826172" lon="12.983379364013672">
<ele>88.30000305175781</ele>
<time>2014-02-16T13:19:10Z</time>
</trkpt>
<trkpt lat="52.69245529174805" lon="12.983453750610352">
<ele>89.0999984741211</ele>
<time>2014-02-16T13:19:11Z</time>
</trkpt>
<trkpt lat="52.69245529174805" lon="12.983592987060547">
<ele>89.4000015258789</ele>
<time>2014-02-16T13:19:13Z</time>
</trkpt>
<trkpt lat="52.692481994628906" lon="12.983712196350098">
<ele>89.4000015258789</ele>
<time>2014-02-16T13:19:15Z</time>
</trkpt>
<trkpt lat="52.69249725341797" lon="12.983856201171875">
<ele>89.5</ele>
<time>2014-02-16T13:19:17Z</time>
</trkpt>
<trkpt lat="52.692501068115234" lon="12.983959197998047">
<ele>88.4000015258789</ele>
<time>2014-02-16T13:19:18Z</time>
</trkpt>
<trkpt lat="52.6925048828125" lon="12.984033584594727">
<ele>87.9000015258789</ele>
<time>2014-02-16T13:19:19Z</time>
</trkpt>
<trkpt lat="52.69252014160156" lon="12.984151840209961">
<ele>88.0999984741211</ele>
<time>2014-02-16T13:19:21Z</time>
</trkpt>
<trkpt lat="52.6925163269043" lon="12.98422908782959">
<ele>88.69999694824219</ele>
<time>2014-02-16T13:19:22Z</time>
</trkpt>
<trkpt lat="52.69252395629883" lon="12.984333038330078">
<ele>89.5</ele>
<time>2014-02-16T13:19:23Z</time>
</trkpt>
<trkpt lat="52.69253158569336" lon="12.984408378601074">
<ele>90.30000305175781</ele>
<time>2014-02-16T13:19:24Z</time>
</trkpt>
<trkpt lat="52.69254684448242" lon="12.984551429748535">
<ele>91.19999694824219</ele>
<time>2014-02-16T13:19:26Z</time>
</trkpt>
<trkpt lat="52.69255828857422" lon="12.984688758850098">
<ele>91.5999984741211</ele>
<time>2014-02-16T13:19:28Z</time>
</trkpt>
<trkpt lat="52.692569732666016" lon="12.98476505279541">
<ele>91.4000015258789</ele>
<time>2014-02-16T13:19:29Z</time>
</trkpt>
<trkpt lat="52.69258117675781" lon="12.984851837158203">
<ele>91.0999984741211</ele>
<time>2014-02-16T13:19:30Z</time>
</trkpt>
<trkpt lat="52.69260025024414" lon="12.985013008117676">
<ele>91.30000305175781</ele>
<time>2014-02-16T13:19:32Z</time>
</trkpt>
<trkpt lat="52.6926155090332" lon="12.985095977783203">
<ele>91.4000015258789</ele>
<time>2014-02-16T13:19:33Z</time>
</trkpt>
<trkpt lat="52.69261932373047" lon="12.98519229888916">
<ele>91.5999984741211</ele>
<time>2014-02-16T13:19:34Z</time>
</trkpt>
<trkpt lat="52.69261169433594" lon="12.985297203063965">
<ele>91.69999694824219</ele>
<time>2014-02-16T13:19:35Z</time>
</trkpt>
<trkpt lat="52.692626953125" lon="12.985390663146973">
<ele>91.80000305175781</ele>
<time>2014-02-16T13:19:36Z</time>
</trkpt>
<trkpt lat="52.692630767822266" lon="12.985489845275879">
<ele>92.30000305175781</ele>
<time>2014-02-16T13:19:37Z</time>
</trkpt>
<trkpt lat="52.69264221191406" lon="12.985572814941406">
<ele>92.0</ele>
<time>2014-02-16T13:19:38Z</time>
</trkpt>
<trkpt lat="52.69265365600586" lon="12.985651016235352">
<ele>91.9000015258789</ele>
<time>2014-02-16T13:19:39Z</time>
</trkpt>
<trkpt lat="52.69266128540039" lon="12.985733032226562">
<ele>91.69999694824219</ele>
<time>2014-02-16T13:19:40Z</time>
</trkpt>
<trkpt lat="52.69266891479492" lon="12.985807418823242">
<ele>91.5</ele>
<time>2014-02-16T13:19:41Z</time>
</trkpt>
<trkpt lat="52.692684173583984" lon="12.985960006713867">
<ele>91.4000015258789</ele>
<time>2014-02-16T13:19:43Z</time>
</trkpt>
<trkpt lat="52.69269943237305" lon="12.98605728149414">
<ele>91.69999694824219</ele>
<time>2014-02-16T13:19:44Z</time>
</trkpt>
<trkpt lat="52.69271469116211" lon="12.9861478805542">
<ele>91.4000015258789</ele>
<time>2014-02-16T13:19:45Z</time>
</trkpt>
<trkpt lat="52.692718505859375" lon="12.986226081848145">
<ele>91.4000015258789</ele>
<time>2014-02-16T13:19:46Z</time>
</trkpt>
<trkpt lat="52.692718505859375" lon="12.986306190490723">
<ele>91.5999984741211</ele>
<time>2014-02-16T13:19:47Z</time>
</trkpt>
<trkpt lat="52.69274139404297" lon="12.986390113830566">
<ele>90.5</ele>
<time>2014-02-16T13:19:48Z</time>
</trkpt>
<trkpt lat="52.692752838134766" lon="12.986468315124512">
<ele>90.5</ele>
<time>2014-02-16T13:19:49Z</time>
</trkpt>
<trkpt lat="52.69276809692383" lon="12.986543655395508">
<ele>90.5999984741211</ele>
<time>2014-02-16T13:19:50Z</time>
</trkpt>
<trkpt lat="52.692771911621094" lon="12.986628532409668">
<ele>89.69999694824219</ele>
<time>2014-02-16T13:19:51Z</time>
</trkpt>
<trkpt lat="52.69280242919922" lon="12.986701011657715">
<ele>89.5</ele>
<time>2014-02-16T13:19:52Z</time>
</trkpt>
<trkpt lat="52.69281768798828" lon="12.98678207397461">
<ele>89.80000305175781</ele>
<time>2014-02-16T13:19:53Z</time>
</trkpt>
<trkpt lat="52.692840576171875" lon="12.98685073852539">
<ele>89.80000305175781</ele>
<time>2014-02-16T13:19:54Z</time>
</trkpt>
<trkpt lat="52.692848205566406" lon="12.986953735351562">
<ele>90.0</ele>
<time>2014-02-16T13:19:55Z</time>
</trkpt>
<trkpt lat="52.69288635253906" lon="12.98701286315918">
<ele>89.9000015258789</ele>
<time>2014-02-16T13:19:56Z</time>
</trkpt>
<trkpt lat="52.69289779663086" lon="12.987113952636719">
<ele>89.0</ele>
<time>2014-02-16T13:19:57Z</time>
</trkpt>
<trkpt lat="52.69292449951172" lon="12.987198829650879">
<ele>89.0</ele>
<time>2014-02-16T13:19:58Z</time>
</trkpt>
<trkpt lat="52.692955017089844" lon="12.987277030944824">
<ele>88.5</ele>
<time>2014-02-16T13:19:59Z</time>
</trkpt>
<trkpt lat="52.69297790527344" lon="12.987356185913086">
<ele>88.0</ele>
<time>2014-02-16T13:20:00Z</time>
</trkpt>
<trkpt lat="52.692996978759766" lon="12.987442970275879">
<ele>87.4000015258789</ele>
<time>2014-02-16T13:20:01Z</time>
</trkpt>
<trkpt lat="52.69301223754883" lon="12.98752212524414">
<ele>87.4000015258789</ele>
<time>2014-02-16T13:20:02Z</time>
</trkpt>
<trkpt lat="52.69304275512695" lon="12.98759937286377">
<ele>86.80000305175781</ele>
<time>2014-02-16T13:20:03Z</time>
</trkpt>
<trkpt lat="52.69306564331055" lon="12.987672805786133">
<ele>86.9000015258789</ele>
<time>2014-02-16T13:20:04Z</time>
</trkpt>
<trkpt lat="52.69309997558594" lon="12.987735748291016">
<ele>86.9000015258789</ele>
<time>2014-02-16T13:20:05Z</time>
</trkpt>
<trkpt lat="52.69312286376953" lon="12.987815856933594">
<ele>87.9000015258789</ele>
<time>2014-02-16T13:20:06Z</time>
</trkpt>
<trkpt lat="52.69314956665039" lon="12.987890243530273">
<ele>88.80000305175781</ele>
<time>2014-02-16T13:20:07Z</time>
</trkpt>
<trkpt lat="52.69316864013672" lon="12.987961769104004">
<ele>88.5999984741211</ele>
<time>2014-02-16T13:20:08Z</time>
</trkpt>
<trkpt lat="52.69319534301758" lon="12.988042831420898">
<ele>89.0</ele>
<time>2014-02-16T13:20:09Z</time>
</trkpt>
<trkpt lat="52.693214416503906" lon="12.988116264343262">
<ele>88.80000305175781</ele>
<time>2014-02-16T13:20:10Z</time>
</trkpt>
<trkpt lat="52.6932373046875" lon="12.988197326660156">
<ele>88.9000015258789</ele>
<time>2014-02-16T13:20:11Z</time>
</trkpt>
<trkpt lat="52.693260192871094" lon="12.988273620605469">
<ele>88.5</ele>
<time>2014-02-16T13:20:12Z</time>
</trkpt>
<trkpt lat="52.69328689575195" lon="12.988346099853516">
<ele>88.4000015258789</ele>
<time>2014-02-16T13:20:13Z</time>
</trkpt>
<trkpt lat="52.69330978393555" lon="12.98841667175293">
<ele>89.0</ele>
<time>2014-02-16T13:20:14Z</time>
</trkpt>
<trkpt lat="52.693321228027344" lon="12.988499641418457">
<ele>89.69999694824219</ele>
<time>2014-02-16T13:20:15Z</time>
</trkpt>
<trkpt lat="52.69334030151367" lon="12.988571166992188">
<ele>90.19999694824219</ele>
<time>2014-02-16T13:20:16Z</time>
</trkpt>
<trkpt lat="52.69336700439453" lon="12.98865032196045">
<ele>90.5999984741211</ele>
<time>2014-02-16T13:20:17Z</time>
</trkpt>
<trkpt lat="52.693389892578125" lon="12.988714218139648">
<ele>90.80000305175781</ele>
<time>2014-02-16T13:20:18Z</time>
</trkpt>
<trkpt lat="52.69340896606445" lon="12.988787651062012">
<ele>91.0</ele>
<time>2014-02-16T13:20:19Z</time>
</trkpt>
<trkpt lat="52.693443298339844" lon="12.988911628723145">
<ele>91.30000305175781</ele>
<time>2014-02-16T13:20:21Z</time>
</trkpt>
<trkpt lat="52.69347381591797" lon="12.989042282104492">
<ele>91.30000305175781</ele>
<time>2014-02-16T13:20:23Z</time>
</trkpt>
<trkpt lat="52.69352340698242" lon="12.98914623260498">
<ele>91.9000015258789</ele>
<time>2014-02-16T13:20:25Z</time>
</trkpt>
<trkpt lat="52.69356155395508" lon="12.989261627197266">
<ele>92.5999984741211</ele>
<time>2014-02-16T13:20:27Z</time>
</trkpt>
<trkpt lat="52.69358444213867" lon="12.989398002624512">
<ele>93.69999694824219</ele>
<time>2014-02-16T13:20:29Z</time>
</trkpt>
<trkpt lat="52.693607330322266" lon="12.98951244354248">
<ele>93.9000015258789</ele>
<time>2014-02-16T13:20:31Z</time>
</trkpt>
<trkpt lat="52.69363021850586" lon="12.989583969116211">
<ele>94.0</ele>
<time>2014-02-16T13:20:32Z</time>
</trkpt>
<trkpt lat="52.69365310668945" lon="12.989662170410156">
<ele>94.0</ele>
<time>2014-02-16T13:20:33Z</time>
</trkpt>
<trkpt lat="52.69367980957031" lon="12.989731788635254">
<ele>93.19999694824219</ele>
<time>2014-02-16T13:20:34Z</time>
</trkpt>
<trkpt lat="52.69371795654297" lon="12.989853858947754">
<ele>94.0999984741211</ele>
<time>2014-02-16T13:20:36Z</time>
</trkpt>
<trkpt lat="52.693756103515625" lon="12.989973068237305">
<ele>94.5999984741211</ele>
<time>2014-02-16T13:20:38Z</time>
</trkpt>
<trkpt lat="52.69379806518555" lon="12.990084648132324">
<ele>94.30000305175781</ele>
<time>2014-02-16T13:20:40Z</time>
</trkpt>
<trkpt lat="52.6938362121582" lon="12.990189552307129">
<ele>94.80000305175781</ele>
<time>2014-02-16T13:20:42Z</time>
</trkpt>
<trkpt lat="52.69386672973633" lon="12.990303039550781">
<ele>94.80000305175781</ele>
<time>2014-02-16T13:20:44Z</time>
</trkpt>
<trkpt lat="52.69388198852539" lon="12.990464210510254">
<ele>94.5</ele>
<time>2014-02-16T13:20:46Z</time>
</trkpt>
<trkpt lat="52.693912506103516" lon="12.990591049194336">
<ele>94.4000015258789</ele>
<time>2014-02-16T13:20:48Z</time>
</trkpt>
<trkpt lat="52.69392776489258" lon="12.990694046020508">
<ele>94.0999984741211</ele>
<time>2014-02-16T13:20:50Z</time>
</trkpt>
<trkpt lat="52.69397735595703" lon="12.990821838378906">
<ele>95.0999984741211</ele>
<time>2014-02-16T13:20:52Z</time>
</trkpt>
<trkpt lat="52.69400405883789" lon="12.990898132324219">
<ele>95.0</ele>
<time>2014-02-16T13:20:53Z</time>
</trkpt>
<trkpt lat="52.69403076171875" lon="12.991034507751465">
<ele>96.9000015258789</ele>
<time>2014-02-16T13:20:55Z</time>
</trkpt>
<trkpt lat="52.69406509399414" lon="12.991165161132812">
<ele>97.5999984741211</ele>
<time>2014-02-16T13:20:57Z</time>
</trkpt>
<trkpt lat="52.69411087036133" lon="12.991275787353516">
<ele>99.5</ele>
<time>2014-02-16T13:20:59Z</time>
</trkpt>
<trkpt lat="52.69413757324219" lon="12.991334915161133">
<ele>100.0</ele>
<time>2014-02-16T13:21:00Z</time>
</trkpt>
<trkpt lat="52.69416427612305" lon="12.991448402404785">
<ele>99.9000015258789</ele>
<time>2014-02-16T13:21:02Z</time>
</trkpt>
<trkpt lat="52.694210052490234" lon="12.991569519042969">
<ele>99.5999984741211</ele>
<time>2014-02-16T13:21:04Z</time>
</trkpt>
<trkpt lat="52.6942253112793" lon="12.991661071777344">
<ele>99.80000305175781</ele>
<time>2014-02-16T13:21:05Z</time>
</trkpt>
<trkpt lat="52.69425582885742" lon="12.991730690002441">
<ele>99.69999694824219</ele>
<time>2014-02-16T13:21:06Z</time>
</trkpt>
<trkpt lat="52.69428253173828" lon="12.991805076599121">
<ele>99.5</ele>
<time>2014-02-16T13:21:07Z</time>
</trkpt>
<trkpt lat="52.694313049316406" lon="12.9918851852417">
<ele>99.4000015258789</ele>
<time>2014-02-16T13:21:08Z</time>
</trkpt>
<trkpt lat="52.694358825683594" lon="12.991971015930176">
<ele>101.0999984741211</ele>
<time>2014-02-16T13:21:09Z</time>
</trkpt>
<trkpt lat="52.69443893432617" lon="12.992094039916992">
<ele>108.30000305175781</ele>
<time>2014-02-16T13:21:11Z</time>
</trkpt>
<trkpt lat="52.69447708129883" lon="12.992157936096191">
<ele>109.9000015258789</ele>
<time>2014-02-16T13:21:12Z</time>
</trkpt>
<trkpt lat="52.694496154785156" lon="12.992229461669922">
<ele>110.4000015258789</ele>
<time>2014-02-16T13:21:13Z</time>
</trkpt>
<trkpt lat="52.69451141357422" lon="12.992325782775879">
<ele>108.5</ele>
<time>2014-02-16T13:21:14Z</time>
</trkpt>
<trkpt lat="52.69453048706055" lon="12.992425918579102">
<ele>107.69999694824219</ele>
<time>2014-02-16T13:21:15Z</time>
</trkpt>
<trkpt lat="52.69456100463867" lon="12.992581367492676">
<ele>106.0999984741211</ele>
<time>2014-02-16T13:21:17Z</time>
</trkpt>
<trkpt lat="52.69459533691406" lon="12.992721557617188">
<ele>105.30000305175781</ele>
<time>2014-02-16T13:21:19Z</time>
</trkpt>
<trkpt lat="52.69461441040039" lon="12.992793083190918">
<ele>104.5</ele>
<time>2014-02-16T13:21:20Z</time>
</trkpt>
<trkpt lat="52.69464874267578" lon="12.992919921875">
<ele>104.69999694824219</ele>
<time>2014-02-16T13:21:22Z</time>
</trkpt>
<trkpt lat="52.69466781616211" lon="12.993048667907715">
<ele>104.5</ele>
<time>2014-02-16T13:21:24Z</time>
</trkpt>
<trkpt lat="52.69468307495117" lon="12.993120193481445">
<ele>104.9000015258789</ele>
<time>2014-02-16T13:21:25Z</time>
</trkpt>
<trkpt lat="52.694725036621094" lon="12.993269920349121">
<ele>103.9000015258789</ele>
<time>2014-02-16T13:21:27Z</time>
</trkpt>
<trkpt lat="52.694732666015625" lon="12.993370056152344">
<ele>103.80000305175781</ele>
<time>2014-02-16T13:21:28Z</time>
</trkpt>
<trkpt lat="52.69473648071289" lon="12.993468284606934">
<ele>101.5</ele>
<time>2014-02-16T13:21:29Z</time>
</trkpt>
<trkpt lat="52.69474792480469" lon="12.993542671203613">
<ele>99.80000305175781</ele>
<time>2014-02-16T13:21:30Z</time>
</trkpt>
<trkpt lat="52.694786071777344" lon="12.993640899658203">
<ele>96.9000015258789</ele>
<time>2014-02-16T13:21:32Z</time>
</trkpt>
<trkpt lat="52.694828033447266" lon="12.993707656860352">
<ele>96.9000015258789</ele>
<time>2014-02-16T13:21:34Z</time>
</trkpt>
<trkpt lat="52.69487380981445" lon="12.993741035461426">
<ele>96.4000015258789</ele>
<time>2014-02-16T13:21:36Z</time>
</trkpt>
<trkpt lat="52.69491958618164" lon="12.993721008300781">
<ele>97.69999694824219</ele>
<time>2014-02-16T13:21:41Z</time>
</trkpt>
<trkpt lat="52.69496536254883" lon="12.993703842163086">
<ele>98.19999694824219</ele>
<time>2014-02-16T13:21:50Z</time>
</trkpt>
<trkpt lat="52.69502258300781" lon="12.993762016296387">
<ele>98.4000015258789</ele>
<time>2014-02-16T13:21:53Z</time>
</trkpt>
<trkpt lat="52.695091247558594" lon="12.993783950805664">
<ele>98.9000015258789</ele>
<time>2014-02-16T13:21:55Z</time>
</trkpt>
<trkpt lat="52.69514465332031" lon="12.9938325881958">
<ele>98.30000305175781</ele>
<time>2014-02-16T13:21:57Z</time>
</trkpt>
<trkpt lat="52.69520950317383" lon="12.993885040283203">
<ele>89.5999984741211</ele>
<time>2014-02-16T13:21:58Z</time>
</trkpt>
<trkpt lat="52.69526290893555" lon="12.99390697479248">
<ele>88.30000305175781</ele>
<time>2014-02-16T13:21:59Z</time>
</trkpt>
<trkpt lat="52.69530487060547" lon="12.993935585021973">
<ele>86.9000015258789</ele>
<time>2014-02-16T13:22:00Z</time>
</trkpt>
<trkpt lat="52.69535827636719" lon="12.993945121765137">
<ele>86.19999694824219</ele>
<time>2014-02-16T13:22:01Z</time>
</trkpt>
<trkpt lat="52.695438385009766" lon="12.993988037109375">
<ele>84.80000305175781</ele>
<time>2014-02-16T13:22:03Z</time>
</trkpt>
<trkpt lat="52.695499420166016" lon="12.994017601013184">
<ele>84.0</ele>
<time>2014-02-16T13:22:04Z</time>
</trkpt>
<trkpt lat="52.69554901123047" lon="12.994060516357422">
<ele>83.4000015258789</ele>
<time>2014-02-16T13:22:05Z</time>
</trkpt>
<trkpt lat="52.69560623168945" lon="12.99410629272461">
<ele>82.80000305175781</ele>
<time>2014-02-16T13:22:06Z</time>
</trkpt>
<trkpt lat="52.695648193359375" lon="12.994135856628418">
<ele>82.4000015258789</ele>
<time>2014-02-16T13:22:07Z</time>
</trkpt>
<trkpt lat="52.69572448730469" lon="12.994207382202148">
<ele>82.5999984741211</ele>
<time>2014-02-16T13:22:09Z</time>
</trkpt>
<trkpt lat="52.695796966552734" lon="12.994269371032715">
<ele>82.30000305175781</ele>
<time>2014-02-16T13:22:11Z</time>
</trkpt>
<trkpt lat="52.69585037231445" lon="12.994317054748535">
<ele>83.5999984741211</ele>
<time>2014-02-16T13:22:12Z</time>
</trkpt>
<trkpt lat="52.695892333984375" lon="12.994357109069824">
<ele>84.0</ele>
<time>2014-02-16T13:22:13Z</time>
</trkpt>
<trkpt lat="52.69593811035156" lon="12.994388580322266">
<ele>84.19999694824219</ele>
<time>2014-02-16T13:22:14Z</time>
</trkpt>
<trkpt lat="52.6960334777832" lon="12.994447708129883">
<ele>77.80000305175781</ele>
<time>2014-02-16T13:22:16Z</time>
</trkpt>
<trkpt lat="52.696083068847656" lon="12.994495391845703">
<ele>77.80000305175781</ele>
<time>2014-02-16T13:22:17Z</time>
</trkpt>
<trkpt lat="52.696128845214844" lon="12.994529724121094">
<ele>76.69999694824219</ele>
<time>2014-02-16T13:22:18Z</time>
</trkpt>
<trkpt lat="52.69622039794922" lon="12.994584083557129">
<ele>76.69999694824219</ele>
<time>2014-02-16T13:22:20Z</time>
</trkpt>
<trkpt lat="52.69630813598633" lon="12.994649887084961">
<ele>76.5999984741211</ele>
<time>2014-02-16T13:22:22Z</time>
</trkpt>
<trkpt lat="52.69636154174805" lon="12.994688034057617">
<ele>78.0</ele>
<time>2014-02-16T13:22:23Z</time>
</trkpt>
<trkpt lat="52.6964111328125" lon="12.994722366333008">
<ele>78.4000015258789</ele>
<time>2014-02-16T13:22:24Z</time>
</trkpt>
<trkpt lat="52.69646072387695" lon="12.994742393493652">
<ele>79.4000015258789</ele>
<time>2014-02-16T13:22:25Z</time>
</trkpt>
<trkpt lat="52.69651794433594" lon="12.994779586791992">
<ele>80.9000015258789</ele>
<time>2014-02-16T13:22:26Z</time>
</trkpt>
<trkpt lat="52.69657516479492" lon="12.994821548461914">
<ele>82.30000305175781</ele>
<time>2014-02-16T13:22:27Z</time>
</trkpt>
<trkpt lat="52.69662857055664" lon="12.994891166687012">
<ele>83.4000015258789</ele>
<time>2014-02-16T13:22:28Z</time>
</trkpt>
<trkpt lat="52.696678161621094" lon="12.9949369430542">
<ele>84.19999694824219</ele>
<time>2014-02-16T13:22:29Z</time>
</trkpt>
<trkpt lat="52.69673538208008" lon="12.994976043701172">
<ele>85.0999984741211</ele>
<time>2014-02-16T13:22:30Z</time>
</trkpt>
<trkpt lat="52.6967887878418" lon="12.995007514953613">
<ele>85.5</ele>
<time>2014-02-16T13:22:31Z</time>
</trkpt>
<trkpt lat="52.69682693481445" lon="12.995049476623535">
<ele>85.4000015258789</ele>
<time>2014-02-16T13:22:32Z</time>
</trkpt>
<trkpt lat="52.696876525878906" lon="12.995098114013672">
<ele>85.80000305175781</ele>
<time>2014-02-16T13:22:33Z</time>
</trkpt>
<trkpt lat="52.696922302246094" lon="12.995146751403809">
<ele>86.19999694824219</ele>
<time>2014-02-16T13:22:34Z</time>
</trkpt>
<trkpt lat="52.696964263916016" lon="12.995185852050781">
<ele>86.0</ele>
<time>2014-02-16T13:22:35Z</time>
</trkpt>
<trkpt lat="52.69700241088867" lon="12.995221138000488">
<ele>86.4000015258789</ele>
<time>2014-02-16T13:22:36Z</time>
</trkpt>
<trkpt lat="52.697052001953125" lon="12.995247840881348">
<ele>86.4000015258789</ele>
<time>2014-02-16T13:22:37Z</time>
</trkpt>
<trkpt lat="52.69712829589844" lon="12.995321273803711">
<ele>86.19999694824219</ele>
<time>2014-02-16T13:22:39Z</time>
</trkpt>
<trkpt lat="52.69717788696289" lon="12.995367050170898">
<ele>86.19999694824219</ele>
<time>2014-02-16T13:22:40Z</time>
</trkpt>
<trkpt lat="52.69723129272461" lon="12.995409965515137">
<ele>85.5999984741211</ele>
<time>2014-02-16T13:22:41Z</time>
</trkpt>
<trkpt lat="52.69728469848633" lon="12.995436668395996">
<ele>85.0</ele>
<time>2014-02-16T13:22:42Z</time>
</trkpt>
<trkpt lat="52.697330474853516" lon="12.995479583740234">
<ele>85.5</ele>
<time>2014-02-16T13:22:43Z</time>
</trkpt>
<trkpt lat="52.69738006591797" lon="12.995513916015625">
<ele>92.0</ele>
<time>2014-02-16T13:22:44Z</time>
</trkpt>
<trkpt lat="52.69743347167969" lon="12.995549201965332">
<ele>91.5999984741211</ele>
<time>2014-02-16T13:22:45Z</time>
</trkpt>
<trkpt lat="52.69747543334961" lon="12.995586395263672">
<ele>92.30000305175781</ele>
<time>2014-02-16T13:22:46Z</time>
</trkpt>
<trkpt lat="52.69751739501953" lon="12.99561595916748">
<ele>92.80000305175781</ele>
<time>2014-02-16T13:22:47Z</time>
</trkpt>
<trkpt lat="52.697608947753906" lon="12.995657920837402">
<ele>93.0</ele>
<time>2014-02-16T13:22:49Z</time>
</trkpt>
<trkpt lat="52.697662353515625" lon="12.995673179626465">
<ele>92.80000305175781</ele>
<time>2014-02-16T13:22:50Z</time>
</trkpt>
<trkpt lat="52.69770812988281" lon="12.995691299438477">
<ele>92.69999694824219</ele>
<time>2014-02-16T13:22:52Z</time>
</trkpt>
<trkpt lat="52.69775390625" lon="12.995725631713867">
<ele>92.5999984741211</ele>
<time>2014-02-16T13:22:52Z</time>
</trkpt>
<trkpt lat="52.697811126708984" lon="12.995762825012207">
<ele>92.5999984741211</ele>
<time>2014-02-16T13:22:54Z</time>
</trkpt>
<trkpt lat="52.697898864746094" lon="12.995809555053711">
<ele>91.80000305175781</ele>
<time>2014-02-16T13:22:56Z</time>
</trkpt>
<trkpt lat="52.69801712036133" lon="12.995874404907227">
<ele>94.80000305175781</ele>
<time>2014-02-16T13:22:57Z</time>
</trkpt>
<trkpt lat="52.69807052612305" lon="12.9959077835083">
<ele>95.0</ele>
<time>2014-02-16T13:22:58Z</time>
</trkpt>
<trkpt lat="52.698116302490234" lon="12.995944023132324">
<ele>95.19999694824219</ele>
<time>2014-02-16T13:22:59Z</time>
</trkpt>
<trkpt lat="52.69815444946289" lon="12.995981216430664">
<ele>95.5999984741211</ele>
<time>2014-02-16T13:23:00Z</time>
</trkpt>
<trkpt lat="52.69820022583008" lon="12.996025085449219">
<ele>95.69999694824219</ele>
<time>2014-02-16T13:23:01Z</time>
</trkpt>
<trkpt lat="52.698246002197266" lon="12.996068000793457">
<ele>95.19999694824219</ele>
<time>2014-02-16T13:23:02Z</time>
</trkpt>
<trkpt lat="52.69829559326172" lon="12.99610424041748">
<ele>94.5</ele>
<time>2014-02-16T13:23:03Z</time>
</trkpt>
<trkpt lat="52.698341369628906" lon="12.99614143371582">
<ele>94.69999694824219</ele>
<time>2014-02-16T13:23:04Z</time>
</trkpt>
<trkpt lat="52.69837951660156" lon="12.996174812316895">
<ele>94.69999694824219</ele>
<time>2014-02-16T13:23:05Z</time>
</trkpt>
<trkpt lat="52.69843673706055" lon="12.99623966217041">
<ele>94.69999694824219</ele>
<time>2014-02-16T13:23:06Z</time>
</trkpt>
<trkpt lat="52.6984748840332" lon="12.996289253234863">
<ele>94.80000305175781</ele>
<time>2014-02-16T13:23:07Z</time>
</trkpt>
<trkpt lat="52.69853973388672" lon="12.99633502960205">
<ele>94.30000305175781</ele>
<time>2014-02-16T13:23:09Z</time>
</trkpt>
<trkpt lat="52.69862747192383" lon="12.996417999267578">
<ele>93.69999694824219</ele>
<time>2014-02-16T13:23:10Z</time>
</trkpt>
<trkpt lat="52.69866943359375" lon="12.996461868286133">
<ele>93.80000305175781</ele>
<time>2014-02-16T13:23:11Z</time>
</trkpt>
<trkpt lat="52.69876480102539" lon="12.996537208557129">
<ele>93.0</ele>
<time>2014-02-16T13:23:13Z</time>
</trkpt>
<trkpt lat="52.69881057739258" lon="12.996575355529785">
<ele>92.9000015258789</ele>
<time>2014-02-16T13:23:14Z</time>
</trkpt>
<trkpt lat="52.6988639831543" lon="12.996613502502441">
<ele>92.0</ele>
<time>2014-02-16T13:23:15Z</time>
</trkpt>
<trkpt lat="52.69890594482422" lon="12.996654510498047">
<ele>92.0999984741211</ele>
<time>2014-02-16T13:23:16Z</time>
</trkpt>
<trkpt lat="52.69895553588867" lon="12.996702194213867">
<ele>91.80000305175781</ele>
<time>2014-02-16T13:23:17Z</time>
</trkpt>
<trkpt lat="52.69899368286133" lon="12.996759414672852">
<ele>91.5999984741211</ele>
<time>2014-02-16T13:23:18Z</time>
</trkpt>
<trkpt lat="52.699039459228516" lon="12.996794700622559">
<ele>91.9000015258789</ele>
<time>2014-02-16T13:23:19Z</time>
</trkpt>
<trkpt lat="52.69907760620117" lon="12.996846199035645">
<ele>91.69999694824219</ele>
<time>2014-02-16T13:23:20Z</time>
</trkpt>
<trkpt lat="52.69913101196289" lon="12.996891975402832">
<ele>91.9000015258789</ele>
<time>2014-02-16T13:23:21Z</time>
</trkpt>
<trkpt lat="52.699188232421875" lon="12.996939659118652">
<ele>89.5</ele>
<time>2014-02-16T13:23:22Z</time>
</trkpt>
<trkpt lat="52.69923782348633" lon="12.996992111206055">
<ele>89.5999984741211</ele>
<time>2014-02-16T13:23:23Z</time>
</trkpt>
<trkpt lat="52.699283599853516" lon="12.99702262878418">
<ele>89.4000015258789</ele>
<time>2014-02-16T13:23:24Z</time>
</trkpt>
<trkpt lat="52.69932174682617" lon="12.99707317352295">
<ele>89.19999694824219</ele>
<time>2014-02-16T13:23:25Z</time>
</trkpt>
<trkpt lat="52.699398040771484" lon="12.99715518951416">
<ele>90.0</ele>
<time>2014-02-16T13:23:27Z</time>
</trkpt>
<trkpt lat="52.69943618774414" lon="12.997198104858398">
<ele>90.69999694824219</ele>
<time>2014-02-16T13:23:28Z</time>
</trkpt>
<trkpt lat="52.69951248168945" lon="12.997281074523926">
<ele>90.4000015258789</ele>
<time>2014-02-16T13:23:30Z</time>
</trkpt>
<trkpt lat="52.699554443359375" lon="12.99732494354248">
<ele>90.19999694824219</ele>
<time>2014-02-16T13:23:31Z</time>
</trkpt>
<trkpt lat="52.699607849121094" lon="12.997358322143555">
<ele>90.0</ele>
<time>2014-02-16T13:23:32Z</time>
</trkpt>
<trkpt lat="52.69965362548828" lon="12.997398376464844">
<ele>90.4000015258789</ele>
<time>2014-02-16T13:23:33Z</time>
</trkpt>
<trkpt lat="52.69969940185547" lon="12.99743366241455">
<ele>90.0</ele>
<time>2014-02-16T13:23:34Z</time>
</trkpt>
<trkpt lat="52.699764251708984" lon="12.997533798217773">
<ele>90.19999694824219</ele>
<time>2014-02-16T13:23:36Z</time>
</trkpt>
<trkpt lat="52.699798583984375" lon="12.99758529663086">
<ele>89.9000015258789</ele>
<time>2014-02-16T13:23:37Z</time>
</trkpt>
<trkpt lat="52.69984436035156" lon="12.997620582580566">
<ele>89.9000015258789</ele>
<time>2014-02-16T13:23:38Z</time>
</trkpt>
<trkpt lat="52.699947357177734" lon="12.997678756713867">
<ele>90.5999984741211</ele>
<time>2014-02-16T13:23:40Z</time>
</trkpt>
<trkpt lat="52.69999694824219" lon="12.997718811035156">
<ele>90.69999694824219</ele>
<time>2014-02-16T13:23:41Z</time>
</trkpt>
<trkpt lat="52.70002746582031" lon="12.997775077819824">
<ele>89.80000305175781</ele>
<time>2014-02-16T13:23:42Z</time>
</trkpt>
<trkpt lat="52.700069427490234" lon="12.99782943725586">
<ele>89.69999694824219</ele>
<time>2014-02-16T13:23:43Z</time>
</trkpt>
<trkpt lat="52.700111389160156" lon="12.997882843017578">
<ele>89.5</ele>
<time>2014-02-16T13:23:44Z</time>
</trkpt>
<trkpt lat="52.700164794921875" lon="12.997917175292969">
<ele>89.5999984741211</ele>
<time>2014-02-16T13:23:45Z</time>
</trkpt>
<trkpt lat="52.70020294189453" lon="12.997971534729004">
<ele>89.9000015258789</ele>
<time>2014-02-16T13:23:46Z</time>
</trkpt>
<trkpt lat="52.70024871826172" lon="12.998017311096191">
<ele>90.30000305175781</ele>
<time>2014-02-16T13:23:47Z</time>
</trkpt>
<trkpt lat="52.70029830932617" lon="12.99807357788086">
<ele>91.0</ele>
<time>2014-02-16T13:23:48Z</time>
</trkpt>
<trkpt lat="52.700374603271484" lon="12.998153686523438">
<ele>91.9000015258789</ele>
<time>2014-02-16T13:23:50Z</time>
</trkpt>
<trkpt lat="52.7004280090332" lon="12.998202323913574">
<ele>91.9000015258789</ele>
<time>2014-02-16T13:23:51Z</time>
</trkpt>
<trkpt lat="52.700462341308594" lon="12.998260498046875">
<ele>92.4000015258789</ele>
<time>2014-02-16T13:23:52Z</time>
</trkpt>
<trkpt lat="52.70050048828125" lon="12.998303413391113">
<ele>93.0</ele>
<time>2014-02-16T13:23:53Z</time>
</trkpt>
<trkpt lat="52.7005500793457" lon="12.998350143432617">
<ele>93.0</ele>
<time>2014-02-16T13:23:54Z</time>
</trkpt>
<trkpt lat="52.70061111450195" lon="12.998438835144043">
<ele>91.9000015258789</ele>
<time>2014-02-16T13:23:56Z</time>
</trkpt>
<trkpt lat="52.700687408447266" lon="12.99849796295166">
<ele>91.0</ele>
<time>2014-02-16T13:23:58Z</time>
</trkpt>
<trkpt lat="52.700775146484375" lon="12.998556137084961">
<ele>91.69999694824219</ele>
<time>2014-02-16T13:24:00Z</time>
</trkpt>
<trkpt lat="52.70087432861328" lon="12.998649597167969">
<ele>90.9000015258789</ele>
<time>2014-02-16T13:24:02Z</time>
</trkpt>
<trkpt lat="52.70093536376953" lon="12.998709678649902">
<ele>90.5</ele>
<time>2014-02-16T13:24:04Z</time>
</trkpt>
<trkpt lat="52.70103073120117" lon="12.998767852783203">
<ele>91.0999984741211</ele>
<time>2014-02-16T13:24:05Z</time>
</trkpt>
<trkpt lat="52.70106506347656" lon="12.998827934265137">
<ele>91.4000015258789</ele>
<time>2014-02-16T13:24:06Z</time>
</trkpt>
<trkpt lat="52.70109558105469" lon="12.998885154724121">
<ele>91.19999694824219</ele>
<time>2014-02-16T13:24:07Z</time>
</trkpt>
<trkpt lat="52.70109558105469" lon="12.9989652633667">
<ele>89.69999694824219</ele>
<time>2014-02-16T13:24:08Z</time>
</trkpt>
<trkpt lat="52.70109176635742" lon="12.999096870422363">
<ele>90.4000015258789</ele>
<time>2014-02-16T13:24:10Z</time>
</trkpt>
<trkpt lat="52.70106887817383" lon="12.999191284179688">
<ele>90.80000305175781</ele>
<time>2014-02-16T13:24:11Z</time>
</trkpt>
<trkpt lat="52.7010383605957" lon="12.999271392822266">
<ele>90.5999984741211</ele>
<time>2014-02-16T13:24:12Z</time>
</trkpt>
<trkpt lat="52.70100784301758" lon="12.99935531616211">
<ele>91.0</ele>
<time>2014-02-16T13:24:13Z</time>
</trkpt>
<trkpt lat="52.70099639892578" lon="12.999439239501953">
<ele>91.0999984741211</ele>
<time>2014-02-16T13:24:14Z</time>
</trkpt>
<trkpt lat="52.70099639892578" lon="12.999526023864746">
<ele>91.30000305175781</ele>
<time>2014-02-16T13:24:15Z</time>
</trkpt>
<trkpt lat="52.700984954833984" lon="12.999619483947754">
<ele>91.69999694824219</ele>
<time>2014-02-16T13:24:16Z</time>
</trkpt>
<trkpt lat="52.70097351074219" lon="12.999700546264648">
<ele>91.5999984741211</ele>
<time>2014-02-16T13:24:17Z</time>
</trkpt>
<trkpt lat="52.700931549072266" lon="12.999890327453613">
<ele>91.19999694824219</ele>
<time>2014-02-16T13:24:19Z</time>
</trkpt>
<trkpt lat="52.70092010498047" lon="12.999979019165039">
<ele>91.5</ele>
<time>2014-02-16T13:24:20Z</time>
</trkpt>
<trkpt lat="52.700904846191406" lon="13.000070571899414">
<ele>91.5</ele>
<time>2014-02-16T13:24:21Z</time>
</trkpt>
<trkpt lat="52.70088577270508" lon="13.00023365020752">
<ele>90.69999694824219</ele>
<time>2014-02-16T13:24:23Z</time>
</trkpt>
<trkpt lat="52.70088577270508" lon="13.000337600708008">
<ele>91.69999694824219</ele>
<time>2014-02-16T13:24:25Z</time>
</trkpt>
<trkpt lat="52.70087814331055" lon="13.000415802001953">
<ele>90.19999694824219</ele>
<time>2014-02-16T13:24:26Z</time>
</trkpt>
<trkpt lat="52.70085906982422" lon="13.000518798828125">
<ele>90.9000015258789</ele>
<time>2014-02-16T13:24:27Z</time>
</trkpt>
<trkpt lat="52.70083236694336" lon="13.000608444213867">
<ele>92.0</ele>
<time>2014-02-16T13:24:28Z</time>
</trkpt>
<trkpt lat="52.700809478759766" lon="13.000687599182129">
<ele>91.5999984741211</ele>
<time>2014-02-16T13:24:29Z</time>
</trkpt>
<trkpt lat="52.7007942199707" lon="13.00076675415039">
<ele>91.30000305175781</ele>
<time>2014-02-16T13:24:30Z</time>
</trkpt>
<trkpt lat="52.70077133178711" lon="13.000858306884766">
<ele>92.19999694824219</ele>
<time>2014-02-16T13:24:31Z</time>
</trkpt>
<trkpt lat="52.70075225830078" lon="13.00093936920166">
<ele>90.9000015258789</ele>
<time>2014-02-16T13:24:32Z</time>
</trkpt>
<trkpt lat="52.70073318481445" lon="13.001022338867188">
<ele>90.5</ele>
<time>2014-02-16T13:24:33Z</time>
</trkpt>
<trkpt lat="52.70071792602539" lon="13.001096725463867">
<ele>90.69999694824219</ele>
<time>2014-02-16T13:24:34Z</time>
</trkpt>
<trkpt lat="52.70069885253906" lon="13.001226425170898">
<ele>90.4000015258789</ele>
<time>2014-02-16T13:24:36Z</time>
</trkpt>
<trkpt lat="52.70063781738281" lon="13.00140380859375">
<ele>90.19999694824219</ele>
<time>2014-02-16T13:24:38Z</time>
</trkpt>
<trkpt lat="52.700618743896484" lon="13.00147819519043">
<ele>90.30000305175781</ele>
<time>2014-02-16T13:24:39Z</time>
</trkpt>
<trkpt lat="52.70059585571289" lon="13.001616477966309">
<ele>91.19999694824219</ele>
<time>2014-02-16T13:24:41Z</time>
</trkpt>
<trkpt lat="52.7005729675293" lon="13.001680374145508">
<ele>91.0999984741211</ele>
<time>2014-02-16T13:24:42Z</time>
</trkpt>
<trkpt lat="52.700531005859375" lon="13.001765251159668">
<ele>90.9000015258789</ele>
<time>2014-02-16T13:24:43Z</time>
</trkpt>
<trkpt lat="52.70050811767578" lon="13.001899719238281">
<ele>92.30000305175781</ele>
<time>2014-02-16T13:24:45Z</time>
</trkpt>
<trkpt lat="52.70048904418945" lon="13.001969337463379">
<ele>92.9000015258789</ele>
<time>2014-02-16T13:24:46Z</time>
</trkpt>
<trkpt lat="52.70045471191406" lon="13.00209903717041">
<ele>94.0999984741211</ele>
<time>2014-02-16T13:24:48Z</time>
</trkpt>
<trkpt lat="52.70042419433594" lon="13.002169609069824">
<ele>93.69999694824219</ele>
<time>2014-02-16T13:24:49Z</time>
</trkpt>
<trkpt lat="52.700374603271484" lon="13.002310752868652">
<ele>93.5999984741211</ele>
<time>2014-02-16T13:24:51Z</time>
</trkpt>
<trkpt lat="52.70033645629883" lon="13.00243854522705">
<ele>93.19999694824219</ele>
<time>2014-02-16T13:24:53Z</time>
</trkpt>
<trkpt lat="52.70030212402344" lon="13.002532005310059">
<ele>92.80000305175781</ele>
<time>2014-02-16T13:24:54Z</time>
</trkpt>
<trkpt lat="52.70024490356445" lon="13.00268840789795">
<ele>91.30000305175781</ele>
<time>2014-02-16T13:24:56Z</time>
</trkpt>
<trkpt lat="52.70022201538086" lon="13.002758979797363">
<ele>90.9000015258789</ele>
<time>2014-02-16T13:24:57Z</time>
</trkpt>
<trkpt lat="52.700191497802734" lon="13.002900123596191">
<ele>93.19999694824219</ele>
<time>2014-02-16T13:24:59Z</time>
</trkpt>
<trkpt lat="52.700164794921875" lon="13.002969741821289">
<ele>93.80000305175781</ele>
<time>2014-02-16T13:25:00Z</time>
</trkpt>
<trkpt lat="52.70014190673828" lon="13.003047943115234">
<ele>94.19999694824219</ele>
<time>2014-02-16T13:25:01Z</time>
</trkpt>
<trkpt lat="52.70011901855469" lon="13.003135681152344">
<ele>91.5</ele>
<time>2014-02-16T13:25:02Z</time>
</trkpt>
<trkpt lat="52.70009994506836" lon="13.003216743469238">
<ele>91.0999984741211</ele>
<time>2014-02-16T13:25:03Z</time>
</trkpt>
<trkpt lat="52.7000846862793" lon="13.003345489501953">
<ele>90.5999984741211</ele>
<time>2014-02-16T13:25:05Z</time>
</trkpt>
<trkpt lat="52.70005798339844" lon="13.00348949432373">
<ele>89.9000015258789</ele>
<time>2014-02-16T13:25:07Z</time>
</trkpt>
<trkpt lat="52.70003890991211" lon="13.003562927246094">
<ele>90.30000305175781</ele>
<time>2014-02-16T13:25:08Z</time>
</trkpt>
<trkpt lat="52.70002746582031" lon="13.003656387329102">
<ele>90.30000305175781</ele>
<time>2014-02-16T13:25:09Z</time>
</trkpt>
<trkpt lat="52.70003128051758" lon="13.003734588623047">
<ele>90.5</ele>
<time>2014-02-16T13:25:10Z</time>
</trkpt>
<trkpt lat="52.700008392333984" lon="13.003829956054688">
<ele>90.80000305175781</ele>
<time>2014-02-16T13:25:11Z</time>
</trkpt>
<trkpt lat="52.69995880126953" lon="13.004036903381348">
<ele>89.9000015258789</ele>
<time>2014-02-16T13:25:13Z</time>
</trkpt>
<trkpt lat="52.6999397277832" lon="13.004109382629395">
<ele>89.69999694824219</ele>
<time>2014-02-16T13:25:14Z</time>
</trkpt>
<trkpt lat="52.69992446899414" lon="13.004188537597656">
<ele>89.80000305175781</ele>
<time>2014-02-16T13:25:15Z</time>
</trkpt>
<trkpt lat="52.69990921020508" lon="13.004278182983398">
<ele>89.9000015258789</ele>
<time>2014-02-16T13:25:16Z</time>
</trkpt>
<trkpt lat="52.69990158081055" lon="13.004354476928711">
<ele>90.0</ele>
<time>2014-02-16T13:25:17Z</time>
</trkpt>
<trkpt lat="52.699859619140625" lon="13.004456520080566">
<ele>89.80000305175781</ele>
<time>2014-02-16T13:25:18Z</time>
</trkpt>
<trkpt lat="52.6998405456543" lon="13.004534721374512">
<ele>89.9000015258789</ele>
<time>2014-02-16T13:25:19Z</time>
</trkpt>
<trkpt lat="52.69982147216797" lon="13.00468921661377">
<ele>89.4000015258789</ele>
<time>2014-02-16T13:25:21Z</time>
</trkpt>
<trkpt lat="52.69981384277344" lon="13.004776954650879">
<ele>89.30000305175781</ele>
<time>2014-02-16T13:25:22Z</time>
</trkpt>
<trkpt lat="52.699806213378906" lon="13.004858016967773">
<ele>89.30000305175781</ele>
<time>2014-02-16T13:25:23Z</time>
</trkpt>
<trkpt lat="52.69977569580078" lon="13.00497817993164">
<ele>89.30000305175781</ele>
<time>2014-02-16T13:25:24Z</time>
</trkpt>
<trkpt lat="52.699771881103516" lon="13.005058288574219">
<ele>89.19999694824219</ele>
<time>2014-02-16T13:25:25Z</time>
</trkpt>
<trkpt lat="52.69977569580078" lon="13.005212783813477">
<ele>88.9000015258789</ele>
<time>2014-02-16T13:25:27Z</time>
</trkpt>
<trkpt lat="52.69977569580078" lon="13.005290985107422">
<ele>88.19999694824219</ele>
<time>2014-02-16T13:25:28Z</time>
</trkpt>
<trkpt lat="52.699771881103516" lon="13.005370140075684">
<ele>88.19999694824219</ele>
<time>2014-02-16T13:25:29Z</time>
</trkpt>
<trkpt lat="52.69977569580078" lon="13.005456924438477">
<ele>89.0</ele>
<time>2014-02-16T13:25:30Z</time>
</trkpt>
<trkpt lat="52.69976806640625" lon="13.005545616149902">
<ele>89.5999984741211</ele>
<time>2014-02-16T13:25:31Z</time>
</trkpt>
<trkpt lat="52.69976806640625" lon="13.005634307861328">
<ele>89.0999984741211</ele>
<time>2014-02-16T13:25:32Z</time>
</trkpt>
<trkpt lat="52.69977569580078" lon="13.005709648132324">
<ele>89.30000305175781</ele>
<time>2014-02-16T13:25:33Z</time>
</trkpt>
<trkpt lat="52.69977569580078" lon="13.005799293518066">
<ele>89.30000305175781</ele>
<time>2014-02-16T13:25:34Z</time>
</trkpt>
<trkpt lat="52.69977569580078" lon="13.005882263183594">
<ele>89.4000015258789</ele>
<time>2014-02-16T13:25:35Z</time>
</trkpt>
<trkpt lat="52.69977569580078" lon="13.005965232849121">
<ele>89.5</ele>
<time>2014-02-16T13:25:36Z</time>
</trkpt>
<trkpt lat="52.699764251708984" lon="13.006049156188965">
<ele>89.19999694824219</ele>
<time>2014-02-16T13:25:37Z</time>
</trkpt>
<trkpt lat="52.699764251708984" lon="13.006135940551758">
<ele>89.69999694824219</ele>
<time>2014-02-16T13:25:38Z</time>
</trkpt>
<trkpt lat="52.69976806640625" lon="13.006214141845703">
<ele>90.0</ele>
<time>2014-02-16T13:25:39Z</time>
</trkpt>
<trkpt lat="52.699764251708984" lon="13.00629711151123">
<ele>90.0999984741211</ele>
<time>2014-02-16T13:25:40Z</time>
</trkpt>
<trkpt lat="52.69976043701172" lon="13.006388664245605">
<ele>90.9000015258789</ele>
<time>2014-02-16T13:25:41Z</time>
</trkpt>
<trkpt lat="52.699764251708984" lon="13.0064697265625">
<ele>91.0999984741211</ele>
<time>2014-02-16T13:25:42Z</time>
</trkpt>
<trkpt lat="52.69976806640625" lon="13.00655460357666">
<ele>91.4000015258789</ele>
<time>2014-02-16T13:25:43Z</time>
</trkpt>
<trkpt lat="52.69976806640625" lon="13.006634712219238">
<ele>91.5</ele>
<time>2014-02-16T13:25:44Z</time>
</trkpt>
<trkpt lat="52.69976806640625" lon="13.006719589233398">
<ele>91.5999984741211</ele>
<time>2014-02-16T13:25:45Z</time>
</trkpt>
<trkpt lat="52.699771881103516" lon="13.006803512573242">
<ele>91.19999694824219</ele>
<time>2014-02-16T13:25:46Z</time>
</trkpt>
<trkpt lat="52.69978713989258" lon="13.006912231445312">
<ele>91.0</ele>
<time>2014-02-16T13:25:48Z</time>
</trkpt>
<trkpt lat="52.699798583984375" lon="13.007031440734863">
<ele>91.0</ele>
<time>2014-02-16T13:25:50Z</time>
</trkpt>
<trkpt lat="52.69977951049805" lon="13.007131576538086">
<ele>91.5999984741211</ele>
<time>2014-02-16T13:25:52Z</time>
</trkpt>
<trkpt lat="52.69971466064453" lon="13.007332801818848">
<ele>92.9000015258789</ele>
<time>2014-02-16T13:25:54Z</time>
</trkpt>
<trkpt lat="52.69968795776367" lon="13.007431030273438">
<ele>93.69999694824219</ele>
<time>2014-02-16T13:25:55Z</time>
</trkpt>
<trkpt lat="52.69966125488281" lon="13.00749683380127">
<ele>93.80000305175781</ele>
<time>2014-02-16T13:25:56Z</time>
</trkpt>
<trkpt lat="52.69962692260742" lon="13.007606506347656">
<ele>94.4000015258789</ele>
<time>2014-02-16T13:25:58Z</time>
</trkpt>
<trkpt lat="52.69960403442383" lon="13.00770092010498">
<ele>94.5999984741211</ele>
<time>2014-02-16T13:26:00Z</time>
</trkpt>
<trkpt lat="52.69957733154297" lon="13.007769584655762">
<ele>94.80000305175781</ele>
<time>2014-02-16T13:26:01Z</time>
</trkpt>
<trkpt lat="52.69953918457031" lon="13.00788402557373">
<ele>95.5999984741211</ele>
<time>2014-02-16T13:26:03Z</time>
</trkpt>
<trkpt lat="52.69953155517578" lon="13.00796890258789">
<ele>95.69999694824219</ele>
<time>2014-02-16T13:26:04Z</time>
</trkpt>
<trkpt lat="52.69951248168945" lon="13.00805377960205">
<ele>95.5</ele>
<time>2014-02-16T13:26:05Z</time>
</trkpt>
<trkpt lat="52.69949722290039" lon="13.008124351501465">
<ele>95.5</ele>
<time>2014-02-16T13:26:06Z</time>
</trkpt>
<trkpt lat="52.69948196411133" lon="13.008197784423828">
<ele>95.9000015258789</ele>
<time>2014-02-16T13:26:07Z</time>
</trkpt>
<trkpt lat="52.69944381713867" lon="13.008299827575684">
<ele>96.5</ele>
<time>2014-02-16T13:26:09Z</time>
</trkpt>
<trkpt lat="52.699424743652344" lon="13.008406639099121">
<ele>96.5</ele>
<time>2014-02-16T13:26:11Z</time>
</trkpt>
<trkpt lat="52.69941329956055" lon="13.008502960205078">
<ele>96.5999984741211</ele>
<time>2014-02-16T13:26:13Z</time>
</trkpt>
<trkpt lat="52.69938659667969" lon="13.008590698242188">
<ele>96.69999694824219</ele>
<time>2014-02-16T13:26:15Z</time>
</trkpt>
<trkpt lat="52.6993408203125" lon="13.008652687072754">
<ele>97.4000015258789</ele>
<time>2014-02-16T13:26:17Z</time>
</trkpt>
<trkpt lat="52.699302673339844" lon="13.008744239807129">
<ele>96.5999984741211</ele>
<time>2014-02-16T13:26:18Z</time>
</trkpt>
<trkpt lat="52.69924545288086" lon="13.008874893188477">
<ele>97.0999984741211</ele>
<time>2014-02-16T13:26:21Z</time>
</trkpt>
<trkpt lat="52.69923782348633" lon="13.009063720703125">
<ele>95.9000015258789</ele>
<time>2014-02-16T13:26:26Z</time>
</trkpt>
<trkpt lat="52.69922637939453" lon="13.0091552734375">
<ele>94.30000305175781</ele>
<time>2014-02-16T13:26:28Z</time>
</trkpt>
<trkpt lat="52.69920349121094" lon="13.009247779846191">
<ele>93.5999984741211</ele>
<time>2014-02-16T13:26:30Z</time>
</trkpt>
<trkpt lat="52.69916915893555" lon="13.00944709777832">
<ele>97.0999984741211</ele>
<time>2014-02-16T13:26:35Z</time>
</trkpt>
<trkpt lat="52.69914627075195" lon="13.009581565856934">
<ele>99.19999694824219</ele>
<time>2014-02-16T13:26:37Z</time>
</trkpt>
<trkpt lat="52.69912338256836" lon="13.009698867797852">
<ele>100.30000305175781</ele>
<time>2014-02-16T13:26:39Z</time>
</trkpt>
<trkpt lat="52.699119567871094" lon="13.009811401367188">
<ele>99.30000305175781</ele>
<time>2014-02-16T13:26:41Z</time>
</trkpt>
<trkpt lat="52.6991081237793" lon="13.009925842285156">
<ele>99.5999984741211</ele>
<time>2014-02-16T13:26:43Z</time>
</trkpt>
<trkpt lat="52.69910430908203" lon="13.010040283203125">
<ele>100.69999694824219</ele>
<time>2014-02-16T13:26:44Z</time>
</trkpt>
<trkpt lat="52.69908905029297" lon="13.010152816772461">
<ele>101.19999694824219</ele>
<time>2014-02-16T13:26:46Z</time>
</trkpt>
<trkpt lat="52.69906997680664" lon="13.010309219360352">
<ele>100.0999984741211</ele>
<time>2014-02-16T13:26:50Z</time>
</trkpt>
<trkpt lat="52.69905471801758" lon="13.010485649108887">
<ele>101.5</ele>
<time>2014-02-16T13:26:54Z</time>
</trkpt>
<trkpt lat="52.699058532714844" lon="13.010581970214844">
<ele>100.69999694824219</ele>
<time>2014-02-16T13:27:45Z</time>
</trkpt>
<trkpt lat="52.699058532714844" lon="13.010658264160156">
<ele>101.0999984741211</ele>
<time>2014-02-16T13:27:48Z</time>
</trkpt>
<trkpt lat="52.69905090332031" lon="13.010762214660645">
<ele>102.69999694824219</ele>
<time>2014-02-16T13:27:49Z</time>
</trkpt>
<trkpt lat="52.699039459228516" lon="13.01089096069336">
<ele>100.9000015258789</ele>
<time>2014-02-16T13:27:51Z</time>
</trkpt>
<trkpt lat="52.699031829833984" lon="13.011014938354492">
<ele>100.5999984741211</ele>
<time>2014-02-16T13:27:53Z</time>
</trkpt>
<trkpt lat="52.69902420043945" lon="13.011138916015625">
<ele>100.19999694824219</ele>
<time>2014-02-16T13:27:55Z</time>
</trkpt>
<trkpt lat="52.69902038574219" lon="13.011260986328125">
<ele>100.30000305175781</ele>
<time>2014-02-16T13:27:57Z</time>
</trkpt>
<trkpt lat="52.69901657104492" lon="13.011378288269043">
<ele>100.80000305175781</ele>
<time>2014-02-16T13:27:59Z</time>
</trkpt>
<trkpt lat="52.69900894165039" lon="13.011455535888672">
<ele>100.30000305175781</ele>
<time>2014-02-16T13:28:00Z</time>
</trkpt>
<trkpt lat="52.69900894165039" lon="13.011533737182617">
<ele>100.30000305175781</ele>
<time>2014-02-16T13:28:01Z</time>
</trkpt>
<trkpt lat="52.69900894165039" lon="13.01168155670166">
<ele>100.0</ele>
<time>2014-02-16T13:28:03Z</time>
</trkpt>
<trkpt lat="52.69898986816406" lon="13.011786460876465">
<ele>100.30000305175781</ele>
<time>2014-02-16T13:28:04Z</time>
</trkpt>
<trkpt lat="52.698974609375" lon="13.011883735656738">
<ele>100.4000015258789</ele>
<time>2014-02-16T13:28:05Z</time>
</trkpt>
<trkpt lat="52.69896697998047" lon="13.011980056762695">
<ele>100.5</ele>
<time>2014-02-16T13:28:06Z</time>
</trkpt>
<trkpt lat="52.69895935058594" lon="13.01207160949707">
<ele>99.80000305175781</ele>
<time>2014-02-16T13:28:07Z</time>
</trkpt>
<trkpt lat="52.6989631652832" lon="13.012165069580078">
<ele>99.30000305175781</ele>
<time>2014-02-16T13:28:08Z</time>
</trkpt>
<trkpt lat="52.698970794677734" lon="13.012249946594238">
<ele>98.0</ele>
<time>2014-02-16T13:28:09Z</time>
</trkpt>
<trkpt lat="52.6989631652832" lon="13.012358665466309">
<ele>97.4000015258789</ele>
<time>2014-02-16T13:28:10Z</time>
</trkpt>
<trkpt lat="52.69895553588867" lon="13.012472152709961">
<ele>97.0</ele>
<time>2014-02-16T13:28:11Z</time>
</trkpt>
<trkpt lat="52.69894790649414" lon="13.012590408325195">
<ele>96.4000015258789</ele>
<time>2014-02-16T13:28:12Z</time>
</trkpt>
<trkpt lat="52.69894027709961" lon="13.012713432312012">
<ele>95.69999694824219</ele>
<time>2014-02-16T13:28:13Z</time>
</trkpt>
<trkpt lat="52.69892883300781" lon="13.01284408569336">
<ele>95.69999694824219</ele>
<time>2014-02-16T13:28:14Z</time>
</trkpt>
<trkpt lat="52.69892120361328" lon="13.012970924377441">
<ele>95.0</ele>
<time>2014-02-16T13:28:15Z</time>
</trkpt>
<trkpt lat="52.69891357421875" lon="13.013102531433105">
<ele>94.5999984741211</ele>
<time>2014-02-16T13:28:16Z</time>
</trkpt>
<trkpt lat="52.69890594482422" lon="13.013233184814453">
<ele>94.0999984741211</ele>
<time>2014-02-16T13:28:17Z</time>
</trkpt>
<trkpt lat="52.69890213012695" lon="13.013367652893066">
<ele>94.0</ele>
<time>2014-02-16T13:28:18Z</time>
</trkpt>
<trkpt lat="52.69889450073242" lon="13.01350212097168">
<ele>93.80000305175781</ele>
<time>2014-02-16T13:28:19Z</time>
</trkpt>
<trkpt lat="52.698875427246094" lon="13.013653755187988">
<ele>93.19999694824219</ele>
<time>2014-02-16T13:28:20Z</time>
</trkpt>
<trkpt lat="52.69887161254883" lon="13.013789176940918">
<ele>93.0</ele>
<time>2014-02-16T13:28:21Z</time>
</trkpt>
<trkpt lat="52.69887161254883" lon="13.013931274414062">
<ele>92.69999694824219</ele>
<time>2014-02-16T13:28:22Z</time>
</trkpt>
<trkpt lat="52.69889831542969" lon="13.014044761657715">
<ele>93.0999984741211</ele>
<time>2014-02-16T13:28:23Z</time>
</trkpt>
<trkpt lat="52.69892120361328" lon="13.014152526855469">
<ele>93.0</ele>
<time>2014-02-16T13:28:24Z</time>
</trkpt>
<trkpt lat="52.69894790649414" lon="13.014253616333008">
<ele>92.69999694824219</ele>
<time>2014-02-16T13:28:25Z</time>
</trkpt>
<trkpt lat="52.698978424072266" lon="13.014347076416016">
<ele>92.69999694824219</ele>
<time>2014-02-16T13:28:26Z</time>
</trkpt>
<trkpt lat="52.69902420043945" lon="13.014421463012695">
<ele>93.0</ele>
<time>2014-02-16T13:28:27Z</time>
</trkpt>
<trkpt lat="52.6990852355957" lon="13.014512062072754">
<ele>92.69999694824219</ele>
<time>2014-02-16T13:28:28Z</time>
</trkpt>
<trkpt lat="52.69914245605469" lon="13.014607429504395">
<ele>92.4000015258789</ele>
<time>2014-02-16T13:28:29Z</time>
</trkpt>
<trkpt lat="52.69919967651367" lon="13.014679908752441">
<ele>92.4000015258789</ele>
<time>2014-02-16T13:28:30Z</time>
</trkpt>
<trkpt lat="52.699249267578125" lon="13.014730453491211">
<ele>92.0</ele>
<time>2014-02-16T13:28:31Z</time>
</trkpt>
<trkpt lat="52.69930648803711" lon="13.01478099822998">
<ele>91.9000015258789</ele>
<time>2014-02-16T13:28:32Z</time>
</trkpt>
<trkpt lat="52.69934844970703" lon="13.014870643615723">
<ele>91.69999694824219</ele>
<time>2014-02-16T13:28:33Z</time>
</trkpt>
<trkpt lat="52.699398040771484" lon="13.014957427978516">
<ele>91.80000305175781</ele>
<time>2014-02-16T13:28:34Z</time>
</trkpt>
<trkpt lat="52.699432373046875" lon="13.01506233215332">
<ele>92.0999984741211</ele>
<time>2014-02-16T13:28:35Z</time>
</trkpt>
<trkpt lat="52.69947052001953" lon="13.015168190002441">
<ele>92.19999694824219</ele>
<time>2014-02-16T13:28:36Z</time>
</trkpt>
<trkpt lat="52.69952392578125" lon="13.015280723571777">
<ele>92.5999984741211</ele>
<time>2014-02-16T13:28:37Z</time>
</trkpt>
<trkpt lat="52.69953918457031" lon="13.015390396118164">
<ele>93.0999984741211</ele>
<time>2014-02-16T13:28:38Z</time>
</trkpt>
<trkpt lat="52.69957733154297" lon="13.015507698059082">
<ele>93.5999984741211</ele>
<time>2014-02-16T13:28:39Z</time>
</trkpt>
<trkpt lat="52.6995964050293" lon="13.015644073486328">
<ele>93.9000015258789</ele>
<time>2014-02-16T13:28:40Z</time>
</trkpt>
<trkpt lat="52.69963455200195" lon="13.015754699707031">
<ele>94.0999984741211</ele>
<time>2014-02-16T13:28:41Z</time>
</trkpt>
<trkpt lat="52.69967269897461" lon="13.015868186950684">
<ele>93.5999984741211</ele>
<time>2014-02-16T13:28:42Z</time>
</trkpt>
<trkpt lat="52.69968795776367" lon="13.01597785949707">
<ele>93.80000305175781</ele>
<time>2014-02-16T13:28:43Z</time>
</trkpt>
<trkpt lat="52.699710845947266" lon="13.016091346740723">
<ele>93.69999694824219</ele>
<time>2014-02-16T13:28:44Z</time>
</trkpt>
<trkpt lat="52.699737548828125" lon="13.016203880310059">
<ele>93.4000015258789</ele>
<time>2014-02-16T13:28:45Z</time>
</trkpt>
<trkpt lat="52.699771881103516" lon="13.016328811645508">
<ele>94.19999694824219</ele>
<time>2014-02-16T13:28:46Z</time>
</trkpt>
<trkpt lat="52.699798583984375" lon="13.01644515991211">
<ele>94.19999694824219</ele>
<time>2014-02-16T13:28:47Z</time>
</trkpt>
<trkpt lat="52.69982147216797" lon="13.016556739807129">
<ele>93.69999694824219</ele>
<time>2014-02-16T13:28:48Z</time>
</trkpt>
<trkpt lat="52.69985580444336" lon="13.016688346862793">
<ele>93.9000015258789</ele>
<time>2014-02-16T13:28:49Z</time>
</trkpt>
<trkpt lat="52.69988250732422" lon="13.016806602478027">
<ele>93.69999694824219</ele>
<time>2014-02-16T13:28:50Z</time>
</trkpt>
<trkpt lat="52.699913024902344" lon="13.016915321350098">
<ele>94.19999694824219</ele>
<time>2014-02-16T13:28:51Z</time>
</trkpt>
<trkpt lat="52.69994354248047" lon="13.017032623291016">
<ele>94.5</ele>
<time>2014-02-16T13:28:52Z</time>
</trkpt>
<trkpt lat="52.69997787475586" lon="13.017138481140137">
<ele>94.69999694824219</ele>
<time>2014-02-16T13:28:53Z</time>
</trkpt>
<trkpt lat="52.70000076293945" lon="13.017254829406738">
<ele>93.5</ele>
<time>2014-02-16T13:28:54Z</time>
</trkpt>
<trkpt lat="52.70003128051758" lon="13.01736068725586">
<ele>93.80000305175781</ele>
<time>2014-02-16T13:28:55Z</time>
</trkpt>
<trkpt lat="52.700042724609375" lon="13.017477035522461">
<ele>93.19999694824219</ele>
<time>2014-02-16T13:28:56Z</time>
</trkpt>
<trkpt lat="52.7000732421875" lon="13.01757526397705">
<ele>94.19999694824219</ele>
<time>2014-02-16T13:28:57Z</time>
</trkpt>
<trkpt lat="52.70010757446289" lon="13.017675399780273">
<ele>94.80000305175781</ele>
<time>2014-02-16T13:28:58Z</time>
</trkpt>
<trkpt lat="52.700138092041016" lon="13.017783164978027">
<ele>95.0</ele>
<time>2014-02-16T13:28:59Z</time>
</trkpt>
<trkpt lat="52.70016860961914" lon="13.017882347106934">
<ele>94.9000015258789</ele>
<time>2014-02-16T13:29:00Z</time>
</trkpt>
<trkpt lat="52.700191497802734" lon="13.017958641052246">
<ele>95.30000305175781</ele>
<time>2014-02-16T13:29:01Z</time>
</trkpt>
<trkpt lat="52.700218200683594" lon="13.018056869506836">
<ele>95.30000305175781</ele>
<time>2014-02-16T13:29:02Z</time>
</trkpt>
<trkpt lat="52.70024871826172" lon="13.01815414428711">
<ele>95.19999694824219</ele>
<time>2014-02-16T13:29:03Z</time>
</trkpt>
<trkpt lat="52.70026779174805" lon="13.018261909484863">
<ele>96.0</ele>
<time>2014-02-16T13:29:04Z</time>
</trkpt>
<trkpt lat="52.700294494628906" lon="13.018362045288086">
<ele>96.0999984741211</ele>
<time>2014-02-16T13:29:05Z</time>
</trkpt>
<trkpt lat="52.70030975341797" lon="13.018467903137207">
<ele>95.9000015258789</ele>
<time>2014-02-16T13:29:06Z</time>
</trkpt>
<trkpt lat="52.70032501220703" lon="13.018576622009277">
<ele>96.0999984741211</ele>
<time>2014-02-16T13:29:07Z</time>
</trkpt>
<trkpt lat="52.70033264160156" lon="13.018664360046387">
<ele>95.9000015258789</ele>
<time>2014-02-16T13:29:08Z</time>
</trkpt>
<trkpt lat="52.7003173828125" lon="13.018765449523926">
<ele>95.69999694824219</ele>
<time>2014-02-16T13:29:09Z</time>
</trkpt>
<trkpt lat="52.700313568115234" lon="13.018863677978516">
<ele>93.69999694824219</ele>
<time>2014-02-16T13:29:10Z</time>
</trkpt>
<trkpt lat="52.7003288269043" lon="13.018946647644043">
<ele>93.5999984741211</ele>
<time>2014-02-16T13:29:11Z</time>
</trkpt>
<trkpt lat="52.700340270996094" lon="13.019034385681152">
<ele>93.5999984741211</ele>
<time>2014-02-16T13:29:12Z</time>
</trkpt>
<trkpt lat="52.70033645629883" lon="13.01912784576416">
<ele>92.80000305175781</ele>
<time>2014-02-16T13:29:13Z</time>
</trkpt>
<trkpt lat="52.700340270996094" lon="13.01921272277832">
<ele>92.30000305175781</ele>
<time>2014-02-16T13:29:14Z</time>
</trkpt>
<trkpt lat="52.70033264160156" lon="13.019304275512695">
<ele>93.30000305175781</ele>
<time>2014-02-16T13:29:15Z</time>
</trkpt>
<trkpt lat="52.70033264160156" lon="13.019399642944336">
<ele>93.5</ele>
<time>2014-02-16T13:29:16Z</time>
</trkpt>
<trkpt lat="52.700340270996094" lon="13.019491195678711">
<ele>93.5999984741211</ele>
<time>2014-02-16T13:29:17Z</time>
</trkpt>
<trkpt lat="52.700347900390625" lon="13.019582748413086">
<ele>93.5</ele>
<time>2014-02-16T13:29:18Z</time>
</trkpt>
<trkpt lat="52.70035171508789" lon="13.019667625427246">
<ele>93.5999984741211</ele>
<time>2014-02-16T13:29:19Z</time>
</trkpt>
<trkpt lat="52.70037078857422" lon="13.019745826721191">
<ele>93.30000305175781</ele>
<time>2014-02-16T13:29:20Z</time>
</trkpt>
<trkpt lat="52.700374603271484" lon="13.01982593536377">
<ele>93.4000015258789</ele>
<time>2014-02-16T13:29:21Z</time>
</trkpt>
<trkpt lat="52.700382232666016" lon="13.019917488098145">
<ele>93.19999694824219</ele>
<time>2014-02-16T13:29:22Z</time>
</trkpt>
<trkpt lat="52.70040512084961" lon="13.020059585571289">
<ele>92.80000305175781</ele>
<time>2014-02-16T13:29:24Z</time>
</trkpt>
<trkpt lat="52.700408935546875" lon="13.020174026489258">
<ele>94.69999694824219</ele>
<time>2014-02-16T13:29:25Z</time>
</trkpt>
<trkpt lat="52.700416564941406" lon="13.020262718200684">
<ele>95.0999984741211</ele>
<time>2014-02-16T13:29:26Z</time>
</trkpt>
<trkpt lat="52.700416564941406" lon="13.020414352416992">
<ele>95.19999694824219</ele>
<time>2014-02-16T13:29:28Z</time>
</trkpt>
<trkpt lat="52.70042419433594" lon="13.020503044128418">
<ele>94.0</ele>
<time>2014-02-16T13:29:29Z</time>
</trkpt>
<trkpt lat="52.70042037963867" lon="13.020590782165527">
<ele>93.80000305175781</ele>
<time>2014-02-16T13:29:30Z</time>
</trkpt>
<trkpt lat="52.70042419433594" lon="13.02066707611084">
<ele>93.9000015258789</ele>
<time>2014-02-16T13:29:31Z</time>
</trkpt>
<trkpt lat="52.700435638427734" lon="13.020791053771973">
<ele>94.80000305175781</ele>
<time>2014-02-16T13:29:33Z</time>
</trkpt>
<trkpt lat="52.700443267822266" lon="13.020938873291016">
<ele>95.0</ele>
<time>2014-02-16T13:29:35Z</time>
</trkpt>
<trkpt lat="52.700435638427734" lon="13.021073341369629">
<ele>95.5</ele>
<time>2014-02-16T13:29:37Z</time>
</trkpt>
<trkpt lat="52.700439453125" lon="13.02120304107666">
<ele>94.9000015258789</ele>
<time>2014-02-16T13:29:39Z</time>
</trkpt>
<trkpt lat="52.700469970703125" lon="13.021332740783691">
<ele>98.30000305175781</ele>
<time>2014-02-16T13:29:41Z</time>
</trkpt>
<trkpt lat="52.70048522949219" lon="13.021465301513672">
<ele>99.0</ele>
<time>2014-02-16T13:29:43Z</time>
</trkpt>
<trkpt lat="52.70047378540039" lon="13.021599769592285">
<ele>98.4000015258789</ele>
<time>2014-02-16T13:29:45Z</time>
</trkpt>
<trkpt lat="52.70048141479492" lon="13.021685600280762">
<ele>97.69999694824219</ele>
<time>2014-02-16T13:29:46Z</time>
</trkpt>
<trkpt lat="52.70049285888672" lon="13.021782875061035">
<ele>97.19999694824219</ele>
<time>2014-02-16T13:29:47Z</time>
</trkpt>
<trkpt lat="52.70050048828125" lon="13.0219144821167">
<ele>96.5999984741211</ele>
<time>2014-02-16T13:29:49Z</time>
</trkpt>
<trkpt lat="52.70051193237305" lon="13.022025108337402">
<ele>97.0999984741211</ele>
<time>2014-02-16T13:29:51Z</time>
</trkpt>
<trkpt lat="52.70052719116211" lon="13.022107124328613">
<ele>97.5999984741211</ele>
<time>2014-02-16T13:29:52Z</time>
</trkpt>
<trkpt lat="52.70052719116211" lon="13.02225112915039">
<ele>101.5999984741211</ele>
<time>2014-02-16T13:29:54Z</time>
</trkpt>
<trkpt lat="52.700531005859375" lon="13.022401809692383">
<ele>102.0</ele>
<time>2014-02-16T13:29:56Z</time>
</trkpt>
<trkpt lat="52.70052719116211" lon="13.02248477935791">
<ele>101.9000015258789</ele>
<time>2014-02-16T13:29:57Z</time>
</trkpt>
<trkpt lat="52.70053482055664" lon="13.022563934326172">
<ele>101.69999694824219</ele>
<time>2014-02-16T13:29:58Z</time>
</trkpt>
<trkpt lat="52.70053482055664" lon="13.022639274597168">
<ele>101.69999694824219</ele>
<time>2014-02-16T13:29:59Z</time>
</trkpt>
<trkpt lat="52.7005500793457" lon="13.022785186767578">
<ele>102.80000305175781</ele>
<time>2014-02-16T13:30:01Z</time>
</trkpt>
<trkpt lat="52.70055389404297" lon="13.02290153503418">
<ele>104.0999984741211</ele>
<time>2014-02-16T13:30:03Z</time>
</trkpt>
<trkpt lat="52.70055389404297" lon="13.022977828979492">
<ele>104.0999984741211</ele>
<time>2014-02-16T13:30:04Z</time>
</trkpt>
<trkpt lat="52.70055389404297" lon="13.023066520690918">
<ele>104.19999694824219</ele>
<time>2014-02-16T13:30:05Z</time>
</trkpt>
<trkpt lat="52.7005729675293" lon="13.023134231567383">
<ele>104.5999984741211</ele>
<time>2014-02-16T13:30:06Z</time>
</trkpt>
<trkpt lat="52.70058822631836" lon="13.023213386535645">
<ele>104.19999694824219</ele>
<time>2014-02-16T13:30:07Z</time>
</trkpt>
<trkpt lat="52.70058059692383" lon="13.023350715637207">
<ele>103.80000305175781</ele>
<time>2014-02-16T13:30:09Z</time>
</trkpt>
<trkpt lat="52.700592041015625" lon="13.023481369018555">
<ele>104.0999984741211</ele>
<time>2014-02-16T13:30:11Z</time>
</trkpt>
<trkpt lat="52.70061492919922" lon="13.023609161376953">
<ele>103.0999984741211</ele>
<time>2014-02-16T13:30:13Z</time>
</trkpt>
<trkpt lat="52.70063781738281" lon="13.023765563964844">
<ele>102.30000305175781</ele>
<time>2014-02-16T13:30:15Z</time>
</trkpt>
<trkpt lat="52.700660705566406" lon="13.023834228515625">
<ele>102.69999694824219</ele>
<time>2014-02-16T13:30:16Z</time>
</trkpt>
<trkpt lat="52.7006721496582" lon="13.023909568786621">
<ele>103.0</ele>
<time>2014-02-16T13:30:17Z</time>
</trkpt>
<trkpt lat="52.700714111328125" lon="13.02401351928711">
<ele>104.0</ele>
<time>2014-02-16T13:30:19Z</time>
</trkpt>
<trkpt lat="52.70073318481445" lon="13.024114608764648">
<ele>104.5</ele>
<time>2014-02-16T13:30:20Z</time>
</trkpt>
<trkpt lat="52.70075225830078" lon="13.024200439453125">
<ele>104.30000305175781</ele>
<time>2014-02-16T13:30:21Z</time>
</trkpt>
<trkpt lat="52.70077133178711" lon="13.024280548095703">
<ele>104.0999984741211</ele>
<time>2014-02-16T13:30:22Z</time>
</trkpt>
<trkpt lat="52.70078659057617" lon="13.024360656738281">
<ele>104.4000015258789</ele>
<time>2014-02-16T13:30:23Z</time>
</trkpt>
<trkpt lat="52.700801849365234" lon="13.024446487426758">
<ele>103.80000305175781</ele>
<time>2014-02-16T13:30:24Z</time>
</trkpt>
<trkpt lat="52.70081329345703" lon="13.024534225463867">
<ele>103.5</ele>
<time>2014-02-16T13:30:25Z</time>
</trkpt>
<trkpt lat="52.70082473754883" lon="13.024609565734863">
<ele>103.9000015258789</ele>
<time>2014-02-16T13:30:26Z</time>
</trkpt>
<trkpt lat="52.70081329345703" lon="13.024731636047363">
<ele>103.80000305175781</ele>
<time>2014-02-16T13:30:28Z</time>
</trkpt>
<trkpt lat="52.700775146484375" lon="13.024847030639648">
<ele>103.5</ele>
<time>2014-02-16T13:30:30Z</time>
</trkpt>
<trkpt lat="52.70073318481445" lon="13.024893760681152">
<ele>104.4000015258789</ele>
<time>2014-02-16T13:30:31Z</time>
</trkpt>
<trkpt lat="52.70069885253906" lon="13.024972915649414">
<ele>102.5999984741211</ele>
<time>2014-02-16T13:30:33Z</time>
</trkpt>
<trkpt lat="52.70065689086914" lon="13.02505874633789">
<ele>102.5999984741211</ele>
<time>2014-02-16T13:30:35Z</time>
</trkpt>
<trkpt lat="52.700626373291016" lon="13.025155067443848">
<ele>100.69999694824219</ele>
<time>2014-02-16T13:30:37Z</time>
</trkpt>
<trkpt lat="52.70057678222656" lon="13.02528190612793">
<ele>100.5999984741211</ele>
<time>2014-02-16T13:30:39Z</time>
</trkpt>
<trkpt lat="52.70051956176758" lon="13.025355339050293">
<ele>100.69999694824219</ele>
<time>2014-02-16T13:30:40Z</time>
</trkpt>
<trkpt lat="52.70047378540039" lon="13.025432586669922">
<ele>101.4000015258789</ele>
<time>2014-02-16T13:30:42Z</time>
</trkpt>
<trkpt lat="52.70043182373047" lon="13.025513648986816">
<ele>100.5999984741211</ele>
<time>2014-02-16T13:30:44Z</time>
</trkpt>
<trkpt lat="52.70038604736328" lon="13.025602340698242">
<ele>100.19999694824219</ele>
<time>2014-02-16T13:30:46Z</time>
</trkpt>
<trkpt lat="52.700347900390625" lon="13.02567195892334">
<ele>100.80000305175781</ele>
<time>2014-02-16T13:30:48Z</time>
</trkpt>
<trkpt lat="52.700313568115234" lon="13.025772094726562">
<ele>100.5999984741211</ele>
<time>2014-02-16T13:30:50Z</time>
</trkpt>
<trkpt lat="52.70025634765625" lon="13.025842666625977">
<ele>100.4000015258789</ele>
<time>2014-02-16T13:30:52Z</time>
</trkpt>
<trkpt lat="52.70021057128906" lon="13.025906562805176">
<ele>101.19999694824219</ele>
<time>2014-02-16T13:30:54Z</time>
</trkpt>
<trkpt lat="52.70020294189453" lon="13.02598762512207">
<ele>100.30000305175781</ele>
<time>2014-02-16T13:30:57Z</time>
</trkpt>
<trkpt lat="52.70014953613281" lon="13.026097297668457">
<ele>100.0</ele>
<time>2014-02-16T13:30:58Z</time>
</trkpt>
<trkpt lat="52.700077056884766" lon="13.026257514953613">
<ele>99.30000305175781</ele>
<time>2014-02-16T13:31:02Z</time>
</trkpt>
<trkpt lat="52.69998550415039" lon="13.026379585266113">
<ele>97.0</ele>
<time>2014-02-16T13:31:03Z</time>
</trkpt>
<trkpt lat="52.69995880126953" lon="13.026467323303223">
<ele>97.5</ele>
<time>2014-02-16T13:31:05Z</time>
</trkpt>
<trkpt lat="52.69989776611328" lon="13.02659797668457">
<ele>97.19999694824219</ele>
<time>2014-02-16T13:31:07Z</time>
</trkpt>
<trkpt lat="52.699867248535156" lon="13.026664733886719">
<ele>97.30000305175781</ele>
<time>2014-02-16T13:31:08Z</time>
</trkpt>
<trkpt lat="52.6998405456543" lon="13.026728630065918">
<ele>97.0999984741211</ele>
<time>2014-02-16T13:31:09Z</time>
</trkpt>
<trkpt lat="52.69981384277344" lon="13.026808738708496">
<ele>97.0999984741211</ele>
<time>2014-02-16T13:31:10Z</time>
</trkpt>
<trkpt lat="52.69975280761719" lon="13.026920318603516">
<ele>97.0</ele>
<time>2014-02-16T13:31:12Z</time>
</trkpt>
<trkpt lat="52.6997184753418" lon="13.0269775390625">
<ele>97.19999694824219</ele>
<time>2014-02-16T13:31:13Z</time>
</trkpt>
<trkpt lat="52.699684143066406" lon="13.02704906463623">
<ele>97.5999984741211</ele>
<time>2014-02-16T13:31:14Z</time>
</trkpt>
<trkpt lat="52.699649810791016" lon="13.027132034301758">
<ele>97.9000015258789</ele>
<time>2014-02-16T13:31:15Z</time>
</trkpt>
<trkpt lat="52.6995964050293" lon="13.027206420898438">
<ele>96.30000305175781</ele>
<time>2014-02-16T13:31:16Z</time>
</trkpt>
<trkpt lat="52.69956970214844" lon="13.027268409729004">
<ele>96.30000305175781</ele>
<time>2014-02-16T13:31:17Z</time>
</trkpt>
<trkpt lat="52.69955062866211" lon="13.027345657348633">
<ele>96.30000305175781</ele>
<time>2014-02-16T13:31:18Z</time>
</trkpt>
<trkpt lat="52.699520111083984" lon="13.027409553527832">
<ele>96.5999984741211</ele>
<time>2014-02-16T13:31:19Z</time>
</trkpt>
<trkpt lat="52.6994743347168" lon="13.02748966217041">
<ele>96.0999984741211</ele>
<time>2014-02-16T13:31:20Z</time>
</trkpt>
<trkpt lat="52.699440002441406" lon="13.027572631835938">
<ele>96.0</ele>
<time>2014-02-16T13:31:21Z</time>
</trkpt>
<trkpt lat="52.699405670166016" lon="13.02763843536377">
<ele>96.5</ele>
<time>2014-02-16T13:31:22Z</time>
</trkpt>
<trkpt lat="52.69935989379883" lon="13.02769660949707">
<ele>96.69999694824219</ele>
<time>2014-02-16T13:31:23Z</time>
</trkpt>
<trkpt lat="52.69931411743164" lon="13.027761459350586">
<ele>96.5</ele>
<time>2014-02-16T13:31:24Z</time>
</trkpt>
<trkpt lat="52.69927215576172" lon="13.027830123901367">
<ele>96.4000015258789</ele>
<time>2014-02-16T13:31:25Z</time>
</trkpt>
<trkpt lat="52.69922637939453" lon="13.027907371520996">
<ele>96.0999984741211</ele>
<time>2014-02-16T13:31:26Z</time>
</trkpt>
<trkpt lat="52.69919204711914" lon="13.027962684631348">
<ele>96.19999694824219</ele>
<time>2014-02-16T13:31:27Z</time>
</trkpt>
<trkpt lat="52.69915008544922" lon="13.028020858764648">
<ele>96.0999984741211</ele>
<time>2014-02-16T13:31:28Z</time>
</trkpt>
<trkpt lat="52.6991081237793" lon="13.028082847595215">
<ele>96.4000015258789</ele>
<time>2014-02-16T13:31:29Z</time>
</trkpt>
<trkpt lat="52.699066162109375" lon="13.028136253356934">
<ele>96.80000305175781</ele>
<time>2014-02-16T13:31:30Z</time>
</trkpt>
<trkpt lat="52.699031829833984" lon="13.028223991394043">
<ele>97.0999984741211</ele>
<time>2014-02-16T13:31:31Z</time>
</trkpt>
<trkpt lat="52.698997497558594" lon="13.028276443481445">
<ele>97.19999694824219</ele>
<time>2014-02-16T13:31:32Z</time>
</trkpt>
<trkpt lat="52.69895553588867" lon="13.028338432312012">
<ele>97.30000305175781</ele>
<time>2014-02-16T13:31:33Z</time>
</trkpt>
<trkpt lat="52.69890594482422" lon="13.028425216674805">
<ele>97.5999984741211</ele>
<time>2014-02-16T13:31:34Z</time>
</trkpt>
<trkpt lat="52.69886779785156" lon="13.028511047363281">
<ele>97.9000015258789</ele>
<time>2014-02-16T13:31:35Z</time>
</trkpt>
<trkpt lat="52.69882583618164" lon="13.028579711914062">
<ele>98.0</ele>
<time>2014-02-16T13:31:36Z</time>
</trkpt>
<trkpt lat="52.69876480102539" lon="13.028691291809082">
<ele>98.0999984741211</ele>
<time>2014-02-16T13:31:38Z</time>
</trkpt>
<trkpt lat="52.698707580566406" lon="13.028769493103027">
<ele>98.30000305175781</ele>
<time>2014-02-16T13:31:39Z</time>
</trkpt>
<trkpt lat="52.69865036010742" lon="13.028858184814453">
<ele>98.5</ele>
<time>2014-02-16T13:31:40Z</time>
</trkpt>
<trkpt lat="52.69819259643555" lon="13.02990436553955">
<ele>100.0</ele>
<time>2014-02-16T13:31:56Z</time>
</trkpt>
<trkpt lat="52.69814682006836" lon="13.029977798461914">
<ele>100.9000015258789</ele>
<time>2014-02-16T13:31:57Z</time>
</trkpt>
<trkpt lat="52.698116302490234" lon="13.030051231384277">
<ele>101.0</ele>
<time>2014-02-16T13:31:58Z</time>
</trkpt>
<trkpt lat="52.69806671142578" lon="13.030171394348145">
<ele>101.0999984741211</ele>
<time>2014-02-16T13:32:00Z</time>
</trkpt>
<trkpt lat="52.69804382324219" lon="13.030234336853027">
<ele>100.69999694824219</ele>
<time>2014-02-16T13:32:01Z</time>
</trkpt>
<trkpt lat="52.69801330566406" lon="13.030299186706543">
<ele>101.0</ele>
<time>2014-02-16T13:32:02Z</time>
</trkpt>
<trkpt lat="52.69797897338867" lon="13.030360221862793">
<ele>100.80000305175781</ele>
<time>2014-02-16T13:32:03Z</time>
</trkpt>
<trkpt lat="52.69792175292969" lon="13.030447959899902">
<ele>100.80000305175781</ele>
<time>2014-02-16T13:32:05Z</time>
</trkpt>
<trkpt lat="52.69790267944336" lon="13.030518531799316">
<ele>101.0</ele>
<time>2014-02-16T13:32:06Z</time>
</trkpt>
<trkpt lat="52.697872161865234" lon="13.0305757522583">
<ele>101.5</ele>
<time>2014-02-16T13:32:07Z</time>
</trkpt>
<trkpt lat="52.697845458984375" lon="13.030661582946777">
<ele>100.69999694824219</ele>
<time>2014-02-16T13:32:08Z</time>
</trkpt>
<trkpt lat="52.69780731201172" lon="13.03072738647461">
<ele>100.19999694824219</ele>
<time>2014-02-16T13:32:09Z</time>
</trkpt>
<trkpt lat="52.69778060913086" lon="13.030787467956543">
<ele>100.30000305175781</ele>
<time>2014-02-16T13:32:10Z</time>
</trkpt>
<trkpt lat="52.6977424621582" lon="13.03089427947998">
<ele>101.69999694824219</ele>
<time>2014-02-16T13:32:12Z</time>
</trkpt>
<trkpt lat="52.69767761230469" lon="13.031027793884277">
<ele>101.19999694824219</ele>
<time>2014-02-16T13:32:14Z</time>
</trkpt>
<trkpt lat="52.69764709472656" lon="13.031094551086426">
<ele>101.4000015258789</ele>
<time>2014-02-16T13:32:15Z</time>
</trkpt>
<trkpt lat="52.69756317138672" lon="13.03122329711914">
<ele>99.80000305175781</ele>
<time>2014-02-16T13:32:17Z</time>
</trkpt>
<trkpt lat="52.69752883911133" lon="13.031277656555176">
<ele>100.4000015258789</ele>
<time>2014-02-16T13:32:18Z</time>
</trkpt>
<trkpt lat="52.697471618652344" lon="13.031414031982422">
<ele>100.19999694824219</ele>
<time>2014-02-16T13:32:20Z</time>
</trkpt>
<trkpt lat="52.697444915771484" lon="13.031503677368164">
<ele>101.4000015258789</ele>
<time>2014-02-16T13:32:22Z</time>
</trkpt>
<trkpt lat="52.697418212890625" lon="13.031599998474121">
<ele>101.0999984741211</ele>
<time>2014-02-16T13:32:24Z</time>
</trkpt>
<trkpt lat="52.697391510009766" lon="13.031662940979004">
<ele>101.30000305175781</ele>
<time>2014-02-16T13:32:26Z</time>
</trkpt>
<trkpt lat="52.69733810424805" lon="13.031753540039062">
<ele>101.4000015258789</ele>
<time>2014-02-16T13:32:27Z</time>
</trkpt>
<trkpt lat="52.697296142578125" lon="13.031862258911133">
<ele>101.5999984741211</ele>
<time>2014-02-16T13:32:29Z</time>
</trkpt>
<trkpt lat="52.697242736816406" lon="13.031976699829102">
<ele>101.0999984741211</ele>
<time>2014-02-16T13:32:31Z</time>
</trkpt>
<trkpt lat="52.69721221923828" lon="13.032088279724121">
<ele>102.9000015258789</ele>
<time>2014-02-16T13:32:33Z</time>
</trkpt>
<trkpt lat="52.697166442871094" lon="13.032188415527344">
<ele>102.9000015258789</ele>
<time>2014-02-16T13:32:35Z</time>
</trkpt>
<trkpt lat="52.69710922241211" lon="13.03229808807373">
<ele>103.0</ele>
<time>2014-02-16T13:32:37Z</time>
</trkpt>
<trkpt lat="52.69708251953125" lon="13.032358169555664">
<ele>103.0</ele>
<time>2014-02-16T13:32:38Z</time>
</trkpt>
<trkpt lat="52.697021484375" lon="13.032469749450684">
<ele>102.5999984741211</ele>
<time>2014-02-16T13:32:40Z</time>
</trkpt>
<trkpt lat="52.69697570800781" lon="13.03256607055664">
<ele>102.5999984741211</ele>
<time>2014-02-16T13:32:42Z</time>
</trkpt>
<trkpt lat="52.696929931640625" lon="13.032644271850586">
<ele>102.0</ele>
<time>2014-02-16T13:32:44Z</time>
</trkpt>
<trkpt lat="52.696895599365234" lon="13.032750129699707">
<ele>100.80000305175781</ele>
<time>2014-02-16T13:32:46Z</time>
</trkpt>
<trkpt lat="52.69687271118164" lon="13.032837867736816">
<ele>100.30000305175781</ele>
<time>2014-02-16T13:32:48Z</time>
</trkpt>
<trkpt lat="52.69680404663086" lon="13.032919883728027">
<ele>100.0</ele>
<time>2014-02-16T13:32:50Z</time>
</trkpt>
<trkpt lat="52.69679260253906" lon="13.03299617767334">
<ele>107.30000305175781</ele>
<time>2014-02-16T13:32:54Z</time>
</trkpt>
<trkpt lat="52.69676208496094" lon="13.033053398132324">
<ele>105.80000305175781</ele>
<time>2014-02-16T13:32:56Z</time>
</trkpt>
<trkpt lat="52.69672775268555" lon="13.033181190490723">
<ele>106.19999694824219</ele>
<time>2014-02-16T13:32:57Z</time>
</trkpt>
<trkpt lat="52.69678497314453" lon="13.033249855041504">
<ele>102.5999984741211</ele>
<time>2014-02-16T13:32:58Z</time>
</trkpt>
<trkpt lat="52.696834564208984" lon="13.033378601074219">
<ele>102.30000305175781</ele>
<time>2014-02-16T13:33:00Z</time>
</trkpt>
<trkpt lat="52.696868896484375" lon="13.03344440460205">
<ele>101.5</ele>
<time>2014-02-16T13:33:01Z</time>
</trkpt>
<trkpt lat="52.696895599365234" lon="13.033514022827148">
<ele>102.5</ele>
<time>2014-02-16T13:33:02Z</time>
</trkpt>
<trkpt lat="52.69692611694336" lon="13.033575057983398">
<ele>101.9000015258789</ele>
<time>2014-02-16T13:33:03Z</time>
</trkpt>
<trkpt lat="52.69694900512695" lon="13.033649444580078">
<ele>101.4000015258789</ele>
<time>2014-02-16T13:33:04Z</time>
</trkpt>
<trkpt lat="52.696983337402344" lon="13.033720016479492">
<ele>101.5999984741211</ele>
<time>2014-02-16T13:33:05Z</time>
</trkpt>
<trkpt lat="52.6970100402832" lon="13.033788681030273">
<ele>101.0999984741211</ele>
<time>2014-02-16T13:33:06Z</time>
</trkpt>
<trkpt lat="52.69703674316406" lon="13.033853530883789">
<ele>100.9000015258789</ele>
<time>2014-02-16T13:33:07Z</time>
</trkpt>
<trkpt lat="52.69706726074219" lon="13.03392505645752">
<ele>101.0</ele>
<time>2014-02-16T13:33:08Z</time>
</trkpt>
<trkpt lat="52.69709777832031" lon="13.033987045288086">
<ele>100.9000015258789</ele>
<time>2014-02-16T13:33:09Z</time>
</trkpt>
<trkpt lat="52.69715118408203" lon="13.034111976623535">
<ele>100.69999694824219</ele>
<time>2014-02-16T13:33:11Z</time>
</trkpt>
<trkpt lat="52.697181701660156" lon="13.03418254852295">
<ele>100.4000015258789</ele>
<time>2014-02-16T13:33:12Z</time>
</trkpt>
<trkpt lat="52.69721221923828" lon="13.034255981445312">
<ele>100.69999694824219</ele>
<time>2014-02-16T13:33:13Z</time>
</trkpt>
<trkpt lat="52.697235107421875" lon="13.034326553344727">
<ele>101.0999984741211</ele>
<time>2014-02-16T13:33:14Z</time>
</trkpt>
<trkpt lat="52.697269439697266" lon="13.034390449523926">
<ele>101.9000015258789</ele>
<time>2014-02-16T13:33:15Z</time>
</trkpt>
<trkpt lat="52.697296142578125" lon="13.034468650817871">
<ele>102.4000015258789</ele>
<time>2014-02-16T13:33:16Z</time>
</trkpt>
<trkpt lat="52.697322845458984" lon="13.03453254699707">
<ele>102.4000015258789</ele>
<time>2014-02-16T13:33:17Z</time>
</trkpt>
<trkpt lat="52.697357177734375" lon="13.0346040725708">
<ele>101.9000015258789</ele>
<time>2014-02-16T13:33:18Z</time>
</trkpt>
<trkpt lat="52.697391510009766" lon="13.034690856933594">
<ele>101.80000305175781</ele>
<time>2014-02-16T13:33:19Z</time>
</trkpt>
<trkpt lat="52.697418212890625" lon="13.034757614135742">
<ele>101.9000015258789</ele>
<time>2014-02-16T13:33:20Z</time>
</trkpt>
<trkpt lat="52.697452545166016" lon="13.034832000732422">
<ele>103.0</ele>
<time>2014-02-16T13:33:21Z</time>
</trkpt>
<trkpt lat="52.69748306274414" lon="13.034897804260254">
<ele>102.9000015258789</ele>
<time>2014-02-16T13:33:22Z</time>
</trkpt>
<trkpt lat="52.6975212097168" lon="13.034952163696289">
<ele>102.9000015258789</ele>
<time>2014-02-16T13:33:23Z</time>
</trkpt>
<trkpt lat="52.69756317138672" lon="13.035018920898438">
<ele>102.9000015258789</ele>
<time>2014-02-16T13:33:24Z</time>
</trkpt>
<trkpt lat="52.69758987426758" lon="13.03509521484375">
<ele>102.5999984741211</ele>
<time>2014-02-16T13:33:25Z</time>
</trkpt>
<trkpt lat="52.69762420654297" lon="13.035167694091797">
<ele>102.5</ele>
<time>2014-02-16T13:33:26Z</time>
</trkpt>
<trkpt lat="52.69768524169922" lon="13.035311698913574">
<ele>103.0</ele>
<time>2014-02-16T13:33:28Z</time>
</trkpt>
<trkpt lat="52.69771957397461" lon="13.035391807556152">
<ele>102.4000015258789</ele>
<time>2014-02-16T13:33:29Z</time>
</trkpt>
<trkpt lat="52.6977424621582" lon="13.035460472106934">
<ele>102.69999694824219</ele>
<time>2014-02-16T13:33:30Z</time>
</trkpt>
<trkpt lat="52.69780349731445" lon="13.035592079162598">
<ele>102.5999984741211</ele>
<time>2014-02-16T13:33:32Z</time>
</trkpt>
<trkpt lat="52.69783020019531" lon="13.035661697387695">
<ele>102.5999984741211</ele>
<time>2014-02-16T13:33:33Z</time>
</trkpt>
<trkpt lat="52.69786071777344" lon="13.035737037658691">
<ele>103.0</ele>
<time>2014-02-16T13:33:34Z</time>
</trkpt>
<trkpt lat="52.69789505004883" lon="13.035806655883789">
<ele>103.5999984741211</ele>
<time>2014-02-16T13:33:35Z</time>
</trkpt>
<trkpt lat="52.69792175292969" lon="13.035874366760254">
<ele>103.9000015258789</ele>
<time>2014-02-16T13:33:36Z</time>
</trkpt>
<trkpt lat="52.69795227050781" lon="13.035940170288086">
<ele>103.80000305175781</ele>
<time>2014-02-16T13:33:37Z</time>
</trkpt>
<trkpt lat="52.6979866027832" lon="13.03600788116455">
<ele>104.19999694824219</ele>
<time>2014-02-16T13:33:38Z</time>
</trkpt>
<trkpt lat="52.698020935058594" lon="13.036089897155762">
<ele>104.4000015258789</ele>
<time>2014-02-16T13:33:39Z</time>
</trkpt>
<trkpt lat="52.698055267333984" lon="13.036154747009277">
<ele>104.5999984741211</ele>
<time>2014-02-16T13:33:40Z</time>
</trkpt>
<trkpt lat="52.69808578491211" lon="13.036236763000488">
<ele>104.30000305175781</ele>
<time>2014-02-16T13:33:41Z</time>
</trkpt>
<trkpt lat="52.698116302490234" lon="13.036317825317383">
<ele>104.0999984741211</ele>
<time>2014-02-16T13:33:42Z</time>
</trkpt>
<trkpt lat="52.69814682006836" lon="13.036376953125">
<ele>104.5</ele>
<time>2014-02-16T13:33:43Z</time>
</trkpt>
<trkpt lat="52.69818115234375" lon="13.03643798828125">
<ele>104.4000015258789</ele>
<time>2014-02-16T13:33:44Z</time>
</trkpt>
<trkpt lat="52.69820785522461" lon="13.036514282226562">
<ele>103.69999694824219</ele>
<time>2014-02-16T13:33:45Z</time>
</trkpt>
<trkpt lat="52.6982307434082" lon="13.036581039428711">
<ele>103.80000305175781</ele>
<time>2014-02-16T13:33:46Z</time>
</trkpt>
<trkpt lat="52.698265075683594" lon="13.03665828704834">
<ele>103.5999984741211</ele>
<time>2014-02-16T13:33:47Z</time>
</trkpt>
<trkpt lat="52.698280334472656" lon="13.036728858947754">
<ele>104.0</ele>
<time>2014-02-16T13:33:48Z</time>
</trkpt>
<trkpt lat="52.698299407958984" lon="13.036813735961914">
<ele>103.0999984741211</ele>
<time>2014-02-16T13:33:49Z</time>
</trkpt>
<trkpt lat="52.698326110839844" lon="13.036885261535645">
<ele>102.69999694824219</ele>
<time>2014-02-16T13:33:50Z</time>
</trkpt>
<trkpt lat="52.69834899902344" lon="13.036958694458008">
<ele>102.9000015258789</ele>
<time>2014-02-16T13:33:51Z</time>
</trkpt>
<trkpt lat="52.6983757019043" lon="13.037022590637207">
<ele>101.5</ele>
<time>2014-02-16T13:33:52Z</time>
</trkpt>
<trkpt lat="52.69840621948242" lon="13.037084579467773">
<ele>100.80000305175781</ele>
<time>2014-02-16T13:33:53Z</time>
</trkpt>
<trkpt lat="52.698429107666016" lon="13.037150382995605">
<ele>100.4000015258789</ele>
<time>2014-02-16T13:33:54Z</time>
</trkpt>
<trkpt lat="52.698455810546875" lon="13.03722858428955">
<ele>100.30000305175781</ele>
<time>2014-02-16T13:33:55Z</time>
</trkpt>
<trkpt lat="52.698482513427734" lon="13.037313461303711">
<ele>100.80000305175781</ele>
<time>2014-02-16T13:33:56Z</time>
</trkpt>
<trkpt lat="52.698509216308594" lon="13.037389755249023">
<ele>101.0</ele>
<time>2014-02-16T13:33:57Z</time>
</trkpt>
<trkpt lat="52.69852828979492" lon="13.03747272491455">
<ele>101.0999984741211</ele>
<time>2014-02-16T13:33:58Z</time>
</trkpt>
<trkpt lat="52.698551177978516" lon="13.03754711151123">
<ele>101.5</ele>
<time>2014-02-16T13:33:59Z</time>
</trkpt>
<trkpt lat="52.69857406616211" lon="13.03762435913086">
<ele>101.5</ele>
<time>2014-02-16T13:34:00Z</time>
</trkpt>
<trkpt lat="52.6986083984375" lon="13.037676811218262">
<ele>101.80000305175781</ele>
<time>2014-02-16T13:34:01Z</time>
</trkpt>
<trkpt lat="52.69862365722656" lon="13.037755966186523">
<ele>102.19999694824219</ele>
<time>2014-02-16T13:34:02Z</time>
</trkpt>
<trkpt lat="52.698646545410156" lon="13.037821769714355">
<ele>102.5999984741211</ele>
<time>2014-02-16T13:34:03Z</time>
</trkpt>
<trkpt lat="52.698673248291016" lon="13.037887573242188">
<ele>102.4000015258789</ele>
<time>2014-02-16T13:34:04Z</time>
</trkpt>
<trkpt lat="52.698699951171875" lon="13.038019180297852">
<ele>103.9000015258789</ele>
<time>2014-02-16T13:34:06Z</time>
</trkpt>
<trkpt lat="52.698707580566406" lon="13.038106918334961">
<ele>104.0</ele>
<time>2014-02-16T13:34:07Z</time>
</trkpt>
<trkpt lat="52.69873046875" lon="13.038201332092285">
<ele>104.9000015258789</ele>
<time>2014-02-16T13:34:08Z</time>
</trkpt>
<trkpt lat="52.69877243041992" lon="13.038283348083496">
<ele>105.9000015258789</ele>
<time>2014-02-16T13:34:09Z</time>
</trkpt>
<trkpt lat="52.69880294799805" lon="13.038358688354492">
<ele>106.19999694824219</ele>
<time>2014-02-16T13:34:10Z</time>
</trkpt>
<trkpt lat="52.69883346557617" lon="13.038435935974121">
<ele>106.5999984741211</ele>
<time>2014-02-16T13:34:11Z</time>
</trkpt>
<trkpt lat="52.69886016845703" lon="13.038514137268066">
<ele>106.0999984741211</ele>
<time>2014-02-16T13:34:12Z</time>
</trkpt>
<trkpt lat="52.698890686035156" lon="13.038589477539062">
<ele>106.4000015258789</ele>
<time>2014-02-16T13:34:13Z</time>
</trkpt>
<trkpt lat="52.698917388916016" lon="13.038670539855957">
<ele>106.5</ele>
<time>2014-02-16T13:34:14Z</time>
</trkpt>
<trkpt lat="52.698944091796875" lon="13.038736343383789">
<ele>106.69999694824219</ele>
<time>2014-02-16T13:34:15Z</time>
</trkpt>
<trkpt lat="52.69896697998047" lon="13.038811683654785">
<ele>106.5</ele>
<time>2014-02-16T13:34:16Z</time>
</trkpt>
<trkpt lat="52.69898986816406" lon="13.038887023925781">
<ele>106.9000015258789</ele>
<time>2014-02-16T13:34:17Z</time>
</trkpt>
<trkpt lat="52.69902038574219" lon="13.038949966430664">
<ele>106.9000015258789</ele>
<time>2014-02-16T13:34:18Z</time>
</trkpt>
<trkpt lat="52.69905471801758" lon="13.039022445678711">
<ele>106.5999984741211</ele>
<time>2014-02-16T13:34:19Z</time>
</trkpt>
<trkpt lat="52.6990852355957" lon="13.03911304473877">
<ele>106.5999984741211</ele>
<time>2014-02-16T13:34:20Z</time>
</trkpt>
<trkpt lat="52.6991081237793" lon="13.039206504821777">
<ele>106.5999984741211</ele>
<time>2014-02-16T13:34:21Z</time>
</trkpt>
<trkpt lat="52.69913101196289" lon="13.039301872253418">
<ele>106.69999694824219</ele>
<time>2014-02-16T13:34:22Z</time>
</trkpt>
<trkpt lat="52.699161529541016" lon="13.039387702941895">
<ele>106.5</ele>
<time>2014-02-16T13:34:23Z</time>
</trkpt>
<trkpt lat="52.69919967651367" lon="13.03945255279541">
<ele>106.80000305175781</ele>
<time>2014-02-16T13:34:24Z</time>
</trkpt>
<trkpt lat="52.69923400878906" lon="13.039534568786621">
<ele>106.5</ele>
<time>2014-02-16T13:34:25Z</time>
</trkpt>
<trkpt lat="52.69928741455078" lon="13.039670944213867">
<ele>106.0</ele>
<time>2014-02-16T13:34:27Z</time>
</trkpt>
<trkpt lat="52.699310302734375" lon="13.039758682250977">
<ele>106.0999984741211</ele>
<time>2014-02-16T13:34:28Z</time>
</trkpt>
<trkpt lat="52.6993293762207" lon="13.039840698242188">
<ele>106.30000305175781</ele>
<time>2014-02-16T13:34:29Z</time>
</trkpt>
<trkpt lat="52.69935607910156" lon="13.039939880371094">
<ele>106.5</ele>
<time>2014-02-16T13:34:30Z</time>
</trkpt>
<trkpt lat="52.699378967285156" lon="13.04003620147705">
<ele>106.69999694824219</ele>
<time>2014-02-16T13:34:31Z</time>
</trkpt>
<trkpt lat="52.69942092895508" lon="13.040091514587402">
<ele>106.9000015258789</ele>
<time>2014-02-16T13:34:32Z</time>
</trkpt>
<trkpt lat="52.69945526123047" lon="13.040178298950195">
<ele>107.4000015258789</ele>
<time>2014-02-16T13:34:33Z</time>
</trkpt>
<trkpt lat="52.69947052001953" lon="13.040278434753418">
<ele>106.5999984741211</ele>
<time>2014-02-16T13:34:34Z</time>
</trkpt>
<trkpt lat="52.699501037597656" lon="13.040367126464844">
<ele>106.5</ele>
<time>2014-02-16T13:34:35Z</time>
</trkpt>
<trkpt lat="52.69951629638672" lon="13.040460586547852">
<ele>106.19999694824219</ele>
<time>2014-02-16T13:34:36Z</time>
</trkpt>
<trkpt lat="52.69955062866211" lon="13.04053783416748">
<ele>106.0</ele>
<time>2014-02-16T13:34:37Z</time>
</trkpt>
<trkpt lat="52.6995849609375" lon="13.040616989135742">
<ele>105.5999984741211</ele>
<time>2014-02-16T13:34:38Z</time>
</trkpt>
<trkpt lat="52.699623107910156" lon="13.040689468383789">
<ele>105.5</ele>
<time>2014-02-16T13:34:39Z</time>
</trkpt>
<trkpt lat="52.69965362548828" lon="13.040769577026367">
<ele>105.30000305175781</ele>
<time>2014-02-16T13:34:40Z</time>
</trkpt>
<trkpt lat="52.699676513671875" lon="13.04086685180664">
<ele>104.80000305175781</ele>
<time>2014-02-16T13:34:41Z</time>
</trkpt>
<trkpt lat="52.69969940185547" lon="13.040946006774902">
<ele>105.0</ele>
<time>2014-02-16T13:34:42Z</time>
</trkpt>
<trkpt lat="52.69973373413086" lon="13.041044235229492">
<ele>104.9000015258789</ele>
<time>2014-02-16T13:34:43Z</time>
</trkpt>
<trkpt lat="52.69976043701172" lon="13.041128158569336">
<ele>105.19999694824219</ele>
<time>2014-02-16T13:34:44Z</time>
</trkpt>
<trkpt lat="52.699790954589844" lon="13.041213035583496">
<ele>105.5</ele>
<time>2014-02-16T13:34:45Z</time>
</trkpt>
<trkpt lat="52.69982147216797" lon="13.04129409790039">
<ele>104.9000015258789</ele>
<time>2014-02-16T13:34:46Z</time>
</trkpt>
<trkpt lat="52.69984436035156" lon="13.041387557983398">
<ele>105.0</ele>
<time>2014-02-16T13:34:47Z</time>
</trkpt>
<trkpt lat="52.69987869262695" lon="13.041483879089355">
<ele>106.0</ele>
<time>2014-02-16T13:34:48Z</time>
</trkpt>
<trkpt lat="52.69990539550781" lon="13.041563034057617">
<ele>105.69999694824219</ele>
<time>2014-02-16T13:34:49Z</time>
</trkpt>
<trkpt lat="52.69992446899414" lon="13.041644096374512">
<ele>105.19999694824219</ele>
<time>2014-02-16T13:34:50Z</time>
</trkpt>
<trkpt lat="52.699954986572266" lon="13.041728019714355">
<ele>104.9000015258789</ele>
<time>2014-02-16T13:34:51Z</time>
</trkpt>
<trkpt lat="52.69997787475586" lon="13.041802406311035">
<ele>104.80000305175781</ele>
<time>2014-02-16T13:34:52Z</time>
</trkpt>
<trkpt lat="52.69999694824219" lon="13.041915893554688">
<ele>104.0999984741211</ele>
<time>2014-02-16T13:34:53Z</time>
</trkpt>
<trkpt lat="52.70002365112305" lon="13.041997909545898">
<ele>103.9000015258789</ele>
<time>2014-02-16T13:34:54Z</time>
</trkpt>
<trkpt lat="52.70005416870117" lon="13.042092323303223">
<ele>104.19999694824219</ele>
<time>2014-02-16T13:34:55Z</time>
</trkpt>
<trkpt lat="52.700077056884766" lon="13.042170524597168">
<ele>104.80000305175781</ele>
<time>2014-02-16T13:34:56Z</time>
</trkpt>
<trkpt lat="52.70014190673828" lon="13.04234790802002">
<ele>105.4000015258789</ele>
<time>2014-02-16T13:34:59Z</time>
</trkpt>
<trkpt lat="52.70017623901367" lon="13.042434692382812">
<ele>105.0</ele>
<time>2014-02-16T13:35:00Z</time>
</trkpt>
<trkpt lat="52.70021057128906" lon="13.042524337768555">
<ele>105.30000305175781</ele>
<time>2014-02-16T13:35:01Z</time>
</trkpt>
<trkpt lat="52.700233459472656" lon="13.042610168457031">
<ele>104.69999694824219</ele>
<time>2014-02-16T13:35:02Z</time>
</trkpt>
<trkpt lat="52.700252532958984" lon="13.042713165283203">
<ele>104.30000305175781</ele>
<time>2014-02-16T13:35:03Z</time>
</trkpt>
<trkpt lat="52.70029067993164" lon="13.042811393737793">
<ele>104.5</ele>
<time>2014-02-16T13:35:04Z</time>
</trkpt>
<trkpt lat="52.7003173828125" lon="13.042877197265625">
<ele>104.80000305175781</ele>
<time>2014-02-16T13:35:05Z</time>
</trkpt>
<trkpt lat="52.70034408569336" lon="13.042945861816406">
<ele>104.80000305175781</ele>
<time>2014-02-16T13:35:06Z</time>
</trkpt>
<trkpt lat="52.700374603271484" lon="13.043020248413086">
<ele>104.69999694824219</ele>
<time>2014-02-16T13:35:07Z</time>
</trkpt>
<trkpt lat="52.700416564941406" lon="13.043095588684082">
<ele>105.19999694824219</ele>
<time>2014-02-16T13:35:08Z</time>
</trkpt>
<trkpt lat="52.70044708251953" lon="13.043173789978027">
<ele>104.4000015258789</ele>
<time>2014-02-16T13:35:09Z</time>
</trkpt>
<trkpt lat="52.70048141479492" lon="13.043248176574707">
<ele>103.9000015258789</ele>
<time>2014-02-16T13:35:10Z</time>
</trkpt>
<trkpt lat="52.700504302978516" lon="13.043351173400879">
<ele>103.9000015258789</ele>
<time>2014-02-16T13:35:11Z</time>
</trkpt>
<trkpt lat="52.70054244995117" lon="13.043424606323242">
<ele>103.9000015258789</ele>
<time>2014-02-16T13:35:12Z</time>
</trkpt>
<trkpt lat="52.70057678222656" lon="13.043479919433594">
<ele>104.0</ele>
<time>2014-02-16T13:35:14Z</time>
</trkpt>
<trkpt lat="52.700660705566406" lon="13.04357624053955">
<ele>104.69999694824219</ele>
<time>2014-02-16T13:35:15Z</time>
</trkpt>
<trkpt lat="52.700687408447266" lon="13.043654441833496">
<ele>104.5</ele>
<time>2014-02-16T13:35:16Z</time>
</trkpt>
<trkpt lat="52.70072937011719" lon="13.04372787475586">
<ele>104.5999984741211</ele>
<time>2014-02-16T13:35:17Z</time>
</trkpt>
<trkpt lat="52.700767517089844" lon="13.04381275177002">
<ele>104.5</ele>
<time>2014-02-16T13:35:18Z</time>
</trkpt>
<trkpt lat="52.70079803466797" lon="13.043907165527344">
<ele>104.80000305175781</ele>
<time>2014-02-16T13:35:19Z</time>
</trkpt>
<trkpt lat="52.700836181640625" lon="13.043968200683594">
<ele>104.9000015258789</ele>
<time>2014-02-16T13:35:20Z</time>
</trkpt>
<trkpt lat="52.70089340209961" lon="13.044047355651855">
<ele>105.4000015258789</ele>
<time>2014-02-16T13:35:21Z</time>
</trkpt>
<trkpt lat="52.700927734375" lon="13.04411792755127">
<ele>105.5999984741211</ele>
<time>2014-02-16T13:35:22Z</time>
</trkpt>
<trkpt lat="52.70097351074219" lon="13.044178009033203">
<ele>105.5</ele>
<time>2014-02-16T13:35:23Z</time>
</trkpt>
<trkpt lat="52.70101547241211" lon="13.044258117675781">
<ele>105.0999984741211</ele>
<time>2014-02-16T13:35:24Z</time>
</trkpt>
<trkpt lat="52.7010612487793" lon="13.044337272644043">
<ele>105.19999694824219</ele>
<time>2014-02-16T13:35:25Z</time>
</trkpt>
<trkpt lat="52.70111083984375" lon="13.044410705566406">
<ele>104.80000305175781</ele>
<time>2014-02-16T13:35:26Z</time>
</trkpt>
<trkpt lat="52.70115280151367" lon="13.044487953186035">
<ele>105.0999984741211</ele>
<time>2014-02-16T13:35:27Z</time>
</trkpt>
<trkpt lat="52.70119857788086" lon="13.044567108154297">
<ele>104.5999984741211</ele>
<time>2014-02-16T13:35:28Z</time>
</trkpt>
<trkpt lat="52.70124435424805" lon="13.044650077819824">
<ele>104.30000305175781</ele>
<time>2014-02-16T13:35:29Z</time>
</trkpt>
<trkpt lat="52.70127868652344" lon="13.04470443725586">
<ele>104.19999694824219</ele>
<time>2014-02-16T13:35:30Z</time>
</trkpt>
<trkpt lat="52.70133972167969" lon="13.044763565063477">
<ele>104.0999984741211</ele>
<time>2014-02-16T13:35:31Z</time>
</trkpt>
<trkpt lat="52.70139694213867" lon="13.044825553894043">
<ele>104.69999694824219</ele>
<time>2014-02-16T13:35:32Z</time>
</trkpt>
<trkpt lat="52.70145797729492" lon="13.044886589050293">
<ele>104.80000305175781</ele>
<time>2014-02-16T13:35:34Z</time>
</trkpt>
<trkpt lat="52.701515197753906" lon="13.044939041137695">
<ele>105.0</ele>
<time>2014-02-16T13:35:34Z</time>
</trkpt>
<trkpt lat="52.701560974121094" lon="13.044977188110352">
<ele>105.0999984741211</ele>
<time>2014-02-16T13:35:35Z</time>
</trkpt>
<trkpt lat="52.70161819458008" lon="13.04501724243164">
<ele>104.9000015258789</ele>
<time>2014-02-16T13:35:36Z</time>
</trkpt>
<trkpt lat="52.70167922973633" lon="13.045058250427246">
<ele>104.9000015258789</ele>
<time>2014-02-16T13:35:38Z</time>
</trkpt>
<trkpt lat="52.70179748535156" lon="13.045145034790039">
<ele>104.69999694824219</ele>
<time>2014-02-16T13:35:40Z</time>
</trkpt>
<trkpt lat="52.70192337036133" lon="13.045228004455566">
<ele>104.30000305175781</ele>
<time>2014-02-16T13:35:42Z</time>
</trkpt>
<trkpt lat="52.701988220214844" lon="13.045259475708008">
<ele>103.9000015258789</ele>
<time>2014-02-16T13:35:42Z</time>
</trkpt>
<trkpt lat="52.702049255371094" lon="13.04530143737793">
<ele>103.80000305175781</ele>
<time>2014-02-16T13:35:43Z</time>
</trkpt>
<trkpt lat="52.70209503173828" lon="13.045343399047852">
<ele>102.5999984741211</ele>
<time>2014-02-16T13:35:44Z</time>
</trkpt>
<trkpt lat="52.70219039916992" lon="13.045432090759277">
<ele>99.5999984741211</ele>
<time>2014-02-16T13:35:46Z</time>
</trkpt>
<trkpt lat="52.70224380493164" lon="13.045477867126465">
<ele>99.0999984741211</ele>
<time>2014-02-16T13:35:47Z</time>
</trkpt>
<trkpt lat="52.702301025390625" lon="13.045517921447754">
<ele>99.30000305175781</ele>
<time>2014-02-16T13:35:48Z</time>
</trkpt>
<trkpt lat="52.70235824584961" lon="13.045548439025879">
<ele>99.9000015258789</ele>
<time>2014-02-16T13:35:49Z</time>
</trkpt>
<trkpt lat="52.70241928100586" lon="13.045591354370117">
<ele>99.9000015258789</ele>
<time>2014-02-16T13:35:50Z</time>
</trkpt>
<trkpt lat="52.702476501464844" lon="13.04562759399414">
<ele>99.0</ele>
<time>2014-02-16T13:35:51Z</time>
</trkpt>
<trkpt lat="52.70252990722656" lon="13.04566478729248">
<ele>98.80000305175781</ele>
<time>2014-02-16T13:35:52Z</time>
</trkpt>
<trkpt lat="52.70258712768555" lon="13.045693397521973">
<ele>99.30000305175781</ele>
<time>2014-02-16T13:35:53Z</time>
</trkpt>
<trkpt lat="52.70265579223633" lon="13.045729637145996">
<ele>98.4000015258789</ele>
<time>2014-02-16T13:35:54Z</time>
</trkpt>
<trkpt lat="52.70272445678711" lon="13.045737266540527">
<ele>96.69999694824219</ele>
<time>2014-02-16T13:35:55Z</time>
</trkpt>
<trkpt lat="52.702789306640625" lon="13.045751571655273">
<ele>96.19999694824219</ele>
<time>2014-02-16T13:35:56Z</time>
</trkpt>
<trkpt lat="52.70283508300781" lon="13.04576301574707">
<ele>96.0999984741211</ele>
<time>2014-02-16T13:35:57Z</time>
</trkpt>
<trkpt lat="52.702884674072266" lon="13.045783042907715">
<ele>96.0</ele>
<time>2014-02-16T13:35:58Z</time>
</trkpt>
<trkpt lat="52.70294189453125" lon="13.045811653137207">
<ele>95.5999984741211</ele>
<time>2014-02-16T13:35:59Z</time>
</trkpt>
<trkpt lat="52.7030029296875" lon="13.045815467834473">
<ele>95.5999984741211</ele>
<time>2014-02-16T13:36:00Z</time>
</trkpt>
<trkpt lat="52.703060150146484" lon="13.045854568481445">
<ele>95.80000305175781</ele>
<time>2014-02-16T13:36:01Z</time>
</trkpt>
<trkpt lat="52.703121185302734" lon="13.045888900756836">
<ele>95.30000305175781</ele>
<time>2014-02-16T13:36:02Z</time>
</trkpt>
<trkpt lat="52.703128814697266" lon="13.046019554138184">
<ele>94.5999984741211</ele>
<time>2014-02-16T13:36:03Z</time>
</trkpt>
<trkpt lat="52.70310974121094" lon="13.046130180358887">
<ele>94.80000305175781</ele>
<time>2014-02-16T13:36:04Z</time>
</trkpt>
<trkpt lat="52.703086853027344" lon="13.046216011047363">
<ele>94.30000305175781</ele>
<time>2014-02-16T13:36:05Z</time>
</trkpt>
<trkpt lat="52.70304870605469" lon="13.046313285827637">
<ele>93.80000305175781</ele>
<time>2014-02-16T13:36:06Z</time>
</trkpt>
<trkpt lat="52.70301055908203" lon="13.046401977539062">
<ele>93.19999694824219</ele>
<time>2014-02-16T13:36:07Z</time>
</trkpt>
<trkpt lat="52.70298385620117" lon="13.046502113342285">
<ele>92.80000305175781</ele>
<time>2014-02-16T13:36:08Z</time>
</trkpt>
<trkpt lat="52.70295715332031" lon="13.046600341796875">
<ele>93.0</ele>
<time>2014-02-16T13:36:09Z</time>
</trkpt>
<trkpt lat="52.70293426513672" lon="13.046682357788086">
<ele>93.0</ele>
<time>2014-02-16T13:36:10Z</time>
</trkpt>
<trkpt lat="52.70290756225586" lon="13.046765327453613">
<ele>94.4000015258789</ele>
<time>2014-02-16T13:36:11Z</time>
</trkpt>
<trkpt lat="52.702884674072266" lon="13.04685115814209">
<ele>94.5</ele>
<time>2014-02-16T13:36:12Z</time>
</trkpt>
<trkpt lat="52.702850341796875" lon="13.046944618225098">
<ele>94.5</ele>
<time>2014-02-16T13:36:13Z</time>
</trkpt>
<trkpt lat="52.70283508300781" lon="13.047032356262207">
<ele>94.4000015258789</ele>
<time>2014-02-16T13:36:14Z</time>
</trkpt>
<trkpt lat="52.70281219482422" lon="13.04712200164795">
<ele>94.0999984741211</ele>
<time>2014-02-16T13:36:15Z</time>
</trkpt>
<trkpt lat="52.70277786254883" lon="13.047211647033691">
<ele>93.9000015258789</ele>
<time>2014-02-16T13:36:16Z</time>
</trkpt>
<trkpt lat="52.70273208618164" lon="13.047304153442383">
<ele>88.9000015258789</ele>
<time>2014-02-16T13:36:17Z</time>
</trkpt>
<trkpt lat="52.702693939208984" lon="13.047390937805176">
<ele>87.80000305175781</ele>
<time>2014-02-16T13:36:18Z</time>
</trkpt>
<trkpt lat="52.702667236328125" lon="13.047494888305664">
<ele>87.19999694824219</ele>
<time>2014-02-16T13:36:19Z</time>
</trkpt>
<trkpt lat="52.702632904052734" lon="13.04757022857666">
<ele>88.30000305175781</ele>
<time>2014-02-16T13:36:20Z</time>
</trkpt>
<trkpt lat="52.702598571777344" lon="13.047651290893555">
<ele>88.30000305175781</ele>
<time>2014-02-16T13:36:21Z</time>
</trkpt>
<trkpt lat="52.70256805419922" lon="13.047717094421387">
<ele>89.0999984741211</ele>
<time>2014-02-16T13:36:22Z</time>
</trkpt>
<trkpt lat="52.70253372192383" lon="13.047802925109863">
<ele>89.5999984741211</ele>
<time>2014-02-16T13:36:23Z</time>
</trkpt>
<trkpt lat="52.70249557495117" lon="13.047883033752441">
<ele>90.0</ele>
<time>2014-02-16T13:36:24Z</time>
</trkpt>
<trkpt lat="52.702457427978516" lon="13.047969818115234">
<ele>90.19999694824219</ele>
<time>2014-02-16T13:36:25Z</time>
</trkpt>
<trkpt lat="52.702415466308594" lon="13.048047065734863">
<ele>90.4000015258789</ele>
<time>2014-02-16T13:36:26Z</time>
</trkpt>
<trkpt lat="52.70237731933594" lon="13.048138618469238">
<ele>90.30000305175781</ele>
<time>2014-02-16T13:36:27Z</time>
</trkpt>
<trkpt lat="52.70235061645508" lon="13.048216819763184">
<ele>90.9000015258789</ele>
<time>2014-02-16T13:36:28Z</time>
</trkpt>
<trkpt lat="52.70232009887695" lon="13.048295974731445">
<ele>91.0999984741211</ele>
<time>2014-02-16T13:36:29Z</time>
</trkpt>
<trkpt lat="52.7022819519043" lon="13.048373222351074">
<ele>90.69999694824219</ele>
<time>2014-02-16T13:36:30Z</time>
</trkpt>
<trkpt lat="52.70225143432617" lon="13.048447608947754">
<ele>90.5999984741211</ele>
<time>2014-02-16T13:36:31Z</time>
</trkpt>
<trkpt lat="52.70220947265625" lon="13.048526763916016">
<ele>90.5</ele>
<time>2014-02-16T13:36:32Z</time>
</trkpt>
<trkpt lat="52.70216369628906" lon="13.048606872558594">
<ele>90.4000015258789</ele>
<time>2014-02-16T13:36:33Z</time>
</trkpt>
<trkpt lat="52.70213317871094" lon="13.048685073852539">
<ele>90.80000305175781</ele>
<time>2014-02-16T13:36:34Z</time>
</trkpt>
<trkpt lat="52.70210647583008" lon="13.048748970031738">
<ele>90.80000305175781</ele>
<time>2014-02-16T13:36:35Z</time>
</trkpt>
<trkpt lat="52.70206832885742" lon="13.04881763458252">
<ele>90.4000015258789</ele>
<time>2014-02-16T13:36:36Z</time>
</trkpt>
<trkpt lat="52.7020378112793" lon="13.048907279968262">
<ele>90.19999694824219</ele>
<time>2014-02-16T13:36:37Z</time>
</trkpt>
<trkpt lat="52.702003479003906" lon="13.04897403717041">
<ele>90.80000305175781</ele>
<time>2014-02-16T13:36:38Z</time>
</trkpt>
<trkpt lat="52.701969146728516" lon="13.049060821533203">
<ele>90.5999984741211</ele>
<time>2014-02-16T13:36:39Z</time>
</trkpt>
<trkpt lat="52.70191192626953" lon="13.049185752868652">
<ele>91.4000015258789</ele>
<time>2014-02-16T13:36:41Z</time>
</trkpt>
<trkpt lat="52.70184326171875" lon="13.049337387084961">
<ele>92.69999694824219</ele>
<time>2014-02-16T13:36:43Z</time>
</trkpt>
<trkpt lat="52.701820373535156" lon="13.049406051635742">
<ele>92.69999694824219</ele>
<time>2014-02-16T13:36:44Z</time>
</trkpt>
<trkpt lat="52.70178985595703" lon="13.049484252929688">
<ele>92.5999984741211</ele>
<time>2014-02-16T13:36:45Z</time>
</trkpt>
<trkpt lat="52.701751708984375" lon="13.049555778503418">
<ele>92.5999984741211</ele>
<time>2014-02-16T13:36:46Z</time>
</trkpt>
<trkpt lat="52.70172119140625" lon="13.049620628356934">
<ele>92.9000015258789</ele>
<time>2014-02-16T13:36:47Z</time>
</trkpt>
<trkpt lat="52.70166015625" lon="13.0497407913208">
<ele>92.80000305175781</ele>
<time>2014-02-16T13:36:49Z</time>
</trkpt>
<trkpt lat="52.701629638671875" lon="13.049806594848633">
<ele>92.80000305175781</ele>
<time>2014-02-16T13:36:50Z</time>
</trkpt>
<trkpt lat="52.70159912109375" lon="13.049861907958984">
<ele>93.0999984741211</ele>
<time>2014-02-16T13:36:51Z</time>
</trkpt>
<trkpt lat="52.70155715942383" lon="13.049927711486816">
<ele>93.0999984741211</ele>
<time>2014-02-16T13:36:52Z</time>
</trkpt>
<trkpt lat="52.70153045654297" lon="13.049989700317383">
<ele>93.0999984741211</ele>
<time>2014-02-16T13:36:53Z</time>
</trkpt>
<trkpt lat="52.70149230957031" lon="13.050070762634277">
<ele>93.19999694824219</ele>
<time>2014-02-16T13:36:54Z</time>
</trkpt>
<trkpt lat="52.70144271850586" lon="13.050187110900879">
<ele>92.4000015258789</ele>
<time>2014-02-16T13:36:56Z</time>
</trkpt>
<trkpt lat="52.701412200927734" lon="13.050250053405762">
<ele>92.5999984741211</ele>
<time>2014-02-16T13:36:57Z</time>
</trkpt>
<trkpt lat="52.701385498046875" lon="13.050324440002441">
<ele>92.9000015258789</ele>
<time>2014-02-16T13:36:58Z</time>
</trkpt>
<trkpt lat="52.70133590698242" lon="13.05040454864502">
<ele>92.69999694824219</ele>
<time>2014-02-16T13:36:59Z</time>
</trkpt>
<trkpt lat="52.70130920410156" lon="13.050480842590332">
<ele>92.4000015258789</ele>
<time>2014-02-16T13:37:00Z</time>
</trkpt>
<trkpt lat="52.70126724243164" lon="13.050561904907227">
<ele>92.69999694824219</ele>
<time>2014-02-16T13:37:01Z</time>
</trkpt>
<trkpt lat="52.70121383666992" lon="13.050628662109375">
<ele>92.9000015258789</ele>
<time>2014-02-16T13:37:02Z</time>
</trkpt>
<trkpt lat="52.70115661621094" lon="13.05074691772461">
<ele>92.5999984741211</ele>
<time>2014-02-16T13:37:04Z</time>
</trkpt>
<trkpt lat="52.70112228393555" lon="13.050804138183594">
<ele>94.4000015258789</ele>
<time>2014-02-16T13:37:05Z</time>
</trkpt>
<trkpt lat="52.70109176635742" lon="13.050869941711426">
<ele>94.9000015258789</ele>
<time>2014-02-16T13:37:06Z</time>
</trkpt>
<trkpt lat="52.7010612487793" lon="13.050931930541992">
<ele>94.69999694824219</ele>
<time>2014-02-16T13:37:07Z</time>
</trkpt>
<trkpt lat="52.70102310180664" lon="13.051008224487305">
<ele>94.0999984741211</ele>
<time>2014-02-16T13:37:09Z</time>
</trkpt>
<trkpt lat="52.70097351074219" lon="13.05111026763916">
<ele>94.0999984741211</ele>
<time>2014-02-16T13:37:11Z</time>
</trkpt>
<trkpt lat="52.700927734375" lon="13.051216125488281">
<ele>93.5</ele>
<time>2014-02-16T13:37:14Z</time>
</trkpt>
<trkpt lat="52.70087432861328" lon="13.051262855529785">
<ele>92.0999984741211</ele>
<time>2014-02-16T13:37:16Z</time>
</trkpt>
<trkpt lat="52.700809478759766" lon="13.051334381103516">
<ele>93.5</ele>
<time>2014-02-16T13:37:18Z</time>
</trkpt>
<trkpt lat="52.70075988769531" lon="13.051398277282715">
<ele>92.9000015258789</ele>
<time>2014-02-16T13:37:19Z</time>
</trkpt>
<trkpt lat="52.700740814208984" lon="13.051465034484863">
<ele>92.0</ele>
<time>2014-02-16T13:37:21Z</time>
</trkpt>
<trkpt lat="52.700706481933594" lon="13.051522254943848">
<ele>92.0</ele>
<time>2014-02-16T13:37:23Z</time>
</trkpt>
<trkpt lat="52.700645446777344" lon="13.0515718460083">
<ele>91.30000305175781</ele>
<time>2014-02-16T13:37:24Z</time>
</trkpt>
<trkpt lat="52.7005615234375" lon="13.051681518554688">
<ele>90.69999694824219</ele>
<time>2014-02-16T13:37:26Z</time>
</trkpt>
<trkpt lat="52.700469970703125" lon="13.051793098449707">
<ele>89.69999694824219</ele>
<time>2014-02-16T13:37:28Z</time>
</trkpt>
<trkpt lat="52.70042037963867" lon="13.05190372467041">
<ele>89.5999984741211</ele>
<time>2014-02-16T13:37:30Z</time>
</trkpt>
<trkpt lat="52.70038986206055" lon="13.051963806152344">
<ele>88.9000015258789</ele>
<time>2014-02-16T13:37:31Z</time>
</trkpt>
<trkpt lat="52.70035171508789" lon="13.052045822143555">
<ele>89.19999694824219</ele>
<time>2014-02-16T13:37:33Z</time>
</trkpt>
<trkpt lat="52.7003173828125" lon="13.052103996276855">
<ele>90.69999694824219</ele>
<time>2014-02-16T13:37:34Z</time>
</trkpt>
<trkpt lat="52.70024871826172" lon="13.05222225189209">
<ele>91.5</ele>
<time>2014-02-16T13:37:36Z</time>
</trkpt>
<trkpt lat="52.700218200683594" lon="13.05228042602539">
<ele>92.0999984741211</ele>
<time>2014-02-16T13:37:37Z</time>
</trkpt>
<trkpt lat="52.70017623901367" lon="13.05236530303955">
<ele>92.5</ele>
<time>2014-02-16T13:37:39Z</time>
</trkpt>
<trkpt lat="52.70014572143555" lon="13.052421569824219">
<ele>92.80000305175781</ele>
<time>2014-02-16T13:37:40Z</time>
</trkpt>
<trkpt lat="52.700096130371094" lon="13.05251693725586">
<ele>93.69999694824219</ele>
<time>2014-02-16T13:37:42Z</time>
</trkpt>
<trkpt lat="52.700035095214844" lon="13.05263900756836">
<ele>93.80000305175781</ele>
<time>2014-02-16T13:37:44Z</time>
</trkpt>
<trkpt lat="52.69997787475586" lon="13.052740097045898">
<ele>94.30000305175781</ele>
<time>2014-02-16T13:37:46Z</time>
</trkpt>
<trkpt lat="52.699947357177734" lon="13.0527925491333">
<ele>94.5</ele>
<time>2014-02-16T13:37:47Z</time>
</trkpt>
<trkpt lat="52.69988250732422" lon="13.052892684936523">
<ele>94.0</ele>
<time>2014-02-16T13:37:49Z</time>
</trkpt>
<trkpt lat="52.69983673095703" lon="13.05296516418457">
<ele>94.19999694824219</ele>
<time>2014-02-16T13:37:50Z</time>
</trkpt>
<trkpt lat="52.69981002807617" lon="13.053028106689453">
<ele>96.0</ele>
<time>2014-02-16T13:37:51Z</time>
</trkpt>
<trkpt lat="52.69978332519531" lon="13.05310344696045">
<ele>97.4000015258789</ele>
<time>2014-02-16T13:37:53Z</time>
</trkpt>
<trkpt lat="52.699737548828125" lon="13.053236961364746">
<ele>98.5999984741211</ele>
<time>2014-02-16T13:37:54Z</time>
</trkpt>
<trkpt lat="52.69971466064453" lon="13.053312301635742">
<ele>98.69999694824219</ele>
<time>2014-02-16T13:37:55Z</time>
</trkpt>
<trkpt lat="52.69969177246094" lon="13.053387641906738">
<ele>98.80000305175781</ele>
<time>2014-02-16T13:37:56Z</time>
</trkpt>
<trkpt lat="52.69967269897461" lon="13.053476333618164">
<ele>99.19999694824219</ele>
<time>2014-02-16T13:37:57Z</time>
</trkpt>
<trkpt lat="52.69963836669922" lon="13.053573608398438">
<ele>99.4000015258789</ele>
<time>2014-02-16T13:37:58Z</time>
</trkpt>
<trkpt lat="52.69960403442383" lon="13.053667068481445">
<ele>99.0999984741211</ele>
<time>2014-02-16T13:37:59Z</time>
</trkpt>
<trkpt lat="52.699562072753906" lon="13.053818702697754">
<ele>98.9000015258789</ele>
<time>2014-02-16T13:38:01Z</time>
</trkpt>
<trkpt lat="52.69953536987305" lon="13.053892135620117">
<ele>98.5</ele>
<time>2014-02-16T13:38:02Z</time>
</trkpt>
<trkpt lat="52.69951629638672" lon="13.053980827331543">
<ele>98.0</ele>
<time>2014-02-16T13:38:03Z</time>
</trkpt>
<trkpt lat="52.699501037597656" lon="13.054052352905273">
<ele>98.0999984741211</ele>
<time>2014-02-16T13:38:04Z</time>
</trkpt>
<trkpt lat="52.6994743347168" lon="13.054141998291016">
<ele>98.0999984741211</ele>
<time>2014-02-16T13:38:05Z</time>
</trkpt>
<trkpt lat="52.699462890625" lon="13.054221153259277">
<ele>98.30000305175781</ele>
<time>2014-02-16T13:38:06Z</time>
</trkpt>
<trkpt lat="52.69944381713867" lon="13.054316520690918">
<ele>98.30000305175781</ele>
<time>2014-02-16T13:38:07Z</time>
</trkpt>
<trkpt lat="52.699432373046875" lon="13.054417610168457">
<ele>98.5999984741211</ele>
<time>2014-02-16T13:38:08Z</time>
</trkpt>
<trkpt lat="52.69941711425781" lon="13.054523468017578">
<ele>98.69999694824219</ele>
<time>2014-02-16T13:38:09Z</time>
</trkpt>
<trkpt lat="52.69942092895508" lon="13.054604530334473">
<ele>98.5999984741211</ele>
<time>2014-02-16T13:38:10Z</time>
</trkpt>
<trkpt lat="52.69939422607422" lon="13.054698944091797">
<ele>97.5999984741211</ele>
<time>2014-02-16T13:38:11Z</time>
</trkpt>
<trkpt lat="52.699378967285156" lon="13.054781913757324">
<ele>97.30000305175781</ele>
<time>2014-02-16T13:38:12Z</time>
</trkpt>
<trkpt lat="52.699363708496094" lon="13.054859161376953">
<ele>97.4000015258789</ele>
<time>2014-02-16T13:38:13Z</time>
</trkpt>
<trkpt lat="52.69935989379883" lon="13.054935455322266">
<ele>97.30000305175781</ele>
<time>2014-02-16T13:38:14Z</time>
</trkpt>
<trkpt lat="52.6993408203125" lon="13.05511474609375">
<ele>96.80000305175781</ele>
<time>2014-02-16T13:38:16Z</time>
</trkpt>
<trkpt lat="52.69931411743164" lon="13.055211067199707">
<ele>96.69999694824219</ele>
<time>2014-02-16T13:38:17Z</time>
</trkpt>
<trkpt lat="52.69929504394531" lon="13.055319786071777">
<ele>96.9000015258789</ele>
<time>2014-02-16T13:38:18Z</time>
</trkpt>
<trkpt lat="52.69927978515625" lon="13.055423736572266">
<ele>97.0999984741211</ele>
<time>2014-02-16T13:38:19Z</time>
</trkpt>
<trkpt lat="52.69926834106445" lon="13.055525779724121">
<ele>97.80000305175781</ele>
<time>2014-02-16T13:38:20Z</time>
</trkpt>
<trkpt lat="52.69926834106445" lon="13.055622100830078">
<ele>98.19999694824219</ele>
<time>2014-02-16T13:38:21Z</time>
</trkpt>
<trkpt lat="52.699241638183594" lon="13.055716514587402">
<ele>98.19999694824219</ele>
<time>2014-02-16T13:38:22Z</time>
</trkpt>
<trkpt lat="52.699241638183594" lon="13.05582046508789">
<ele>99.4000015258789</ele>
<time>2014-02-16T13:38:23Z</time>
</trkpt>
<trkpt lat="52.699241638183594" lon="13.055901527404785">
<ele>100.30000305175781</ele>
<time>2014-02-16T13:38:24Z</time>
</trkpt>
<trkpt lat="52.69923400878906" lon="13.056000709533691">
<ele>100.30000305175781</ele>
<time>2014-02-16T13:38:25Z</time>
</trkpt>
<trkpt lat="52.699222564697266" lon="13.056117057800293">
<ele>100.9000015258789</ele>
<time>2014-02-16T13:38:26Z</time>
</trkpt>
<trkpt lat="52.69921112060547" lon="13.05622673034668">
<ele>100.5999984741211</ele>
<time>2014-02-16T13:38:27Z</time>
</trkpt>
<trkpt lat="52.6992073059082" lon="13.056319236755371">
<ele>100.9000015258789</ele>
<time>2014-02-16T13:38:28Z</time>
</trkpt>
<trkpt lat="52.6992073059082" lon="13.05640697479248">
<ele>100.69999694824219</ele>
<time>2014-02-16T13:38:29Z</time>
</trkpt>
<trkpt lat="52.69920349121094" lon="13.056499481201172">
<ele>100.4000015258789</ele>
<time>2014-02-16T13:38:30Z</time>
</trkpt>
<trkpt lat="52.699214935302734" lon="13.056588172912598">
<ele>100.4000015258789</ele>
<time>2014-02-16T13:38:31Z</time>
</trkpt>
<trkpt lat="52.6992073059082" lon="13.056682586669922">
<ele>100.5999984741211</ele>
<time>2014-02-16T13:38:32Z</time>
</trkpt>
<trkpt lat="52.69921112060547" lon="13.05679702758789">
<ele>100.9000015258789</ele>
<time>2014-02-16T13:38:33Z</time>
</trkpt>
<trkpt lat="52.699222564697266" lon="13.056909561157227">
<ele>100.9000015258789</ele>
<time>2014-02-16T13:38:34Z</time>
</trkpt>
<trkpt lat="52.69921875" lon="13.057037353515625">
<ele>101.0</ele>
<time>2014-02-16T13:38:35Z</time>
</trkpt>
<trkpt lat="52.699214935302734" lon="13.057156562805176">
<ele>101.0</ele>
<time>2014-02-16T13:38:36Z</time>
</trkpt>
<trkpt lat="52.69921112060547" lon="13.05726146697998">
<ele>100.4000015258789</ele>
<time>2014-02-16T13:38:37Z</time>
</trkpt>
<trkpt lat="52.69921875" lon="13.057356834411621">
<ele>100.4000015258789</ele>
<time>2014-02-16T13:38:38Z</time>
</trkpt>
<trkpt lat="52.69921112060547" lon="13.057477951049805">
<ele>99.9000015258789</ele>
<time>2014-02-16T13:38:39Z</time>
</trkpt>
<trkpt lat="52.699214935302734" lon="13.057596206665039">
<ele>99.19999694824219</ele>
<time>2014-02-16T13:38:40Z</time>
</trkpt>
<trkpt lat="52.69921875" lon="13.05772590637207">
<ele>99.19999694824219</ele>
<time>2014-02-16T13:38:41Z</time>
</trkpt>
<trkpt lat="52.69921112060547" lon="13.05785083770752">
<ele>98.69999694824219</ele>
<time>2014-02-16T13:38:42Z</time>
</trkpt>
<trkpt lat="52.6992301940918" lon="13.05795955657959">
<ele>98.9000015258789</ele>
<time>2014-02-16T13:38:43Z</time>
</trkpt>
<trkpt lat="52.69923400878906" lon="13.058084487915039">
<ele>98.9000015258789</ele>
<time>2014-02-16T13:38:44Z</time>
</trkpt>
<trkpt lat="52.699241638183594" lon="13.058188438415527">
<ele>98.80000305175781</ele>
<time>2014-02-16T13:38:45Z</time>
</trkpt>
<trkpt lat="52.699256896972656" lon="13.058294296264648">
<ele>98.0999984741211</ele>
<time>2014-02-16T13:38:46Z</time>
</trkpt>
<trkpt lat="52.699256896972656" lon="13.058392524719238">
<ele>97.30000305175781</ele>
<time>2014-02-16T13:38:47Z</time>
</trkpt>
<trkpt lat="52.69925308227539" lon="13.05849838256836">
<ele>97.80000305175781</ele>
<time>2014-02-16T13:38:48Z</time>
</trkpt>
<trkpt lat="52.69925308227539" lon="13.058613777160645">
<ele>98.0</ele>
<time>2014-02-16T13:38:49Z</time>
</trkpt>
<trkpt lat="52.699249267578125" lon="13.058724403381348">
<ele>97.5999984741211</ele>
<time>2014-02-16T13:38:50Z</time>
</trkpt>
<trkpt lat="52.69924545288086" lon="13.058844566345215">
<ele>97.0999984741211</ele>
<time>2014-02-16T13:38:51Z</time>
</trkpt>
<trkpt lat="52.69923400878906" lon="13.058960914611816">
<ele>95.9000015258789</ele>
<time>2014-02-16T13:38:52Z</time>
</trkpt>
<trkpt lat="52.69922637939453" lon="13.059054374694824">
<ele>95.5</ele>
<time>2014-02-16T13:38:53Z</time>
</trkpt>
<trkpt lat="52.69920349121094" lon="13.059152603149414">
<ele>95.30000305175781</ele>
<time>2014-02-16T13:38:54Z</time>
</trkpt>
<trkpt lat="52.699188232421875" lon="13.059273719787598">
<ele>95.5999984741211</ele>
<time>2014-02-16T13:38:55Z</time>
</trkpt>
<trkpt lat="52.69917297363281" lon="13.05937671661377">
<ele>95.80000305175781</ele>
<time>2014-02-16T13:38:56Z</time>
</trkpt>
<trkpt lat="52.69916915893555" lon="13.059464454650879">
<ele>95.9000015258789</ele>
<time>2014-02-16T13:38:57Z</time>
</trkpt>
<trkpt lat="52.699153900146484" lon="13.059564590454102">
<ele>95.9000015258789</ele>
<time>2014-02-16T13:38:58Z</time>
</trkpt>
<trkpt lat="52.699134826660156" lon="13.059649467468262">
<ele>95.69999694824219</ele>
<time>2014-02-16T13:38:59Z</time>
</trkpt>
<trkpt lat="52.699092864990234" lon="13.059755325317383">
<ele>95.4000015258789</ele>
<time>2014-02-16T13:39:00Z</time>
</trkpt>
<trkpt lat="52.69904708862305" lon="13.0598783493042">
<ele>94.19999694824219</ele>
<time>2014-02-16T13:39:01Z</time>
</trkpt>
<trkpt lat="52.699012756347656" lon="13.059969902038574">
<ele>94.4000015258789</ele>
<time>2014-02-16T13:39:02Z</time>
</trkpt>
<trkpt lat="52.698997497558594" lon="13.060060501098633">
<ele>94.5999984741211</ele>
<time>2014-02-16T13:39:03Z</time>
</trkpt>
<trkpt lat="52.698970794677734" lon="13.060173034667969">
<ele>95.0</ele>
<time>2014-02-16T13:39:04Z</time>
</trkpt>
<trkpt lat="52.698951721191406" lon="13.060269355773926">
<ele>94.5</ele>
<time>2014-02-16T13:39:05Z</time>
</trkpt>
<trkpt lat="52.69892883300781" lon="13.060369491577148">
<ele>94.69999694824219</ele>
<time>2014-02-16T13:39:06Z</time>
</trkpt>
<trkpt lat="52.698917388916016" lon="13.06045913696289">
<ele>94.5999984741211</ele>
<time>2014-02-16T13:39:07Z</time>
</trkpt>
<trkpt lat="52.69891357421875" lon="13.060534477233887">
<ele>93.80000305175781</ele>
<time>2014-02-16T13:39:08Z</time>
</trkpt>
<trkpt lat="52.698890686035156" lon="13.060623168945312">
<ele>94.19999694824219</ele>
<time>2014-02-16T13:39:09Z</time>
</trkpt>
<trkpt lat="52.698875427246094" lon="13.06071662902832">
<ele>94.0</ele>
<time>2014-02-16T13:39:10Z</time>
</trkpt>
<trkpt lat="52.6988639831543" lon="13.060800552368164">
<ele>93.80000305175781</ele>
<time>2014-02-16T13:39:11Z</time>
</trkpt>
<trkpt lat="52.69883728027344" lon="13.060909271240234">
<ele>94.0999984741211</ele>
<time>2014-02-16T13:39:12Z</time>
</trkpt>
<trkpt lat="52.69881057739258" lon="13.060994148254395">
<ele>93.80000305175781</ele>
<time>2014-02-16T13:39:13Z</time>
</trkpt>
<trkpt lat="52.698795318603516" lon="13.06107234954834">
<ele>93.0</ele>
<time>2014-02-16T13:39:14Z</time>
</trkpt>
<trkpt lat="52.69877624511719" lon="13.061166763305664">
<ele>93.4000015258789</ele>
<time>2014-02-16T13:39:15Z</time>
</trkpt>
<trkpt lat="52.698760986328125" lon="13.061253547668457">
<ele>93.19999694824219</ele>
<time>2014-02-16T13:39:16Z</time>
</trkpt>
<trkpt lat="52.69873809814453" lon="13.06134033203125">
<ele>92.9000015258789</ele>
<time>2014-02-16T13:39:17Z</time>
</trkpt>
<trkpt lat="52.69871139526367" lon="13.061432838439941">
<ele>93.0999984741211</ele>
<time>2014-02-16T13:39:18Z</time>
</trkpt>
<trkpt lat="52.69868469238281" lon="13.061524391174316">
<ele>91.9000015258789</ele>
<time>2014-02-16T13:39:19Z</time>
</trkpt>
<trkpt lat="52.69865417480469" lon="13.061607360839844">
<ele>91.5999984741211</ele>
<time>2014-02-16T13:39:20Z</time>
</trkpt>
<trkpt lat="52.69863510131836" lon="13.06168270111084">
<ele>91.5999984741211</ele>
<time>2014-02-16T13:39:21Z</time>
</trkpt>
<trkpt lat="52.69861602783203" lon="13.061767578125">
<ele>91.5999984741211</ele>
<time>2014-02-16T13:39:22Z</time>
</trkpt>
<trkpt lat="52.698585510253906" lon="13.06186294555664">
<ele>91.5</ele>
<time>2014-02-16T13:39:23Z</time>
</trkpt>
<trkpt lat="52.69857406616211" lon="13.061944961547852">
<ele>91.0</ele>
<time>2014-02-16T13:39:24Z</time>
</trkpt>
<trkpt lat="52.69855880737305" lon="13.062026977539062">
<ele>90.80000305175781</ele>
<time>2014-02-16T13:39:25Z</time>
</trkpt>
<trkpt lat="52.698551177978516" lon="13.062101364135742">
<ele>90.69999694824219</ele>
<time>2014-02-16T13:39:26Z</time>
</trkpt>
<trkpt lat="52.69853210449219" lon="13.062171936035156">
<ele>90.5</ele>
<time>2014-02-16T13:39:27Z</time>
</trkpt>
<trkpt lat="52.698509216308594" lon="13.062291145324707">
<ele>89.5999984741211</ele>
<time>2014-02-16T13:39:28Z</time>
</trkpt>
<trkpt lat="52.69846725463867" lon="13.06240177154541">
<ele>89.5999984741211</ele>
<time>2014-02-16T13:39:29Z</time>
</trkpt>
<trkpt lat="52.69844436645508" lon="13.062496185302734">
<ele>89.0999984741211</ele>
<time>2014-02-16T13:39:30Z</time>
</trkpt>
<trkpt lat="52.698421478271484" lon="13.062593460083008">
<ele>89.0999984741211</ele>
<time>2014-02-16T13:39:31Z</time>
</trkpt>
<trkpt lat="52.698429107666016" lon="13.062678337097168">
<ele>89.80000305175781</ele>
<time>2014-02-16T13:39:32Z</time>
</trkpt>
<trkpt lat="52.698421478271484" lon="13.062777519226074">
<ele>90.0</ele>
<time>2014-02-16T13:39:33Z</time>
</trkpt>
<trkpt lat="52.69841766357422" lon="13.062874794006348">
<ele>90.5999984741211</ele>
<time>2014-02-16T13:39:34Z</time>
</trkpt>
<trkpt lat="52.69840621948242" lon="13.062968254089355">
<ele>91.19999694824219</ele>
<time>2014-02-16T13:39:35Z</time>
</trkpt>
<trkpt lat="52.69839859008789" lon="13.063050270080566">
<ele>91.0999984741211</ele>
<time>2014-02-16T13:39:36Z</time>
</trkpt>
<trkpt lat="52.69838333129883" lon="13.063153266906738">
<ele>92.5999984741211</ele>
<time>2014-02-16T13:39:37Z</time>
</trkpt>
<trkpt lat="52.69837188720703" lon="13.06324291229248">
<ele>92.69999694824219</ele>
<time>2014-02-16T13:39:38Z</time>
</trkpt>
<trkpt lat="52.6983642578125" lon="13.06334114074707">
<ele>93.5</ele>
<time>2014-02-16T13:39:39Z</time>
</trkpt>
<trkpt lat="52.69834899902344" lon="13.063440322875977">
<ele>94.0999984741211</ele>
<time>2014-02-16T13:39:40Z</time>
</trkpt>
<trkpt lat="52.698341369628906" lon="13.063521385192871">
<ele>94.69999694824219</ele>
<time>2014-02-16T13:39:41Z</time>
</trkpt>
<trkpt lat="52.69832229614258" lon="13.063613891601562">
<ele>95.0</ele>
<time>2014-02-16T13:39:42Z</time>
</trkpt>
<trkpt lat="52.698307037353516" lon="13.063698768615723">
<ele>94.80000305175781</ele>
<time>2014-02-16T13:39:43Z</time>
</trkpt>
<trkpt lat="52.698299407958984" lon="13.0637788772583">
<ele>95.30000305175781</ele>
<time>2014-02-16T13:39:44Z</time>
</trkpt>
<trkpt lat="52.69829177856445" lon="13.063873291015625">
<ele>95.4000015258789</ele>
<time>2014-02-16T13:39:45Z</time>
</trkpt>
<trkpt lat="52.698272705078125" lon="13.063949584960938">
<ele>94.69999694824219</ele>
<time>2014-02-16T13:39:46Z</time>
</trkpt>
<trkpt lat="52.6982536315918" lon="13.064023971557617">
<ele>94.80000305175781</ele>
<time>2014-02-16T13:39:47Z</time>
</trkpt>
<trkpt lat="52.698238372802734" lon="13.06411075592041">
<ele>95.19999694824219</ele>
<time>2014-02-16T13:39:48Z</time>
</trkpt>
<trkpt lat="52.6982307434082" lon="13.064202308654785">
<ele>95.9000015258789</ele>
<time>2014-02-16T13:39:49Z</time>
</trkpt>
<trkpt lat="52.698219299316406" lon="13.064300537109375">
<ele>95.69999694824219</ele>
<time>2014-02-16T13:39:50Z</time>
</trkpt>
<trkpt lat="52.69819641113281" lon="13.064383506774902">
<ele>95.80000305175781</ele>
<time>2014-02-16T13:39:51Z</time>
</trkpt>
<trkpt lat="52.698184967041016" lon="13.064471244812012">
<ele>95.5999984741211</ele>
<time>2014-02-16T13:39:52Z</time>
</trkpt>
<trkpt lat="52.69817352294922" lon="13.064557075500488">
<ele>96.0</ele>
<time>2014-02-16T13:39:53Z</time>
</trkpt>
<trkpt lat="52.69816207885742" lon="13.064645767211914">
<ele>96.5</ele>
<time>2014-02-16T13:39:54Z</time>
</trkpt>
<trkpt lat="52.69814682006836" lon="13.064725875854492">
<ele>96.69999694824219</ele>
<time>2014-02-16T13:39:55Z</time>
</trkpt>
<trkpt lat="52.69813919067383" lon="13.064813613891602">
<ele>96.80000305175781</ele>
<time>2014-02-16T13:39:56Z</time>
</trkpt>
<trkpt lat="52.69812774658203" lon="13.064900398254395">
<ele>96.9000015258789</ele>
<time>2014-02-16T13:39:57Z</time>
</trkpt>
<trkpt lat="52.6981201171875" lon="13.064985275268555">
<ele>97.0</ele>
<time>2014-02-16T13:39:58Z</time>
</trkpt>
<trkpt lat="52.6981086730957" lon="13.065071105957031">
<ele>97.5</ele>
<time>2014-02-16T13:39:59Z</time>
</trkpt>
<trkpt lat="52.69810104370117" lon="13.065153121948242">
<ele>97.0999984741211</ele>
<time>2014-02-16T13:40:00Z</time>
</trkpt>
<trkpt lat="52.698081970214844" lon="13.065314292907715">
<ele>96.69999694824219</ele>
<time>2014-02-16T13:40:02Z</time>
</trkpt>
<trkpt lat="52.69807434082031" lon="13.06540584564209">
<ele>96.80000305175781</ele>
<time>2014-02-16T13:40:03Z</time>
</trkpt>
<trkpt lat="52.698062896728516" lon="13.065502166748047">
<ele>97.30000305175781</ele>
<time>2014-02-16T13:40:04Z</time>
</trkpt>
<trkpt lat="52.698028564453125" lon="13.065587997436523">
<ele>98.0</ele>
<time>2014-02-16T13:40:05Z</time>
</trkpt>
<trkpt lat="52.698020935058594" lon="13.065680503845215">
<ele>98.0</ele>
<time>2014-02-16T13:40:06Z</time>
</trkpt>
<trkpt lat="52.69802474975586" lon="13.065754890441895">
<ele>98.30000305175781</ele>
<time>2014-02-16T13:40:07Z</time>
</trkpt>
<trkpt lat="52.69799041748047" lon="13.065866470336914">
<ele>99.5999984741211</ele>
<time>2014-02-16T13:40:08Z</time>
</trkpt>
<trkpt lat="52.69798278808594" lon="13.065961837768555">
<ele>99.69999694824219</ele>
<time>2014-02-16T13:40:09Z</time>
</trkpt>
<trkpt lat="52.69797134399414" lon="13.06605052947998">
<ele>100.30000305175781</ele>
<time>2014-02-16T13:40:10Z</time>
</trkpt>
<trkpt lat="52.697959899902344" lon="13.066133499145508">
<ele>100.5999984741211</ele>
<time>2014-02-16T13:40:11Z</time>
</trkpt>
<trkpt lat="52.69793701171875" lon="13.066263198852539">
<ele>99.5999984741211</ele>
<time>2014-02-16T13:40:13Z</time>
</trkpt>
<trkpt lat="52.69792175292969" lon="13.066339492797852">
<ele>100.0</ele>
<time>2014-02-16T13:40:14Z</time>
</trkpt>
<trkpt lat="52.69791030883789" lon="13.066427230834961">
<ele>100.0999984741211</ele>
<time>2014-02-16T13:40:15Z</time>
</trkpt>
<trkpt lat="52.697898864746094" lon="13.06651782989502">
<ele>99.80000305175781</ele>
<time>2014-02-16T13:40:16Z</time>
</trkpt>
<trkpt lat="52.69788360595703" lon="13.066596031188965">
<ele>99.5</ele>
<time>2014-02-16T13:40:17Z</time>
</trkpt>
<trkpt lat="52.6978759765625" lon="13.066679954528809">
<ele>99.30000305175781</ele>
<time>2014-02-16T13:40:18Z</time>
</trkpt>
<trkpt lat="52.69785690307617" lon="13.066773414611816">
<ele>99.19999694824219</ele>
<time>2014-02-16T13:40:19Z</time>
</trkpt>
<trkpt lat="52.69781494140625" lon="13.066866874694824">
<ele>99.4000015258789</ele>
<time>2014-02-16T13:40:20Z</time>
</trkpt>
<trkpt lat="52.697792053222656" lon="13.067009925842285">
<ele>99.5999984741211</ele>
<time>2014-02-16T13:40:22Z</time>
</trkpt>
<trkpt lat="52.69776916503906" lon="13.067097663879395">
<ele>99.69999694824219</ele>
<time>2014-02-16T13:40:23Z</time>
</trkpt>
<trkpt lat="52.69775390625" lon="13.067173957824707">
<ele>99.5999984741211</ele>
<time>2014-02-16T13:40:24Z</time>
</trkpt>
<trkpt lat="52.69773483276367" lon="13.067314147949219">
<ele>99.80000305175781</ele>
<time>2014-02-16T13:40:26Z</time>
</trkpt>
<trkpt lat="52.697731018066406" lon="13.067394256591797">
<ele>99.80000305175781</ele>
<time>2014-02-16T13:40:27Z</time>
</trkpt>
<trkpt lat="52.697723388671875" lon="13.067469596862793">
<ele>99.5999984741211</ele>
<time>2014-02-16T13:40:28Z</time>
</trkpt>
<trkpt lat="52.69770050048828" lon="13.067564010620117">
<ele>99.4000015258789</ele>
<time>2014-02-16T13:40:29Z</time>
</trkpt>
<trkpt lat="52.69767379760742" lon="13.067646026611328">
<ele>98.69999694824219</ele>
<time>2014-02-16T13:40:30Z</time>
</trkpt>
<trkpt lat="52.69764709472656" lon="13.067732810974121">
<ele>98.5</ele>
<time>2014-02-16T13:40:31Z</time>
</trkpt>
<trkpt lat="52.697628021240234" lon="13.067801475524902">
<ele>98.30000305175781</ele>
<time>2014-02-16T13:40:32Z</time>
</trkpt>
<trkpt lat="52.697608947753906" lon="13.067870140075684">
<ele>98.30000305175781</ele>
<time>2014-02-16T13:40:33Z</time>
</trkpt>
<trkpt lat="52.697574615478516" lon="13.067997932434082">
<ele>97.5999984741211</ele>
<time>2014-02-16T13:40:35Z</time>
</trkpt>
<trkpt lat="52.69757843017578" lon="13.068073272705078">
<ele>98.80000305175781</ele>
<time>2014-02-16T13:40:36Z</time>
</trkpt>
<trkpt lat="52.69758987426758" lon="13.068169593811035">
<ele>99.80000305175781</ele>
<time>2014-02-16T13:40:38Z</time>
</trkpt>
<trkpt lat="52.69759750366211" lon="13.068265914916992">
<ele>98.0999984741211</ele>
<time>2014-02-16T13:40:40Z</time>
</trkpt>
<trkpt lat="52.69753646850586" lon="13.068413734436035">
<ele>97.30000305175781</ele>
<time>2014-02-16T13:40:42Z</time>
</trkpt>
<trkpt lat="52.697509765625" lon="13.068490982055664">
<ele>97.19999694824219</ele>
<time>2014-02-16T13:40:43Z</time>
</trkpt>
<trkpt lat="52.697471618652344" lon="13.068585395812988">
<ele>96.69999694824219</ele>
<time>2014-02-16T13:40:44Z</time>
</trkpt>
<trkpt lat="52.69743728637695" lon="13.068733215332031">
<ele>96.5</ele>
<time>2014-02-16T13:40:46Z</time>
</trkpt>
<trkpt lat="52.69742965698242" lon="13.06882381439209">
<ele>96.30000305175781</ele>
<time>2014-02-16T13:40:47Z</time>
</trkpt>
<trkpt lat="52.6973876953125" lon="13.068907737731934">
<ele>96.19999694824219</ele>
<time>2014-02-16T13:40:48Z</time>
</trkpt>
<trkpt lat="52.697357177734375" lon="13.069012641906738">
<ele>95.5</ele>
<time>2014-02-16T13:40:49Z</time>
</trkpt>
<trkpt lat="52.69734191894531" lon="13.069089889526367">
<ele>95.0999984741211</ele>
<time>2014-02-16T13:40:50Z</time>
</trkpt>
<trkpt lat="52.69732666015625" lon="13.069206237792969">
<ele>93.19999694824219</ele>
<time>2014-02-16T13:40:52Z</time>
</trkpt>
<trkpt lat="52.69731521606445" lon="13.06928539276123">
<ele>92.80000305175781</ele>
<time>2014-02-16T13:40:53Z</time>
</trkpt>
<trkpt lat="52.697303771972656" lon="13.069360733032227">
<ele>92.5999984741211</ele>
<time>2014-02-16T13:40:54Z</time>
</trkpt>
<trkpt lat="52.6972770690918" lon="13.069437026977539">
<ele>92.5999984741211</ele>
<time>2014-02-16T13:40:55Z</time>
</trkpt>
<trkpt lat="52.697265625" lon="13.069539070129395">
<ele>94.0</ele>
<time>2014-02-16T13:40:57Z</time>
</trkpt>
<trkpt lat="52.69725036621094" lon="13.069677352905273">
<ele>94.80000305175781</ele>
<time>2014-02-16T13:40:59Z</time>
</trkpt>
<trkpt lat="52.69723129272461" lon="13.069746017456055">
<ele>95.19999694824219</ele>
<time>2014-02-16T13:41:00Z</time>
</trkpt>
<trkpt lat="52.69720458984375" lon="13.069835662841797">
<ele>96.0999984741211</ele>
<time>2014-02-16T13:41:01Z</time>
</trkpt>
<trkpt lat="52.69718933105469" lon="13.069916725158691">
<ele>96.4000015258789</ele>
<time>2014-02-16T13:41:02Z</time>
</trkpt>
<trkpt lat="52.69717788696289" lon="13.070001602172852">
<ele>96.5</ele>
<time>2014-02-16T13:41:03Z</time>
</trkpt>
<trkpt lat="52.69716262817383" lon="13.070077896118164">
<ele>97.0</ele>
<time>2014-02-16T13:41:04Z</time>
</trkpt>
<trkpt lat="52.6971435546875" lon="13.070159912109375">
<ele>96.9000015258789</ele>
<time>2014-02-16T13:41:05Z</time>
</trkpt>
<trkpt lat="52.69712829589844" lon="13.070246696472168">
<ele>97.30000305175781</ele>
<time>2014-02-16T13:41:06Z</time>
</trkpt>
<trkpt lat="52.697113037109375" lon="13.07032585144043">
<ele>97.19999694824219</ele>
<time>2014-02-16T13:41:07Z</time>
</trkpt>
<trkpt lat="52.69710159301758" lon="13.070402145385742">
<ele>97.4000015258789</ele>
<time>2014-02-16T13:41:08Z</time>
</trkpt>
<trkpt lat="52.69709014892578" lon="13.070480346679688">
<ele>97.5999984741211</ele>
<time>2014-02-16T13:41:09Z</time>
</trkpt>
<trkpt lat="52.69707107543945" lon="13.070555686950684">
<ele>97.5999984741211</ele>
<time>2014-02-16T13:41:10Z</time>
</trkpt>
<trkpt lat="52.69705581665039" lon="13.070630073547363">
<ele>98.30000305175781</ele>
<time>2014-02-16T13:41:11Z</time>
</trkpt>
<trkpt lat="52.69704055786133" lon="13.070709228515625">
<ele>98.4000015258789</ele>
<time>2014-02-16T13:41:12Z</time>
</trkpt>
<trkpt lat="52.697025299072266" lon="13.070781707763672">
<ele>97.80000305175781</ele>
<time>2014-02-16T13:41:13Z</time>
</trkpt>
<trkpt lat="52.696998596191406" lon="13.07086181640625">
<ele>98.0999984741211</ele>
<time>2014-02-16T13:41:14Z</time>
</trkpt>
<trkpt lat="52.69698715209961" lon="13.070938110351562">
<ele>98.4000015258789</ele>
<time>2014-02-16T13:41:15Z</time>
</trkpt>
<trkpt lat="52.69697570800781" lon="13.071014404296875">
<ele>98.5</ele>
<time>2014-02-16T13:41:16Z</time>
</trkpt>
<trkpt lat="52.69696044921875" lon="13.071085929870605">
<ele>98.4000015258789</ele>
<time>2014-02-16T13:41:17Z</time>
</trkpt>
<trkpt lat="52.69694519042969" lon="13.071166038513184">
<ele>98.69999694824219</ele>
<time>2014-02-16T13:41:18Z</time>
</trkpt>
<trkpt lat="52.69694137573242" lon="13.071242332458496">
<ele>98.5999984741211</ele>
<time>2014-02-16T13:41:19Z</time>
</trkpt>
<trkpt lat="52.696937561035156" lon="13.071316719055176">
<ele>98.9000015258789</ele>
<time>2014-02-16T13:41:20Z</time>
</trkpt>
<trkpt lat="52.69691848754883" lon="13.071395874023438">
<ele>99.0999984741211</ele>
<time>2014-02-16T13:41:21Z</time>
</trkpt>
<trkpt lat="52.69690704345703" lon="13.071477890014648">
<ele>99.30000305175781</ele>
<time>2014-02-16T13:41:22Z</time>
</trkpt>
<trkpt lat="52.6968879699707" lon="13.07155704498291">
<ele>99.30000305175781</ele>
<time>2014-02-16T13:41:23Z</time>
</trkpt>
<trkpt lat="52.696861267089844" lon="13.071648597717285">
<ele>99.19999694824219</ele>
<time>2014-02-16T13:41:24Z</time>
</trkpt>
<trkpt lat="52.69685363769531" lon="13.071722030639648">
<ele>99.19999694824219</ele>
<time>2014-02-16T13:41:25Z</time>
</trkpt>
<trkpt lat="52.69683837890625" lon="13.07180118560791">
<ele>99.19999694824219</ele>
<time>2014-02-16T13:41:26Z</time>
</trkpt>
<trkpt lat="52.69683074951172" lon="13.071874618530273">
<ele>99.4000015258789</ele>
<time>2014-02-16T13:41:27Z</time>
</trkpt>
<trkpt lat="52.69681167602539" lon="13.071967124938965">
<ele>99.69999694824219</ele>
<time>2014-02-16T13:41:28Z</time>
</trkpt>
<trkpt lat="52.6967887878418" lon="13.072051048278809">
<ele>100.19999694824219</ele>
<time>2014-02-16T13:41:29Z</time>
</trkpt>
<trkpt lat="52.696754455566406" lon="13.072197914123535">
<ele>100.5</ele>
<time>2014-02-16T13:41:31Z</time>
</trkpt>
<trkpt lat="52.69674301147461" lon="13.072281837463379">
<ele>100.0999984741211</ele>
<time>2014-02-16T13:41:32Z</time>
</trkpt>
<trkpt lat="52.69672393798828" lon="13.072364807128906">
<ele>99.9000015258789</ele>
<time>2014-02-16T13:41:33Z</time>
</trkpt>
<trkpt lat="52.69670104980469" lon="13.072440147399902">
<ele>99.9000015258789</ele>
<time>2014-02-16T13:41:34Z</time>
</trkpt>
<trkpt lat="52.696685791015625" lon="13.072516441345215">
<ele>100.0999984741211</ele>
<time>2014-02-16T13:41:35Z</time>
</trkpt>
<trkpt lat="52.69666290283203" lon="13.07259464263916">
<ele>100.19999694824219</ele>
<time>2014-02-16T13:41:36Z</time>
</trkpt>
<trkpt lat="52.69664764404297" lon="13.07269287109375">
<ele>100.0999984741211</ele>
<time>2014-02-16T13:41:37Z</time>
</trkpt>
<trkpt lat="52.69662857055664" lon="13.072765350341797">
<ele>100.0999984741211</ele>
<time>2014-02-16T13:41:38Z</time>
</trkpt>
<trkpt lat="52.696598052978516" lon="13.072914123535156">
<ele>100.0</ele>
<time>2014-02-16T13:41:40Z</time>
</trkpt>
<trkpt lat="52.69658279418945" lon="13.072989463806152">
<ele>100.0999984741211</ele>
<time>2014-02-16T13:41:41Z</time>
</trkpt>
<trkpt lat="52.696571350097656" lon="13.07306957244873">
<ele>100.5</ele>
<time>2014-02-16T13:41:42Z</time>
</trkpt>
<trkpt lat="52.696556091308594" lon="13.073152542114258">
<ele>100.5</ele>
<time>2014-02-16T13:41:43Z</time>
</trkpt>
<trkpt lat="52.696533203125" lon="13.073226928710938">
<ele>100.9000015258789</ele>
<time>2014-02-16T13:41:44Z</time>
</trkpt>
<trkpt lat="52.69651794433594" lon="13.07330322265625">
<ele>100.69999694824219</ele>
<time>2014-02-16T13:41:45Z</time>
</trkpt>
<trkpt lat="52.696502685546875" lon="13.073380470275879">
<ele>100.80000305175781</ele>
<time>2014-02-16T13:41:46Z</time>
</trkpt>
<trkpt lat="52.69648742675781" lon="13.073455810546875">
<ele>100.80000305175781</ele>
<time>2014-02-16T13:41:47Z</time>
</trkpt>
<trkpt lat="52.696475982666016" lon="13.073535919189453">
<ele>100.69999694824219</ele>
<time>2014-02-16T13:41:48Z</time>
</trkpt>
<trkpt lat="52.69646072387695" lon="13.073614120483398">
<ele>100.9000015258789</ele>
<time>2014-02-16T13:41:49Z</time>
</trkpt>
<trkpt lat="52.696441650390625" lon="13.073688507080078">
<ele>100.80000305175781</ele>
<time>2014-02-16T13:41:50Z</time>
</trkpt>
<trkpt lat="52.69643020629883" lon="13.073765754699707">
<ele>101.0</ele>
<time>2014-02-16T13:41:51Z</time>
</trkpt>
<trkpt lat="52.6964111328125" lon="13.073896408081055">
<ele>100.69999694824219</ele>
<time>2014-02-16T13:41:53Z</time>
</trkpt>
<trkpt lat="52.69638442993164" lon="13.07397174835205">
<ele>100.30000305175781</ele>
<time>2014-02-16T13:41:54Z</time>
</trkpt>
<trkpt lat="52.69636535644531" lon="13.074048042297363">
<ele>100.19999694824219</ele>
<time>2014-02-16T13:41:55Z</time>
</trkpt>
<trkpt lat="52.69634246826172" lon="13.074124336242676">
<ele>100.19999694824219</ele>
<time>2014-02-16T13:41:56Z</time>
</trkpt>
<trkpt lat="52.696327209472656" lon="13.074213027954102">
<ele>100.30000305175781</ele>
<time>2014-02-16T13:41:57Z</time>
</trkpt>
<trkpt lat="52.696311950683594" lon="13.074295997619629">
<ele>100.30000305175781</ele>
<time>2014-02-16T13:41:58Z</time>
</trkpt>
<trkpt lat="52.696292877197266" lon="13.074387550354004">
<ele>100.19999694824219</ele>
<time>2014-02-16T13:41:59Z</time>
</trkpt>
<trkpt lat="52.69627380371094" lon="13.074468612670898">
<ele>100.19999694824219</ele>
<time>2014-02-16T13:42:00Z</time>
</trkpt>
<trkpt lat="52.6962776184082" lon="13.074570655822754">
<ele>99.30000305175781</ele>
<time>2014-02-16T13:42:02Z</time>
</trkpt>
<trkpt lat="52.69626235961914" lon="13.07467269897461">
<ele>99.80000305175781</ele>
<time>2014-02-16T13:42:03Z</time>
</trkpt>
<trkpt lat="52.69624328613281" lon="13.0747652053833">
<ele>100.5999984741211</ele>
<time>2014-02-16T13:42:04Z</time>
</trkpt>
<trkpt lat="52.69621276855469" lon="13.07485580444336">
<ele>100.0999984741211</ele>
<time>2014-02-16T13:42:05Z</time>
</trkpt>
<trkpt lat="52.69620132446289" lon="13.07494831085205">
<ele>100.5</ele>
<time>2014-02-16T13:42:07Z</time>
</trkpt>
<trkpt lat="52.6961784362793" lon="13.075109481811523">
<ele>99.4000015258789</ele>
<time>2014-02-16T13:42:08Z</time>
</trkpt>
<trkpt lat="52.696163177490234" lon="13.07519817352295">
<ele>99.0</ele>
<time>2014-02-16T13:42:09Z</time>
</trkpt>
<trkpt lat="52.69615936279297" lon="13.07528018951416">
<ele>98.9000015258789</ele>
<time>2014-02-16T13:42:10Z</time>
</trkpt>
<trkpt lat="52.696144104003906" lon="13.075366973876953">
<ele>98.30000305175781</ele>
<time>2014-02-16T13:42:11Z</time>
</trkpt>
<trkpt lat="52.69614028930664" lon="13.07545280456543">
<ele>97.9000015258789</ele>
<time>2014-02-16T13:42:13Z</time>
</trkpt>
<trkpt lat="52.69613265991211" lon="13.075532913208008">
<ele>97.4000015258789</ele>
<time>2014-02-16T13:42:14Z</time>
</trkpt>
<trkpt lat="52.69612503051758" lon="13.075620651245117">
<ele>97.30000305175781</ele>
<time>2014-02-16T13:42:15Z</time>
</trkpt>
<trkpt lat="52.69611740112305" lon="13.075752258300781">
<ele>97.30000305175781</ele>
<time>2014-02-16T13:42:17Z</time>
</trkpt>
<trkpt lat="52.69609451293945" lon="13.075837135314941">
<ele>96.80000305175781</ele>
<time>2014-02-16T13:42:18Z</time>
</trkpt>
<trkpt lat="52.696083068847656" lon="13.075987815856934">
<ele>96.69999694824219</ele>
<time>2014-02-16T13:42:20Z</time>
</trkpt>
<trkpt lat="52.69607162475586" lon="13.076081275939941">
<ele>96.4000015258789</ele>
<time>2014-02-16T13:42:21Z</time>
</trkpt>
<trkpt lat="52.696067810058594" lon="13.07616138458252">
<ele>96.4000015258789</ele>
<time>2014-02-16T13:42:22Z</time>
</trkpt>
<trkpt lat="52.69606018066406" lon="13.076265335083008">
<ele>95.69999694824219</ele>
<time>2014-02-16T13:42:23Z</time>
</trkpt>
<trkpt lat="52.696048736572266" lon="13.076343536376953">
<ele>96.30000305175781</ele>
<time>2014-02-16T13:42:24Z</time>
</trkpt>
<trkpt lat="52.696048736572266" lon="13.076431274414062">
<ele>96.19999694824219</ele>
<time>2014-02-16T13:42:25Z</time>
</trkpt>
<trkpt lat="52.6960334777832" lon="13.076523780822754">
<ele>95.9000015258789</ele>
<time>2014-02-16T13:42:26Z</time>
</trkpt>
<trkpt lat="52.696022033691406" lon="13.076605796813965">
<ele>96.19999694824219</ele>
<time>2014-02-16T13:42:27Z</time>
</trkpt>
<trkpt lat="52.696014404296875" lon="13.076695442199707">
<ele>95.9000015258789</ele>
<time>2014-02-16T13:42:28Z</time>
</trkpt>
<trkpt lat="52.696006774902344" lon="13.076778411865234">
<ele>95.69999694824219</ele>
<time>2014-02-16T13:42:29Z</time>
</trkpt>
<trkpt lat="52.695899963378906" lon="13.07694149017334">
<ele>97.19999694824219</ele>
<time>2014-02-16T13:42:30Z</time>
</trkpt>
<trkpt lat="52.695899963378906" lon="13.077027320861816">
<ele>97.0</ele>
<time>2014-02-16T13:42:31Z</time>
</trkpt>
<trkpt lat="52.695865631103516" lon="13.07713794708252">
<ele>97.0999984741211</ele>
<time>2014-02-16T13:42:32Z</time>
</trkpt>
<trkpt lat="52.69585037231445" lon="13.077274322509766">
<ele>97.5</ele>
<time>2014-02-16T13:42:34Z</time>
</trkpt>
<trkpt lat="52.695804595947266" lon="13.077366828918457">
<ele>97.5</ele>
<time>2014-02-16T13:42:35Z</time>
</trkpt>
<trkpt lat="52.6957893371582" lon="13.07744026184082">
<ele>97.30000305175781</ele>
<time>2014-02-16T13:42:36Z</time>
</trkpt>
<trkpt lat="52.69577407836914" lon="13.077512741088867">
<ele>97.30000305175781</ele>
<time>2014-02-16T13:42:37Z</time>
</trkpt>
<trkpt lat="52.69575500488281" lon="13.077585220336914">
<ele>97.30000305175781</ele>
<time>2014-02-16T13:42:38Z</time>
</trkpt>
<trkpt lat="52.69573974609375" lon="13.077668190002441">
<ele>97.5</ele>
<time>2014-02-16T13:42:39Z</time>
</trkpt>
<trkpt lat="52.695709228515625" lon="13.077757835388184">
<ele>97.0999984741211</ele>
<time>2014-02-16T13:42:40Z</time>
</trkpt>
<trkpt lat="52.69568634033203" lon="13.077834129333496">
<ele>96.5</ele>
<time>2014-02-16T13:42:41Z</time>
</trkpt>
<trkpt lat="52.69566345214844" lon="13.07790470123291">
<ele>96.0999984741211</ele>
<time>2014-02-16T13:42:42Z</time>
</trkpt>
<trkpt lat="52.69562911987305" lon="13.078044891357422">
<ele>95.5</ele>
<time>2014-02-16T13:42:44Z</time>
</trkpt>
<trkpt lat="52.69559860229492" lon="13.078129768371582">
<ele>94.4000015258789</ele>
<time>2014-02-16T13:42:45Z</time>
</trkpt>
<trkpt lat="52.69557189941406" lon="13.078269958496094">
<ele>94.0999984741211</ele>
<time>2014-02-16T13:42:47Z</time>
</trkpt>
<trkpt lat="52.69556427001953" lon="13.078343391418457">
<ele>93.69999694824219</ele>
<time>2014-02-16T13:42:48Z</time>
</trkpt>
<trkpt lat="52.695526123046875" lon="13.078426361083984">
<ele>93.19999694824219</ele>
<time>2014-02-16T13:42:49Z</time>
</trkpt>
<trkpt lat="52.695499420166016" lon="13.07851505279541">
<ele>93.0999984741211</ele>
<time>2014-02-16T13:42:50Z</time>
</trkpt>
<trkpt lat="52.69548034667969" lon="13.078591346740723">
<ele>93.0999984741211</ele>
<time>2014-02-16T13:42:52Z</time>
</trkpt>
<trkpt lat="52.6954345703125" lon="13.078784942626953">
<ele>91.9000015258789</ele>
<time>2014-02-16T13:42:53Z</time>
</trkpt>
<trkpt lat="52.69541549682617" lon="13.078873634338379">
<ele>91.69999694824219</ele>
<time>2014-02-16T13:42:54Z</time>
</trkpt>
<trkpt lat="52.69539260864258" lon="13.078985214233398">
<ele>92.0</ele>
<time>2014-02-16T13:42:55Z</time>
</trkpt>
<trkpt lat="52.695369720458984" lon="13.079107284545898">
<ele>91.9000015258789</ele>
<time>2014-02-16T13:42:57Z</time>
</trkpt>
<trkpt lat="52.695350646972656" lon="13.07919979095459">
<ele>91.9000015258789</ele>
<time>2014-02-16T13:42:58Z</time>
</trkpt>
<trkpt lat="52.6953239440918" lon="13.07929801940918">
<ele>91.80000305175781</ele>
<time>2014-02-16T13:42:59Z</time>
</trkpt>
<trkpt lat="52.6953125" lon="13.079384803771973">
<ele>91.69999694824219</ele>
<time>2014-02-16T13:43:00Z</time>
</trkpt>
<trkpt lat="52.69529342651367" lon="13.079463958740234">
<ele>91.5999984741211</ele>
<time>2014-02-16T13:43:01Z</time>
</trkpt>
<trkpt lat="52.69527053833008" lon="13.079588890075684">
<ele>89.9000015258789</ele>
<time>2014-02-16T13:43:03Z</time>
</trkpt>
<trkpt lat="52.695247650146484" lon="13.079668998718262">
<ele>90.0</ele>
<time>2014-02-16T13:43:04Z</time>
</trkpt>
<trkpt lat="52.695255279541016" lon="13.079792022705078">
<ele>88.9000015258789</ele>
<time>2014-02-16T13:43:06Z</time>
</trkpt>
<trkpt lat="52.695220947265625" lon="13.079889297485352">
<ele>88.5999984741211</ele>
<time>2014-02-16T13:43:07Z</time>
</trkpt>
<trkpt lat="52.6952018737793" lon="13.079959869384766">
<ele>87.69999694824219</ele>
<time>2014-02-16T13:43:08Z</time>
</trkpt>
<trkpt lat="52.695167541503906" lon="13.080109596252441">
<ele>87.5</ele>
<time>2014-02-16T13:43:10Z</time>
</trkpt>
<trkpt lat="52.69516372680664" lon="13.080259323120117">
<ele>86.9000015258789</ele>
<time>2014-02-16T13:43:12Z</time>
</trkpt>
<trkpt lat="52.69514846801758" lon="13.080348014831543">
<ele>86.69999694824219</ele>
<time>2014-02-16T13:43:13Z</time>
</trkpt>
<trkpt lat="52.69511413574219" lon="13.080430030822754">
<ele>86.4000015258789</ele>
<time>2014-02-16T13:43:14Z</time>
</trkpt>
<trkpt lat="52.695106506347656" lon="13.080507278442383">
<ele>86.4000015258789</ele>
<time>2014-02-16T13:43:15Z</time>
</trkpt>
<trkpt lat="52.69510269165039" lon="13.080587387084961">
<ele>86.30000305175781</ele>
<time>2014-02-16T13:43:16Z</time>
</trkpt>
<trkpt lat="52.695098876953125" lon="13.080663681030273">
<ele>86.19999694824219</ele>
<time>2014-02-16T13:43:17Z</time>
</trkpt>
<trkpt lat="52.695068359375" lon="13.080753326416016">
<ele>86.4000015258789</ele>
<time>2014-02-16T13:43:18Z</time>
</trkpt>
<trkpt lat="52.69506072998047" lon="13.080833435058594">
<ele>86.5</ele>
<time>2014-02-16T13:43:19Z</time>
</trkpt>
<trkpt lat="52.69506072998047" lon="13.080918312072754">
<ele>86.4000015258789</ele>
<time>2014-02-16T13:43:20Z</time>
</trkpt>
<trkpt lat="52.69505310058594" lon="13.080997467041016">
<ele>86.80000305175781</ele>
<time>2014-02-16T13:43:21Z</time>
</trkpt>
<trkpt lat="52.695037841796875" lon="13.081076622009277">
<ele>86.9000015258789</ele>
<time>2014-02-16T13:43:22Z</time>
</trkpt>
<trkpt lat="52.695037841796875" lon="13.08115291595459">
<ele>86.9000015258789</ele>
<time>2014-02-16T13:43:23Z</time>
</trkpt>
<trkpt lat="52.69502639770508" lon="13.081266403198242">
<ele>86.9000015258789</ele>
<time>2014-02-16T13:43:24Z</time>
</trkpt>
<trkpt lat="52.69500732421875" lon="13.081366539001465">
<ele>87.0999984741211</ele>
<time>2014-02-16T13:43:25Z</time>
</trkpt>
<trkpt lat="52.69500732421875" lon="13.081449508666992">
<ele>87.0</ele>
<time>2014-02-16T13:43:26Z</time>
</trkpt>
<trkpt lat="52.69499969482422" lon="13.081585884094238">
<ele>85.19999694824219</ele>
<time>2014-02-16T13:43:28Z</time>
</trkpt>
<trkpt lat="52.69499969482422" lon="13.081666946411133">
<ele>85.0</ele>
<time>2014-02-16T13:43:29Z</time>
</trkpt>
<trkpt lat="52.69499588012695" lon="13.081747055053711">
<ele>84.9000015258789</ele>
<time>2014-02-16T13:43:30Z</time>
</trkpt>
<trkpt lat="52.69498825073242" lon="13.081828117370605">
<ele>85.0</ele>
<time>2014-02-16T13:43:31Z</time>
</trkpt>
<trkpt lat="52.69498062133789" lon="13.081911087036133">
<ele>85.30000305175781</ele>
<time>2014-02-16T13:43:32Z</time>
</trkpt>
<trkpt lat="52.69496536254883" lon="13.082060813903809">
<ele>83.5</ele>
<time>2014-02-16T13:43:34Z</time>
</trkpt>
<trkpt lat="52.694976806640625" lon="13.082136154174805">
<ele>84.5999984741211</ele>
<time>2014-02-16T13:43:35Z</time>
</trkpt>
<trkpt lat="52.694969177246094" lon="13.082286834716797">
<ele>85.19999694824219</ele>
<time>2014-02-16T13:43:37Z</time>
</trkpt>
<trkpt lat="52.694969177246094" lon="13.082362174987793">
<ele>85.9000015258789</ele>
<time>2014-02-16T13:43:38Z</time>
</trkpt>
<trkpt lat="52.69495391845703" lon="13.082509994506836">
<ele>84.9000015258789</ele>
<time>2014-02-16T13:43:40Z</time>
</trkpt>
<trkpt lat="52.6949462890625" lon="13.082588195800781">
<ele>85.0</ele>
<time>2014-02-16T13:43:41Z</time>
</trkpt>
<trkpt lat="52.69495391845703" lon="13.08271598815918">
<ele>86.80000305175781</ele>
<time>2014-02-16T13:43:43Z</time>
</trkpt>
<trkpt lat="52.69493865966797" lon="13.082845687866211">
<ele>87.0999984741211</ele>
<time>2014-02-16T13:43:45Z</time>
</trkpt>
<trkpt lat="52.694923400878906" lon="13.082976341247559">
<ele>84.80000305175781</ele>
<time>2014-02-16T13:43:47Z</time>
</trkpt>
<trkpt lat="52.69491958618164" lon="13.083112716674805">
<ele>84.80000305175781</ele>
<time>2014-02-16T13:43:49Z</time>
</trkpt>
<trkpt lat="52.694923400878906" lon="13.083252906799316">
<ele>85.5</ele>
<time>2014-02-16T13:43:51Z</time>
</trkpt>
<trkpt lat="52.694915771484375" lon="13.083332061767578">
<ele>85.5</ele>
<time>2014-02-16T13:43:52Z</time>
</trkpt>
<trkpt lat="52.694923400878906" lon="13.08340835571289">
<ele>85.4000015258789</ele>
<time>2014-02-16T13:43:53Z</time>
</trkpt>
<trkpt lat="52.69491958618164" lon="13.08348274230957">
<ele>85.4000015258789</ele>
<time>2014-02-16T13:43:54Z</time>
</trkpt>
<trkpt lat="52.69491958618164" lon="13.08356761932373">
<ele>85.4000015258789</ele>
<time>2014-02-16T13:43:55Z</time>
</trkpt>
<trkpt lat="52.69491195678711" lon="13.083686828613281">
<ele>87.0999984741211</ele>
<time>2014-02-16T13:43:56Z</time>
</trkpt>
<trkpt lat="52.694915771484375" lon="13.083772659301758">
<ele>87.30000305175781</ele>
<time>2014-02-16T13:43:57Z</time>
</trkpt>
<trkpt lat="52.69491195678711" lon="13.083868980407715">
<ele>86.4000015258789</ele>
<time>2014-02-16T13:43:58Z</time>
</trkpt>
<trkpt lat="52.69490432739258" lon="13.083965301513672">
<ele>86.19999694824219</ele>
<time>2014-02-16T13:43:59Z</time>
</trkpt>
<trkpt lat="52.69489669799805" lon="13.084051132202148">
<ele>85.19999694824219</ele>
<time>2014-02-16T13:44:00Z</time>
</trkpt>
<trkpt lat="52.694889068603516" lon="13.084136009216309">
<ele>83.80000305175781</ele>
<time>2014-02-16T13:44:01Z</time>
</trkpt>
<trkpt lat="52.69487380981445" lon="13.084230422973633">
<ele>82.9000015258789</ele>
<time>2014-02-16T13:44:02Z</time>
</trkpt>
<trkpt lat="52.69487380981445" lon="13.084312438964844">
<ele>82.69999694824219</ele>
<time>2014-02-16T13:44:03Z</time>
</trkpt>
<trkpt lat="52.69487380981445" lon="13.08440113067627">
<ele>82.80000305175781</ele>
<time>2014-02-16T13:44:04Z</time>
</trkpt>
<trkpt lat="52.69487762451172" lon="13.084515571594238">
<ele>82.30000305175781</ele>
<time>2014-02-16T13:44:05Z</time>
</trkpt>
<trkpt lat="52.69486999511719" lon="13.084609985351562">
<ele>82.0999984741211</ele>
<time>2014-02-16T13:44:06Z</time>
</trkpt>
<trkpt lat="52.69487380981445" lon="13.084693908691406">
<ele>82.0</ele>
<time>2014-02-16T13:44:07Z</time>
</trkpt>
<trkpt lat="52.69487762451172" lon="13.084785461425781">
<ele>81.9000015258789</ele>
<time>2014-02-16T13:44:08Z</time>
</trkpt>
<trkpt lat="52.69487380981445" lon="13.084881782531738">
<ele>81.9000015258789</ele>
<time>2014-02-16T13:44:09Z</time>
</trkpt>
<trkpt lat="52.69486999511719" lon="13.084978103637695">
<ele>81.9000015258789</ele>
<time>2014-02-16T13:44:10Z</time>
</trkpt>
<trkpt lat="52.69485855102539" lon="13.085092544555664">
<ele>81.80000305175781</ele>
<time>2014-02-16T13:44:11Z</time>
</trkpt>
<trkpt lat="52.69485092163086" lon="13.085192680358887">
<ele>81.80000305175781</ele>
<time>2014-02-16T13:44:12Z</time>
</trkpt>
<trkpt lat="52.69483184814453" lon="13.085331916809082">
<ele>81.5999984741211</ele>
<time>2014-02-16T13:44:13Z</time>
</trkpt>
<trkpt lat="52.6948356628418" lon="13.085423469543457">
<ele>81.5999984741211</ele>
<time>2014-02-16T13:44:14Z</time>
</trkpt>
<trkpt lat="52.694828033447266" lon="13.085525512695312">
<ele>81.5</ele>
<time>2014-02-16T13:44:15Z</time>
</trkpt>
<trkpt lat="52.69481658935547" lon="13.085624694824219">
<ele>81.5</ele>
<time>2014-02-16T13:44:16Z</time>
</trkpt>
<trkpt lat="52.69481658935547" lon="13.085748672485352">
<ele>81.5</ele>
<time>2014-02-16T13:44:17Z</time>
</trkpt>
<trkpt lat="52.6948127746582" lon="13.08583927154541">
<ele>81.69999694824219</ele>
<time>2014-02-16T13:44:18Z</time>
</trkpt>
<trkpt lat="52.69481658935547" lon="13.085945129394531">
<ele>82.4000015258789</ele>
<time>2014-02-16T13:44:19Z</time>
</trkpt>
<trkpt lat="52.69480895996094" lon="13.086041450500488">
<ele>82.5999984741211</ele>
<time>2014-02-16T13:44:20Z</time>
</trkpt>
<trkpt lat="52.69480895996094" lon="13.086136817932129">
<ele>82.5999984741211</ele>
<time>2014-02-16T13:44:21Z</time>
</trkpt>
<trkpt lat="52.694801330566406" lon="13.086247444152832">
<ele>83.19999694824219</ele>
<time>2014-02-16T13:44:22Z</time>
</trkpt>
<trkpt lat="52.694793701171875" lon="13.086350440979004">
<ele>83.5</ele>
<time>2014-02-16T13:44:23Z</time>
</trkpt>
<trkpt lat="52.69478988647461" lon="13.086440086364746">
<ele>83.19999694824219</ele>
<time>2014-02-16T13:44:25Z</time>
</trkpt>
<trkpt lat="52.69477844238281" lon="13.086555480957031">
<ele>83.0999984741211</ele>
<time>2014-02-16T13:44:25Z</time>
</trkpt>
<trkpt lat="52.69477462768555" lon="13.086662292480469">
<ele>83.0</ele>
<time>2014-02-16T13:44:26Z</time>
</trkpt>
<trkpt lat="52.69477081298828" lon="13.086758613586426">
<ele>82.9000015258789</ele>
<time>2014-02-16T13:44:27Z</time>
</trkpt>
<trkpt lat="52.69476318359375" lon="13.08687686920166">
<ele>82.69999694824219</ele>
<time>2014-02-16T13:44:28Z</time>
</trkpt>
<trkpt lat="52.69474411010742" lon="13.086982727050781">
<ele>82.0999984741211</ele>
<time>2014-02-16T13:44:29Z</time>
</trkpt>
<trkpt lat="52.69472885131836" lon="13.087081909179688">
<ele>82.0</ele>
<time>2014-02-16T13:44:30Z</time>
</trkpt>
<trkpt lat="52.69471740722656" lon="13.087167739868164">
<ele>82.30000305175781</ele>
<time>2014-02-16T13:44:31Z</time>
</trkpt>
<trkpt lat="52.69470977783203" lon="13.087271690368652">
<ele>82.0999984741211</ele>
<time>2014-02-16T13:44:32Z</time>
</trkpt>
<trkpt lat="52.6947021484375" lon="13.087376594543457">
<ele>82.19999694824219</ele>
<time>2014-02-16T13:44:33Z</time>
</trkpt>
<trkpt lat="52.6946907043457" lon="13.087474822998047">
<ele>82.19999694824219</ele>
<time>2014-02-16T13:44:34Z</time>
</trkpt>
<trkpt lat="52.694679260253906" lon="13.08758544921875">
<ele>82.19999694824219</ele>
<time>2014-02-16T13:44:35Z</time>
</trkpt>
<trkpt lat="52.69467544555664" lon="13.08768367767334">
<ele>82.5999984741211</ele>
<time>2014-02-16T13:44:36Z</time>
</trkpt>
<trkpt lat="52.69468688964844" lon="13.087767601013184">
<ele>82.69999694824219</ele>
<time>2014-02-16T13:44:37Z</time>
</trkpt>
<trkpt lat="52.69468688964844" lon="13.087855339050293">
<ele>82.69999694824219</ele>
<time>2014-02-16T13:44:38Z</time>
</trkpt>
<trkpt lat="52.6946907043457" lon="13.08794116973877">
<ele>83.19999694824219</ele>
<time>2014-02-16T13:44:39Z</time>
</trkpt>
<trkpt lat="52.69468307495117" lon="13.08803939819336">
<ele>83.0999984741211</ele>
<time>2014-02-16T13:44:40Z</time>
</trkpt>
<trkpt lat="52.694679260253906" lon="13.088133811950684">
<ele>83.0999984741211</ele>
<time>2014-02-16T13:44:41Z</time>
</trkpt>
<trkpt lat="52.69466781616211" lon="13.088216781616211">
<ele>82.0</ele>
<time>2014-02-16T13:44:42Z</time>
</trkpt>
<trkpt lat="52.69465637207031" lon="13.088305473327637">
<ele>81.69999694824219</ele>
<time>2014-02-16T13:44:43Z</time>
</trkpt>
<trkpt lat="52.69464874267578" lon="13.088398933410645">
<ele>81.5999984741211</ele>
<time>2014-02-16T13:44:44Z</time>
</trkpt>
<trkpt lat="52.694644927978516" lon="13.088484764099121">
<ele>81.30000305175781</ele>
<time>2014-02-16T13:44:45Z</time>
</trkpt>
<trkpt lat="52.69463348388672" lon="13.088566780090332">
<ele>81.4000015258789</ele>
<time>2014-02-16T13:44:46Z</time>
</trkpt>
<trkpt lat="52.69463348388672" lon="13.088647842407227">
<ele>81.4000015258789</ele>
<time>2014-02-16T13:44:47Z</time>
</trkpt>
<trkpt lat="52.694618225097656" lon="13.088735580444336">
<ele>81.5</ele>
<time>2014-02-16T13:44:48Z</time>
</trkpt>
<trkpt lat="52.694618225097656" lon="13.088814735412598">
<ele>81.9000015258789</ele>
<time>2014-02-16T13:44:49Z</time>
</trkpt>
<trkpt lat="52.694618225097656" lon="13.088899612426758">
<ele>82.19999694824219</ele>
<time>2014-02-16T13:44:50Z</time>
</trkpt>
<trkpt lat="52.694610595703125" lon="13.0889892578125">
<ele>82.0</ele>
<time>2014-02-16T13:44:51Z</time>
</trkpt>
<trkpt lat="52.69460678100586" lon="13.089072227478027">
<ele>81.69999694824219</ele>
<time>2014-02-16T13:44:52Z</time>
</trkpt>
<trkpt lat="52.694602966308594" lon="13.089155197143555">
<ele>82.0999984741211</ele>
<time>2014-02-16T13:44:53Z</time>
</trkpt>
<trkpt lat="52.694602966308594" lon="13.089244842529297">
<ele>83.80000305175781</ele>
<time>2014-02-16T13:44:54Z</time>
</trkpt>
<trkpt lat="52.694602966308594" lon="13.089340209960938">
<ele>85.69999694824219</ele>
<time>2014-02-16T13:44:55Z</time>
</trkpt>
<trkpt lat="52.69459915161133" lon="13.089424133300781">
<ele>85.5</ele>
<time>2014-02-16T13:44:56Z</time>
</trkpt>
<trkpt lat="52.69459533691406" lon="13.089502334594727">
<ele>85.5</ele>
<time>2014-02-16T13:44:57Z</time>
</trkpt>
<trkpt lat="52.69459533691406" lon="13.089581489562988">
<ele>86.30000305175781</ele>
<time>2014-02-16T13:44:58Z</time>
</trkpt>
<trkpt lat="52.69459533691406" lon="13.0896577835083">
<ele>86.9000015258789</ele>
<time>2014-02-16T13:44:59Z</time>
</trkpt>
<trkpt lat="52.6945915222168" lon="13.089810371398926">
<ele>86.80000305175781</ele>
<time>2014-02-16T13:45:01Z</time>
</trkpt>
<trkpt lat="52.69458770751953" lon="13.089960098266602">
<ele>87.5999984741211</ele>
<time>2014-02-16T13:45:03Z</time>
</trkpt>
<trkpt lat="52.694583892822266" lon="13.09004020690918">
<ele>86.9000015258789</ele>
<time>2014-02-16T13:45:04Z</time>
</trkpt>
<trkpt lat="52.694576263427734" lon="13.090117454528809">
<ele>86.5</ele>
<time>2014-02-16T13:45:05Z</time>
</trkpt>
<trkpt lat="52.6945686340332" lon="13.090195655822754">
<ele>86.30000305175781</ele>
<time>2014-02-16T13:45:06Z</time>
</trkpt>
<trkpt lat="52.69456481933594" lon="13.090272903442383">
<ele>86.19999694824219</ele>
<time>2014-02-16T13:45:07Z</time>
</trkpt>
<trkpt lat="52.694557189941406" lon="13.090351104736328">
<ele>86.19999694824219</ele>
<time>2014-02-16T13:45:08Z</time>
</trkpt>
<trkpt lat="52.694557189941406" lon="13.090429306030273">
<ele>86.19999694824219</ele>
<time>2014-02-16T13:45:09Z</time>
</trkpt>
<trkpt lat="52.69455337524414" lon="13.09050464630127">
<ele>86.69999694824219</ele>
<time>2014-02-16T13:45:10Z</time>
</trkpt>
<trkpt lat="52.694549560546875" lon="13.090643882751465">
<ele>87.80000305175781</ele>
<time>2014-02-16T13:45:12Z</time>
</trkpt>
<trkpt lat="52.694541931152344" lon="13.090723037719727">
<ele>88.5</ele>
<time>2014-02-16T13:45:13Z</time>
</trkpt>
<trkpt lat="52.694541931152344" lon="13.090871810913086">
<ele>89.30000305175781</ele>
<time>2014-02-16T13:45:15Z</time>
</trkpt>
<trkpt lat="52.69453048706055" lon="13.091019630432129">
<ele>89.4000015258789</ele>
<time>2014-02-16T13:45:17Z</time>
</trkpt>
<trkpt lat="52.69453048706055" lon="13.091094970703125">
<ele>90.0</ele>
<time>2014-02-16T13:45:18Z</time>
</trkpt>
<trkpt lat="52.69451904296875" lon="13.091236114501953">
<ele>90.30000305175781</ele>
<time>2014-02-16T13:45:20Z</time>
</trkpt>
<trkpt lat="52.694515228271484" lon="13.091382026672363">
<ele>90.69999694824219</ele>
<time>2014-02-16T13:45:22Z</time>
</trkpt>
<trkpt lat="52.69450759887695" lon="13.091529846191406">
<ele>92.4000015258789</ele>
<time>2014-02-16T13:45:24Z</time>
</trkpt>
<trkpt lat="52.69449996948242" lon="13.091680526733398">
<ele>92.80000305175781</ele>
<time>2014-02-16T13:45:26Z</time>
</trkpt>
<trkpt lat="52.69448471069336" lon="13.091760635375977">
<ele>92.80000305175781</ele>
<time>2014-02-16T13:45:27Z</time>
</trkpt>
<trkpt lat="52.69447708129883" lon="13.091839790344238">
<ele>92.30000305175781</ele>
<time>2014-02-16T13:45:28Z</time>
</trkpt>
<trkpt lat="52.69447326660156" lon="13.091919898986816">
<ele>92.4000015258789</ele>
<time>2014-02-16T13:45:29Z</time>
</trkpt>
<trkpt lat="52.69446563720703" lon="13.091996192932129">
<ele>92.4000015258789</ele>
<time>2014-02-16T13:45:30Z</time>
</trkpt>
<trkpt lat="52.694461822509766" lon="13.092077255249023">
<ele>92.5999984741211</ele>
<time>2014-02-16T13:45:31Z</time>
</trkpt>
<trkpt lat="52.694454193115234" lon="13.09215259552002">
<ele>92.4000015258789</ele>
<time>2014-02-16T13:45:32Z</time>
</trkpt>
<trkpt lat="52.6944465637207" lon="13.092232704162598">
<ele>91.69999694824219</ele>
<time>2014-02-16T13:45:33Z</time>
</trkpt>
<trkpt lat="52.69443893432617" lon="13.092313766479492">
<ele>91.9000015258789</ele>
<time>2014-02-16T13:45:34Z</time>
</trkpt>
<trkpt lat="52.694435119628906" lon="13.09239387512207">
<ele>91.4000015258789</ele>
<time>2014-02-16T13:45:35Z</time>
</trkpt>
<trkpt lat="52.694427490234375" lon="13.0924711227417">
<ele>91.69999694824219</ele>
<time>2014-02-16T13:45:36Z</time>
</trkpt>
<trkpt lat="52.694419860839844" lon="13.092547416687012">
<ele>91.5</ele>
<time>2014-02-16T13:45:37Z</time>
</trkpt>
<trkpt lat="52.69441223144531" lon="13.092637062072754">
<ele>91.0999984741211</ele>
<time>2014-02-16T13:45:38Z</time>
</trkpt>
<trkpt lat="52.69440841674805" lon="13.092711448669434">
<ele>90.80000305175781</ele>
<time>2014-02-16T13:45:39Z</time>
</trkpt>
<trkpt lat="52.69440841674805" lon="13.092795372009277">
<ele>90.80000305175781</ele>
<time>2014-02-16T13:45:40Z</time>
</trkpt>
<trkpt lat="52.69439697265625" lon="13.092883110046387">
<ele>90.69999694824219</ele>
<time>2014-02-16T13:45:41Z</time>
</trkpt>
<trkpt lat="52.69438934326172" lon="13.092963218688965">
<ele>90.0999984741211</ele>
<time>2014-02-16T13:45:42Z</time>
</trkpt>
<trkpt lat="52.69437789916992" lon="13.093056678771973">
<ele>89.69999694824219</ele>
<time>2014-02-16T13:45:43Z</time>
</trkpt>
<trkpt lat="52.694374084472656" lon="13.093147277832031">
<ele>89.4000015258789</ele>
<time>2014-02-16T13:45:44Z</time>
</trkpt>
<trkpt lat="52.694366455078125" lon="13.093236923217773">
<ele>88.80000305175781</ele>
<time>2014-02-16T13:45:45Z</time>
</trkpt>
<trkpt lat="52.694358825683594" lon="13.093328475952148">
<ele>88.80000305175781</ele>
<time>2014-02-16T13:45:46Z</time>
</trkpt>
<trkpt lat="52.69435501098633" lon="13.09342098236084">
<ele>89.0999984741211</ele>
<time>2014-02-16T13:45:47Z</time>
</trkpt>
<trkpt lat="52.6943473815918" lon="13.093510627746582">
<ele>89.0</ele>
<time>2014-02-16T13:45:48Z</time>
</trkpt>
<trkpt lat="52.6943359375" lon="13.093610763549805">
<ele>89.19999694824219</ele>
<time>2014-02-16T13:45:49Z</time>
</trkpt>
<trkpt lat="52.6943244934082" lon="13.093705177307129">
<ele>89.4000015258789</ele>
<time>2014-02-16T13:45:50Z</time>
</trkpt>
<trkpt lat="52.694313049316406" lon="13.09380054473877">
<ele>89.0999984741211</ele>
<time>2014-02-16T13:45:51Z</time>
</trkpt>
<trkpt lat="52.694305419921875" lon="13.093899726867676">
<ele>89.30000305175781</ele>
<time>2014-02-16T13:45:52Z</time>
</trkpt>
<trkpt lat="52.69429397583008" lon="13.093997955322266">
<ele>89.4000015258789</ele>
<time>2014-02-16T13:45:53Z</time>
</trkpt>
<trkpt lat="52.69428634643555" lon="13.094097137451172">
<ele>89.5</ele>
<time>2014-02-16T13:45:54Z</time>
</trkpt>
<trkpt lat="52.694278717041016" lon="13.09420108795166">
<ele>89.5999984741211</ele>
<time>2014-02-16T13:45:55Z</time>
</trkpt>
<trkpt lat="52.694271087646484" lon="13.094301223754883">
<ele>89.5999984741211</ele>
<time>2014-02-16T13:45:56Z</time>
</trkpt>
<trkpt lat="52.69426345825195" lon="13.094399452209473">
<ele>89.5999984741211</ele>
<time>2014-02-16T13:45:57Z</time>
</trkpt>
<trkpt lat="52.694252014160156" lon="13.094491958618164">
<ele>89.5</ele>
<time>2014-02-16T13:45:58Z</time>
</trkpt>
<trkpt lat="52.694244384765625" lon="13.094596862792969">
<ele>89.30000305175781</ele>
<time>2014-02-16T13:45:59Z</time>
</trkpt>
<trkpt lat="52.694236755371094" lon="13.094696998596191">
<ele>89.4000015258789</ele>
<time>2014-02-16T13:46:00Z</time>
</trkpt>
<trkpt lat="52.6942253112793" lon="13.094796180725098">
<ele>89.0999984741211</ele>
<time>2014-02-16T13:46:01Z</time>
</trkpt>
<trkpt lat="52.694217681884766" lon="13.094897270202637">
<ele>89.19999694824219</ele>
<time>2014-02-16T13:46:02Z</time>
</trkpt>
<trkpt lat="52.6942138671875" lon="13.094991683959961">
<ele>89.19999694824219</ele>
<time>2014-02-16T13:46:03Z</time>
</trkpt>
<trkpt lat="52.694210052490234" lon="13.09509563446045">
<ele>89.4000015258789</ele>
<time>2014-02-16T13:46:04Z</time>
</trkpt>
<trkpt lat="52.69420623779297" lon="13.095191955566406">
<ele>89.5</ele>
<time>2014-02-16T13:46:05Z</time>
</trkpt>
<trkpt lat="52.69420623779297" lon="13.095287322998047">
<ele>89.80000305175781</ele>
<time>2014-02-16T13:46:06Z</time>
</trkpt>
<trkpt lat="52.69420623779297" lon="13.095388412475586">
<ele>90.19999694824219</ele>
<time>2014-02-16T13:46:07Z</time>
</trkpt>
<trkpt lat="52.69420623779297" lon="13.095487594604492">
<ele>90.19999694824219</ele>
<time>2014-02-16T13:46:08Z</time>
</trkpt>
<trkpt lat="52.6942024230957" lon="13.095585823059082">
<ele>89.9000015258789</ele>
<time>2014-02-16T13:46:09Z</time>
</trkpt>
<trkpt lat="52.6942024230957" lon="13.095683097839355">
<ele>89.80000305175781</ele>
<time>2014-02-16T13:46:10Z</time>
</trkpt>
<trkpt lat="52.6942024230957" lon="13.095783233642578">
<ele>89.9000015258789</ele>
<time>2014-02-16T13:46:11Z</time>
</trkpt>
<trkpt lat="52.69419860839844" lon="13.095870018005371">
<ele>89.80000305175781</ele>
<time>2014-02-16T13:46:12Z</time>
</trkpt>
<trkpt lat="52.6942024230957" lon="13.095973014831543">
<ele>90.0999984741211</ele>
<time>2014-02-16T13:46:13Z</time>
</trkpt>
<trkpt lat="52.69419860839844" lon="13.0960693359375">
<ele>90.30000305175781</ele>
<time>2014-02-16T13:46:14Z</time>
</trkpt>
<trkpt lat="52.69419860839844" lon="13.096163749694824">
<ele>90.0999984741211</ele>
<time>2014-02-16T13:46:15Z</time>
</trkpt>
<trkpt lat="52.69419860839844" lon="13.09626293182373">
<ele>89.9000015258789</ele>
<time>2014-02-16T13:46:16Z</time>
</trkpt>
<trkpt lat="52.69419860839844" lon="13.096363067626953">
<ele>89.9000015258789</ele>
<time>2014-02-16T13:46:17Z</time>
</trkpt>
<trkpt lat="52.69419860839844" lon="13.096460342407227">
<ele>90.0</ele>
<time>2014-02-16T13:46:18Z</time>
</trkpt>
<trkpt lat="52.6942024230957" lon="13.096559524536133">
<ele>89.9000015258789</ele>
<time>2014-02-16T13:46:19Z</time>
</trkpt>
<trkpt lat="52.6942024230957" lon="13.096663475036621">
<ele>90.0</ele>
<time>2014-02-16T13:46:20Z</time>
</trkpt>
<trkpt lat="52.69419860839844" lon="13.096765518188477">
<ele>89.9000015258789</ele>
<time>2014-02-16T13:46:21Z</time>
</trkpt>
<trkpt lat="52.69419479370117" lon="13.096870422363281">
<ele>89.69999694824219</ele>
<time>2014-02-16T13:46:22Z</time>
</trkpt>
<trkpt lat="52.69419479370117" lon="13.09697437286377">
<ele>90.0</ele>
<time>2014-02-16T13:46:23Z</time>
</trkpt>
<trkpt lat="52.69419479370117" lon="13.097076416015625">
<ele>89.9000015258789</ele>
<time>2014-02-16T13:46:24Z</time>
</trkpt>
<trkpt lat="52.69419479370117" lon="13.097177505493164">
<ele>89.9000015258789</ele>
<time>2014-02-16T13:46:25Z</time>
</trkpt>
<trkpt lat="52.69419860839844" lon="13.09727954864502">
<ele>89.69999694824219</ele>
<time>2014-02-16T13:46:26Z</time>
</trkpt>
<trkpt lat="52.694190979003906" lon="13.097382545471191">
<ele>89.5</ele>
<time>2014-02-16T13:46:27Z</time>
</trkpt>
<trkpt lat="52.694190979003906" lon="13.097478866577148">
<ele>89.4000015258789</ele>
<time>2014-02-16T13:46:28Z</time>
</trkpt>
<trkpt lat="52.694190979003906" lon="13.097578048706055">
<ele>89.30000305175781</ele>
<time>2014-02-16T13:46:29Z</time>
</trkpt>
<trkpt lat="52.69418716430664" lon="13.097678184509277">
<ele>89.4000015258789</ele>
<time>2014-02-16T13:46:30Z</time>
</trkpt>
<trkpt lat="52.694183349609375" lon="13.097780227661133">
<ele>89.5999984741211</ele>
<time>2014-02-16T13:46:31Z</time>
</trkpt>
<trkpt lat="52.694183349609375" lon="13.097883224487305">
<ele>89.5999984741211</ele>
<time>2014-02-16T13:46:32Z</time>
</trkpt>
<trkpt lat="52.694190979003906" lon="13.097979545593262">
<ele>89.5</ele>
<time>2014-02-16T13:46:33Z</time>
</trkpt>
<trkpt lat="52.694190979003906" lon="13.098082542419434">
<ele>89.5</ele>
<time>2014-02-16T13:46:34Z</time>
</trkpt>
<trkpt lat="52.69419479370117" lon="13.098176002502441">
<ele>89.4000015258789</ele>
<time>2014-02-16T13:46:35Z</time>
</trkpt>
<trkpt lat="52.69419479370117" lon="13.098278999328613">
<ele>89.30000305175781</ele>
<time>2014-02-16T13:46:36Z</time>
</trkpt>
<trkpt lat="52.69419860839844" lon="13.098379135131836">
<ele>89.4000015258789</ele>
<time>2014-02-16T13:46:37Z</time>
</trkpt>
<trkpt lat="52.6942024230957" lon="13.098480224609375">
<ele>89.5999984741211</ele>
<time>2014-02-16T13:46:38Z</time>
</trkpt>
<trkpt lat="52.69420623779297" lon="13.098580360412598">
<ele>89.69999694824219</ele>
<time>2014-02-16T13:46:39Z</time>
</trkpt>
<trkpt lat="52.694210052490234" lon="13.098679542541504">
<ele>90.0</ele>
<time>2014-02-16T13:46:40Z</time>
</trkpt>
<trkpt lat="52.6942138671875" lon="13.09877872467041">
<ele>90.19999694824219</ele>
<time>2014-02-16T13:46:41Z</time>
</trkpt>
<trkpt lat="52.6942138671875" lon="13.098875045776367">
<ele>90.0</ele>
<time>2014-02-16T13:46:42Z</time>
</trkpt>
<trkpt lat="52.694217681884766" lon="13.09897518157959">
<ele>90.0999984741211</ele>
<time>2014-02-16T13:46:43Z</time>
</trkpt>
<trkpt lat="52.69422149658203" lon="13.099076271057129">
<ele>89.9000015258789</ele>
<time>2014-02-16T13:46:44Z</time>
</trkpt>
<trkpt lat="52.6942253112793" lon="13.099176406860352">
<ele>90.0999984741211</ele>
<time>2014-02-16T13:46:45Z</time>
</trkpt>
<trkpt lat="52.69422912597656" lon="13.09927749633789">
<ele>90.0999984741211</ele>
<time>2014-02-16T13:46:46Z</time>
</trkpt>
<trkpt lat="52.69423294067383" lon="13.099380493164062">
<ele>90.0999984741211</ele>
<time>2014-02-16T13:46:47Z</time>
</trkpt>
<trkpt lat="52.694236755371094" lon="13.099485397338867">
<ele>90.0</ele>
<time>2014-02-16T13:46:48Z</time>
</trkpt>
<trkpt lat="52.694244384765625" lon="13.099590301513672">
<ele>90.0</ele>
<time>2014-02-16T13:46:49Z</time>
</trkpt>
<trkpt lat="52.694244384765625" lon="13.09969711303711">
<ele>90.19999694824219</ele>
<time>2014-02-16T13:46:50Z</time>
</trkpt>
<trkpt lat="52.694244384765625" lon="13.099804878234863">
<ele>90.0</ele>
<time>2014-02-16T13:46:51Z</time>
</trkpt>
<trkpt lat="52.69424819946289" lon="13.099913597106934">
<ele>89.9000015258789</ele>
<time>2014-02-16T13:46:52Z</time>
</trkpt>
<trkpt lat="52.694252014160156" lon="13.10002326965332">
<ele>89.9000015258789</ele>
<time>2014-02-16T13:46:53Z</time>
</trkpt>
<trkpt lat="52.69425964355469" lon="13.100133895874023">
<ele>90.0999984741211</ele>
<time>2014-02-16T13:46:54Z</time>
</trkpt>
<trkpt lat="52.69425964355469" lon="13.100244522094727">
<ele>90.0999984741211</ele>
<time>2014-02-16T13:46:55Z</time>
</trkpt>
<trkpt lat="52.69426345825195" lon="13.100354194641113">
<ele>90.19999694824219</ele>
<time>2014-02-16T13:46:56Z</time>
</trkpt>
<trkpt lat="52.69426727294922" lon="13.1004638671875">
<ele>90.30000305175781</ele>
<time>2014-02-16T13:46:57Z</time>
</trkpt>
<trkpt lat="52.694271087646484" lon="13.100569725036621">
<ele>90.4000015258789</ele>
<time>2014-02-16T13:46:58Z</time>
</trkpt>
<trkpt lat="52.69427490234375" lon="13.100674629211426">
<ele>90.4000015258789</ele>
<time>2014-02-16T13:46:59Z</time>
</trkpt>
<trkpt lat="52.69427490234375" lon="13.100778579711914">
<ele>90.19999694824219</ele>
<time>2014-02-16T13:47:00Z</time>
</trkpt>
<trkpt lat="52.69428253173828" lon="13.100885391235352">
<ele>90.30000305175781</ele>
<time>2014-02-16T13:47:01Z</time>
</trkpt>
<trkpt lat="52.69428634643555" lon="13.10098934173584">
<ele>90.0999984741211</ele>
<time>2014-02-16T13:47:02Z</time>
</trkpt>
<trkpt lat="52.69428634643555" lon="13.101093292236328">
<ele>90.0999984741211</ele>
<time>2014-02-16T13:47:03Z</time>
</trkpt>
<trkpt lat="52.69429016113281" lon="13.101198196411133">
<ele>90.19999694824219</ele>
<time>2014-02-16T13:47:04Z</time>
</trkpt>
<trkpt lat="52.694297790527344" lon="13.101297378540039">
<ele>90.19999694824219</ele>
<time>2014-02-16T13:47:05Z</time>
</trkpt>
<trkpt lat="52.69430160522461" lon="13.101402282714844">
<ele>89.9000015258789</ele>
<time>2014-02-16T13:47:06Z</time>
</trkpt>
<trkpt lat="52.69430923461914" lon="13.101507186889648">
<ele>90.0999984741211</ele>
<time>2014-02-16T13:47:07Z</time>
</trkpt>
<trkpt lat="52.694313049316406" lon="13.101609230041504">
<ele>90.5</ele>
<time>2014-02-16T13:47:08Z</time>
</trkpt>
<trkpt lat="52.69432067871094" lon="13.101712226867676">
<ele>90.69999694824219</ele>
<time>2014-02-16T13:47:09Z</time>
</trkpt>
<trkpt lat="52.6943244934082" lon="13.101814270019531">
<ele>90.69999694824219</ele>
<time>2014-02-16T13:47:10Z</time>
</trkpt>
<trkpt lat="52.694332122802734" lon="13.101916313171387">
<ele>90.69999694824219</ele>
<time>2014-02-16T13:47:11Z</time>
</trkpt>
<trkpt lat="52.694339752197266" lon="13.10201358795166">
<ele>90.4000015258789</ele>
<time>2014-02-16T13:47:12Z</time>
</trkpt>
<trkpt lat="52.69435119628906" lon="13.102109909057617">
<ele>90.5</ele>
<time>2014-02-16T13:47:13Z</time>
</trkpt>
<trkpt lat="52.694366455078125" lon="13.102206230163574">
<ele>90.5999984741211</ele>
<time>2014-02-16T13:47:14Z</time>
</trkpt>
<trkpt lat="52.69437789916992" lon="13.102299690246582">
<ele>90.5</ele>
<time>2014-02-16T13:47:15Z</time>
</trkpt>
<trkpt lat="52.69438934326172" lon="13.102391242980957">
<ele>90.5999984741211</ele>
<time>2014-02-16T13:47:16Z</time>
</trkpt>
<trkpt lat="52.694400787353516" lon="13.102483749389648">
<ele>90.5999984741211</ele>
<time>2014-02-16T13:47:17Z</time>
</trkpt>
<trkpt lat="52.69441223144531" lon="13.102579116821289">
<ele>90.80000305175781</ele>
<time>2014-02-16T13:47:18Z</time>
</trkpt>
<trkpt lat="52.694427490234375" lon="13.10267448425293">
<ele>90.80000305175781</ele>
<time>2014-02-16T13:47:19Z</time>
</trkpt>
<trkpt lat="52.69443893432617" lon="13.102766990661621">
<ele>91.0</ele>
<time>2014-02-16T13:47:20Z</time>
</trkpt>
<trkpt lat="52.6944580078125" lon="13.102856636047363">
<ele>90.9000015258789</ele>
<time>2014-02-16T13:47:21Z</time>
</trkpt>
<trkpt lat="52.6944694519043" lon="13.102945327758789">
<ele>91.0999984741211</ele>
<time>2014-02-16T13:47:22Z</time>
</trkpt>
<trkpt lat="52.694480895996094" lon="13.10303783416748">
<ele>91.4000015258789</ele>
<time>2014-02-16T13:47:23Z</time>
</trkpt>
<trkpt lat="52.69449234008789" lon="13.103134155273438">
<ele>91.5999984741211</ele>
<time>2014-02-16T13:47:24Z</time>
</trkpt>
<trkpt lat="52.69450378417969" lon="13.103219985961914">
<ele>91.5999984741211</ele>
<time>2014-02-16T13:47:25Z</time>
</trkpt>
<trkpt lat="52.69451904296875" lon="13.103310585021973">
<ele>91.80000305175781</ele>
<time>2014-02-16T13:47:26Z</time>
</trkpt>
<trkpt lat="52.69453048706055" lon="13.103402137756348">
<ele>91.9000015258789</ele>
<time>2014-02-16T13:47:27Z</time>
</trkpt>
<trkpt lat="52.694541931152344" lon="13.103490829467773">
<ele>92.0</ele>
<time>2014-02-16T13:47:28Z</time>
</trkpt>
<trkpt lat="52.694557189941406" lon="13.103584289550781">
<ele>92.0</ele>
<time>2014-02-16T13:47:29Z</time>
</trkpt>
<trkpt lat="52.6945686340332" lon="13.103671073913574">
<ele>92.0</ele>
<time>2014-02-16T13:47:30Z</time>
</trkpt>
<trkpt lat="52.694583892822266" lon="13.103758811950684">
<ele>92.19999694824219</ele>
<time>2014-02-16T13:47:31Z</time>
</trkpt>
<trkpt lat="52.694602966308594" lon="13.103851318359375">
<ele>92.0999984741211</ele>
<time>2014-02-16T13:47:32Z</time>
</trkpt>
<trkpt lat="52.694618225097656" lon="13.103944778442383">
<ele>92.30000305175781</ele>
<time>2014-02-16T13:47:33Z</time>
</trkpt>
<trkpt lat="52.69462966918945" lon="13.104042053222656">
<ele>92.19999694824219</ele>
<time>2014-02-16T13:47:34Z</time>
</trkpt>
<trkpt lat="52.694644927978516" lon="13.104126930236816">
<ele>92.19999694824219</ele>
<time>2014-02-16T13:47:35Z</time>
</trkpt>
<trkpt lat="52.69465637207031" lon="13.104208946228027">
<ele>91.9000015258789</ele>
<time>2014-02-16T13:47:36Z</time>
</trkpt>
<trkpt lat="52.69466781616211" lon="13.104301452636719">
<ele>92.19999694824219</ele>
<time>2014-02-16T13:47:37Z</time>
</trkpt>
<trkpt lat="52.694679260253906" lon="13.104391098022461">
<ele>92.0</ele>
<time>2014-02-16T13:47:38Z</time>
</trkpt>
<trkpt lat="52.69469451904297" lon="13.104475021362305">
<ele>92.19999694824219</ele>
<time>2014-02-16T13:47:39Z</time>
</trkpt>
<trkpt lat="52.6947135925293" lon="13.1045560836792">
<ele>92.30000305175781</ele>
<time>2014-02-16T13:47:40Z</time>
</trkpt>
<trkpt lat="52.69472122192383" lon="13.104654312133789">
<ele>92.5</ele>
<time>2014-02-16T13:47:41Z</time>
</trkpt>
<trkpt lat="52.694732666015625" lon="13.104743957519531">
<ele>92.4000015258789</ele>
<time>2014-02-16T13:47:42Z</time>
</trkpt>
<trkpt lat="52.69474411010742" lon="13.104833602905273">
<ele>92.4000015258789</ele>
<time>2014-02-16T13:47:43Z</time>
</trkpt>
<trkpt lat="52.694759368896484" lon="13.104924201965332">
<ele>92.5999984741211</ele>
<time>2014-02-16T13:47:44Z</time>
</trkpt>
<trkpt lat="52.69477081298828" lon="13.105024337768555">
<ele>92.69999694824219</ele>
<time>2014-02-16T13:47:45Z</time>
</trkpt>
<trkpt lat="52.69477844238281" lon="13.105112075805664">
<ele>92.80000305175781</ele>
<time>2014-02-16T13:47:46Z</time>
</trkpt>
<trkpt lat="52.69478988647461" lon="13.105205535888672">
<ele>92.5999984741211</ele>
<time>2014-02-16T13:47:47Z</time>
</trkpt>
<trkpt lat="52.69480514526367" lon="13.105293273925781">
<ele>92.5999984741211</ele>
<time>2014-02-16T13:47:48Z</time>
</trkpt>
<trkpt lat="52.694820404052734" lon="13.105378150939941">
<ele>92.5999984741211</ele>
<time>2014-02-16T13:47:49Z</time>
</trkpt>
<trkpt lat="52.69483184814453" lon="13.105467796325684">
<ele>92.5</ele>
<time>2014-02-16T13:47:50Z</time>
</trkpt>
<trkpt lat="52.694847106933594" lon="13.105560302734375">
<ele>92.4000015258789</ele>
<time>2014-02-16T13:47:51Z</time>
</trkpt>
<trkpt lat="52.69485855102539" lon="13.105648040771484">
<ele>92.30000305175781</ele>
<time>2014-02-16T13:47:52Z</time>
</trkpt>
<trkpt lat="52.69487380981445" lon="13.105738639831543">
<ele>92.30000305175781</ele>
<time>2014-02-16T13:47:53Z</time>
</trkpt>
<trkpt lat="52.694889068603516" lon="13.105831146240234">
<ele>92.5</ele>
<time>2014-02-16T13:47:54Z</time>
</trkpt>
<trkpt lat="52.69490432739258" lon="13.105918884277344">
<ele>92.4000015258789</ele>
<time>2014-02-16T13:47:55Z</time>
</trkpt>
<trkpt lat="52.694915771484375" lon="13.106006622314453">
<ele>92.5999984741211</ele>
<time>2014-02-16T13:47:56Z</time>
</trkpt>
<trkpt lat="52.69492721557617" lon="13.106093406677246">
<ele>92.80000305175781</ele>
<time>2014-02-16T13:47:57Z</time>
</trkpt>
<trkpt lat="52.694942474365234" lon="13.106180191040039">
<ele>93.0</ele>
<time>2014-02-16T13:47:58Z</time>
</trkpt>
<trkpt lat="52.69495391845703" lon="13.106266021728516">
<ele>93.0</ele>
<time>2014-02-16T13:47:59Z</time>
</trkpt>
<trkpt lat="52.69496536254883" lon="13.106356620788574">
<ele>92.80000305175781</ele>
<time>2014-02-16T13:48:00Z</time>
</trkpt>
<trkpt lat="52.694976806640625" lon="13.106444358825684">
<ele>92.80000305175781</ele>
<time>2014-02-16T13:48:01Z</time>
</trkpt>
<trkpt lat="52.69498825073242" lon="13.106532096862793">
<ele>92.9000015258789</ele>
<time>2014-02-16T13:48:02Z</time>
</trkpt>
<trkpt lat="52.695011138916016" lon="13.106607437133789">
<ele>93.19999694824219</ele>
<time>2014-02-16T13:48:03Z</time>
</trkpt>
<trkpt lat="52.69502258300781" lon="13.106697082519531">
<ele>93.30000305175781</ele>
<time>2014-02-16T13:48:04Z</time>
</trkpt>
<trkpt lat="52.69503402709961" lon="13.106788635253906">
<ele>93.5999984741211</ele>
<time>2014-02-16T13:48:05Z</time>
</trkpt>
<trkpt lat="52.695045471191406" lon="13.10688304901123">
<ele>93.9000015258789</ele>
<time>2014-02-16T13:48:06Z</time>
</trkpt>
<trkpt lat="52.69506072998047" lon="13.106975555419922">
<ele>94.0</ele>
<time>2014-02-16T13:48:07Z</time>
</trkpt>
<trkpt lat="52.695072174072266" lon="13.107061386108398">
<ele>94.0</ele>
<time>2014-02-16T13:48:08Z</time>
</trkpt>
<trkpt lat="52.69508743286133" lon="13.107157707214355">
<ele>93.9000015258789</ele>
<time>2014-02-16T13:48:09Z</time>
</trkpt>
<trkpt lat="52.695098876953125" lon="13.107247352600098">
<ele>93.5999984741211</ele>
<time>2014-02-16T13:48:10Z</time>
</trkpt>
<trkpt lat="52.69511032104492" lon="13.107331275939941">
<ele>93.30000305175781</ele>
<time>2014-02-16T13:48:11Z</time>
</trkpt>
<trkpt lat="52.69512176513672" lon="13.107417106628418">
<ele>92.9000015258789</ele>
<time>2014-02-16T13:48:12Z</time>
</trkpt>
<trkpt lat="52.69513702392578" lon="13.107507705688477">
<ele>92.69999694824219</ele>
<time>2014-02-16T13:48:13Z</time>
</trkpt>
<trkpt lat="52.695152282714844" lon="13.107595443725586">
<ele>93.0</ele>
<time>2014-02-16T13:48:14Z</time>
</trkpt>
<trkpt lat="52.69516372680664" lon="13.107681274414062">
<ele>93.30000305175781</ele>
<time>2014-02-16T13:48:15Z</time>
</trkpt>
<trkpt lat="52.6951789855957" lon="13.10776424407959">
<ele>93.0999984741211</ele>
<time>2014-02-16T13:48:16Z</time>
</trkpt>
<trkpt lat="52.6951904296875" lon="13.10785961151123">
<ele>92.9000015258789</ele>
<time>2014-02-16T13:48:17Z</time>
</trkpt>
<trkpt lat="52.69520568847656" lon="13.107949256896973">
<ele>92.80000305175781</ele>
<time>2014-02-16T13:48:18Z</time>
</trkpt>
<trkpt lat="52.695220947265625" lon="13.108038902282715">
<ele>92.9000015258789</ele>
<time>2014-02-16T13:48:19Z</time>
</trkpt>
<trkpt lat="52.69523620605469" lon="13.108139991760254">
<ele>93.30000305175781</ele>
<time>2014-02-16T13:48:20Z</time>
</trkpt>
<trkpt lat="52.695247650146484" lon="13.108230590820312">
<ele>93.0999984741211</ele>
<time>2014-02-16T13:48:21Z</time>
</trkpt>
<trkpt lat="52.69526290893555" lon="13.108322143554688">
<ele>93.19999694824219</ele>
<time>2014-02-16T13:48:22Z</time>
</trkpt>
<trkpt lat="52.69527816772461" lon="13.108407020568848">
<ele>93.19999694824219</ele>
<time>2014-02-16T13:48:23Z</time>
</trkpt>
<trkpt lat="52.695281982421875" lon="13.10850715637207">
<ele>93.0</ele>
<time>2014-02-16T13:48:24Z</time>
</trkpt>
<trkpt lat="52.69529724121094" lon="13.108601570129395">
<ele>93.0</ele>
<time>2014-02-16T13:48:25Z</time>
</trkpt>
<trkpt lat="52.6953125" lon="13.108691215515137">
<ele>92.9000015258789</ele>
<time>2014-02-16T13:48:26Z</time>
</trkpt>
<trkpt lat="52.69533157348633" lon="13.10877799987793">
<ele>93.0</ele>
<time>2014-02-16T13:48:27Z</time>
</trkpt>
<trkpt lat="52.69534683227539" lon="13.108866691589355">
<ele>92.9000015258789</ele>
<time>2014-02-16T13:48:28Z</time>
</trkpt>
<trkpt lat="52.69535827636719" lon="13.108940124511719">
<ele>92.69999694824219</ele>
<time>2014-02-16T13:48:29Z</time>
</trkpt>
<trkpt lat="52.69537353515625" lon="13.109028816223145">
<ele>92.4000015258789</ele>
<time>2014-02-16T13:48:30Z</time>
</trkpt>
<trkpt lat="52.695396423339844" lon="13.109124183654785">
<ele>92.0999984741211</ele>
<time>2014-02-16T13:48:31Z</time>
</trkpt>
<trkpt lat="52.69540786743164" lon="13.109213829040527">
<ele>92.19999694824219</ele>
<time>2014-02-16T13:48:32Z</time>
</trkpt>
<trkpt lat="52.69541931152344" lon="13.109306335449219">
<ele>92.0999984741211</ele>
<time>2014-02-16T13:48:33Z</time>
</trkpt>
<trkpt lat="52.6954345703125" lon="13.109411239624023">
<ele>92.19999694824219</ele>
<time>2014-02-16T13:48:34Z</time>
</trkpt>
<trkpt lat="52.69544982910156" lon="13.109522819519043">
<ele>93.4000015258789</ele>
<time>2014-02-16T13:48:35Z</time>
</trkpt>
<trkpt lat="52.69546890258789" lon="13.109614372253418">
<ele>93.5</ele>
<time>2014-02-16T13:48:36Z</time>
</trkpt>
<trkpt lat="52.69548034667969" lon="13.109712600708008">
<ele>94.0</ele>
<time>2014-02-16T13:48:37Z</time>
</trkpt>
<trkpt lat="52.69549560546875" lon="13.109793663024902">
<ele>93.30000305175781</ele>
<time>2014-02-16T13:48:38Z</time>
</trkpt>
<trkpt lat="52.69550704956055" lon="13.109889030456543">
<ele>93.19999694824219</ele>
<time>2014-02-16T13:48:39Z</time>
</trkpt>
<trkpt lat="52.69552230834961" lon="13.10997486114502">
<ele>93.19999694824219</ele>
<time>2014-02-16T13:48:40Z</time>
</trkpt>
<trkpt lat="52.695533752441406" lon="13.110058784484863">
<ele>93.5</ele>
<time>2014-02-16T13:48:41Z</time>
</trkpt>
<trkpt lat="52.69554901123047" lon="13.110151290893555">
<ele>93.19999694824219</ele>
<time>2014-02-16T13:48:42Z</time>
</trkpt>
<trkpt lat="52.69557189941406" lon="13.11023998260498">
<ele>93.19999694824219</ele>
<time>2014-02-16T13:48:43Z</time>
</trkpt>
<trkpt lat="52.69559860229492" lon="13.110313415527344">
<ele>92.5</ele>
<time>2014-02-16T13:48:44Z</time>
</trkpt>
<trkpt lat="52.69562530517578" lon="13.11039924621582">
<ele>92.5999984741211</ele>
<time>2014-02-16T13:48:45Z</time>
</trkpt>
<trkpt lat="52.69565200805664" lon="13.110479354858398">
<ele>92.5999984741211</ele>
<time>2014-02-16T13:48:46Z</time>
</trkpt>
<trkpt lat="52.6956787109375" lon="13.110562324523926">
<ele>92.4000015258789</ele>
<time>2014-02-16T13:48:47Z</time>
</trkpt>
<trkpt lat="52.69570541381836" lon="13.110647201538086">
<ele>92.5999984741211</ele>
<time>2014-02-16T13:48:48Z</time>
</trkpt>
<trkpt lat="52.69573211669922" lon="13.11073112487793">
<ele>92.80000305175781</ele>
<time>2014-02-16T13:48:49Z</time>
</trkpt>
<trkpt lat="52.69575881958008" lon="13.11081600189209">
<ele>92.80000305175781</ele>
<time>2014-02-16T13:48:50Z</time>
</trkpt>
<trkpt lat="52.69578552246094" lon="13.110897064208984">
<ele>92.5</ele>
<time>2014-02-16T13:48:51Z</time>
</trkpt>
<trkpt lat="52.69580841064453" lon="13.110976219177246">
<ele>92.30000305175781</ele>
<time>2014-02-16T13:48:52Z</time>
</trkpt>
<trkpt lat="52.695831298828125" lon="13.111053466796875">
<ele>92.0999984741211</ele>
<time>2014-02-16T13:48:53Z</time>
</trkpt>
<trkpt lat="52.69585418701172" lon="13.111135482788086">
<ele>92.5</ele>
<time>2014-02-16T13:48:54Z</time>
</trkpt>
<trkpt lat="52.69587707519531" lon="13.11120319366455">
<ele>92.80000305175781</ele>
<time>2014-02-16T13:48:55Z</time>
</trkpt>
<trkpt lat="52.695899963378906" lon="13.111282348632812">
<ele>92.69999694824219</ele>
<time>2014-02-16T13:48:56Z</time>
</trkpt>
<trkpt lat="52.6959228515625" lon="13.111352920532227">
<ele>92.4000015258789</ele>
<time>2014-02-16T13:48:57Z</time>
</trkpt>
<trkpt lat="52.69594192504883" lon="13.111425399780273">
<ele>92.19999694824219</ele>
<time>2014-02-16T13:48:58Z</time>
</trkpt>
<trkpt lat="52.69594955444336" lon="13.111504554748535">
<ele>92.0</ele>
<time>2014-02-16T13:48:59Z</time>
</trkpt>
<trkpt lat="52.69596862792969" lon="13.111574172973633">
<ele>92.0</ele>
<time>2014-02-16T13:49:00Z</time>
</trkpt>
<trkpt lat="52.69601821899414" lon="13.111685752868652">
<ele>93.0999984741211</ele>
<time>2014-02-16T13:49:02Z</time>
</trkpt>
<trkpt lat="52.69603729248047" lon="13.11175537109375">
<ele>93.0999984741211</ele>
<time>2014-02-16T13:49:03Z</time>
</trkpt>
<trkpt lat="52.69602966308594" lon="13.111900329589844">
<ele>92.69999694824219</ele>
<time>2014-02-16T13:49:05Z</time>
</trkpt>
<trkpt lat="52.69596862792969" lon="13.111944198608398">
<ele>92.0</ele>
<time>2014-02-16T13:49:06Z</time>
</trkpt>
<trkpt lat="52.69587326049805" lon="13.111964225769043">
<ele>92.19999694824219</ele>
<time>2014-02-16T13:49:08Z</time>
</trkpt>
<trkpt lat="52.695831298828125" lon="13.111988067626953">
<ele>91.5999984741211</ele>
<time>2014-02-16T13:49:09Z</time>
</trkpt>
<trkpt lat="52.695777893066406" lon="13.112015724182129">
<ele>91.19999694824219</ele>
<time>2014-02-16T13:49:10Z</time>
</trkpt>
<trkpt lat="52.69572830200195" lon="13.112035751342773">
<ele>90.5</ele>
<time>2014-02-16T13:49:11Z</time>
</trkpt>
<trkpt lat="52.695682525634766" lon="13.112051963806152">
<ele>90.4000015258789</ele>
<time>2014-02-16T13:49:12Z</time>
</trkpt>
<trkpt lat="52.69562530517578" lon="13.112088203430176">
<ele>90.80000305175781</ele>
<time>2014-02-16T13:49:13Z</time>
</trkpt>
<trkpt lat="52.69557571411133" lon="13.112096786499023">
<ele>89.9000015258789</ele>
<time>2014-02-16T13:49:14Z</time>
</trkpt>
<trkpt lat="52.695518493652344" lon="13.112117767333984">
<ele>89.5999984741211</ele>
<time>2014-02-16T13:49:15Z</time>
</trkpt>
<trkpt lat="52.695465087890625" lon="13.11214542388916">
<ele>89.5999984741211</ele>
<time>2014-02-16T13:49:16Z</time>
</trkpt>
<trkpt lat="52.6954231262207" lon="13.112162590026855">
<ele>89.4000015258789</ele>
<time>2014-02-16T13:49:17Z</time>
</trkpt>
<trkpt lat="52.69536209106445" lon="13.112191200256348">
<ele>89.5</ele>
<time>2014-02-16T13:49:18Z</time>
</trkpt>
<trkpt lat="52.69530487060547" lon="13.112226486206055">
<ele>89.5</ele>
<time>2014-02-16T13:49:19Z</time>
</trkpt>
<trkpt lat="52.695247650146484" lon="13.11225414276123">
<ele>89.30000305175781</ele>
<time>2014-02-16T13:49:20Z</time>
</trkpt>
<trkpt lat="52.695194244384766" lon="13.112273216247559">
<ele>89.5</ele>
<time>2014-02-16T13:49:21Z</time>
</trkpt>
<trkpt lat="52.69513702392578" lon="13.112298011779785">
<ele>89.5999984741211</ele>
<time>2014-02-16T13:49:22Z</time>
</trkpt>
<trkpt lat="52.695091247558594" lon="13.112322807312012">
<ele>89.80000305175781</ele>
<time>2014-02-16T13:49:23Z</time>
</trkpt>
<trkpt lat="52.69503402709961" lon="13.112345695495605">
<ele>89.5</ele>
<time>2014-02-16T13:49:24Z</time>
</trkpt>
<trkpt lat="52.694976806640625" lon="13.1123628616333">
<ele>89.69999694824219</ele>
<time>2014-02-16T13:49:25Z</time>
</trkpt>
<trkpt lat="52.694923400878906" lon="13.112382888793945">
<ele>89.5999984741211</ele>
<time>2014-02-16T13:49:26Z</time>
</trkpt>
<trkpt lat="52.69487380981445" lon="13.112405776977539">
<ele>89.5999984741211</ele>
<time>2014-02-16T13:49:27Z</time>
</trkpt>
<trkpt lat="52.69482421875" lon="13.112427711486816">
<ele>89.5</ele>
<time>2014-02-16T13:49:28Z</time>
</trkpt>
<trkpt lat="52.69477462768555" lon="13.112454414367676">
<ele>89.5</ele>
<time>2014-02-16T13:49:29Z</time>
</trkpt>
<trkpt lat="52.69471740722656" lon="13.112482070922852">
<ele>89.30000305175781</ele>
<time>2014-02-16T13:49:30Z</time>
</trkpt>
<trkpt lat="52.694664001464844" lon="13.112503051757812">
<ele>89.80000305175781</ele>
<time>2014-02-16T13:49:31Z</time>
</trkpt>
<trkpt lat="52.69462203979492" lon="13.11253547668457">
<ele>89.9000015258789</ele>
<time>2014-02-16T13:49:32Z</time>
</trkpt>
<trkpt lat="52.69456481933594" lon="13.112549781799316">
<ele>89.9000015258789</ele>
<time>2014-02-16T13:49:33Z</time>
</trkpt>
<trkpt lat="52.694515228271484" lon="13.112565994262695">
<ele>89.4000015258789</ele>
<time>2014-02-16T13:49:34Z</time>
</trkpt>
<trkpt lat="52.694461822509766" lon="13.112591743469238">
<ele>89.69999694824219</ele>
<time>2014-02-16T13:49:35Z</time>
</trkpt>
<trkpt lat="52.69440841674805" lon="13.112614631652832">
<ele>89.5999984741211</ele>
<time>2014-02-16T13:49:36Z</time>
</trkpt>
<trkpt lat="52.694358825683594" lon="13.112639427185059">
<ele>89.80000305175781</ele>
<time>2014-02-16T13:49:37Z</time>
</trkpt>
<trkpt lat="52.69430923461914" lon="13.11266803741455">
<ele>90.19999694824219</ele>
<time>2014-02-16T13:49:38Z</time>
</trkpt>
<trkpt lat="52.69425582885742" lon="13.112700462341309">
<ele>90.19999694824219</ele>
<time>2014-02-16T13:49:39Z</time>
</trkpt>
<trkpt lat="52.69419860839844" lon="13.112739562988281">
<ele>90.0999984741211</ele>
<time>2014-02-16T13:49:40Z</time>
</trkpt>
<trkpt lat="52.69415283203125" lon="13.112778663635254">
<ele>90.19999694824219</ele>
<time>2014-02-16T13:49:41Z</time>
</trkpt>
<trkpt lat="52.69410705566406" lon="13.112815856933594">
<ele>89.9000015258789</ele>
<time>2014-02-16T13:49:42Z</time>
</trkpt>
<trkpt lat="52.69405746459961" lon="13.112855911254883">
<ele>90.0999984741211</ele>
<time>2014-02-16T13:49:43Z</time>
</trkpt>
<trkpt lat="52.694007873535156" lon="13.112905502319336">
<ele>90.69999694824219</ele>
<time>2014-02-16T13:49:44Z</time>
</trkpt>
<trkpt lat="52.6939582824707" lon="13.112946510314941">
<ele>90.5</ele>
<time>2014-02-16T13:49:45Z</time>
</trkpt>
<trkpt lat="52.69390869140625" lon="13.112994194030762">
<ele>90.9000015258789</ele>
<time>2014-02-16T13:49:46Z</time>
</trkpt>
<trkpt lat="52.6938591003418" lon="13.113041877746582">
<ele>91.0999984741211</ele>
<time>2014-02-16T13:49:47Z</time>
</trkpt>
<trkpt lat="52.693809509277344" lon="13.113096237182617">
<ele>91.0999984741211</ele>
<time>2014-02-16T13:49:48Z</time>
</trkpt>
<trkpt lat="52.6937255859375" lon="13.113173484802246">
<ele>91.0</ele>
<time>2014-02-16T13:49:50Z</time>
</trkpt>
<trkpt lat="52.69367599487305" lon="13.113216400146484">
<ele>90.80000305175781</ele>
<time>2014-02-16T13:49:51Z</time>
</trkpt>
<trkpt lat="52.693634033203125" lon="13.11325740814209">
<ele>91.0999984741211</ele>
<time>2014-02-16T13:49:52Z</time>
</trkpt>
<trkpt lat="52.6935920715332" lon="13.113299369812012">
<ele>91.19999694824219</ele>
<time>2014-02-16T13:49:53Z</time>
</trkpt>
<trkpt lat="52.693546295166016" lon="13.113340377807617">
<ele>91.0</ele>
<time>2014-02-16T13:49:54Z</time>
</trkpt>
<trkpt lat="52.69350814819336" lon="13.11339282989502">
<ele>91.0</ele>
<time>2014-02-16T13:49:55Z</time>
</trkpt>
<trkpt lat="52.69346618652344" lon="13.113446235656738">
<ele>91.0</ele>
<time>2014-02-16T13:49:56Z</time>
</trkpt>
<trkpt lat="52.69342803955078" lon="13.113493919372559">
<ele>90.80000305175781</ele>
<time>2014-02-16T13:49:57Z</time>
</trkpt>
<trkpt lat="52.693389892578125" lon="13.113547325134277">
<ele>90.5</ele>
<time>2014-02-16T13:49:58Z</time>
</trkpt>
<trkpt lat="52.69331741333008" lon="13.113639831542969">
<ele>90.0</ele>
<time>2014-02-16T13:50:00Z</time>
</trkpt>
<trkpt lat="52.69327163696289" lon="13.113679885864258">
<ele>89.9000015258789</ele>
<time>2014-02-16T13:50:01Z</time>
</trkpt>
<trkpt lat="52.6932258605957" lon="13.113724708557129">
<ele>89.69999694824219</ele>
<time>2014-02-16T13:50:02Z</time>
</trkpt>
<trkpt lat="52.693180084228516" lon="13.113775253295898">
<ele>89.9000015258789</ele>
<time>2014-02-16T13:50:03Z</time>
</trkpt>
<trkpt lat="52.693138122558594" lon="13.1138277053833">
<ele>90.0999984741211</ele>
<time>2014-02-16T13:50:04Z</time>
</trkpt>
<trkpt lat="52.69309616088867" lon="13.113887786865234">
<ele>90.30000305175781</ele>
<time>2014-02-16T13:50:05Z</time>
</trkpt>
<trkpt lat="52.693050384521484" lon="13.113935470581055">
<ele>90.0</ele>
<time>2014-02-16T13:50:06Z</time>
</trkpt>
<trkpt lat="52.69300842285156" lon="13.11397933959961">
<ele>89.5999984741211</ele>
<time>2014-02-16T13:50:07Z</time>
</trkpt>
<trkpt lat="52.69296646118164" lon="13.114038467407227">
<ele>89.69999694824219</ele>
<time>2014-02-16T13:50:08Z</time>
</trkpt>
<trkpt lat="52.69292068481445" lon="13.11409854888916">
<ele>90.0</ele>
<time>2014-02-16T13:50:09Z</time>
</trkpt>
<trkpt lat="52.69287872314453" lon="13.114154815673828">
<ele>89.5999984741211</ele>
<time>2014-02-16T13:50:10Z</time>
</trkpt>
<trkpt lat="52.69283676147461" lon="13.114201545715332">
<ele>89.9000015258789</ele>
<time>2014-02-16T13:50:11Z</time>
</trkpt>
<trkpt lat="52.69279479980469" lon="13.114258766174316">
<ele>89.9000015258789</ele>
<time>2014-02-16T13:50:12Z</time>
</trkpt>
<trkpt lat="52.6927490234375" lon="13.114304542541504">
<ele>90.0</ele>
<time>2014-02-16T13:50:13Z</time>
</trkpt>
<trkpt lat="52.692710876464844" lon="13.11435317993164">
<ele>90.19999694824219</ele>
<time>2014-02-16T13:50:14Z</time>
</trkpt>
<trkpt lat="52.69266891479492" lon="13.11440372467041">
<ele>90.30000305175781</ele>
<time>2014-02-16T13:50:15Z</time>
</trkpt>
<trkpt lat="52.692630767822266" lon="13.114456176757812">
<ele>90.0</ele>
<time>2014-02-16T13:50:16Z</time>
</trkpt>
<trkpt lat="52.69257736206055" lon="13.114484786987305">
<ele>89.69999694824219</ele>
<time>2014-02-16T13:50:17Z</time>
</trkpt>
<trkpt lat="52.69253158569336" lon="13.11446762084961">
<ele>89.5999984741211</ele>
<time>2014-02-16T13:50:18Z</time>
</trkpt>
<trkpt lat="52.69248580932617" lon="13.114442825317383">
<ele>89.69999694824219</ele>
<time>2014-02-16T13:50:19Z</time>
</trkpt>
<trkpt lat="52.69244384765625" lon="13.114480018615723">
<ele>90.0</ele>
<time>2014-02-16T13:50:20Z</time>
</trkpt>
<trkpt lat="52.692413330078125" lon="13.11453628540039">
<ele>89.80000305175781</ele>
<time>2014-02-16T13:50:21Z</time>
</trkpt>
<trkpt lat="52.69237518310547" lon="13.114592552185059">
<ele>89.80000305175781</ele>
<time>2014-02-16T13:50:22Z</time>
</trkpt>
<trkpt lat="52.69233703613281" lon="13.114645957946777">
<ele>89.80000305175781</ele>
<time>2014-02-16T13:50:23Z</time>
</trkpt>
<trkpt lat="52.692298889160156" lon="13.114700317382812">
<ele>90.0</ele>
<time>2014-02-16T13:50:24Z</time>
</trkpt>
<trkpt lat="52.692256927490234" lon="13.114751815795898">
<ele>90.30000305175781</ele>
<time>2014-02-16T13:50:25Z</time>
</trkpt>
<trkpt lat="52.69221496582031" lon="13.114798545837402">
<ele>90.0999984741211</ele>
<time>2014-02-16T13:50:26Z</time>
</trkpt>
<trkpt lat="52.692176818847656" lon="13.114852905273438">
<ele>89.9000015258789</ele>
<time>2014-02-16T13:50:27Z</time>
</trkpt>
<trkpt lat="52.692134857177734" lon="13.114909172058105">
<ele>90.0999984741211</ele>
<time>2014-02-16T13:50:28Z</time>
</trkpt>
<trkpt lat="52.69208908081055" lon="13.11496353149414">
<ele>90.19999694824219</ele>
<time>2014-02-16T13:50:29Z</time>
</trkpt>
<trkpt lat="52.692047119140625" lon="13.11501693725586">
<ele>90.19999694824219</ele>
<time>2014-02-16T13:50:30Z</time>
</trkpt>
<trkpt lat="52.69200897216797" lon="13.115067481994629">
<ele>90.19999694824219</ele>
<time>2014-02-16T13:50:31Z</time>
</trkpt>
<trkpt lat="52.69196319580078" lon="13.115118980407715">
<ele>90.30000305175781</ele>
<time>2014-02-16T13:50:32Z</time>
</trkpt>
<trkpt lat="52.69192123413086" lon="13.115171432495117">
<ele>90.0999984741211</ele>
<time>2014-02-16T13:50:33Z</time>
</trkpt>
<trkpt lat="52.69187927246094" lon="13.115226745605469">
<ele>90.4000015258789</ele>
<time>2014-02-16T13:50:34Z</time>
</trkpt>
<trkpt lat="52.691837310791016" lon="13.115278244018555">
<ele>90.30000305175781</ele>
<time>2014-02-16T13:50:36Z</time>
</trkpt>
<trkpt lat="52.691795349121094" lon="13.115326881408691">
<ele>90.5</ele>
<time>2014-02-16T13:50:37Z</time>
</trkpt>
<trkpt lat="52.69175338745117" lon="13.115375518798828">
<ele>90.0</ele>
<time>2014-02-16T13:50:38Z</time>
</trkpt>
<trkpt lat="52.69166564941406" lon="13.115487098693848">
<ele>90.4000015258789</ele>
<time>2014-02-16T13:50:39Z</time>
</trkpt>
<trkpt lat="52.69162368774414" lon="13.115530014038086">
<ele>90.69999694824219</ele>
<time>2014-02-16T13:50:40Z</time>
</trkpt>
<trkpt lat="52.69158172607422" lon="13.115574836730957">
<ele>90.4000015258789</ele>
<time>2014-02-16T13:50:41Z</time>
</trkpt>
<trkpt lat="52.6915397644043" lon="13.115628242492676">
<ele>90.0999984741211</ele>
<time>2014-02-16T13:50:42Z</time>
</trkpt>
<trkpt lat="52.691497802734375" lon="13.115678787231445">
<ele>90.30000305175781</ele>
<time>2014-02-16T13:50:43Z</time>
</trkpt>
<trkpt lat="52.69145202636719" lon="13.115730285644531">
<ele>90.4000015258789</ele>
<time>2014-02-16T13:50:44Z</time>
</trkpt>
<trkpt lat="52.691410064697266" lon="13.1157808303833">
<ele>90.69999694824219</ele>
<time>2014-02-16T13:50:45Z</time>
</trkpt>
<trkpt lat="52.69136428833008" lon="13.11583137512207">
<ele>91.0999984741211</ele>
<time>2014-02-16T13:50:46Z</time>
</trkpt>
<trkpt lat="52.69131851196289" lon="13.115883827209473">
<ele>91.4000015258789</ele>
<time>2014-02-16T13:50:47Z</time>
</trkpt>
<trkpt lat="52.691280364990234" lon="13.115936279296875">
<ele>91.30000305175781</ele>
<time>2014-02-16T13:50:48Z</time>
</trkpt>
<trkpt lat="52.69123840332031" lon="13.115985870361328">
<ele>91.5999984741211</ele>
<time>2014-02-16T13:50:49Z</time>
</trkpt>
<trkpt lat="52.691192626953125" lon="13.116032600402832">
<ele>91.69999694824219</ele>
<time>2014-02-16T13:50:50Z</time>
</trkpt>
<trkpt lat="52.6911506652832" lon="13.1160888671875">
<ele>91.80000305175781</ele>
<time>2014-02-16T13:50:51Z</time>
</trkpt>
<trkpt lat="52.69110870361328" lon="13.116137504577637">
<ele>91.9000015258789</ele>
<time>2014-02-16T13:50:52Z</time>
</trkpt>
<trkpt lat="52.691062927246094" lon="13.116189002990723">
<ele>91.9000015258789</ele>
<time>2014-02-16T13:50:53Z</time>
</trkpt>
<trkpt lat="52.69102096557617" lon="13.116238594055176">
<ele>91.80000305175781</ele>
<time>2014-02-16T13:50:54Z</time>
</trkpt>
<trkpt lat="52.69097900390625" lon="13.116286277770996">
<ele>92.0</ele>
<time>2014-02-16T13:50:55Z</time>
</trkpt>
<trkpt lat="52.69093322753906" lon="13.116338729858398">
<ele>91.9000015258789</ele>
<time>2014-02-16T13:50:56Z</time>
</trkpt>
<trkpt lat="52.690887451171875" lon="13.116387367248535">
<ele>91.69999694824219</ele>
<time>2014-02-16T13:50:57Z</time>
</trkpt>
<trkpt lat="52.69084548950195" lon="13.11644172668457">
<ele>92.0</ele>
<time>2014-02-16T13:50:58Z</time>
</trkpt>
<trkpt lat="52.690799713134766" lon="13.116496086120605">
<ele>92.30000305175781</ele>
<time>2014-02-16T13:50:59Z</time>
</trkpt>
<trkpt lat="52.690757751464844" lon="13.116544723510742">
<ele>92.30000305175781</ele>
<time>2014-02-16T13:51:00Z</time>
</trkpt>
<trkpt lat="52.690711975097656" lon="13.116594314575195">
<ele>92.19999694824219</ele>
<time>2014-02-16T13:51:01Z</time>
</trkpt>
<trkpt lat="52.690670013427734" lon="13.116653442382812">
<ele>92.5</ele>
<time>2014-02-16T13:51:02Z</time>
</trkpt>
<trkpt lat="52.69062423706055" lon="13.116710662841797">
<ele>92.5</ele>
<time>2014-02-16T13:51:03Z</time>
</trkpt>
<trkpt lat="52.69058609008789" lon="13.116772651672363">
<ele>92.30000305175781</ele>
<time>2014-02-16T13:51:04Z</time>
</trkpt>
<trkpt lat="52.69054412841797" lon="13.116829872131348">
<ele>92.5</ele>
<time>2014-02-16T13:51:05Z</time>
</trkpt>
<trkpt lat="52.69050216674805" lon="13.116888046264648">
<ele>92.30000305175781</ele>
<time>2014-02-16T13:51:06Z</time>
</trkpt>
<trkpt lat="52.690460205078125" lon="13.116944313049316">
<ele>92.4000015258789</ele>
<time>2014-02-16T13:51:07Z</time>
</trkpt>
<trkpt lat="52.6904182434082" lon="13.116998672485352">
<ele>92.5</ele>
<time>2014-02-16T13:51:08Z</time>
</trkpt>
<trkpt lat="52.69037628173828" lon="13.11705207824707">
<ele>92.5999984741211</ele>
<time>2014-02-16T13:51:09Z</time>
</trkpt>
<trkpt lat="52.69033432006836" lon="13.117103576660156">
<ele>92.5999984741211</ele>
<time>2014-02-16T13:51:10Z</time>
</trkpt>
<trkpt lat="52.69029235839844" lon="13.117158889770508">
<ele>92.5999984741211</ele>
<time>2014-02-16T13:51:11Z</time>
</trkpt>
<trkpt lat="52.690250396728516" lon="13.117217063903809">
<ele>92.4000015258789</ele>
<time>2014-02-16T13:51:12Z</time>
</trkpt>
<trkpt lat="52.690208435058594" lon="13.11727237701416">
<ele>92.19999694824219</ele>
<time>2014-02-16T13:51:13Z</time>
</trkpt>
<trkpt lat="52.69016647338867" lon="13.117326736450195">
<ele>92.30000305175781</ele>
<time>2014-02-16T13:51:14Z</time>
</trkpt>
<trkpt lat="52.69012451171875" lon="13.11738109588623">
<ele>92.30000305175781</ele>
<time>2014-02-16T13:51:15Z</time>
</trkpt>
<trkpt lat="52.69008255004883" lon="13.117438316345215">
<ele>92.30000305175781</ele>
<time>2014-02-16T13:51:16Z</time>
</trkpt>
<trkpt lat="52.69003677368164" lon="13.117491722106934">
<ele>92.4000015258789</ele>
<time>2014-02-16T13:51:17Z</time>
</trkpt>
<trkpt lat="52.68999481201172" lon="13.117547035217285">
<ele>92.30000305175781</ele>
<time>2014-02-16T13:51:18Z</time>
</trkpt>
<trkpt lat="52.68995666503906" lon="13.11760425567627">
<ele>92.0</ele>
<time>2014-02-16T13:51:19Z</time>
</trkpt>
<trkpt lat="52.68991470336914" lon="13.117660522460938">
<ele>92.0</ele>
<time>2014-02-16T13:51:20Z</time>
</trkpt>
<trkpt lat="52.68986892700195" lon="13.117713928222656">
<ele>91.80000305175781</ele>
<time>2014-02-16T13:51:21Z</time>
</trkpt>
<trkpt lat="52.68982696533203" lon="13.11777114868164">
<ele>91.69999694824219</ele>
<time>2014-02-16T13:51:22Z</time>
</trkpt>
<trkpt lat="52.689781188964844" lon="13.117823600769043">
<ele>91.4000015258789</ele>
<time>2014-02-16T13:51:23Z</time>
</trkpt>
<trkpt lat="52.68973922729492" lon="13.117877960205078">
<ele>91.5</ele>
<time>2014-02-16T13:51:24Z</time>
</trkpt>
<trkpt lat="52.689693450927734" lon="13.117936134338379">
<ele>91.5</ele>
<time>2014-02-16T13:51:25Z</time>
</trkpt>
<trkpt lat="52.68965148925781" lon="13.11799430847168">
<ele>91.4000015258789</ele>
<time>2014-02-16T13:51:26Z</time>
</trkpt>
<trkpt lat="52.689605712890625" lon="13.118048667907715">
<ele>91.0999984741211</ele>
<time>2014-02-16T13:51:27Z</time>
</trkpt>
<trkpt lat="52.6895637512207" lon="13.118104934692383">
<ele>91.19999694824219</ele>
<time>2014-02-16T13:51:28Z</time>
</trkpt>
<trkpt lat="52.689517974853516" lon="13.11816120147705">
<ele>91.0</ele>
<time>2014-02-16T13:51:29Z</time>
</trkpt>
<trkpt lat="52.68947982788086" lon="13.118226051330566">
<ele>91.0999984741211</ele>
<time>2014-02-16T13:51:30Z</time>
</trkpt>
<trkpt lat="52.689430236816406" lon="13.118280410766602">
<ele>91.0999984741211</ele>
<time>2014-02-16T13:51:31Z</time>
</trkpt>
<trkpt lat="52.68938446044922" lon="13.118332862854004">
<ele>90.9000015258789</ele>
<time>2014-02-16T13:51:32Z</time>
</trkpt>
<trkpt lat="52.689334869384766" lon="13.118390083312988">
<ele>90.80000305175781</ele>
<time>2014-02-16T13:51:33Z</time>
</trkpt>
<trkpt lat="52.68928527832031" lon="13.118452072143555">
<ele>90.9000015258789</ele>
<time>2014-02-16T13:51:34Z</time>
</trkpt>
<trkpt lat="52.689239501953125" lon="13.118507385253906">
<ele>90.80000305175781</ele>
<time>2014-02-16T13:51:35Z</time>
</trkpt>
<trkpt lat="52.68918991088867" lon="13.118566513061523">
<ele>90.9000015258789</ele>
<time>2014-02-16T13:51:36Z</time>
</trkpt>
<trkpt lat="52.68914794921875" lon="13.118622779846191">
<ele>90.80000305175781</ele>
<time>2014-02-16T13:51:37Z</time>
</trkpt>
<trkpt lat="52.68910217285156" lon="13.11867904663086">
<ele>90.69999694824219</ele>
<time>2014-02-16T13:51:38Z</time>
</trkpt>
<trkpt lat="52.68905258178711" lon="13.118736267089844">
<ele>90.5999984741211</ele>
<time>2014-02-16T13:51:39Z</time>
</trkpt>
<trkpt lat="52.68901062011719" lon="13.118795394897461">
<ele>90.69999694824219</ele>
<time>2014-02-16T13:51:40Z</time>
</trkpt>
<trkpt lat="52.688961029052734" lon="13.118857383728027">
<ele>90.69999694824219</ele>
<time>2014-02-16T13:51:41Z</time>
</trkpt>
<trkpt lat="52.68891525268555" lon="13.118921279907227">
<ele>90.69999694824219</ele>
<time>2014-02-16T13:51:42Z</time>
</trkpt>
<trkpt lat="52.68886947631836" lon="13.118977546691895">
<ele>90.69999694824219</ele>
<time>2014-02-16T13:51:43Z</time>
</trkpt>
<trkpt lat="52.68882369995117" lon="13.119038581848145">
<ele>90.5</ele>
<time>2014-02-16T13:51:44Z</time>
</trkpt>
<trkpt lat="52.688777923583984" lon="13.119095802307129">
<ele>90.19999694824219</ele>
<time>2014-02-16T13:51:45Z</time>
</trkpt>
<trkpt lat="52.6887321472168" lon="13.119155883789062">
<ele>90.0999984741211</ele>
<time>2014-02-16T13:51:46Z</time>
</trkpt>
<trkpt lat="52.68868637084961" lon="13.119213104248047">
<ele>90.0999984741211</ele>
<time>2014-02-16T13:51:47Z</time>
</trkpt>
<trkpt lat="52.68864059448242" lon="13.119274139404297">
<ele>90.0999984741211</ele>
<time>2014-02-16T13:51:48Z</time>
</trkpt>
<trkpt lat="52.688594818115234" lon="13.119332313537598">
<ele>90.0999984741211</ele>
<time>2014-02-16T13:51:49Z</time>
</trkpt>
<trkpt lat="52.68854904174805" lon="13.119390487670898">
<ele>90.0</ele>
<time>2014-02-16T13:51:50Z</time>
</trkpt>
<trkpt lat="52.688499450683594" lon="13.119452476501465">
<ele>90.19999694824219</ele>
<time>2014-02-16T13:51:51Z</time>
</trkpt>
<trkpt lat="52.688453674316406" lon="13.119511604309082">
<ele>90.5</ele>
<time>2014-02-16T13:51:52Z</time>
</trkpt>
<trkpt lat="52.688411712646484" lon="13.119568824768066">
<ele>90.4000015258789</ele>
<time>2014-02-16T13:51:53Z</time>
</trkpt>
<trkpt lat="52.6883659362793" lon="13.119625091552734">
<ele>90.4000015258789</ele>
<time>2014-02-16T13:51:54Z</time>
</trkpt>
<trkpt lat="52.68832015991211" lon="13.119686126708984">
<ele>90.30000305175781</ele>
<time>2014-02-16T13:51:55Z</time>
</trkpt>
<trkpt lat="52.688270568847656" lon="13.119747161865234">
<ele>90.80000305175781</ele>
<time>2014-02-16T13:51:56Z</time>
</trkpt>
<trkpt lat="52.68822479248047" lon="13.1198091506958">
<ele>90.69999694824219</ele>
<time>2014-02-16T13:51:57Z</time>
</trkpt>
<trkpt lat="52.68818283081055" lon="13.119865417480469">
<ele>90.9000015258789</ele>
<time>2014-02-16T13:51:58Z</time>
</trkpt>
<trkpt lat="52.688140869140625" lon="13.119925498962402">
<ele>90.9000015258789</ele>
<time>2014-02-16T13:51:59Z</time>
</trkpt>
<trkpt lat="52.68809509277344" lon="13.119987487792969">
<ele>91.0</ele>
<time>2014-02-16T13:52:00Z</time>
</trkpt>
<trkpt lat="52.68804931640625" lon="13.120048522949219">
<ele>91.0</ele>
<time>2014-02-16T13:52:01Z</time>
</trkpt>
<trkpt lat="52.68800354003906" lon="13.120105743408203">
<ele>91.0</ele>
<time>2014-02-16T13:52:02Z</time>
</trkpt>
<trkpt lat="52.687957763671875" lon="13.120163917541504">
<ele>91.0</ele>
<time>2014-02-16T13:52:03Z</time>
</trkpt>
<trkpt lat="52.68791580200195" lon="13.120223999023438">
<ele>91.0</ele>
<time>2014-02-16T13:52:04Z</time>
</trkpt>
<trkpt lat="52.6878662109375" lon="13.120279312133789">
<ele>91.19999694824219</ele>
<time>2014-02-16T13:52:05Z</time>
</trkpt>
<trkpt lat="52.68782424926758" lon="13.12033748626709">
<ele>91.0999984741211</ele>
<time>2014-02-16T13:52:06Z</time>
</trkpt>
<trkpt lat="52.687774658203125" lon="13.120394706726074">
<ele>91.30000305175781</ele>
<time>2014-02-16T13:52:07Z</time>
</trkpt>
<trkpt lat="52.68772888183594" lon="13.12045955657959">
<ele>91.19999694824219</ele>
<time>2014-02-16T13:52:08Z</time>
</trkpt>
<trkpt lat="52.68768310546875" lon="13.120512008666992">
<ele>91.30000305175781</ele>
<time>2014-02-16T13:52:09Z</time>
</trkpt>
<trkpt lat="52.6876335144043" lon="13.120566368103027">
<ele>91.0999984741211</ele>
<time>2014-02-16T13:52:10Z</time>
</trkpt>
<trkpt lat="52.68758773803711" lon="13.120613098144531">
<ele>91.19999694824219</ele>
<time>2014-02-16T13:52:11Z</time>
</trkpt>
<trkpt lat="52.687538146972656" lon="13.120671272277832">
<ele>90.80000305175781</ele>
<time>2014-02-16T13:52:12Z</time>
</trkpt>
<trkpt lat="52.6874885559082" lon="13.12073040008545">
<ele>90.5999984741211</ele>
<time>2014-02-16T13:52:13Z</time>
</trkpt>
<trkpt lat="52.68743896484375" lon="13.12078857421875">
<ele>90.4000015258789</ele>
<time>2014-02-16T13:52:14Z</time>
</trkpt>
<trkpt lat="52.68739318847656" lon="13.120845794677734">
<ele>90.30000305175781</ele>
<time>2014-02-16T13:52:15Z</time>
</trkpt>
<trkpt lat="52.68734359741211" lon="13.120906829833984">
<ele>90.30000305175781</ele>
<time>2014-02-16T13:52:16Z</time>
</trkpt>
<trkpt lat="52.68729782104492" lon="13.12096881866455">
<ele>90.19999694824219</ele>
<time>2014-02-16T13:52:17Z</time>
</trkpt>
<trkpt lat="52.687252044677734" lon="13.121031761169434">
<ele>90.19999694824219</ele>
<time>2014-02-16T13:52:18Z</time>
</trkpt>
<trkpt lat="52.68720626831055" lon="13.12109375">
<ele>90.0999984741211</ele>
<time>2014-02-16T13:52:19Z</time>
</trkpt>
<trkpt lat="52.68716049194336" lon="13.121150016784668">
<ele>90.0999984741211</ele>
<time>2014-02-16T13:52:20Z</time>
</trkpt>
<trkpt lat="52.68711471557617" lon="13.121200561523438">
<ele>89.9000015258789</ele>
<time>2014-02-16T13:52:21Z</time>
</trkpt>
<trkpt lat="52.687068939208984" lon="13.121253967285156">
<ele>89.69999694824219</ele>
<time>2014-02-16T13:52:22Z</time>
</trkpt>
<trkpt lat="52.6870231628418" lon="13.121309280395508">
<ele>89.69999694824219</ele>
<time>2014-02-16T13:52:23Z</time>
</trkpt>
<trkpt lat="52.68697738647461" lon="13.12136459350586">
<ele>89.69999694824219</ele>
<time>2014-02-16T13:52:24Z</time>
</trkpt>
<trkpt lat="52.68693161010742" lon="13.121418952941895">
<ele>89.69999694824219</ele>
<time>2014-02-16T13:52:25Z</time>
</trkpt>
<trkpt lat="52.686885833740234" lon="13.121475219726562">
<ele>89.80000305175781</ele>
<time>2014-02-16T13:52:26Z</time>
</trkpt>
<trkpt lat="52.68684387207031" lon="13.121528625488281">
<ele>90.0</ele>
<time>2014-02-16T13:52:27Z</time>
</trkpt>
<trkpt lat="52.686798095703125" lon="13.121599197387695">
<ele>89.80000305175781</ele>
<time>2014-02-16T13:52:28Z</time>
</trkpt>
<trkpt lat="52.68675231933594" lon="13.121650695800781">
<ele>89.9000015258789</ele>
<time>2014-02-16T13:52:29Z</time>
</trkpt>
<trkpt lat="52.68670654296875" lon="13.12169361114502">
<ele>89.80000305175781</ele>
<time>2014-02-16T13:52:30Z</time>
</trkpt>
<trkpt lat="52.68666458129883" lon="13.121755599975586">
<ele>89.19999694824219</ele>
<time>2014-02-16T13:52:31Z</time>
</trkpt>
<trkpt lat="52.68661880493164" lon="13.121817588806152">
<ele>89.0</ele>
<time>2014-02-16T13:52:32Z</time>
</trkpt>
<trkpt lat="52.68657302856445" lon="13.121872901916504">
<ele>89.4000015258789</ele>
<time>2014-02-16T13:52:33Z</time>
</trkpt>
<trkpt lat="52.686519622802734" lon="13.121927261352539">
<ele>89.30000305175781</ele>
<time>2014-02-16T13:52:34Z</time>
</trkpt>
<trkpt lat="52.686466217041016" lon="13.12198543548584">
<ele>89.30000305175781</ele>
<time>2014-02-16T13:52:35Z</time>
</trkpt>
<trkpt lat="52.6864128112793" lon="13.12204647064209">
<ele>89.0</ele>
<time>2014-02-16T13:52:36Z</time>
</trkpt>
<trkpt lat="52.686363220214844" lon="13.122101783752441">
<ele>89.19999694824219</ele>
<time>2014-02-16T13:52:37Z</time>
</trkpt>
<trkpt lat="52.68631362915039" lon="13.12215805053711">
<ele>88.5999984741211</ele>
<time>2014-02-16T13:52:38Z</time>
</trkpt>
<trkpt lat="52.68626022338867" lon="13.122218132019043">
<ele>88.69999694824219</ele>
<time>2014-02-16T13:52:39Z</time>
</trkpt>
<trkpt lat="52.68621063232422" lon="13.122273445129395">
<ele>88.69999694824219</ele>
<time>2014-02-16T13:52:40Z</time>
</trkpt>
<trkpt lat="52.6861572265625" lon="13.122334480285645">
<ele>88.5</ele>
<time>2014-02-16T13:52:41Z</time>
</trkpt>
<trkpt lat="52.68610382080078" lon="13.122394561767578">
<ele>88.69999694824219</ele>
<time>2014-02-16T13:52:42Z</time>
</trkpt>
<trkpt lat="52.68605422973633" lon="13.122453689575195">
<ele>88.69999694824219</ele>
<time>2014-02-16T13:52:43Z</time>
</trkpt>
<trkpt lat="52.686004638671875" lon="13.122511863708496">
<ele>88.5</ele>
<time>2014-02-16T13:52:44Z</time>
</trkpt>
<trkpt lat="52.685951232910156" lon="13.122567176818848">
<ele>88.5999984741211</ele>
<time>2014-02-16T13:52:45Z</time>
</trkpt>
<trkpt lat="52.68589782714844" lon="13.122627258300781">
<ele>88.30000305175781</ele>
<time>2014-02-16T13:52:46Z</time>
</trkpt>
<trkpt lat="52.685848236083984" lon="13.122690200805664">
<ele>88.4000015258789</ele>
<time>2014-02-16T13:52:47Z</time>
</trkpt>
<trkpt lat="52.685794830322266" lon="13.122746467590332">
<ele>88.4000015258789</ele>
<time>2014-02-16T13:52:48Z</time>
</trkpt>
<trkpt lat="52.68574523925781" lon="13.122801780700684">
<ele>88.5</ele>
<time>2014-02-16T13:52:49Z</time>
</trkpt>
<trkpt lat="52.685691833496094" lon="13.122855186462402">
<ele>88.30000305175781</ele>
<time>2014-02-16T13:52:50Z</time>
</trkpt>
<trkpt lat="52.68564224243164" lon="13.122907638549805">
<ele>88.5</ele>
<time>2014-02-16T13:52:51Z</time>
</trkpt>
<trkpt lat="52.68559265136719" lon="13.122963905334473">
<ele>88.9000015258789</ele>
<time>2014-02-16T13:52:52Z</time>
</trkpt>
<trkpt lat="52.685546875" lon="13.123016357421875">
<ele>88.9000015258789</ele>
<time>2014-02-16T13:52:53Z</time>
</trkpt>
<trkpt lat="52.68549728393555" lon="13.123072624206543">
<ele>88.80000305175781</ele>
<time>2014-02-16T13:52:54Z</time>
</trkpt>
<trkpt lat="52.685447692871094" lon="13.123130798339844">
<ele>88.5999984741211</ele>
<time>2014-02-16T13:52:55Z</time>
</trkpt>
<trkpt lat="52.68539810180664" lon="13.123178482055664">
<ele>88.4000015258789</ele>
<time>2014-02-16T13:52:56Z</time>
</trkpt>
<trkpt lat="52.68534851074219" lon="13.123233795166016">
<ele>88.19999694824219</ele>
<time>2014-02-16T13:52:57Z</time>
</trkpt>
<trkpt lat="52.68529510498047" lon="13.123291969299316">
<ele>88.30000305175781</ele>
<time>2014-02-16T13:52:58Z</time>
</trkpt>
<trkpt lat="52.685245513916016" lon="13.123351097106934">
<ele>88.30000305175781</ele>
<time>2014-02-16T13:52:59Z</time>
</trkpt>
<trkpt lat="52.68519592285156" lon="13.123406410217285">
<ele>88.19999694824219</ele>
<time>2014-02-16T13:53:00Z</time>
</trkpt>
<trkpt lat="52.68514633178711" lon="13.123462677001953">
<ele>88.19999694824219</ele>
<time>2014-02-16T13:53:01Z</time>
</trkpt>
<trkpt lat="52.685096740722656" lon="13.123519897460938">
<ele>88.5999984741211</ele>
<time>2014-02-16T13:53:02Z</time>
</trkpt>
<trkpt lat="52.6850471496582" lon="13.123573303222656">
<ele>88.5</ele>
<time>2014-02-16T13:53:03Z</time>
</trkpt>
<trkpt lat="52.68499755859375" lon="13.12362289428711">
<ele>88.19999694824219</ele>
<time>2014-02-16T13:53:04Z</time>
</trkpt>
<trkpt lat="52.6849479675293" lon="13.12368106842041">
<ele>88.19999694824219</ele>
<time>2014-02-16T13:53:05Z</time>
</trkpt>
<trkpt lat="52.684898376464844" lon="13.12374210357666">
<ele>88.0999984741211</ele>
<time>2014-02-16T13:53:06Z</time>
</trkpt>
<trkpt lat="52.68484878540039" lon="13.123797416687012">
<ele>88.0</ele>
<time>2014-02-16T13:53:07Z</time>
</trkpt>
<trkpt lat="52.68479919433594" lon="13.123855590820312">
<ele>87.9000015258789</ele>
<time>2014-02-16T13:53:08Z</time>
</trkpt>
<trkpt lat="52.684749603271484" lon="13.123917579650879">
<ele>87.9000015258789</ele>
<time>2014-02-16T13:53:09Z</time>
</trkpt>
<trkpt lat="52.68470001220703" lon="13.123976707458496">
<ele>87.80000305175781</ele>
<time>2014-02-16T13:53:10Z</time>
</trkpt>
<trkpt lat="52.68464660644531" lon="13.12403392791748">
<ele>87.69999694824219</ele>
<time>2014-02-16T13:53:11Z</time>
</trkpt>
<trkpt lat="52.68459701538086" lon="13.124090194702148">
<ele>87.5</ele>
<time>2014-02-16T13:53:12Z</time>
</trkpt>
<trkpt lat="52.684547424316406" lon="13.1241455078125">
<ele>87.30000305175781</ele>
<time>2014-02-16T13:53:13Z</time>
</trkpt>
<trkpt lat="52.68449783325195" lon="13.124200820922852">
<ele>87.30000305175781</ele>
<time>2014-02-16T13:53:14Z</time>
</trkpt>
<trkpt lat="52.684452056884766" lon="13.124260902404785">
<ele>87.0</ele>
<time>2014-02-16T13:53:15Z</time>
</trkpt>
<trkpt lat="52.68439865112305" lon="13.12431812286377">
<ele>86.9000015258789</ele>
<time>2014-02-16T13:53:16Z</time>
</trkpt>
<trkpt lat="52.68434524536133" lon="13.12437629699707">
<ele>86.69999694824219</ele>
<time>2014-02-16T13:53:17Z</time>
</trkpt>
<trkpt lat="52.684295654296875" lon="13.124438285827637">
<ele>86.69999694824219</ele>
<time>2014-02-16T13:53:18Z</time>
</trkpt>
<trkpt lat="52.68424606323242" lon="13.124499320983887">
<ele>86.5999984741211</ele>
<time>2014-02-16T13:53:19Z</time>
</trkpt>
<trkpt lat="52.6841926574707" lon="13.124560356140137">
<ele>86.69999694824219</ele>
<time>2014-02-16T13:53:20Z</time>
</trkpt>
<trkpt lat="52.68414306640625" lon="13.124619483947754">
<ele>86.69999694824219</ele>
<time>2014-02-16T13:53:21Z</time>
</trkpt>
<trkpt lat="52.68409729003906" lon="13.124680519104004">
<ele>86.5999984741211</ele>
<time>2014-02-16T13:53:22Z</time>
</trkpt>
<trkpt lat="52.68404769897461" lon="13.12474250793457">
<ele>86.5999984741211</ele>
<time>2014-02-16T13:53:23Z</time>
</trkpt>
<trkpt lat="52.683998107910156" lon="13.124799728393555">
<ele>86.69999694824219</ele>
<time>2014-02-16T13:53:24Z</time>
</trkpt>
<trkpt lat="52.6839485168457" lon="13.124855041503906">
<ele>86.80000305175781</ele>
<time>2014-02-16T13:53:25Z</time>
</trkpt>
<trkpt lat="52.68390655517578" lon="13.124905586242676">
<ele>86.80000305175781</ele>
<time>2014-02-16T13:53:26Z</time>
</trkpt>
<trkpt lat="52.68385696411133" lon="13.124961853027344">
<ele>86.5999984741211</ele>
<time>2014-02-16T13:53:27Z</time>
</trkpt>
<trkpt lat="52.68381118774414" lon="13.125020027160645">
<ele>87.0</ele>
<time>2014-02-16T13:53:28Z</time>
</trkpt>
<trkpt lat="52.68376541137695" lon="13.125080108642578">
<ele>87.19999694824219</ele>
<time>2014-02-16T13:53:29Z</time>
</trkpt>
<trkpt lat="52.683719635009766" lon="13.125134468078613">
<ele>87.19999694824219</ele>
<time>2014-02-16T13:53:30Z</time>
</trkpt>
<trkpt lat="52.68367385864258" lon="13.125190734863281">
<ele>87.19999694824219</ele>
<time>2014-02-16T13:53:31Z</time>
</trkpt>
<trkpt lat="52.68362808227539" lon="13.125246047973633">
<ele>87.0</ele>
<time>2014-02-16T13:53:32Z</time>
</trkpt>
<trkpt lat="52.68358612060547" lon="13.1253023147583">
<ele>87.0999984741211</ele>
<time>2014-02-16T13:53:33Z</time>
</trkpt>
<trkpt lat="52.683536529541016" lon="13.125353813171387">
<ele>87.0999984741211</ele>
<time>2014-02-16T13:53:34Z</time>
</trkpt>
<trkpt lat="52.68349075317383" lon="13.125411033630371">
<ele>87.30000305175781</ele>
<time>2014-02-16T13:53:35Z</time>
</trkpt>
<trkpt lat="52.683448791503906" lon="13.125472068786621">
<ele>87.5</ele>
<time>2014-02-16T13:53:36Z</time>
</trkpt>
<trkpt lat="52.68339920043945" lon="13.125521659851074">
<ele>87.80000305175781</ele>
<time>2014-02-16T13:53:37Z</time>
</trkpt>
<trkpt lat="52.683353424072266" lon="13.125574111938477">
<ele>87.5999984741211</ele>
<time>2014-02-16T13:53:38Z</time>
</trkpt>
<trkpt lat="52.68330383300781" lon="13.125625610351562">
<ele>87.80000305175781</ele>
<time>2014-02-16T13:53:39Z</time>
</trkpt>
<trkpt lat="52.683258056640625" lon="13.125677108764648">
<ele>88.0</ele>
<time>2014-02-16T13:53:40Z</time>
</trkpt>
<trkpt lat="52.68321228027344" lon="13.125725746154785">
<ele>88.19999694824219</ele>
<time>2014-02-16T13:53:41Z</time>
</trkpt>
<trkpt lat="52.683170318603516" lon="13.125782012939453">
<ele>88.19999694824219</ele>
<time>2014-02-16T13:53:42Z</time>
</trkpt>
<trkpt lat="52.683128356933594" lon="13.125831604003906">
<ele>88.5</ele>
<time>2014-02-16T13:53:43Z</time>
</trkpt>
<trkpt lat="52.68308639526367" lon="13.125885009765625">
<ele>88.69999694824219</ele>
<time>2014-02-16T13:53:44Z</time>
</trkpt>
<trkpt lat="52.68304443359375" lon="13.125937461853027">
<ele>88.69999694824219</ele>
<time>2014-02-16T13:53:45Z</time>
</trkpt>
<trkpt lat="52.68300247192383" lon="13.12598705291748">
<ele>88.80000305175781</ele>
<time>2014-02-16T13:53:46Z</time>
</trkpt>
<trkpt lat="52.68295669555664" lon="13.126032829284668">
<ele>88.69999694824219</ele>
<time>2014-02-16T13:53:47Z</time>
</trkpt>
<trkpt lat="52.68291473388672" lon="13.12608528137207">
<ele>88.5</ele>
<time>2014-02-16T13:53:48Z</time>
</trkpt>
<trkpt lat="52.68287658691406" lon="13.126133918762207">
<ele>88.5</ele>
<time>2014-02-16T13:53:49Z</time>
</trkpt>
<trkpt lat="52.68283462524414" lon="13.126185417175293">
<ele>88.69999694824219</ele>
<time>2014-02-16T13:53:50Z</time>
</trkpt>
<trkpt lat="52.68279266357422" lon="13.126233100891113">
<ele>88.5</ele>
<time>2014-02-16T13:53:51Z</time>
</trkpt>
<trkpt lat="52.6827507019043" lon="13.1262788772583">
<ele>88.9000015258789</ele>
<time>2014-02-16T13:53:52Z</time>
</trkpt>
<trkpt lat="52.682708740234375" lon="13.126324653625488">
<ele>89.0999984741211</ele>
<time>2014-02-16T13:53:53Z</time>
</trkpt>
<trkpt lat="52.68266677856445" lon="13.126374244689941">
<ele>89.5</ele>
<time>2014-02-16T13:53:54Z</time>
</trkpt>
<trkpt lat="52.68262481689453" lon="13.126425743103027">
<ele>89.80000305175781</ele>
<time>2014-02-16T13:53:55Z</time>
</trkpt>
<trkpt lat="52.682586669921875" lon="13.126471519470215">
<ele>89.9000015258789</ele>
<time>2014-02-16T13:53:56Z</time>
</trkpt>
<trkpt lat="52.68254852294922" lon="13.126518249511719">
<ele>90.0999984741211</ele>
<time>2014-02-16T13:53:57Z</time>
</trkpt>
<trkpt lat="52.6825065612793" lon="13.126564025878906">
<ele>90.19999694824219</ele>
<time>2014-02-16T13:53:58Z</time>
</trkpt>
<trkpt lat="52.682464599609375" lon="13.12661075592041">
<ele>90.0999984741211</ele>
<time>2014-02-16T13:53:59Z</time>
</trkpt>
<trkpt lat="52.68242645263672" lon="13.126654624938965">
<ele>90.0999984741211</ele>
<time>2014-02-16T13:54:00Z</time>
</trkpt>
<trkpt lat="52.68238830566406" lon="13.126704216003418">
<ele>90.30000305175781</ele>
<time>2014-02-16T13:54:01Z</time>
</trkpt>
<trkpt lat="52.682342529296875" lon="13.126750946044922">
<ele>90.4000015258789</ele>
<time>2014-02-16T13:54:02Z</time>
</trkpt>
<trkpt lat="52.68230438232422" lon="13.126801490783691">
<ele>90.5</ele>
<time>2014-02-16T13:54:03Z</time>
</trkpt>
<trkpt lat="52.6822624206543" lon="13.126851081848145">
<ele>90.5</ele>
<time>2014-02-16T13:54:04Z</time>
</trkpt>
<trkpt lat="52.68222427368164" lon="13.126900672912598">
<ele>90.5999984741211</ele>
<time>2014-02-16T13:54:05Z</time>
</trkpt>
<trkpt lat="52.682186126708984" lon="13.126948356628418">
<ele>90.80000305175781</ele>
<time>2014-02-16T13:54:06Z</time>
</trkpt>
<trkpt lat="52.68214797973633" lon="13.126992225646973">
<ele>90.9000015258789</ele>
<time>2014-02-16T13:54:07Z</time>
</trkpt>
<trkpt lat="52.682106018066406" lon="13.127036094665527">
<ele>91.0999984741211</ele>
<time>2014-02-16T13:54:08Z</time>
</trkpt>
<trkpt lat="52.682071685791016" lon="13.127081871032715">
<ele>91.30000305175781</ele>
<time>2014-02-16T13:54:09Z</time>
</trkpt>
<trkpt lat="52.68202590942383" lon="13.127129554748535">
<ele>91.4000015258789</ele>
<time>2014-02-16T13:54:10Z</time>
</trkpt>
<trkpt lat="52.68198776245117" lon="13.127177238464355">
<ele>91.69999694824219</ele>
<time>2014-02-16T13:54:11Z</time>
</trkpt>
<trkpt lat="52.68194580078125" lon="13.127224922180176">
<ele>91.5</ele>
<time>2014-02-16T13:54:12Z</time>
</trkpt>
<trkpt lat="52.68190383911133" lon="13.12727165222168">
<ele>91.9000015258789</ele>
<time>2014-02-16T13:54:13Z</time>
</trkpt>
<trkpt lat="52.68186569213867" lon="13.12731647491455">
<ele>91.9000015258789</ele>
<time>2014-02-16T13:54:14Z</time>
</trkpt>
<trkpt lat="52.681827545166016" lon="13.127362251281738">
<ele>92.0</ele>
<time>2014-02-16T13:54:15Z</time>
</trkpt>
<trkpt lat="52.68178939819336" lon="13.127409934997559">
<ele>92.0999984741211</ele>
<time>2014-02-16T13:54:16Z</time>
</trkpt>
<trkpt lat="52.6817512512207" lon="13.127453804016113">
<ele>92.0999984741211</ele>
<time>2014-02-16T13:54:17Z</time>
</trkpt>
<trkpt lat="52.68171310424805" lon="13.127498626708984">
<ele>92.30000305175781</ele>
<time>2014-02-16T13:54:18Z</time>
</trkpt>
<trkpt lat="52.681671142578125" lon="13.12755012512207">
<ele>92.0999984741211</ele>
<time>2014-02-16T13:54:19Z</time>
</trkpt>
<trkpt lat="52.68163299560547" lon="13.127599716186523">
<ele>92.0</ele>
<time>2014-02-16T13:54:20Z</time>
</trkpt>
<trkpt lat="52.68159484863281" lon="13.12764835357666">
<ele>92.0</ele>
<time>2014-02-16T13:54:21Z</time>
</trkpt>
<trkpt lat="52.681556701660156" lon="13.12769603729248">
<ele>91.80000305175781</ele>
<time>2014-02-16T13:54:22Z</time>
</trkpt>
<trkpt lat="52.6815185546875" lon="13.127742767333984">
<ele>91.9000015258789</ele>
<time>2014-02-16T13:54:23Z</time>
</trkpt>
<trkpt lat="52.68148422241211" lon="13.127788543701172">
<ele>91.9000015258789</ele>
<time>2014-02-16T13:54:24Z</time>
</trkpt>
<trkpt lat="52.68144607543945" lon="13.12783432006836">
<ele>91.69999694824219</ele>
<time>2014-02-16T13:54:25Z</time>
</trkpt>
<trkpt lat="52.68140411376953" lon="13.127880096435547">
<ele>91.9000015258789</ele>
<time>2014-02-16T13:54:26Z</time>
</trkpt>
<trkpt lat="52.681365966796875" lon="13.127927780151367">
<ele>91.9000015258789</ele>
<time>2014-02-16T13:54:27Z</time>
</trkpt>
<trkpt lat="52.68132781982422" lon="13.127978324890137">
<ele>91.9000015258789</ele>
<time>2014-02-16T13:54:28Z</time>
</trkpt>
<trkpt lat="52.68128967285156" lon="13.12802791595459">
<ele>91.80000305175781</ele>
<time>2014-02-16T13:54:29Z</time>
</trkpt>
<trkpt lat="52.681251525878906" lon="13.128077507019043">
<ele>91.5999984741211</ele>
<time>2014-02-16T13:54:30Z</time>
</trkpt>
<trkpt lat="52.681209564208984" lon="13.128125190734863">
<ele>91.69999694824219</ele>
<time>2014-02-16T13:54:31Z</time>
</trkpt>
<trkpt lat="52.68116760253906" lon="13.128171920776367">
<ele>92.0</ele>
<time>2014-02-16T13:54:32Z</time>
</trkpt>
<trkpt lat="52.681129455566406" lon="13.128219604492188">
<ele>91.69999694824219</ele>
<time>2014-02-16T13:54:33Z</time>
</trkpt>
<trkpt lat="52.681087493896484" lon="13.128267288208008">
<ele>91.69999694824219</ele>
<time>2014-02-16T13:54:34Z</time>
</trkpt>
<trkpt lat="52.68104934692383" lon="13.128317832946777">
<ele>91.9000015258789</ele>
<time>2014-02-16T13:54:35Z</time>
</trkpt>
<trkpt lat="52.68101501464844" lon="13.128364562988281">
<ele>92.0</ele>
<time>2014-02-16T13:54:36Z</time>
</trkpt>
<trkpt lat="52.680973052978516" lon="13.12840747833252">
<ele>92.0</ele>
<time>2014-02-16T13:54:37Z</time>
</trkpt>
<trkpt lat="52.680938720703125" lon="13.128450393676758">
<ele>92.0</ele>
<time>2014-02-16T13:54:38Z</time>
</trkpt>
<trkpt lat="52.68086624145508" lon="13.128539085388184">
<ele>91.5999984741211</ele>
<time>2014-02-16T13:54:40Z</time>
</trkpt>
<trkpt lat="52.68083190917969" lon="13.12858772277832">
<ele>91.5</ele>
<time>2014-02-16T13:54:41Z</time>
</trkpt>
<trkpt lat="52.68079376220703" lon="13.128629684448242">
<ele>91.80000305175781</ele>
<time>2014-02-16T13:54:42Z</time>
</trkpt>
<trkpt lat="52.680755615234375" lon="13.128677368164062">
<ele>91.69999694824219</ele>
<time>2014-02-16T13:54:43Z</time>
</trkpt>
<trkpt lat="52.68071746826172" lon="13.128722190856934">
<ele>91.5999984741211</ele>
<time>2014-02-16T13:54:44Z</time>
</trkpt>
<trkpt lat="52.680641174316406" lon="13.128800392150879">
<ele>91.5999984741211</ele>
<time>2014-02-16T13:54:46Z</time>
</trkpt>
<trkpt lat="52.68060302734375" lon="13.128849029541016">
<ele>91.69999694824219</ele>
<time>2014-02-16T13:54:47Z</time>
</trkpt>
<trkpt lat="52.68056106567383" lon="13.12889575958252">
<ele>92.0999984741211</ele>
<time>2014-02-16T13:54:48Z</time>
</trkpt>
<trkpt lat="52.68052291870117" lon="13.128937721252441">
<ele>92.0</ele>
<time>2014-02-16T13:54:49Z</time>
</trkpt>
<trkpt lat="52.68048095703125" lon="13.128989219665527">
<ele>91.9000015258789</ele>
<time>2014-02-16T13:54:50Z</time>
</trkpt>
<trkpt lat="52.680442810058594" lon="13.129045486450195">
<ele>91.69999694824219</ele>
<time>2014-02-16T13:54:51Z</time>
</trkpt>
<trkpt lat="52.68040084838867" lon="13.12910270690918">
<ele>92.0</ele>
<time>2014-02-16T13:54:52Z</time>
</trkpt>
<trkpt lat="52.680355072021484" lon="13.129158973693848">
<ele>91.5999984741211</ele>
<time>2014-02-16T13:54:53Z</time>
</trkpt>
<trkpt lat="52.68030548095703" lon="13.129220008850098">
<ele>91.30000305175781</ele>
<time>2014-02-16T13:54:54Z</time>
</trkpt>
<trkpt lat="52.680259704589844" lon="13.129279136657715">
<ele>91.19999694824219</ele>
<time>2014-02-16T13:54:55Z</time>
</trkpt>
<trkpt lat="52.68021011352539" lon="13.129340171813965">
<ele>91.0</ele>
<time>2014-02-16T13:54:56Z</time>
</trkpt>
<trkpt lat="52.68015670776367" lon="13.129405975341797">
<ele>90.5</ele>
<time>2014-02-16T13:54:57Z</time>
</trkpt>
<trkpt lat="52.68010330200195" lon="13.129472732543945">
<ele>90.0999984741211</ele>
<time>2014-02-16T13:54:58Z</time>
</trkpt>
<trkpt lat="52.68004608154297" lon="13.129542350769043">
<ele>89.80000305175781</ele>
<time>2014-02-16T13:54:59Z</time>
</trkpt>
<trkpt lat="52.679988861083984" lon="13.12961196899414">
<ele>89.30000305175781</ele>
<time>2014-02-16T13:55:00Z</time>
</trkpt>
<trkpt lat="52.679931640625" lon="13.129684448242188">
<ele>89.19999694824219</ele>
<time>2014-02-16T13:55:01Z</time>
</trkpt>
<trkpt lat="52.679874420166016" lon="13.129758834838867">
<ele>88.9000015258789</ele>
<time>2014-02-16T13:55:02Z</time>
</trkpt>
<trkpt lat="52.67981719970703" lon="13.12983512878418">
<ele>88.5999984741211</ele>
<time>2014-02-16T13:55:03Z</time>
</trkpt>
<trkpt lat="52.67975997924805" lon="13.129907608032227">
<ele>88.5</ele>
<time>2014-02-16T13:55:04Z</time>
</trkpt>
<trkpt lat="52.6796989440918" lon="13.129980087280273">
<ele>88.19999694824219</ele>
<time>2014-02-16T13:55:05Z</time>
</trkpt>
<trkpt lat="52.67963790893555" lon="13.130057334899902">
<ele>87.80000305175781</ele>
<time>2014-02-16T13:55:06Z</time>
</trkpt>
<trkpt lat="52.67957305908203" lon="13.130135536193848">
<ele>87.4000015258789</ele>
<time>2014-02-16T13:55:07Z</time>
</trkpt>
<trkpt lat="52.67951202392578" lon="13.130215644836426">
<ele>87.30000305175781</ele>
<time>2014-02-16T13:55:08Z</time>
</trkpt>
<trkpt lat="52.67945098876953" lon="13.130291938781738">
<ele>87.0999984741211</ele>
<time>2014-02-16T13:55:09Z</time>
</trkpt>
<trkpt lat="52.67938995361328" lon="13.130373001098633">
<ele>87.0</ele>
<time>2014-02-16T13:55:10Z</time>
</trkpt>
<trkpt lat="52.6793327331543" lon="13.130465507507324">
<ele>86.80000305175781</ele>
<time>2014-02-16T13:55:11Z</time>
</trkpt>
<trkpt lat="52.67927551269531" lon="13.130559921264648">
<ele>86.80000305175781</ele>
<time>2014-02-16T13:55:12Z</time>
</trkpt>
<trkpt lat="52.67921829223633" lon="13.130656242370605">
<ele>86.5999984741211</ele>
<time>2014-02-16T13:55:13Z</time>
</trkpt>
<trkpt lat="52.679161071777344" lon="13.130758285522461">
<ele>86.30000305175781</ele>
<time>2014-02-16T13:55:14Z</time>
</trkpt>
<trkpt lat="52.679107666015625" lon="13.130864143371582">
<ele>85.9000015258789</ele>
<time>2014-02-16T13:55:15Z</time>
</trkpt>
<trkpt lat="52.679046630859375" lon="13.13096809387207">
<ele>85.5</ele>
<time>2014-02-16T13:55:16Z</time>
</trkpt>
<trkpt lat="52.67898941040039" lon="13.131073951721191">
<ele>85.30000305175781</ele>
<time>2014-02-16T13:55:17Z</time>
</trkpt>
<trkpt lat="52.678932189941406" lon="13.131183624267578">
<ele>85.19999694824219</ele>
<time>2014-02-16T13:55:18Z</time>
</trkpt>
<trkpt lat="52.678871154785156" lon="13.131290435791016">
<ele>85.0999984741211</ele>
<time>2014-02-16T13:55:19Z</time>
</trkpt>
<trkpt lat="52.67881393432617" lon="13.131388664245605">
<ele>84.9000015258789</ele>
<time>2014-02-16T13:55:20Z</time>
</trkpt>
<trkpt lat="52.67876052856445" lon="13.131488800048828">
<ele>85.30000305175781</ele>
<time>2014-02-16T13:55:21Z</time>
</trkpt>
<trkpt lat="52.678707122802734" lon="13.13158893585205">
<ele>85.4000015258789</ele>
<time>2014-02-16T13:55:22Z</time>
</trkpt>
<trkpt lat="52.67864990234375" lon="13.131688117980957">
<ele>85.5999984741211</ele>
<time>2014-02-16T13:55:23Z</time>
</trkpt>
<trkpt lat="52.67859649658203" lon="13.131782531738281">
<ele>85.5</ele>
<time>2014-02-16T13:55:24Z</time>
</trkpt>
<trkpt lat="52.67854690551758" lon="13.131878852844238">
<ele>85.19999694824219</ele>
<time>2014-02-16T13:55:25Z</time>
</trkpt>
<trkpt lat="52.67849349975586" lon="13.131972312927246">
<ele>85.4000015258789</ele>
<time>2014-02-16T13:55:26Z</time>
</trkpt>
<trkpt lat="52.678443908691406" lon="13.132063865661621">
<ele>85.30000305175781</ele>
<time>2014-02-16T13:55:27Z</time>
</trkpt>
<trkpt lat="52.67839431762695" lon="13.132153511047363">
<ele>85.0999984741211</ele>
<time>2014-02-16T13:55:28Z</time>
</trkpt>
<trkpt lat="52.678348541259766" lon="13.132240295410156">
<ele>84.9000015258789</ele>
<time>2014-02-16T13:55:29Z</time>
</trkpt>
<trkpt lat="52.67829895019531" lon="13.132329940795898">
<ele>84.5999984741211</ele>
<time>2014-02-16T13:55:30Z</time>
</trkpt>
<trkpt lat="52.678253173828125" lon="13.132414817810059">
<ele>84.69999694824219</ele>
<time>2014-02-16T13:55:31Z</time>
</trkpt>
<trkpt lat="52.67820358276367" lon="13.132501602172852">
<ele>84.80000305175781</ele>
<time>2014-02-16T13:55:32Z</time>
</trkpt>
<trkpt lat="52.678157806396484" lon="13.132586479187012">
<ele>84.5999984741211</ele>
<time>2014-02-16T13:55:33Z</time>
</trkpt>
<trkpt lat="52.6781120300293" lon="13.132670402526855">
<ele>84.5</ele>
<time>2014-02-16T13:55:34Z</time>
</trkpt>
<trkpt lat="52.678062438964844" lon="13.1327543258667">
<ele>84.4000015258789</ele>
<time>2014-02-16T13:55:35Z</time>
</trkpt>
<trkpt lat="52.67801284790039" lon="13.132837295532227">
<ele>84.30000305175781</ele>
<time>2014-02-16T13:55:36Z</time>
</trkpt>
<trkpt lat="52.67796325683594" lon="13.132923126220703">
<ele>84.30000305175781</ele>
<time>2014-02-16T13:55:37Z</time>
</trkpt>
<trkpt lat="52.67791748046875" lon="13.13300895690918">
<ele>84.19999694824219</ele>
<time>2014-02-16T13:55:38Z</time>
</trkpt>
<trkpt lat="52.6778678894043" lon="13.133089065551758">
<ele>84.4000015258789</ele>
<time>2014-02-16T13:55:39Z</time>
</trkpt>
<trkpt lat="52.677825927734375" lon="13.133170127868652">
<ele>84.4000015258789</ele>
<time>2014-02-16T13:55:40Z</time>
</trkpt>
<trkpt lat="52.67778396606445" lon="13.133251190185547">
<ele>84.19999694824219</ele>
<time>2014-02-16T13:55:41Z</time>
</trkpt>
<trkpt lat="52.67774200439453" lon="13.133333206176758">
<ele>84.19999694824219</ele>
<time>2014-02-16T13:55:42Z</time>
</trkpt>
<trkpt lat="52.67770004272461" lon="13.13341236114502">
<ele>84.30000305175781</ele>
<time>2014-02-16T13:55:43Z</time>
</trkpt>
<trkpt lat="52.677650451660156" lon="13.133476257324219">
<ele>84.4000015258789</ele>
<time>2014-02-16T13:55:44Z</time>
</trkpt>
<trkpt lat="52.6776008605957" lon="13.133525848388672">
<ele>84.5999984741211</ele>
<time>2014-02-16T13:55:45Z</time>
</trkpt>
<trkpt lat="52.67754364013672" lon="13.133554458618164">
<ele>84.0999984741211</ele>
<time>2014-02-16T13:55:46Z</time>
</trkpt>
<trkpt lat="52.677490234375" lon="13.133594512939453">
<ele>84.0999984741211</ele>
<time>2014-02-16T13:55:47Z</time>
</trkpt>
<trkpt lat="52.677433013916016" lon="13.133641242980957">
<ele>83.9000015258789</ele>
<time>2014-02-16T13:55:48Z</time>
</trkpt>
<trkpt lat="52.67737579345703" lon="13.133678436279297">
<ele>84.0</ele>
<time>2014-02-16T13:55:49Z</time>
</trkpt>
<trkpt lat="52.67731857299805" lon="13.133706092834473">
<ele>83.9000015258789</ele>
<time>2014-02-16T13:55:50Z</time>
</trkpt>
<trkpt lat="52.67726135253906" lon="13.133727073669434">
<ele>83.80000305175781</ele>
<time>2014-02-16T13:55:51Z</time>
</trkpt>
<trkpt lat="52.677207946777344" lon="13.133755683898926">
<ele>83.69999694824219</ele>
<time>2014-02-16T13:55:52Z</time>
</trkpt>
<trkpt lat="52.67715835571289" lon="13.133781433105469">
<ele>83.5</ele>
<time>2014-02-16T13:55:53Z</time>
</trkpt>
<trkpt lat="52.677101135253906" lon="13.133805274963379">
<ele>83.9000015258789</ele>
<time>2014-02-16T13:55:54Z</time>
</trkpt>
<trkpt lat="52.67705154418945" lon="13.133827209472656">
<ele>84.0</ele>
<time>2014-02-16T13:55:55Z</time>
</trkpt>
<trkpt lat="52.676998138427734" lon="13.133840560913086">
<ele>84.19999694824219</ele>
<time>2014-02-16T13:55:56Z</time>
</trkpt>
<trkpt lat="52.67694854736328" lon="13.133856773376465">
<ele>84.4000015258789</ele>
<time>2014-02-16T13:55:57Z</time>
</trkpt>
<trkpt lat="52.67689895629883" lon="13.133872032165527">
<ele>84.30000305175781</ele>
<time>2014-02-16T13:55:58Z</time>
</trkpt>
<trkpt lat="52.676849365234375" lon="13.133878707885742">
<ele>84.80000305175781</ele>
<time>2014-02-16T13:55:59Z</time>
</trkpt>
<trkpt lat="52.67680740356445" lon="13.133883476257324">
<ele>85.5999984741211</ele>
<time>2014-02-16T13:56:00Z</time>
</trkpt>
<trkpt lat="52.67673110961914" lon="13.13389778137207">
<ele>86.0</ele>
<time>2014-02-16T13:56:02Z</time>
</trkpt>
<trkpt lat="52.676673889160156" lon="13.133954048156738">
<ele>85.80000305175781</ele>
<time>2014-02-16T13:56:04Z</time>
</trkpt>
<trkpt lat="52.67665100097656" lon="13.134058952331543">
<ele>85.0999984741211</ele>
<time>2014-02-16T13:56:06Z</time>
</trkpt>
<trkpt lat="52.67667007446289" lon="13.134186744689941">
<ele>85.0</ele>
<time>2014-02-16T13:56:08Z</time>
</trkpt>
<trkpt lat="52.67667007446289" lon="13.134319305419922">
<ele>84.9000015258789</ele>
<time>2014-02-16T13:56:10Z</time>
</trkpt>
<trkpt lat="52.676666259765625" lon="13.134453773498535">
<ele>85.30000305175781</ele>
<time>2014-02-16T13:56:12Z</time>
</trkpt>
<trkpt lat="52.6766471862793" lon="13.134586334228516">
<ele>85.5</ele>
<time>2014-02-16T13:56:14Z</time>
</trkpt>
<trkpt lat="52.676631927490234" lon="13.13471794128418">
<ele>85.9000015258789</ele>
<time>2014-02-16T13:56:16Z</time>
</trkpt>
<trkpt lat="52.67662048339844" lon="13.134844779968262">
<ele>86.30000305175781</ele>
<time>2014-02-16T13:56:18Z</time>
</trkpt>
<trkpt lat="52.67660903930664" lon="13.134964942932129">
<ele>86.4000015258789</ele>
<time>2014-02-16T13:56:20Z</time>
</trkpt>
<trkpt lat="52.67658996582031" lon="13.135091781616211">
<ele>86.19999694824219</ele>
<time>2014-02-16T13:56:22Z</time>
</trkpt>
<trkpt lat="52.676570892333984" lon="13.135207176208496">
<ele>86.69999694824219</ele>
<time>2014-02-16T13:56:24Z</time>
</trkpt>
<trkpt lat="52.67655944824219" lon="13.135310173034668">
<ele>87.0999984741211</ele>
<time>2014-02-16T13:56:26Z</time>
</trkpt>
<trkpt lat="52.676536560058594" lon="13.13544750213623">
<ele>85.5999984741211</ele>
<time>2014-02-16T13:56:32Z</time>
</trkpt>
<trkpt lat="52.67648696899414" lon="13.1355619430542">
<ele>86.0999984741211</ele>
<time>2014-02-16T13:56:35Z</time>
</trkpt>
<trkpt lat="52.6764030456543" lon="13.13569164276123">
<ele>89.0</ele>
<time>2014-02-16T13:56:38Z</time>
</trkpt>
<trkpt lat="52.676414489746094" lon="13.135844230651855">
<ele>89.0999984741211</ele>
<time>2014-02-16T13:56:40Z</time>
</trkpt>
<trkpt lat="52.676414489746094" lon="13.135950088500977">
<ele>89.0999984741211</ele>
<time>2014-02-16T13:56:41Z</time>
</trkpt>
<trkpt lat="52.676414489746094" lon="13.136191368103027">
<ele>88.69999694824219</ele>
<time>2014-02-16T13:56:46Z</time>
</trkpt>
<trkpt lat="52.676414489746094" lon="13.136332511901855">
<ele>88.4000015258789</ele>
<time>2014-02-16T13:56:48Z</time>
</trkpt>
<trkpt lat="52.67644500732422" lon="13.136576652526855">
<ele>90.80000305175781</ele>
<time>2014-02-16T13:56:51Z</time>
</trkpt>
<trkpt lat="52.67648696899414" lon="13.136643409729004">
<ele>91.5</ele>
<time>2014-02-16T13:56:53Z</time>
</trkpt>
<trkpt lat="52.67649459838867" lon="13.136778831481934">
<ele>91.30000305175781</ele>
<time>2014-02-16T13:56:55Z</time>
</trkpt>
<trkpt lat="52.676513671875" lon="13.136850357055664">
<ele>91.0999984741211</ele>
<time>2014-02-16T13:56:56Z</time>
</trkpt>
<trkpt lat="52.67654037475586" lon="13.136983871459961">
<ele>90.30000305175781</ele>
<time>2014-02-16T13:56:58Z</time>
</trkpt>
<trkpt lat="52.67656707763672" lon="13.137113571166992">
<ele>90.0</ele>
<time>2014-02-16T13:57:00Z</time>
</trkpt>
<trkpt lat="52.67658996582031" lon="13.137251853942871">
<ele>90.0</ele>
<time>2014-02-16T13:57:02Z</time>
</trkpt>
<trkpt lat="52.676597595214844" lon="13.13735580444336">
<ele>90.0999984741211</ele>
<time>2014-02-16T13:57:03Z</time>
</trkpt>
<trkpt lat="52.67662811279297" lon="13.137510299682617">
<ele>90.30000305175781</ele>
<time>2014-02-16T13:57:05Z</time>
</trkpt>
<trkpt lat="52.676639556884766" lon="13.137593269348145">
<ele>90.30000305175781</ele>
<time>2014-02-16T13:57:06Z</time>
</trkpt>
<trkpt lat="52.67665481567383" lon="13.13767147064209">
<ele>90.0999984741211</ele>
<time>2014-02-16T13:57:08Z</time>
</trkpt>
<trkpt lat="52.67667007446289" lon="13.137751579284668">
<ele>90.4000015258789</ele>
<time>2014-02-16T13:57:08Z</time>
</trkpt>
<trkpt lat="52.67668533325195" lon="13.137829780578613">
<ele>90.5</ele>
<time>2014-02-16T13:57:09Z</time>
</trkpt>
<trkpt lat="52.67670440673828" lon="13.137908935546875">
<ele>90.69999694824219</ele>
<time>2014-02-16T13:57:10Z</time>
</trkpt>
<trkpt lat="52.67671585083008" lon="13.1379976272583">
<ele>90.5</ele>
<time>2014-02-16T13:57:11Z</time>
</trkpt>
<trkpt lat="52.676719665527344" lon="13.138080596923828">
<ele>90.5</ele>
<time>2014-02-16T13:57:12Z</time>
</trkpt>
<trkpt lat="52.67673110961914" lon="13.138158798217773">
<ele>90.19999694824219</ele>
<time>2014-02-16T13:57:13Z</time>
</trkpt>
<trkpt lat="52.67673873901367" lon="13.138263702392578">
<ele>90.0999984741211</ele>
<time>2014-02-16T13:57:14Z</time>
</trkpt>
<trkpt lat="52.67676544189453" lon="13.138337135314941">
<ele>90.30000305175781</ele>
<time>2014-02-16T13:57:15Z</time>
</trkpt>
<trkpt lat="52.67677688598633" lon="13.138423919677734">
<ele>89.0999984741211</ele>
<time>2014-02-16T13:57:16Z</time>
</trkpt>
<trkpt lat="52.67678451538086" lon="13.138501167297363">
<ele>88.80000305175781</ele>
<time>2014-02-16T13:57:17Z</time>
</trkpt>
<trkpt lat="52.67677307128906" lon="13.138583183288574">
<ele>88.80000305175781</ele>
<time>2014-02-16T13:57:18Z</time>
</trkpt>
<trkpt lat="52.676734924316406" lon="13.138657569885254">
<ele>88.30000305175781</ele>
<time>2014-02-16T13:57:19Z</time>
</trkpt>
<trkpt lat="52.67670440673828" lon="13.13872241973877">
<ele>88.4000015258789</ele>
<time>2014-02-16T13:57:20Z</time>
</trkpt>
<trkpt lat="52.67667770385742" lon="13.138806343078613">
<ele>87.9000015258789</ele>
<time>2014-02-16T13:57:21Z</time>
</trkpt>
<trkpt lat="52.676658630371094" lon="13.138876914978027">
<ele>87.5</ele>
<time>2014-02-16T13:57:22Z</time>
</trkpt>
<trkpt lat="52.676639556884766" lon="13.138957977294922">
<ele>87.4000015258789</ele>
<time>2014-02-16T13:57:23Z</time>
</trkpt>
<trkpt lat="52.676612854003906" lon="13.139100074768066">
<ele>87.9000015258789</ele>
<time>2014-02-16T13:57:25Z</time>
</trkpt>
<trkpt lat="52.67660903930664" lon="13.139181137084961">
<ele>87.5</ele>
<time>2014-02-16T13:57:26Z</time>
</trkpt>
<trkpt lat="52.676605224609375" lon="13.139257431030273">
<ele>87.69999694824219</ele>
<time>2014-02-16T13:57:27Z</time>
</trkpt>
<trkpt lat="52.67660140991211" lon="13.139341354370117">
<ele>87.80000305175781</ele>
<time>2014-02-16T13:57:28Z</time>
</trkpt>
<trkpt lat="52.67660140991211" lon="13.139419555664062">
<ele>87.5</ele>
<time>2014-02-16T13:57:29Z</time>
</trkpt>
<trkpt lat="52.67660140991211" lon="13.139500617980957">
<ele>87.4000015258789</ele>
<time>2014-02-16T13:57:30Z</time>
</trkpt>
<trkpt lat="52.676597595214844" lon="13.139579772949219">
<ele>87.4000015258789</ele>
<time>2014-02-16T13:57:31Z</time>
</trkpt>
<trkpt lat="52.676597595214844" lon="13.139659881591797">
<ele>87.5999984741211</ele>
<time>2014-02-16T13:57:32Z</time>
</trkpt>
<trkpt lat="52.676597595214844" lon="13.139744758605957">
<ele>87.4000015258789</ele>
<time>2014-02-16T13:57:33Z</time>
</trkpt>
<trkpt lat="52.67660140991211" lon="13.139819145202637">
<ele>87.4000015258789</ele>
<time>2014-02-16T13:57:34Z</time>
</trkpt>
<trkpt lat="52.676597595214844" lon="13.139901161193848">
<ele>86.9000015258789</ele>
<time>2014-02-16T13:57:35Z</time>
</trkpt>
<trkpt lat="52.676597595214844" lon="13.139975547790527">
<ele>86.4000015258789</ele>
<time>2014-02-16T13:57:36Z</time>
</trkpt>
<trkpt lat="52.676597595214844" lon="13.140052795410156">
<ele>86.19999694824219</ele>
<time>2014-02-16T13:57:37Z</time>
</trkpt>
<trkpt lat="52.676605224609375" lon="13.140127182006836">
<ele>86.4000015258789</ele>
<time>2014-02-16T13:57:38Z</time>
</trkpt>
<trkpt lat="52.676605224609375" lon="13.140215873718262">
<ele>86.30000305175781</ele>
<time>2014-02-16T13:57:39Z</time>
</trkpt>
<trkpt lat="52.67660140991211" lon="13.140304565429688">
<ele>86.30000305175781</ele>
<time>2014-02-16T13:57:40Z</time>
</trkpt>
<trkpt lat="52.676605224609375" lon="13.140390396118164">
<ele>86.69999694824219</ele>
<time>2014-02-16T13:57:41Z</time>
</trkpt>
<trkpt lat="52.676597595214844" lon="13.140482902526855">
<ele>87.19999694824219</ele>
<time>2014-02-16T13:57:42Z</time>
</trkpt>
<trkpt lat="52.67659378051758" lon="13.140578269958496">
<ele>87.4000015258789</ele>
<time>2014-02-16T13:57:43Z</time>
</trkpt>
<trkpt lat="52.67660903930664" lon="13.140670776367188">
<ele>87.80000305175781</ele>
<time>2014-02-16T13:57:44Z</time>
</trkpt>
<trkpt lat="52.67659378051758" lon="13.14078426361084">
<ele>87.69999694824219</ele>
<time>2014-02-16T13:57:45Z</time>
</trkpt>
<trkpt lat="52.67658233642578" lon="13.140918731689453">
<ele>86.69999694824219</ele>
<time>2014-02-16T13:57:46Z</time>
</trkpt>
<trkpt lat="52.676570892333984" lon="13.141054153442383">
<ele>85.80000305175781</ele>
<time>2014-02-16T13:57:47Z</time>
</trkpt>
<trkpt lat="52.67656326293945" lon="13.141180992126465">
<ele>85.5</ele>
<time>2014-02-16T13:57:48Z</time>
</trkpt>
<trkpt lat="52.676551818847656" lon="13.141317367553711">
<ele>85.30000305175781</ele>
<time>2014-02-16T13:57:49Z</time>
</trkpt>
<trkpt lat="52.676544189453125" lon="13.14144229888916">
<ele>85.5</ele>
<time>2014-02-16T13:57:50Z</time>
</trkpt>
<trkpt lat="52.67653274536133" lon="13.141573905944824">
<ele>85.9000015258789</ele>
<time>2014-02-16T13:57:51Z</time>
</trkpt>
<trkpt lat="52.676517486572266" lon="13.141676902770996">
<ele>86.30000305175781</ele>
<time>2014-02-16T13:57:52Z</time>
</trkpt>
<trkpt lat="52.67649841308594" lon="13.141770362854004">
<ele>86.30000305175781</ele>
<time>2014-02-16T13:57:53Z</time>
</trkpt>
<trkpt lat="52.676483154296875" lon="13.141852378845215">
<ele>86.19999694824219</ele>
<time>2014-02-16T13:57:54Z</time>
</trkpt>
<trkpt lat="52.676483154296875" lon="13.141931533813477">
<ele>87.30000305175781</ele>
<time>2014-02-16T13:57:55Z</time>
</trkpt>
<trkpt lat="52.676475524902344" lon="13.142022132873535">
<ele>86.69999694824219</ele>
<time>2014-02-16T13:57:56Z</time>
</trkpt>
<trkpt lat="52.67646789550781" lon="13.142098426818848">
<ele>86.5999984741211</ele>
<time>2014-02-16T13:57:57Z</time>
</trkpt>
<trkpt lat="52.67644500732422" lon="13.14217758178711">
<ele>86.19999694824219</ele>
<time>2014-02-16T13:57:58Z</time>
</trkpt>
<trkpt lat="52.676422119140625" lon="13.142256736755371">
<ele>86.19999694824219</ele>
<time>2014-02-16T13:57:59Z</time>
</trkpt>
<trkpt lat="52.6764030456543" lon="13.142329216003418">
<ele>86.30000305175781</ele>
<time>2014-02-16T13:58:00Z</time>
</trkpt>
<trkpt lat="52.676368713378906" lon="13.142407417297363">
<ele>87.5999984741211</ele>
<time>2014-02-16T13:58:02Z</time>
</trkpt>
<trkpt lat="52.67633056640625" lon="13.142550468444824">
<ele>87.80000305175781</ele>
<time>2014-02-16T13:58:03Z</time>
</trkpt>
<trkpt lat="52.676307678222656" lon="13.142617225646973">
<ele>87.9000015258789</ele>
<time>2014-02-16T13:58:04Z</time>
</trkpt>
<trkpt lat="52.6762809753418" lon="13.142696380615234">
<ele>88.0</ele>
<time>2014-02-16T13:58:05Z</time>
</trkpt>
<trkpt lat="52.67626190185547" lon="13.142773628234863">
<ele>88.0</ele>
<time>2014-02-16T13:58:06Z</time>
</trkpt>
<trkpt lat="52.67623519897461" lon="13.142844200134277">
<ele>88.0999984741211</ele>
<time>2014-02-16T13:58:07Z</time>
</trkpt>
<trkpt lat="52.67619323730469" lon="13.142969131469727">
<ele>87.9000015258789</ele>
<time>2014-02-16T13:58:09Z</time>
</trkpt>
<trkpt lat="52.67616653442383" lon="13.143092155456543">
<ele>87.80000305175781</ele>
<time>2014-02-16T13:58:12Z</time>
</trkpt>
<trkpt lat="52.67611312866211" lon="13.143260955810547">
<ele>87.80000305175781</ele>
<time>2014-02-16T13:58:15Z</time>
</trkpt>
<trkpt lat="52.67608642578125" lon="13.143407821655273">
<ele>87.69999694824219</ele>
<time>2014-02-16T13:58:15Z</time>
</trkpt>
<trkpt lat="52.67606735229492" lon="13.143488883972168">
<ele>86.9000015258789</ele>
<time>2014-02-16T13:58:16Z</time>
</trkpt>
<trkpt lat="52.67605972290039" lon="13.143569946289062">
<ele>86.69999694824219</ele>
<time>2014-02-16T13:58:17Z</time>
</trkpt>
<trkpt lat="52.67604064941406" lon="13.143641471862793">
<ele>86.5</ele>
<time>2014-02-16T13:58:19Z</time>
</trkpt>
<trkpt lat="52.676029205322266" lon="13.143729209899902">
<ele>86.5</ele>
<time>2014-02-16T13:58:19Z</time>
</trkpt>
<trkpt lat="52.67600631713867" lon="13.143847465515137">
<ele>86.69999694824219</ele>
<time>2014-02-16T13:58:22Z</time>
</trkpt>
<trkpt lat="52.675968170166016" lon="13.143976211547852">
<ele>86.80000305175781</ele>
<time>2014-02-16T13:58:23Z</time>
</trkpt>
<trkpt lat="52.67594528198242" lon="13.144049644470215">
<ele>87.0</ele>
<time>2014-02-16T13:58:24Z</time>
</trkpt>
<trkpt lat="52.675941467285156" lon="13.144131660461426">
<ele>87.19999694824219</ele>
<time>2014-02-16T13:58:25Z</time>
</trkpt>
<trkpt lat="52.67595291137695" lon="13.144204139709473">
<ele>86.80000305175781</ele>
<time>2014-02-16T13:58:26Z</time>
</trkpt>
<trkpt lat="52.67597579956055" lon="13.144271850585938">
<ele>86.5999984741211</ele>
<time>2014-02-16T13:58:27Z</time>
</trkpt>
<trkpt lat="52.675987243652344" lon="13.14434814453125">
<ele>86.80000305175781</ele>
<time>2014-02-16T13:58:28Z</time>
</trkpt>
<trkpt lat="52.67599868774414" lon="13.144418716430664">
<ele>86.80000305175781</ele>
<time>2014-02-16T13:58:29Z</time>
</trkpt>
<trkpt lat="52.67599868774414" lon="13.14451789855957">
<ele>87.30000305175781</ele>
<time>2014-02-16T13:58:33Z</time>
</trkpt>
<trkpt lat="52.675865173339844" lon="13.144441604614258">
<ele>90.5</ele>
<time>2014-02-16T13:58:37Z</time>
</trkpt>
<trkpt lat="52.675785064697266" lon="13.144426345825195">
<ele>89.69999694824219</ele>
<time>2014-02-16T13:58:41Z</time>
</trkpt>
<trkpt lat="52.675662994384766" lon="13.144401550292969">
<ele>89.5</ele>
<time>2014-02-16T13:58:42Z</time>
</trkpt>
<trkpt lat="52.675575256347656" lon="13.14439582824707">
<ele>88.80000305175781</ele>
<time>2014-02-16T13:58:43Z</time>
</trkpt>
<trkpt lat="52.67549514770508" lon="13.144376754760742">
<ele>88.0999984741211</ele>
<time>2014-02-16T13:58:45Z</time>
</trkpt>
<trkpt lat="52.6754150390625" lon="13.144350051879883">
<ele>87.80000305175781</ele>
<time>2014-02-16T13:58:47Z</time>
</trkpt>
<trkpt lat="52.675331115722656" lon="13.144333839416504">
<ele>87.5</ele>
<time>2014-02-16T13:58:49Z</time>
</trkpt>
<trkpt lat="52.67525100708008" lon="13.14432144165039">
<ele>87.30000305175781</ele>
<time>2014-02-16T13:58:51Z</time>
</trkpt>
<trkpt lat="52.675167083740234" lon="13.144309997558594">
<ele>86.5999984741211</ele>
<time>2014-02-16T13:58:53Z</time>
</trkpt>
<trkpt lat="52.67511749267578" lon="13.144304275512695">
<ele>86.30000305175781</ele>
<time>2014-02-16T13:58:54Z</time>
</trkpt>
<trkpt lat="52.675071716308594" lon="13.144296646118164">
<ele>85.9000015258789</ele>
<time>2014-02-16T13:58:55Z</time>
</trkpt>
<trkpt lat="52.67502212524414" lon="13.144280433654785">
<ele>85.69999694824219</ele>
<time>2014-02-16T13:58:56Z</time>
</trkpt>
<trkpt lat="52.67496871948242" lon="13.144264221191406">
<ele>85.4000015258789</ele>
<time>2014-02-16T13:58:57Z</time>
</trkpt>
<trkpt lat="52.6749153137207" lon="13.144248962402344">
<ele>85.30000305175781</ele>
<time>2014-02-16T13:58:58Z</time>
</trkpt>
<trkpt lat="52.674861907958984" lon="13.144234657287598">
<ele>84.9000015258789</ele>
<time>2014-02-16T13:58:59Z</time>
</trkpt>
<trkpt lat="52.6748046875" lon="13.144229888916016">
<ele>84.5</ele>
<time>2014-02-16T13:59:00Z</time>
</trkpt>
<trkpt lat="52.674747467041016" lon="13.144227027893066">
<ele>84.30000305175781</ele>
<time>2014-02-16T13:59:01Z</time>
</trkpt>
<trkpt lat="52.67469787597656" lon="13.144214630126953">
<ele>83.80000305175781</ele>
<time>2014-02-16T13:59:02Z</time>
</trkpt>
<trkpt lat="52.67464828491211" lon="13.144213676452637">
<ele>83.30000305175781</ele>
<time>2014-02-16T13:59:03Z</time>
</trkpt>
<trkpt lat="52.67461395263672" lon="13.144266128540039">
<ele>83.80000305175781</ele>
<time>2014-02-16T13:59:04Z</time>
</trkpt>
<trkpt lat="52.674564361572266" lon="13.144388198852539">
<ele>83.80000305175781</ele>
<time>2014-02-16T13:59:06Z</time>
</trkpt>
<trkpt lat="52.6745719909668" lon="13.144463539123535">
<ele>84.30000305175781</ele>
<time>2014-02-16T13:59:07Z</time>
</trkpt>
<trkpt lat="52.674560546875" lon="13.144604682922363">
<ele>85.19999694824219</ele>
<time>2014-02-16T13:59:09Z</time>
</trkpt>
<trkpt lat="52.674556732177734" lon="13.144740104675293">
<ele>85.4000015258789</ele>
<time>2014-02-16T13:59:11Z</time>
</trkpt>
<trkpt lat="52.6745491027832" lon="13.144861221313477">
<ele>85.5999984741211</ele>
<time>2014-02-16T13:59:13Z</time>
</trkpt>
<trkpt lat="52.67454528808594" lon="13.144996643066406">
<ele>86.30000305175781</ele>
<time>2014-02-16T13:59:15Z</time>
</trkpt>
<trkpt lat="52.674537658691406" lon="13.145133018493652">
<ele>86.80000305175781</ele>
<time>2014-02-16T13:59:17Z</time>
</trkpt>
<trkpt lat="52.67453384399414" lon="13.145271301269531">
<ele>86.80000305175781</ele>
<time>2014-02-16T13:59:19Z</time>
</trkpt>
<trkpt lat="52.674537658691406" lon="13.145402908325195">
<ele>86.9000015258789</ele>
<time>2014-02-16T13:59:21Z</time>
</trkpt>
<trkpt lat="52.67453384399414" lon="13.145547866821289">
<ele>86.9000015258789</ele>
<time>2014-02-16T13:59:23Z</time>
</trkpt>
<trkpt lat="52.674537658691406" lon="13.145695686340332">
<ele>87.0</ele>
<time>2014-02-16T13:59:25Z</time>
</trkpt>
<trkpt lat="52.674537658691406" lon="13.145840644836426">
<ele>86.69999694824219</ele>
<time>2014-02-16T13:59:27Z</time>
</trkpt>
<trkpt lat="52.674537658691406" lon="13.145983695983887">
<ele>86.9000015258789</ele>
<time>2014-02-16T13:59:29Z</time>
</trkpt>
<trkpt lat="52.674537658691406" lon="13.14605712890625">
<ele>86.80000305175781</ele>
<time>2014-02-16T13:59:30Z</time>
</trkpt>
<trkpt lat="52.674537658691406" lon="13.146132469177246">
<ele>87.0999984741211</ele>
<time>2014-02-16T13:59:31Z</time>
</trkpt>
<trkpt lat="52.67454147338867" lon="13.146279335021973">
<ele>87.19999694824219</ele>
<time>2014-02-16T13:59:33Z</time>
</trkpt>
<trkpt lat="52.67454147338867" lon="13.146354675292969">
<ele>87.19999694824219</ele>
<time>2014-02-16T13:59:34Z</time>
</trkpt>
<trkpt lat="52.67454147338867" lon="13.146430969238281">
<ele>87.30000305175781</ele>
<time>2014-02-16T13:59:35Z</time>
</trkpt>
<trkpt lat="52.67454528808594" lon="13.146510124206543">
<ele>87.5</ele>
<time>2014-02-16T13:59:36Z</time>
</trkpt>
<trkpt lat="52.6745491027832" lon="13.146585464477539">
<ele>87.19999694824219</ele>
<time>2014-02-16T13:59:37Z</time>
</trkpt>
<trkpt lat="52.6745491027832" lon="13.146663665771484">
<ele>87.69999694824219</ele>
<time>2014-02-16T13:59:38Z</time>
</trkpt>
<trkpt lat="52.67455291748047" lon="13.146738052368164">
<ele>87.69999694824219</ele>
<time>2014-02-16T13:59:39Z</time>
</trkpt>
<trkpt lat="52.674564361572266" lon="13.14688491821289">
<ele>87.80000305175781</ele>
<time>2014-02-16T13:59:41Z</time>
</trkpt>
<trkpt lat="52.674564361572266" lon="13.146963119506836">
<ele>87.5999984741211</ele>
<time>2014-02-16T13:59:42Z</time>
</trkpt>
<trkpt lat="52.674560546875" lon="13.14704418182373">
<ele>87.4000015258789</ele>
<time>2014-02-16T13:59:43Z</time>
</trkpt>
<trkpt lat="52.674564361572266" lon="13.147124290466309">
<ele>87.4000015258789</ele>
<time>2014-02-16T13:59:44Z</time>
</trkpt>
<trkpt lat="52.674560546875" lon="13.147201538085938">
<ele>87.5999984741211</ele>
<time>2014-02-16T13:59:45Z</time>
</trkpt>
<trkpt lat="52.674560546875" lon="13.147285461425781">
<ele>87.9000015258789</ele>
<time>2014-02-16T13:59:46Z</time>
</trkpt>
<trkpt lat="52.674560546875" lon="13.147370338439941">
<ele>88.0</ele>
<time>2014-02-16T13:59:47Z</time>
</trkpt>
<trkpt lat="52.67456817626953" lon="13.14752197265625">
<ele>87.9000015258789</ele>
<time>2014-02-16T13:59:49Z</time>
</trkpt>
<trkpt lat="52.67456817626953" lon="13.147599220275879">
<ele>87.69999694824219</ele>
<time>2014-02-16T13:59:50Z</time>
</trkpt>
<trkpt lat="52.67457962036133" lon="13.147677421569824">
<ele>87.5999984741211</ele>
<time>2014-02-16T13:59:51Z</time>
</trkpt>
<trkpt lat="52.67458724975586" lon="13.147753715515137">
<ele>87.4000015258789</ele>
<time>2014-02-16T13:59:52Z</time>
</trkpt>
<trkpt lat="52.67459487915039" lon="13.1478271484375">
<ele>87.4000015258789</ele>
<time>2014-02-16T13:59:53Z</time>
</trkpt>
<trkpt lat="52.67459487915039" lon="13.147905349731445">
<ele>87.5</ele>
<time>2014-02-16T13:59:54Z</time>
</trkpt>
<trkpt lat="52.67459487915039" lon="13.147988319396973">
<ele>87.80000305175781</ele>
<time>2014-02-16T13:59:55Z</time>
</trkpt>
<trkpt lat="52.67459487915039" lon="13.148063659667969">
<ele>87.80000305175781</ele>
<time>2014-02-16T13:59:56Z</time>
</trkpt>
<trkpt lat="52.674598693847656" lon="13.148140907287598">
<ele>87.5</ele>
<time>2014-02-16T13:59:57Z</time>
</trkpt>
<trkpt lat="52.67460250854492" lon="13.148215293884277">
<ele>87.5</ele>
<time>2014-02-16T13:59:58Z</time>
</trkpt>
<trkpt lat="52.67460250854492" lon="13.148296356201172">
<ele>87.69999694824219</ele>
<time>2014-02-16T13:59:59Z</time>
</trkpt>
<trkpt lat="52.67460250854492" lon="13.148372650146484">
<ele>87.69999694824219</ele>
<time>2014-02-16T14:00:00Z</time>
</trkpt>
<trkpt lat="52.67461013793945" lon="13.148446083068848">
<ele>87.9000015258789</ele>
<time>2014-02-16T14:00:01Z</time>
</trkpt>
<trkpt lat="52.67461013793945" lon="13.148520469665527">
<ele>88.0999984741211</ele>
<time>2014-02-16T14:00:02Z</time>
</trkpt>
<trkpt lat="52.67461395263672" lon="13.14859676361084">
<ele>88.19999694824219</ele>
<time>2014-02-16T14:00:03Z</time>
</trkpt>
<trkpt lat="52.67462158203125" lon="13.148677825927734">
<ele>88.19999694824219</ele>
<time>2014-02-16T14:00:04Z</time>
</trkpt>
<trkpt lat="52.674625396728516" lon="13.148821830749512">
<ele>88.0999984741211</ele>
<time>2014-02-16T14:00:06Z</time>
</trkpt>
<trkpt lat="52.674625396728516" lon="13.148896217346191">
<ele>88.0999984741211</ele>
<time>2014-02-16T14:00:07Z</time>
</trkpt>
<trkpt lat="52.674625396728516" lon="13.148974418640137">
<ele>88.5</ele>
<time>2014-02-16T14:00:08Z</time>
</trkpt>
<trkpt lat="52.674617767333984" lon="13.149051666259766">
<ele>88.30000305175781</ele>
<time>2014-02-16T14:00:09Z</time>
</trkpt>
<trkpt lat="52.674617767333984" lon="13.14919662475586">
<ele>88.30000305175781</ele>
<time>2014-02-16T14:00:11Z</time>
</trkpt>
<trkpt lat="52.67461395263672" lon="13.149334907531738">
<ele>88.4000015258789</ele>
<time>2014-02-16T14:00:13Z</time>
</trkpt>
<trkpt lat="52.67461013793945" lon="13.149473190307617">
<ele>88.5</ele>
<time>2014-02-16T14:00:15Z</time>
</trkpt>
<trkpt lat="52.674598693847656" lon="13.14960765838623">
<ele>88.5999984741211</ele>
<time>2014-02-16T14:00:17Z</time>
</trkpt>
<trkpt lat="52.674591064453125" lon="13.149738311767578">
<ele>89.0999984741211</ele>
<time>2014-02-16T14:00:19Z</time>
</trkpt>
<trkpt lat="52.6745719909668" lon="13.149883270263672">
<ele>87.4000015258789</ele>
<time>2014-02-16T14:00:23Z</time>
</trkpt>
<trkpt lat="52.67458724975586" lon="13.149991035461426">
<ele>86.9000015258789</ele>
<time>2014-02-16T14:00:24Z</time>
</trkpt>
<trkpt lat="52.674583435058594" lon="13.150187492370605">
<ele>86.5</ele>
<time>2014-02-16T14:00:27Z</time>
</trkpt>
<trkpt lat="52.67456817626953" lon="13.150260925292969">
<ele>86.69999694824219</ele>
<time>2014-02-16T14:00:28Z</time>
</trkpt>
<trkpt lat="52.67454147338867" lon="13.150394439697266">
<ele>87.4000015258789</ele>
<time>2014-02-16T14:00:30Z</time>
</trkpt>
<trkpt lat="52.674530029296875" lon="13.150525093078613">
<ele>87.4000015258789</ele>
<time>2014-02-16T14:00:32Z</time>
</trkpt>
<trkpt lat="52.67451858520508" lon="13.150660514831543">
<ele>87.30000305175781</ele>
<time>2014-02-16T14:00:34Z</time>
</trkpt>
<trkpt lat="52.67450714111328" lon="13.150799751281738">
<ele>87.0999984741211</ele>
<time>2014-02-16T14:00:36Z</time>
</trkpt>
<trkpt lat="52.67449188232422" lon="13.150940895080566">
<ele>87.19999694824219</ele>
<time>2014-02-16T14:00:38Z</time>
</trkpt>
<trkpt lat="52.674476623535156" lon="13.151083946228027">
<ele>87.30000305175781</ele>
<time>2014-02-16T14:00:40Z</time>
</trkpt>
<trkpt lat="52.67448043823242" lon="13.151219367980957">
<ele>88.19999694824219</ele>
<time>2014-02-16T14:00:42Z</time>
</trkpt>
<trkpt lat="52.674503326416016" lon="13.151342391967773">
<ele>88.5</ele>
<time>2014-02-16T14:00:44Z</time>
</trkpt>
<trkpt lat="52.67454528808594" lon="13.151458740234375">
<ele>88.19999694824219</ele>
<time>2014-02-16T14:00:46Z</time>
</trkpt>
<trkpt lat="52.67456817626953" lon="13.151582717895508">
<ele>87.4000015258789</ele>
<time>2014-02-16T14:00:48Z</time>
</trkpt>
<trkpt lat="52.674591064453125" lon="13.151670455932617">
<ele>85.80000305175781</ele>
<time>2014-02-16T14:00:51Z</time>
</trkpt>
<trkpt lat="52.674503326416016" lon="13.15172290802002">
<ele>84.9000015258789</ele>
<time>2014-02-16T14:00:52Z</time>
</trkpt>
<trkpt lat="52.674434661865234" lon="13.151803970336914">
<ele>85.19999694824219</ele>
<time>2014-02-16T14:00:54Z</time>
</trkpt>
<trkpt lat="52.67436599731445" lon="13.151893615722656">
<ele>85.4000015258789</ele>
<time>2014-02-16T14:00:56Z</time>
</trkpt>
<trkpt lat="52.6743278503418" lon="13.151939392089844">
<ele>85.80000305175781</ele>
<time>2014-02-16T14:00:57Z</time>
</trkpt>
<trkpt lat="52.674259185791016" lon="13.152021408081055">
<ele>86.0</ele>
<time>2014-02-16T14:00:59Z</time>
</trkpt>
<trkpt lat="52.6741943359375" lon="13.152113914489746">
<ele>86.19999694824219</ele>
<time>2014-02-16T14:01:01Z</time>
</trkpt>
<trkpt lat="52.67412567138672" lon="13.152202606201172">
<ele>86.4000015258789</ele>
<time>2014-02-16T14:01:03Z</time>
</trkpt>
<trkpt lat="52.67409133911133" lon="13.152254104614258">
<ele>86.0999984741211</ele>
<time>2014-02-16T14:01:04Z</time>
</trkpt>
<trkpt lat="52.67405319213867" lon="13.152308464050293">
<ele>86.0999984741211</ele>
<time>2014-02-16T14:01:05Z</time>
</trkpt>
<trkpt lat="52.67401885986328" lon="13.152362823486328">
<ele>86.5</ele>
<time>2014-02-16T14:01:06Z</time>
</trkpt>
<trkpt lat="52.67398452758789" lon="13.152417182922363">
<ele>86.5999984741211</ele>
<time>2014-02-16T14:01:07Z</time>
</trkpt>
<trkpt lat="52.673946380615234" lon="13.152463912963867">
<ele>86.5</ele>
<time>2014-02-16T14:01:08Z</time>
</trkpt>
<trkpt lat="52.673912048339844" lon="13.152514457702637">
<ele>86.69999694824219</ele>
<time>2014-02-16T14:01:09Z</time>
</trkpt>
<trkpt lat="52.67387390136719" lon="13.152557373046875">
<ele>86.69999694824219</ele>
<time>2014-02-16T14:01:10Z</time>
</trkpt>
<trkpt lat="52.67383575439453" lon="13.152606010437012">
<ele>87.0999984741211</ele>
<time>2014-02-16T14:01:11Z</time>
</trkpt>
<trkpt lat="52.67380142211914" lon="13.152653694152832">
<ele>87.30000305175781</ele>
<time>2014-02-16T14:01:12Z</time>
</trkpt>
<trkpt lat="52.673763275146484" lon="13.15269947052002">
<ele>87.19999694824219</ele>
<time>2014-02-16T14:01:13Z</time>
</trkpt>
<trkpt lat="52.67372512817383" lon="13.152742385864258">
<ele>87.30000305175781</ele>
<time>2014-02-16T14:01:14Z</time>
</trkpt>
<trkpt lat="52.67368698120117" lon="13.152788162231445">
<ele>87.4000015258789</ele>
<time>2014-02-16T14:01:15Z</time>
</trkpt>
<trkpt lat="52.673614501953125" lon="13.15287971496582">
<ele>87.5</ele>
<time>2014-02-16T14:01:17Z</time>
</trkpt>
<trkpt lat="52.673580169677734" lon="13.15292739868164">
<ele>87.80000305175781</ele>
<time>2014-02-16T14:01:18Z</time>
</trkpt>
<trkpt lat="52.67350769042969" lon="13.153022766113281">
<ele>88.0</ele>
<time>2014-02-16T14:01:20Z</time>
</trkpt>
<trkpt lat="52.67343521118164" lon="13.153116226196289">
<ele>88.19999694824219</ele>
<time>2014-02-16T14:01:22Z</time>
</trkpt>
<trkpt lat="52.673397064208984" lon="13.153166770935059">
<ele>88.0999984741211</ele>
<time>2014-02-16T14:01:23Z</time>
</trkpt>
<trkpt lat="52.67335891723633" lon="13.153213500976562">
<ele>88.5</ele>
<time>2014-02-16T14:01:24Z</time>
</trkpt>
<trkpt lat="52.67332077026367" lon="13.153263092041016">
<ele>89.0999984741211</ele>
<time>2014-02-16T14:01:25Z</time>
</trkpt>
<trkpt lat="52.673282623291016" lon="13.153315544128418">
<ele>89.19999694824219</ele>
<time>2014-02-16T14:01:26Z</time>
</trkpt>
<trkpt lat="52.673248291015625" lon="13.153361320495605">
<ele>89.30000305175781</ele>
<time>2014-02-16T14:01:27Z</time>
</trkpt>
<trkpt lat="52.67317581176758" lon="13.153449058532715">
<ele>90.0999984741211</ele>
<time>2014-02-16T14:01:29Z</time>
</trkpt>
<trkpt lat="52.67311096191406" lon="13.153548240661621">
<ele>89.30000305175781</ele>
<time>2014-02-16T14:01:31Z</time>
</trkpt>
<trkpt lat="52.673072814941406" lon="13.15359115600586">
<ele>89.19999694824219</ele>
<time>2014-02-16T14:01:32Z</time>
</trkpt>
<trkpt lat="52.67301940917969" lon="13.153595924377441">
<ele>89.5</ele>
<time>2014-02-16T14:01:33Z</time>
</trkpt>
<trkpt lat="52.672969818115234" lon="13.153616905212402">
<ele>89.80000305175781</ele>
<time>2014-02-16T14:01:34Z</time>
</trkpt>
<trkpt lat="52.67292404174805" lon="13.153642654418945">
<ele>90.0999984741211</ele>
<time>2014-02-16T14:01:35Z</time>
</trkpt>
<trkpt lat="52.672847747802734" lon="13.153727531433105">
<ele>89.9000015258789</ele>
<time>2014-02-16T14:01:37Z</time>
</trkpt>
<trkpt lat="52.67280960083008" lon="13.153778076171875">
<ele>89.80000305175781</ele>
<time>2014-02-16T14:01:38Z</time>
</trkpt>
<trkpt lat="52.67277145385742" lon="13.153828620910645">
<ele>89.80000305175781</ele>
<time>2014-02-16T14:01:39Z</time>
</trkpt>
<trkpt lat="52.672733306884766" lon="13.153876304626465">
<ele>89.69999694824219</ele>
<time>2014-02-16T14:01:40Z</time>
</trkpt>
<trkpt lat="52.67269515991211" lon="13.153926849365234">
<ele>89.5999984741211</ele>
<time>2014-02-16T14:01:41Z</time>
</trkpt>
<trkpt lat="52.67265701293945" lon="13.153976440429688">
<ele>89.4000015258789</ele>
<time>2014-02-16T14:01:42Z</time>
</trkpt>
<trkpt lat="52.67261505126953" lon="13.15402889251709">
<ele>89.4000015258789</ele>
<time>2014-02-16T14:01:43Z</time>
</trkpt>
<trkpt lat="52.672576904296875" lon="13.15407657623291">
<ele>89.5</ele>
<time>2014-02-16T14:01:44Z</time>
</trkpt>
<trkpt lat="52.67253875732422" lon="13.154128074645996">
<ele>89.5</ele>
<time>2014-02-16T14:01:45Z</time>
</trkpt>
<trkpt lat="52.67250061035156" lon="13.154172897338867">
<ele>89.69999694824219</ele>
<time>2014-02-16T14:01:46Z</time>
</trkpt>
<trkpt lat="52.672462463378906" lon="13.15422248840332">
<ele>90.0</ele>
<time>2014-02-16T14:01:47Z</time>
</trkpt>
<trkpt lat="52.67242431640625" lon="13.154276847839355">
<ele>90.0999984741211</ele>
<time>2014-02-16T14:01:48Z</time>
</trkpt>
<trkpt lat="52.67238998413086" lon="13.154333114624023">
<ele>89.9000015258789</ele>
<time>2014-02-16T14:01:49Z</time>
</trkpt>
<trkpt lat="52.67235565185547" lon="13.154390335083008">
<ele>89.80000305175781</ele>
<time>2014-02-16T14:01:50Z</time>
</trkpt>
<trkpt lat="52.672325134277344" lon="13.154457092285156">
<ele>90.0</ele>
<time>2014-02-16T14:01:51Z</time>
</trkpt>
<trkpt lat="52.672298431396484" lon="13.154522895812988">
<ele>89.80000305175781</ele>
<time>2014-02-16T14:01:52Z</time>
</trkpt>
<trkpt lat="52.67226028442383" lon="13.154576301574707">
<ele>89.80000305175781</ele>
<time>2014-02-16T14:01:53Z</time>
</trkpt>
<trkpt lat="52.67222213745117" lon="13.154634475708008">
<ele>90.0</ele>
<time>2014-02-16T14:01:54Z</time>
</trkpt>
<trkpt lat="52.67218017578125" lon="13.15468692779541">
<ele>90.30000305175781</ele>
<time>2014-02-16T14:01:55Z</time>
</trkpt>
<trkpt lat="52.672142028808594" lon="13.154740333557129">
<ele>90.4000015258789</ele>
<time>2014-02-16T14:01:56Z</time>
</trkpt>
<trkpt lat="52.67210388183594" lon="13.154783248901367">
<ele>89.80000305175781</ele>
<time>2014-02-16T14:01:57Z</time>
</trkpt>
<trkpt lat="52.67206573486328" lon="13.154830932617188">
<ele>90.0999984741211</ele>
<time>2014-02-16T14:01:58Z</time>
</trkpt>
<trkpt lat="52.67203140258789" lon="13.154879570007324">
<ele>90.0</ele>
<time>2014-02-16T14:01:59Z</time>
</trkpt>
<trkpt lat="52.67198944091797" lon="13.154935836791992">
<ele>89.9000015258789</ele>
<time>2014-02-16T14:02:00Z</time>
</trkpt>
<trkpt lat="52.67195129394531" lon="13.154990196228027">
<ele>89.9000015258789</ele>
<time>2014-02-16T14:02:01Z</time>
</trkpt>
<trkpt lat="52.671913146972656" lon="13.155043601989746">
<ele>90.0</ele>
<time>2014-02-16T14:02:02Z</time>
</trkpt>
<trkpt lat="52.6718635559082" lon="13.155099868774414">
<ele>89.80000305175781</ele>
<time>2014-02-16T14:02:03Z</time>
</trkpt>
<trkpt lat="52.671810150146484" lon="13.155147552490234">
<ele>89.5999984741211</ele>
<time>2014-02-16T14:02:04Z</time>
</trkpt>
<trkpt lat="52.67176055908203" lon="13.155184745788574">
<ele>89.4000015258789</ele>
<time>2014-02-16T14:02:05Z</time>
</trkpt>
<trkpt lat="52.67171096801758" lon="13.155235290527344">
<ele>89.19999694824219</ele>
<time>2014-02-16T14:02:06Z</time>
</trkpt>
<trkpt lat="52.671669006347656" lon="13.155285835266113">
<ele>88.80000305175781</ele>
<time>2014-02-16T14:02:07Z</time>
</trkpt>
<trkpt lat="52.671627044677734" lon="13.155338287353516">
<ele>88.80000305175781</ele>
<time>2014-02-16T14:02:08Z</time>
</trkpt>
<trkpt lat="52.67158126831055" lon="13.1553955078125">
<ele>89.0999984741211</ele>
<time>2014-02-16T14:02:09Z</time>
</trkpt>
<trkpt lat="52.671539306640625" lon="13.155450820922852">
<ele>88.69999694824219</ele>
<time>2014-02-16T14:02:10Z</time>
</trkpt>
<trkpt lat="52.6714973449707" lon="13.15551471710205">
<ele>88.4000015258789</ele>
<time>2014-02-16T14:02:11Z</time>
</trkpt>
<trkpt lat="52.67145538330078" lon="13.155577659606934">
<ele>88.4000015258789</ele>
<time>2014-02-16T14:02:12Z</time>
</trkpt>
<trkpt lat="52.671409606933594" lon="13.15564250946045">
<ele>88.0</ele>
<time>2014-02-16T14:02:13Z</time>
</trkpt>
<trkpt lat="52.671363830566406" lon="13.155702590942383">
<ele>87.9000015258789</ele>
<time>2014-02-16T14:02:14Z</time>
</trkpt>
<trkpt lat="52.67131423950195" lon="13.155762672424316">
<ele>87.69999694824219</ele>
<time>2014-02-16T14:02:15Z</time>
</trkpt>
<trkpt lat="52.671268463134766" lon="13.155826568603516">
<ele>87.5999984741211</ele>
<time>2014-02-16T14:02:16Z</time>
</trkpt>
<trkpt lat="52.67121887207031" lon="13.155885696411133">
<ele>87.5999984741211</ele>
<time>2014-02-16T14:02:17Z</time>
</trkpt>
<trkpt lat="52.671173095703125" lon="13.1559476852417">
<ele>87.5</ele>
<time>2014-02-16T14:02:18Z</time>
</trkpt>
<trkpt lat="52.671119689941406" lon="13.156003952026367">
<ele>87.19999694824219</ele>
<time>2014-02-16T14:02:19Z</time>
</trkpt>
<trkpt lat="52.67107009887695" lon="13.156062126159668">
<ele>86.9000015258789</ele>
<time>2014-02-16T14:02:20Z</time>
</trkpt>
<trkpt lat="52.6710205078125" lon="13.156126976013184">
<ele>86.80000305175781</ele>
<time>2014-02-16T14:02:21Z</time>
</trkpt>
<trkpt lat="52.67097091674805" lon="13.156193733215332">
<ele>86.80000305175781</ele>
<time>2014-02-16T14:02:22Z</time>
</trkpt>
<trkpt lat="52.670921325683594" lon="13.156246185302734">
<ele>86.69999694824219</ele>
<time>2014-02-16T14:02:23Z</time>
</trkpt>
<trkpt lat="52.670875549316406" lon="13.156305313110352">
<ele>86.80000305175781</ele>
<time>2014-02-16T14:02:24Z</time>
</trkpt>
<trkpt lat="52.67081832885742" lon="13.15638256072998">
<ele>86.30000305175781</ele>
<time>2014-02-16T14:02:25Z</time>
</trkpt>
<trkpt lat="52.670753479003906" lon="13.156455993652344">
<ele>86.19999694824219</ele>
<time>2014-02-16T14:02:26Z</time>
</trkpt>
<trkpt lat="52.67068099975586" lon="13.156522750854492">
<ele>86.30000305175781</ele>
<time>2014-02-16T14:02:27Z</time>
</trkpt>
<trkpt lat="52.670623779296875" lon="13.156596183776855">
<ele>85.9000015258789</ele>
<time>2014-02-16T14:02:28Z</time>
</trkpt>
<trkpt lat="52.67055892944336" lon="13.156671524047852">
<ele>85.4000015258789</ele>
<time>2014-02-16T14:02:29Z</time>
</trkpt>
<trkpt lat="52.670501708984375" lon="13.156754493713379">
<ele>85.0</ele>
<time>2014-02-16T14:02:30Z</time>
</trkpt>
<trkpt lat="52.670440673828125" lon="13.156824111938477">
<ele>84.80000305175781</ele>
<time>2014-02-16T14:02:31Z</time>
</trkpt>
<trkpt lat="52.670379638671875" lon="13.15689754486084">
<ele>84.0999984741211</ele>
<time>2014-02-16T14:02:32Z</time>
</trkpt>
<trkpt lat="52.670326232910156" lon="13.156972885131836">
<ele>83.69999694824219</ele>
<time>2014-02-16T14:02:33Z</time>
</trkpt>
<trkpt lat="52.67027282714844" lon="13.157042503356934">
<ele>83.30000305175781</ele>
<time>2014-02-16T14:02:34Z</time>
</trkpt>
<trkpt lat="52.67021179199219" lon="13.157118797302246">
<ele>82.9000015258789</ele>
<time>2014-02-16T14:02:35Z</time>
</trkpt>
<trkpt lat="52.67014694213867" lon="13.157194137573242">
<ele>82.80000305175781</ele>
<time>2014-02-16T14:02:36Z</time>
</trkpt>
<trkpt lat="52.67008972167969" lon="13.157270431518555">
<ele>82.4000015258789</ele>
<time>2014-02-16T14:02:37Z</time>
</trkpt>
<trkpt lat="52.6700325012207" lon="13.157346725463867">
<ele>82.19999694824219</ele>
<time>2014-02-16T14:02:38Z</time>
</trkpt>
<trkpt lat="52.66997528076172" lon="13.15742301940918">
<ele>82.0999984741211</ele>
<time>2014-02-16T14:02:39Z</time>
</trkpt>
<trkpt lat="52.66991424560547" lon="13.157485961914062">
<ele>81.4000015258789</ele>
<time>2014-02-16T14:02:40Z</time>
</trkpt>
<trkpt lat="52.66985321044922" lon="13.157564163208008">
<ele>81.0</ele>
<time>2014-02-16T14:02:41Z</time>
</trkpt>
<trkpt lat="52.6697883605957" lon="13.157646179199219">
<ele>80.5</ele>
<time>2014-02-16T14:02:42Z</time>
</trkpt>
<trkpt lat="52.66972732543945" lon="13.157719612121582">
<ele>80.30000305175781</ele>
<time>2014-02-16T14:02:43Z</time>
</trkpt>
<trkpt lat="52.66965866088867" lon="13.15779972076416">
<ele>80.0999984741211</ele>
<time>2014-02-16T14:02:44Z</time>
</trkpt>
<trkpt lat="52.66958999633789" lon="13.157870292663574">
<ele>79.4000015258789</ele>
<time>2014-02-16T14:02:45Z</time>
</trkpt>
<trkpt lat="52.66952133178711" lon="13.15794563293457">
<ele>78.5</ele>
<time>2014-02-16T14:02:46Z</time>
</trkpt>
<trkpt lat="52.6694450378418" lon="13.15800666809082">
<ele>78.0</ele>
<time>2014-02-16T14:02:47Z</time>
</trkpt>
<trkpt lat="52.66937255859375" lon="13.158063888549805">
<ele>77.5999984741211</ele>
<time>2014-02-16T14:02:48Z</time>
</trkpt>
<trkpt lat="52.66929244995117" lon="13.15811538696289">
<ele>77.5</ele>
<time>2014-02-16T14:02:49Z</time>
</trkpt>
<trkpt lat="52.669212341308594" lon="13.158156394958496">
<ele>77.19999694824219</ele>
<time>2014-02-16T14:02:50Z</time>
</trkpt>
<trkpt lat="52.66912841796875" lon="13.158186912536621">
<ele>77.19999694824219</ele>
<time>2014-02-16T14:02:51Z</time>
</trkpt>
<trkpt lat="52.669044494628906" lon="13.15820026397705">
<ele>77.30000305175781</ele>
<time>2014-02-16T14:02:52Z</time>
</trkpt>
<trkpt lat="52.66897201538086" lon="13.158195495605469">
<ele>77.30000305175781</ele>
<time>2014-02-16T14:02:53Z</time>
</trkpt>
<trkpt lat="52.668914794921875" lon="13.158205032348633">
<ele>77.19999694824219</ele>
<time>2014-02-16T14:02:54Z</time>
</trkpt>
<trkpt lat="52.66886520385742" lon="13.158209800720215">
<ele>77.19999694824219</ele>
<time>2014-02-16T14:02:55Z</time>
</trkpt>
<trkpt lat="52.66881561279297" lon="13.15822982788086">
<ele>77.19999694824219</ele>
<time>2014-02-16T14:02:56Z</time>
</trkpt>
<trkpt lat="52.66877746582031" lon="13.15839672088623">
<ele>77.30000305175781</ele>
<time>2014-02-16T14:02:58Z</time>
</trkpt>
<trkpt lat="52.66878128051758" lon="13.158493041992188">
<ele>77.0</ele>
<time>2014-02-16T14:02:59Z</time>
</trkpt>
<trkpt lat="52.66879653930664" lon="13.15859317779541">
<ele>77.0</ele>
<time>2014-02-16T14:03:00Z</time>
</trkpt>
<trkpt lat="52.66880416870117" lon="13.158690452575684">
<ele>76.9000015258789</ele>
<time>2014-02-16T14:03:01Z</time>
</trkpt>
<trkpt lat="52.668766021728516" lon="13.158783912658691">
<ele>76.5</ele>
<time>2014-02-16T14:03:02Z</time>
</trkpt>
<trkpt lat="52.668724060058594" lon="13.15885066986084">
<ele>76.30000305175781</ele>
<time>2014-02-16T14:03:03Z</time>
</trkpt>
<trkpt lat="52.668678283691406" lon="13.158910751342773">
<ele>76.4000015258789</ele>
<time>2014-02-16T14:03:04Z</time>
</trkpt>
<trkpt lat="52.66862487792969" lon="13.158965110778809">
<ele>75.80000305175781</ele>
<time>2014-02-16T14:03:05Z</time>
</trkpt>
<trkpt lat="52.6685676574707" lon="13.15903091430664">
<ele>75.69999694824219</ele>
<time>2014-02-16T14:03:06Z</time>
</trkpt>
<trkpt lat="52.668514251708984" lon="13.159101486206055">
<ele>75.30000305175781</ele>
<time>2014-02-16T14:03:07Z</time>
</trkpt>
<trkpt lat="52.668460845947266" lon="13.159159660339355">
<ele>75.19999694824219</ele>
<time>2014-02-16T14:03:08Z</time>
</trkpt>
<trkpt lat="52.66840362548828" lon="13.159220695495605">
<ele>74.69999694824219</ele>
<time>2014-02-16T14:03:09Z</time>
</trkpt>
<trkpt lat="52.6683464050293" lon="13.159285545349121">
<ele>74.5999984741211</ele>
<time>2014-02-16T14:03:10Z</time>
</trkpt>
<trkpt lat="52.66828918457031" lon="13.159348487854004">
<ele>74.19999694824219</ele>
<time>2014-02-16T14:03:11Z</time>
</trkpt>
<trkpt lat="52.66823196411133" lon="13.159411430358887">
<ele>73.69999694824219</ele>
<time>2014-02-16T14:03:12Z</time>
</trkpt>
<trkpt lat="52.66816711425781" lon="13.159477233886719">
<ele>73.5999984741211</ele>
<time>2014-02-16T14:03:13Z</time>
</trkpt>
<trkpt lat="52.66810607910156" lon="13.159546852111816">
<ele>73.5999984741211</ele>
<time>2014-02-16T14:03:14Z</time>
</trkpt>
<trkpt lat="52.66804504394531" lon="13.159613609313965">
<ele>73.30000305175781</ele>
<time>2014-02-16T14:03:15Z</time>
</trkpt>
<trkpt lat="52.6679801940918" lon="13.159683227539062">
<ele>73.30000305175781</ele>
<time>2014-02-16T14:03:16Z</time>
</trkpt>
<trkpt lat="52.66791915893555" lon="13.15975570678711">
<ele>73.19999694824219</ele>
<time>2014-02-16T14:03:17Z</time>
</trkpt>
<trkpt lat="52.6678581237793" lon="13.159830093383789">
<ele>72.9000015258789</ele>
<time>2014-02-16T14:03:18Z</time>
</trkpt>
<trkpt lat="52.66779327392578" lon="13.159897804260254">
<ele>72.80000305175781</ele>
<time>2014-02-16T14:03:19Z</time>
</trkpt>
<trkpt lat="52.66773223876953" lon="13.159966468811035">
<ele>72.5999984741211</ele>
<time>2014-02-16T14:03:20Z</time>
</trkpt>
<trkpt lat="52.66767120361328" lon="13.160033226013184">
<ele>72.5999984741211</ele>
<time>2014-02-16T14:03:21Z</time>
</trkpt>
<trkpt lat="52.66761016845703" lon="13.1600980758667">
<ele>72.5999984741211</ele>
<time>2014-02-16T14:03:22Z</time>
</trkpt>
<trkpt lat="52.66754913330078" lon="13.160163879394531">
<ele>72.4000015258789</ele>
<time>2014-02-16T14:03:23Z</time>
</trkpt>
<trkpt lat="52.66748809814453" lon="13.160226821899414">
<ele>72.69999694824219</ele>
<time>2014-02-16T14:03:24Z</time>
</trkpt>
<trkpt lat="52.66743087768555" lon="13.16028881072998">
<ele>72.5999984741211</ele>
<time>2014-02-16T14:03:25Z</time>
</trkpt>
<trkpt lat="52.66737365722656" lon="13.160353660583496">
<ele>72.5999984741211</ele>
<time>2014-02-16T14:03:26Z</time>
</trkpt>
<trkpt lat="52.66731643676758" lon="13.160418510437012">
<ele>72.5</ele>
<time>2014-02-16T14:03:27Z</time>
</trkpt>
<trkpt lat="52.667259216308594" lon="13.160479545593262">
<ele>72.5999984741211</ele>
<time>2014-02-16T14:03:28Z</time>
</trkpt>
<trkpt lat="52.66720199584961" lon="13.160538673400879">
<ele>72.5999984741211</ele>
<time>2014-02-16T14:03:29Z</time>
</trkpt>
<trkpt lat="52.667144775390625" lon="13.160598754882812">
<ele>72.5999984741211</ele>
<time>2014-02-16T14:03:30Z</time>
</trkpt>
<trkpt lat="52.66708755493164" lon="13.160659790039062">
<ele>72.5</ele>
<time>2014-02-16T14:03:31Z</time>
</trkpt>
<trkpt lat="52.667030334472656" lon="13.160724639892578">
<ele>72.30000305175781</ele>
<time>2014-02-16T14:03:32Z</time>
</trkpt>
<trkpt lat="52.66697692871094" lon="13.160791397094727">
<ele>72.5</ele>
<time>2014-02-16T14:03:33Z</time>
</trkpt>
<trkpt lat="52.66692352294922" lon="13.16085147857666">
<ele>72.5</ele>
<time>2014-02-16T14:03:34Z</time>
</trkpt>
<trkpt lat="52.666873931884766" lon="13.160917282104492">
<ele>72.5</ele>
<time>2014-02-16T14:03:35Z</time>
</trkpt>
<trkpt lat="52.66682434082031" lon="13.160982131958008">
<ele>72.4000015258789</ele>
<time>2014-02-16T14:03:36Z</time>
</trkpt>
<trkpt lat="52.666770935058594" lon="13.16104793548584">
<ele>72.30000305175781</ele>
<time>2014-02-16T14:03:37Z</time>
</trkpt>
<trkpt lat="52.66672134399414" lon="13.161116600036621">
<ele>72.19999694824219</ele>
<time>2014-02-16T14:03:38Z</time>
</trkpt>
<trkpt lat="52.66667556762695" lon="13.161189079284668">
<ele>72.30000305175781</ele>
<time>2014-02-16T14:03:39Z</time>
</trkpt>
<trkpt lat="52.6666259765625" lon="13.161266326904297">
<ele>72.5</ele>
<time>2014-02-16T14:03:40Z</time>
</trkpt>
<trkpt lat="52.66658020019531" lon="13.161345481872559">
<ele>72.4000015258789</ele>
<time>2014-02-16T14:03:41Z</time>
</trkpt>
<trkpt lat="52.666542053222656" lon="13.161425590515137">
<ele>72.30000305175781</ele>
<time>2014-02-16T14:03:42Z</time>
</trkpt>
<trkpt lat="52.666500091552734" lon="13.161507606506348">
<ele>72.0999984741211</ele>
<time>2014-02-16T14:03:43Z</time>
</trkpt>
<trkpt lat="52.66646194458008" lon="13.161591529846191">
<ele>72.30000305175781</ele>
<time>2014-02-16T14:03:44Z</time>
</trkpt>
<trkpt lat="52.666419982910156" lon="13.161674499511719">
<ele>72.30000305175781</ele>
<time>2014-02-16T14:03:45Z</time>
</trkpt>
<trkpt lat="52.6663818359375" lon="13.161761283874512">
<ele>72.4000015258789</ele>
<time>2014-02-16T14:03:46Z</time>
</trkpt>
<trkpt lat="52.666343688964844" lon="13.161847114562988">
<ele>72.0999984741211</ele>
<time>2014-02-16T14:03:47Z</time>
</trkpt>
<trkpt lat="52.666297912597656" lon="13.161931037902832">
<ele>72.30000305175781</ele>
<time>2014-02-16T14:03:48Z</time>
</trkpt>
<trkpt lat="52.666255950927734" lon="13.16201400756836">
<ele>72.5</ele>
<time>2014-02-16T14:03:49Z</time>
</trkpt>
<trkpt lat="52.66621398925781" lon="13.162086486816406">
<ele>72.19999694824219</ele>
<time>2014-02-16T14:03:50Z</time>
</trkpt>
<trkpt lat="52.66616439819336" lon="13.162166595458984">
<ele>72.19999694824219</ele>
<time>2014-02-16T14:03:51Z</time>
</trkpt>
<trkpt lat="52.66611862182617" lon="13.162236213684082">
<ele>72.0</ele>
<time>2014-02-16T14:03:52Z</time>
</trkpt>
<trkpt lat="52.66606903076172" lon="13.162303924560547">
<ele>71.80000305175781</ele>
<time>2014-02-16T14:03:53Z</time>
</trkpt>
<trkpt lat="52.666015625" lon="13.162365913391113">
<ele>71.69999694824219</ele>
<time>2014-02-16T14:03:54Z</time>
</trkpt>
<trkpt lat="52.66596603393555" lon="13.162431716918945">
<ele>71.69999694824219</ele>
<time>2014-02-16T14:03:55Z</time>
</trkpt>
<trkpt lat="52.665916442871094" lon="13.162487983703613">
<ele>71.4000015258789</ele>
<time>2014-02-16T14:03:56Z</time>
</trkpt>
<trkpt lat="52.66586685180664" lon="13.162540435791016">
<ele>71.30000305175781</ele>
<time>2014-02-16T14:03:57Z</time>
</trkpt>
<trkpt lat="52.66581344604492" lon="13.162592887878418">
<ele>71.5</ele>
<time>2014-02-16T14:03:58Z</time>
</trkpt>
<trkpt lat="52.665767669677734" lon="13.16264820098877">
<ele>71.69999694824219</ele>
<time>2014-02-16T14:03:59Z</time>
</trkpt>
<trkpt lat="52.66571807861328" lon="13.162707328796387">
<ele>71.5999984741211</ele>
<time>2014-02-16T14:04:00Z</time>
</trkpt>
<trkpt lat="52.66566467285156" lon="13.162764549255371">
<ele>71.5</ele>
<time>2014-02-16T14:04:01Z</time>
</trkpt>
<trkpt lat="52.665611267089844" lon="13.162818908691406">
<ele>71.4000015258789</ele>
<time>2014-02-16T14:04:02Z</time>
</trkpt>
<trkpt lat="52.665557861328125" lon="13.162873268127441">
<ele>71.19999694824219</ele>
<time>2014-02-16T14:04:03Z</time>
</trkpt>
<trkpt lat="52.66550827026367" lon="13.162928581237793">
<ele>71.0</ele>
<time>2014-02-16T14:04:04Z</time>
</trkpt>
<trkpt lat="52.66545867919922" lon="13.162981033325195">
<ele>70.80000305175781</ele>
<time>2014-02-16T14:04:05Z</time>
</trkpt>
<trkpt lat="52.6654052734375" lon="13.163037300109863">
<ele>70.9000015258789</ele>
<time>2014-02-16T14:04:06Z</time>
</trkpt>
<trkpt lat="52.66535568237305" lon="13.163091659545898">
<ele>71.0</ele>
<time>2014-02-16T14:04:07Z</time>
</trkpt>
<trkpt lat="52.665306091308594" lon="13.163150787353516">
<ele>70.9000015258789</ele>
<time>2014-02-16T14:04:08Z</time>
</trkpt>
<trkpt lat="52.665252685546875" lon="13.163207054138184">
<ele>71.0</ele>
<time>2014-02-16T14:04:09Z</time>
</trkpt>
<trkpt lat="52.665199279785156" lon="13.163259506225586">
<ele>71.0</ele>
<time>2014-02-16T14:04:10Z</time>
</trkpt>
<trkpt lat="52.6651496887207" lon="13.163315773010254">
<ele>70.69999694824219</ele>
<time>2014-02-16T14:04:11Z</time>
</trkpt>
<trkpt lat="52.66510009765625" lon="13.163371086120605">
<ele>70.9000015258789</ele>
<time>2014-02-16T14:04:12Z</time>
</trkpt>
<trkpt lat="52.66504669189453" lon="13.16342830657959">
<ele>71.0</ele>
<time>2014-02-16T14:04:13Z</time>
</trkpt>
<trkpt lat="52.66499328613281" lon="13.163481712341309">
<ele>71.0</ele>
<time>2014-02-16T14:04:14Z</time>
</trkpt>
<trkpt lat="52.66494369506836" lon="13.163540840148926">
<ele>70.80000305175781</ele>
<time>2014-02-16T14:04:15Z</time>
</trkpt>
<trkpt lat="52.664894104003906" lon="13.163597106933594">
<ele>70.80000305175781</ele>
<time>2014-02-16T14:04:16Z</time>
</trkpt>
<trkpt lat="52.66484451293945" lon="13.163653373718262">
<ele>71.0</ele>
<time>2014-02-16T14:04:17Z</time>
</trkpt>
<trkpt lat="52.664794921875" lon="13.163711547851562">
<ele>71.0</ele>
<time>2014-02-16T14:04:18Z</time>
</trkpt>
<trkpt lat="52.66474914550781" lon="13.16376781463623">
<ele>71.19999694824219</ele>
<time>2014-02-16T14:04:19Z</time>
</trkpt>
<trkpt lat="52.66469955444336" lon="13.163823127746582">
<ele>71.19999694824219</ele>
<time>2014-02-16T14:04:20Z</time>
</trkpt>
<trkpt lat="52.664649963378906" lon="13.163877487182617">
<ele>71.0999984741211</ele>
<time>2014-02-16T14:04:21Z</time>
</trkpt>
<trkpt lat="52.664608001708984" lon="13.163930892944336">
<ele>71.0</ele>
<time>2014-02-16T14:04:22Z</time>
</trkpt>
<trkpt lat="52.6645622253418" lon="13.163987159729004">
<ele>70.9000015258789</ele>
<time>2014-02-16T14:04:23Z</time>
</trkpt>
<trkpt lat="52.664512634277344" lon="13.164048194885254">
<ele>70.80000305175781</ele>
<time>2014-02-16T14:04:24Z</time>
</trkpt>
<trkpt lat="52.66447067260742" lon="13.164106369018555">
<ele>70.80000305175781</ele>
<time>2014-02-16T14:04:25Z</time>
</trkpt>
<trkpt lat="52.66442108154297" lon="13.164166450500488">
<ele>70.80000305175781</ele>
<time>2014-02-16T14:04:26Z</time>
</trkpt>
<trkpt lat="52.66437530517578" lon="13.164226531982422">
<ele>70.80000305175781</ele>
<time>2014-02-16T14:04:27Z</time>
</trkpt>
<trkpt lat="52.664329528808594" lon="13.164289474487305">
<ele>70.80000305175781</ele>
<time>2014-02-16T14:04:28Z</time>
</trkpt>
<trkpt lat="52.664283752441406" lon="13.164351463317871">
<ele>70.69999694824219</ele>
<time>2014-02-16T14:04:29Z</time>
</trkpt>
<trkpt lat="52.66423797607422" lon="13.164413452148438">
<ele>70.80000305175781</ele>
<time>2014-02-16T14:04:30Z</time>
</trkpt>
<trkpt lat="52.664188385009766" lon="13.164478302001953">
<ele>70.80000305175781</ele>
<time>2014-02-16T14:04:31Z</time>
</trkpt>
<trkpt lat="52.664146423339844" lon="13.164546012878418">
<ele>70.9000015258789</ele>
<time>2014-02-16T14:04:32Z</time>
</trkpt>
<trkpt lat="52.664100646972656" lon="13.164609909057617">
<ele>70.9000015258789</ele>
<time>2014-02-16T14:04:33Z</time>
</trkpt>
<trkpt lat="52.6640510559082" lon="13.164674758911133">
<ele>71.0999984741211</ele>
<time>2014-02-16T14:04:34Z</time>
</trkpt>
<trkpt lat="52.664005279541016" lon="13.164738655090332">
<ele>71.0</ele>
<time>2014-02-16T14:04:35Z</time>
</trkpt>
<trkpt lat="52.66395950317383" lon="13.164804458618164">
<ele>71.0</ele>
<time>2014-02-16T14:04:36Z</time>
</trkpt>
<trkpt lat="52.66391372680664" lon="13.164875030517578">
<ele>71.0999984741211</ele>
<time>2014-02-16T14:04:37Z</time>
</trkpt>
<trkpt lat="52.66386795043945" lon="13.164945602416992">
<ele>71.19999694824219</ele>
<time>2014-02-16T14:04:38Z</time>
</trkpt>
<trkpt lat="52.66382598876953" lon="13.165018081665039">
<ele>71.0</ele>
<time>2014-02-16T14:04:39Z</time>
</trkpt>
<trkpt lat="52.663780212402344" lon="13.165088653564453">
<ele>71.0999984741211</ele>
<time>2014-02-16T14:04:40Z</time>
</trkpt>
<trkpt lat="52.663734436035156" lon="13.1651611328125">
<ele>71.0999984741211</ele>
<time>2014-02-16T14:04:41Z</time>
</trkpt>
<trkpt lat="52.66368865966797" lon="13.165230751037598">
<ele>71.0</ele>
<time>2014-02-16T14:04:42Z</time>
</trkpt>
<trkpt lat="52.66364288330078" lon="13.165301322937012">
<ele>71.0999984741211</ele>
<time>2014-02-16T14:04:43Z</time>
</trkpt>
<trkpt lat="52.66360092163086" lon="13.165371894836426">
<ele>71.30000305175781</ele>
<time>2014-02-16T14:04:44Z</time>
</trkpt>
<trkpt lat="52.66355514526367" lon="13.165446281433105">
<ele>71.0999984741211</ele>
<time>2014-02-16T14:04:45Z</time>
</trkpt>
<trkpt lat="52.66351318359375" lon="13.165523529052734">
<ele>71.0999984741211</ele>
<time>2014-02-16T14:04:46Z</time>
</trkpt>
<trkpt lat="52.6634635925293" lon="13.165595054626465">
<ele>71.0</ele>
<time>2014-02-16T14:04:47Z</time>
</trkpt>
<trkpt lat="52.663421630859375" lon="13.16567611694336">
<ele>71.0</ele>
<time>2014-02-16T14:04:48Z</time>
</trkpt>
<trkpt lat="52.66337966918945" lon="13.165752410888672">
<ele>71.0</ele>
<time>2014-02-16T14:04:49Z</time>
</trkpt>
<trkpt lat="52.66333770751953" lon="13.165824890136719">
<ele>71.19999694824219</ele>
<time>2014-02-16T14:04:50Z</time>
</trkpt>
<trkpt lat="52.66329574584961" lon="13.165898323059082">
<ele>71.19999694824219</ele>
<time>2014-02-16T14:04:51Z</time>
</trkpt>
<trkpt lat="52.66325378417969" lon="13.165971755981445">
<ele>71.0999984741211</ele>
<time>2014-02-16T14:04:52Z</time>
</trkpt>
<trkpt lat="52.66321563720703" lon="13.16604232788086">
<ele>71.0999984741211</ele>
<time>2014-02-16T14:04:53Z</time>
</trkpt>
<trkpt lat="52.66317367553711" lon="13.166119575500488">
<ele>70.9000015258789</ele>
<time>2014-02-16T14:04:54Z</time>
</trkpt>
<trkpt lat="52.66313552856445" lon="13.166193962097168">
<ele>71.0</ele>
<time>2014-02-16T14:04:55Z</time>
</trkpt>
<trkpt lat="52.66310119628906" lon="13.166275024414062">
<ele>71.0</ele>
<time>2014-02-16T14:04:56Z</time>
</trkpt>
<trkpt lat="52.66306686401367" lon="13.166353225708008">
<ele>70.9000015258789</ele>
<time>2014-02-16T14:04:57Z</time>
</trkpt>
<trkpt lat="52.663028717041016" lon="13.166435241699219">
<ele>70.80000305175781</ele>
<time>2014-02-16T14:04:58Z</time>
</trkpt>
<trkpt lat="52.662994384765625" lon="13.166518211364746">
<ele>70.9000015258789</ele>
<time>2014-02-16T14:04:59Z</time>
</trkpt>
<trkpt lat="52.662960052490234" lon="13.166598320007324">
<ele>71.0</ele>
<time>2014-02-16T14:05:00Z</time>
</trkpt>
<trkpt lat="52.662933349609375" lon="13.166683197021484">
<ele>71.19999694824219</ele>
<time>2014-02-16T14:05:01Z</time>
</trkpt>
<trkpt lat="52.66290283203125" lon="13.166769981384277">
<ele>71.4000015258789</ele>
<time>2014-02-16T14:05:02Z</time>
</trkpt>
<trkpt lat="52.662872314453125" lon="13.166852951049805">
<ele>71.4000015258789</ele>
<time>2014-02-16T14:05:03Z</time>
</trkpt>
<trkpt lat="52.662841796875" lon="13.166940689086914">
<ele>71.19999694824219</ele>
<time>2014-02-16T14:05:04Z</time>
</trkpt>
<trkpt lat="52.66280746459961" lon="13.167024612426758">
<ele>71.30000305175781</ele>
<time>2014-02-16T14:05:05Z</time>
</trkpt>
<trkpt lat="52.66276931762695" lon="13.167112350463867">
<ele>71.4000015258789</ele>
<time>2014-02-16T14:05:06Z</time>
</trkpt>
<trkpt lat="52.66273498535156" lon="13.167197227478027">
<ele>71.4000015258789</ele>
<time>2014-02-16T14:05:07Z</time>
</trkpt>
<trkpt lat="52.66270065307617" lon="13.167278289794922">
<ele>71.5999984741211</ele>
<time>2014-02-16T14:05:08Z</time>
</trkpt>
<trkpt lat="52.662662506103516" lon="13.167365074157715">
<ele>71.80000305175781</ele>
<time>2014-02-16T14:05:09Z</time>
</trkpt>
<trkpt lat="52.66262435913086" lon="13.167450904846191">
<ele>72.0</ele>
<time>2014-02-16T14:05:10Z</time>
</trkpt>
<trkpt lat="52.662593841552734" lon="13.167530059814453">
<ele>72.19999694824219</ele>
<time>2014-02-16T14:05:11Z</time>
</trkpt>
<trkpt lat="52.662559509277344" lon="13.167612075805664">
<ele>72.0999984741211</ele>
<time>2014-02-16T14:05:12Z</time>
</trkpt>
<trkpt lat="52.66252517700195" lon="13.167695045471191">
<ele>72.19999694824219</ele>
<time>2014-02-16T14:05:13Z</time>
</trkpt>
<trkpt lat="52.66249084472656" lon="13.1677827835083">
<ele>72.30000305175781</ele>
<time>2014-02-16T14:05:14Z</time>
</trkpt>
<trkpt lat="52.66245651245117" lon="13.167865753173828">
<ele>72.4000015258789</ele>
<time>2014-02-16T14:05:15Z</time>
</trkpt>
<trkpt lat="52.66242218017578" lon="13.167949676513672">
<ele>72.5999984741211</ele>
<time>2014-02-16T14:05:16Z</time>
</trkpt>
<trkpt lat="52.662384033203125" lon="13.168035507202148">
<ele>72.80000305175781</ele>
<time>2014-02-16T14:05:17Z</time>
</trkpt>
<trkpt lat="52.662349700927734" lon="13.168121337890625">
<ele>72.9000015258789</ele>
<time>2014-02-16T14:05:18Z</time>
</trkpt>
<trkpt lat="52.662315368652344" lon="13.168210983276367">
<ele>72.9000015258789</ele>
<time>2014-02-16T14:05:19Z</time>
</trkpt>
<trkpt lat="52.66227722167969" lon="13.168301582336426">
<ele>72.9000015258789</ele>
<time>2014-02-16T14:05:20Z</time>
</trkpt>
<trkpt lat="52.6622428894043" lon="13.168391227722168">
<ele>72.9000015258789</ele>
<time>2014-02-16T14:05:21Z</time>
</trkpt>
<trkpt lat="52.66220474243164" lon="13.168482780456543">
<ele>72.80000305175781</ele>
<time>2014-02-16T14:05:22Z</time>
</trkpt>
<trkpt lat="52.66217041015625" lon="13.168569564819336">
<ele>72.69999694824219</ele>
<time>2014-02-16T14:05:23Z</time>
</trkpt>
<trkpt lat="52.662132263183594" lon="13.168656349182129">
<ele>72.80000305175781</ele>
<time>2014-02-16T14:05:24Z</time>
</trkpt>
<trkpt lat="52.6620979309082" lon="13.168745040893555">
<ele>73.0999984741211</ele>
<time>2014-02-16T14:05:25Z</time>
</trkpt>
<trkpt lat="52.66205978393555" lon="13.168832778930664">
<ele>73.0</ele>
<time>2014-02-16T14:05:26Z</time>
</trkpt>
<trkpt lat="52.662025451660156" lon="13.168920516967773">
<ele>73.0</ele>
<time>2014-02-16T14:05:27Z</time>
</trkpt>
<trkpt lat="52.661991119384766" lon="13.169008255004883">
<ele>72.69999694824219</ele>
<time>2014-02-16T14:05:28Z</time>
</trkpt>
<trkpt lat="52.66195297241211" lon="13.16910171508789">
<ele>72.80000305175781</ele>
<time>2014-02-16T14:05:29Z</time>
</trkpt>
<trkpt lat="52.66191482543945" lon="13.16919231414795">
<ele>72.80000305175781</ele>
<time>2014-02-16T14:05:30Z</time>
</trkpt>
<trkpt lat="52.66188049316406" lon="13.169281005859375">
<ele>72.80000305175781</ele>
<time>2014-02-16T14:05:31Z</time>
</trkpt>
<trkpt lat="52.66184616088867" lon="13.169368743896484">
<ele>72.4000015258789</ele>
<time>2014-02-16T14:05:32Z</time>
</trkpt>
<trkpt lat="52.66181182861328" lon="13.169456481933594">
<ele>72.19999694824219</ele>
<time>2014-02-16T14:05:33Z</time>
</trkpt>
<trkpt lat="52.66177749633789" lon="13.169546127319336">
<ele>72.0999984741211</ele>
<time>2014-02-16T14:05:34Z</time>
</trkpt>
<trkpt lat="52.6617431640625" lon="13.169637680053711">
<ele>72.0999984741211</ele>
<time>2014-02-16T14:05:35Z</time>
</trkpt>
<trkpt lat="52.661712646484375" lon="13.169726371765137">
<ele>72.30000305175781</ele>
<time>2014-02-16T14:05:36Z</time>
</trkpt>
<trkpt lat="52.661678314208984" lon="13.169821739196777">
<ele>72.19999694824219</ele>
<time>2014-02-16T14:05:37Z</time>
</trkpt>
<trkpt lat="52.661643981933594" lon="13.169915199279785">
<ele>72.5999984741211</ele>
<time>2014-02-16T14:05:38Z</time>
</trkpt>
<trkpt lat="52.6616096496582" lon="13.170008659362793">
<ele>72.69999694824219</ele>
<time>2014-02-16T14:05:39Z</time>
</trkpt>
<trkpt lat="52.66157531738281" lon="13.1701021194458">
<ele>72.5999984741211</ele>
<time>2014-02-16T14:05:40Z</time>
</trkpt>
<trkpt lat="52.66154479980469" lon="13.170197486877441">
<ele>72.69999694824219</ele>
<time>2014-02-16T14:05:41Z</time>
</trkpt>
<trkpt lat="52.66151428222656" lon="13.170293807983398">
<ele>72.80000305175781</ele>
<time>2014-02-16T14:05:42Z</time>
</trkpt>
<trkpt lat="52.66148376464844" lon="13.170389175415039">
<ele>72.9000015258789</ele>
<time>2014-02-16T14:05:43Z</time>
</trkpt>
<trkpt lat="52.66144943237305" lon="13.170483589172363">
<ele>72.80000305175781</ele>
<time>2014-02-16T14:05:44Z</time>
</trkpt>
<trkpt lat="52.66142272949219" lon="13.170578002929688">
<ele>72.80000305175781</ele>
<time>2014-02-16T14:05:45Z</time>
</trkpt>
<trkpt lat="52.66139221191406" lon="13.170673370361328">
<ele>72.80000305175781</ele>
<time>2014-02-16T14:05:46Z</time>
</trkpt>
<trkpt lat="52.6613655090332" lon="13.170766830444336">
<ele>72.80000305175781</ele>
<time>2014-02-16T14:05:47Z</time>
</trkpt>
<trkpt lat="52.661338806152344" lon="13.17086124420166">
<ele>72.80000305175781</ele>
<time>2014-02-16T14:05:48Z</time>
</trkpt>
<trkpt lat="52.66131591796875" lon="13.17095947265625">
<ele>72.80000305175781</ele>
<time>2014-02-16T14:05:49Z</time>
</trkpt>
<trkpt lat="52.661293029785156" lon="13.171058654785156">
<ele>72.69999694824219</ele>
<time>2014-02-16T14:05:51Z</time>
</trkpt>
<trkpt lat="52.6612434387207" lon="13.17125129699707">
<ele>72.80000305175781</ele>
<time>2014-02-16T14:05:52Z</time>
</trkpt>
<trkpt lat="52.66122055053711" lon="13.171350479125977">
<ele>72.69999694824219</ele>
<time>2014-02-16T14:05:53Z</time>
</trkpt>
<trkpt lat="52.661197662353516" lon="13.171449661254883">
<ele>72.69999694824219</ele>
<time>2014-02-16T14:05:54Z</time>
</trkpt>
<trkpt lat="52.66117477416992" lon="13.171550750732422">
<ele>72.80000305175781</ele>
<time>2014-02-16T14:05:55Z</time>
</trkpt>
<trkpt lat="52.661155700683594" lon="13.171650886535645">
<ele>72.80000305175781</ele>
<time>2014-02-16T14:05:56Z</time>
</trkpt>
<trkpt lat="52.661136627197266" lon="13.171754837036133">
<ele>72.9000015258789</ele>
<time>2014-02-16T14:05:57Z</time>
</trkpt>
<trkpt lat="52.66111755371094" lon="13.171855926513672">
<ele>73.0</ele>
<time>2014-02-16T14:05:58Z</time>
</trkpt>
<trkpt lat="52.66109848022461" lon="13.171958923339844">
<ele>72.9000015258789</ele>
<time>2014-02-16T14:05:59Z</time>
</trkpt>
<trkpt lat="52.66107940673828" lon="13.172061920166016">
<ele>72.69999694824219</ele>
<time>2014-02-16T14:06:00Z</time>
</trkpt>
<trkpt lat="52.66106033325195" lon="13.172165870666504">
<ele>72.69999694824219</ele>
<time>2014-02-16T14:06:01Z</time>
</trkpt>
<trkpt lat="52.661041259765625" lon="13.172266006469727">
<ele>72.69999694824219</ele>
<time>2014-02-16T14:06:02Z</time>
</trkpt>
<trkpt lat="52.6610221862793" lon="13.172369956970215">
<ele>72.69999694824219</ele>
<time>2014-02-16T14:06:03Z</time>
</trkpt>
<trkpt lat="52.6609992980957" lon="13.172472953796387">
<ele>72.69999694824219</ele>
<time>2014-02-16T14:06:04Z</time>
</trkpt>
<trkpt lat="52.660980224609375" lon="13.172575950622559">
<ele>72.69999694824219</ele>
<time>2014-02-16T14:06:05Z</time>
</trkpt>
<trkpt lat="52.66096115112305" lon="13.172676086425781">
<ele>72.9000015258789</ele>
<time>2014-02-16T14:06:06Z</time>
</trkpt>
<trkpt lat="52.66094207763672" lon="13.172776222229004">
<ele>72.9000015258789</ele>
<time>2014-02-16T14:06:07Z</time>
</trkpt>
<trkpt lat="52.66092300415039" lon="13.172869682312012">
<ele>72.80000305175781</ele>
<time>2014-02-16T14:06:08Z</time>
</trkpt>
<trkpt lat="52.66090393066406" lon="13.172967910766602">
<ele>72.9000015258789</ele>
<time>2014-02-16T14:06:09Z</time>
</trkpt>
<trkpt lat="52.660884857177734" lon="13.173064231872559">
<ele>72.5999984741211</ele>
<time>2014-02-16T14:06:10Z</time>
</trkpt>
<trkpt lat="52.66086959838867" lon="13.173162460327148">
<ele>72.80000305175781</ele>
<time>2014-02-16T14:06:11Z</time>
</trkpt>
<trkpt lat="52.660850524902344" lon="13.17326545715332">
<ele>72.80000305175781</ele>
<time>2014-02-16T14:06:13Z</time>
</trkpt>
<trkpt lat="52.66082000732422" lon="13.173469543457031">
<ele>72.80000305175781</ele>
<time>2014-02-16T14:06:15Z</time>
</trkpt>
<trkpt lat="52.660789489746094" lon="13.173654556274414">
<ele>72.9000015258789</ele>
<time>2014-02-16T14:06:16Z</time>
</trkpt>
<trkpt lat="52.66077423095703" lon="13.17375659942627">
<ele>72.80000305175781</ele>
<time>2014-02-16T14:06:17Z</time>
</trkpt>
<trkpt lat="52.6607551574707" lon="13.173860549926758">
<ele>72.80000305175781</ele>
<time>2014-02-16T14:06:18Z</time>
</trkpt>
<trkpt lat="52.66073989868164" lon="13.17396354675293">
<ele>73.19999694824219</ele>
<time>2014-02-16T14:06:19Z</time>
</trkpt>
<trkpt lat="52.66072082519531" lon="13.174063682556152">
<ele>73.0999984741211</ele>
<time>2014-02-16T14:06:20Z</time>
</trkpt>
<trkpt lat="52.66070556640625" lon="13.17416000366211">
<ele>73.0999984741211</ele>
<time>2014-02-16T14:06:21Z</time>
</trkpt>
<trkpt lat="52.660682678222656" lon="13.174271583557129">
<ele>73.30000305175781</ele>
<time>2014-02-16T14:06:22Z</time>
</trkpt>
<trkpt lat="52.66065979003906" lon="13.174384117126465">
<ele>73.0999984741211</ele>
<time>2014-02-16T14:06:23Z</time>
</trkpt>
<trkpt lat="52.66063690185547" lon="13.174488067626953">
<ele>72.9000015258789</ele>
<time>2014-02-16T14:06:24Z</time>
</trkpt>
<trkpt lat="52.660614013671875" lon="13.174592971801758">
<ele>72.80000305175781</ele>
<time>2014-02-16T14:06:25Z</time>
</trkpt>
<trkpt lat="52.66059494018555" lon="13.174699783325195">
<ele>72.80000305175781</ele>
<time>2014-02-16T14:06:26Z</time>
</trkpt>
<trkpt lat="52.660579681396484" lon="13.174798965454102">
<ele>72.69999694824219</ele>
<time>2014-02-16T14:06:27Z</time>
</trkpt>
<trkpt lat="52.66055679321289" lon="13.174907684326172">
<ele>72.80000305175781</ele>
<time>2014-02-16T14:06:28Z</time>
</trkpt>
<trkpt lat="52.66053771972656" lon="13.175015449523926">
<ele>73.0</ele>
<time>2014-02-16T14:06:29Z</time>
</trkpt>
<trkpt lat="52.660518646240234" lon="13.175121307373047">
<ele>73.19999694824219</ele>
<time>2014-02-16T14:06:30Z</time>
</trkpt>
<trkpt lat="52.660491943359375" lon="13.175230979919434">
<ele>72.69999694824219</ele>
<time>2014-02-16T14:06:31Z</time>
</trkpt>
<trkpt lat="52.66046905517578" lon="13.175339698791504">
<ele>72.4000015258789</ele>
<time>2014-02-16T14:06:32Z</time>
</trkpt>
<trkpt lat="52.66044616699219" lon="13.175442695617676">
<ele>72.69999694824219</ele>
<time>2014-02-16T14:06:33Z</time>
</trkpt>
<trkpt lat="52.660438537597656" lon="13.175558090209961">
<ele>72.0999984741211</ele>
<time>2014-02-16T14:06:34Z</time>
</trkpt>
<trkpt lat="52.66043472290039" lon="13.175666809082031">
<ele>72.5999984741211</ele>
<time>2014-02-16T14:06:35Z</time>
</trkpt>
<trkpt lat="52.66041946411133" lon="13.175777435302734">
<ele>72.5</ele>
<time>2014-02-16T14:06:36Z</time>
</trkpt>
<trkpt lat="52.660400390625" lon="13.175882339477539">
<ele>72.4000015258789</ele>
<time>2014-02-16T14:06:37Z</time>
</trkpt>
<trkpt lat="52.66038131713867" lon="13.17599105834961">
<ele>72.5999984741211</ele>
<time>2014-02-16T14:06:38Z</time>
</trkpt>
<trkpt lat="52.66035842895508" lon="13.176095008850098">
<ele>72.5</ele>
<time>2014-02-16T14:06:39Z</time>
</trkpt>
<trkpt lat="52.66033935546875" lon="13.176193237304688">
<ele>72.80000305175781</ele>
<time>2014-02-16T14:06:40Z</time>
</trkpt>
<trkpt lat="52.66032028198242" lon="13.176286697387695">
<ele>72.80000305175781</ele>
<time>2014-02-16T14:06:41Z</time>
</trkpt>
<trkpt lat="52.66029739379883" lon="13.176386833190918">
<ele>72.80000305175781</ele>
<time>2014-02-16T14:06:42Z</time>
</trkpt>
<trkpt lat="52.660282135009766" lon="13.176491737365723">
<ele>72.5999984741211</ele>
<time>2014-02-16T14:06:43Z</time>
</trkpt>
<trkpt lat="52.66027069091797" lon="13.176627159118652">
<ele>72.30000305175781</ele>
<time>2014-02-16T14:06:45Z</time>
</trkpt>
<trkpt lat="52.66024398803711" lon="13.176725387573242">
<ele>72.0999984741211</ele>
<time>2014-02-16T14:06:46Z</time>
</trkpt>
<trkpt lat="52.66022491455078" lon="13.176841735839844">
<ele>72.4000015258789</ele>
<time>2014-02-16T14:06:47Z</time>
</trkpt>
<trkpt lat="52.66020965576172" lon="13.176942825317383">
<ele>72.4000015258789</ele>
<time>2014-02-16T14:06:48Z</time>
</trkpt>
<trkpt lat="52.66017532348633" lon="13.177042961120605">
<ele>72.0</ele>
<time>2014-02-16T14:06:49Z</time>
</trkpt>
<trkpt lat="52.66015625" lon="13.177156448364258">
<ele>72.0999984741211</ele>
<time>2014-02-16T14:06:50Z</time>
</trkpt>
<trkpt lat="52.660133361816406" lon="13.177287101745605">
<ele>73.19999694824219</ele>
<time>2014-02-16T14:06:51Z</time>
</trkpt>
<trkpt lat="52.660091400146484" lon="13.177395820617676">
<ele>73.30000305175781</ele>
<time>2014-02-16T14:06:52Z</time>
</trkpt>
<trkpt lat="52.660057067871094" lon="13.177477836608887">
<ele>73.30000305175781</ele>
<time>2014-02-16T14:06:53Z</time>
</trkpt>
<trkpt lat="52.6600227355957" lon="13.177565574645996">
<ele>73.30000305175781</ele>
<time>2014-02-16T14:06:54Z</time>
</trkpt>
<trkpt lat="52.65998840332031" lon="13.177654266357422">
<ele>72.69999694824219</ele>
<time>2014-02-16T14:06:55Z</time>
</trkpt>
<trkpt lat="52.659969329833984" lon="13.177751541137695">
<ele>72.5</ele>
<time>2014-02-16T14:06:56Z</time>
</trkpt>
<trkpt lat="52.659950256347656" lon="13.177857398986816">
<ele>72.5</ele>
<time>2014-02-16T14:06:57Z</time>
</trkpt>
<trkpt lat="52.65993118286133" lon="13.177961349487305">
<ele>72.5</ele>
<time>2014-02-16T14:06:58Z</time>
</trkpt>
<trkpt lat="52.659915924072266" lon="13.178064346313477">
<ele>72.80000305175781</ele>
<time>2014-02-16T14:06:59Z</time>
</trkpt>
<trkpt lat="52.6599006652832" lon="13.1781644821167">
<ele>72.5999984741211</ele>
<time>2014-02-16T14:07:00Z</time>
</trkpt>
<trkpt lat="52.659889221191406" lon="13.178268432617188">
<ele>72.5999984741211</ele>
<time>2014-02-16T14:07:01Z</time>
</trkpt>
<trkpt lat="52.65987014770508" lon="13.178372383117676">
<ele>72.4000015258789</ele>
<time>2014-02-16T14:07:02Z</time>
</trkpt>
<trkpt lat="52.659854888916016" lon="13.17848014831543">
<ele>72.4000015258789</ele>
<time>2014-02-16T14:07:03Z</time>
</trkpt>
<trkpt lat="52.659847259521484" lon="13.17859172821045">
<ele>72.5999984741211</ele>
<time>2014-02-16T14:07:04Z</time>
</trkpt>
<trkpt lat="52.659828186035156" lon="13.178692817687988">
<ele>72.5</ele>
<time>2014-02-16T14:07:05Z</time>
</trkpt>
<trkpt lat="52.65979766845703" lon="13.178808212280273">
<ele>73.0</ele>
<time>2014-02-16T14:07:06Z</time>
</trkpt>
<trkpt lat="52.659767150878906" lon="13.178905487060547">
<ele>72.30000305175781</ele>
<time>2014-02-16T14:07:07Z</time>
</trkpt>
<trkpt lat="52.65973663330078" lon="13.179012298583984">
<ele>72.30000305175781</ele>
<time>2014-02-16T14:07:08Z</time>
</trkpt>
<trkpt lat="52.65970993041992" lon="13.179113388061523">
<ele>72.19999694824219</ele>
<time>2014-02-16T14:07:09Z</time>
</trkpt>
<trkpt lat="52.659690856933594" lon="13.179207801818848">
<ele>72.0999984741211</ele>
<time>2014-02-16T14:07:10Z</time>
</trkpt>
<trkpt lat="52.659671783447266" lon="13.179290771484375">
<ele>72.19999694824219</ele>
<time>2014-02-16T14:07:11Z</time>
</trkpt>
<trkpt lat="52.6596565246582" lon="13.179378509521484">
<ele>72.4000015258789</ele>
<time>2014-02-16T14:07:12Z</time>
</trkpt>
<trkpt lat="52.659629821777344" lon="13.179466247558594">
<ele>72.4000015258789</ele>
<time>2014-02-16T14:07:13Z</time>
</trkpt>
<trkpt lat="52.65960693359375" lon="13.179560661315918">
<ele>72.30000305175781</ele>
<time>2014-02-16T14:07:14Z</time>
</trkpt>
<trkpt lat="52.65958786010742" lon="13.179630279541016">
<ele>72.5</ele>
<time>2014-02-16T14:07:15Z</time>
</trkpt>
<trkpt lat="52.65955352783203" lon="13.179738998413086">
<ele>72.80000305175781</ele>
<time>2014-02-16T14:07:16Z</time>
</trkpt>
<trkpt lat="52.659515380859375" lon="13.179840087890625">
<ele>72.9000015258789</ele>
<time>2014-02-16T14:07:17Z</time>
</trkpt>
<trkpt lat="52.65947341918945" lon="13.17994213104248">
<ele>73.69999694824219</ele>
<time>2014-02-16T14:07:18Z</time>
</trkpt>
<trkpt lat="52.6594352722168" lon="13.18004035949707">
<ele>73.5</ele>
<time>2014-02-16T14:07:19Z</time>
</trkpt>
<trkpt lat="52.659385681152344" lon="13.180130958557129">
<ele>73.4000015258789</ele>
<time>2014-02-16T14:07:20Z</time>
</trkpt>
<trkpt lat="52.65934753417969" lon="13.180222511291504">
<ele>73.5</ele>
<time>2014-02-16T14:07:21Z</time>
</trkpt>
<trkpt lat="52.65930938720703" lon="13.18030834197998">
<ele>72.9000015258789</ele>
<time>2014-02-16T14:07:22Z</time>
</trkpt>
<trkpt lat="52.659271240234375" lon="13.180402755737305">
<ele>72.5</ele>
<time>2014-02-16T14:07:23Z</time>
</trkpt>
<trkpt lat="52.659236907958984" lon="13.180499076843262">
<ele>72.5</ele>
<time>2014-02-16T14:07:24Z</time>
</trkpt>
<trkpt lat="52.659202575683594" lon="13.1806001663208">
<ele>72.5</ele>
<time>2014-02-16T14:07:25Z</time>
</trkpt>
<trkpt lat="52.6591682434082" lon="13.180692672729492">
<ele>72.19999694824219</ele>
<time>2014-02-16T14:07:26Z</time>
</trkpt>
<trkpt lat="52.65913009643555" lon="13.18077278137207">
<ele>72.30000305175781</ele>
<time>2014-02-16T14:07:27Z</time>
</trkpt>
<trkpt lat="52.65909194946289" lon="13.180851936340332">
<ele>72.5999984741211</ele>
<time>2014-02-16T14:07:28Z</time>
</trkpt>
<trkpt lat="52.65904998779297" lon="13.180922508239746">
<ele>72.69999694824219</ele>
<time>2014-02-16T14:07:29Z</time>
</trkpt>
<trkpt lat="52.659000396728516" lon="13.181001663208008">
<ele>72.5999984741211</ele>
<time>2014-02-16T14:07:30Z</time>
</trkpt>
<trkpt lat="52.65895080566406" lon="13.181057929992676">
<ele>72.4000015258789</ele>
<time>2014-02-16T14:07:31Z</time>
</trkpt>
<trkpt lat="52.658905029296875" lon="13.18111801147461">
<ele>72.0999984741211</ele>
<time>2014-02-16T14:07:32Z</time>
</trkpt>
<trkpt lat="52.65886306762695" lon="13.181198120117188">
<ele>72.0999984741211</ele>
<time>2014-02-16T14:07:33Z</time>
</trkpt>
<trkpt lat="52.6588249206543" lon="13.181275367736816">
<ele>72.30000305175781</ele>
<time>2014-02-16T14:07:34Z</time>
</trkpt>
<trkpt lat="52.658782958984375" lon="13.18134593963623">
<ele>72.0999984741211</ele>
<time>2014-02-16T14:07:35Z</time>
</trkpt>
<trkpt lat="52.65874481201172" lon="13.181414604187012">
<ele>72.30000305175781</ele>
<time>2014-02-16T14:07:36Z</time>
</trkpt>
<trkpt lat="52.6587028503418" lon="13.18149185180664">
<ele>72.19999694824219</ele>
<time>2014-02-16T14:07:37Z</time>
</trkpt>
<trkpt lat="52.65864562988281" lon="13.1815767288208">
<ele>72.4000015258789</ele>
<time>2014-02-16T14:07:38Z</time>
</trkpt>
<trkpt lat="52.65863037109375" lon="13.181650161743164">
<ele>71.0</ele>
<time>2014-02-16T14:07:39Z</time>
</trkpt>
<trkpt lat="52.65860366821289" lon="13.181717872619629">
<ele>70.30000305175781</ele>
<time>2014-02-16T14:07:40Z</time>
</trkpt>
<trkpt lat="52.6585693359375" lon="13.181794166564941">
<ele>69.4000015258789</ele>
<time>2014-02-16T14:07:41Z</time>
</trkpt>
<trkpt lat="52.658546447753906" lon="13.181861877441406">
<ele>69.0999984741211</ele>
<time>2014-02-16T14:07:42Z</time>
</trkpt>
<trkpt lat="52.65852355957031" lon="13.181925773620605">
<ele>68.69999694824219</ele>
<time>2014-02-16T14:07:43Z</time>
</trkpt>
<trkpt lat="52.65848922729492" lon="13.181989669799805">
<ele>68.69999694824219</ele>
<time>2014-02-16T14:07:44Z</time>
</trkpt>
<trkpt lat="52.65846252441406" lon="13.182051658630371">
<ele>68.5999984741211</ele>
<time>2014-02-16T14:07:45Z</time>
</trkpt>
<trkpt lat="52.65843200683594" lon="13.182123184204102">
<ele>68.5</ele>
<time>2014-02-16T14:07:46Z</time>
</trkpt>
<trkpt lat="52.65840148925781" lon="13.182201385498047">
<ele>68.4000015258789</ele>
<time>2014-02-16T14:07:47Z</time>
</trkpt>
<trkpt lat="52.658355712890625" lon="13.182284355163574">
<ele>68.4000015258789</ele>
<time>2014-02-16T14:07:48Z</time>
</trkpt>
<trkpt lat="52.658329010009766" lon="13.182371139526367">
<ele>68.0999984741211</ele>
<time>2014-02-16T14:07:49Z</time>
</trkpt>
<trkpt lat="52.65829086303711" lon="13.182463645935059">
<ele>68.0</ele>
<time>2014-02-16T14:07:50Z</time>
</trkpt>
<trkpt lat="52.658260345458984" lon="13.182536125183105">
<ele>68.0</ele>
<time>2014-02-16T14:07:51Z</time>
</trkpt>
<trkpt lat="52.65823745727539" lon="13.1826171875">
<ele>67.80000305175781</ele>
<time>2014-02-16T14:07:52Z</time>
</trkpt>
<trkpt lat="52.658206939697266" lon="13.182716369628906">
<ele>68.0</ele>
<time>2014-02-16T14:07:53Z</time>
</trkpt>
<trkpt lat="52.65817642211914" lon="13.1828031539917">
<ele>67.5</ele>
<time>2014-02-16T14:07:54Z</time>
</trkpt>
<trkpt lat="52.658164978027344" lon="13.182878494262695">
<ele>63.79999923706055</ele>
<time>2014-02-16T14:07:55Z</time>
</trkpt>
<trkpt lat="52.65812301635742" lon="13.183005332946777">
<ele>62.400001525878906</ele>
<time>2014-02-16T14:07:57Z</time>
</trkpt>
<trkpt lat="52.65808868408203" lon="13.183138847351074">
<ele>61.400001525878906</ele>
<time>2014-02-16T14:07:59Z</time>
</trkpt>
<trkpt lat="52.65804672241211" lon="13.183241844177246">
<ele>60.79999923706055</ele>
<time>2014-02-16T14:08:00Z</time>
</trkpt>
<trkpt lat="52.658023834228516" lon="13.183321952819824">
<ele>60.70000076293945</ele>
<time>2014-02-16T14:08:01Z</time>
</trkpt>
<trkpt lat="52.657989501953125" lon="13.183406829833984">
<ele>60.5</ele>
<time>2014-02-16T14:08:02Z</time>
</trkpt>
<trkpt lat="52.65793991088867" lon="13.183517456054688">
<ele>60.29999923706055</ele>
<time>2014-02-16T14:08:03Z</time>
</trkpt>
<trkpt lat="52.65790939331055" lon="13.183614730834961">
<ele>60.29999923706055</ele>
<time>2014-02-16T14:08:04Z</time>
</trkpt>
<trkpt lat="52.657875061035156" lon="13.183706283569336">
<ele>60.400001525878906</ele>
<time>2014-02-16T14:08:05Z</time>
</trkpt>
<trkpt lat="52.657833099365234" lon="13.183789253234863">
<ele>60.20000076293945</ele>
<time>2014-02-16T14:08:06Z</time>
</trkpt>
<trkpt lat="52.65781021118164" lon="13.18387222290039">
<ele>60.29999923706055</ele>
<time>2014-02-16T14:08:07Z</time>
</trkpt>
<trkpt lat="52.657779693603516" lon="13.183947563171387">
<ele>60.20000076293945</ele>
<time>2014-02-16T14:08:08Z</time>
</trkpt>
<trkpt lat="52.65775680541992" lon="13.18403434753418">
<ele>60.20000076293945</ele>
<time>2014-02-16T14:08:09Z</time>
</trkpt>
<trkpt lat="52.65773010253906" lon="13.18411636352539">
<ele>60.099998474121094</ele>
<time>2014-02-16T14:08:10Z</time>
</trkpt>
<trkpt lat="52.65768051147461" lon="13.184277534484863">
<ele>59.79999923706055</ele>
<time>2014-02-16T14:08:12Z</time>
</trkpt>
<trkpt lat="52.657657623291016" lon="13.184351921081543">
<ele>59.0</ele>
<time>2014-02-16T14:08:13Z</time>
</trkpt>
<trkpt lat="52.65761184692383" lon="13.184497833251953">
<ele>57.5</ele>
<time>2014-02-16T14:08:15Z</time>
</trkpt>
<trkpt lat="52.657588958740234" lon="13.18458080291748">
<ele>57.20000076293945</ele>
<time>2014-02-16T14:08:16Z</time>
</trkpt>
<trkpt lat="52.65755844116211" lon="13.184662818908691">
<ele>56.79999923706055</ele>
<time>2014-02-16T14:08:17Z</time>
</trkpt>
<trkpt lat="52.65752410888672" lon="13.184745788574219">
<ele>56.599998474121094</ele>
<time>2014-02-16T14:08:18Z</time>
</trkpt>
<trkpt lat="52.6574821472168" lon="13.184813499450684">
<ele>54.400001525878906</ele>
<time>2014-02-16T14:08:19Z</time>
</trkpt>
<trkpt lat="52.65745544433594" lon="13.18488597869873">
<ele>54.0</ele>
<time>2014-02-16T14:08:20Z</time>
</trkpt>
<trkpt lat="52.65742874145508" lon="13.18496036529541">
<ele>53.400001525878906</ele>
<time>2014-02-16T14:08:21Z</time>
</trkpt>
<trkpt lat="52.657379150390625" lon="13.18505859375">
<ele>54.5</ele>
<time>2014-02-16T14:08:22Z</time>
</trkpt>
<trkpt lat="52.6573371887207" lon="13.185145378112793">
<ele>53.79999923706055</ele>
<time>2014-02-16T14:08:23Z</time>
</trkpt>
<trkpt lat="52.65727996826172" lon="13.185277938842773">
<ele>57.70000076293945</ele>
<time>2014-02-16T14:08:24Z</time>
</trkpt>
<trkpt lat="52.65723419189453" lon="13.185417175292969">
<ele>61.099998474121094</ele>
<time>2014-02-16T14:08:25Z</time>
</trkpt>
<trkpt lat="52.65719985961914" lon="13.185541152954102">
<ele>63.5</ele>
<time>2014-02-16T14:08:26Z</time>
</trkpt>
<trkpt lat="52.657161712646484" lon="13.18565559387207">
<ele>66.69999694824219</ele>
<time>2014-02-16T14:08:27Z</time>
</trkpt>
<trkpt lat="52.65711975097656" lon="13.185751914978027">
<ele>68.69999694824219</ele>
<time>2014-02-16T14:08:28Z</time>
</trkpt>
<trkpt lat="52.65707778930664" lon="13.185833930969238">
<ele>69.30000305175781</ele>
<time>2014-02-16T14:08:29Z</time>
</trkpt>
<trkpt lat="52.65703582763672" lon="13.18591022491455">
<ele>69.69999694824219</ele>
<time>2014-02-16T14:08:30Z</time>
</trkpt>
<trkpt lat="52.65700149536133" lon="13.18598461151123">
<ele>69.9000015258789</ele>
<time>2014-02-16T14:08:31Z</time>
</trkpt>
<trkpt lat="52.65696334838867" lon="13.186034202575684">
<ele>70.19999694824219</ele>
<time>2014-02-16T14:08:32Z</time>
</trkpt>
<trkpt lat="52.65692138671875" lon="13.186098098754883">
<ele>69.9000015258789</ele>
<time>2014-02-16T14:08:33Z</time>
</trkpt>
<trkpt lat="52.6568603515625" lon="13.186172485351562">
<ele>69.5</ele>
<time>2014-02-16T14:08:34Z</time>
</trkpt>
<trkpt lat="52.65681457519531" lon="13.186259269714355">
<ele>69.69999694824219</ele>
<time>2014-02-16T14:08:35Z</time>
</trkpt>
<trkpt lat="52.65677261352539" lon="13.186335563659668">
<ele>70.0999984741211</ele>
<time>2014-02-16T14:08:36Z</time>
</trkpt>
<trkpt lat="52.6567268371582" lon="13.18642520904541">
<ele>71.5</ele>
<time>2014-02-16T14:08:37Z</time>
</trkpt>
<trkpt lat="52.65667724609375" lon="13.186513900756836">
<ele>72.0</ele>
<time>2014-02-16T14:08:38Z</time>
</trkpt>
<trkpt lat="52.656639099121094" lon="13.186586380004883">
<ele>72.19999694824219</ele>
<time>2014-02-16T14:08:39Z</time>
</trkpt>
<trkpt lat="52.656593322753906" lon="13.186659812927246">
<ele>72.69999694824219</ele>
<time>2014-02-16T14:08:40Z</time>
</trkpt>
<trkpt lat="52.65655517578125" lon="13.186738967895508">
<ele>73.0999984741211</ele>
<time>2014-02-16T14:08:41Z</time>
</trkpt>
<trkpt lat="52.65651321411133" lon="13.186814308166504">
<ele>73.4000015258789</ele>
<time>2014-02-16T14:08:42Z</time>
</trkpt>
<trkpt lat="52.65647506713867" lon="13.1868896484375">
<ele>73.5</ele>
<time>2014-02-16T14:08:43Z</time>
</trkpt>
<trkpt lat="52.656429290771484" lon="13.18696117401123">
<ele>73.5999984741211</ele>
<time>2014-02-16T14:08:44Z</time>
</trkpt>
<trkpt lat="52.65639114379883" lon="13.187037467956543">
<ele>73.5</ele>
<time>2014-02-16T14:08:45Z</time>
</trkpt>
<trkpt lat="52.656349182128906" lon="13.187118530273438">
<ele>74.69999694824219</ele>
<time>2014-02-16T14:08:46Z</time>
</trkpt>
<trkpt lat="52.656307220458984" lon="13.187187194824219">
<ele>74.5999984741211</ele>
<time>2014-02-16T14:08:47Z</time>
</trkpt>
<trkpt lat="52.65626907348633" lon="13.18725299835205">
<ele>75.19999694824219</ele>
<time>2014-02-16T14:08:48Z</time>
</trkpt>
<trkpt lat="52.65623474121094" lon="13.187323570251465">
<ele>75.30000305175781</ele>
<time>2014-02-16T14:08:49Z</time>
</trkpt>
<trkpt lat="52.656166076660156" lon="13.1874418258667">
<ele>73.80000305175781</ele>
<time>2014-02-16T14:08:52Z</time>
</trkpt>
<trkpt lat="52.65612030029297" lon="13.187507629394531">
<ele>74.9000015258789</ele>
<time>2014-02-16T14:08:52Z</time>
</trkpt>
<trkpt lat="52.65608596801758" lon="13.187564849853516">
<ele>74.69999694824219</ele>
<time>2014-02-16T14:08:53Z</time>
</trkpt>
<trkpt lat="52.65604019165039" lon="13.187640190124512">
<ele>74.5</ele>
<time>2014-02-16T14:08:54Z</time>
</trkpt>
<trkpt lat="52.6559944152832" lon="13.187708854675293">
<ele>74.4000015258789</ele>
<time>2014-02-16T14:08:55Z</time>
</trkpt>
<trkpt lat="52.65594482421875" lon="13.187776565551758">
<ele>74.19999694824219</ele>
<time>2014-02-16T14:08:56Z</time>
</trkpt>
<trkpt lat="52.65590286254883" lon="13.187837600708008">
<ele>74.19999694824219</ele>
<time>2014-02-16T14:08:57Z</time>
</trkpt>
<trkpt lat="52.655860900878906" lon="13.18787670135498">
<ele>73.0999984741211</ele>
<time>2014-02-16T14:08:58Z</time>
</trkpt>
<trkpt lat="52.65581512451172" lon="13.187925338745117">
<ele>72.5</ele>
<time>2014-02-16T14:08:59Z</time>
</trkpt>
<trkpt lat="52.65576934814453" lon="13.187981605529785">
<ele>72.5999984741211</ele>
<time>2014-02-16T14:09:00Z</time>
</trkpt>
<trkpt lat="52.65571975708008" lon="13.188029289245605">
<ele>72.19999694824219</ele>
<time>2014-02-16T14:09:01Z</time>
</trkpt>
<trkpt lat="52.65567398071289" lon="13.188077926635742">
<ele>72.4000015258789</ele>
<time>2014-02-16T14:09:02Z</time>
</trkpt>
<trkpt lat="52.65563201904297" lon="13.188129425048828">
<ele>72.0</ele>
<time>2014-02-16T14:09:03Z</time>
</trkpt>
<trkpt lat="52.65559005737305" lon="13.188178062438965">
<ele>72.0999984741211</ele>
<time>2014-02-16T14:09:04Z</time>
</trkpt>
<trkpt lat="52.65554428100586" lon="13.188224792480469">
<ele>72.30000305175781</ele>
<time>2014-02-16T14:09:05Z</time>
</trkpt>
<trkpt lat="52.655494689941406" lon="13.188268661499023">
<ele>72.19999694824219</ele>
<time>2014-02-16T14:09:06Z</time>
</trkpt>
<trkpt lat="52.65544509887695" lon="13.188304901123047">
<ele>71.5999984741211</ele>
<time>2014-02-16T14:09:07Z</time>
</trkpt>
<trkpt lat="52.6553955078125" lon="13.188343048095703">
<ele>71.5999984741211</ele>
<time>2014-02-16T14:09:08Z</time>
</trkpt>
<trkpt lat="52.65534973144531" lon="13.188386917114258">
<ele>71.5</ele>
<time>2014-02-16T14:09:09Z</time>
</trkpt>
<trkpt lat="52.65530014038086" lon="13.18842601776123">
<ele>71.4000015258789</ele>
<time>2014-02-16T14:09:10Z</time>
</trkpt>
<trkpt lat="52.65525436401367" lon="13.188469886779785">
<ele>71.30000305175781</ele>
<time>2014-02-16T14:09:11Z</time>
</trkpt>
<trkpt lat="52.655208587646484" lon="13.188520431518555">
<ele>71.4000015258789</ele>
<time>2014-02-16T14:09:12Z</time>
</trkpt>
<trkpt lat="52.65516662597656" lon="13.18856430053711">
<ele>71.4000015258789</ele>
<time>2014-02-16T14:09:13Z</time>
</trkpt>
<trkpt lat="52.65512466430664" lon="13.188611030578613">
<ele>71.5</ele>
<time>2014-02-16T14:09:14Z</time>
</trkpt>
<trkpt lat="52.65507888793945" lon="13.188672065734863">
<ele>71.5</ele>
<time>2014-02-16T14:09:15Z</time>
</trkpt>
<trkpt lat="52.65503692626953" lon="13.188726425170898">
<ele>71.9000015258789</ele>
<time>2014-02-16T14:09:16Z</time>
</trkpt>
<trkpt lat="52.65499496459961" lon="13.188788414001465">
<ele>72.30000305175781</ele>
<time>2014-02-16T14:09:17Z</time>
</trkpt>
<trkpt lat="52.654945373535156" lon="13.18884563446045">
<ele>72.30000305175781</ele>
<time>2014-02-16T14:09:18Z</time>
</trkpt>
<trkpt lat="52.654903411865234" lon="13.188897132873535">
<ele>72.5999984741211</ele>
<time>2014-02-16T14:09:19Z</time>
</trkpt>
<trkpt lat="52.65485763549805" lon="13.188952445983887">
<ele>72.69999694824219</ele>
<time>2014-02-16T14:09:20Z</time>
</trkpt>
<trkpt lat="52.65481185913086" lon="13.189002990722656">
<ele>72.80000305175781</ele>
<time>2014-02-16T14:09:21Z</time>
</trkpt>
<trkpt lat="52.65476989746094" lon="13.189051628112793">
<ele>73.19999694824219</ele>
<time>2014-02-16T14:09:22Z</time>
</trkpt>
<trkpt lat="52.654693603515625" lon="13.189135551452637">
<ele>71.5999984741211</ele>
<time>2014-02-16T14:09:24Z</time>
</trkpt>
<trkpt lat="52.6546516418457" lon="13.189181327819824">
<ele>71.0</ele>
<time>2014-02-16T14:09:25Z</time>
</trkpt>
<trkpt lat="52.65460968017578" lon="13.18921184539795">
<ele>70.69999694824219</ele>
<time>2014-02-16T14:09:26Z</time>
</trkpt>
<trkpt lat="52.654563903808594" lon="13.189241409301758">
<ele>70.69999694824219</ele>
<time>2014-02-16T14:09:27Z</time>
</trkpt>
<trkpt lat="52.65450668334961" lon="13.189305305480957">
<ele>70.4000015258789</ele>
<time>2014-02-16T14:09:28Z</time>
</trkpt>
<trkpt lat="52.654457092285156" lon="13.18935775756836">
<ele>70.30000305175781</ele>
<time>2014-02-16T14:09:29Z</time>
</trkpt>
<trkpt lat="52.65441131591797" lon="13.189403533935547">
<ele>70.0</ele>
<time>2014-02-16T14:09:30Z</time>
</trkpt>
<trkpt lat="52.65436935424805" lon="13.189456939697266">
<ele>69.5999984741211</ele>
<time>2014-02-16T14:09:31Z</time>
</trkpt>
<trkpt lat="52.654335021972656" lon="13.189501762390137">
<ele>69.5999984741211</ele>
<time>2014-02-16T14:09:32Z</time>
</trkpt>
<trkpt lat="52.654266357421875" lon="13.189606666564941">
<ele>69.69999694824219</ele>
<time>2014-02-16T14:09:34Z</time>
</trkpt>
<trkpt lat="52.654205322265625" lon="13.18967056274414">
<ele>69.80000305175781</ele>
<time>2014-02-16T14:09:35Z</time>
</trkpt>
<trkpt lat="52.65415954589844" lon="13.189739227294922">
<ele>69.9000015258789</ele>
<time>2014-02-16T14:09:36Z</time>
</trkpt>
<trkpt lat="52.654109954833984" lon="13.189775466918945">
<ele>70.19999694824219</ele>
<time>2014-02-16T14:09:37Z</time>
</trkpt>
<trkpt lat="52.6540412902832" lon="13.189854621887207">
<ele>70.19999694824219</ele>
<time>2014-02-16T14:09:39Z</time>
</trkpt>
<trkpt lat="52.65399169921875" lon="13.189918518066406">
<ele>70.30000305175781</ele>
<time>2014-02-16T14:09:40Z</time>
</trkpt>
<trkpt lat="52.653934478759766" lon="13.18996810913086">
<ele>70.5</ele>
<time>2014-02-16T14:09:41Z</time>
</trkpt>
<trkpt lat="52.65386199951172" lon="13.19003963470459">
<ele>70.30000305175781</ele>
<time>2014-02-16T14:09:43Z</time>
</trkpt>
<trkpt lat="52.65378189086914" lon="13.190147399902344">
<ele>70.5</ele>
<time>2014-02-16T14:09:45Z</time>
</trkpt>
<trkpt lat="52.65372848510742" lon="13.190199851989746">
<ele>70.5999984741211</ele>
<time>2014-02-16T14:09:46Z</time>
</trkpt>
<trkpt lat="52.6536979675293" lon="13.190251350402832">
<ele>70.4000015258789</ele>
<time>2014-02-16T14:09:47Z</time>
</trkpt>
<trkpt lat="52.65365982055664" lon="13.190328598022461">
<ele>70.9000015258789</ele>
<time>2014-02-16T14:09:48Z</time>
</trkpt>
<trkpt lat="52.653621673583984" lon="13.190382957458496">
<ele>71.0</ele>
<time>2014-02-16T14:09:49Z</time>
</trkpt>
<trkpt lat="52.65359878540039" lon="13.190451622009277">
<ele>72.0999984741211</ele>
<time>2014-02-16T14:09:50Z</time>
</trkpt>
<trkpt lat="52.6535758972168" lon="13.190515518188477">
<ele>71.9000015258789</ele>
<time>2014-02-16T14:09:51Z</time>
</trkpt>
<trkpt lat="52.65353775024414" lon="13.190564155578613">
<ele>73.0999984741211</ele>
<time>2014-02-16T14:09:52Z</time>
</trkpt>
<trkpt lat="52.65349578857422" lon="13.190606117248535">
<ele>73.4000015258789</ele>
<time>2014-02-16T14:09:53Z</time>
</trkpt>
<trkpt lat="52.653419494628906" lon="13.190704345703125">
<ele>73.80000305175781</ele>
<time>2014-02-16T14:09:55Z</time>
</trkpt>
<trkpt lat="52.65337371826172" lon="13.190759658813477">
<ele>73.80000305175781</ele>
<time>2014-02-16T14:09:56Z</time>
</trkpt>
<trkpt lat="52.65330505371094" lon="13.190868377685547">
<ele>74.30000305175781</ele>
<time>2014-02-16T14:09:58Z</time>
</trkpt>
<trkpt lat="52.65327072143555" lon="13.190924644470215">
<ele>74.19999694824219</ele>
<time>2014-02-16T14:09:59Z</time>
</trkpt>
<trkpt lat="52.653221130371094" lon="13.191007614135742">
<ele>77.0999984741211</ele>
<time>2014-02-16T14:10:01Z</time>
</trkpt>
<trkpt lat="52.65318298339844" lon="13.191062927246094">
<ele>77.80000305175781</ele>
<time>2014-02-16T14:10:01Z</time>
</trkpt>
<trkpt lat="52.65314483642578" lon="13.191131591796875">
<ele>78.4000015258789</ele>
<time>2014-02-16T14:10:02Z</time>
</trkpt>
<trkpt lat="52.653106689453125" lon="13.191197395324707">
<ele>78.80000305175781</ele>
<time>2014-02-16T14:10:03Z</time>
</trkpt>
<trkpt lat="52.653072357177734" lon="13.19125747680664">
<ele>79.0999984741211</ele>
<time>2014-02-16T14:10:04Z</time>
</trkpt>
<trkpt lat="52.653018951416016" lon="13.191357612609863">
<ele>79.5999984741211</ele>
<time>2014-02-16T14:10:06Z</time>
</trkpt>
<trkpt lat="52.652984619140625" lon="13.191407203674316">
<ele>79.9000015258789</ele>
<time>2014-02-16T14:10:07Z</time>
</trkpt>
<trkpt lat="52.6529541015625" lon="13.191468238830566">
<ele>80.5999984741211</ele>
<time>2014-02-16T14:10:08Z</time>
</trkpt>
<trkpt lat="52.652870178222656" lon="13.191582679748535">
<ele>80.19999694824219</ele>
<time>2014-02-16T14:10:10Z</time>
</trkpt>
<trkpt lat="52.65281677246094" lon="13.191649436950684">
<ele>80.19999694824219</ele>
<time>2014-02-16T14:10:11Z</time>
</trkpt>
<trkpt lat="52.65276336669922" lon="13.191752433776855">
<ele>81.4000015258789</ele>
<time>2014-02-16T14:10:12Z</time>
</trkpt>
<trkpt lat="52.652706146240234" lon="13.191832542419434">
<ele>80.0</ele>
<time>2014-02-16T14:10:13Z</time>
</trkpt>
<trkpt lat="52.65266799926758" lon="13.191880226135254">
<ele>79.0</ele>
<time>2014-02-16T14:10:14Z</time>
</trkpt>
<trkpt lat="52.65262985229492" lon="13.191933631896973">
<ele>79.0</ele>
<time>2014-02-16T14:10:15Z</time>
</trkpt>
<trkpt lat="52.652591705322266" lon="13.191991806030273">
<ele>78.69999694824219</ele>
<time>2014-02-16T14:10:16Z</time>
</trkpt>
<trkpt lat="52.652549743652344" lon="13.19206714630127">
<ele>77.9000015258789</ele>
<time>2014-02-16T14:10:17Z</time>
</trkpt>
<trkpt lat="52.65249252319336" lon="13.192155838012695">
<ele>78.4000015258789</ele>
<time>2014-02-16T14:10:19Z</time>
</trkpt>
<trkpt lat="52.6524543762207" lon="13.192217826843262">
<ele>78.4000015258789</ele>
<time>2014-02-16T14:10:20Z</time>
</trkpt>
<trkpt lat="52.652381896972656" lon="13.192307472229004">
<ele>76.0999984741211</ele>
<time>2014-02-16T14:10:22Z</time>
</trkpt>
<trkpt lat="52.652313232421875" lon="13.192386627197266">
<ele>76.0</ele>
<time>2014-02-16T14:10:24Z</time>
</trkpt>
<trkpt lat="52.65225601196289" lon="13.192496299743652">
<ele>78.5999984741211</ele>
<time>2014-02-16T14:10:25Z</time>
</trkpt>
<trkpt lat="52.65221405029297" lon="13.192527770996094">
<ele>77.69999694824219</ele>
<time>2014-02-16T14:10:26Z</time>
</trkpt>
<trkpt lat="52.65214920043945" lon="13.192628860473633">
<ele>77.19999694824219</ele>
<time>2014-02-16T14:10:28Z</time>
</trkpt>
<trkpt lat="52.65211486816406" lon="13.192696571350098">
<ele>77.0999984741211</ele>
<time>2014-02-16T14:10:29Z</time>
</trkpt>
<trkpt lat="52.6520881652832" lon="13.192763328552246">
<ele>77.5999984741211</ele>
<time>2014-02-16T14:10:30Z</time>
</trkpt>
<trkpt lat="52.65205001831055" lon="13.192828178405762">
<ele>77.5999984741211</ele>
<time>2014-02-16T14:10:31Z</time>
</trkpt>
<trkpt lat="52.65202331542969" lon="13.192890167236328">
<ele>77.30000305175781</ele>
<time>2014-02-16T14:10:32Z</time>
</trkpt>
<trkpt lat="52.6519889831543" lon="13.192968368530273">
<ele>78.5</ele>
<time>2014-02-16T14:10:33Z</time>
</trkpt>
<trkpt lat="52.65192413330078" lon="13.193076133728027">
<ele>76.5999984741211</ele>
<time>2014-02-16T14:10:35Z</time>
</trkpt>
<trkpt lat="52.65189743041992" lon="13.193137168884277">
<ele>76.19999694824219</ele>
<time>2014-02-16T14:10:36Z</time>
</trkpt>
<trkpt lat="52.65183639526367" lon="13.193248748779297">
<ele>74.4000015258789</ele>
<time>2014-02-16T14:10:38Z</time>
</trkpt>
<trkpt lat="52.65180969238281" lon="13.193317413330078">
<ele>74.4000015258789</ele>
<time>2014-02-16T14:10:39Z</time>
</trkpt>
<trkpt lat="52.651756286621094" lon="13.193428039550781">
<ele>73.5</ele>
<time>2014-02-16T14:10:41Z</time>
</trkpt>
<trkpt lat="52.65172576904297" lon="13.19349193572998">
<ele>73.80000305175781</ele>
<time>2014-02-16T14:10:42Z</time>
</trkpt>
<trkpt lat="52.65169143676758" lon="13.193557739257812">
<ele>73.69999694824219</ele>
<time>2014-02-16T14:10:43Z</time>
</trkpt>
<trkpt lat="52.65166091918945" lon="13.193626403808594">
<ele>73.80000305175781</ele>
<time>2014-02-16T14:10:44Z</time>
</trkpt>
<trkpt lat="52.6516227722168" lon="13.193692207336426">
<ele>73.5</ele>
<time>2014-02-16T14:10:45Z</time>
</trkpt>
<trkpt lat="52.651588439941406" lon="13.19377613067627">
<ele>75.19999694824219</ele>
<time>2014-02-16T14:10:46Z</time>
</trkpt>
<trkpt lat="52.65156173706055" lon="13.19383716583252">
<ele>75.69999694824219</ele>
<time>2014-02-16T14:10:47Z</time>
</trkpt>
<trkpt lat="52.651527404785156" lon="13.1939058303833">
<ele>76.4000015258789</ele>
<time>2014-02-16T14:10:48Z</time>
</trkpt>
<trkpt lat="52.65147399902344" lon="13.194021224975586">
<ele>76.0</ele>
<time>2014-02-16T14:10:50Z</time>
</trkpt>
<trkpt lat="52.65144729614258" lon="13.19408893585205">
<ele>75.5999984741211</ele>
<time>2014-02-16T14:10:51Z</time>
</trkpt>
<trkpt lat="52.65142059326172" lon="13.194148063659668">
<ele>75.5</ele>
<time>2014-02-16T14:10:52Z</time>
</trkpt>
<trkpt lat="52.65135955810547" lon="13.194273948669434">
<ele>75.80000305175781</ele>
<time>2014-02-16T14:10:54Z</time>
</trkpt>
<trkpt lat="52.651329040527344" lon="13.19433879852295">
<ele>75.80000305175781</ele>
<time>2014-02-16T14:10:55Z</time>
</trkpt>
<trkpt lat="52.65127182006836" lon="13.194474220275879">
<ele>77.0</ele>
<time>2014-02-16T14:10:57Z</time>
</trkpt>
<trkpt lat="52.65123748779297" lon="13.19454574584961">
<ele>77.4000015258789</ele>
<time>2014-02-16T14:10:58Z</time>
</trkpt>
<trkpt lat="52.65121078491211" lon="13.194610595703125">
<ele>77.80000305175781</ele>
<time>2014-02-16T14:10:59Z</time>
</trkpt>
<trkpt lat="52.65117645263672" lon="13.194682121276855">
<ele>78.9000015258789</ele>
<time>2014-02-16T14:11:00Z</time>
</trkpt>
<trkpt lat="52.651145935058594" lon="13.19473934173584">
<ele>78.80000305175781</ele>
<time>2014-02-16T14:11:01Z</time>
</trkpt>
<trkpt lat="52.651092529296875" lon="13.194843292236328">
<ele>77.5999984741211</ele>
<time>2014-02-16T14:11:03Z</time>
</trkpt>
<trkpt lat="52.65103530883789" lon="13.194955825805664">
<ele>77.19999694824219</ele>
<time>2014-02-16T14:11:05Z</time>
</trkpt>
<trkpt lat="52.651004791259766" lon="13.195011138916016">
<ele>77.0999984741211</ele>
<time>2014-02-16T14:11:06Z</time>
</trkpt>
<trkpt lat="52.65093994140625" lon="13.195111274719238">
<ele>76.4000015258789</ele>
<time>2014-02-16T14:11:08Z</time>
</trkpt>
<trkpt lat="52.650875091552734" lon="13.195215225219727">
<ele>76.19999694824219</ele>
<time>2014-02-16T14:11:10Z</time>
</trkpt>
<trkpt lat="52.65081024169922" lon="13.195319175720215">
<ele>76.5999984741211</ele>
<time>2014-02-16T14:11:12Z</time>
</trkpt>
<trkpt lat="52.65077590942383" lon="13.195375442504883">
<ele>76.5</ele>
<time>2014-02-16T14:11:13Z</time>
</trkpt>
<trkpt lat="52.65074157714844" lon="13.195427894592285">
<ele>76.4000015258789</ele>
<time>2014-02-16T14:11:14Z</time>
</trkpt>
<trkpt lat="52.65070724487305" lon="13.195475578308105">
<ele>76.0999984741211</ele>
<time>2014-02-16T14:11:15Z</time>
</trkpt>
<trkpt lat="52.65064239501953" lon="13.195562362670898">
<ele>76.0</ele>
<time>2014-02-16T14:11:17Z</time>
</trkpt>
<trkpt lat="52.65057373046875" lon="13.195647239685059">
<ele>76.0999984741211</ele>
<time>2014-02-16T14:11:19Z</time>
</trkpt>
<trkpt lat="52.650508880615234" lon="13.195734977722168">
<ele>75.9000015258789</ele>
<time>2014-02-16T14:11:21Z</time>
</trkpt>
<trkpt lat="52.65044403076172" lon="13.195816040039062">
<ele>76.19999694824219</ele>
<time>2014-02-16T14:11:23Z</time>
</trkpt>
<trkpt lat="52.650390625" lon="13.195898056030273">
<ele>75.5999984741211</ele>
<time>2014-02-16T14:11:25Z</time>
</trkpt>
<trkpt lat="52.65032196044922" lon="13.195993423461914">
<ele>75.5999984741211</ele>
<time>2014-02-16T14:11:27Z</time>
</trkpt>
<trkpt lat="52.650291442871094" lon="13.196046829223633">
<ele>75.5999984741211</ele>
<time>2014-02-16T14:11:28Z</time>
</trkpt>
<trkpt lat="52.650230407714844" lon="13.196148872375488">
<ele>74.9000015258789</ele>
<time>2014-02-16T14:11:30Z</time>
</trkpt>
<trkpt lat="52.65018081665039" lon="13.196267127990723">
<ele>74.69999694824219</ele>
<time>2014-02-16T14:11:32Z</time>
</trkpt>
<trkpt lat="52.650146484375" lon="13.196324348449707">
<ele>74.69999694824219</ele>
<time>2014-02-16T14:11:33Z</time>
</trkpt>
<trkpt lat="52.65008544921875" lon="13.196403503417969">
<ele>74.0</ele>
<time>2014-02-16T14:11:35Z</time>
</trkpt>
<trkpt lat="52.65005111694336" lon="13.196452140808105">
<ele>74.0999984741211</ele>
<time>2014-02-16T14:11:36Z</time>
</trkpt>
<trkpt lat="52.64999771118164" lon="13.196561813354492">
<ele>73.5999984741211</ele>
<time>2014-02-16T14:11:38Z</time>
</trkpt>
<trkpt lat="52.64994812011719" lon="13.19665813446045">
<ele>73.5</ele>
<time>2014-02-16T14:11:40Z</time>
</trkpt>
<trkpt lat="52.64989471435547" lon="13.196755409240723">
<ele>73.5999984741211</ele>
<time>2014-02-16T14:11:42Z</time>
</trkpt>
<trkpt lat="52.64985275268555" lon="13.196784973144531">
<ele>73.0999984741211</ele>
<time>2014-02-16T14:11:43Z</time>
</trkpt>
<trkpt lat="52.649810791015625" lon="13.196834564208984">
<ele>73.0999984741211</ele>
<time>2014-02-16T14:11:44Z</time>
</trkpt>
<trkpt lat="52.649776458740234" lon="13.196903228759766">
<ele>73.30000305175781</ele>
<time>2014-02-16T14:11:45Z</time>
</trkpt>
<trkpt lat="52.64973831176758" lon="13.196952819824219">
<ele>73.80000305175781</ele>
<time>2014-02-16T14:11:46Z</time>
</trkpt>
<trkpt lat="52.649662017822266" lon="13.197025299072266">
<ele>73.80000305175781</ele>
<time>2014-02-16T14:11:48Z</time>
</trkpt>
<trkpt lat="52.64961624145508" lon="13.197083473205566">
<ele>74.4000015258789</ele>
<time>2014-02-16T14:11:49Z</time>
</trkpt>
<trkpt lat="52.64957809448242" lon="13.1971435546875">
<ele>74.19999694824219</ele>
<time>2014-02-16T14:11:50Z</time>
</trkpt>
<trkpt lat="52.6495475769043" lon="13.19720458984375">
<ele>74.19999694824219</ele>
<time>2014-02-16T14:11:51Z</time>
</trkpt>
<trkpt lat="52.64950942993164" lon="13.197265625">
<ele>74.5</ele>
<time>2014-02-16T14:11:52Z</time>
</trkpt>
<trkpt lat="52.64947509765625" lon="13.197322845458984">
<ele>74.0999984741211</ele>
<time>2014-02-16T14:11:53Z</time>
</trkpt>
<trkpt lat="52.64942932128906" lon="13.19737720489502">
<ele>74.4000015258789</ele>
<time>2014-02-16T14:11:54Z</time>
</trkpt>
<trkpt lat="52.64937973022461" lon="13.19744873046875">
<ele>74.19999694824219</ele>
<time>2014-02-16T14:11:55Z</time>
</trkpt>
<trkpt lat="52.64933776855469" lon="13.197505950927734">
<ele>74.19999694824219</ele>
<time>2014-02-16T14:11:56Z</time>
</trkpt>
<trkpt lat="52.649261474609375" lon="13.197609901428223">
<ele>75.19999694824219</ele>
<time>2014-02-16T14:11:58Z</time>
</trkpt>
<trkpt lat="52.649227142333984" lon="13.197659492492676">
<ele>75.30000305175781</ele>
<time>2014-02-16T14:11:59Z</time>
</trkpt>
<trkpt lat="52.64918518066406" lon="13.197723388671875">
<ele>75.5</ele>
<time>2014-02-16T14:12:01Z</time>
</trkpt>
<trkpt lat="52.649139404296875" lon="13.197787284851074">
<ele>75.5</ele>
<time>2014-02-16T14:12:01Z</time>
</trkpt>
<trkpt lat="52.64909362792969" lon="13.197853088378906">
<ele>75.4000015258789</ele>
<time>2014-02-16T14:12:02Z</time>
</trkpt>
<trkpt lat="52.6490592956543" lon="13.197900772094727">
<ele>75.5</ele>
<time>2014-02-16T14:12:03Z</time>
</trkpt>
<trkpt lat="52.649024963378906" lon="13.197962760925293">
<ele>74.80000305175781</ele>
<time>2014-02-16T14:12:04Z</time>
</trkpt>
<trkpt lat="52.648983001708984" lon="13.198019027709961">
<ele>74.5</ele>
<time>2014-02-16T14:12:05Z</time>
</trkpt>
<trkpt lat="52.648948669433594" lon="13.19807243347168">
<ele>74.4000015258789</ele>
<time>2014-02-16T14:12:06Z</time>
</trkpt>
<trkpt lat="52.64888381958008" lon="13.198165893554688">
<ele>74.5</ele>
<time>2014-02-16T14:12:08Z</time>
</trkpt>
<trkpt lat="52.64885330200195" lon="13.198224067687988">
<ele>73.9000015258789</ele>
<time>2014-02-16T14:12:09Z</time>
</trkpt>
<trkpt lat="52.6488151550293" lon="13.19827938079834">
<ele>74.0999984741211</ele>
<time>2014-02-16T14:12:10Z</time>
</trkpt>
<trkpt lat="52.64876937866211" lon="13.198339462280273">
<ele>74.0</ele>
<time>2014-02-16T14:12:11Z</time>
</trkpt>
<trkpt lat="52.64872741699219" lon="13.198394775390625">
<ele>73.69999694824219</ele>
<time>2014-02-16T14:12:12Z</time>
</trkpt>
<trkpt lat="52.648681640625" lon="13.198456764221191">
<ele>73.9000015258789</ele>
<time>2014-02-16T14:12:13Z</time>
</trkpt>
<trkpt lat="52.64860534667969" lon="13.198541641235352">
<ele>73.4000015258789</ele>
<time>2014-02-16T14:12:15Z</time>
</trkpt>
<trkpt lat="52.64856719970703" lon="13.198603630065918">
<ele>73.4000015258789</ele>
<time>2014-02-16T14:12:16Z</time>
</trkpt>
<trkpt lat="52.648536682128906" lon="13.198670387268066">
<ele>73.9000015258789</ele>
<time>2014-02-16T14:12:17Z</time>
</trkpt>
<trkpt lat="52.648502349853516" lon="13.198732376098633">
<ele>74.0</ele>
<time>2014-02-16T14:12:18Z</time>
</trkpt>
<trkpt lat="52.648468017578125" lon="13.19879150390625">
<ele>74.0999984741211</ele>
<time>2014-02-16T14:12:19Z</time>
</trkpt>
<trkpt lat="52.6484375" lon="13.1988525390625">
<ele>73.5999984741211</ele>
<time>2014-02-16T14:12:20Z</time>
</trkpt>
<trkpt lat="52.64838409423828" lon="13.198946952819824">
<ele>72.69999694824219</ele>
<time>2014-02-16T14:12:22Z</time>
</trkpt>
<trkpt lat="52.648353576660156" lon="13.199012756347656">
<ele>73.0999984741211</ele>
<time>2014-02-16T14:12:23Z</time>
</trkpt>
<trkpt lat="52.648319244384766" lon="13.199074745178223">
<ele>73.0</ele>
<time>2014-02-16T14:12:24Z</time>
</trkpt>
<trkpt lat="52.64828872680664" lon="13.199135780334473">
<ele>73.0999984741211</ele>
<time>2014-02-16T14:12:25Z</time>
</trkpt>
<trkpt lat="52.64825439453125" lon="13.19920825958252">
<ele>73.4000015258789</ele>
<time>2014-02-16T14:12:26Z</time>
</trkpt>
<trkpt lat="52.64822006225586" lon="13.199268341064453">
<ele>73.69999694824219</ele>
<time>2014-02-16T14:12:27Z</time>
</trkpt>
<trkpt lat="52.64818572998047" lon="13.19932746887207">
<ele>74.19999694824219</ele>
<time>2014-02-16T14:12:28Z</time>
</trkpt>
<trkpt lat="52.64815139770508" lon="13.199396133422852">
<ele>74.19999694824219</ele>
<time>2014-02-16T14:12:29Z</time>
</trkpt>
<trkpt lat="52.64812088012695" lon="13.199466705322266">
<ele>74.4000015258789</ele>
<time>2014-02-16T14:12:30Z</time>
</trkpt>
<trkpt lat="52.6480827331543" lon="13.199535369873047">
<ele>74.30000305175781</ele>
<time>2014-02-16T14:12:31Z</time>
</trkpt>
<trkpt lat="52.64805221557617" lon="13.199596405029297">
<ele>74.4000015258789</ele>
<time>2014-02-16T14:12:32Z</time>
</trkpt>
<trkpt lat="52.64800262451172" lon="13.19971752166748">
<ele>74.19999694824219</ele>
<time>2014-02-16T14:12:34Z</time>
</trkpt>
<trkpt lat="52.64797592163086" lon="13.199783325195312">
<ele>73.80000305175781</ele>
<time>2014-02-16T14:12:35Z</time>
</trkpt>
<trkpt lat="52.64794921875" lon="13.199845314025879">
<ele>74.5</ele>
<time>2014-02-16T14:12:36Z</time>
</trkpt>
<trkpt lat="52.64792251586914" lon="13.19991683959961">
<ele>74.30000305175781</ele>
<time>2014-02-16T14:12:37Z</time>
</trkpt>
<trkpt lat="52.64789581298828" lon="13.199981689453125">
<ele>74.5999984741211</ele>
<time>2014-02-16T14:12:38Z</time>
</trkpt>
<trkpt lat="52.64787292480469" lon="13.200050354003906">
<ele>75.0</ele>
<time>2014-02-16T14:12:39Z</time>
</trkpt>
<trkpt lat="52.64784240722656" lon="13.200173377990723">
<ele>75.0</ele>
<time>2014-02-16T14:12:41Z</time>
</trkpt>
<trkpt lat="52.64781951904297" lon="13.200257301330566">
<ele>75.0</ele>
<time>2014-02-16T14:12:42Z</time>
</trkpt>
<trkpt lat="52.64778137207031" lon="13.200326919555664">
<ele>74.80000305175781</ele>
<time>2014-02-16T14:12:43Z</time>
</trkpt>
<trkpt lat="52.647735595703125" lon="13.200410842895508">
<ele>74.80000305175781</ele>
<time>2014-02-16T14:12:44Z</time>
</trkpt>
<trkpt lat="52.64772033691406" lon="13.200485229492188">
<ele>74.4000015258789</ele>
<time>2014-02-16T14:12:45Z</time>
</trkpt>
<trkpt lat="52.64768600463867" lon="13.20058536529541">
<ele>73.5</ele>
<time>2014-02-16T14:12:47Z</time>
</trkpt>
<trkpt lat="52.647674560546875" lon="13.20068073272705">
<ele>71.5</ele>
<time>2014-02-16T14:12:49Z</time>
</trkpt>
<trkpt lat="52.64765548706055" lon="13.200756072998047">
<ele>72.4000015258789</ele>
<time>2014-02-16T14:12:50Z</time>
</trkpt>
<trkpt lat="52.64762496948242" lon="13.200821876525879">
<ele>72.80000305175781</ele>
<time>2014-02-16T14:12:51Z</time>
</trkpt>
<trkpt lat="52.64759826660156" lon="13.20088005065918">
<ele>73.5999984741211</ele>
<time>2014-02-16T14:12:52Z</time>
</trkpt>
<trkpt lat="52.64756393432617" lon="13.200939178466797">
<ele>73.5</ele>
<time>2014-02-16T14:12:53Z</time>
</trkpt>
<trkpt lat="52.64752960205078" lon="13.201051712036133">
<ele>73.30000305175781</ele>
<time>2014-02-16T14:12:55Z</time>
</trkpt>
<trkpt lat="52.647499084472656" lon="13.20116138458252">
<ele>73.5</ele>
<time>2014-02-16T14:12:57Z</time>
</trkpt>
<trkpt lat="52.64744567871094" lon="13.201224327087402">
<ele>73.0999984741211</ele>
<time>2014-02-16T14:12:59Z</time>
</trkpt>
<trkpt lat="52.64741134643555" lon="13.201288223266602">
<ele>72.69999694824219</ele>
<time>2014-02-16T14:13:02Z</time>
</trkpt>
<trkpt lat="52.64739227294922" lon="13.201359748840332">
<ele>72.0</ele>
<time>2014-02-16T14:13:03Z</time>
</trkpt>
<trkpt lat="52.647377014160156" lon="13.201467514038086">
<ele>68.80000305175781</ele>
<time>2014-02-16T14:13:43Z</time>
</trkpt>
<trkpt lat="52.647342681884766" lon="13.201557159423828">
<ele>69.30000305175781</ele>
<time>2014-02-16T14:13:45Z</time>
</trkpt>
<trkpt lat="52.647315979003906" lon="13.201629638671875">
<ele>68.4000015258789</ele>
<time>2014-02-16T14:13:47Z</time>
</trkpt>
<trkpt lat="52.64728546142578" lon="13.201695442199707">
<ele>69.9000015258789</ele>
<time>2014-02-16T14:13:47Z</time>
</trkpt>
<trkpt lat="52.64727783203125" lon="13.201775550842285">
<ele>70.30000305175781</ele>
<time>2014-02-16T14:13:48Z</time>
</trkpt>
<trkpt lat="52.64725875854492" lon="13.201922416687012">
<ele>70.69999694824219</ele>
<time>2014-02-16T14:13:50Z</time>
</trkpt>
<trkpt lat="52.64723587036133" lon="13.201988220214844">
<ele>70.5</ele>
<time>2014-02-16T14:13:51Z</time>
</trkpt>
<trkpt lat="52.64719009399414" lon="13.202115058898926">
<ele>69.9000015258789</ele>
<time>2014-02-16T14:13:53Z</time>
</trkpt>
<trkpt lat="52.647159576416016" lon="13.20218563079834">
<ele>70.4000015258789</ele>
<time>2014-02-16T14:13:54Z</time>
</trkpt>
<trkpt lat="52.647132873535156" lon="13.202266693115234">
<ele>70.80000305175781</ele>
<time>2014-02-16T14:13:55Z</time>
</trkpt>
<trkpt lat="52.647098541259766" lon="13.202337265014648">
<ele>72.0999984741211</ele>
<time>2014-02-16T14:13:56Z</time>
</trkpt>
<trkpt lat="52.64706802368164" lon="13.202414512634277">
<ele>73.0999984741211</ele>
<time>2014-02-16T14:13:57Z</time>
</trkpt>
<trkpt lat="52.64704895019531" lon="13.20249080657959">
<ele>72.4000015258789</ele>
<time>2014-02-16T14:13:58Z</time>
</trkpt>
<trkpt lat="52.64702224731445" lon="13.202567100524902">
<ele>72.5</ele>
<time>2014-02-16T14:13:59Z</time>
</trkpt>
<trkpt lat="52.646968841552734" lon="13.20267105102539">
<ele>70.9000015258789</ele>
<time>2014-02-16T14:14:01Z</time>
</trkpt>
<trkpt lat="52.64692306518555" lon="13.202827453613281">
<ele>71.19999694824219</ele>
<time>2014-02-16T14:14:03Z</time>
</trkpt>
<trkpt lat="52.64690399169922" lon="13.202898025512695">
<ele>71.19999694824219</ele>
<time>2014-02-16T14:14:04Z</time>
</trkpt>
<trkpt lat="52.646873474121094" lon="13.202978134155273">
<ele>71.0999984741211</ele>
<time>2014-02-16T14:14:05Z</time>
</trkpt>
<trkpt lat="52.646854400634766" lon="13.20306396484375">
<ele>70.69999694824219</ele>
<time>2014-02-16T14:14:06Z</time>
</trkpt>
<trkpt lat="52.64682388305664" lon="13.203134536743164">
<ele>71.30000305175781</ele>
<time>2014-02-16T14:14:07Z</time>
</trkpt>
<trkpt lat="52.64679718017578" lon="13.20320987701416">
<ele>71.4000015258789</ele>
<time>2014-02-16T14:14:08Z</time>
</trkpt>
<trkpt lat="52.64677429199219" lon="13.203289985656738">
<ele>71.30000305175781</ele>
<time>2014-02-16T14:14:09Z</time>
</trkpt>
<trkpt lat="52.64674377441406" lon="13.203371047973633">
<ele>71.30000305175781</ele>
<time>2014-02-16T14:14:10Z</time>
</trkpt>
<trkpt lat="52.64672088623047" lon="13.203441619873047">
<ele>71.5999984741211</ele>
<time>2014-02-16T14:14:11Z</time>
</trkpt>
<trkpt lat="52.64674758911133" lon="13.203535079956055">
<ele>71.69999694824219</ele>
<time>2014-02-16T14:14:13Z</time>
</trkpt>
<trkpt lat="52.64670181274414" lon="13.203606605529785">
<ele>71.9000015258789</ele>
<time>2014-02-16T14:14:15Z</time>
</trkpt>
<trkpt lat="52.64664840698242" lon="13.20369815826416">
<ele>70.0</ele>
<time>2014-02-16T14:14:17Z</time>
</trkpt>
<trkpt lat="52.6466064453125" lon="13.203766822814941">
<ele>69.4000015258789</ele>
<time>2014-02-16T14:14:18Z</time>
</trkpt>
<trkpt lat="52.646568298339844" lon="13.203851699829102">
<ele>68.80000305175781</ele>
<time>2014-02-16T14:14:19Z</time>
</trkpt>
<trkpt lat="52.64650344848633" lon="13.204001426696777">
<ele>70.9000015258789</ele>
<time>2014-02-16T14:14:20Z</time>
</trkpt>
<trkpt lat="52.646453857421875" lon="13.204078674316406">
<ele>71.69999694824219</ele>
<time>2014-02-16T14:14:21Z</time>
</trkpt>
<trkpt lat="52.64643096923828" lon="13.204174995422363">
<ele>72.30000305175781</ele>
<time>2014-02-16T14:14:22Z</time>
</trkpt>
<trkpt lat="52.64640808105469" lon="13.204264640808105">
<ele>72.9000015258789</ele>
<time>2014-02-16T14:14:23Z</time>
</trkpt>
<trkpt lat="52.64638137817383" lon="13.204344749450684">
<ele>73.30000305175781</ele>
<time>2014-02-16T14:14:24Z</time>
</trkpt>
<trkpt lat="52.64635467529297" lon="13.204402923583984">
<ele>73.80000305175781</ele>
<time>2014-02-16T14:14:25Z</time>
</trkpt>
<trkpt lat="52.64630126953125" lon="13.204512596130371">
<ele>74.19999694824219</ele>
<time>2014-02-16T14:14:27Z</time>
</trkpt>
<trkpt lat="52.64622497558594" lon="13.204580307006836">
<ele>73.0</ele>
<time>2014-02-16T14:14:29Z</time>
</trkpt>
<trkpt lat="52.64617156982422" lon="13.20460033416748">
<ele>73.5999984741211</ele>
<time>2014-02-16T14:14:30Z</time>
</trkpt>
<trkpt lat="52.6461181640625" lon="13.204611778259277">
<ele>73.5</ele>
<time>2014-02-16T14:14:31Z</time>
</trkpt>
<trkpt lat="52.64607238769531" lon="13.204628944396973">
<ele>73.5999984741211</ele>
<time>2014-02-16T14:14:32Z</time>
</trkpt>
<trkpt lat="52.646026611328125" lon="13.204644203186035">
<ele>73.69999694824219</ele>
<time>2014-02-16T14:14:33Z</time>
</trkpt>
<trkpt lat="52.64598083496094" lon="13.20466423034668">
<ele>74.0</ele>
<time>2014-02-16T14:14:34Z</time>
</trkpt>
<trkpt lat="52.64593505859375" lon="13.204684257507324">
<ele>74.0999984741211</ele>
<time>2014-02-16T14:14:35Z</time>
</trkpt>
<trkpt lat="52.6458854675293" lon="13.204705238342285">
<ele>73.9000015258789</ele>
<time>2014-02-16T14:14:36Z</time>
</trkpt>
<trkpt lat="52.645835876464844" lon="13.20472240447998">
<ele>73.80000305175781</ele>
<time>2014-02-16T14:14:37Z</time>
</trkpt>
<trkpt lat="52.64579391479492" lon="13.20474910736084">
<ele>74.19999694824219</ele>
<time>2014-02-16T14:14:38Z</time>
</trkpt>
<trkpt lat="52.645748138427734" lon="13.2047700881958">
<ele>74.30000305175781</ele>
<time>2014-02-16T14:14:39Z</time>
</trkpt>
<trkpt lat="52.64569854736328" lon="13.204788208007812">
<ele>74.5</ele>
<time>2014-02-16T14:14:40Z</time>
</trkpt>
<trkpt lat="52.645652770996094" lon="13.204805374145508">
<ele>74.5</ele>
<time>2014-02-16T14:14:41Z</time>
</trkpt>
<trkpt lat="52.64560317993164" lon="13.204821586608887">
<ele>74.0</ele>
<time>2014-02-16T14:14:42Z</time>
</trkpt>
<trkpt lat="52.64555358886719" lon="13.204838752746582">
<ele>74.0999984741211</ele>
<time>2014-02-16T14:14:43Z</time>
</trkpt>
<trkpt lat="52.6455078125" lon="13.20486068725586">
<ele>74.0999984741211</ele>
<time>2014-02-16T14:14:44Z</time>
</trkpt>
<trkpt lat="52.645450592041016" lon="13.20488452911377">
<ele>75.0999984741211</ele>
<time>2014-02-16T14:14:45Z</time>
</trkpt>
<trkpt lat="52.64540100097656" lon="13.204893112182617">
<ele>74.9000015258789</ele>
<time>2014-02-16T14:14:46Z</time>
</trkpt>
<trkpt lat="52.645347595214844" lon="13.204903602600098">
<ele>74.9000015258789</ele>
<time>2014-02-16T14:14:47Z</time>
</trkpt>
<trkpt lat="52.64529800415039" lon="13.204919815063477">
<ele>74.69999694824219</ele>
<time>2014-02-16T14:14:48Z</time>
</trkpt>
<trkpt lat="52.64524841308594" lon="13.204936981201172">
<ele>74.9000015258789</ele>
<time>2014-02-16T14:14:49Z</time>
</trkpt>
<trkpt lat="52.645198822021484" lon="13.204952239990234">
<ele>75.4000015258789</ele>
<time>2014-02-16T14:14:50Z</time>
</trkpt>
<trkpt lat="52.6451530456543" lon="13.204960823059082">
<ele>75.30000305175781</ele>
<time>2014-02-16T14:14:51Z</time>
</trkpt>
<trkpt lat="52.64510726928711" lon="13.204977035522461">
<ele>74.69999694824219</ele>
<time>2014-02-16T14:14:52Z</time>
</trkpt>
<trkpt lat="52.645057678222656" lon="13.204992294311523">
<ele>74.4000015258789</ele>
<time>2014-02-16T14:14:53Z</time>
</trkpt>
<trkpt lat="52.6450080871582" lon="13.204997062683105">
<ele>74.4000015258789</ele>
<time>2014-02-16T14:14:54Z</time>
</trkpt>
<trkpt lat="52.64495849609375" lon="13.205018997192383">
<ele>74.30000305175781</ele>
<time>2014-02-16T14:14:55Z</time>
</trkpt>
<trkpt lat="52.6449089050293" lon="13.205034255981445">
<ele>73.9000015258789</ele>
<time>2014-02-16T14:14:56Z</time>
</trkpt>
<trkpt lat="52.64485549926758" lon="13.205058097839355">
<ele>73.69999694824219</ele>
<time>2014-02-16T14:14:57Z</time>
</trkpt>
<trkpt lat="52.64480972290039" lon="13.20507526397705">
<ele>73.69999694824219</ele>
<time>2014-02-16T14:14:58Z</time>
</trkpt>
<trkpt lat="52.64476013183594" lon="13.205097198486328">
<ele>74.0</ele>
<time>2014-02-16T14:14:59Z</time>
</trkpt>
<trkpt lat="52.64466857910156" lon="13.205095291137695">
<ele>73.80000305175781</ele>
<time>2014-02-16T14:15:01Z</time>
</trkpt>
<trkpt lat="52.64461898803711" lon="13.205106735229492">
<ele>73.80000305175781</ele>
<time>2014-02-16T14:15:02Z</time>
</trkpt>
<trkpt lat="52.64457321166992" lon="13.205120086669922">
<ele>73.30000305175781</ele>
<time>2014-02-16T14:15:03Z</time>
</trkpt>
<trkpt lat="52.64452362060547" lon="13.205141067504883">
<ele>73.0999984741211</ele>
<time>2014-02-16T14:15:04Z</time>
</trkpt>
<trkpt lat="52.64447021484375" lon="13.205153465270996">
<ele>73.0999984741211</ele>
<time>2014-02-16T14:15:05Z</time>
</trkpt>
<trkpt lat="52.64442825317383" lon="13.205175399780273">
<ele>73.19999694824219</ele>
<time>2014-02-16T14:15:06Z</time>
</trkpt>
<trkpt lat="52.64437484741211" lon="13.205195426940918">
<ele>73.19999694824219</ele>
<time>2014-02-16T14:15:07Z</time>
</trkpt>
<trkpt lat="52.64432144165039" lon="13.205216407775879">
<ele>73.0</ele>
<time>2014-02-16T14:15:08Z</time>
</trkpt>
<trkpt lat="52.6442756652832" lon="13.205233573913574">
<ele>72.80000305175781</ele>
<time>2014-02-16T14:15:09Z</time>
</trkpt>
<trkpt lat="52.64422607421875" lon="13.205236434936523">
<ele>72.69999694824219</ele>
<time>2014-02-16T14:15:10Z</time>
</trkpt>
<trkpt lat="52.64418029785156" lon="13.205249786376953">
<ele>72.4000015258789</ele>
<time>2014-02-16T14:15:11Z</time>
</trkpt>
<trkpt lat="52.64413070678711" lon="13.205263137817383">
<ele>72.30000305175781</ele>
<time>2014-02-16T14:15:12Z</time>
</trkpt>
<trkpt lat="52.644081115722656" lon="13.20527172088623">
<ele>72.19999694824219</ele>
<time>2014-02-16T14:15:13Z</time>
</trkpt>
<trkpt lat="52.6440315246582" lon="13.205286026000977">
<ele>72.19999694824219</ele>
<time>2014-02-16T14:15:14Z</time>
</trkpt>
<trkpt lat="52.64398193359375" lon="13.205306053161621">
<ele>71.9000015258789</ele>
<time>2014-02-16T14:15:15Z</time>
</trkpt>
<trkpt lat="52.64393997192383" lon="13.205322265625">
<ele>71.5999984741211</ele>
<time>2014-02-16T14:15:16Z</time>
</trkpt>
<trkpt lat="52.643882751464844" lon="13.205361366271973">
<ele>73.5999984741211</ele>
<time>2014-02-16T14:15:17Z</time>
</trkpt>
<trkpt lat="52.643836975097656" lon="13.205378532409668">
<ele>73.0</ele>
<time>2014-02-16T14:15:18Z</time>
</trkpt>
<trkpt lat="52.6437873840332" lon="13.205392837524414">
<ele>72.80000305175781</ele>
<time>2014-02-16T14:15:19Z</time>
</trkpt>
<trkpt lat="52.643741607666016" lon="13.205411911010742">
<ele>73.0999984741211</ele>
<time>2014-02-16T14:15:20Z</time>
</trkpt>
<trkpt lat="52.64369201660156" lon="13.205429077148438">
<ele>73.4000015258789</ele>
<time>2014-02-16T14:15:21Z</time>
</trkpt>
<trkpt lat="52.64360046386719" lon="13.20544147491455">
<ele>73.80000305175781</ele>
<time>2014-02-16T14:15:23Z</time>
</trkpt>
<trkpt lat="52.643550872802734" lon="13.205463409423828">
<ele>73.9000015258789</ele>
<time>2014-02-16T14:15:24Z</time>
</trkpt>
<trkpt lat="52.64350509643555" lon="13.205476760864258">
<ele>73.80000305175781</ele>
<time>2014-02-16T14:15:25Z</time>
</trkpt>
<trkpt lat="52.64345169067383" lon="13.205489158630371">
<ele>73.5999984741211</ele>
<time>2014-02-16T14:15:26Z</time>
</trkpt>
<trkpt lat="52.64340591430664" lon="13.2055025100708">
<ele>73.5999984741211</ele>
<time>2014-02-16T14:15:27Z</time>
</trkpt>
<trkpt lat="52.64335250854492" lon="13.205513954162598">
<ele>73.19999694824219</ele>
<time>2014-02-16T14:15:28Z</time>
</trkpt>
<trkpt lat="52.643306732177734" lon="13.205536842346191">
<ele>72.80000305175781</ele>
<time>2014-02-16T14:15:29Z</time>
</trkpt>
<trkpt lat="52.64326477050781" lon="13.205572128295898">
<ele>73.5999984741211</ele>
<time>2014-02-16T14:15:30Z</time>
</trkpt>
<trkpt lat="52.643211364746094" lon="13.205592155456543">
<ele>73.69999694824219</ele>
<time>2014-02-16T14:15:31Z</time>
</trkpt>
<trkpt lat="52.64311981201172" lon="13.20564079284668">
<ele>73.30000305175781</ele>
<time>2014-02-16T14:15:33Z</time>
</trkpt>
<trkpt lat="52.643070220947266" lon="13.205673217773438">
<ele>73.19999694824219</ele>
<time>2014-02-16T14:15:34Z</time>
</trkpt>
<trkpt lat="52.64302444458008" lon="13.205702781677246">
<ele>73.0</ele>
<time>2014-02-16T14:15:35Z</time>
</trkpt>
<trkpt lat="52.64297866821289" lon="13.205730438232422">
<ele>73.5</ele>
<time>2014-02-16T14:15:36Z</time>
</trkpt>
<trkpt lat="52.6429328918457" lon="13.205764770507812">
<ele>73.5999984741211</ele>
<time>2014-02-16T14:15:37Z</time>
</trkpt>
<trkpt lat="52.64288330078125" lon="13.20580005645752">
<ele>73.4000015258789</ele>
<time>2014-02-16T14:15:38Z</time>
</trkpt>
<trkpt lat="52.6428337097168" lon="13.205826759338379">
<ele>73.5</ele>
<time>2014-02-16T14:15:39Z</time>
</trkpt>
<trkpt lat="52.64278793334961" lon="13.20584487915039">
<ele>73.0</ele>
<time>2014-02-16T14:15:40Z</time>
</trkpt>
<trkpt lat="52.642696380615234" lon="13.205889701843262">
<ele>73.19999694824219</ele>
<time>2014-02-16T14:15:42Z</time>
</trkpt>
<trkpt lat="52.64264678955078" lon="13.20590877532959">
<ele>73.4000015258789</ele>
<time>2014-02-16T14:15:43Z</time>
</trkpt>
<trkpt lat="52.642601013183594" lon="13.205930709838867">
<ele>73.5</ele>
<time>2014-02-16T14:15:44Z</time>
</trkpt>
<trkpt lat="52.642547607421875" lon="13.205951690673828">
<ele>73.5</ele>
<time>2014-02-16T14:15:45Z</time>
</trkpt>
<trkpt lat="52.64250183105469" lon="13.205971717834473">
<ele>72.5999984741211</ele>
<time>2014-02-16T14:15:46Z</time>
</trkpt>
<trkpt lat="52.642452239990234" lon="13.205991744995117">
<ele>72.9000015258789</ele>
<time>2014-02-16T14:15:47Z</time>
</trkpt>
<trkpt lat="52.64240264892578" lon="13.206011772155762">
<ele>73.19999694824219</ele>
<time>2014-02-16T14:15:48Z</time>
</trkpt>
<trkpt lat="52.642356872558594" lon="13.206032752990723">
<ele>72.69999694824219</ele>
<time>2014-02-16T14:15:49Z</time>
</trkpt>
<trkpt lat="52.64230728149414" lon="13.206048011779785">
<ele>72.80000305175781</ele>
<time>2014-02-16T14:15:50Z</time>
</trkpt>
<trkpt lat="52.64225387573242" lon="13.206085205078125">
<ele>73.80000305175781</ele>
<time>2014-02-16T14:15:51Z</time>
</trkpt>
<trkpt lat="52.64220428466797" lon="13.206111907958984">
<ele>73.9000015258789</ele>
<time>2014-02-16T14:15:52Z</time>
</trkpt>
<trkpt lat="52.64215850830078" lon="13.206134796142578">
<ele>74.0999984741211</ele>
<time>2014-02-16T14:15:53Z</time>
</trkpt>
<trkpt lat="52.642112731933594" lon="13.20615291595459">
<ele>74.19999694824219</ele>
<time>2014-02-16T14:15:54Z</time>
</trkpt>
<trkpt lat="52.64206314086914" lon="13.206170082092285">
<ele>74.19999694824219</ele>
<time>2014-02-16T14:15:55Z</time>
</trkpt>
<trkpt lat="52.64201736450195" lon="13.206197738647461">
<ele>74.5</ele>
<time>2014-02-16T14:15:56Z</time>
</trkpt>
<trkpt lat="52.6419677734375" lon="13.206225395202637">
<ele>74.80000305175781</ele>
<time>2014-02-16T14:15:57Z</time>
</trkpt>
<trkpt lat="52.64192199707031" lon="13.206245422363281">
<ele>75.4000015258789</ele>
<time>2014-02-16T14:15:58Z</time>
</trkpt>
<trkpt lat="52.641845703125" lon="13.20626163482666">
<ele>74.80000305175781</ele>
<time>2014-02-16T14:16:00Z</time>
</trkpt>
<trkpt lat="52.64175796508789" lon="13.206289291381836">
<ele>74.80000305175781</ele>
<time>2014-02-16T14:16:02Z</time>
</trkpt>
<trkpt lat="52.64170837402344" lon="13.206311225891113">
<ele>74.80000305175781</ele>
<time>2014-02-16T14:16:03Z</time>
</trkpt>
<trkpt lat="52.64165496826172" lon="13.206334114074707">
<ele>74.69999694824219</ele>
<time>2014-02-16T14:16:04Z</time>
</trkpt>
<trkpt lat="52.6416130065918" lon="13.206351280212402">
<ele>74.5</ele>
<time>2014-02-16T14:16:05Z</time>
</trkpt>
<trkpt lat="52.641563415527344" lon="13.206368446350098">
<ele>74.5</ele>
<time>2014-02-16T14:16:06Z</time>
</trkpt>
<trkpt lat="52.641517639160156" lon="13.206388473510742">
<ele>74.5999984741211</ele>
<time>2014-02-16T14:16:07Z</time>
</trkpt>
<trkpt lat="52.6414680480957" lon="13.206409454345703">
<ele>74.19999694824219</ele>
<time>2014-02-16T14:16:08Z</time>
</trkpt>
<trkpt lat="52.64141845703125" lon="13.206424713134766">
<ele>74.19999694824219</ele>
<time>2014-02-16T14:16:09Z</time>
</trkpt>
<trkpt lat="52.64137649536133" lon="13.206445693969727">
<ele>73.9000015258789</ele>
<time>2014-02-16T14:16:10Z</time>
</trkpt>
<trkpt lat="52.641326904296875" lon="13.20645809173584">
<ele>73.80000305175781</ele>
<time>2014-02-16T14:16:11Z</time>
</trkpt>
<trkpt lat="52.64128112792969" lon="13.20647144317627">
<ele>73.5</ele>
<time>2014-02-16T14:16:12Z</time>
</trkpt>
<trkpt lat="52.6412353515625" lon="13.206489562988281">
<ele>73.4000015258789</ele>
<time>2014-02-16T14:16:13Z</time>
</trkpt>
<trkpt lat="52.64118957519531" lon="13.206506729125977">
<ele>73.5999984741211</ele>
<time>2014-02-16T14:16:14Z</time>
</trkpt>
<trkpt lat="52.641143798828125" lon="13.206526756286621">
<ele>73.69999694824219</ele>
<time>2014-02-16T14:16:15Z</time>
</trkpt>
<trkpt lat="52.641056060791016" lon="13.20656967163086">
<ele>73.69999694824219</ele>
<time>2014-02-16T14:16:17Z</time>
</trkpt>
<trkpt lat="52.640968322753906" lon="13.206600189208984">
<ele>73.69999694824219</ele>
<time>2014-02-16T14:16:19Z</time>
</trkpt>
<trkpt lat="52.640892028808594" lon="13.206620216369629">
<ele>72.0</ele>
<time>2014-02-16T14:16:21Z</time>
</trkpt>
<trkpt lat="52.64080047607422" lon="13.206666946411133">
<ele>71.80000305175781</ele>
<time>2014-02-16T14:16:23Z</time>
</trkpt>
<trkpt lat="52.6407585144043" lon="13.206687927246094">
<ele>71.5</ele>
<time>2014-02-16T14:16:24Z</time>
</trkpt>
<trkpt lat="52.64071273803711" lon="13.206707000732422">
<ele>71.5999984741211</ele>
<time>2014-02-16T14:16:25Z</time>
</trkpt>
<trkpt lat="52.640625" lon="13.206757545471191">
<ele>71.80000305175781</ele>
<time>2014-02-16T14:16:27Z</time>
</trkpt>
<trkpt lat="52.64058303833008" lon="13.206788063049316">
<ele>71.5999984741211</ele>
<time>2014-02-16T14:16:28Z</time>
</trkpt>
<trkpt lat="52.64052200317383" lon="13.206889152526855">
<ele>71.9000015258789</ele>
<time>2014-02-16T14:16:30Z</time>
</trkpt>
<trkpt lat="52.64048385620117" lon="13.206933975219727">
<ele>71.9000015258789</ele>
<time>2014-02-16T14:16:31Z</time>
</trkpt>
<trkpt lat="52.64044952392578" lon="13.206990242004395">
<ele>71.80000305175781</ele>
<time>2014-02-16T14:16:32Z</time>
</trkpt>
<trkpt lat="52.640411376953125" lon="13.207039833068848">
<ele>72.0</ele>
<time>2014-02-16T14:16:33Z</time>
</trkpt>
<trkpt lat="52.64032745361328" lon="13.207135200500488">
<ele>72.5</ele>
<time>2014-02-16T14:16:35Z</time>
</trkpt>
<trkpt lat="52.64027786254883" lon="13.207134246826172">
<ele>73.0</ele>
<time>2014-02-16T14:16:36Z</time>
</trkpt>
<trkpt lat="52.64020919799805" lon="13.207088470458984">
<ele>72.9000015258789</ele>
<time>2014-02-16T14:16:38Z</time>
</trkpt>
<trkpt lat="52.64016342163086" lon="13.207094192504883">
<ele>73.4000015258789</ele>
<time>2014-02-16T14:16:39Z</time>
</trkpt>
<trkpt lat="52.64011764526367" lon="13.207123756408691">
<ele>73.5999984741211</ele>
<time>2014-02-16T14:16:40Z</time>
</trkpt>
<trkpt lat="52.640079498291016" lon="13.207172393798828">
<ele>73.69999694824219</ele>
<time>2014-02-16T14:16:41Z</time>
</trkpt>
<trkpt lat="52.64004135131836" lon="13.20722484588623">
<ele>73.69999694824219</ele>
<time>2014-02-16T14:16:42Z</time>
</trkpt>
<trkpt lat="52.6400032043457" lon="13.207281112670898">
<ele>74.19999694824219</ele>
<time>2014-02-16T14:16:43Z</time>
</trkpt>
<trkpt lat="52.639930725097656" lon="13.207375526428223">
<ele>74.5999984741211</ele>
<time>2014-02-16T14:16:45Z</time>
</trkpt>
<trkpt lat="52.639892578125" lon="13.207419395446777">
<ele>74.30000305175781</ele>
<time>2014-02-16T14:16:46Z</time>
</trkpt>
<trkpt lat="52.63985061645508" lon="13.207469940185547">
<ele>74.69999694824219</ele>
<time>2014-02-16T14:16:47Z</time>
</trkpt>
<trkpt lat="52.63981628417969" lon="13.207515716552734">
<ele>74.80000305175781</ele>
<time>2014-02-16T14:16:48Z</time>
</trkpt>
<trkpt lat="52.639739990234375" lon="13.207600593566895">
<ele>74.9000015258789</ele>
<time>2014-02-16T14:16:50Z</time>
</trkpt>
<trkpt lat="52.63970184326172" lon="13.207645416259766">
<ele>74.5999984741211</ele>
<time>2014-02-16T14:16:51Z</time>
</trkpt>
<trkpt lat="52.63966369628906" lon="13.207687377929688">
<ele>74.5</ele>
<time>2014-02-16T14:16:52Z</time>
</trkpt>
<trkpt lat="52.639625549316406" lon="13.207733154296875">
<ele>74.5</ele>
<time>2014-02-16T14:16:53Z</time>
</trkpt>
<trkpt lat="52.63958740234375" lon="13.207782745361328">
<ele>73.4000015258789</ele>
<time>2014-02-16T14:16:55Z</time>
</trkpt>
<trkpt lat="52.639522552490234" lon="13.207850456237793">
<ele>72.9000015258789</ele>
<time>2014-02-16T14:16:58Z</time>
</trkpt>
<trkpt lat="52.63945770263672" lon="13.207935333251953">
<ele>72.80000305175781</ele>
<time>2014-02-16T14:16:59Z</time>
</trkpt>
<trkpt lat="52.63938522338867" lon="13.208028793334961">
<ele>72.69999694824219</ele>
<time>2014-02-16T14:17:01Z</time>
</trkpt>
<trkpt lat="52.63935470581055" lon="13.208084106445312">
<ele>72.5</ele>
<time>2014-02-16T14:17:02Z</time>
</trkpt>
<trkpt lat="52.639320373535156" lon="13.20813274383545">
<ele>72.5</ele>
<time>2014-02-16T14:17:03Z</time>
</trkpt>
<trkpt lat="52.6392822265625" lon="13.208186149597168">
<ele>72.30000305175781</ele>
<time>2014-02-16T14:17:04Z</time>
</trkpt>
<trkpt lat="52.639244079589844" lon="13.208239555358887">
<ele>72.4000015258789</ele>
<time>2014-02-16T14:17:05Z</time>
</trkpt>
<trkpt lat="52.63920593261719" lon="13.208291053771973">
<ele>72.4000015258789</ele>
<time>2014-02-16T14:17:06Z</time>
</trkpt>
<trkpt lat="52.63913345336914" lon="13.208373069763184">
<ele>71.80000305175781</ele>
<time>2014-02-16T14:17:08Z</time>
</trkpt>
<trkpt lat="52.63909912109375" lon="13.20842456817627">
<ele>72.0</ele>
<time>2014-02-16T14:17:09Z</time>
</trkpt>
<trkpt lat="52.639060974121094" lon="13.208470344543457">
<ele>71.5999984741211</ele>
<time>2014-02-16T14:17:10Z</time>
</trkpt>
<trkpt lat="52.63898468017578" lon="13.208555221557617">
<ele>71.0</ele>
<time>2014-02-16T14:17:12Z</time>
</trkpt>
<trkpt lat="52.638919830322266" lon="13.208629608154297">
<ele>70.9000015258789</ele>
<time>2014-02-16T14:17:14Z</time>
</trkpt>
<trkpt lat="52.63888931274414" lon="13.208687782287598">
<ele>71.5</ele>
<time>2014-02-16T14:17:15Z</time>
</trkpt>
<trkpt lat="52.63882064819336" lon="13.208767890930176">
<ele>71.30000305175781</ele>
<time>2014-02-16T14:17:17Z</time>
</trkpt>
<trkpt lat="52.63878631591797" lon="13.208812713623047">
<ele>71.4000015258789</ele>
<time>2014-02-16T14:17:18Z</time>
</trkpt>
<trkpt lat="52.638729095458984" lon="13.208902359008789">
<ele>70.9000015258789</ele>
<time>2014-02-16T14:17:20Z</time>
</trkpt>
<trkpt lat="52.638694763183594" lon="13.208958625793457">
<ele>70.9000015258789</ele>
<time>2014-02-16T14:17:21Z</time>
</trkpt>
<trkpt lat="52.63862991333008" lon="13.20903491973877">
<ele>71.0999984741211</ele>
<time>2014-02-16T14:17:23Z</time>
</trkpt>
<trkpt lat="52.63856506347656" lon="13.209115028381348">
<ele>70.80000305175781</ele>
<time>2014-02-16T14:17:25Z</time>
</trkpt>
<trkpt lat="52.63851547241211" lon="13.209207534790039">
<ele>70.69999694824219</ele>
<time>2014-02-16T14:17:27Z</time>
</trkpt>
<trkpt lat="52.63851547241211" lon="13.209321022033691">
<ele>70.19999694824219</ele>
<time>2014-02-16T14:17:29Z</time>
</trkpt>
<trkpt lat="52.63847732543945" lon="13.209423065185547">
<ele>69.30000305175781</ele>
<time>2014-02-16T14:17:31Z</time>
</trkpt>
<trkpt lat="52.6384391784668" lon="13.2095308303833">
<ele>70.0999984741211</ele>
<time>2014-02-16T14:17:33Z</time>
</trkpt>
<trkpt lat="52.63840103149414" lon="13.209637641906738">
<ele>70.30000305175781</ele>
<time>2014-02-16T14:17:35Z</time>
</trkpt>
<trkpt lat="52.63833999633789" lon="13.209733009338379">
<ele>70.9000015258789</ele>
<time>2014-02-16T14:17:37Z</time>
</trkpt>
<trkpt lat="52.63829040527344" lon="13.209832191467285">
<ele>70.69999694824219</ele>
<time>2014-02-16T14:17:39Z</time>
</trkpt>
<trkpt lat="52.638240814208984" lon="13.209951400756836">
<ele>70.9000015258789</ele>
<time>2014-02-16T14:17:41Z</time>
</trkpt>
<trkpt lat="52.63819885253906" lon="13.210070610046387">
<ele>70.80000305175781</ele>
<time>2014-02-16T14:17:43Z</time>
</trkpt>
<trkpt lat="52.638160705566406" lon="13.210185050964355">
<ele>71.30000305175781</ele>
<time>2014-02-16T14:17:45Z</time>
</trkpt>
<trkpt lat="52.63811111450195" lon="13.21022891998291">
<ele>71.4000015258789</ele>
<time>2014-02-16T14:17:47Z</time>
</trkpt>
<trkpt lat="52.63805389404297" lon="13.210307121276855">
<ele>71.0</ele>
<time>2014-02-16T14:17:49Z</time>
</trkpt>
<trkpt lat="52.63798904418945" lon="13.210371971130371">
<ele>70.5999984741211</ele>
<time>2014-02-16T14:17:51Z</time>
</trkpt>
<trkpt lat="52.63792037963867" lon="13.210437774658203">
<ele>70.5999984741211</ele>
<time>2014-02-16T14:17:53Z</time>
</trkpt>
<trkpt lat="52.63785934448242" lon="13.210515022277832">
<ele>70.80000305175781</ele>
<time>2014-02-16T14:17:55Z</time>
</trkpt>
<trkpt lat="52.63780212402344" lon="13.21059799194336">
<ele>70.19999694824219</ele>
<time>2014-02-16T14:17:57Z</time>
</trkpt>
<trkpt lat="52.637779235839844" lon="13.210661888122559">
<ele>70.0999984741211</ele>
<time>2014-02-16T14:17:58Z</time>
</trkpt>
<trkpt lat="52.63774871826172" lon="13.21077823638916">
<ele>69.19999694824219</ele>
<time>2014-02-16T14:18:00Z</time>
</trkpt>
<trkpt lat="52.63771057128906" lon="13.210911750793457">
<ele>70.0</ele>
<time>2014-02-16T14:18:02Z</time>
</trkpt>
<trkpt lat="52.637664794921875" lon="13.211030006408691">
<ele>70.69999694824219</ele>
<time>2014-02-16T14:18:04Z</time>
</trkpt>
<trkpt lat="52.63764190673828" lon="13.211116790771484">
<ele>69.69999694824219</ele>
<time>2014-02-16T14:18:06Z</time>
</trkpt>
<trkpt lat="52.63762664794922" lon="13.211227416992188">
<ele>69.5999984741211</ele>
<time>2014-02-16T14:18:08Z</time>
</trkpt>
<trkpt lat="52.637603759765625" lon="13.211334228515625">
<ele>69.19999694824219</ele>
<time>2014-02-16T14:18:10Z</time>
</trkpt>
<trkpt lat="52.6375846862793" lon="13.211417198181152">
<ele>68.5</ele>
<time>2014-02-16T14:18:12Z</time>
</trkpt>
<trkpt lat="52.63758850097656" lon="13.211494445800781">
<ele>72.30000305175781</ele>
<time>2014-02-16T14:19:54Z</time>
</trkpt>
<trkpt lat="52.637569427490234" lon="13.211589813232422">
<ele>72.30000305175781</ele>
<time>2014-02-16T14:19:58Z</time>
</trkpt>
<trkpt lat="52.6375617980957" lon="13.21170711517334">
<ele>73.4000015258789</ele>
<time>2014-02-16T14:19:59Z</time>
</trkpt>
<trkpt lat="52.63753890991211" lon="13.211801528930664">
<ele>74.80000305175781</ele>
<time>2014-02-16T14:20:01Z</time>
</trkpt>
<trkpt lat="52.63751983642578" lon="13.211881637573242">
<ele>74.9000015258789</ele>
<time>2014-02-16T14:20:02Z</time>
</trkpt>
<trkpt lat="52.637508392333984" lon="13.211966514587402">
<ele>74.5</ele>
<time>2014-02-16T14:20:03Z</time>
</trkpt>
<trkpt lat="52.63748550415039" lon="13.212052345275879">
<ele>74.5</ele>
<time>2014-02-16T14:20:04Z</time>
</trkpt>
<trkpt lat="52.6374626159668" lon="13.212126731872559">
<ele>74.69999694824219</ele>
<time>2014-02-16T14:20:05Z</time>
</trkpt>
<trkpt lat="52.637451171875" lon="13.212203979492188">
<ele>75.4000015258789</ele>
<time>2014-02-16T14:20:06Z</time>
</trkpt>
<trkpt lat="52.63741683959961" lon="13.212331771850586">
<ele>75.69999694824219</ele>
<time>2014-02-16T14:20:08Z</time>
</trkpt>
<trkpt lat="52.637386322021484" lon="13.212448120117188">
<ele>75.0</ele>
<time>2014-02-16T14:20:10Z</time>
</trkpt>
<trkpt lat="52.63734817504883" lon="13.212573051452637">
<ele>74.4000015258789</ele>
<time>2014-02-16T14:20:12Z</time>
</trkpt>
<trkpt lat="52.63732147216797" lon="13.212705612182617">
<ele>74.5</ele>
<time>2014-02-16T14:20:14Z</time>
</trkpt>
<trkpt lat="52.63727951049805" lon="13.212833404541016">
<ele>74.69999694824219</ele>
<time>2014-02-16T14:20:16Z</time>
</trkpt>
<trkpt lat="52.63725280761719" lon="13.212942123413086">
<ele>74.0</ele>
<time>2014-02-16T14:20:18Z</time>
</trkpt>
<trkpt lat="52.637229919433594" lon="13.21306037902832">
<ele>74.19999694824219</ele>
<time>2014-02-16T14:20:20Z</time>
</trkpt>
<trkpt lat="52.63720703125" lon="13.213194847106934">
<ele>74.19999694824219</ele>
<time>2014-02-16T14:20:22Z</time>
</trkpt>
<trkpt lat="52.637176513671875" lon="13.213327407836914">
<ele>74.5</ele>
<time>2014-02-16T14:20:24Z</time>
</trkpt>
<trkpt lat="52.63715362548828" lon="13.213406562805176">
<ele>76.19999694824219</ele>
<time>2014-02-16T14:20:25Z</time>
</trkpt>
<trkpt lat="52.63713455200195" lon="13.21353816986084">
<ele>76.30000305175781</ele>
<time>2014-02-16T14:20:27Z</time>
</trkpt>
<trkpt lat="52.63710403442383" lon="13.213662147521973">
<ele>76.30000305175781</ele>
<time>2014-02-16T14:20:29Z</time>
</trkpt>
<trkpt lat="52.6370735168457" lon="13.21377944946289">
<ele>76.30000305175781</ele>
<time>2014-02-16T14:20:31Z</time>
</trkpt>
<trkpt lat="52.637046813964844" lon="13.213879585266113">
<ele>76.4000015258789</ele>
<time>2014-02-16T14:20:33Z</time>
</trkpt>
<trkpt lat="52.63699722290039" lon="13.213944435119629">
<ele>76.19999694824219</ele>
<time>2014-02-16T14:20:35Z</time>
</trkpt>
<trkpt lat="52.63691711425781" lon="13.213936805725098">
<ele>76.0</ele>
<time>2014-02-16T14:20:37Z</time>
</trkpt>
<trkpt lat="52.63683319091797" lon="13.213916778564453">
<ele>76.30000305175781</ele>
<time>2014-02-16T14:20:39Z</time>
</trkpt>
<trkpt lat="52.636749267578125" lon="13.213865280151367">
<ele>76.19999694824219</ele>
<time>2014-02-16T14:20:41Z</time>
</trkpt>
<trkpt lat="52.63666534423828" lon="13.213822364807129">
<ele>76.0</ele>
<time>2014-02-16T14:20:43Z</time>
</trkpt>
<trkpt lat="52.636619567871094" lon="13.2138090133667">
<ele>76.0</ele>
<time>2014-02-16T14:20:44Z</time>
</trkpt>
<trkpt lat="52.63656997680664" lon="13.213797569274902">
<ele>76.0</ele>
<time>2014-02-16T14:20:45Z</time>
</trkpt>
<trkpt lat="52.63651657104492" lon="13.213787078857422">
<ele>76.30000305175781</ele>
<time>2014-02-16T14:20:46Z</time>
</trkpt>
<trkpt lat="52.6364631652832" lon="13.213781356811523">
<ele>76.0</ele>
<time>2014-02-16T14:20:47Z</time>
</trkpt>
<trkpt lat="52.636409759521484" lon="13.21377182006836">
<ele>75.5</ele>
<time>2014-02-16T14:20:48Z</time>
</trkpt>
<trkpt lat="52.636356353759766" lon="13.213761329650879">
<ele>75.5</ele>
<time>2014-02-16T14:20:49Z</time>
</trkpt>
<trkpt lat="52.63629913330078" lon="13.213752746582031">
<ele>75.5</ele>
<time>2014-02-16T14:20:50Z</time>
</trkpt>
<trkpt lat="52.63624572753906" lon="13.213743209838867">
<ele>75.0999984741211</ele>
<time>2014-02-16T14:20:51Z</time>
</trkpt>
<trkpt lat="52.63618850708008" lon="13.213732719421387">
<ele>74.9000015258789</ele>
<time>2014-02-16T14:20:52Z</time>
</trkpt>
<trkpt lat="52.636131286621094" lon="13.213719367980957">
<ele>74.5</ele>
<time>2014-02-16T14:20:53Z</time>
</trkpt>
<trkpt lat="52.636070251464844" lon="13.21371078491211">
<ele>74.30000305175781</ele>
<time>2014-02-16T14:20:54Z</time>
</trkpt>
<trkpt lat="52.63601303100586" lon="13.213706016540527">
<ele>74.19999694824219</ele>
<time>2014-02-16T14:20:55Z</time>
</trkpt>
<trkpt lat="52.635955810546875" lon="13.213698387145996">
<ele>74.30000305175781</ele>
<time>2014-02-16T14:20:56Z</time>
</trkpt>
<trkpt lat="52.63589859008789" lon="13.213691711425781">
<ele>74.0999984741211</ele>
<time>2014-02-16T14:20:57Z</time>
</trkpt>
<trkpt lat="52.635841369628906" lon="13.213683128356934">
<ele>74.0</ele>
<time>2014-02-16T14:20:58Z</time>
</trkpt>
<trkpt lat="52.63578796386719" lon="13.213671684265137">
<ele>74.19999694824219</ele>
<time>2014-02-16T14:20:59Z</time>
</trkpt>
<trkpt lat="52.6357307434082" lon="13.213661193847656">
<ele>73.80000305175781</ele>
<time>2014-02-16T14:21:00Z</time>
</trkpt>
<trkpt lat="52.635677337646484" lon="13.213656425476074">
<ele>73.5</ele>
<time>2014-02-16T14:21:01Z</time>
</trkpt>
<trkpt lat="52.635623931884766" lon="13.21364688873291">
<ele>73.30000305175781</ele>
<time>2014-02-16T14:21:02Z</time>
</trkpt>
<trkpt lat="52.63557052612305" lon="13.213643074035645">
<ele>73.19999694824219</ele>
<time>2014-02-16T14:21:03Z</time>
</trkpt>
<trkpt lat="52.63551712036133" lon="13.21363639831543">
<ele>73.19999694824219</ele>
<time>2014-02-16T14:21:04Z</time>
</trkpt>
<trkpt lat="52.63546371459961" lon="13.213629722595215">
<ele>73.0999984741211</ele>
<time>2014-02-16T14:21:05Z</time>
</trkpt>
<trkpt lat="52.63541030883789" lon="13.213616371154785">
<ele>73.0</ele>
<time>2014-02-16T14:21:06Z</time>
</trkpt>
<trkpt lat="52.63535690307617" lon="13.213602066040039">
<ele>73.0</ele>
<time>2014-02-16T14:21:07Z</time>
</trkpt>
<trkpt lat="52.63530731201172" lon="13.213582038879395">
<ele>73.19999694824219</ele>
<time>2014-02-16T14:21:08Z</time>
</trkpt>
<trkpt lat="52.635257720947266" lon="13.213553428649902">
<ele>73.0999984741211</ele>
<time>2014-02-16T14:21:09Z</time>
</trkpt>
<trkpt lat="52.63520812988281" lon="13.213519096374512">
<ele>73.5999984741211</ele>
<time>2014-02-16T14:21:10Z</time>
</trkpt>
<trkpt lat="52.63515853881836" lon="13.213481903076172">
<ele>73.80000305175781</ele>
<time>2014-02-16T14:21:11Z</time>
</trkpt>
<trkpt lat="52.63511657714844" lon="13.2134428024292">
<ele>73.9000015258789</ele>
<time>2014-02-16T14:21:12Z</time>
</trkpt>
<trkpt lat="52.63507080078125" lon="13.213395118713379">
<ele>74.30000305175781</ele>
<time>2014-02-16T14:21:13Z</time>
</trkpt>
<trkpt lat="52.63502502441406" lon="13.21334171295166">
<ele>74.19999694824219</ele>
<time>2014-02-16T14:21:14Z</time>
</trkpt>
<trkpt lat="52.63498306274414" lon="13.213287353515625">
<ele>74.0999984741211</ele>
<time>2014-02-16T14:21:15Z</time>
</trkpt>
<trkpt lat="52.63494873046875" lon="13.213218688964844">
<ele>74.0</ele>
<time>2014-02-16T14:21:16Z</time>
</trkpt>
<trkpt lat="52.63491439819336" lon="13.213155746459961">
<ele>73.9000015258789</ele>
<time>2014-02-16T14:21:17Z</time>
</trkpt>
<trkpt lat="52.634883880615234" lon="13.213094711303711">
<ele>74.0</ele>
<time>2014-02-16T14:21:18Z</time>
</trkpt>
<trkpt lat="52.63485336303711" lon="13.213031768798828">
<ele>74.0999984741211</ele>
<time>2014-02-16T14:21:19Z</time>
</trkpt>
<trkpt lat="52.634822845458984" lon="13.212970733642578">
<ele>73.69999694824219</ele>
<time>2014-02-16T14:21:20Z</time>
</trkpt>
<trkpt lat="52.63479232788086" lon="13.212906837463379">
<ele>73.0</ele>
<time>2014-02-16T14:21:21Z</time>
</trkpt>
<trkpt lat="52.63478088378906" lon="13.2128324508667">
<ele>73.0</ele>
<time>2014-02-16T14:21:22Z</time>
</trkpt>
<trkpt lat="52.6347541809082" lon="13.212702751159668">
<ele>72.5</ele>
<time>2014-02-16T14:21:24Z</time>
</trkpt>
<trkpt lat="52.634735107421875" lon="13.212565422058105">
<ele>72.4000015258789</ele>
<time>2014-02-16T14:21:26Z</time>
</trkpt>
<trkpt lat="52.63471221923828" lon="13.212488174438477">
<ele>72.5999984741211</ele>
<time>2014-02-16T14:21:27Z</time>
</trkpt>
<trkpt lat="52.63469696044922" lon="13.21235466003418">
<ele>72.80000305175781</ele>
<time>2014-02-16T14:21:29Z</time>
</trkpt>
<trkpt lat="52.634674072265625" lon="13.212231636047363">
<ele>73.0</ele>
<time>2014-02-16T14:21:31Z</time>
</trkpt>
<trkpt lat="52.63465118408203" lon="13.212114334106445">
<ele>71.69999694824219</ele>
<time>2014-02-16T14:21:33Z</time>
</trkpt>
<trkpt lat="52.634639739990234" lon="13.211981773376465">
<ele>70.30000305175781</ele>
<time>2014-02-16T14:21:35Z</time>
</trkpt>
<trkpt lat="52.634666442871094" lon="13.211867332458496">
<ele>69.5999984741211</ele>
<time>2014-02-16T14:21:37Z</time>
</trkpt>
<trkpt lat="52.634578704833984" lon="13.212000846862793">
<ele>70.80000305175781</ele>
<time>2014-02-16T14:21:45Z</time>
</trkpt>
<trkpt lat="52.63450241088867" lon="13.211982727050781">
<ele>67.80000305175781</ele>
<time>2014-02-16T14:21:48Z</time>
</trkpt>
<trkpt lat="52.63441467285156" lon="13.212030410766602">
<ele>67.9000015258789</ele>
<time>2014-02-16T14:21:50Z</time>
</trkpt>
<trkpt lat="52.63428497314453" lon="13.21211051940918">
<ele>67.0</ele>
<time>2014-02-16T14:21:52Z</time>
</trkpt>
<trkpt lat="52.63420104980469" lon="13.212174415588379">
<ele>67.80000305175781</ele>
<time>2014-02-16T14:21:53Z</time>
</trkpt>
<trkpt lat="52.634159088134766" lon="13.212225914001465">
<ele>67.80000305175781</ele>
<time>2014-02-16T14:21:54Z</time>
</trkpt>
<trkpt lat="52.634117126464844" lon="13.212275505065918">
<ele>67.69999694824219</ele>
<time>2014-02-16T14:21:55Z</time>
</trkpt>
<trkpt lat="52.63408279418945" lon="13.212340354919434">
<ele>68.19999694824219</ele>
<time>2014-02-16T14:21:56Z</time>
</trkpt>
<trkpt lat="52.63405990600586" lon="13.212442398071289">
<ele>65.30000305175781</ele>
<time>2014-02-16T14:21:58Z</time>
</trkpt>
<trkpt lat="52.63404083251953" lon="13.212512016296387">
<ele>63.79999923706055</ele>
<time>2014-02-16T14:21:59Z</time>
</trkpt>
<trkpt lat="52.634029388427734" lon="13.212602615356445">
<ele>64.19999694824219</ele>
<time>2014-02-16T14:22:00Z</time>
</trkpt>
<trkpt lat="52.6340217590332" lon="13.212689399719238">
<ele>64.19999694824219</ele>
<time>2014-02-16T14:22:01Z</time>
</trkpt>
<trkpt lat="52.63401412963867" lon="13.212774276733398">
<ele>64.4000015258789</ele>
<time>2014-02-16T14:22:02Z</time>
</trkpt>
<trkpt lat="52.63401794433594" lon="13.212852478027344">
<ele>64.80000305175781</ele>
<time>2014-02-16T14:22:03Z</time>
</trkpt>
<trkpt lat="52.634010314941406" lon="13.212929725646973">
<ele>65.0</ele>
<time>2014-02-16T14:22:04Z</time>
</trkpt>
<trkpt lat="52.63400650024414" lon="13.213016510009766">
<ele>65.30000305175781</ele>
<time>2014-02-16T14:22:05Z</time>
</trkpt>
<trkpt lat="52.63400650024414" lon="13.213090896606445">
<ele>65.0</ele>
<time>2014-02-16T14:22:06Z</time>
</trkpt>
<trkpt lat="52.633995056152344" lon="13.21317195892334">
<ele>65.30000305175781</ele>
<time>2014-02-16T14:22:07Z</time>
</trkpt>
<trkpt lat="52.63397979736328" lon="13.213250160217285">
<ele>65.4000015258789</ele>
<time>2014-02-16T14:22:08Z</time>
</trkpt>
<trkpt lat="52.63394546508789" lon="13.213309288024902">
<ele>65.5999984741211</ele>
<time>2014-02-16T14:22:09Z</time>
</trkpt>
<trkpt lat="52.63390350341797" lon="13.213445663452148">
<ele>67.80000305175781</ele>
<time>2014-02-16T14:22:11Z</time>
</trkpt>
<trkpt lat="52.633880615234375" lon="13.213519096374512">
<ele>68.5999984741211</ele>
<time>2014-02-16T14:22:12Z</time>
</trkpt>
<trkpt lat="52.63385772705078" lon="13.213592529296875">
<ele>69.4000015258789</ele>
<time>2014-02-16T14:22:14Z</time>
</trkpt>
<trkpt lat="52.63383865356445" lon="13.213725090026855">
<ele>70.5999984741211</ele>
<time>2014-02-16T14:22:15Z</time>
</trkpt>
<trkpt lat="52.633811950683594" lon="13.213858604431152">
<ele>71.5</ele>
<time>2014-02-16T14:22:17Z</time>
</trkpt>
<trkpt lat="52.6337890625" lon="13.2139310836792">
<ele>71.0999984741211</ele>
<time>2014-02-16T14:22:18Z</time>
</trkpt>
<trkpt lat="52.63377380371094" lon="13.214004516601562">
<ele>71.30000305175781</ele>
<time>2014-02-16T14:22:19Z</time>
</trkpt>
<trkpt lat="52.63376235961914" lon="13.214079856872559">
<ele>71.5</ele>
<time>2014-02-16T14:22:20Z</time>
</trkpt>
<trkpt lat="52.63373947143555" lon="13.214192390441895">
<ele>72.0</ele>
<time>2014-02-16T14:22:22Z</time>
</trkpt>
<trkpt lat="52.633689880371094" lon="13.21432876586914">
<ele>72.30000305175781</ele>
<time>2014-02-16T14:22:24Z</time>
</trkpt>
<trkpt lat="52.63360595703125" lon="13.214383125305176">
<ele>72.5999984741211</ele>
<time>2014-02-16T14:22:26Z</time>
</trkpt>
<trkpt lat="52.63356399536133" lon="13.214424133300781">
<ele>72.30000305175781</ele>
<time>2014-02-16T14:22:27Z</time>
</trkpt>
<trkpt lat="52.63352966308594" lon="13.2144775390625">
<ele>72.19999694824219</ele>
<time>2014-02-16T14:22:28Z</time>
</trkpt>
<trkpt lat="52.633506774902344" lon="13.214545249938965">
<ele>71.69999694824219</ele>
<time>2014-02-16T14:22:29Z</time>
</trkpt>
<trkpt lat="52.633487701416016" lon="13.214681625366211">
<ele>69.69999694824219</ele>
<time>2014-02-16T14:22:31Z</time>
</trkpt>
<trkpt lat="52.63346481323242" lon="13.21480655670166">
<ele>68.80000305175781</ele>
<time>2014-02-16T14:22:33Z</time>
</trkpt>
<trkpt lat="52.633460998535156" lon="13.214941024780273">
<ele>67.5</ele>
<time>2014-02-16T14:22:35Z</time>
</trkpt>
<trkpt lat="52.63344955444336" lon="13.215089797973633">
<ele>66.69999694824219</ele>
<time>2014-02-16T14:22:37Z</time>
</trkpt>
<trkpt lat="52.63343811035156" lon="13.21518611907959">
<ele>66.5</ele>
<time>2014-02-16T14:22:38Z</time>
</trkpt>
<trkpt lat="52.633384704589844" lon="13.215314865112305">
<ele>67.4000015258789</ele>
<time>2014-02-16T14:22:40Z</time>
</trkpt>
<trkpt lat="52.63336181640625" lon="13.215378761291504">
<ele>67.4000015258789</ele>
<time>2014-02-16T14:22:41Z</time>
</trkpt>
<trkpt lat="52.63334655761719" lon="13.215450286865234">
<ele>67.80000305175781</ele>
<time>2014-02-16T14:22:42Z</time>
</trkpt>
<trkpt lat="52.63332748413086" lon="13.21552562713623">
<ele>67.19999694824219</ele>
<time>2014-02-16T14:22:43Z</time>
</trkpt>
<trkpt lat="52.63330078125" lon="13.215598106384277">
<ele>68.0</ele>
<time>2014-02-16T14:22:44Z</time>
</trkpt>
<trkpt lat="52.633277893066406" lon="13.21567153930664">
<ele>68.30000305175781</ele>
<time>2014-02-16T14:22:45Z</time>
</trkpt>
<trkpt lat="52.63323974609375" lon="13.215725898742676">
<ele>68.4000015258789</ele>
<time>2014-02-16T14:22:46Z</time>
</trkpt>
<trkpt lat="52.633201599121094" lon="13.215778350830078">
<ele>68.69999694824219</ele>
<time>2014-02-16T14:22:47Z</time>
</trkpt>
<trkpt lat="52.63313293457031" lon="13.215795516967773">
<ele>70.19999694824219</ele>
<time>2014-02-16T14:22:49Z</time>
</trkpt>
<trkpt lat="52.63306427001953" lon="13.215805053710938">
<ele>70.80000305175781</ele>
<time>2014-02-16T14:22:52Z</time>
</trkpt>
<trkpt lat="52.63300704956055" lon="13.215729713439941">
<ele>71.80000305175781</ele>
<time>2014-02-16T14:22:53Z</time>
</trkpt>
<trkpt lat="52.63291931152344" lon="13.215673446655273">
<ele>73.19999694824219</ele>
<time>2014-02-16T14:22:56Z</time>
</trkpt>
<trkpt lat="52.632850646972656" lon="13.215665817260742">
<ele>73.19999694824219</ele>
<time>2014-02-16T14:22:58Z</time>
</trkpt>
<trkpt lat="52.63277816772461" lon="13.215662002563477">
<ele>73.80000305175781</ele>
<time>2014-02-16T14:23:00Z</time>
</trkpt>
<trkpt lat="52.632713317871094" lon="13.215685844421387">
<ele>74.30000305175781</ele>
<time>2014-02-16T14:23:02Z</time>
</trkpt>
<trkpt lat="52.63264465332031" lon="13.215700149536133">
<ele>73.9000015258789</ele>
<time>2014-02-16T14:23:04Z</time>
</trkpt>
<trkpt lat="52.632572174072266" lon="13.215713500976562">
<ele>74.4000015258789</ele>
<time>2014-02-16T14:23:06Z</time>
</trkpt>
<trkpt lat="52.63249206542969" lon="13.215726852416992">
<ele>74.5</ele>
<time>2014-02-16T14:23:08Z</time>
</trkpt>
<trkpt lat="52.63241958618164" lon="13.215747833251953">
<ele>74.69999694824219</ele>
<time>2014-02-16T14:23:10Z</time>
</trkpt>
<trkpt lat="52.632347106933594" lon="13.215766906738281">
<ele>74.5999984741211</ele>
<time>2014-02-16T14:23:12Z</time>
</trkpt>
<trkpt lat="52.63227462768555" lon="13.215791702270508">
<ele>74.5999984741211</ele>
<time>2014-02-16T14:23:14Z</time>
</trkpt>
<trkpt lat="52.632198333740234" lon="13.215813636779785">
<ele>74.30000305175781</ele>
<time>2014-02-16T14:23:16Z</time>
</trkpt>
<trkpt lat="52.632110595703125" lon="13.215835571289062">
<ele>73.5999984741211</ele>
<time>2014-02-16T14:23:18Z</time>
</trkpt>
<trkpt lat="52.63206481933594" lon="13.215850830078125">
<ele>73.5</ele>
<time>2014-02-16T14:23:19Z</time>
</trkpt>
<trkpt lat="52.63201904296875" lon="13.215867042541504">
<ele>73.9000015258789</ele>
<time>2014-02-16T14:23:20Z</time>
</trkpt>
<trkpt lat="52.63193130493164" lon="13.215880393981934">
<ele>73.5</ele>
<time>2014-02-16T14:23:22Z</time>
</trkpt>
<trkpt lat="52.6318473815918" lon="13.215899467468262">
<ele>72.80000305175781</ele>
<time>2014-02-16T14:23:24Z</time>
</trkpt>
<trkpt lat="52.631752014160156" lon="13.215922355651855">
<ele>72.5</ele>
<time>2014-02-16T14:23:26Z</time>
</trkpt>
<trkpt lat="52.63166427612305" lon="13.215940475463867">
<ele>72.19999694824219</ele>
<time>2014-02-16T14:23:28Z</time>
</trkpt>
<trkpt lat="52.63161849975586" lon="13.215950965881348">
<ele>72.4000015258789</ele>
<time>2014-02-16T14:23:29Z</time>
</trkpt>
<trkpt lat="52.63157272338867" lon="13.215958595275879">
<ele>72.5999984741211</ele>
<time>2014-02-16T14:23:30Z</time>
</trkpt>
<trkpt lat="52.631526947021484" lon="13.21596622467041">
<ele>72.9000015258789</ele>
<time>2014-02-16T14:23:31Z</time>
</trkpt>
<trkpt lat="52.6314811706543" lon="13.215971946716309">
<ele>72.9000015258789</ele>
<time>2014-02-16T14:23:32Z</time>
</trkpt>
<trkpt lat="52.631431579589844" lon="13.215980529785156">
<ele>72.9000015258789</ele>
<time>2014-02-16T14:23:33Z</time>
</trkpt>
<trkpt lat="52.631343841552734" lon="13.215999603271484">
<ele>72.5999984741211</ele>
<time>2014-02-16T14:23:35Z</time>
</trkpt>
<trkpt lat="52.63130187988281" lon="13.216011047363281">
<ele>72.5</ele>
<time>2014-02-16T14:23:36Z</time>
</trkpt>
<trkpt lat="52.631256103515625" lon="13.216031074523926">
<ele>72.80000305175781</ele>
<time>2014-02-16T14:23:37Z</time>
</trkpt>
<trkpt lat="52.63120651245117" lon="13.216053009033203">
<ele>72.80000305175781</ele>
<time>2014-02-16T14:23:38Z</time>
</trkpt>
<trkpt lat="52.631126403808594" lon="13.216096878051758">
<ele>72.30000305175781</ele>
<time>2014-02-16T14:23:40Z</time>
</trkpt>
<trkpt lat="52.63107681274414" lon="13.216106414794922">
<ele>72.19999694824219</ele>
<time>2014-02-16T14:23:41Z</time>
</trkpt>
<trkpt lat="52.63103103637695" lon="13.21611213684082">
<ele>72.0999984741211</ele>
<time>2014-02-16T14:23:42Z</time>
</trkpt>
<trkpt lat="52.6309814453125" lon="13.216121673583984">
<ele>72.5</ele>
<time>2014-02-16T14:23:43Z</time>
</trkpt>
<trkpt lat="52.63093566894531" lon="13.21613883972168">
<ele>72.5999984741211</ele>
<time>2014-02-16T14:23:44Z</time>
</trkpt>
<trkpt lat="52.63088607788086" lon="13.216160774230957">
<ele>72.4000015258789</ele>
<time>2014-02-16T14:23:45Z</time>
</trkpt>
<trkpt lat="52.630802154541016" lon="13.21619987487793">
<ele>72.5999984741211</ele>
<time>2014-02-16T14:23:47Z</time>
</trkpt>
<trkpt lat="52.63075637817383" lon="13.216228485107422">
<ele>72.5999984741211</ele>
<time>2014-02-16T14:23:48Z</time>
</trkpt>
<trkpt lat="52.63069534301758" lon="13.216233253479004">
<ele>72.5</ele>
<time>2014-02-16T14:23:49Z</time>
</trkpt>
<trkpt lat="52.63064193725586" lon="13.216232299804688">
<ele>72.0999984741211</ele>
<time>2014-02-16T14:23:50Z</time>
</trkpt>
<trkpt lat="52.63058853149414" lon="13.216219902038574">
<ele>72.0999984741211</ele>
<time>2014-02-16T14:23:51Z</time>
</trkpt>
<trkpt lat="52.63054275512695" lon="13.21615219116211">
<ele>72.30000305175781</ele>
<time>2014-02-16T14:23:52Z</time>
</trkpt>
<trkpt lat="52.6305046081543" lon="13.216089248657227">
<ele>72.80000305175781</ele>
<time>2014-02-16T14:23:53Z</time>
</trkpt>
<trkpt lat="52.63045883178711" lon="13.215970039367676">
<ele>73.4000015258789</ele>
<time>2014-02-16T14:23:55Z</time>
</trkpt>
<trkpt lat="52.63042068481445" lon="13.215851783752441">
<ele>73.69999694824219</ele>
<time>2014-02-16T14:23:57Z</time>
</trkpt>
<trkpt lat="52.63041305541992" lon="13.215728759765625">
<ele>73.5</ele>
<time>2014-02-16T14:23:59Z</time>
</trkpt>
<trkpt lat="52.63039779663086" lon="13.215607643127441">
<ele>73.80000305175781</ele>
<time>2014-02-16T14:24:01Z</time>
</trkpt>
<trkpt lat="52.63038635253906" lon="13.215476989746094">
<ele>74.19999694824219</ele>
<time>2014-02-16T14:24:03Z</time>
</trkpt>
<trkpt lat="52.630367279052734" lon="13.21533489227295">
<ele>73.9000015258789</ele>
<time>2014-02-16T14:24:05Z</time>
</trkpt>
<trkpt lat="52.6303596496582" lon="13.21526050567627">
<ele>74.0</ele>
<time>2014-02-16T14:24:06Z</time>
</trkpt>
<trkpt lat="52.63036346435547" lon="13.215185165405273">
<ele>74.19999694824219</ele>
<time>2014-02-16T14:24:07Z</time>
</trkpt>
<trkpt lat="52.63039779663086" lon="13.21505069732666">
<ele>73.5999984741211</ele>
<time>2014-02-16T14:24:09Z</time>
</trkpt>
<trkpt lat="52.63045120239258" lon="13.214935302734375">
<ele>73.4000015258789</ele>
<time>2014-02-16T14:24:11Z</time>
</trkpt>
<trkpt lat="52.630516052246094" lon="13.214838981628418">
<ele>74.0999984741211</ele>
<time>2014-02-16T14:24:13Z</time>
</trkpt>
<trkpt lat="52.630577087402344" lon="13.214741706848145">
<ele>73.9000015258789</ele>
<time>2014-02-16T14:24:15Z</time>
</trkpt>
<trkpt lat="52.630645751953125" lon="13.214651107788086">
<ele>74.0</ele>
<time>2014-02-16T14:24:17Z</time>
</trkpt>
<trkpt lat="52.630714416503906" lon="13.214570045471191">
<ele>74.0</ele>
<time>2014-02-16T14:24:19Z</time>
</trkpt>
<trkpt lat="52.63078689575195" lon="13.214489936828613">
<ele>73.5999984741211</ele>
<time>2014-02-16T14:24:21Z</time>
</trkpt>
<trkpt lat="52.630863189697266" lon="13.214437484741211">
<ele>73.30000305175781</ele>
<time>2014-02-16T14:24:23Z</time>
</trkpt>
<trkpt lat="52.630943298339844" lon="13.214398384094238">
<ele>73.19999694824219</ele>
<time>2014-02-16T14:24:25Z</time>
</trkpt>
<trkpt lat="52.63102722167969" lon="13.214372634887695">
<ele>73.19999694824219</ele>
<time>2014-02-16T14:24:27Z</time>
</trkpt>
<trkpt lat="52.631107330322266" lon="13.214336395263672">
<ele>73.30000305175781</ele>
<time>2014-02-16T14:24:29Z</time>
</trkpt>
<trkpt lat="52.631134033203125" lon="13.21424388885498">
<ele>73.80000305175781</ele>
<time>2014-02-16T14:24:31Z</time>
</trkpt>
<trkpt lat="52.63105773925781" lon="13.21411418914795">
<ele>73.19999694824219</ele>
<time>2014-02-16T14:24:33Z</time>
</trkpt>
<trkpt lat="52.63103485107422" lon="13.214042663574219">
<ele>72.9000015258789</ele>
<time>2014-02-16T14:24:34Z</time>
</trkpt>
<trkpt lat="52.631004333496094" lon="13.213892936706543">
<ele>72.69999694824219</ele>
<time>2014-02-16T14:24:36Z</time>
</trkpt>
<trkpt lat="52.63097381591797" lon="13.213809967041016">
<ele>72.19999694824219</ele>
<time>2014-02-16T14:24:37Z</time>
</trkpt>
<trkpt lat="52.63093566894531" lon="13.2137451171875">
<ele>71.9000015258789</ele>
<time>2014-02-16T14:24:38Z</time>
</trkpt>
<trkpt lat="52.630889892578125" lon="13.213689804077148">
<ele>71.5999984741211</ele>
<time>2014-02-16T14:24:39Z</time>
</trkpt>
<trkpt lat="52.630836486816406" lon="13.213699340820312">
<ele>71.5</ele>
<time>2014-02-16T14:24:40Z</time>
</trkpt>
<trkpt lat="52.63078308105469" lon="13.21371078491211">
<ele>71.9000015258789</ele>
<time>2014-02-16T14:24:41Z</time>
</trkpt>
<trkpt lat="52.630733489990234" lon="13.213720321655273">
<ele>72.19999694824219</ele>
<time>2014-02-16T14:24:42Z</time>
</trkpt>
<trkpt lat="52.63068771362305" lon="13.213726043701172">
<ele>72.0999984741211</ele>
<time>2014-02-16T14:24:43Z</time>
</trkpt>
<trkpt lat="52.63063430786133" lon="13.21373176574707">
<ele>71.80000305175781</ele>
<time>2014-02-16T14:24:44Z</time>
</trkpt>
<trkpt lat="52.630584716796875" lon="13.213737487792969">
<ele>71.69999694824219</ele>
<time>2014-02-16T14:24:45Z</time>
</trkpt>
<trkpt lat="52.63053512573242" lon="13.21374225616455">
<ele>71.9000015258789</ele>
<time>2014-02-16T14:24:46Z</time>
</trkpt>
<trkpt lat="52.63048553466797" lon="13.21374225616455">
<ele>72.0</ele>
<time>2014-02-16T14:24:47Z</time>
</trkpt>
<trkpt lat="52.630428314208984" lon="13.213741302490234">
<ele>72.0</ele>
<time>2014-02-16T14:24:48Z</time>
</trkpt>
<trkpt lat="52.63037872314453" lon="13.213748931884766">
<ele>72.0</ele>
<time>2014-02-16T14:24:49Z</time>
</trkpt>
<trkpt lat="52.630332946777344" lon="13.21375846862793">
<ele>71.5999984741211</ele>
<time>2014-02-16T14:24:50Z</time>
</trkpt>
<trkpt lat="52.63028335571289" lon="13.21376895904541">
<ele>71.19999694824219</ele>
<time>2014-02-16T14:24:51Z</time>
</trkpt>
<trkpt lat="52.63023376464844" lon="13.213774681091309">
<ele>71.4000015258789</ele>
<time>2014-02-16T14:24:52Z</time>
</trkpt>
<trkpt lat="52.63018798828125" lon="13.213778495788574">
<ele>71.5999984741211</ele>
<time>2014-02-16T14:24:53Z</time>
</trkpt>
<trkpt lat="52.63013458251953" lon="13.213788986206055">
<ele>71.4000015258789</ele>
<time>2014-02-16T14:24:54Z</time>
</trkpt>
<trkpt lat="52.63008499145508" lon="13.213790893554688">
<ele>71.80000305175781</ele>
<time>2014-02-16T14:24:55Z</time>
</trkpt>
<trkpt lat="52.630035400390625" lon="13.213800430297852">
<ele>71.9000015258789</ele>
<time>2014-02-16T14:24:56Z</time>
</trkpt>
<trkpt lat="52.62998962402344" lon="13.213835716247559">
<ele>72.4000015258789</ele>
<time>2014-02-16T14:24:57Z</time>
</trkpt>
<trkpt lat="52.62995147705078" lon="13.213882446289062">
<ele>72.19999694824219</ele>
<time>2014-02-16T14:24:58Z</time>
</trkpt>
<trkpt lat="52.62992858886719" lon="13.21396255493164">
<ele>71.69999694824219</ele>
<time>2014-02-16T14:24:59Z</time>
</trkpt>
<trkpt lat="52.62990188598633" lon="13.214040756225586">
<ele>71.5</ele>
<time>2014-02-16T14:25:00Z</time>
</trkpt>
<trkpt lat="52.629878997802734" lon="13.214109420776367">
<ele>71.5</ele>
<time>2014-02-16T14:25:01Z</time>
</trkpt>
<trkpt lat="52.629859924316406" lon="13.21418571472168">
<ele>71.80000305175781</ele>
<time>2014-02-16T14:25:02Z</time>
</trkpt>
<trkpt lat="52.62982940673828" lon="13.214251518249512">
<ele>72.0999984741211</ele>
<time>2014-02-16T14:25:03Z</time>
</trkpt>
<trkpt lat="52.62980651855469" lon="13.214314460754395">
<ele>72.30000305175781</ele>
<time>2014-02-16T14:25:04Z</time>
</trkpt>
<trkpt lat="52.62977600097656" lon="13.214383125305176">
<ele>72.5</ele>
<time>2014-02-16T14:25:05Z</time>
</trkpt>
<trkpt lat="52.62974548339844" lon="13.21445369720459">
<ele>72.80000305175781</ele>
<time>2014-02-16T14:25:06Z</time>
</trkpt>
<trkpt lat="52.629722595214844" lon="13.214517593383789">
<ele>73.0999984741211</ele>
<time>2014-02-16T14:25:07Z</time>
</trkpt>
<trkpt lat="52.62969970703125" lon="13.214583396911621">
<ele>73.4000015258789</ele>
<time>2014-02-16T14:25:08Z</time>
</trkpt>
<trkpt lat="52.629676818847656" lon="13.214654922485352">
<ele>73.5</ele>
<time>2014-02-16T14:25:09Z</time>
</trkpt>
<trkpt lat="52.6296501159668" lon="13.214726448059082">
<ele>73.69999694824219</ele>
<time>2014-02-16T14:25:10Z</time>
</trkpt>
<trkpt lat="52.6296272277832" lon="13.214805603027344">
<ele>73.30000305175781</ele>
<time>2014-02-16T14:25:11Z</time>
</trkpt>
<trkpt lat="52.62959671020508" lon="13.214877128601074">
<ele>72.80000305175781</ele>
<time>2014-02-16T14:25:12Z</time>
</trkpt>
<trkpt lat="52.62957000732422" lon="13.214947700500488">
<ele>72.9000015258789</ele>
<time>2014-02-16T14:25:13Z</time>
</trkpt>
<trkpt lat="52.62954330444336" lon="13.21501636505127">
<ele>72.80000305175781</ele>
<time>2014-02-16T14:25:14Z</time>
</trkpt>
<trkpt lat="52.6295166015625" lon="13.215083122253418">
<ele>72.9000015258789</ele>
<time>2014-02-16T14:25:15Z</time>
</trkpt>
<trkpt lat="52.629486083984375" lon="13.215147018432617">
<ele>73.30000305175781</ele>
<time>2014-02-16T14:25:16Z</time>
</trkpt>
<trkpt lat="52.629459381103516" lon="13.215213775634766">
<ele>73.19999694824219</ele>
<time>2014-02-16T14:25:17Z</time>
</trkpt>
<trkpt lat="52.629432678222656" lon="13.21528148651123">
<ele>73.19999694824219</ele>
<time>2014-02-16T14:25:18Z</time>
</trkpt>
<trkpt lat="52.6294059753418" lon="13.215354919433594">
<ele>72.9000015258789</ele>
<time>2014-02-16T14:25:19Z</time>
</trkpt>
<trkpt lat="52.62937545776367" lon="13.21543025970459">
<ele>72.80000305175781</ele>
<time>2014-02-16T14:25:20Z</time>
</trkpt>
<trkpt lat="52.62934112548828" lon="13.21550464630127">
<ele>73.19999694824219</ele>
<time>2014-02-16T14:25:21Z</time>
</trkpt>
<trkpt lat="52.629310607910156" lon="13.215580940246582">
<ele>73.0999984741211</ele>
<time>2014-02-16T14:25:22Z</time>
</trkpt>
<trkpt lat="52.62928009033203" lon="13.215670585632324">
<ele>73.19999694824219</ele>
<time>2014-02-16T14:25:23Z</time>
</trkpt>
<trkpt lat="52.629241943359375" lon="13.215760231018066">
<ele>73.0999984741211</ele>
<time>2014-02-16T14:25:24Z</time>
</trkpt>
<trkpt lat="52.62921905517578" lon="13.21584415435791">
<ele>72.80000305175781</ele>
<time>2014-02-16T14:25:25Z</time>
</trkpt>
<trkpt lat="52.62919616699219" lon="13.215912818908691">
<ele>72.80000305175781</ele>
<time>2014-02-16T14:25:26Z</time>
</trkpt>
<trkpt lat="52.6291618347168" lon="13.215984344482422">
<ele>71.80000305175781</ele>
<time>2014-02-16T14:25:27Z</time>
</trkpt>
<trkpt lat="52.629127502441406" lon="13.216064453125">
<ele>71.4000015258789</ele>
<time>2014-02-16T14:25:28Z</time>
</trkpt>
<trkpt lat="52.62909698486328" lon="13.216141700744629">
<ele>71.69999694824219</ele>
<time>2014-02-16T14:25:29Z</time>
</trkpt>
<trkpt lat="52.62906265258789" lon="13.216231346130371">
<ele>71.69999694824219</ele>
<time>2014-02-16T14:25:30Z</time>
</trkpt>
<trkpt lat="52.629032135009766" lon="13.216307640075684">
<ele>71.5</ele>
<time>2014-02-16T14:25:31Z</time>
</trkpt>
<trkpt lat="52.62894058227539" lon="13.216334342956543">
<ele>71.4000015258789</ele>
<time>2014-02-16T14:25:33Z</time>
</trkpt>
<trkpt lat="52.62887954711914" lon="13.21631908416748">
<ele>71.30000305175781</ele>
<time>2014-02-16T14:25:34Z</time>
</trkpt>
<trkpt lat="52.62882614135742" lon="13.216309547424316">
<ele>70.80000305175781</ele>
<time>2014-02-16T14:25:35Z</time>
</trkpt>
<trkpt lat="52.62876892089844" lon="13.216310501098633">
<ele>71.0</ele>
<time>2014-02-16T14:25:36Z</time>
</trkpt>
<trkpt lat="52.62871551513672" lon="13.216303825378418">
<ele>71.0</ele>
<time>2014-02-16T14:25:37Z</time>
</trkpt>
<trkpt lat="52.628658294677734" lon="13.216299057006836">
<ele>71.19999694824219</ele>
<time>2014-02-16T14:25:38Z</time>
</trkpt>
<trkpt lat="52.628604888916016" lon="13.216292381286621">
<ele>71.19999694824219</ele>
<time>2014-02-16T14:25:39Z</time>
</trkpt>
<trkpt lat="52.628543853759766" lon="13.216288566589355">
<ele>71.4000015258789</ele>
<time>2014-02-16T14:25:40Z</time>
</trkpt>
<trkpt lat="52.62849044799805" lon="13.216289520263672">
<ele>71.69999694824219</ele>
<time>2014-02-16T14:25:41Z</time>
</trkpt>
<trkpt lat="52.628440856933594" lon="13.21628189086914">
<ele>71.80000305175781</ele>
<time>2014-02-16T14:25:42Z</time>
</trkpt>
<trkpt lat="52.628395080566406" lon="13.21628475189209">
<ele>71.69999694824219</ele>
<time>2014-02-16T14:25:43Z</time>
</trkpt>
<trkpt lat="52.62834548950195" lon="13.216265678405762">
<ele>71.4000015258789</ele>
<time>2014-02-16T14:25:44Z</time>
</trkpt>
<trkpt lat="52.6282958984375" lon="13.21627140045166">
<ele>72.19999694824219</ele>
<time>2014-02-16T14:25:45Z</time>
</trkpt>
<trkpt lat="52.62824249267578" lon="13.216267585754395">
<ele>72.19999694824219</ele>
<time>2014-02-16T14:25:46Z</time>
</trkpt>
<trkpt lat="52.6281852722168" lon="13.216263771057129">
<ele>72.30000305175781</ele>
<time>2014-02-16T14:25:47Z</time>
</trkpt>
<trkpt lat="52.628135681152344" lon="13.216261863708496">
<ele>72.80000305175781</ele>
<time>2014-02-16T14:25:48Z</time>
</trkpt>
<trkpt lat="52.628082275390625" lon="13.21625804901123">
<ele>73.0999984741211</ele>
<time>2014-02-16T14:25:49Z</time>
</trkpt>
<trkpt lat="52.62803649902344" lon="13.21624755859375">
<ele>73.0999984741211</ele>
<time>2014-02-16T14:25:50Z</time>
</trkpt>
<trkpt lat="52.62794876098633" lon="13.216231346130371">
<ele>73.19999694824219</ele>
<time>2014-02-16T14:25:52Z</time>
</trkpt>
<trkpt lat="52.627899169921875" lon="13.216208457946777">
<ele>72.80000305175781</ele>
<time>2014-02-16T14:25:53Z</time>
</trkpt>
<trkpt lat="52.627838134765625" lon="13.216196060180664">
<ele>73.0</ele>
<time>2014-02-16T14:25:54Z</time>
</trkpt>
<trkpt lat="52.627784729003906" lon="13.216184616088867">
<ele>73.69999694824219</ele>
<time>2014-02-16T14:25:55Z</time>
</trkpt>
<trkpt lat="52.62773895263672" lon="13.216165542602539">
<ele>73.4000015258789</ele>
<time>2014-02-16T14:25:56Z</time>
</trkpt>
<trkpt lat="52.627655029296875" lon="13.216144561767578">
<ele>72.0999984741211</ele>
<time>2014-02-16T14:25:58Z</time>
</trkpt>
<trkpt lat="52.62759017944336" lon="13.216132164001465">
<ele>72.19999694824219</ele>
<time>2014-02-16T14:25:59Z</time>
</trkpt>
<trkpt lat="52.62753677368164" lon="13.216130256652832">
<ele>70.5999984741211</ele>
<time>2014-02-16T14:26:00Z</time>
</trkpt>
<trkpt lat="52.62749099731445" lon="13.216126441955566">
<ele>70.19999694824219</ele>
<time>2014-02-16T14:26:01Z</time>
</trkpt>
<trkpt lat="52.6274299621582" lon="13.216095924377441">
<ele>70.4000015258789</ele>
<time>2014-02-16T14:26:02Z</time>
</trkpt>
<trkpt lat="52.62737274169922" lon="13.216090202331543">
<ele>71.19999694824219</ele>
<time>2014-02-16T14:26:03Z</time>
</trkpt>
<trkpt lat="52.627315521240234" lon="13.216069221496582">
<ele>71.0999984741211</ele>
<time>2014-02-16T14:26:04Z</time>
</trkpt>
<trkpt lat="52.62727355957031" lon="13.216041564941406">
<ele>70.5</ele>
<time>2014-02-16T14:26:05Z</time>
</trkpt>
<trkpt lat="52.627220153808594" lon="13.21601390838623">
<ele>70.69999694824219</ele>
<time>2014-02-16T14:26:06Z</time>
</trkpt>
<trkpt lat="52.627166748046875" lon="13.215985298156738">
<ele>71.0999984741211</ele>
<time>2014-02-16T14:26:07Z</time>
</trkpt>
<trkpt lat="52.62711715698242" lon="13.215964317321777">
<ele>71.0</ele>
<time>2014-02-16T14:26:08Z</time>
</trkpt>
<trkpt lat="52.62706756591797" lon="13.215940475463867">
<ele>71.19999694824219</ele>
<time>2014-02-16T14:26:09Z</time>
</trkpt>
<trkpt lat="52.627010345458984" lon="13.215923309326172">
<ele>70.80000305175781</ele>
<time>2014-02-16T14:26:10Z</time>
</trkpt>
<trkpt lat="52.62696075439453" lon="13.215890884399414">
<ele>70.69999694824219</ele>
<time>2014-02-16T14:26:11Z</time>
</trkpt>
<trkpt lat="52.62690353393555" lon="13.215865135192871">
<ele>70.19999694824219</ele>
<time>2014-02-16T14:26:12Z</time>
</trkpt>
<trkpt lat="52.62685012817383" lon="13.215843200683594">
<ele>70.4000015258789</ele>
<time>2014-02-16T14:26:13Z</time>
</trkpt>
<trkpt lat="52.626800537109375" lon="13.21582317352295">
<ele>71.4000015258789</ele>
<time>2014-02-16T14:26:14Z</time>
</trkpt>
<trkpt lat="52.626747131347656" lon="13.21580982208252">
<ele>72.30000305175781</ele>
<time>2014-02-16T14:26:15Z</time>
</trkpt>
<trkpt lat="52.6266975402832" lon="13.215777397155762">
<ele>73.0</ele>
<time>2014-02-16T14:26:16Z</time>
</trkpt>
<trkpt lat="52.626651763916016" lon="13.215761184692383">
<ele>73.5</ele>
<time>2014-02-16T14:26:17Z</time>
</trkpt>
<trkpt lat="52.62660598754883" lon="13.215741157531738">
<ele>73.5999984741211</ele>
<time>2014-02-16T14:26:18Z</time>
</trkpt>
<trkpt lat="52.626556396484375" lon="13.215723991394043">
<ele>73.5999984741211</ele>
<time>2014-02-16T14:26:19Z</time>
</trkpt>
<trkpt lat="52.6264762878418" lon="13.215689659118652">
<ele>72.5999984741211</ele>
<time>2014-02-16T14:26:21Z</time>
</trkpt>
<trkpt lat="52.626399993896484" lon="13.215651512145996">
<ele>71.69999694824219</ele>
<time>2014-02-16T14:26:23Z</time>
</trkpt>
<trkpt lat="52.62630844116211" lon="13.215619087219238">
<ele>71.5999984741211</ele>
<time>2014-02-16T14:26:25Z</time>
</trkpt>
<trkpt lat="52.626258850097656" lon="13.21558952331543">
<ele>72.19999694824219</ele>
<time>2014-02-16T14:26:26Z</time>
</trkpt>
<trkpt lat="52.62621307373047" lon="13.215564727783203">
<ele>71.9000015258789</ele>
<time>2014-02-16T14:26:27Z</time>
</trkpt>
<trkpt lat="52.62616729736328" lon="13.215548515319824">
<ele>71.4000015258789</ele>
<time>2014-02-16T14:26:28Z</time>
</trkpt>
<trkpt lat="52.62608337402344" lon="13.215510368347168">
<ele>70.80000305175781</ele>
<time>2014-02-16T14:26:30Z</time>
</trkpt>
<trkpt lat="52.62603759765625" lon="13.215494155883789">
<ele>70.0999984741211</ele>
<time>2014-02-16T14:26:31Z</time>
</trkpt>
<trkpt lat="52.62595748901367" lon="13.215448379516602">
<ele>70.0999984741211</ele>
<time>2014-02-16T14:26:33Z</time>
</trkpt>
<trkpt lat="52.62588119506836" lon="13.215428352355957">
<ele>70.9000015258789</ele>
<time>2014-02-16T14:26:35Z</time>
</trkpt>
<trkpt lat="52.62579345703125" lon="13.215398788452148">
<ele>71.19999694824219</ele>
<time>2014-02-16T14:26:37Z</time>
</trkpt>
<trkpt lat="52.62575149536133" lon="13.215376853942871">
<ele>71.5999984741211</ele>
<time>2014-02-16T14:26:38Z</time>
</trkpt>
<trkpt lat="52.625667572021484" lon="13.21535587310791">
<ele>71.5</ele>
<time>2014-02-16T14:26:40Z</time>
</trkpt>
<trkpt lat="52.625587463378906" lon="13.21532154083252">
<ele>72.0</ele>
<time>2014-02-16T14:26:42Z</time>
</trkpt>
<trkpt lat="52.62550354003906" lon="13.21528148651123">
<ele>71.4000015258789</ele>
<time>2014-02-16T14:26:44Z</time>
</trkpt>
<trkpt lat="52.625457763671875" lon="13.215262413024902">
<ele>71.30000305175781</ele>
<time>2014-02-16T14:26:45Z</time>
</trkpt>
<trkpt lat="52.62538146972656" lon="13.215231895446777">
<ele>70.9000015258789</ele>
<time>2014-02-16T14:26:47Z</time>
</trkpt>
<trkpt lat="52.62530517578125" lon="13.21519660949707">
<ele>70.80000305175781</ele>
<time>2014-02-16T14:26:49Z</time>
</trkpt>
<trkpt lat="52.62525939941406" lon="13.215180397033691">
<ele>70.69999694824219</ele>
<time>2014-02-16T14:26:50Z</time>
</trkpt>
<trkpt lat="52.62521743774414" lon="13.215153694152832">
<ele>70.4000015258789</ele>
<time>2014-02-16T14:26:51Z</time>
</trkpt>
<trkpt lat="52.62514114379883" lon="13.21511459350586">
<ele>70.69999694824219</ele>
<time>2014-02-16T14:26:53Z</time>
</trkpt>
<trkpt lat="52.62505340576172" lon="13.215091705322266">
<ele>71.30000305175781</ele>
<time>2014-02-16T14:26:55Z</time>
</trkpt>
<trkpt lat="52.6249885559082" lon="13.215052604675293">
<ele>71.0999984741211</ele>
<time>2014-02-16T14:26:57Z</time>
</trkpt>
<trkpt lat="52.62491989135742" lon="13.215023040771484">
<ele>71.0</ele>
<time>2014-02-16T14:26:59Z</time>
</trkpt>
<trkpt lat="52.62483596801758" lon="13.214982986450195">
<ele>70.9000015258789</ele>
<time>2014-02-16T14:27:01Z</time>
</trkpt>
<trkpt lat="52.62479019165039" lon="13.214967727661133">
<ele>70.5</ele>
<time>2014-02-16T14:27:02Z</time>
</trkpt>
<trkpt lat="52.62474822998047" lon="13.214937210083008">
<ele>70.5</ele>
<time>2014-02-16T14:27:03Z</time>
</trkpt>
<trkpt lat="52.624698638916016" lon="13.214913368225098">
<ele>70.19999694824219</ele>
<time>2014-02-16T14:27:04Z</time>
</trkpt>
<trkpt lat="52.62464904785156" lon="13.2149019241333">
<ele>71.0</ele>
<time>2014-02-16T14:27:05Z</time>
</trkpt>
<trkpt lat="52.62456130981445" lon="13.21487808227539">
<ele>71.19999694824219</ele>
<time>2014-02-16T14:27:07Z</time>
</trkpt>
<trkpt lat="52.62451171875" lon="13.214866638183594">
<ele>70.9000015258789</ele>
<time>2014-02-16T14:27:08Z</time>
</trkpt>
<trkpt lat="52.62444305419922" lon="13.214815139770508">
<ele>70.4000015258789</ele>
<time>2014-02-16T14:27:10Z</time>
</trkpt>
<trkpt lat="52.62435531616211" lon="13.214776992797852">
<ele>71.5</ele>
<time>2014-02-16T14:27:12Z</time>
</trkpt>
<trkpt lat="52.62422180175781" lon="13.21473503112793">
<ele>72.0</ele>
<time>2014-02-16T14:27:15Z</time>
</trkpt>
<trkpt lat="52.6241340637207" lon="13.214712142944336">
<ele>71.80000305175781</ele>
<time>2014-02-16T14:27:17Z</time>
</trkpt>
<trkpt lat="52.624088287353516" lon="13.21468448638916">
<ele>72.0</ele>
<time>2014-02-16T14:27:18Z</time>
</trkpt>
<trkpt lat="52.624046325683594" lon="13.214661598205566">
<ele>71.5</ele>
<time>2014-02-16T14:27:19Z</time>
</trkpt>
<trkpt lat="52.624000549316406" lon="13.214643478393555">
<ele>71.69999694824219</ele>
<time>2014-02-16T14:27:20Z</time>
</trkpt>
<trkpt lat="52.62395477294922" lon="13.214613914489746">
<ele>71.5</ele>
<time>2014-02-16T14:27:21Z</time>
</trkpt>
<trkpt lat="52.623905181884766" lon="13.21458911895752">
<ele>72.19999694824219</ele>
<time>2014-02-16T14:27:22Z</time>
</trkpt>
<trkpt lat="52.62382125854492" lon="13.214531898498535">
<ele>72.0999984741211</ele>
<time>2014-02-16T14:27:24Z</time>
</trkpt>
<trkpt lat="52.623775482177734" lon="13.21450424194336">
<ele>72.0999984741211</ele>
<time>2014-02-16T14:27:25Z</time>
</trkpt>
<trkpt lat="52.62372970581055" lon="13.2144775390625">
<ele>72.30000305175781</ele>
<time>2014-02-16T14:27:26Z</time>
</trkpt>
<trkpt lat="52.623687744140625" lon="13.214444160461426">
<ele>73.30000305175781</ele>
<time>2014-02-16T14:27:28Z</time>
</trkpt>
<trkpt lat="52.62355422973633" lon="13.21435546875">
<ele>73.69999694824219</ele>
<time>2014-02-16T14:27:31Z</time>
</trkpt>
<trkpt lat="52.623470306396484" lon="13.214303016662598">
<ele>73.30000305175781</ele>
<time>2014-02-16T14:27:33Z</time>
</trkpt>
<trkpt lat="52.62342071533203" lon="13.21428108215332">
<ele>73.0999984741211</ele>
<time>2014-02-16T14:27:34Z</time>
</trkpt>
<trkpt lat="52.62337112426758" lon="13.214255332946777">
<ele>72.69999694824219</ele>
<time>2014-02-16T14:27:35Z</time>
</trkpt>
<trkpt lat="52.62332534790039" lon="13.214218139648438">
<ele>72.69999694824219</ele>
<time>2014-02-16T14:27:36Z</time>
</trkpt>
<trkpt lat="52.62324142456055" lon="13.214174270629883">
<ele>73.0999984741211</ele>
<time>2014-02-16T14:27:37Z</time>
</trkpt>
<trkpt lat="52.62319564819336" lon="13.214146614074707">
<ele>73.0999984741211</ele>
<time>2014-02-16T14:27:39Z</time>
</trkpt>
<trkpt lat="52.623111724853516" lon="13.214101791381836">
<ele>73.5</ele>
<time>2014-02-16T14:27:41Z</time>
</trkpt>
<trkpt lat="52.62306594848633" lon="13.214069366455078">
<ele>73.19999694824219</ele>
<time>2014-02-16T14:27:42Z</time>
</trkpt>
<trkpt lat="52.62302017211914" lon="13.214041709899902">
<ele>73.0999984741211</ele>
<time>2014-02-16T14:27:43Z</time>
</trkpt>
<trkpt lat="52.6229362487793" lon="13.21399211883545">
<ele>73.0999984741211</ele>
<time>2014-02-16T14:27:45Z</time>
</trkpt>
<trkpt lat="52.62289047241211" lon="13.213971138000488">
<ele>73.4000015258789</ele>
<time>2014-02-16T14:27:45Z</time>
</trkpt>
<trkpt lat="52.62284469604492" lon="13.21395206451416">
<ele>73.80000305175781</ele>
<time>2014-02-16T14:27:47Z</time>
</trkpt>
<trkpt lat="52.622798919677734" lon="13.213923454284668">
<ele>73.69999694824219</ele>
<time>2014-02-16T14:27:47Z</time>
</trkpt>
<trkpt lat="52.62271499633789" lon="13.213872909545898">
<ele>73.4000015258789</ele>
<time>2014-02-16T14:27:50Z</time>
</trkpt>
<trkpt lat="52.62263107299805" lon="13.213820457458496">
<ele>73.19999694824219</ele>
<time>2014-02-16T14:27:51Z</time>
</trkpt>
<trkpt lat="52.62258529663086" lon="13.213790893554688">
<ele>73.30000305175781</ele>
<time>2014-02-16T14:27:53Z</time>
</trkpt>
<trkpt lat="52.62250900268555" lon="13.213732719421387">
<ele>73.4000015258789</ele>
<time>2014-02-16T14:27:54Z</time>
</trkpt>
<trkpt lat="52.62242889404297" lon="13.2136812210083">
<ele>73.69999694824219</ele>
<time>2014-02-16T14:27:56Z</time>
</trkpt>
<trkpt lat="52.622344970703125" lon="13.213621139526367">
<ele>73.80000305175781</ele>
<time>2014-02-16T14:27:58Z</time>
</trkpt>
<trkpt lat="52.62229919433594" lon="13.213600158691406">
<ele>73.9000015258789</ele>
<time>2014-02-16T14:27:59Z</time>
</trkpt>
<trkpt lat="52.62221145629883" lon="13.213556289672852">
<ele>73.9000015258789</ele>
<time>2014-02-16T14:28:01Z</time>
</trkpt>
<trkpt lat="52.622161865234375" lon="13.213521957397461">
<ele>74.0999984741211</ele>
<time>2014-02-16T14:28:02Z</time>
</trkpt>
<trkpt lat="52.62211990356445" lon="13.213494300842285">
<ele>73.80000305175781</ele>
<time>2014-02-16T14:28:03Z</time>
</trkpt>
<trkpt lat="52.622074127197266" lon="13.213460922241211">
<ele>74.0999984741211</ele>
<time>2014-02-16T14:28:04Z</time>
</trkpt>
<trkpt lat="52.621986389160156" lon="13.213401794433594">
<ele>74.5</ele>
<time>2014-02-16T14:28:06Z</time>
</trkpt>
<trkpt lat="52.62194061279297" lon="13.213376998901367">
<ele>74.4000015258789</ele>
<time>2014-02-16T14:28:07Z</time>
</trkpt>
<trkpt lat="52.621891021728516" lon="13.213357925415039">
<ele>74.0999984741211</ele>
<time>2014-02-16T14:28:08Z</time>
</trkpt>
<trkpt lat="52.62184524536133" lon="13.213327407836914">
<ele>74.0</ele>
<time>2014-02-16T14:28:09Z</time>
</trkpt>
<trkpt lat="52.62180709838867" lon="13.21329116821289">
<ele>73.80000305175781</ele>
<time>2014-02-16T14:28:10Z</time>
</trkpt>
<trkpt lat="52.621761322021484" lon="13.213249206542969">
<ele>74.0999984741211</ele>
<time>2014-02-16T14:28:11Z</time>
</trkpt>
<trkpt lat="52.62171936035156" lon="13.213191032409668">
<ele>74.5</ele>
<time>2014-02-16T14:28:12Z</time>
</trkpt>
<trkpt lat="52.621681213378906" lon="13.213138580322266">
<ele>74.80000305175781</ele>
<time>2014-02-16T14:28:13Z</time>
</trkpt>
<trkpt lat="52.62164306640625" lon="13.213091850280762">
<ele>74.9000015258789</ele>
<time>2014-02-16T14:28:14Z</time>
</trkpt>
<trkpt lat="52.62160873413086" lon="13.213044166564941">
<ele>75.19999694824219</ele>
<time>2014-02-16T14:28:15Z</time>
</trkpt>
<trkpt lat="52.6215705871582" lon="13.212997436523438">
<ele>75.19999694824219</ele>
<time>2014-02-16T14:28:16Z</time>
</trkpt>
<trkpt lat="52.62153625488281" lon="13.2129487991333">
<ele>75.69999694824219</ele>
<time>2014-02-16T14:28:17Z</time>
</trkpt>
<trkpt lat="52.621463775634766" lon="13.212858200073242">
<ele>76.5999984741211</ele>
<time>2014-02-16T14:28:19Z</time>
</trkpt>
<trkpt lat="52.621395111083984" lon="13.212767601013184">
<ele>76.80000305175781</ele>
<time>2014-02-16T14:28:21Z</time>
</trkpt>
<trkpt lat="52.621360778808594" lon="13.212717056274414">
<ele>76.9000015258789</ele>
<time>2014-02-16T14:28:22Z</time>
</trkpt>
<trkpt lat="52.62131881713867" lon="13.212672233581543">
<ele>78.0999984741211</ele>
<time>2014-02-16T14:28:23Z</time>
</trkpt>
<trkpt lat="52.621273040771484" lon="13.212627410888672">
<ele>78.80000305175781</ele>
<time>2014-02-16T14:28:24Z</time>
</trkpt>
<trkpt lat="52.6212272644043" lon="13.212580680847168">
<ele>79.0</ele>
<time>2014-02-16T14:28:25Z</time>
</trkpt>
<trkpt lat="52.621158599853516" lon="13.212471008300781">
<ele>79.80000305175781</ele>
<time>2014-02-16T14:28:27Z</time>
</trkpt>
<trkpt lat="52.62112045288086" lon="13.212422370910645">
<ele>79.69999694824219</ele>
<time>2014-02-16T14:28:28Z</time>
</trkpt>
<trkpt lat="52.6210823059082" lon="13.212371826171875">
<ele>79.69999694824219</ele>
<time>2014-02-16T14:28:29Z</time>
</trkpt>
<trkpt lat="52.621036529541016" lon="13.212323188781738">
<ele>80.80000305175781</ele>
<time>2014-02-16T14:28:30Z</time>
</trkpt>
<trkpt lat="52.620994567871094" lon="13.212265968322754">
<ele>81.19999694824219</ele>
<time>2014-02-16T14:28:31Z</time>
</trkpt>
<trkpt lat="52.62092590332031" lon="13.212174415588379">
<ele>81.0999984741211</ele>
<time>2014-02-16T14:28:33Z</time>
</trkpt>
<trkpt lat="52.620887756347656" lon="13.212125778198242">
<ele>81.0</ele>
<time>2014-02-16T14:28:34Z</time>
</trkpt>
<trkpt lat="52.620853424072266" lon="13.212072372436523">
<ele>81.0999984741211</ele>
<time>2014-02-16T14:28:35Z</time>
</trkpt>
<trkpt lat="52.62080383300781" lon="13.21200180053711">
<ele>80.4000015258789</ele>
<time>2014-02-16T14:28:37Z</time>
</trkpt>
<trkpt lat="52.620723724365234" lon="13.211905479431152">
<ele>80.5999984741211</ele>
<time>2014-02-16T14:28:39Z</time>
</trkpt>
<trkpt lat="52.62065124511719" lon="13.211812019348145">
<ele>80.0</ele>
<time>2014-02-16T14:28:41Z</time>
</trkpt>
<trkpt lat="52.6206169128418" lon="13.211760520935059">
<ele>80.0999984741211</ele>
<time>2014-02-16T14:28:42Z</time>
</trkpt>
<trkpt lat="52.62054443359375" lon="13.211678504943848">
<ele>80.69999694824219</ele>
<time>2014-02-16T14:28:44Z</time>
</trkpt>
<trkpt lat="52.620506286621094" lon="13.21163272857666">
<ele>80.30000305175781</ele>
<time>2014-02-16T14:28:45Z</time>
</trkpt>
<trkpt lat="52.62044143676758" lon="13.21154499053955">
<ele>80.0</ele>
<time>2014-02-16T14:28:47Z</time>
</trkpt>
<trkpt lat="52.62040710449219" lon="13.211493492126465">
<ele>79.4000015258789</ele>
<time>2014-02-16T14:28:48Z</time>
</trkpt>
<trkpt lat="52.62034225463867" lon="13.211420059204102">
<ele>78.0999984741211</ele>
<time>2014-02-16T14:28:50Z</time>
</trkpt>
<trkpt lat="52.62028121948242" lon="13.211350440979004">
<ele>78.0999984741211</ele>
<time>2014-02-16T14:28:52Z</time>
</trkpt>
<trkpt lat="52.620243072509766" lon="13.211308479309082">
<ele>78.0999984741211</ele>
<time>2014-02-16T14:28:53Z</time>
</trkpt>
<trkpt lat="52.620201110839844" lon="13.211267471313477">
<ele>77.69999694824219</ele>
<time>2014-02-16T14:28:54Z</time>
</trkpt>
<trkpt lat="52.62016296386719" lon="13.211217880249023">
<ele>77.5999984741211</ele>
<time>2014-02-16T14:28:55Z</time>
</trkpt>
<trkpt lat="52.620094299316406" lon="13.211141586303711">
<ele>76.5999984741211</ele>
<time>2014-02-16T14:28:57Z</time>
</trkpt>
<trkpt lat="52.620052337646484" lon="13.211105346679688">
<ele>76.30000305175781</ele>
<time>2014-02-16T14:28:58Z</time>
</trkpt>
<trkpt lat="52.62001037597656" lon="13.211063385009766">
<ele>76.5</ele>
<time>2014-02-16T14:28:59Z</time>
</trkpt>
<trkpt lat="52.619972229003906" lon="13.211016654968262">
<ele>76.0999984741211</ele>
<time>2014-02-16T14:29:00Z</time>
</trkpt>
<trkpt lat="52.61993408203125" lon="13.210966110229492">
<ele>75.5999984741211</ele>
<time>2014-02-16T14:29:01Z</time>
</trkpt>
<trkpt lat="52.619895935058594" lon="13.210921287536621">
<ele>76.0</ele>
<time>2014-02-16T14:29:02Z</time>
</trkpt>
<trkpt lat="52.61985397338867" lon="13.21087646484375">
<ele>75.19999694824219</ele>
<time>2014-02-16T14:29:03Z</time>
</trkpt>
<trkpt lat="52.61981964111328" lon="13.210824966430664">
<ele>74.69999694824219</ele>
<time>2014-02-16T14:29:04Z</time>
</trkpt>
<trkpt lat="52.61974334716797" lon="13.210749626159668">
<ele>74.69999694824219</ele>
<time>2014-02-16T14:29:06Z</time>
</trkpt>
<trkpt lat="52.61970138549805" lon="13.210701942443848">
<ele>74.80000305175781</ele>
<time>2014-02-16T14:29:07Z</time>
</trkpt>
<trkpt lat="52.619651794433594" lon="13.210648536682129">
<ele>74.9000015258789</ele>
<time>2014-02-16T14:29:08Z</time>
</trkpt>
<trkpt lat="52.61960983276367" lon="13.210602760314941">
<ele>74.9000015258789</ele>
<time>2014-02-16T14:29:09Z</time>
</trkpt>
<trkpt lat="52.61956787109375" lon="13.210554122924805">
<ele>74.69999694824219</ele>
<time>2014-02-16T14:29:10Z</time>
</trkpt>
<trkpt lat="52.61952590942383" lon="13.210517883300781">
<ele>74.19999694824219</ele>
<time>2014-02-16T14:29:11Z</time>
</trkpt>
<trkpt lat="52.61948013305664" lon="13.210484504699707">
<ele>74.19999694824219</ele>
<time>2014-02-16T14:29:12Z</time>
</trkpt>
<trkpt lat="52.61943817138672" lon="13.210451126098633">
<ele>74.19999694824219</ele>
<time>2014-02-16T14:29:13Z</time>
</trkpt>
<trkpt lat="52.6193962097168" lon="13.210417747497559">
<ele>74.19999694824219</ele>
<time>2014-02-16T14:29:14Z</time>
</trkpt>
<trkpt lat="52.61931228637695" lon="13.210319519042969">
<ele>75.69999694824219</ele>
<time>2014-02-16T14:29:16Z</time>
</trkpt>
<trkpt lat="52.61927032470703" lon="13.210286140441895">
<ele>76.30000305175781</ele>
<time>2014-02-16T14:29:17Z</time>
</trkpt>
<trkpt lat="52.619232177734375" lon="13.21024227142334">
<ele>76.19999694824219</ele>
<time>2014-02-16T14:29:18Z</time>
</trkpt>
<trkpt lat="52.61919021606445" lon="13.210201263427734">
<ele>75.69999694824219</ele>
<time>2014-02-16T14:29:19Z</time>
</trkpt>
<trkpt lat="52.61914825439453" lon="13.21015739440918">
<ele>76.0999984741211</ele>
<time>2014-02-16T14:29:20Z</time>
</trkpt>
<trkpt lat="52.619110107421875" lon="13.210118293762207">
<ele>75.80000305175781</ele>
<time>2014-02-16T14:29:21Z</time>
</trkpt>
<trkpt lat="52.61906814575195" lon="13.210077285766602">
<ele>75.9000015258789</ele>
<time>2014-02-16T14:29:22Z</time>
</trkpt>
<trkpt lat="52.61899185180664" lon="13.209994316101074">
<ele>75.9000015258789</ele>
<time>2014-02-16T14:29:24Z</time>
</trkpt>
<trkpt lat="52.618953704833984" lon="13.209957122802734">
<ele>75.80000305175781</ele>
<time>2014-02-16T14:29:25Z</time>
</trkpt>
<trkpt lat="52.61887741088867" lon="13.20988655090332">
<ele>76.0</ele>
<time>2014-02-16T14:29:27Z</time>
</trkpt>
<trkpt lat="52.61880874633789" lon="13.209796905517578">
<ele>76.19999694824219</ele>
<time>2014-02-16T14:29:29Z</time>
</trkpt>
<trkpt lat="52.6187629699707" lon="13.209709167480469">
<ele>74.69999694824219</ele>
<time>2014-02-16T14:29:31Z</time>
</trkpt>
<trkpt lat="52.618717193603516" lon="13.209667205810547">
<ele>75.4000015258789</ele>
<time>2014-02-16T14:29:32Z</time>
</trkpt>
<trkpt lat="52.618675231933594" lon="13.209611892700195">
<ele>75.19999694824219</ele>
<time>2014-02-16T14:29:33Z</time>
</trkpt>
<trkpt lat="52.61863708496094" lon="13.209554672241211">
<ele>75.9000015258789</ele>
<time>2014-02-16T14:29:34Z</time>
</trkpt>
<trkpt lat="52.618595123291016" lon="13.209511756896973">
<ele>76.5999984741211</ele>
<time>2014-02-16T14:29:35Z</time>
</trkpt>
<trkpt lat="52.61853790283203" lon="13.209416389465332">
<ele>76.80000305175781</ele>
<time>2014-02-16T14:29:37Z</time>
</trkpt>
<trkpt lat="52.61848449707031" lon="13.209343910217285">
<ele>77.30000305175781</ele>
<time>2014-02-16T14:29:39Z</time>
</trkpt>
<trkpt lat="52.61843490600586" lon="13.209294319152832">
<ele>77.9000015258789</ele>
<time>2014-02-16T14:29:40Z</time>
</trkpt>
<trkpt lat="52.618370056152344" lon="13.209211349487305">
<ele>77.69999694824219</ele>
<time>2014-02-16T14:29:42Z</time>
</trkpt>
<trkpt lat="52.61833572387695" lon="13.209156036376953">
<ele>77.4000015258789</ele>
<time>2014-02-16T14:29:43Z</time>
</trkpt>
<trkpt lat="52.61825942993164" lon="13.209073066711426">
<ele>77.19999694824219</ele>
<time>2014-02-16T14:29:45Z</time>
</trkpt>
<trkpt lat="52.618194580078125" lon="13.208996772766113">
<ele>77.0999984741211</ele>
<time>2014-02-16T14:29:47Z</time>
</trkpt>
<trkpt lat="52.6181526184082" lon="13.20895767211914">
<ele>77.19999694824219</ele>
<time>2014-02-16T14:29:48Z</time>
</trkpt>
<trkpt lat="52.61811828613281" lon="13.208895683288574">
<ele>77.5</ele>
<time>2014-02-16T14:29:49Z</time>
</trkpt>
<trkpt lat="52.6180534362793" lon="13.208818435668945">
<ele>76.80000305175781</ele>
<time>2014-02-16T14:29:51Z</time>
</trkpt>
<trkpt lat="52.617984771728516" lon="13.208736419677734">
<ele>77.4000015258789</ele>
<time>2014-02-16T14:29:53Z</time>
</trkpt>
<trkpt lat="52.61795425415039" lon="13.2086820602417">
<ele>77.5</ele>
<time>2014-02-16T14:29:54Z</time>
</trkpt>
<trkpt lat="52.617916107177734" lon="13.208635330200195">
<ele>77.69999694824219</ele>
<time>2014-02-16T14:29:55Z</time>
</trkpt>
<trkpt lat="52.61785125732422" lon="13.208534240722656">
<ele>77.80000305175781</ele>
<time>2014-02-16T14:29:57Z</time>
</trkpt>
<trkpt lat="52.617794036865234" lon="13.20842170715332">
<ele>77.5999984741211</ele>
<time>2014-02-16T14:29:59Z</time>
</trkpt>
<trkpt lat="52.61775207519531" lon="13.20838451385498">
<ele>77.5999984741211</ele>
<time>2014-02-16T14:30:00Z</time>
</trkpt>
<trkpt lat="52.617679595947266" lon="13.208281517028809">
<ele>77.30000305175781</ele>
<time>2014-02-16T14:30:02Z</time>
</trkpt>
<trkpt lat="52.61764144897461" lon="13.208230972290039">
<ele>76.69999694824219</ele>
<time>2014-02-16T14:30:03Z</time>
</trkpt>
<trkpt lat="52.61759948730469" lon="13.20818042755127">
<ele>77.0999984741211</ele>
<time>2014-02-16T14:30:04Z</time>
</trkpt>
<trkpt lat="52.61756134033203" lon="13.208133697509766">
<ele>77.0</ele>
<time>2014-02-16T14:30:05Z</time>
</trkpt>
<trkpt lat="52.61752700805664" lon="13.208080291748047">
<ele>76.5999984741211</ele>
<time>2014-02-16T14:30:06Z</time>
</trkpt>
<trkpt lat="52.617488861083984" lon="13.208035469055176">
<ele>76.4000015258789</ele>
<time>2014-02-16T14:30:07Z</time>
</trkpt>
<trkpt lat="52.61745834350586" lon="13.207982063293457">
<ele>76.69999694824219</ele>
<time>2014-02-16T14:30:08Z</time>
</trkpt>
<trkpt lat="52.617408752441406" lon="13.207879066467285">
<ele>76.69999694824219</ele>
<time>2014-02-16T14:30:10Z</time>
</trkpt>
<trkpt lat="52.61737823486328" lon="13.2078218460083">
<ele>76.30000305175781</ele>
<time>2014-02-16T14:30:11Z</time>
</trkpt>
<trkpt lat="52.61733627319336" lon="13.20770263671875">
<ele>76.4000015258789</ele>
<time>2014-02-16T14:30:13Z</time>
</trkpt>
<trkpt lat="52.617313385009766" lon="13.207633972167969">
<ele>76.0</ele>
<time>2014-02-16T14:30:14Z</time>
</trkpt>
<trkpt lat="52.617286682128906" lon="13.207572937011719">
<ele>75.4000015258789</ele>
<time>2014-02-16T14:30:15Z</time>
</trkpt>
<trkpt lat="52.61723327636719" lon="13.207443237304688">
<ele>75.69999694824219</ele>
<time>2014-02-16T14:30:17Z</time>
</trkpt>
<trkpt lat="52.61720657348633" lon="13.207379341125488">
<ele>76.4000015258789</ele>
<time>2014-02-16T14:30:18Z</time>
</trkpt>
<trkpt lat="52.61715316772461" lon="13.207258224487305">
<ele>76.30000305175781</ele>
<time>2014-02-16T14:30:20Z</time>
</trkpt>
<trkpt lat="52.61711120605469" lon="13.20713996887207">
<ele>76.30000305175781</ele>
<time>2014-02-16T14:30:22Z</time>
</trkpt>
<trkpt lat="52.61708450317383" lon="13.20707893371582">
<ele>76.19999694824219</ele>
<time>2014-02-16T14:30:23Z</time>
</trkpt>
<trkpt lat="52.61703872680664" lon="13.206965446472168">
<ele>75.9000015258789</ele>
<time>2014-02-16T14:30:25Z</time>
</trkpt>
<trkpt lat="52.61699295043945" lon="13.206854820251465">
<ele>76.19999694824219</ele>
<time>2014-02-16T14:30:27Z</time>
</trkpt>
<trkpt lat="52.616947174072266" lon="13.206744194030762">
<ele>76.5</ele>
<time>2014-02-16T14:30:29Z</time>
</trkpt>
<trkpt lat="52.61690902709961" lon="13.206636428833008">
<ele>76.5999984741211</ele>
<time>2014-02-16T14:30:31Z</time>
</trkpt>
<trkpt lat="52.61686325073242" lon="13.206521987915039">
<ele>75.9000015258789</ele>
<time>2014-02-16T14:30:33Z</time>
</trkpt>
<trkpt lat="52.6168212890625" lon="13.206415176391602">
<ele>75.69999694824219</ele>
<time>2014-02-16T14:30:35Z</time>
</trkpt>
<trkpt lat="52.61679458618164" lon="13.206336975097656">
<ele>75.4000015258789</ele>
<time>2014-02-16T14:30:36Z</time>
</trkpt>
<trkpt lat="52.61677169799805" lon="13.206267356872559">
<ele>74.9000015258789</ele>
<time>2014-02-16T14:30:37Z</time>
</trkpt>
<trkpt lat="52.616729736328125" lon="13.206134796142578">
<ele>74.19999694824219</ele>
<time>2014-02-16T14:30:39Z</time>
</trkpt>
<trkpt lat="52.6167106628418" lon="13.206067085266113">
<ele>74.19999694824219</ele>
<time>2014-02-16T14:30:40Z</time>
</trkpt>
<trkpt lat="52.61669158935547" lon="13.2059965133667">
<ele>74.0999984741211</ele>
<time>2014-02-16T14:30:41Z</time>
</trkpt>
<trkpt lat="52.616668701171875" lon="13.20592212677002">
<ele>73.5999984741211</ele>
<time>2014-02-16T14:30:42Z</time>
</trkpt>
<trkpt lat="52.616634368896484" lon="13.205785751342773">
<ele>73.80000305175781</ele>
<time>2014-02-16T14:30:44Z</time>
</trkpt>
<trkpt lat="52.61661148071289" lon="13.205717086791992">
<ele>74.19999694824219</ele>
<time>2014-02-16T14:30:45Z</time>
</trkpt>
<trkpt lat="52.6165885925293" lon="13.205649375915527">
<ele>74.9000015258789</ele>
<time>2014-02-16T14:30:46Z</time>
</trkpt>
<trkpt lat="52.6165657043457" lon="13.205575942993164">
<ele>74.69999694824219</ele>
<time>2014-02-16T14:30:47Z</time>
</trkpt>
<trkpt lat="52.61652374267578" lon="13.205438613891602">
<ele>74.30000305175781</ele>
<time>2014-02-16T14:30:49Z</time>
</trkpt>
<trkpt lat="52.61650085449219" lon="13.205363273620605">
<ele>74.0999984741211</ele>
<time>2014-02-16T14:30:50Z</time>
</trkpt>
<trkpt lat="52.6164665222168" lon="13.205236434936523">
<ele>74.19999694824219</ele>
<time>2014-02-16T14:30:52Z</time>
</trkpt>
<trkpt lat="52.61643600463867" lon="13.205118179321289">
<ele>73.69999694824219</ele>
<time>2014-02-16T14:30:54Z</time>
</trkpt>
<trkpt lat="52.616458892822266" lon="13.205047607421875">
<ele>73.0999984741211</ele>
<time>2014-02-16T14:30:56Z</time>
</trkpt>
<trkpt lat="52.61653137207031" lon="13.205062866210938">
<ele>74.0</ele>
<time>2014-02-16T14:30:57Z</time>
</trkpt>
<trkpt lat="52.61661148071289" lon="13.205015182495117">
<ele>73.69999694824219</ele>
<time>2014-02-16T14:31:03Z</time>
</trkpt>
<trkpt lat="52.61677169799805" lon="13.204936981201172">
<ele>72.19999694824219</ele>
<time>2014-02-16T14:31:07Z</time>
</trkpt>
<trkpt lat="52.61690139770508" lon="13.204886436462402">
<ele>72.19999694824219</ele>
<time>2014-02-16T14:31:07Z</time>
</trkpt>
<trkpt lat="52.616947174072266" lon="13.20488166809082">
<ele>72.9000015258789</ele>
<time>2014-02-16T14:31:11Z</time>
</trkpt>
<trkpt lat="52.6170768737793" lon="13.204838752746582">
<ele>72.4000015258789</ele>
<time>2014-02-16T14:31:11Z</time>
</trkpt>
<trkpt lat="52.617164611816406" lon="13.20480728149414">
<ele>72.0</ele>
<time>2014-02-16T14:31:13Z</time>
</trkpt>
<trkpt lat="52.617244720458984" lon="13.204771041870117">
<ele>72.19999694824219</ele>
<time>2014-02-16T14:31:15Z</time>
</trkpt>
<trkpt lat="52.617305755615234" lon="13.204689979553223">
<ele>72.0999984741211</ele>
<time>2014-02-16T14:31:17Z</time>
</trkpt>
<trkpt lat="52.617313385009766" lon="13.204614639282227">
<ele>71.69999694824219</ele>
<time>2014-02-16T14:31:19Z</time>
</trkpt>
<trkpt lat="52.61729049682617" lon="13.204553604125977">
<ele>68.0</ele>
<time>2014-02-16T14:31:25Z</time>
</trkpt>
<trkpt lat="52.61720657348633" lon="13.204537391662598">
<ele>70.0</ele>
<time>2014-02-16T14:31:32Z</time>
</trkpt>
<trkpt lat="52.617156982421875" lon="13.204543113708496">
<ele>70.19999694824219</ele>
<time>2014-02-16T14:31:34Z</time>
</trkpt>
<trkpt lat="52.617042541503906" lon="13.204540252685547">
<ele>69.30000305175781</ele>
<time>2014-02-16T14:31:38Z</time>
</trkpt>
<trkpt lat="52.616966247558594" lon="13.204534530639648">
<ele>69.80000305175781</ele>
<time>2014-02-16T14:31:39Z</time>
</trkpt>
<trkpt lat="52.61688995361328" lon="13.204540252685547">
<ele>71.19999694824219</ele>
<time>2014-02-16T14:31:41Z</time>
</trkpt>
<trkpt lat="52.61682891845703" lon="13.204544067382812">
<ele>70.69999694824219</ele>
<time>2014-02-16T14:31:43Z</time>
</trkpt>
<trkpt lat="52.616783142089844" lon="13.204550743103027">
<ele>70.80000305175781</ele>
<time>2014-02-16T14:31:45Z</time>
</trkpt>
<trkpt lat="52.61671829223633" lon="13.20457649230957">
<ele>72.0</ele>
<time>2014-02-16T14:31:46Z</time>
</trkpt>
<trkpt lat="52.61667251586914" lon="13.204587936401367">
<ele>72.4000015258789</ele>
<time>2014-02-16T14:31:47Z</time>
</trkpt>
<trkpt lat="52.61662673950195" lon="13.204594612121582">
<ele>72.9000015258789</ele>
<time>2014-02-16T14:31:48Z</time>
</trkpt>
<trkpt lat="52.61656188964844" lon="13.204610824584961">
<ele>72.5999984741211</ele>
<time>2014-02-16T14:31:50Z</time>
</trkpt>
<trkpt lat="52.616485595703125" lon="13.204634666442871">
<ele>73.0</ele>
<time>2014-02-16T14:31:52Z</time>
</trkpt>
<trkpt lat="52.61640930175781" lon="13.204654693603516">
<ele>73.5</ele>
<time>2014-02-16T14:31:54Z</time>
</trkpt>
<trkpt lat="52.6163330078125" lon="13.20466423034668">
<ele>74.4000015258789</ele>
<time>2014-02-16T14:31:56Z</time>
</trkpt>
<trkpt lat="52.61626434326172" lon="13.204680442810059">
<ele>75.80000305175781</ele>
<time>2014-02-16T14:31:58Z</time>
</trkpt>
<trkpt lat="52.61619567871094" lon="13.204707145690918">
<ele>76.19999694824219</ele>
<time>2014-02-16T14:32:00Z</time>
</trkpt>
<trkpt lat="52.61613464355469" lon="13.204718589782715">
<ele>76.5</ele>
<time>2014-02-16T14:32:02Z</time>
</trkpt>
<trkpt lat="52.61605453491211" lon="13.204723358154297">
<ele>76.30000305175781</ele>
<time>2014-02-16T14:32:04Z</time>
</trkpt>
<trkpt lat="52.61600112915039" lon="13.204723358154297">
<ele>76.4000015258789</ele>
<time>2014-02-16T14:32:06Z</time>
</trkpt>
<trkpt lat="52.61589050292969" lon="13.204731941223145">
<ele>75.19999694824219</ele>
<time>2014-02-16T14:32:10Z</time>
</trkpt>
<trkpt lat="52.6158332824707" lon="13.204745292663574">
<ele>76.9000015258789</ele>
<time>2014-02-16T14:32:12Z</time>
</trkpt>
<trkpt lat="52.615753173828125" lon="13.204766273498535">
<ele>76.19999694824219</ele>
<time>2014-02-16T14:32:16Z</time>
</trkpt>
<trkpt lat="52.61568069458008" lon="13.204805374145508">
<ele>75.9000015258789</ele>
<time>2014-02-16T14:32:17Z</time>
</trkpt>
<trkpt lat="52.615596771240234" lon="13.20484447479248">
<ele>75.19999694824219</ele>
<time>2014-02-16T14:32:18Z</time>
</trkpt>
<trkpt lat="52.615509033203125" lon="13.204869270324707">
<ele>74.5</ele>
<time>2014-02-16T14:32:20Z</time>
</trkpt>
<trkpt lat="52.61546325683594" lon="13.204886436462402">
<ele>74.30000305175781</ele>
<time>2014-02-16T14:32:21Z</time>
</trkpt>
<trkpt lat="52.61541748046875" lon="13.204903602600098">
<ele>74.19999694824219</ele>
<time>2014-02-16T14:32:22Z</time>
</trkpt>
<trkpt lat="52.61537551879883" lon="13.204926490783691">
<ele>74.0</ele>
<time>2014-02-16T14:32:23Z</time>
</trkpt>
<trkpt lat="52.61532974243164" lon="13.204946517944336">
<ele>73.5999984741211</ele>
<time>2014-02-16T14:32:24Z</time>
</trkpt>
<trkpt lat="52.61528015136719" lon="13.204947471618652">
<ele>73.4000015258789</ele>
<time>2014-02-16T14:32:25Z</time>
</trkpt>
<trkpt lat="52.615234375" lon="13.204940795898438">
<ele>73.30000305175781</ele>
<time>2014-02-16T14:32:26Z</time>
</trkpt>
<trkpt lat="52.61514663696289" lon="13.204935073852539">
<ele>72.80000305175781</ele>
<time>2014-02-16T14:32:28Z</time>
</trkpt>
<trkpt lat="52.6151008605957" lon="13.204936981201172">
<ele>72.4000015258789</ele>
<time>2014-02-16T14:32:29Z</time>
</trkpt>
<trkpt lat="52.61500549316406" lon="13.204936981201172">
<ele>72.19999694824219</ele>
<time>2014-02-16T14:32:31Z</time>
</trkpt>
<trkpt lat="52.61495590209961" lon="13.204933166503906">
<ele>71.5999984741211</ele>
<time>2014-02-16T14:32:32Z</time>
</trkpt>
<trkpt lat="52.61490249633789" lon="13.204920768737793">
<ele>71.19999694824219</ele>
<time>2014-02-16T14:32:33Z</time>
</trkpt>
<trkpt lat="52.614845275878906" lon="13.204902648925781">
<ele>71.5</ele>
<time>2014-02-16T14:32:34Z</time>
</trkpt>
<trkpt lat="52.61479568481445" lon="13.204889297485352">
<ele>71.4000015258789</ele>
<time>2014-02-16T14:32:35Z</time>
</trkpt>
<trkpt lat="52.61474609375" lon="13.204885482788086">
<ele>71.30000305175781</ele>
<time>2014-02-16T14:32:36Z</time>
</trkpt>
<trkpt lat="52.61469268798828" lon="13.204874992370605">
<ele>71.30000305175781</ele>
<time>2014-02-16T14:32:37Z</time>
</trkpt>
<trkpt lat="52.61460494995117" lon="13.20485782623291">
<ele>71.19999694824219</ele>
<time>2014-02-16T14:32:39Z</time>
</trkpt>
<trkpt lat="52.614559173583984" lon="13.204851150512695">
<ele>70.9000015258789</ele>
<time>2014-02-16T14:32:40Z</time>
</trkpt>
<trkpt lat="52.6145133972168" lon="13.204851150512695">
<ele>70.5999984741211</ele>
<time>2014-02-16T14:32:41Z</time>
</trkpt>
<trkpt lat="52.614463806152344" lon="13.204838752746582">
<ele>70.19999694824219</ele>
<time>2014-02-16T14:32:42Z</time>
</trkpt>
<trkpt lat="52.614418029785156" lon="13.204819679260254">
<ele>69.80000305175781</ele>
<time>2014-02-16T14:32:43Z</time>
</trkpt>
<trkpt lat="52.6143684387207" lon="13.204817771911621">
<ele>69.4000015258789</ele>
<time>2014-02-16T14:32:44Z</time>
</trkpt>
<trkpt lat="52.61431884765625" lon="13.204808235168457">
<ele>69.19999694824219</ele>
<time>2014-02-16T14:32:45Z</time>
</trkpt>
<trkpt lat="52.61426544189453" lon="13.204793930053711">
<ele>69.0</ele>
<time>2014-02-16T14:32:46Z</time>
</trkpt>
<trkpt lat="52.614219665527344" lon="13.204778671264648">
<ele>68.69999694824219</ele>
<time>2014-02-16T14:32:47Z</time>
</trkpt>
<trkpt lat="52.614173889160156" lon="13.204758644104004">
<ele>68.4000015258789</ele>
<time>2014-02-16T14:32:48Z</time>
</trkpt>
<trkpt lat="52.614112854003906" lon="13.204723358154297">
<ele>68.5</ele>
<time>2014-02-16T14:32:50Z</time>
</trkpt>
<trkpt lat="52.614112854003906" lon="13.20464038848877">
<ele>67.80000305175781</ele>
<time>2014-02-16T14:32:54Z</time>
</trkpt>
<trkpt lat="52.61411666870117" lon="13.204565048217773">
<ele>68.5</ele>
<time>2014-02-16T14:32:56Z</time>
</trkpt>
<trkpt lat="52.61408996582031" lon="13.204487800598145">
<ele>68.19999694824219</ele>
<time>2014-02-16T14:32:59Z</time>
</trkpt>
<trkpt lat="52.61402130126953" lon="13.204495429992676">
<ele>67.9000015258789</ele>
<time>2014-02-16T14:33:01Z</time>
</trkpt>
<trkpt lat="52.61394119262695" lon="13.20447826385498">
<ele>67.69999694824219</ele>
<time>2014-02-16T14:33:02Z</time>
</trkpt>
<trkpt lat="52.613895416259766" lon="13.20446491241455">
<ele>68.0</ele>
<time>2014-02-16T14:33:03Z</time>
</trkpt>
<trkpt lat="52.61384963989258" lon="13.20445442199707">
<ele>68.19999694824219</ele>
<time>2014-02-16T14:33:04Z</time>
</trkpt>
<trkpt lat="52.61380386352539" lon="13.204451560974121">
<ele>68.69999694824219</ele>
<time>2014-02-16T14:33:05Z</time>
</trkpt>
<trkpt lat="52.6137580871582" lon="13.204438209533691">
<ele>68.9000015258789</ele>
<time>2014-02-16T14:33:06Z</time>
</trkpt>
<trkpt lat="52.61370849609375" lon="13.20443058013916">
<ele>69.0999984741211</ele>
<time>2014-02-16T14:33:07Z</time>
</trkpt>
<trkpt lat="52.613616943359375" lon="13.204415321350098">
<ele>69.19999694824219</ele>
<time>2014-02-16T14:33:09Z</time>
</trkpt>
<trkpt lat="52.61357116699219" lon="13.2044095993042">
<ele>69.4000015258789</ele>
<time>2014-02-16T14:33:10Z</time>
</trkpt>
<trkpt lat="52.613521575927734" lon="13.204401016235352">
<ele>69.4000015258789</ele>
<time>2014-02-16T14:33:11Z</time>
</trkpt>
<trkpt lat="52.61345672607422" lon="13.204384803771973">
<ele>69.0</ele>
<time>2014-02-16T14:33:13Z</time>
</trkpt>
<trkpt lat="52.61338424682617" lon="13.20436954498291">
<ele>69.19999694824219</ele>
<time>2014-02-16T14:33:15Z</time>
</trkpt>
<trkpt lat="52.61332702636719" lon="13.204345703125">
<ele>68.9000015258789</ele>
<time>2014-02-16T14:33:17Z</time>
</trkpt>
<trkpt lat="52.61337661743164" lon="13.204351425170898">
<ele>66.80000305175781</ele>
<time>2014-02-16T14:33:24Z</time>
</trkpt>
<trkpt lat="52.613441467285156" lon="13.204368591308594">
<ele>65.9000015258789</ele>
<time>2014-02-16T14:33:25Z</time>
</trkpt>
<trkpt lat="52.613502502441406" lon="13.204377174377441">
<ele>66.0999984741211</ele>
<time>2014-02-16T14:33:28Z</time>
</trkpt>
<trkpt lat="52.613563537597656" lon="13.204375267028809">
<ele>65.0999984741211</ele>
<time>2014-02-16T14:33:31Z</time>
</trkpt>
<trkpt lat="52.61362075805664" lon="13.204379081726074">
<ele>63.599998474121094</ele>
<time>2014-02-16T14:33:31Z</time>
</trkpt>
<trkpt lat="52.613616943359375" lon="13.204534530639648">
<ele>64.9000015258789</ele>
<time>2014-02-16T14:33:36Z</time>
</trkpt>
<trkpt lat="52.61359786987305" lon="13.204642295837402">
<ele>65.5</ele>
<time>2014-02-16T14:33:37Z</time>
</trkpt>
<trkpt lat="52.61355209350586" lon="13.204764366149902">
<ele>66.30000305175781</ele>
<time>2014-02-16T14:33:39Z</time>
</trkpt>
<trkpt lat="52.61350631713867" lon="13.204778671264648">
<ele>66.5999984741211</ele>
<time>2014-02-16T14:33:40Z</time>
</trkpt>
<trkpt lat="52.613426208496094" lon="13.204798698425293">
<ele>68.30000305175781</ele>
<time>2014-02-16T14:33:42Z</time>
</trkpt>
<trkpt lat="52.613346099853516" lon="13.204819679260254">
<ele>68.9000015258789</ele>
<time>2014-02-16T14:33:44Z</time>
</trkpt>
<trkpt lat="52.61326599121094" lon="13.204834938049316">
<ele>69.30000305175781</ele>
<time>2014-02-16T14:33:46Z</time>
</trkpt>
<trkpt lat="52.613182067871094" lon="13.204834938049316">
<ele>69.5</ele>
<time>2014-02-16T14:33:48Z</time>
</trkpt>
<trkpt lat="52.613094329833984" lon="13.204824447631836">
<ele>70.0</ele>
<time>2014-02-16T14:33:50Z</time>
</trkpt>
<trkpt lat="52.61301040649414" lon="13.204835891723633">
<ele>70.5999984741211</ele>
<time>2014-02-16T14:33:52Z</time>
</trkpt>
<trkpt lat="52.61296463012695" lon="13.20484447479248">
<ele>70.69999694824219</ele>
<time>2014-02-16T14:33:53Z</time>
</trkpt>
<trkpt lat="52.612876892089844" lon="13.204859733581543">
<ele>70.80000305175781</ele>
<time>2014-02-16T14:33:55Z</time>
</trkpt>
<trkpt lat="52.612789154052734" lon="13.204867362976074">
<ele>71.0999984741211</ele>
<time>2014-02-16T14:33:57Z</time>
</trkpt>
<trkpt lat="52.61274337768555" lon="13.204875946044922">
<ele>71.19999694824219</ele>
<time>2014-02-16T14:33:58Z</time>
</trkpt>
<trkpt lat="52.61269760131836" lon="13.204882621765137">
<ele>71.4000015258789</ele>
<time>2014-02-16T14:33:59Z</time>
</trkpt>
<trkpt lat="52.612613677978516" lon="13.204886436462402">
<ele>71.30000305175781</ele>
<time>2014-02-16T14:34:01Z</time>
</trkpt>
<trkpt lat="52.612525939941406" lon="13.204890251159668">
<ele>71.0</ele>
<time>2014-02-16T14:34:03Z</time>
</trkpt>
<trkpt lat="52.612483978271484" lon="13.204896926879883">
<ele>70.9000015258789</ele>
<time>2014-02-16T14:34:04Z</time>
</trkpt>
<trkpt lat="52.612396240234375" lon="13.204919815063477">
<ele>70.5999984741211</ele>
<time>2014-02-16T14:34:06Z</time>
</trkpt>
<trkpt lat="52.61235046386719" lon="13.204936027526855">
<ele>70.5999984741211</ele>
<time>2014-02-16T14:34:07Z</time>
</trkpt>
<trkpt lat="52.6123046875" lon="13.20494556427002">
<ele>70.69999694824219</ele>
<time>2014-02-16T14:34:08Z</time>
</trkpt>
<trkpt lat="52.61225891113281" lon="13.204955101013184">
<ele>70.5999984741211</ele>
<time>2014-02-16T14:34:09Z</time>
</trkpt>
<trkpt lat="52.61220932006836" lon="13.204965591430664">
<ele>70.5999984741211</ele>
<time>2014-02-16T14:34:10Z</time>
</trkpt>
<trkpt lat="52.612159729003906" lon="13.204971313476562">
<ele>70.69999694824219</ele>
<time>2014-02-16T14:34:11Z</time>
</trkpt>
<trkpt lat="52.61211395263672" lon="13.20497989654541">
<ele>70.9000015258789</ele>
<time>2014-02-16T14:34:12Z</time>
</trkpt>
<trkpt lat="52.61202621459961" lon="13.20500659942627">
<ele>70.30000305175781</ele>
<time>2014-02-16T14:34:14Z</time>
</trkpt>
<trkpt lat="52.611942291259766" lon="13.20502758026123">
<ele>70.0999984741211</ele>
<time>2014-02-16T14:34:16Z</time>
</trkpt>
<trkpt lat="52.611900329589844" lon="13.205042839050293">
<ele>70.0</ele>
<time>2014-02-16T14:34:17Z</time>
</trkpt>
<trkpt lat="52.611854553222656" lon="13.205056190490723">
<ele>69.80000305175781</ele>
<time>2014-02-16T14:34:18Z</time>
</trkpt>
<trkpt lat="52.61177062988281" lon="13.205084800720215">
<ele>70.0999984741211</ele>
<time>2014-02-16T14:34:20Z</time>
</trkpt>
<trkpt lat="52.611690521240234" lon="13.205106735229492">
<ele>69.69999694824219</ele>
<time>2014-02-16T14:34:22Z</time>
</trkpt>
<trkpt lat="52.611671447753906" lon="13.20501708984375">
<ele>70.0999984741211</ele>
<time>2014-02-16T14:34:23Z</time>
</trkpt>
<trkpt lat="52.61164093017578" lon="13.204887390136719">
<ele>70.30000305175781</ele>
<time>2014-02-16T14:34:25Z</time>
</trkpt>
<trkpt lat="52.61161422729492" lon="13.20474910736084">
<ele>70.5</ele>
<time>2014-02-16T14:34:27Z</time>
</trkpt>
<trkpt lat="52.61159133911133" lon="13.204609870910645">
<ele>70.80000305175781</ele>
<time>2014-02-16T14:34:29Z</time>
</trkpt>
<trkpt lat="52.6115608215332" lon="13.204476356506348">
<ele>71.0</ele>
<time>2014-02-16T14:34:31Z</time>
</trkpt>
<trkpt lat="52.61151123046875" lon="13.204354286193848">
<ele>71.0</ele>
<time>2014-02-16T14:34:33Z</time>
</trkpt>
<trkpt lat="52.61148452758789" lon="13.204297065734863">
<ele>71.0</ele>
<time>2014-02-16T14:34:34Z</time>
</trkpt>
<trkpt lat="52.61141586303711" lon="13.204200744628906">
<ele>70.80000305175781</ele>
<time>2014-02-16T14:34:36Z</time>
</trkpt>
<trkpt lat="52.61134719848633" lon="13.204115867614746">
<ele>70.80000305175781</ele>
<time>2014-02-16T14:34:38Z</time>
</trkpt>
<trkpt lat="52.611270904541016" lon="13.204047203063965">
<ele>70.69999694824219</ele>
<time>2014-02-16T14:34:40Z</time>
</trkpt>
<trkpt lat="52.61118698120117" lon="13.203997611999512">
<ele>70.5</ele>
<time>2014-02-16T14:34:42Z</time>
</trkpt>
<trkpt lat="52.61109924316406" lon="13.203967094421387">
<ele>70.30000305175781</ele>
<time>2014-02-16T14:34:44Z</time>
</trkpt>
<trkpt lat="52.61101150512695" lon="13.20396900177002">
<ele>70.0</ele>
<time>2014-02-16T14:34:46Z</time>
</trkpt>
<trkpt lat="52.610965728759766" lon="13.20396614074707">
<ele>70.0</ele>
<time>2014-02-16T14:34:47Z</time>
</trkpt>
<trkpt lat="52.61088562011719" lon="13.203907012939453">
<ele>69.9000015258789</ele>
<time>2014-02-16T14:34:49Z</time>
</trkpt>
<trkpt lat="52.61079788208008" lon="13.203910827636719">
<ele>69.5999984741211</ele>
<time>2014-02-16T14:34:51Z</time>
</trkpt>
<trkpt lat="52.610748291015625" lon="13.20391845703125">
<ele>69.4000015258789</ele>
<time>2014-02-16T14:34:52Z</time>
</trkpt>
<trkpt lat="52.61070251464844" lon="13.203927040100098">
<ele>69.19999694824219</ele>
<time>2014-02-16T14:34:53Z</time>
</trkpt>
<trkpt lat="52.61065673828125" lon="13.203936576843262">
<ele>69.0</ele>
<time>2014-02-16T14:34:54Z</time>
</trkpt>
<trkpt lat="52.6106071472168" lon="13.20395565032959">
<ele>68.80000305175781</ele>
<time>2014-02-16T14:34:55Z</time>
</trkpt>
<trkpt lat="52.610557556152344" lon="13.203965187072754">
<ele>68.80000305175781</ele>
<time>2014-02-16T14:34:56Z</time>
</trkpt>
<trkpt lat="52.61050796508789" lon="13.20396900177002">
<ele>68.69999694824219</ele>
<time>2014-02-16T14:34:57Z</time>
</trkpt>
<trkpt lat="52.6104621887207" lon="13.203968048095703">
<ele>68.4000015258789</ele>
<time>2014-02-16T14:34:58Z</time>
</trkpt>
<trkpt lat="52.610416412353516" lon="13.203971862792969">
<ele>68.19999694824219</ele>
<time>2014-02-16T14:34:59Z</time>
</trkpt>
<trkpt lat="52.61036682128906" lon="13.203970909118652">
<ele>68.30000305175781</ele>
<time>2014-02-16T14:35:00Z</time>
</trkpt>
<trkpt lat="52.61032485961914" lon="13.20396614074707">
<ele>68.4000015258789</ele>
<time>2014-02-16T14:35:01Z</time>
</trkpt>
<trkpt lat="52.61027526855469" lon="13.20395278930664">
<ele>67.80000305175781</ele>
<time>2014-02-16T14:35:02Z</time>
</trkpt>
<trkpt lat="52.6102294921875" lon="13.203938484191895">
<ele>67.5999984741211</ele>
<time>2014-02-16T14:35:03Z</time>
</trkpt>
<trkpt lat="52.61018371582031" lon="13.203927040100098">
<ele>67.5</ele>
<time>2014-02-16T14:35:04Z</time>
</trkpt>
<trkpt lat="52.61012649536133" lon="13.203903198242188">
<ele>67.30000305175781</ele>
<time>2014-02-16T14:35:05Z</time>
</trkpt>
<trkpt lat="52.61003494262695" lon="13.203857421875">
<ele>66.9000015258789</ele>
<time>2014-02-16T14:35:07Z</time>
</trkpt>
<trkpt lat="52.609989166259766" lon="13.20383358001709">
<ele>67.30000305175781</ele>
<time>2014-02-16T14:35:08Z</time>
</trkpt>
<trkpt lat="52.60993957519531" lon="13.203821182250977">
<ele>67.5999984741211</ele>
<time>2014-02-16T14:35:09Z</time>
</trkpt>
<trkpt lat="52.609893798828125" lon="13.203804016113281">
<ele>67.69999694824219</ele>
<time>2014-02-16T14:35:10Z</time>
</trkpt>
<trkpt lat="52.609806060791016" lon="13.203755378723145">
<ele>66.80000305175781</ele>
<time>2014-02-16T14:35:12Z</time>
</trkpt>
<trkpt lat="52.60972595214844" lon="13.203696250915527">
<ele>66.5</ele>
<time>2014-02-16T14:35:14Z</time>
</trkpt>
<trkpt lat="52.60969161987305" lon="13.203646659851074">
<ele>66.9000015258789</ele>
<time>2014-02-16T14:35:15Z</time>
</trkpt>
<trkpt lat="52.609622955322266" lon="13.203577041625977">
<ele>66.69999694824219</ele>
<time>2014-02-16T14:35:17Z</time>
</trkpt>
<trkpt lat="52.609554290771484" lon="13.203497886657715">
<ele>66.5999984741211</ele>
<time>2014-02-16T14:35:19Z</time>
</trkpt>
<trkpt lat="52.60951614379883" lon="13.203451156616211">
<ele>66.5999984741211</ele>
<time>2014-02-16T14:35:20Z</time>
</trkpt>
<trkpt lat="52.60944747924805" lon="13.203368186950684">
<ele>66.0999984741211</ele>
<time>2014-02-16T14:35:22Z</time>
</trkpt>
<trkpt lat="52.60938262939453" lon="13.203293800354004">
<ele>65.80000305175781</ele>
<time>2014-02-16T14:35:24Z</time>
</trkpt>
<trkpt lat="52.609317779541016" lon="13.203218460083008">
<ele>66.0</ele>
<time>2014-02-16T14:35:26Z</time>
</trkpt>
<trkpt lat="52.609256744384766" lon="13.203139305114746">
<ele>66.5</ele>
<time>2014-02-16T14:35:28Z</time>
</trkpt>
<trkpt lat="52.60919952392578" lon="13.203045845031738">
<ele>66.5</ele>
<time>2014-02-16T14:35:30Z</time>
</trkpt>
<trkpt lat="52.609161376953125" lon="13.202959060668945">
<ele>67.0999984741211</ele>
<time>2014-02-16T14:35:32Z</time>
</trkpt>
<trkpt lat="52.60911560058594" lon="13.20286750793457">
<ele>67.69999694824219</ele>
<time>2014-02-16T14:35:34Z</time>
</trkpt>
<trkpt lat="52.609073638916016" lon="13.202765464782715">
<ele>68.0</ele>
<time>2014-02-16T14:35:36Z</time>
</trkpt>
<trkpt lat="52.60902786254883" lon="13.202672004699707">
<ele>68.5</ele>
<time>2014-02-16T14:35:38Z</time>
</trkpt>
<trkpt lat="52.608978271484375" lon="13.202569961547852">
<ele>68.4000015258789</ele>
<time>2014-02-16T14:35:40Z</time>
</trkpt>
<trkpt lat="52.60892868041992" lon="13.202462196350098">
<ele>68.5</ele>
<time>2014-02-16T14:35:42Z</time>
</trkpt>
<trkpt lat="52.6088752746582" lon="13.202349662780762">
<ele>68.0999984741211</ele>
<time>2014-02-16T14:35:44Z</time>
</trkpt>
<trkpt lat="52.608848571777344" lon="13.202289581298828">
<ele>68.0</ele>
<time>2014-02-16T14:35:45Z</time>
</trkpt>
<trkpt lat="52.60881805419922" lon="13.202230453491211">
<ele>68.0</ele>
<time>2014-02-16T14:35:46Z</time>
</trkpt>
<trkpt lat="52.608760833740234" lon="13.202122688293457">
<ele>67.9000015258789</ele>
<time>2014-02-16T14:35:48Z</time>
</trkpt>
<trkpt lat="52.60870361328125" lon="13.20201301574707">
<ele>67.30000305175781</ele>
<time>2014-02-16T14:35:50Z</time>
</trkpt>
<trkpt lat="52.60866928100586" lon="13.2019624710083">
<ele>67.19999694824219</ele>
<time>2014-02-16T14:35:51Z</time>
</trkpt>
<trkpt lat="52.608619689941406" lon="13.201855659484863">
<ele>67.30000305175781</ele>
<time>2014-02-16T14:35:53Z</time>
</trkpt>
<trkpt lat="52.60857009887695" lon="13.201742172241211">
<ele>67.30000305175781</ele>
<time>2014-02-16T14:35:55Z</time>
</trkpt>
<trkpt lat="52.608516693115234" lon="13.201642990112305">
<ele>67.0999984741211</ele>
<time>2014-02-16T14:35:57Z</time>
</trkpt>
<trkpt lat="52.60845947265625" lon="13.201544761657715">
<ele>67.30000305175781</ele>
<time>2014-02-16T14:35:59Z</time>
</trkpt>
<trkpt lat="52.6083984375" lon="13.20145320892334">
<ele>67.5</ele>
<time>2014-02-16T14:36:01Z</time>
</trkpt>
<trkpt lat="52.60833740234375" lon="13.201358795166016">
<ele>67.69999694824219</ele>
<time>2014-02-16T14:36:03Z</time>
</trkpt>
<trkpt lat="52.6082763671875" lon="13.201268196105957">
<ele>68.0999984741211</ele>
<time>2014-02-16T14:36:05Z</time>
</trkpt>
<trkpt lat="52.60821533203125" lon="13.201179504394531">
<ele>68.30000305175781</ele>
<time>2014-02-16T14:36:07Z</time>
</trkpt>
<trkpt lat="52.608158111572266" lon="13.201090812683105">
<ele>68.30000305175781</ele>
<time>2014-02-16T14:36:09Z</time>
</trkpt>
<trkpt lat="52.60810470581055" lon="13.201005935668945">
<ele>68.19999694824219</ele>
<time>2014-02-16T14:36:11Z</time>
</trkpt>
<trkpt lat="52.60804748535156" lon="13.200916290283203">
<ele>68.5</ele>
<time>2014-02-16T14:36:13Z</time>
</trkpt>
<trkpt lat="52.60799026489258" lon="13.200826644897461">
<ele>68.5999984741211</ele>
<time>2014-02-16T14:36:15Z</time>
</trkpt>
<trkpt lat="52.60793685913086" lon="13.200742721557617">
<ele>68.5999984741211</ele>
<time>2014-02-16T14:36:17Z</time>
</trkpt>
<trkpt lat="52.607872009277344" lon="13.200660705566406">
<ele>68.30000305175781</ele>
<time>2014-02-16T14:36:19Z</time>
</trkpt>
<trkpt lat="52.60780715942383" lon="13.200583457946777">
<ele>68.19999694824219</ele>
<time>2014-02-16T14:36:21Z</time>
</trkpt>
<trkpt lat="52.60773849487305" lon="13.200509071350098">
<ele>68.0999984741211</ele>
<time>2014-02-16T14:36:23Z</time>
</trkpt>
<trkpt lat="52.607669830322266" lon="13.200438499450684">
<ele>68.30000305175781</ele>
<time>2014-02-16T14:36:25Z</time>
</trkpt>
<trkpt lat="52.60759353637695" lon="13.2003755569458">
<ele>68.30000305175781</ele>
<time>2014-02-16T14:36:27Z</time>
</trkpt>
<trkpt lat="52.607521057128906" lon="13.200328826904297">
<ele>68.19999694824219</ele>
<time>2014-02-16T14:36:29Z</time>
</trkpt>
<trkpt lat="52.60744857788086" lon="13.200284004211426">
<ele>68.0999984741211</ele>
<time>2014-02-16T14:36:31Z</time>
</trkpt>
<trkpt lat="52.60737228393555" lon="13.20024299621582">
<ele>67.80000305175781</ele>
<time>2014-02-16T14:36:33Z</time>
</trkpt>
<trkpt lat="52.607295989990234" lon="13.200185775756836">
<ele>67.80000305175781</ele>
<time>2014-02-16T14:36:35Z</time>
</trkpt>
<trkpt lat="52.60722351074219" lon="13.200152397155762">
<ele>68.30000305175781</ele>
<time>2014-02-16T14:36:37Z</time>
</trkpt>
<trkpt lat="52.60714340209961" lon="13.200111389160156">
<ele>68.9000015258789</ele>
<time>2014-02-16T14:36:39Z</time>
</trkpt>
<trkpt lat="52.6070556640625" lon="13.200090408325195">
<ele>69.19999694824219</ele>
<time>2014-02-16T14:36:41Z</time>
</trkpt>
<trkpt lat="52.606971740722656" lon="13.200069427490234">
<ele>69.0999984741211</ele>
<time>2014-02-16T14:36:43Z</time>
</trkpt>
<trkpt lat="52.60688400268555" lon="13.200075149536133">
<ele>69.0</ele>
<time>2014-02-16T14:36:45Z</time>
</trkpt>
<trkpt lat="52.60679244995117" lon="13.200041770935059">
<ele>69.0999984741211</ele>
<time>2014-02-16T14:36:47Z</time>
</trkpt>
<trkpt lat="52.60675048828125" lon="13.200019836425781">
<ele>69.0999984741211</ele>
<time>2014-02-16T14:36:48Z</time>
</trkpt>
<trkpt lat="52.60670471191406" lon="13.199995040893555">
<ele>69.30000305175781</ele>
<time>2014-02-16T14:36:49Z</time>
</trkpt>
<trkpt lat="52.60661315917969" lon="13.199958801269531">
<ele>69.30000305175781</ele>
<time>2014-02-16T14:36:51Z</time>
</trkpt>
<trkpt lat="52.606529235839844" lon="13.199932098388672">
<ele>69.0999984741211</ele>
<time>2014-02-16T14:36:53Z</time>
</trkpt>
<trkpt lat="52.6064453125" lon="13.199906349182129">
<ele>69.4000015258789</ele>
<time>2014-02-16T14:36:55Z</time>
</trkpt>
<trkpt lat="52.606361389160156" lon="13.199888229370117">
<ele>69.19999694824219</ele>
<time>2014-02-16T14:36:57Z</time>
</trkpt>
<trkpt lat="52.60627746582031" lon="13.199858665466309">
<ele>68.9000015258789</ele>
<time>2014-02-16T14:36:59Z</time>
</trkpt>
<trkpt lat="52.60623550415039" lon="13.199833869934082">
<ele>69.0</ele>
<time>2014-02-16T14:37:00Z</time>
</trkpt>
<trkpt lat="52.60615158081055" lon="13.199797630310059">
<ele>68.4000015258789</ele>
<time>2014-02-16T14:37:02Z</time>
</trkpt>
<trkpt lat="52.60606384277344" lon="13.199783325195312">
<ele>68.4000015258789</ele>
<time>2014-02-16T14:37:04Z</time>
</trkpt>
<trkpt lat="52.605979919433594" lon="13.199774742126465">
<ele>68.0</ele>
<time>2014-02-16T14:37:07Z</time>
</trkpt>
<trkpt lat="52.605892181396484" lon="13.199773788452148">
<ele>68.0999984741211</ele>
<time>2014-02-16T14:37:08Z</time>
</trkpt>
<trkpt lat="52.605804443359375" lon="13.199772834777832">
<ele>68.0</ele>
<time>2014-02-16T14:37:10Z</time>
</trkpt>
<trkpt lat="52.60572052001953" lon="13.199769020080566">
<ele>67.80000305175781</ele>
<time>2014-02-16T14:37:13Z</time>
</trkpt>
<trkpt lat="52.60563278198242" lon="13.199776649475098">
<ele>67.5999984741211</ele>
<time>2014-02-16T14:37:15Z</time>
</trkpt>
<trkpt lat="52.60554885864258" lon="13.199780464172363">
<ele>67.9000015258789</ele>
<time>2014-02-16T14:37:16Z</time>
</trkpt>
<trkpt lat="52.60546875" lon="13.199784278869629">
<ele>67.9000015258789</ele>
<time>2014-02-16T14:37:18Z</time>
</trkpt>
<trkpt lat="52.60538864135742" lon="13.199796676635742">
<ele>67.5</ele>
<time>2014-02-16T14:37:20Z</time>
</trkpt>
<trkpt lat="52.605308532714844" lon="13.199816703796387">
<ele>67.69999694824219</ele>
<time>2014-02-16T14:37:22Z</time>
</trkpt>
<trkpt lat="52.605224609375" lon="13.199824333190918">
<ele>67.69999694824219</ele>
<time>2014-02-16T14:37:24Z</time>
</trkpt>
<trkpt lat="52.60514831542969" lon="13.199834823608398">
<ele>67.69999694824219</ele>
<time>2014-02-16T14:37:26Z</time>
</trkpt>
<trkpt lat="52.605064392089844" lon="13.199835777282715">
<ele>66.69999694824219</ele>
<time>2014-02-16T14:37:28Z</time>
</trkpt>
<trkpt lat="52.60498046875" lon="13.19984245300293">
<ele>66.80000305175781</ele>
<time>2014-02-16T14:37:30Z</time>
</trkpt>
<trkpt lat="52.60493469238281" lon="13.199841499328613">
<ele>67.0999984741211</ele>
<time>2014-02-16T14:37:31Z</time>
</trkpt>
<trkpt lat="52.60488510131836" lon="13.199849128723145">
<ele>67.80000305175781</ele>
<time>2014-02-16T14:37:32Z</time>
</trkpt>
<trkpt lat="52.60479736328125" lon="13.199827194213867">
<ele>68.19999694824219</ele>
<time>2014-02-16T14:37:34Z</time>
</trkpt>
<trkpt lat="52.604713439941406" lon="13.199785232543945">
<ele>67.9000015258789</ele>
<time>2014-02-16T14:37:36Z</time>
</trkpt>
<trkpt lat="52.604671478271484" lon="13.199751853942871">
<ele>68.19999694824219</ele>
<time>2014-02-16T14:37:37Z</time>
</trkpt>
<trkpt lat="52.60462951660156" lon="13.19972038269043">
<ele>68.5</ele>
<time>2014-02-16T14:37:38Z</time>
</trkpt>
<trkpt lat="52.60458755493164" lon="13.199692726135254">
<ele>68.5</ele>
<time>2014-02-16T14:37:39Z</time>
</trkpt>
<trkpt lat="52.6045036315918" lon="13.199641227722168">
<ele>68.4000015258789</ele>
<time>2014-02-16T14:37:41Z</time>
</trkpt>
<trkpt lat="52.60441970825195" lon="13.199591636657715">
<ele>68.5</ele>
<time>2014-02-16T14:37:43Z</time>
</trkpt>
<trkpt lat="52.60437774658203" lon="13.199563980102539">
<ele>68.5</ele>
<time>2014-02-16T14:37:44Z</time>
</trkpt>
<trkpt lat="52.60433578491211" lon="13.199539184570312">
<ele>68.30000305175781</ele>
<time>2014-02-16T14:37:45Z</time>
</trkpt>
<trkpt lat="52.604251861572266" lon="13.19948959350586">
<ele>68.4000015258789</ele>
<time>2014-02-16T14:37:47Z</time>
</trkpt>
<trkpt lat="52.60417175292969" lon="13.199450492858887">
<ele>68.5</ele>
<time>2014-02-16T14:37:49Z</time>
</trkpt>
<trkpt lat="52.60409164428711" lon="13.199384689331055">
<ele>69.0</ele>
<time>2014-02-16T14:37:51Z</time>
</trkpt>
<trkpt lat="52.60401916503906" lon="13.199313163757324">
<ele>66.30000305175781</ele>
<time>2014-02-16T14:37:53Z</time>
</trkpt>
<trkpt lat="52.60394287109375" lon="13.199254035949707">
<ele>65.69999694824219</ele>
<time>2014-02-16T14:37:55Z</time>
</trkpt>
<trkpt lat="52.60386276245117" lon="13.19921588897705">
<ele>66.4000015258789</ele>
<time>2014-02-16T14:37:57Z</time>
</trkpt>
<trkpt lat="52.60377502441406" lon="13.19918155670166">
<ele>66.5</ele>
<time>2014-02-16T14:37:59Z</time>
</trkpt>
<trkpt lat="52.60369110107422" lon="13.199161529541016">
<ele>66.5999984741211</ele>
<time>2014-02-16T14:38:01Z</time>
</trkpt>
<trkpt lat="52.603607177734375" lon="13.199187278747559">
<ele>66.4000015258789</ele>
<time>2014-02-16T14:38:03Z</time>
</trkpt>
<trkpt lat="52.60352325439453" lon="13.199207305908203">
<ele>66.30000305175781</ele>
<time>2014-02-16T14:38:05Z</time>
</trkpt>
<trkpt lat="52.60343933105469" lon="13.199254989624023">
<ele>66.4000015258789</ele>
<time>2014-02-16T14:38:07Z</time>
</trkpt>
<trkpt lat="52.603397369384766" lon="13.199294090270996">
<ele>66.19999694824219</ele>
<time>2014-02-16T14:38:08Z</time>
</trkpt>
<trkpt lat="52.603355407714844" lon="13.199331283569336">
<ele>66.30000305175781</ele>
<time>2014-02-16T14:38:09Z</time>
</trkpt>
<trkpt lat="52.603309631347656" lon="13.199371337890625">
<ele>66.80000305175781</ele>
<time>2014-02-16T14:38:10Z</time>
</trkpt>
<trkpt lat="52.603271484375" lon="13.199423789978027">
<ele>67.19999694824219</ele>
<time>2014-02-16T14:38:11Z</time>
</trkpt>
<trkpt lat="52.60322570800781" lon="13.199472427368164">
<ele>67.30000305175781</ele>
<time>2014-02-16T14:38:12Z</time>
</trkpt>
<trkpt lat="52.60318374633789" lon="13.199524879455566">
<ele>67.19999694824219</ele>
<time>2014-02-16T14:38:13Z</time>
</trkpt>
<trkpt lat="52.603145599365234" lon="13.19957447052002">
<ele>67.5999984741211</ele>
<time>2014-02-16T14:38:14Z</time>
</trkpt>
<trkpt lat="52.603111267089844" lon="13.19962215423584">
<ele>67.5999984741211</ele>
<time>2014-02-16T14:38:15Z</time>
</trkpt>
<trkpt lat="52.60307312011719" lon="13.199674606323242">
<ele>67.80000305175781</ele>
<time>2014-02-16T14:38:16Z</time>
</trkpt>
<trkpt lat="52.60303497314453" lon="13.199726104736328">
<ele>67.69999694824219</ele>
<time>2014-02-16T14:38:17Z</time>
</trkpt>
<trkpt lat="52.602996826171875" lon="13.199771881103516">
<ele>68.0999984741211</ele>
<time>2014-02-16T14:38:19Z</time>
</trkpt>
<trkpt lat="52.60295486450195" lon="13.199810981750488">
<ele>68.5999984741211</ele>
<time>2014-02-16T14:38:19Z</time>
</trkpt>
<trkpt lat="52.60291290283203" lon="13.199848175048828">
<ele>68.80000305175781</ele>
<time>2014-02-16T14:38:21Z</time>
</trkpt>
<trkpt lat="52.602821350097656" lon="13.19990348815918">
<ele>68.4000015258789</ele>
<time>2014-02-16T14:38:22Z</time>
</trkpt>
<trkpt lat="52.602779388427734" lon="13.199934005737305">
<ele>68.30000305175781</ele>
<time>2014-02-16T14:38:23Z</time>
</trkpt>
<trkpt lat="52.60273361206055" lon="13.199958801269531">
<ele>67.69999694824219</ele>
<time>2014-02-16T14:38:24Z</time>
</trkpt>
<trkpt lat="52.602691650390625" lon="13.199991226196289">
<ele>68.0</ele>
<time>2014-02-16T14:38:25Z</time>
</trkpt>
<trkpt lat="52.60264587402344" lon="13.200023651123047">
<ele>68.4000015258789</ele>
<time>2014-02-16T14:38:26Z</time>
</trkpt>
<trkpt lat="52.602596282958984" lon="13.200057983398438">
<ele>68.4000015258789</ele>
<time>2014-02-16T14:38:27Z</time>
</trkpt>
<trkpt lat="52.6025505065918" lon="13.20008659362793">
<ele>68.4000015258789</ele>
<time>2014-02-16T14:38:28Z</time>
</trkpt>
<trkpt lat="52.602500915527344" lon="13.200127601623535">
<ele>68.4000015258789</ele>
<time>2014-02-16T14:38:29Z</time>
</trkpt>
<trkpt lat="52.60245132446289" lon="13.20017147064209">
<ele>68.19999694824219</ele>
<time>2014-02-16T14:38:31Z</time>
</trkpt>
<trkpt lat="52.60240936279297" lon="13.200193405151367">
<ele>68.5999984741211</ele>
<time>2014-02-16T14:38:31Z</time>
</trkpt>
<trkpt lat="52.60236358642578" lon="13.20021915435791">
<ele>69.19999694824219</ele>
<time>2014-02-16T14:38:32Z</time>
</trkpt>
<trkpt lat="52.602317810058594" lon="13.200247764587402">
<ele>69.0999984741211</ele>
<time>2014-02-16T14:38:33Z</time>
</trkpt>
<trkpt lat="52.602272033691406" lon="13.200277328491211">
<ele>68.80000305175781</ele>
<time>2014-02-16T14:38:34Z</time>
</trkpt>
<trkpt lat="52.60222625732422" lon="13.200299263000488">
<ele>69.19999694824219</ele>
<time>2014-02-16T14:38:35Z</time>
</trkpt>
<trkpt lat="52.60218048095703" lon="13.20031452178955">
<ele>69.0999984741211</ele>
<time>2014-02-16T14:38:36Z</time>
</trkpt>
<trkpt lat="52.60213088989258" lon="13.200322151184082">
<ele>68.9000015258789</ele>
<time>2014-02-16T14:38:37Z</time>
</trkpt>
<trkpt lat="52.602081298828125" lon="13.200331687927246">
<ele>68.5</ele>
<time>2014-02-16T14:38:38Z</time>
</trkpt>
<trkpt lat="52.60203552246094" lon="13.200334548950195">
<ele>68.69999694824219</ele>
<time>2014-02-16T14:38:39Z</time>
</trkpt>
<trkpt lat="52.60198211669922" lon="13.200346946716309">
<ele>68.4000015258789</ele>
<time>2014-02-16T14:38:40Z</time>
</trkpt>
<trkpt lat="52.60193634033203" lon="13.200359344482422">
<ele>68.5999984741211</ele>
<time>2014-02-16T14:38:41Z</time>
</trkpt>
<trkpt lat="52.60188293457031" lon="13.200373649597168">
<ele>68.5999984741211</ele>
<time>2014-02-16T14:38:42Z</time>
</trkpt>
<trkpt lat="52.60183334350586" lon="13.200386047363281">
<ele>68.80000305175781</ele>
<time>2014-02-16T14:38:43Z</time>
</trkpt>
<trkpt lat="52.601783752441406" lon="13.200398445129395">
<ele>68.69999694824219</ele>
<time>2014-02-16T14:38:44Z</time>
</trkpt>
<trkpt lat="52.60173416137695" lon="13.200410842895508">
<ele>67.9000015258789</ele>
<time>2014-02-16T14:38:45Z</time>
</trkpt>
<trkpt lat="52.6016845703125" lon="13.200433731079102">
<ele>68.0999984741211</ele>
<time>2014-02-16T14:38:46Z</time>
</trkpt>
<trkpt lat="52.60163497924805" lon="13.200444221496582">
<ele>67.9000015258789</ele>
<time>2014-02-16T14:38:47Z</time>
</trkpt>
<trkpt lat="52.60158157348633" lon="13.20044994354248">
<ele>67.80000305175781</ele>
<time>2014-02-16T14:38:48Z</time>
</trkpt>
<trkpt lat="52.60153579711914" lon="13.200471878051758">
<ele>67.5999984741211</ele>
<time>2014-02-16T14:38:49Z</time>
</trkpt>
<trkpt lat="52.60148239135742" lon="13.200485229492188">
<ele>67.19999694824219</ele>
<time>2014-02-16T14:38:50Z</time>
</trkpt>
<trkpt lat="52.6014404296875" lon="13.200507164001465">
<ele>67.30000305175781</ele>
<time>2014-02-16T14:38:51Z</time>
</trkpt>
<trkpt lat="52.60139465332031" lon="13.200526237487793">
<ele>66.9000015258789</ele>
<time>2014-02-16T14:38:52Z</time>
</trkpt>
<trkpt lat="52.60134506225586" lon="13.200545310974121">
<ele>66.9000015258789</ele>
<time>2014-02-16T14:38:53Z</time>
</trkpt>
<trkpt lat="52.601295471191406" lon="13.200557708740234">
<ele>67.0</ele>
<time>2014-02-16T14:38:54Z</time>
</trkpt>
<trkpt lat="52.6012077331543" lon="13.200566291809082">
<ele>67.30000305175781</ele>
<time>2014-02-16T14:38:56Z</time>
</trkpt>
<trkpt lat="52.60111618041992" lon="13.200592041015625">
<ele>68.19999694824219</ele>
<time>2014-02-16T14:38:58Z</time>
</trkpt>
<trkpt lat="52.6010627746582" lon="13.200606346130371">
<ele>68.80000305175781</ele>
<time>2014-02-16T14:38:59Z</time>
</trkpt>
<trkpt lat="52.60096740722656" lon="13.200666427612305">
<ele>68.5</ele>
<time>2014-02-16T14:39:01Z</time>
</trkpt>
<trkpt lat="52.60091781616211" lon="13.200691223144531">
<ele>68.4000015258789</ele>
<time>2014-02-16T14:39:02Z</time>
</trkpt>
<trkpt lat="52.600868225097656" lon="13.200713157653809">
<ele>68.5</ele>
<time>2014-02-16T14:39:03Z</time>
</trkpt>
<trkpt lat="52.6008186340332" lon="13.200732231140137">
<ele>68.5999984741211</ele>
<time>2014-02-16T14:39:04Z</time>
</trkpt>
<trkpt lat="52.60076904296875" lon="13.20076847076416">
<ele>68.9000015258789</ele>
<time>2014-02-16T14:39:05Z</time>
</trkpt>
<trkpt lat="52.60072708129883" lon="13.200810432434082">
<ele>69.19999694824219</ele>
<time>2014-02-16T14:39:06Z</time>
</trkpt>
<trkpt lat="52.60069274902344" lon="13.200867652893066">
<ele>69.5999984741211</ele>
<time>2014-02-16T14:39:07Z</time>
</trkpt>
<trkpt lat="52.60066223144531" lon="13.200927734375">
<ele>69.69999694824219</ele>
<time>2014-02-16T14:39:08Z</time>
</trkpt>
<trkpt lat="52.60062789916992" lon="13.200990676879883">
<ele>69.5</ele>
<time>2014-02-16T14:39:09Z</time>
</trkpt>
<trkpt lat="52.6005973815918" lon="13.201055526733398">
<ele>69.5</ele>
<time>2014-02-16T14:39:10Z</time>
</trkpt>
<trkpt lat="52.60057067871094" lon="13.201115608215332">
<ele>68.9000015258789</ele>
<time>2014-02-16T14:39:11Z</time>
</trkpt>
<trkpt lat="52.60054016113281" lon="13.201175689697266">
<ele>68.4000015258789</ele>
<time>2014-02-16T14:39:12Z</time>
</trkpt>
<trkpt lat="52.60050964355469" lon="13.201255798339844">
<ele>69.80000305175781</ele>
<time>2014-02-16T14:39:13Z</time>
</trkpt>
<trkpt lat="52.6004753112793" lon="13.201308250427246">
<ele>69.30000305175781</ele>
<time>2014-02-16T14:39:14Z</time>
</trkpt>
<trkpt lat="52.600440979003906" lon="13.201358795166016">
<ele>69.4000015258789</ele>
<time>2014-02-16T14:39:15Z</time>
</trkpt>
<trkpt lat="52.60040283203125" lon="13.201407432556152">
<ele>69.5999984741211</ele>
<time>2014-02-16T14:39:16Z</time>
</trkpt>
<trkpt lat="52.60036849975586" lon="13.201454162597656">
<ele>69.5999984741211</ele>
<time>2014-02-16T14:39:17Z</time>
</trkpt>
<trkpt lat="52.60032272338867" lon="13.201489448547363">
<ele>69.69999694824219</ele>
<time>2014-02-16T14:39:18Z</time>
</trkpt>
<trkpt lat="52.60028076171875" lon="13.201521873474121">
<ele>69.80000305175781</ele>
<time>2014-02-16T14:39:19Z</time>
</trkpt>
<trkpt lat="52.6002311706543" lon="13.201539039611816">
<ele>69.9000015258789</ele>
<time>2014-02-16T14:39:20Z</time>
</trkpt>
<trkpt lat="52.60014343261719" lon="13.201563835144043">
<ele>69.9000015258789</ele>
<time>2014-02-16T14:39:22Z</time>
</trkpt>
<trkpt lat="52.60009765625" lon="13.201580047607422">
<ele>69.80000305175781</ele>
<time>2014-02-16T14:39:23Z</time>
</trkpt>
<trkpt lat="52.60004806518555" lon="13.201598167419434">
<ele>69.9000015258789</ele>
<time>2014-02-16T14:39:24Z</time>
</trkpt>
<trkpt lat="52.60000228881836" lon="13.201614379882812">
<ele>69.5999984741211</ele>
<time>2014-02-16T14:39:26Z</time>
</trkpt>
<trkpt lat="52.59990692138672" lon="13.201641082763672">
<ele>70.0999984741211</ele>
<time>2014-02-16T14:39:27Z</time>
</trkpt>
<trkpt lat="52.599857330322266" lon="13.201652526855469">
<ele>70.0</ele>
<time>2014-02-16T14:39:28Z</time>
</trkpt>
<trkpt lat="52.59981155395508" lon="13.201666831970215">
<ele>70.30000305175781</ele>
<time>2014-02-16T14:39:29Z</time>
</trkpt>
<trkpt lat="52.5997200012207" lon="13.201690673828125">
<ele>69.69999694824219</ele>
<time>2014-02-16T14:39:31Z</time>
</trkpt>
<trkpt lat="52.59967041015625" lon="13.201706886291504">
<ele>69.5</ele>
<time>2014-02-16T14:39:32Z</time>
</trkpt>
<trkpt lat="52.59962463378906" lon="13.2017240524292">
<ele>69.5</ele>
<time>2014-02-16T14:39:33Z</time>
</trkpt>
<trkpt lat="52.599571228027344" lon="13.20173168182373">
<ele>69.5</ele>
<time>2014-02-16T14:39:34Z</time>
</trkpt>
<trkpt lat="52.599525451660156" lon="13.201748847961426">
<ele>69.69999694824219</ele>
<time>2014-02-16T14:39:35Z</time>
</trkpt>
<trkpt lat="52.5994758605957" lon="13.201766014099121">
<ele>69.5</ele>
<time>2014-02-16T14:39:36Z</time>
</trkpt>
<trkpt lat="52.59938430786133" lon="13.201787948608398">
<ele>69.80000305175781</ele>
<time>2014-02-16T14:39:38Z</time>
</trkpt>
<trkpt lat="52.599300384521484" lon="13.201811790466309">
<ele>69.5999984741211</ele>
<time>2014-02-16T14:39:40Z</time>
</trkpt>
<trkpt lat="52.59925079345703" lon="13.20182991027832">
<ele>69.5</ele>
<time>2014-02-16T14:39:41Z</time>
</trkpt>
<trkpt lat="52.59920883178711" lon="13.201851844787598">
<ele>69.69999694824219</ele>
<time>2014-02-16T14:39:42Z</time>
</trkpt>
<trkpt lat="52.59916305541992" lon="13.201882362365723">
<ele>69.9000015258789</ele>
<time>2014-02-16T14:39:43Z</time>
</trkpt>
<trkpt lat="52.59912109375" lon="13.20191478729248">
<ele>70.0</ele>
<time>2014-02-16T14:39:44Z</time>
</trkpt>
<trkpt lat="52.59907913208008" lon="13.201963424682617">
<ele>70.0</ele>
<time>2014-02-16T14:39:45Z</time>
</trkpt>
<trkpt lat="52.59904098510742" lon="13.20201301574707">
<ele>69.80000305175781</ele>
<time>2014-02-16T14:39:46Z</time>
</trkpt>
<trkpt lat="52.599002838134766" lon="13.202066421508789">
<ele>69.5999984741211</ele>
<time>2014-02-16T14:39:47Z</time>
</trkpt>
<trkpt lat="52.598968505859375" lon="13.202125549316406">
<ele>69.19999694824219</ele>
<time>2014-02-16T14:39:48Z</time>
</trkpt>
<trkpt lat="52.598907470703125" lon="13.202230453491211">
<ele>69.0999984741211</ele>
<time>2014-02-16T14:39:50Z</time>
</trkpt>
<trkpt lat="52.598873138427734" lon="13.202280044555664">
<ele>69.4000015258789</ele>
<time>2014-02-16T14:39:51Z</time>
</trkpt>
<trkpt lat="52.59880447387695" lon="13.202377319335938">
<ele>68.80000305175781</ele>
<time>2014-02-16T14:39:53Z</time>
</trkpt>
<trkpt lat="52.59877014160156" lon="13.202431678771973">
<ele>69.30000305175781</ele>
<time>2014-02-16T14:39:54Z</time>
</trkpt>
<trkpt lat="52.59873580932617" lon="13.20248794555664">
<ele>69.5</ele>
<time>2014-02-16T14:39:55Z</time>
</trkpt>
<trkpt lat="52.59870529174805" lon="13.202549934387207">
<ele>69.30000305175781</ele>
<time>2014-02-16T14:39:56Z</time>
</trkpt>
<trkpt lat="52.59867477416992" lon="13.202614784240723">
<ele>69.0999984741211</ele>
<time>2014-02-16T14:39:57Z</time>
</trkpt>
<trkpt lat="52.5986442565918" lon="13.202677726745605">
<ele>69.0</ele>
<time>2014-02-16T14:39:58Z</time>
</trkpt>
<trkpt lat="52.5986213684082" lon="13.202742576599121">
<ele>69.0999984741211</ele>
<time>2014-02-16T14:39:59Z</time>
</trkpt>
<trkpt lat="52.59859848022461" lon="13.202808380126953">
<ele>69.0</ele>
<time>2014-02-16T14:40:00Z</time>
</trkpt>
<trkpt lat="52.598575592041016" lon="13.20287799835205">
<ele>69.0</ele>
<time>2014-02-16T14:40:01Z</time>
</trkpt>
<trkpt lat="52.598541259765625" lon="13.203006744384766">
<ele>69.5999984741211</ele>
<time>2014-02-16T14:40:03Z</time>
</trkpt>
<trkpt lat="52.5985221862793" lon="13.20307731628418">
<ele>69.5</ele>
<time>2014-02-16T14:40:04Z</time>
</trkpt>
<trkpt lat="52.5984992980957" lon="13.203150749206543">
<ele>69.5</ele>
<time>2014-02-16T14:40:05Z</time>
</trkpt>
<trkpt lat="52.59843826293945" lon="13.203241348266602">
<ele>67.9000015258789</ele>
<time>2014-02-16T14:40:07Z</time>
</trkpt>
<trkpt lat="52.59839630126953" lon="13.203282356262207">
<ele>67.5999984741211</ele>
<time>2014-02-16T14:40:08Z</time>
</trkpt>
<trkpt lat="52.59834671020508" lon="13.203304290771484">
<ele>67.5999984741211</ele>
<time>2014-02-16T14:40:09Z</time>
</trkpt>
<trkpt lat="52.59830093383789" lon="13.203328132629395">
<ele>67.5999984741211</ele>
<time>2014-02-16T14:40:10Z</time>
</trkpt>
<trkpt lat="52.59824752807617" lon="13.203363418579102">
<ele>67.69999694824219</ele>
<time>2014-02-16T14:40:11Z</time>
</trkpt>
<trkpt lat="52.59819793701172" lon="13.203385353088379">
<ele>67.9000015258789</ele>
<time>2014-02-16T14:40:12Z</time>
</trkpt>
<trkpt lat="52.598148345947266" lon="13.203393936157227">
<ele>68.0</ele>
<time>2014-02-16T14:40:13Z</time>
</trkpt>
<trkpt lat="52.59809494018555" lon="13.203413963317871">
<ele>67.80000305175781</ele>
<time>2014-02-16T14:40:14Z</time>
</trkpt>
<trkpt lat="52.598045349121094" lon="13.203436851501465">
<ele>67.9000015258789</ele>
<time>2014-02-16T14:40:15Z</time>
</trkpt>
<trkpt lat="52.59799575805664" lon="13.203469276428223">
<ele>68.19999694824219</ele>
<time>2014-02-16T14:40:16Z</time>
</trkpt>
<trkpt lat="52.59794998168945" lon="13.203514099121094">
<ele>68.30000305175781</ele>
<time>2014-02-16T14:40:17Z</time>
</trkpt>
<trkpt lat="52.59790802001953" lon="13.203557968139648">
<ele>68.4000015258789</ele>
<time>2014-02-16T14:40:18Z</time>
</trkpt>
<trkpt lat="52.59785842895508" lon="13.20362377166748">
<ele>68.80000305175781</ele>
<time>2014-02-16T14:40:19Z</time>
</trkpt>
<trkpt lat="52.597808837890625" lon="13.203678131103516">
<ele>69.30000305175781</ele>
<time>2014-02-16T14:40:20Z</time>
</trkpt>
<trkpt lat="52.59776306152344" lon="13.203731536865234">
<ele>69.9000015258789</ele>
<time>2014-02-16T14:40:21Z</time>
</trkpt>
<trkpt lat="52.59771728515625" lon="13.203787803649902">
<ele>69.30000305175781</ele>
<time>2014-02-16T14:40:22Z</time>
</trkpt>
<trkpt lat="52.597679138183594" lon="13.20385456085205">
<ele>69.0999984741211</ele>
<time>2014-02-16T14:40:23Z</time>
</trkpt>
<trkpt lat="52.597652435302734" lon="13.203927040100098">
<ele>69.0999984741211</ele>
<time>2014-02-16T14:40:24Z</time>
</trkpt>
<trkpt lat="52.597625732421875" lon="13.204004287719727">
<ele>69.0999984741211</ele>
<time>2014-02-16T14:40:25Z</time>
</trkpt>
<trkpt lat="52.59760284423828" lon="13.204085350036621">
<ele>69.5</ele>
<time>2014-02-16T14:40:26Z</time>
</trkpt>
<trkpt lat="52.59757614135742" lon="13.204168319702148">
<ele>69.5</ele>
<time>2014-02-16T14:40:27Z</time>
</trkpt>
<trkpt lat="52.5975456237793" lon="13.204249382019043">
<ele>69.4000015258789</ele>
<time>2014-02-16T14:40:28Z</time>
</trkpt>
<trkpt lat="52.59751510620117" lon="13.204328536987305">
<ele>69.5999984741211</ele>
<time>2014-02-16T14:40:29Z</time>
</trkpt>
<trkpt lat="52.59748458862305" lon="13.204401016235352">
<ele>69.0</ele>
<time>2014-02-16T14:40:30Z</time>
</trkpt>
<trkpt lat="52.597450256347656" lon="13.204472541809082">
<ele>69.4000015258789</ele>
<time>2014-02-16T14:40:31Z</time>
</trkpt>
<trkpt lat="52.59741973876953" lon="13.204543113708496">
<ele>69.5999984741211</ele>
<time>2014-02-16T14:40:32Z</time>
</trkpt>
<trkpt lat="52.59738540649414" lon="13.204614639282227">
<ele>69.69999694824219</ele>
<time>2014-02-16T14:40:33Z</time>
</trkpt>
<trkpt lat="52.59735870361328" lon="13.204687118530273">
<ele>69.80000305175781</ele>
<time>2014-02-16T14:40:34Z</time>
</trkpt>
<trkpt lat="52.597328186035156" lon="13.204767227172852">
<ele>70.0</ele>
<time>2014-02-16T14:40:35Z</time>
</trkpt>
<trkpt lat="52.59729766845703" lon="13.204850196838379">
<ele>70.5</ele>
<time>2014-02-16T14:40:36Z</time>
</trkpt>
<trkpt lat="52.597267150878906" lon="13.204933166503906">
<ele>70.5999984741211</ele>
<time>2014-02-16T14:40:37Z</time>
</trkpt>
<trkpt lat="52.59723663330078" lon="13.205001831054688">
<ele>70.5</ele>
<time>2014-02-16T14:40:38Z</time>
</trkpt>
<trkpt lat="52.59721374511719" lon="13.20508098602295">
<ele>70.30000305175781</ele>
<time>2014-02-16T14:40:39Z</time>
</trkpt>
<trkpt lat="52.59718704223633" lon="13.205153465270996">
<ele>70.19999694824219</ele>
<time>2014-02-16T14:40:40Z</time>
</trkpt>
<trkpt lat="52.597164154052734" lon="13.205230712890625">
<ele>68.80000305175781</ele>
<time>2014-02-16T14:40:41Z</time>
</trkpt>
<trkpt lat="52.597137451171875" lon="13.205301284790039">
<ele>68.4000015258789</ele>
<time>2014-02-16T14:40:42Z</time>
</trkpt>
<trkpt lat="52.597110748291016" lon="13.205374717712402">
<ele>68.5</ele>
<time>2014-02-16T14:40:43Z</time>
</trkpt>
<trkpt lat="52.597084045410156" lon="13.205451965332031">
<ele>69.0</ele>
<time>2014-02-16T14:40:44Z</time>
</trkpt>
<trkpt lat="52.5970573425293" lon="13.205528259277344">
<ele>69.0</ele>
<time>2014-02-16T14:40:45Z</time>
</trkpt>
<trkpt lat="52.59703063964844" lon="13.205604553222656">
<ele>69.30000305175781</ele>
<time>2014-02-16T14:40:46Z</time>
</trkpt>
<trkpt lat="52.59700393676758" lon="13.205681800842285">
<ele>69.30000305175781</ele>
<time>2014-02-16T14:40:47Z</time>
</trkpt>
<trkpt lat="52.59697341918945" lon="13.20576000213623">
<ele>69.5999984741211</ele>
<time>2014-02-16T14:40:48Z</time>
</trkpt>
<trkpt lat="52.59694290161133" lon="13.205842018127441">
<ele>69.80000305175781</ele>
<time>2014-02-16T14:40:49Z</time>
</trkpt>
<trkpt lat="52.5969123840332" lon="13.20592212677002">
<ele>70.4000015258789</ele>
<time>2014-02-16T14:40:50Z</time>
</trkpt>
<trkpt lat="52.596885681152344" lon="13.206008911132812">
<ele>70.69999694824219</ele>
<time>2014-02-16T14:40:51Z</time>
</trkpt>
<trkpt lat="52.59685516357422" lon="13.206085205078125">
<ele>70.5</ele>
<time>2014-02-16T14:40:52Z</time>
</trkpt>
<trkpt lat="52.596832275390625" lon="13.206158638000488">
<ele>69.9000015258789</ele>
<time>2014-02-16T14:40:53Z</time>
</trkpt>
<trkpt lat="52.59680938720703" lon="13.206228256225586">
<ele>70.0</ele>
<time>2014-02-16T14:40:54Z</time>
</trkpt>
<trkpt lat="52.59678268432617" lon="13.206305503845215">
<ele>69.9000015258789</ele>
<time>2014-02-16T14:40:55Z</time>
</trkpt>
<trkpt lat="52.59675598144531" lon="13.206374168395996">
<ele>69.19999694824219</ele>
<time>2014-02-16T14:40:56Z</time>
</trkpt>
<trkpt lat="52.59672164916992" lon="13.206433296203613">
<ele>69.0999984741211</ele>
<time>2014-02-16T14:40:57Z</time>
</trkpt>
<trkpt lat="52.596675872802734" lon="13.206478118896484">
<ele>68.80000305175781</ele>
<time>2014-02-16T14:40:58Z</time>
</trkpt>
<trkpt lat="52.596614837646484" lon="13.206531524658203">
<ele>68.9000015258789</ele>
<time>2014-02-16T14:40:59Z</time>
</trkpt>
<trkpt lat="52.59657669067383" lon="13.206585884094238">
<ele>69.0</ele>
<time>2014-02-16T14:41:00Z</time>
</trkpt>
<trkpt lat="52.59653854370117" lon="13.206645011901855">
<ele>69.19999694824219</ele>
<time>2014-02-16T14:41:01Z</time>
</trkpt>
<trkpt lat="52.596500396728516" lon="13.206722259521484">
<ele>69.30000305175781</ele>
<time>2014-02-16T14:41:02Z</time>
</trkpt>
<trkpt lat="52.59644317626953" lon="13.206759452819824">
<ele>70.0</ele>
<time>2014-02-16T14:41:03Z</time>
</trkpt>
<trkpt lat="52.596397399902344" lon="13.20679759979248">
<ele>70.5999984741211</ele>
<time>2014-02-16T14:41:04Z</time>
</trkpt>
<trkpt lat="52.59635543823242" lon="13.20684814453125">
<ele>70.69999694824219</ele>
<time>2014-02-16T14:41:05Z</time>
</trkpt>
<trkpt lat="52.59632110595703" lon="13.20692253112793">
<ele>70.5</ele>
<time>2014-02-16T14:41:06Z</time>
</trkpt>
<trkpt lat="52.596290588378906" lon="13.207038879394531">
<ele>71.0</ele>
<time>2014-02-16T14:41:08Z</time>
</trkpt>
<trkpt lat="52.59626007080078" lon="13.207144737243652">
<ele>70.9000015258789</ele>
<time>2014-02-16T14:41:10Z</time>
</trkpt>
<trkpt lat="52.596214294433594" lon="13.207243919372559">
<ele>70.5999984741211</ele>
<time>2014-02-16T14:41:12Z</time>
</trkpt>
<trkpt lat="52.596168518066406" lon="13.207361221313477">
<ele>70.9000015258789</ele>
<time>2014-02-16T14:41:14Z</time>
</trkpt>
<trkpt lat="52.59609603881836" lon="13.207488059997559">
<ele>70.30000305175781</ele>
<time>2014-02-16T14:41:16Z</time>
</trkpt>
<trkpt lat="52.596073150634766" lon="13.207551002502441">
<ele>70.0999984741211</ele>
<time>2014-02-16T14:41:17Z</time>
</trkpt>
<trkpt lat="52.59605026245117" lon="13.20761489868164">
<ele>69.69999694824219</ele>
<time>2014-02-16T14:41:18Z</time>
</trkpt>
<trkpt lat="52.59601974487305" lon="13.207748413085938">
<ele>69.5999984741211</ele>
<time>2014-02-16T14:41:20Z</time>
</trkpt>
<trkpt lat="52.59600830078125" lon="13.2078218460083">
<ele>69.80000305175781</ele>
<time>2014-02-16T14:41:21Z</time>
</trkpt>
<trkpt lat="52.59598922729492" lon="13.207976341247559">
<ele>69.9000015258789</ele>
<time>2014-02-16T14:41:23Z</time>
</trkpt>
<trkpt lat="52.59592056274414" lon="13.20812702178955">
<ele>70.19999694824219</ele>
<time>2014-02-16T14:41:25Z</time>
</trkpt>
<trkpt lat="52.595882415771484" lon="13.20820426940918">
<ele>70.30000305175781</ele>
<time>2014-02-16T14:41:26Z</time>
</trkpt>
<trkpt lat="52.59584426879883" lon="13.208266258239746">
<ele>70.30000305175781</ele>
<time>2014-02-16T14:41:27Z</time>
</trkpt>
<trkpt lat="52.595821380615234" lon="13.208329200744629">
<ele>70.5</ele>
<time>2014-02-16T14:41:28Z</time>
</trkpt>
<trkpt lat="52.59572982788086" lon="13.208490371704102">
<ele>69.69999694824219</ele>
<time>2014-02-16T14:41:30Z</time>
</trkpt>
<trkpt lat="52.59567642211914" lon="13.208569526672363">
<ele>69.19999694824219</ele>
<time>2014-02-16T14:41:31Z</time>
</trkpt>
<trkpt lat="52.595611572265625" lon="13.208688735961914">
<ele>69.19999694824219</ele>
<time>2014-02-16T14:41:33Z</time>
</trkpt>
<trkpt lat="52.59553146362305" lon="13.208815574645996">
<ele>64.5</ele>
<time>2014-02-16T14:41:35Z</time>
</trkpt>
<trkpt lat="52.59548568725586" lon="13.208910942077637">
<ele>66.19999694824219</ele>
<time>2014-02-16T14:41:37Z</time>
</trkpt>
<trkpt lat="52.595462799072266" lon="13.208990097045898">
<ele>68.0999984741211</ele>
<time>2014-02-16T14:41:39Z</time>
</trkpt>
<trkpt lat="52.595428466796875" lon="13.209071159362793">
<ele>70.0999984741211</ele>
<time>2014-02-16T14:41:41Z</time>
</trkpt>
<trkpt lat="52.595401763916016" lon="13.209175109863281">
<ele>69.9000015258789</ele>
<time>2014-02-16T14:41:43Z</time>
</trkpt>
<trkpt lat="52.59538269042969" lon="13.20924186706543">
<ele>69.5999984741211</ele>
<time>2014-02-16T14:41:44Z</time>
</trkpt>
<trkpt lat="52.59535598754883" lon="13.209373474121094">
<ele>69.9000015258789</ele>
<time>2014-02-16T14:41:46Z</time>
</trkpt>
<trkpt lat="52.59532165527344" lon="13.209491729736328">
<ele>69.19999694824219</ele>
<time>2014-02-16T14:41:48Z</time>
</trkpt>
<trkpt lat="52.59527587890625" lon="13.209539413452148">
<ele>71.19999694824219</ele>
<time>2014-02-16T14:41:49Z</time>
</trkpt>
<trkpt lat="52.59523391723633" lon="13.209640502929688">
<ele>70.9000015258789</ele>
<time>2014-02-16T14:41:51Z</time>
</trkpt>
<trkpt lat="52.595176696777344" lon="13.209738731384277">
<ele>71.5999984741211</ele>
<time>2014-02-16T14:41:53Z</time>
</trkpt>
<trkpt lat="52.595123291015625" lon="13.209807395935059">
<ele>71.5999984741211</ele>
<time>2014-02-16T14:41:54Z</time>
</trkpt>
<trkpt lat="52.5950927734375" lon="13.209872245788574">
<ele>72.0</ele>
<time>2014-02-16T14:41:55Z</time>
</trkpt>
<trkpt lat="52.595062255859375" lon="13.209949493408203">
<ele>72.19999694824219</ele>
<time>2014-02-16T14:41:56Z</time>
</trkpt>
<trkpt lat="52.59499740600586" lon="13.21006965637207">
<ele>74.0</ele>
<time>2014-02-16T14:41:58Z</time>
</trkpt>
<trkpt lat="52.5949592590332" lon="13.210119247436523">
<ele>73.4000015258789</ele>
<time>2014-02-16T14:41:59Z</time>
</trkpt>
<trkpt lat="52.59492874145508" lon="13.210185050964355">
<ele>73.5</ele>
<time>2014-02-16T14:42:00Z</time>
</trkpt>
<trkpt lat="52.594879150390625" lon="13.210251808166504">
<ele>72.9000015258789</ele>
<time>2014-02-16T14:42:02Z</time>
</trkpt>
<trkpt lat="52.5948486328125" lon="13.210308074951172">
<ele>73.5999984741211</ele>
<time>2014-02-16T14:42:03Z</time>
</trkpt>
<trkpt lat="52.59477615356445" lon="13.210380554199219">
<ele>73.80000305175781</ele>
<time>2014-02-16T14:42:05Z</time>
</trkpt>
<trkpt lat="52.59471130371094" lon="13.210454940795898">
<ele>74.0999984741211</ele>
<time>2014-02-16T14:42:07Z</time>
</trkpt>
<trkpt lat="52.59467315673828" lon="13.210524559020996">
<ele>74.5999984741211</ele>
<time>2014-02-16T14:42:08Z</time>
</trkpt>
<trkpt lat="52.59461212158203" lon="13.210582733154297">
<ele>72.69999694824219</ele>
<time>2014-02-16T14:42:09Z</time>
</trkpt>
<trkpt lat="52.594573974609375" lon="13.210658073425293">
<ele>73.0</ele>
<time>2014-02-16T14:42:10Z</time>
</trkpt>
<trkpt lat="52.59453201293945" lon="13.210699081420898">
<ele>72.4000015258789</ele>
<time>2014-02-16T14:42:11Z</time>
</trkpt>
<trkpt lat="52.594478607177734" lon="13.210806846618652">
<ele>72.9000015258789</ele>
<time>2014-02-16T14:42:13Z</time>
</trkpt>
<trkpt lat="52.59441375732422" lon="13.21086311340332">
<ele>73.5999984741211</ele>
<time>2014-02-16T14:42:15Z</time>
</trkpt>
<trkpt lat="52.5943717956543" lon="13.210957527160645">
<ele>73.4000015258789</ele>
<time>2014-02-16T14:42:17Z</time>
</trkpt>
<trkpt lat="52.59431838989258" lon="13.211014747619629">
<ele>73.19999694824219</ele>
<time>2014-02-16T14:42:18Z</time>
</trkpt>
<trkpt lat="52.59427261352539" lon="13.211087226867676">
<ele>74.19999694824219</ele>
<time>2014-02-16T14:42:19Z</time>
</trkpt>
<trkpt lat="52.594207763671875" lon="13.211140632629395">
<ele>74.0999984741211</ele>
<time>2014-02-16T14:42:20Z</time>
</trkpt>
<trkpt lat="52.59415817260742" lon="13.21119213104248">
<ele>75.80000305175781</ele>
<time>2014-02-16T14:42:21Z</time>
</trkpt>
<trkpt lat="52.5941047668457" lon="13.211234092712402">
<ele>75.0</ele>
<time>2014-02-16T14:42:22Z</time>
</trkpt>
<trkpt lat="52.594058990478516" lon="13.21127986907959">
<ele>74.80000305175781</ele>
<time>2014-02-16T14:42:23Z</time>
</trkpt>
<trkpt lat="52.594024658203125" lon="13.211350440979004">
<ele>75.80000305175781</ele>
<time>2014-02-16T14:42:24Z</time>
</trkpt>
<trkpt lat="52.59395980834961" lon="13.211420059204102">
<ele>74.0</ele>
<time>2014-02-16T14:42:25Z</time>
</trkpt>
<trkpt lat="52.59390640258789" lon="13.21147346496582">
<ele>72.9000015258789</ele>
<time>2014-02-16T14:42:26Z</time>
</trkpt>
<trkpt lat="52.5938606262207" lon="13.211535453796387">
<ele>72.69999694824219</ele>
<time>2014-02-16T14:42:27Z</time>
</trkpt>
<trkpt lat="52.593807220458984" lon="13.211585998535156">
<ele>72.4000015258789</ele>
<time>2014-02-16T14:42:28Z</time>
</trkpt>
<trkpt lat="52.59375762939453" lon="13.21165943145752">
<ele>72.30000305175781</ele>
<time>2014-02-16T14:42:29Z</time>
</trkpt>
<trkpt lat="52.593727111816406" lon="13.211715698242188">
<ele>72.19999694824219</ele>
<time>2014-02-16T14:42:30Z</time>
</trkpt>
<trkpt lat="52.59368896484375" lon="13.211769104003906">
<ele>72.19999694824219</ele>
<time>2014-02-16T14:42:31Z</time>
</trkpt>
<trkpt lat="52.59366226196289" lon="13.211849212646484">
<ele>71.9000015258789</ele>
<time>2014-02-16T14:42:32Z</time>
</trkpt>
<trkpt lat="52.593597412109375" lon="13.211943626403809">
<ele>71.80000305175781</ele>
<time>2014-02-16T14:42:34Z</time>
</trkpt>
<trkpt lat="52.59355163574219" lon="13.211996078491211">
<ele>71.69999694824219</ele>
<time>2014-02-16T14:42:35Z</time>
</trkpt>
<trkpt lat="52.593509674072266" lon="13.212024688720703">
<ele>71.69999694824219</ele>
<time>2014-02-16T14:42:36Z</time>
</trkpt>
<trkpt lat="52.59345626831055" lon="13.212074279785156">
<ele>71.5</ele>
<time>2014-02-16T14:42:37Z</time>
</trkpt>
<trkpt lat="52.59341812133789" lon="13.212135314941406">
<ele>71.19999694824219</ele>
<time>2014-02-16T14:42:38Z</time>
</trkpt>
<trkpt lat="52.5933723449707" lon="13.212177276611328">
<ele>71.19999694824219</ele>
<time>2014-02-16T14:42:39Z</time>
</trkpt>
<trkpt lat="52.593318939208984" lon="13.212213516235352">
<ele>71.19999694824219</ele>
<time>2014-02-16T14:42:40Z</time>
</trkpt>
<trkpt lat="52.59324645996094" lon="13.21229362487793">
<ele>71.19999694824219</ele>
<time>2014-02-16T14:42:42Z</time>
</trkpt>
<trkpt lat="52.59320831298828" lon="13.212348937988281">
<ele>71.0</ele>
<time>2014-02-16T14:42:43Z</time>
</trkpt>
<trkpt lat="52.59318542480469" lon="13.212454795837402">
<ele>72.0999984741211</ele>
<time>2014-02-16T14:42:44Z</time>
</trkpt>
<trkpt lat="52.593143463134766" lon="13.21250057220459">
<ele>72.19999694824219</ele>
<time>2014-02-16T14:42:45Z</time>
</trkpt>
<trkpt lat="52.59309387207031" lon="13.212564468383789">
<ele>71.9000015258789</ele>
<time>2014-02-16T14:42:46Z</time>
</trkpt>
<trkpt lat="52.5930061340332" lon="13.212642669677734">
<ele>72.0</ele>
<time>2014-02-16T14:42:48Z</time>
</trkpt>
<trkpt lat="52.59296798706055" lon="13.212705612182617">
<ele>71.80000305175781</ele>
<time>2014-02-16T14:42:49Z</time>
</trkpt>
<trkpt lat="52.59290313720703" lon="13.212770462036133">
<ele>71.9000015258789</ele>
<time>2014-02-16T14:42:51Z</time>
</trkpt>
<trkpt lat="52.592838287353516" lon="13.212807655334473">
<ele>69.0999984741211</ele>
<time>2014-02-16T14:42:53Z</time>
</trkpt>
<trkpt lat="52.592796325683594" lon="13.212848663330078">
<ele>68.0999984741211</ele>
<time>2014-02-16T14:42:54Z</time>
</trkpt>
<trkpt lat="52.59272003173828" lon="13.212943077087402">
<ele>67.69999694824219</ele>
<time>2014-02-16T14:42:56Z</time>
</trkpt>
<trkpt lat="52.592620849609375" lon="13.212896347045898">
<ele>67.0</ele>
<time>2014-02-16T14:42:58Z</time>
</trkpt>
<trkpt lat="52.59255599975586" lon="13.212896347045898">
<ele>69.19999694824219</ele>
<time>2014-02-16T14:42:59Z</time>
</trkpt>
<trkpt lat="52.59250259399414" lon="13.212912559509277">
<ele>69.80000305175781</ele>
<time>2014-02-16T14:43:00Z</time>
</trkpt>
<trkpt lat="52.59245300292969" lon="13.212915420532227">
<ele>69.30000305175781</ele>
<time>2014-02-16T14:43:01Z</time>
</trkpt>
<trkpt lat="52.59239959716797" lon="13.212924003601074">
<ele>69.5999984741211</ele>
<time>2014-02-16T14:43:02Z</time>
</trkpt>
<trkpt lat="52.59230041503906" lon="13.21292781829834">
<ele>69.5999984741211</ele>
<time>2014-02-16T14:43:04Z</time>
</trkpt>
<trkpt lat="52.592254638671875" lon="13.212947845458984">
<ele>69.69999694824219</ele>
<time>2014-02-16T14:43:05Z</time>
</trkpt>
<trkpt lat="52.592201232910156" lon="13.212911605834961">
<ele>69.5</ele>
<time>2014-02-16T14:43:06Z</time>
</trkpt>
<trkpt lat="52.5921516418457" lon="13.212907791137695">
<ele>69.5999984741211</ele>
<time>2014-02-16T14:43:07Z</time>
</trkpt>
<trkpt lat="52.592105865478516" lon="13.212898254394531">
<ele>69.69999694824219</ele>
<time>2014-02-16T14:43:08Z</time>
</trkpt>
<trkpt lat="52.5920524597168" lon="13.21289348602295">
<ele>69.0999984741211</ele>
<time>2014-02-16T14:43:09Z</time>
</trkpt>
<trkpt lat="52.59197998046875" lon="13.212924003601074">
<ele>68.4000015258789</ele>
<time>2014-02-16T14:43:11Z</time>
</trkpt>
<trkpt lat="52.5919075012207" lon="13.212912559509277">
<ele>68.9000015258789</ele>
<time>2014-02-16T14:43:13Z</time>
</trkpt>
<trkpt lat="52.591854095458984" lon="13.212913513183594">
<ele>69.19999694824219</ele>
<time>2014-02-16T14:43:14Z</time>
</trkpt>
<trkpt lat="52.5918083190918" lon="13.212894439697266">
<ele>70.19999694824219</ele>
<time>2014-02-16T14:43:15Z</time>
</trkpt>
<trkpt lat="52.59174728393555" lon="13.212929725646973">
<ele>70.5999984741211</ele>
<time>2014-02-16T14:43:17Z</time>
</trkpt>
<trkpt lat="52.591697692871094" lon="13.212935447692871">
<ele>70.4000015258789</ele>
<time>2014-02-16T14:43:18Z</time>
</trkpt>
<trkpt lat="52.591617584228516" lon="13.212898254394531">
<ele>71.5</ele>
<time>2014-02-16T14:43:19Z</time>
</trkpt>
<trkpt lat="52.59152603149414" lon="13.212883949279785">
<ele>70.0999984741211</ele>
<time>2014-02-16T14:43:21Z</time>
</trkpt>
<trkpt lat="52.59148406982422" lon="13.212865829467773">
<ele>69.19999694824219</ele>
<time>2014-02-16T14:43:22Z</time>
</trkpt>
<trkpt lat="52.59139633178711" lon="13.212837219238281">
<ele>69.0</ele>
<time>2014-02-16T14:43:24Z</time>
</trkpt>
<trkpt lat="52.591346740722656" lon="13.212843894958496">
<ele>68.0999984741211</ele>
<time>2014-02-16T14:43:25Z</time>
</trkpt>
<trkpt lat="52.591285705566406" lon="13.212828636169434">
<ele>68.0</ele>
<time>2014-02-16T14:43:26Z</time>
</trkpt>
<trkpt lat="52.591217041015625" lon="13.212803840637207">
<ele>67.9000015258789</ele>
<time>2014-02-16T14:43:27Z</time>
</trkpt>
<trkpt lat="52.59115219116211" lon="13.212791442871094">
<ele>68.19999694824219</ele>
<time>2014-02-16T14:43:28Z</time>
</trkpt>
<trkpt lat="52.591060638427734" lon="13.21278190612793">
<ele>67.80000305175781</ele>
<time>2014-02-16T14:43:29Z</time>
</trkpt>
<trkpt lat="52.590999603271484" lon="13.21277904510498">
<ele>67.80000305175781</ele>
<time>2014-02-16T14:43:30Z</time>
</trkpt>
<trkpt lat="52.5909309387207" lon="13.212770462036133">
<ele>67.5999984741211</ele>
<time>2014-02-16T14:43:31Z</time>
</trkpt>
<trkpt lat="52.590877532958984" lon="13.21277141571045">
<ele>67.5999984741211</ele>
<time>2014-02-16T14:43:32Z</time>
</trkpt>
<trkpt lat="52.590824127197266" lon="13.212786674499512">
<ele>68.0999984741211</ele>
<time>2014-02-16T14:43:33Z</time>
</trkpt>
<trkpt lat="52.590755462646484" lon="13.212760925292969">
<ele>68.5999984741211</ele>
<time>2014-02-16T14:43:34Z</time>
</trkpt>
<trkpt lat="52.59070587158203" lon="13.212786674499512">
<ele>66.5</ele>
<time>2014-02-16T14:43:35Z</time>
</trkpt>
<trkpt lat="52.59065246582031" lon="13.212808609008789">
<ele>65.9000015258789</ele>
<time>2014-02-16T14:43:36Z</time>
</trkpt>
<trkpt lat="52.590599060058594" lon="13.212808609008789">
<ele>65.4000015258789</ele>
<time>2014-02-16T14:43:37Z</time>
</trkpt>
<trkpt lat="52.59055709838867" lon="13.21284008026123">
<ele>66.0</ele>
<time>2014-02-16T14:43:38Z</time>
</trkpt>
<trkpt lat="52.59048080444336" lon="13.212817192077637">
<ele>65.9000015258789</ele>
<time>2014-02-16T14:43:39Z</time>
</trkpt>
<trkpt lat="52.590431213378906" lon="13.212830543518066">
<ele>65.80000305175781</ele>
<time>2014-02-16T14:43:40Z</time>
</trkpt>
<trkpt lat="52.59036636352539" lon="13.212850570678711">
<ele>66.5</ele>
<time>2014-02-16T14:43:41Z</time>
</trkpt>
<trkpt lat="52.590309143066406" lon="13.212854385375977">
<ele>66.0999984741211</ele>
<time>2014-02-16T14:43:42Z</time>
</trkpt>
<trkpt lat="52.590248107910156" lon="13.212883949279785">
<ele>65.69999694824219</ele>
<time>2014-02-16T14:43:43Z</time>
</trkpt>
<trkpt lat="52.59018325805664" lon="13.212898254394531">
<ele>65.80000305175781</ele>
<time>2014-02-16T14:43:44Z</time>
</trkpt>
<trkpt lat="52.590126037597656" lon="13.212891578674316">
<ele>65.0999984741211</ele>
<time>2014-02-16T14:43:45Z</time>
</trkpt>
<trkpt lat="52.59006881713867" lon="13.212900161743164">
<ele>65.0999984741211</ele>
<time>2014-02-16T14:43:46Z</time>
</trkpt>
<trkpt lat="52.59000778198242" lon="13.212911605834961">
<ele>65.5999984741211</ele>
<time>2014-02-16T14:43:47Z</time>
</trkpt>
<trkpt lat="52.58995819091797" lon="13.212922096252441">
<ele>64.5999984741211</ele>
<time>2014-02-16T14:43:48Z</time>
</trkpt>
<trkpt lat="52.589908599853516" lon="13.212931632995605">
<ele>64.69999694824219</ele>
<time>2014-02-16T14:43:49Z</time>
</trkpt>
<trkpt lat="52.5898551940918" lon="13.212940216064453">
<ele>64.5</ele>
<time>2014-02-16T14:43:50Z</time>
</trkpt>
<trkpt lat="52.58980178833008" lon="13.212934494018555">
<ele>64.0999984741211</ele>
<time>2014-02-16T14:43:51Z</time>
</trkpt>
<trkpt lat="52.589744567871094" lon="13.21292781829834">
<ele>63.70000076293945</ele>
<time>2014-02-16T14:43:52Z</time>
</trkpt>
<trkpt lat="52.58968734741211" lon="13.212944984436035">
<ele>63.900001525878906</ele>
<time>2014-02-16T14:43:53Z</time>
</trkpt>
<trkpt lat="52.589637756347656" lon="13.21293830871582">
<ele>63.79999923706055</ele>
<time>2014-02-16T14:43:54Z</time>
</trkpt>
<trkpt lat="52.5895881652832" lon="13.212949752807617">
<ele>64.19999694824219</ele>
<time>2014-02-16T14:43:55Z</time>
</trkpt>
<trkpt lat="52.58953857421875" lon="13.212976455688477">
<ele>64.30000305175781</ele>
<time>2014-02-16T14:43:56Z</time>
</trkpt>
<trkpt lat="52.58949279785156" lon="13.212991714477539">
<ele>63.599998474121094</ele>
<time>2014-02-16T14:43:57Z</time>
</trkpt>
<trkpt lat="52.58944320678711" lon="13.212991714477539">
<ele>63.70000076293945</ele>
<time>2014-02-16T14:43:58Z</time>
</trkpt>
<trkpt lat="52.58939743041992" lon="13.2130126953125">
<ele>63.0</ele>
<time>2014-02-16T14:44:00Z</time>
</trkpt>
<trkpt lat="52.589351654052734" lon="13.213025093078613">
<ele>63.0</ele>
<time>2014-02-16T14:44:01Z</time>
</trkpt>
<trkpt lat="52.58929443359375" lon="13.213011741638184">
<ele>63.5</ele>
<time>2014-02-16T14:44:02Z</time>
</trkpt>
<trkpt lat="52.589229583740234" lon="13.213011741638184">
<ele>63.900001525878906</ele>
<time>2014-02-16T14:44:03Z</time>
</trkpt>
<trkpt lat="52.58916473388672" lon="13.213017463684082">
<ele>64.0</ele>
<time>2014-02-16T14:44:04Z</time>
</trkpt>
<trkpt lat="52.589107513427734" lon="13.213017463684082">
<ele>64.4000015258789</ele>
<time>2014-02-16T14:44:04Z</time>
</trkpt>
<trkpt lat="52.58906173706055" lon="13.213024139404297">
<ele>64.69999694824219</ele>
<time>2014-02-16T14:44:05Z</time>
</trkpt>
<trkpt lat="52.58901596069336" lon="13.213032722473145">
<ele>65.30000305175781</ele>
<time>2014-02-16T14:44:06Z</time>
</trkpt>
<trkpt lat="52.58897018432617" lon="13.213027000427246">
<ele>65.19999694824219</ele>
<time>2014-02-16T14:44:07Z</time>
</trkpt>
<trkpt lat="52.58892059326172" lon="13.213031768798828">
<ele>65.19999694824219</ele>
<time>2014-02-16T14:44:08Z</time>
</trkpt>
<trkpt lat="52.58887481689453" lon="13.213051795959473">
<ele>66.0999984741211</ele>
<time>2014-02-16T14:44:09Z</time>
</trkpt>
<trkpt lat="52.58879852294922" lon="13.21306324005127">
<ele>65.9000015258789</ele>
<time>2014-02-16T14:44:11Z</time>
</trkpt>
<trkpt lat="52.588714599609375" lon="13.21307373046875">
<ele>65.69999694824219</ele>
<time>2014-02-16T14:44:13Z</time>
</trkpt>
<trkpt lat="52.588661193847656" lon="13.213062286376953">
<ele>65.0999984741211</ele>
<time>2014-02-16T14:44:15Z</time>
</trkpt>
<trkpt lat="52.5886116027832" lon="13.21306037902832">
<ele>65.69999694824219</ele>
<time>2014-02-16T14:44:15Z</time>
</trkpt>
<trkpt lat="52.588565826416016" lon="13.213065147399902">
<ele>66.30000305175781</ele>
<time>2014-02-16T14:44:16Z</time>
</trkpt>
<trkpt lat="52.5884895324707" lon="13.213058471679688">
<ele>65.19999694824219</ele>
<time>2014-02-16T14:44:18Z</time>
</trkpt>
<trkpt lat="52.588401794433594" lon="13.213053703308105">
<ele>65.30000305175781</ele>
<time>2014-02-16T14:44:21Z</time>
</trkpt>
<trkpt lat="52.588356018066406" lon="13.213052749633789">
<ele>65.5999984741211</ele>
<time>2014-02-16T14:44:21Z</time>
</trkpt>
<trkpt lat="52.58831024169922" lon="13.213057518005371">
<ele>65.80000305175781</ele>
<time>2014-02-16T14:44:23Z</time>
</trkpt>
<trkpt lat="52.58823013305664" lon="13.2130708694458">
<ele>64.0</ele>
<time>2014-02-16T14:44:24Z</time>
</trkpt>
<trkpt lat="52.588157653808594" lon="13.213074684143066">
<ele>62.900001525878906</ele>
<time>2014-02-16T14:44:26Z</time>
</trkpt>
<trkpt lat="52.58810043334961" lon="13.213089942932129">
<ele>63.599998474121094</ele>
<time>2014-02-16T14:44:27Z</time>
</trkpt>
<trkpt lat="52.58804702758789" lon="13.213122367858887">
<ele>63.099998474121094</ele>
<time>2014-02-16T14:44:28Z</time>
</trkpt>
<trkpt lat="52.58799362182617" lon="13.213144302368164">
<ele>63.099998474121094</ele>
<time>2014-02-16T14:44:30Z</time>
</trkpt>
<trkpt lat="52.58794021606445" lon="13.213171005249023">
<ele>63.70000076293945</ele>
<time>2014-02-16T14:44:30Z</time>
</trkpt>
<trkpt lat="52.587886810302734" lon="13.2131929397583">
<ele>64.0</ele>
<time>2014-02-16T14:44:32Z</time>
</trkpt>
<trkpt lat="52.58784866333008" lon="13.213234901428223">
<ele>63.400001525878906</ele>
<time>2014-02-16T14:44:33Z</time>
</trkpt>
<trkpt lat="52.587799072265625" lon="13.213278770446777">
<ele>63.29999923706055</ele>
<time>2014-02-16T14:44:33Z</time>
</trkpt>
<trkpt lat="52.5877571105957" lon="13.213322639465332">
<ele>63.400001525878906</ele>
<time>2014-02-16T14:44:34Z</time>
</trkpt>
<trkpt lat="52.58771514892578" lon="13.213385581970215">
<ele>63.70000076293945</ele>
<time>2014-02-16T14:44:35Z</time>
</trkpt>
<trkpt lat="52.58766555786133" lon="13.21342945098877">
<ele>64.69999694824219</ele>
<time>2014-02-16T14:44:37Z</time>
</trkpt>
<trkpt lat="52.587608337402344" lon="13.213464736938477">
<ele>66.0999984741211</ele>
<time>2014-02-16T14:44:38Z</time>
</trkpt>
<trkpt lat="52.587554931640625" lon="13.213460922241211">
<ele>67.0</ele>
<time>2014-02-16T14:44:38Z</time>
</trkpt>
<trkpt lat="52.58750915527344" lon="13.213418960571289">
<ele>67.19999694824219</ele>
<time>2014-02-16T14:44:39Z</time>
</trkpt>
<trkpt lat="52.58747863769531" lon="13.213362693786621">
<ele>67.19999694824219</ele>
<time>2014-02-16T14:44:40Z</time>
</trkpt>
<trkpt lat="52.587440490722656" lon="13.213240623474121">
<ele>67.69999694824219</ele>
<time>2014-02-16T14:44:43Z</time>
</trkpt>
<trkpt lat="52.58742141723633" lon="13.21317195892334">
<ele>68.30000305175781</ele>
<time>2014-02-16T14:44:43Z</time>
</trkpt>
<trkpt lat="52.58739471435547" lon="13.213043212890625">
<ele>69.30000305175781</ele>
<time>2014-02-16T14:44:45Z</time>
</trkpt>
<trkpt lat="52.58737564086914" lon="13.212976455688477">
<ele>68.9000015258789</ele>
<time>2014-02-16T14:44:46Z</time>
</trkpt>
<trkpt lat="52.5872917175293" lon="13.212953567504883">
<ele>68.19999694824219</ele>
<time>2014-02-16T14:44:47Z</time>
</trkpt>
<trkpt lat="52.58723068237305" lon="13.212922096252441">
<ele>67.5</ele>
<time>2014-02-16T14:44:48Z</time>
</trkpt>
<trkpt lat="52.58717346191406" lon="13.212903022766113">
<ele>67.30000305175781</ele>
<time>2014-02-16T14:44:49Z</time>
</trkpt>
<trkpt lat="52.587120056152344" lon="13.212883949279785">
<ele>67.4000015258789</ele>
<time>2014-02-16T14:44:50Z</time>
</trkpt>
<trkpt lat="52.587066650390625" lon="13.212862014770508">
<ele>66.69999694824219</ele>
<time>2014-02-16T14:44:51Z</time>
</trkpt>
<trkpt lat="52.58701705932617" lon="13.212843894958496">
<ele>66.30000305175781</ele>
<time>2014-02-16T14:44:52Z</time>
</trkpt>
<trkpt lat="52.586971282958984" lon="13.212836265563965">
<ele>66.5</ele>
<time>2014-02-16T14:44:53Z</time>
</trkpt>
<trkpt lat="52.586910247802734" lon="13.212825775146484">
<ele>66.5</ele>
<time>2014-02-16T14:44:54Z</time>
</trkpt>
<trkpt lat="52.586856842041016" lon="13.212812423706055">
<ele>66.80000305175781</ele>
<time>2014-02-16T14:44:55Z</time>
</trkpt>
<trkpt lat="52.58681106567383" lon="13.212778091430664">
<ele>66.9000015258789</ele>
<time>2014-02-16T14:44:56Z</time>
</trkpt>
<trkpt lat="52.58676528930664" lon="13.212773323059082">
<ele>66.9000015258789</ele>
<time>2014-02-16T14:44:57Z</time>
</trkpt>
<trkpt lat="52.58667755126953" lon="13.212747573852539">
<ele>67.0999984741211</ele>
<time>2014-02-16T14:44:59Z</time>
</trkpt>
<trkpt lat="52.586631774902344" lon="13.212737083435059">
<ele>66.80000305175781</ele>
<time>2014-02-16T14:45:00Z</time>
</trkpt>
<trkpt lat="52.58658218383789" lon="13.212721824645996">
<ele>66.80000305175781</ele>
<time>2014-02-16T14:45:01Z</time>
</trkpt>
<trkpt lat="52.58653259277344" lon="13.2127046585083">
<ele>67.0</ele>
<time>2014-02-16T14:45:02Z</time>
</trkpt>
<trkpt lat="52.58648681640625" lon="13.21269416809082">
<ele>67.19999694824219</ele>
<time>2014-02-16T14:45:03Z</time>
</trkpt>
<trkpt lat="52.5864372253418" lon="13.212677955627441">
<ele>67.4000015258789</ele>
<time>2014-02-16T14:45:04Z</time>
</trkpt>
<trkpt lat="52.586387634277344" lon="13.21265983581543">
<ele>67.9000015258789</ele>
<time>2014-02-16T14:45:05Z</time>
</trkpt>
<trkpt lat="52.586341857910156" lon="13.212647438049316">
<ele>68.4000015258789</ele>
<time>2014-02-16T14:45:06Z</time>
</trkpt>
<trkpt lat="52.58629608154297" lon="13.212638854980469">
<ele>69.0999984741211</ele>
<time>2014-02-16T14:45:07Z</time>
</trkpt>
<trkpt lat="52.58625030517578" lon="13.212637901306152">
<ele>69.19999694824219</ele>
<time>2014-02-16T14:45:08Z</time>
</trkpt>
<trkpt lat="52.58616256713867" lon="13.212620735168457">
<ele>69.4000015258789</ele>
<time>2014-02-16T14:45:10Z</time>
</trkpt>
<trkpt lat="52.58611297607422" lon="13.212601661682129">
<ele>69.19999694824219</ele>
<time>2014-02-16T14:45:11Z</time>
</trkpt>
<trkpt lat="52.586036682128906" lon="13.212579727172852">
<ele>68.5</ele>
<time>2014-02-16T14:45:13Z</time>
</trkpt>
<trkpt lat="52.58596420288086" lon="13.212546348571777">
<ele>67.80000305175781</ele>
<time>2014-02-16T14:45:15Z</time>
</trkpt>
<trkpt lat="52.58588790893555" lon="13.212505340576172">
<ele>67.9000015258789</ele>
<time>2014-02-16T14:45:17Z</time>
</trkpt>
<trkpt lat="52.58585739135742" lon="13.212447166442871">
<ele>67.9000015258789</ele>
<time>2014-02-16T14:45:18Z</time>
</trkpt>
<trkpt lat="52.58585739135742" lon="13.212310791015625">
<ele>68.19999694824219</ele>
<time>2014-02-16T14:45:20Z</time>
</trkpt>
<trkpt lat="52.585853576660156" lon="13.21222972869873">
<ele>67.9000015258789</ele>
<time>2014-02-16T14:45:21Z</time>
</trkpt>
<trkpt lat="52.5858268737793" lon="13.21216106414795">
<ele>67.4000015258789</ele>
<time>2014-02-16T14:45:22Z</time>
</trkpt>
<trkpt lat="52.58578109741211" lon="13.212052345275879">
<ele>66.19999694824219</ele>
<time>2014-02-16T14:45:24Z</time>
</trkpt>
<trkpt lat="52.58574676513672" lon="13.211993217468262">
<ele>65.30000305175781</ele>
<time>2014-02-16T14:45:25Z</time>
</trkpt>
<trkpt lat="52.585716247558594" lon="13.211915969848633">
<ele>65.5999984741211</ele>
<time>2014-02-16T14:45:26Z</time>
</trkpt>
<trkpt lat="52.5856819152832" lon="13.211847305297852">
<ele>64.69999694824219</ele>
<time>2014-02-16T14:45:27Z</time>
</trkpt>
<trkpt lat="52.58562088012695" lon="13.211799621582031">
<ele>65.0</ele>
<time>2014-02-16T14:45:28Z</time>
</trkpt>
<trkpt lat="52.5855712890625" lon="13.211730003356934">
<ele>64.0</ele>
<time>2014-02-16T14:45:29Z</time>
</trkpt>
<trkpt lat="52.58553695678711" lon="13.211670875549316">
<ele>63.79999923706055</ele>
<time>2014-02-16T14:45:30Z</time>
</trkpt>
<trkpt lat="52.585506439208984" lon="13.211536407470703">
<ele>63.900001525878906</ele>
<time>2014-02-16T14:45:31Z</time>
</trkpt>
<trkpt lat="52.585514068603516" lon="13.211446762084961">
<ele>63.400001525878906</ele>
<time>2014-02-16T14:45:32Z</time>
</trkpt>
<trkpt lat="52.58555603027344" lon="13.211338996887207">
<ele>63.79999923706055</ele>
<time>2014-02-16T14:45:34Z</time>
</trkpt>
<trkpt lat="52.58558654785156" lon="13.211224555969238">
<ele>64.5</ele>
<time>2014-02-16T14:45:36Z</time>
</trkpt>
<trkpt lat="52.58562469482422" lon="13.21110725402832">
<ele>65.4000015258789</ele>
<time>2014-02-16T14:45:38Z</time>
</trkpt>
<trkpt lat="52.58559036254883" lon="13.211023330688477">
<ele>57.099998474121094</ele>
<time>2014-02-16T14:45:39Z</time>
</trkpt>
<trkpt lat="52.58559799194336" lon="13.210896492004395">
<ele>55.70000076293945</ele>
<time>2014-02-16T14:45:41Z</time>
</trkpt>
<trkpt lat="52.585628509521484" lon="13.210755348205566">
<ele>55.5</ele>
<time>2014-02-16T14:45:43Z</time>
</trkpt>
<trkpt lat="52.585655212402344" lon="13.210615158081055">
<ele>56.29999923706055</ele>
<time>2014-02-16T14:45:45Z</time>
</trkpt>
<trkpt lat="52.58567428588867" lon="13.210471153259277">
<ele>58.599998474121094</ele>
<time>2014-02-16T14:45:47Z</time>
</trkpt>
<trkpt lat="52.5856819152832" lon="13.210394859313965">
<ele>59.0</ele>
<time>2014-02-16T14:45:48Z</time>
</trkpt>
<trkpt lat="52.58567810058594" lon="13.210262298583984">
<ele>61.400001525878906</ele>
<time>2014-02-16T14:45:50Z</time>
</trkpt>
<trkpt lat="52.585636138916016" lon="13.210138320922852">
<ele>62.0</ele>
<time>2014-02-16T14:45:52Z</time>
</trkpt>
<trkpt lat="52.585601806640625" lon="13.210083961486816">
<ele>62.20000076293945</ele>
<time>2014-02-16T14:45:53Z</time>
</trkpt>
<trkpt lat="52.58554458618164" lon="13.209989547729492">
<ele>62.29999923706055</ele>
<time>2014-02-16T14:45:55Z</time>
</trkpt>
<trkpt lat="52.585506439208984" lon="13.2099027633667">
<ele>57.5</ele>
<time>2014-02-16T14:45:57Z</time>
</trkpt>
<trkpt lat="52.58548355102539" lon="13.209834098815918">
<ele>49.5</ele>
<time>2014-02-16T14:46:00Z</time>
</trkpt>
<trkpt lat="52.5854377746582" lon="13.2098970413208">
<ele>48.099998474121094</ele>
<time>2014-02-16T14:46:04Z</time>
</trkpt>
<trkpt lat="52.58540344238281" lon="13.209991455078125">
<ele>50.20000076293945</ele>
<time>2014-02-16T14:46:06Z</time>
</trkpt>
<trkpt lat="52.58539581298828" lon="13.210066795349121">
<ele>52.79999923706055</ele>
<time>2014-02-16T14:46:08Z</time>
</trkpt>
<trkpt lat="52.58538055419922" lon="13.21019172668457">
<ele>55.900001525878906</ele>
<time>2014-02-16T14:46:10Z</time>
</trkpt>
<trkpt lat="52.58537673950195" lon="13.210297584533691">
<ele>57.29999923706055</ele>
<time>2014-02-16T14:46:12Z</time>
</trkpt>
<trkpt lat="52.585330963134766" lon="13.210412979125977">
<ele>58.599998474121094</ele>
<time>2014-02-16T14:46:14Z</time>
</trkpt>
<trkpt lat="52.58529281616211" lon="13.210548400878906">
<ele>61.599998474121094</ele>
<time>2014-02-16T14:46:15Z</time>
</trkpt>
<trkpt lat="52.585262298583984" lon="13.210626602172852">
<ele>63.0</ele>
<time>2014-02-16T14:46:16Z</time>
</trkpt>
<trkpt lat="52.58523178100586" lon="13.21071720123291">
<ele>65.4000015258789</ele>
<time>2014-02-16T14:46:17Z</time>
</trkpt>
<trkpt lat="52.58515930175781" lon="13.210797309875488">
<ele>67.5999984741211</ele>
<time>2014-02-16T14:46:19Z</time>
</trkpt>
<trkpt lat="52.5850944519043" lon="13.21078872680664">
<ele>68.19999694824219</ele>
<time>2014-02-16T14:46:20Z</time>
</trkpt>
<trkpt lat="52.58504104614258" lon="13.210769653320312">
<ele>67.5</ele>
<time>2014-02-16T14:46:21Z</time>
</trkpt>
<trkpt lat="52.584999084472656" lon="13.210726737976074">
<ele>67.9000015258789</ele>
<time>2014-02-16T14:46:22Z</time>
</trkpt>
<trkpt lat="52.5849494934082" lon="13.210671424865723">
<ele>66.9000015258789</ele>
<time>2014-02-16T14:46:23Z</time>
</trkpt>
<trkpt lat="52.584896087646484" lon="13.210654258728027">
<ele>67.4000015258789</ele>
<time>2014-02-16T14:46:24Z</time>
</trkpt>
<trkpt lat="52.58480453491211" lon="13.210639953613281">
<ele>66.80000305175781</ele>
<time>2014-02-16T14:46:26Z</time>
</trkpt>
<trkpt lat="52.584693908691406" lon="13.210643768310547">
<ele>66.9000015258789</ele>
<time>2014-02-16T14:46:28Z</time>
</trkpt>
<trkpt lat="52.58464050292969" lon="13.210627555847168">
<ele>66.4000015258789</ele>
<time>2014-02-16T14:46:29Z</time>
</trkpt>
<trkpt lat="52.58454513549805" lon="13.2106351852417">
<ele>66.69999694824219</ele>
<time>2014-02-16T14:46:31Z</time>
</trkpt>
<trkpt lat="52.5844841003418" lon="13.210692405700684">
<ele>68.19999694824219</ele>
<time>2014-02-16T14:46:33Z</time>
</trkpt>
<trkpt lat="52.584434509277344" lon="13.210715293884277">
<ele>68.5</ele>
<time>2014-02-16T14:46:34Z</time>
</trkpt>
<trkpt lat="52.58435821533203" lon="13.210740089416504">
<ele>68.69999694824219</ele>
<time>2014-02-16T14:46:36Z</time>
</trkpt>
<trkpt lat="52.58427810668945" lon="13.210774421691895">
<ele>69.0999984741211</ele>
<time>2014-02-16T14:46:38Z</time>
</trkpt>
<trkpt lat="52.58422088623047" lon="13.210808753967285">
<ele>68.4000015258789</ele>
<time>2014-02-16T14:46:39Z</time>
</trkpt>
<trkpt lat="52.58414077758789" lon="13.21085262298584">
<ele>68.19999694824219</ele>
<time>2014-02-16T14:46:41Z</time>
</trkpt>
<trkpt lat="52.58407974243164" lon="13.210963249206543">
<ele>67.30000305175781</ele>
<time>2014-02-16T14:46:43Z</time>
</trkpt>
<trkpt lat="52.58405685424805" lon="13.211087226867676">
<ele>67.0999984741211</ele>
<time>2014-02-16T14:46:45Z</time>
</trkpt>
<trkpt lat="52.584022521972656" lon="13.211150169372559">
<ele>67.0999984741211</ele>
<time>2014-02-16T14:46:46Z</time>
</trkpt>
<trkpt lat="52.5839958190918" lon="13.211262702941895">
<ele>66.5</ele>
<time>2014-02-16T14:46:48Z</time>
</trkpt>
<trkpt lat="52.58396911621094" lon="13.21136474609375">
<ele>67.30000305175781</ele>
<time>2014-02-16T14:46:50Z</time>
</trkpt>
<trkpt lat="52.58391189575195" lon="13.211487770080566">
<ele>67.9000015258789</ele>
<time>2014-02-16T14:46:52Z</time>
</trkpt>
<trkpt lat="52.5838737487793" lon="13.211572647094727">
<ele>69.5</ele>
<time>2014-02-16T14:46:53Z</time>
</trkpt>
<trkpt lat="52.5838508605957" lon="13.211644172668457">
<ele>69.9000015258789</ele>
<time>2014-02-16T14:46:54Z</time>
</trkpt>
<trkpt lat="52.58382797241211" lon="13.211718559265137">
<ele>70.5999984741211</ele>
<time>2014-02-16T14:46:55Z</time>
</trkpt>
<trkpt lat="52.583770751953125" lon="13.211828231811523">
<ele>69.4000015258789</ele>
<time>2014-02-16T14:46:56Z</time>
</trkpt>
<trkpt lat="52.583736419677734" lon="13.21191692352295">
<ele>68.69999694824219</ele>
<time>2014-02-16T14:46:57Z</time>
</trkpt>
<trkpt lat="52.58369445800781" lon="13.211997032165527">
<ele>69.0</ele>
<time>2014-02-16T14:46:58Z</time>
</trkpt>
<trkpt lat="52.58366012573242" lon="13.212079048156738">
<ele>69.19999694824219</ele>
<time>2014-02-16T14:46:59Z</time>
</trkpt>
<trkpt lat="52.58362579345703" lon="13.212153434753418">
<ele>69.0999984741211</ele>
<time>2014-02-16T14:47:00Z</time>
</trkpt>
<trkpt lat="52.583595275878906" lon="13.212230682373047">
<ele>68.5999984741211</ele>
<time>2014-02-16T14:47:01Z</time>
</trkpt>
<trkpt lat="52.58356857299805" lon="13.212316513061523">
<ele>68.4000015258789</ele>
<time>2014-02-16T14:47:02Z</time>
</trkpt>
<trkpt lat="52.58354949951172" lon="13.212406158447266">
<ele>68.80000305175781</ele>
<time>2014-02-16T14:47:03Z</time>
</trkpt>
<trkpt lat="52.58353042602539" lon="13.212492942810059">
<ele>68.9000015258789</ele>
<time>2014-02-16T14:47:04Z</time>
</trkpt>
<trkpt lat="52.58351135253906" lon="13.212567329406738">
<ele>69.9000015258789</ele>
<time>2014-02-16T14:47:05Z</time>
</trkpt>
<trkpt lat="52.583431243896484" lon="13.212617874145508">
<ele>70.4000015258789</ele>
<time>2014-02-16T14:47:07Z</time>
</trkpt>
<trkpt lat="52.58338165283203" lon="13.212628364562988">
<ele>70.30000305175781</ele>
<time>2014-02-16T14:47:08Z</time>
</trkpt>
<trkpt lat="52.583316802978516" lon="13.212631225585938">
<ele>72.5</ele>
<time>2014-02-16T14:47:09Z</time>
</trkpt>
<trkpt lat="52.58327102661133" lon="13.212647438049316">
<ele>73.5</ele>
<time>2014-02-16T14:47:10Z</time>
</trkpt>
<trkpt lat="52.583187103271484" lon="13.21263313293457">
<ele>72.69999694824219</ele>
<time>2014-02-16T14:47:12Z</time>
</trkpt>
<trkpt lat="52.58311080932617" lon="13.212625503540039">
<ele>71.5</ele>
<time>2014-02-16T14:47:14Z</time>
</trkpt>
<trkpt lat="52.58305740356445" lon="13.212617874145508">
<ele>71.0999984741211</ele>
<time>2014-02-16T14:47:15Z</time>
</trkpt>
<trkpt lat="52.58300018310547" lon="13.212629318237305">
<ele>71.19999694824219</ele>
<time>2014-02-16T14:47:16Z</time>
</trkpt>
<trkpt lat="52.58294677734375" lon="13.212640762329102">
<ele>70.80000305175781</ele>
<time>2014-02-16T14:47:17Z</time>
</trkpt>
<trkpt lat="52.58289337158203" lon="13.212644577026367">
<ele>70.9000015258789</ele>
<time>2014-02-16T14:47:18Z</time>
</trkpt>
<trkpt lat="52.58284378051758" lon="13.212666511535645">
<ele>70.80000305175781</ele>
<time>2014-02-16T14:47:19Z</time>
</trkpt>
<trkpt lat="52.582759857177734" lon="13.212746620178223">
<ele>71.0</ele>
<time>2014-02-16T14:47:21Z</time>
</trkpt>
<trkpt lat="52.58271026611328" lon="13.212789535522461">
<ele>71.0999984741211</ele>
<time>2014-02-16T14:47:22Z</time>
</trkpt>
<trkpt lat="52.58265686035156" lon="13.212823867797852">
<ele>71.19999694824219</ele>
<time>2014-02-16T14:47:23Z</time>
</trkpt>
<trkpt lat="52.58261489868164" lon="13.212852478027344">
<ele>71.19999694824219</ele>
<time>2014-02-16T14:47:24Z</time>
</trkpt>
<trkpt lat="52.582576751708984" lon="13.212898254394531">
<ele>71.30000305175781</ele>
<time>2014-02-16T14:47:25Z</time>
</trkpt>
<trkpt lat="52.58253479003906" lon="13.2129545211792">
<ele>71.5999984741211</ele>
<time>2014-02-16T14:47:26Z</time>
</trkpt>
<trkpt lat="52.582489013671875" lon="13.213010787963867">
<ele>72.0</ele>
<time>2014-02-16T14:47:27Z</time>
</trkpt>
<trkpt lat="52.58243942260742" lon="13.21304702758789">
<ele>71.69999694824219</ele>
<time>2014-02-16T14:47:28Z</time>
</trkpt>
<trkpt lat="52.582393646240234" lon="13.213083267211914">
<ele>71.19999694824219</ele>
<time>2014-02-16T14:47:29Z</time>
</trkpt>
<trkpt lat="52.58234786987305" lon="13.213091850280762">
<ele>71.5</ele>
<time>2014-02-16T14:47:30Z</time>
</trkpt>
<trkpt lat="52.5822639465332" lon="13.2130765914917">
<ele>71.30000305175781</ele>
<time>2014-02-16T14:47:32Z</time>
</trkpt>
<trkpt lat="52.58218002319336" lon="13.213098526000977">
<ele>67.80000305175781</ele>
<time>2014-02-16T14:47:34Z</time>
</trkpt>
<trkpt lat="52.582122802734375" lon="13.213103294372559">
<ele>67.0999984741211</ele>
<time>2014-02-16T14:47:35Z</time>
</trkpt>
<trkpt lat="52.58207702636719" lon="13.213104248046875">
<ele>66.0999984741211</ele>
<time>2014-02-16T14:47:36Z</time>
</trkpt>
<trkpt lat="52.582027435302734" lon="13.213106155395508">
<ele>65.5</ele>
<time>2014-02-16T14:47:37Z</time>
</trkpt>
<trkpt lat="52.581939697265625" lon="13.213122367858887">
<ele>65.30000305175781</ele>
<time>2014-02-16T14:47:39Z</time>
</trkpt>
<trkpt lat="52.58189392089844" lon="13.213140487670898">
<ele>67.19999694824219</ele>
<time>2014-02-16T14:47:40Z</time>
</trkpt>
<trkpt lat="52.58183288574219" lon="13.21316909790039">
<ele>67.30000305175781</ele>
<time>2014-02-16T14:47:42Z</time>
</trkpt>
<trkpt lat="52.581764221191406" lon="13.213212013244629">
<ele>67.19999694824219</ele>
<time>2014-02-16T14:47:44Z</time>
</trkpt>
<trkpt lat="52.58171844482422" lon="13.213214874267578">
<ele>67.19999694824219</ele>
<time>2014-02-16T14:47:45Z</time>
</trkpt>
<trkpt lat="52.581626892089844" lon="13.213205337524414">
<ele>67.0999984741211</ele>
<time>2014-02-16T14:47:47Z</time>
</trkpt>
<trkpt lat="52.58155822753906" lon="13.213194847106934">
<ele>66.9000015258789</ele>
<time>2014-02-16T14:47:49Z</time>
</trkpt>
<trkpt lat="52.58148193359375" lon="13.21318531036377">
<ele>66.5</ele>
<time>2014-02-16T14:47:51Z</time>
</trkpt>
<trkpt lat="52.58142852783203" lon="13.213180541992188">
<ele>66.30000305175781</ele>
<time>2014-02-16T14:47:52Z</time>
</trkpt>
<trkpt lat="52.58137893676758" lon="13.213180541992188">
<ele>65.5999984741211</ele>
<time>2014-02-16T14:47:53Z</time>
</trkpt>
<trkpt lat="52.58132553100586" lon="13.213184356689453">
<ele>64.69999694824219</ele>
<time>2014-02-16T14:47:54Z</time>
</trkpt>
<trkpt lat="52.581268310546875" lon="13.213174819946289">
<ele>63.400001525878906</ele>
<time>2014-02-16T14:47:55Z</time>
</trkpt>
<trkpt lat="52.58121109008789" lon="13.213162422180176">
<ele>63.29999923706055</ele>
<time>2014-02-16T14:47:56Z</time>
</trkpt>
<trkpt lat="52.58110046386719" lon="13.213168144226074">
<ele>68.9000015258789</ele>
<time>2014-02-16T14:47:58Z</time>
</trkpt>
<trkpt lat="52.581024169921875" lon="13.213210105895996">
<ele>69.19999694824219</ele>
<time>2014-02-16T14:48:00Z</time>
</trkpt>
<trkpt lat="52.58097457885742" lon="13.213334083557129">
<ele>69.80000305175781</ele>
<time>2014-02-16T14:48:02Z</time>
</trkpt>
<trkpt lat="52.58095169067383" lon="13.213471412658691">
<ele>68.80000305175781</ele>
<time>2014-02-16T14:48:04Z</time>
</trkpt>
<trkpt lat="52.5809440612793" lon="13.213578224182129">
<ele>68.0</ele>
<time>2014-02-16T14:48:06Z</time>
</trkpt>
<trkpt lat="52.58095169067383" lon="13.213713645935059">
<ele>67.5</ele>
<time>2014-02-16T14:48:08Z</time>
</trkpt>
<trkpt lat="52.58094787597656" lon="13.213859558105469">
<ele>66.80000305175781</ele>
<time>2014-02-16T14:48:10Z</time>
</trkpt>
<trkpt lat="52.580963134765625" lon="13.213945388793945">
<ele>66.5</ele>
<time>2014-02-16T14:48:11Z</time>
</trkpt>
<trkpt lat="52.580963134765625" lon="13.214032173156738">
<ele>66.19999694824219</ele>
<time>2014-02-16T14:48:12Z</time>
</trkpt>
<trkpt lat="52.58097457885742" lon="13.21412467956543">
<ele>66.19999694824219</ele>
<time>2014-02-16T14:48:13Z</time>
</trkpt>
<trkpt lat="52.580963134765625" lon="13.214247703552246">
<ele>67.9000015258789</ele>
<time>2014-02-16T14:48:14Z</time>
</trkpt>
<trkpt lat="52.58094787597656" lon="13.21438217163086">
<ele>70.69999694824219</ele>
<time>2014-02-16T14:48:15Z</time>
</trkpt>
<trkpt lat="52.58094787597656" lon="13.214463233947754">
<ele>70.4000015258789</ele>
<time>2014-02-16T14:48:16Z</time>
</trkpt>
<trkpt lat="52.580928802490234" lon="13.214632987976074">
<ele>70.30000305175781</ele>
<time>2014-02-16T14:48:18Z</time>
</trkpt>
<trkpt lat="52.5809211730957" lon="13.214789390563965">
<ele>71.19999694824219</ele>
<time>2014-02-16T14:48:20Z</time>
</trkpt>
<trkpt lat="52.58091354370117" lon="13.21487808227539">
<ele>72.0</ele>
<time>2014-02-16T14:48:21Z</time>
</trkpt>
<trkpt lat="52.58089828491211" lon="13.215028762817383">
<ele>73.0</ele>
<time>2014-02-16T14:48:23Z</time>
</trkpt>
<trkpt lat="52.58088302612305" lon="13.215169906616211">
<ele>73.5999984741211</ele>
<time>2014-02-16T14:48:25Z</time>
</trkpt>
<trkpt lat="52.580867767333984" lon="13.215287208557129">
<ele>72.9000015258789</ele>
<time>2014-02-16T14:48:27Z</time>
</trkpt>
<trkpt lat="52.58085250854492" lon="13.215431213378906">
<ele>72.5</ele>
<time>2014-02-16T14:48:29Z</time>
</trkpt>
<trkpt lat="52.580814361572266" lon="13.215567588806152">
<ele>76.0999984741211</ele>
<time>2014-02-16T14:48:30Z</time>
</trkpt>
<trkpt lat="52.5807991027832" lon="13.215668678283691">
<ele>76.80000305175781</ele>
<time>2014-02-16T14:48:31Z</time>
</trkpt>
<trkpt lat="52.58078384399414" lon="13.215764999389648">
<ele>77.30000305175781</ele>
<time>2014-02-16T14:48:32Z</time>
</trkpt>
<trkpt lat="52.58075714111328" lon="13.215892791748047">
<ele>77.4000015258789</ele>
<time>2014-02-16T14:48:34Z</time>
</trkpt>
<trkpt lat="52.580726623535156" lon="13.215961456298828">
<ele>77.19999694824219</ele>
<time>2014-02-16T14:48:35Z</time>
</trkpt>
<trkpt lat="52.5806999206543" lon="13.216026306152344">
<ele>77.30000305175781</ele>
<time>2014-02-16T14:48:36Z</time>
</trkpt>
<trkpt lat="52.58066177368164" lon="13.216070175170898">
<ele>77.5</ele>
<time>2014-02-16T14:48:37Z</time>
</trkpt>
<trkpt lat="52.580589294433594" lon="13.216170310974121">
<ele>76.9000015258789</ele>
<time>2014-02-16T14:48:39Z</time>
</trkpt>
<trkpt lat="52.58052062988281" lon="13.216230392456055">
<ele>75.69999694824219</ele>
<time>2014-02-16T14:48:41Z</time>
</trkpt>
<trkpt lat="52.580440521240234" lon="13.21629810333252">
<ele>75.4000015258789</ele>
<time>2014-02-16T14:48:43Z</time>
</trkpt>
<trkpt lat="52.580352783203125" lon="13.216341972351074">
<ele>75.0</ele>
<time>2014-02-16T14:48:45Z</time>
</trkpt>
<trkpt lat="52.580265045166016" lon="13.216385841369629">
<ele>75.19999694824219</ele>
<time>2014-02-16T14:48:47Z</time>
</trkpt>
<trkpt lat="52.58021926879883" lon="13.216408729553223">
<ele>75.0</ele>
<time>2014-02-16T14:48:48Z</time>
</trkpt>
<trkpt lat="52.580177307128906" lon="13.216440200805664">
<ele>75.0</ele>
<time>2014-02-16T14:48:49Z</time>
</trkpt>
<trkpt lat="52.58013153076172" lon="13.216456413269043">
<ele>74.9000015258789</ele>
<time>2014-02-16T14:48:50Z</time>
</trkpt>
<trkpt lat="52.580081939697266" lon="13.21647834777832">
<ele>75.19999694824219</ele>
<time>2014-02-16T14:48:51Z</time>
</trkpt>
<trkpt lat="52.58003616333008" lon="13.216486930847168">
<ele>74.5</ele>
<time>2014-02-16T14:48:52Z</time>
</trkpt>
<trkpt lat="52.579986572265625" lon="13.216498374938965">
<ele>73.80000305175781</ele>
<time>2014-02-16T14:48:53Z</time>
</trkpt>
<trkpt lat="52.57993698120117" lon="13.216503143310547">
<ele>73.80000305175781</ele>
<time>2014-02-16T14:48:54Z</time>
</trkpt>
<trkpt lat="52.579891204833984" lon="13.216503143310547">
<ele>73.69999694824219</ele>
<time>2014-02-16T14:48:55Z</time>
</trkpt>
<trkpt lat="52.57984161376953" lon="13.216500282287598">
<ele>73.80000305175781</ele>
<time>2014-02-16T14:48:56Z</time>
</trkpt>
<trkpt lat="52.579795837402344" lon="13.216485023498535">
<ele>73.5999984741211</ele>
<time>2014-02-16T14:48:57Z</time>
</trkpt>
<trkpt lat="52.57970428466797" lon="13.216450691223145">
<ele>72.9000015258789</ele>
<time>2014-02-16T14:48:59Z</time>
</trkpt>
<trkpt lat="52.579654693603516" lon="13.216431617736816">
<ele>72.5</ele>
<time>2014-02-16T14:49:00Z</time>
</trkpt>
<trkpt lat="52.579612731933594" lon="13.216407775878906">
<ele>72.9000015258789</ele>
<time>2014-02-16T14:49:01Z</time>
</trkpt>
<trkpt lat="52.579524993896484" lon="13.216375350952148">
<ele>71.69999694824219</ele>
<time>2014-02-16T14:49:03Z</time>
</trkpt>
<trkpt lat="52.579471588134766" lon="13.216355323791504">
<ele>72.19999694824219</ele>
<time>2014-02-16T14:49:04Z</time>
</trkpt>
<trkpt lat="52.57942199707031" lon="13.216338157653809">
<ele>72.0999984741211</ele>
<time>2014-02-16T14:49:05Z</time>
</trkpt>
<trkpt lat="52.579376220703125" lon="13.216325759887695">
<ele>72.0999984741211</ele>
<time>2014-02-16T14:49:06Z</time>
</trkpt>
<trkpt lat="52.57932662963867" lon="13.216317176818848">
<ele>72.0</ele>
<time>2014-02-16T14:49:07Z</time>
</trkpt>
<trkpt lat="52.579280853271484" lon="13.216301918029785">
<ele>72.0</ele>
<time>2014-02-16T14:49:08Z</time>
</trkpt>
<trkpt lat="52.57923126220703" lon="13.216289520263672">
<ele>72.30000305175781</ele>
<time>2014-02-16T14:49:09Z</time>
</trkpt>
<trkpt lat="52.579139709472656" lon="13.216285705566406">
<ele>71.80000305175781</ele>
<time>2014-02-16T14:49:11Z</time>
</trkpt>
<trkpt lat="52.5790901184082" lon="13.216277122497559">
<ele>71.80000305175781</ele>
<time>2014-02-16T14:49:12Z</time>
</trkpt>
<trkpt lat="52.579044342041016" lon="13.216287612915039">
<ele>72.30000305175781</ele>
<time>2014-02-16T14:49:13Z</time>
</trkpt>
<trkpt lat="52.5789909362793" lon="13.216288566589355">
<ele>72.0999984741211</ele>
<time>2014-02-16T14:49:14Z</time>
</trkpt>
<trkpt lat="52.57889938354492" lon="13.216303825378418">
<ele>72.5999984741211</ele>
<time>2014-02-16T14:49:16Z</time>
</trkpt>
<trkpt lat="52.57883834838867" lon="13.216368675231934">
<ele>72.19999694824219</ele>
<time>2014-02-16T14:49:18Z</time>
</trkpt>
<trkpt lat="52.5788459777832" lon="13.216445922851562">
<ele>72.0999984741211</ele>
<time>2014-02-16T14:49:31Z</time>
</trkpt>
<trkpt lat="52.57875061035156" lon="13.216324806213379">
<ele>73.4000015258789</ele>
<time>2014-02-16T14:53:39Z</time>
</trkpt>
<trkpt lat="52.57866287231445" lon="13.216320037841797">
<ele>70.80000305175781</ele>
<time>2014-02-16T14:53:41Z</time>
</trkpt>
<trkpt lat="52.57857894897461" lon="13.216306686401367">
<ele>70.19999694824219</ele>
<time>2014-02-16T14:53:42Z</time>
</trkpt>
<trkpt lat="52.5784912109375" lon="13.216310501098633">
<ele>70.5</ele>
<time>2014-02-16T14:53:44Z</time>
</trkpt>
<trkpt lat="52.57844543457031" lon="13.216323852539062">
<ele>71.0</ele>
<time>2014-02-16T14:53:46Z</time>
</trkpt>
<trkpt lat="52.5783576965332" lon="13.216358184814453">
<ele>71.30000305175781</ele>
<time>2014-02-16T14:53:47Z</time>
</trkpt>
<trkpt lat="52.578311920166016" lon="13.216385841369629">
<ele>70.80000305175781</ele>
<time>2014-02-16T14:53:48Z</time>
</trkpt>
<trkpt lat="52.57826614379883" lon="13.216408729553223">
<ele>71.0</ele>
<time>2014-02-16T14:53:49Z</time>
</trkpt>
<trkpt lat="52.57822036743164" lon="13.21644115447998">
<ele>71.19999694824219</ele>
<time>2014-02-16T14:53:50Z</time>
</trkpt>
<trkpt lat="52.57817840576172" lon="13.216470718383789">
<ele>71.4000015258789</ele>
<time>2014-02-16T14:53:52Z</time>
</trkpt>
<trkpt lat="52.57814025878906" lon="13.216516494750977">
<ele>71.5</ele>
<time>2014-02-16T14:53:53Z</time>
</trkpt>
<trkpt lat="52.57811737060547" lon="13.21663761138916">
<ele>71.69999694824219</ele>
<time>2014-02-16T14:53:54Z</time>
</trkpt>
<trkpt lat="52.57811737060547" lon="13.216755867004395">
<ele>71.30000305175781</ele>
<time>2014-02-16T14:53:56Z</time>
</trkpt>
<trkpt lat="52.57807922363281" lon="13.216856002807617">
<ele>72.0999984741211</ele>
<time>2014-02-16T14:53:58Z</time>
</trkpt>
<trkpt lat="52.57801818847656" lon="13.216922760009766">
<ele>73.0999984741211</ele>
<time>2014-02-16T14:54:00Z</time>
</trkpt>
<trkpt lat="52.57797622680664" lon="13.216971397399902">
<ele>73.5999984741211</ele>
<time>2014-02-16T14:54:01Z</time>
</trkpt>
<trkpt lat="52.57791519165039" lon="13.217045783996582">
<ele>75.19999694824219</ele>
<time>2014-02-16T14:54:03Z</time>
</trkpt>
<trkpt lat="52.577850341796875" lon="13.217076301574707">
<ele>75.69999694824219</ele>
<time>2014-02-16T14:54:05Z</time>
</trkpt>
<trkpt lat="52.57780456542969" lon="13.21707820892334">
<ele>76.30000305175781</ele>
<time>2014-02-16T14:54:07Z</time>
</trkpt>
<trkpt lat="52.577728271484375" lon="13.2171049118042">
<ele>77.30000305175781</ele>
<time>2014-02-16T14:54:08Z</time>
</trkpt>
<trkpt lat="52.577659606933594" lon="13.21711254119873">
<ele>77.0</ele>
<time>2014-02-16T14:54:10Z</time>
</trkpt>
<trkpt lat="52.57759094238281" lon="13.217122077941895">
<ele>76.69999694824219</ele>
<time>2014-02-16T14:54:12Z</time>
</trkpt>
<trkpt lat="52.577510833740234" lon="13.217130661010742">
<ele>75.69999694824219</ele>
<time>2014-02-16T14:54:14Z</time>
</trkpt>
<trkpt lat="52.57746505737305" lon="13.217131614685059">
<ele>75.0999984741211</ele>
<time>2014-02-16T14:54:15Z</time>
</trkpt>
<trkpt lat="52.577415466308594" lon="13.217137336730957">
<ele>74.80000305175781</ele>
<time>2014-02-16T14:54:16Z</time>
</trkpt>
<trkpt lat="52.57736587524414" lon="13.217145919799805">
<ele>74.5</ele>
<time>2014-02-16T14:54:17Z</time>
</trkpt>
<trkpt lat="52.57731628417969" lon="13.217183113098145">
<ele>74.9000015258789</ele>
<time>2014-02-16T14:54:18Z</time>
</trkpt>
<trkpt lat="52.57727813720703" lon="13.217251777648926">
<ele>74.69999694824219</ele>
<time>2014-02-16T14:54:19Z</time>
</trkpt>
<trkpt lat="52.577232360839844" lon="13.21732234954834">
<ele>74.4000015258789</ele>
<time>2014-02-16T14:54:20Z</time>
</trkpt>
<trkpt lat="52.57718276977539" lon="13.217382431030273">
<ele>74.80000305175781</ele>
<time>2014-02-16T14:54:21Z</time>
</trkpt>
<trkpt lat="52.57712936401367" lon="13.21743392944336">
<ele>74.5999984741211</ele>
<time>2014-02-16T14:54:22Z</time>
</trkpt>
<trkpt lat="52.57706832885742" lon="13.217486381530762">
<ele>74.5999984741211</ele>
<time>2014-02-16T14:54:23Z</time>
</trkpt>
<trkpt lat="52.577003479003906" lon="13.217528343200684">
<ele>74.19999694824219</ele>
<time>2014-02-16T14:54:24Z</time>
</trkpt>
<trkpt lat="52.576927185058594" lon="13.217584609985352">
<ele>74.9000015258789</ele>
<time>2014-02-16T14:54:25Z</time>
</trkpt>
<trkpt lat="52.57686996459961" lon="13.217635154724121">
<ele>74.5999984741211</ele>
<time>2014-02-16T14:54:26Z</time>
</trkpt>
<trkpt lat="52.57680892944336" lon="13.217693328857422">
<ele>74.9000015258789</ele>
<time>2014-02-16T14:54:27Z</time>
</trkpt>
<trkpt lat="52.576759338378906" lon="13.217753410339355">
<ele>75.4000015258789</ele>
<time>2014-02-16T14:54:28Z</time>
</trkpt>
<trkpt lat="52.57670974731445" lon="13.21781063079834">
<ele>75.4000015258789</ele>
<time>2014-02-16T14:54:29Z</time>
</trkpt>
<trkpt lat="52.57666015625" lon="13.21786880493164">
<ele>74.9000015258789</ele>
<time>2014-02-16T14:54:30Z</time>
</trkpt>
<trkpt lat="52.57661819458008" lon="13.217940330505371">
<ele>74.5</ele>
<time>2014-02-16T14:54:31Z</time>
</trkpt>
<trkpt lat="52.57658004760742" lon="13.218011856079102">
<ele>74.5999984741211</ele>
<time>2014-02-16T14:54:32Z</time>
</trkpt>
<trkpt lat="52.57654571533203" lon="13.218096733093262">
<ele>74.69999694824219</ele>
<time>2014-02-16T14:54:33Z</time>
</trkpt>
<trkpt lat="52.576507568359375" lon="13.218179702758789">
<ele>74.5</ele>
<time>2014-02-16T14:54:34Z</time>
</trkpt>
<trkpt lat="52.57647705078125" lon="13.218268394470215">
<ele>74.19999694824219</ele>
<time>2014-02-16T14:54:35Z</time>
</trkpt>
<trkpt lat="52.57643127441406" lon="13.218366622924805">
<ele>74.30000305175781</ele>
<time>2014-02-16T14:54:36Z</time>
</trkpt>
<trkpt lat="52.57638931274414" lon="13.218443870544434">
<ele>74.30000305175781</ele>
<time>2014-02-16T14:54:37Z</time>
</trkpt>
<trkpt lat="52.57635498046875" lon="13.218523979187012">
<ele>74.0999984741211</ele>
<time>2014-02-16T14:54:38Z</time>
</trkpt>
<trkpt lat="52.57632064819336" lon="13.218605041503906">
<ele>73.80000305175781</ele>
<time>2014-02-16T14:54:39Z</time>
</trkpt>
<trkpt lat="52.5762825012207" lon="13.218689918518066">
<ele>73.69999694824219</ele>
<time>2014-02-16T14:54:40Z</time>
</trkpt>
<trkpt lat="52.57624435424805" lon="13.21877384185791">
<ele>73.69999694824219</ele>
<time>2014-02-16T14:54:41Z</time>
</trkpt>
<trkpt lat="52.576202392578125" lon="13.218849182128906">
<ele>73.30000305175781</ele>
<time>2014-02-16T14:54:42Z</time>
</trkpt>
<trkpt lat="52.5761604309082" lon="13.21892261505127">
<ele>73.5999984741211</ele>
<time>2014-02-16T14:54:43Z</time>
</trkpt>
<trkpt lat="52.576114654541016" lon="13.218977928161621">
<ele>73.69999694824219</ele>
<time>2014-02-16T14:54:44Z</time>
</trkpt>
<trkpt lat="52.5760612487793" lon="13.219034194946289">
<ele>73.80000305175781</ele>
<time>2014-02-16T14:54:45Z</time>
</trkpt>
<trkpt lat="52.57600784301758" lon="13.219083786010742">
<ele>74.0</ele>
<time>2014-02-16T14:54:46Z</time>
</trkpt>
<trkpt lat="52.57595443725586" lon="13.219130516052246">
<ele>74.19999694824219</ele>
<time>2014-02-16T14:54:47Z</time>
</trkpt>
<trkpt lat="52.57590103149414" lon="13.219171524047852">
<ele>74.30000305175781</ele>
<time>2014-02-16T14:54:48Z</time>
</trkpt>
<trkpt lat="52.57584762573242" lon="13.219207763671875">
<ele>74.5999984741211</ele>
<time>2014-02-16T14:54:49Z</time>
</trkpt>
<trkpt lat="52.5757942199707" lon="13.21924114227295">
<ele>74.80000305175781</ele>
<time>2014-02-16T14:54:50Z</time>
</trkpt>
<trkpt lat="52.575740814208984" lon="13.219264030456543">
<ele>74.30000305175781</ele>
<time>2014-02-16T14:54:51Z</time>
</trkpt>
<trkpt lat="52.575687408447266" lon="13.219284057617188">
<ele>73.9000015258789</ele>
<time>2014-02-16T14:54:52Z</time>
</trkpt>
<trkpt lat="52.57563400268555" lon="13.219303131103516">
<ele>73.80000305175781</ele>
<time>2014-02-16T14:54:53Z</time>
</trkpt>
<trkpt lat="52.57557678222656" lon="13.219324111938477">
<ele>73.69999694824219</ele>
<time>2014-02-16T14:54:54Z</time>
</trkpt>
<trkpt lat="52.575523376464844" lon="13.219340324401855">
<ele>73.5</ele>
<time>2014-02-16T14:54:55Z</time>
</trkpt>
<trkpt lat="52.575469970703125" lon="13.219362258911133">
<ele>73.30000305175781</ele>
<time>2014-02-16T14:54:56Z</time>
</trkpt>
<trkpt lat="52.575416564941406" lon="13.21938705444336">
<ele>73.5</ele>
<time>2014-02-16T14:54:57Z</time>
</trkpt>
<trkpt lat="52.57536315917969" lon="13.219411849975586">
<ele>74.0</ele>
<time>2014-02-16T14:54:58Z</time>
</trkpt>
<trkpt lat="52.57530975341797" lon="13.219441413879395">
<ele>73.9000015258789</ele>
<time>2014-02-16T14:54:59Z</time>
</trkpt>
<trkpt lat="52.57525634765625" lon="13.219478607177734">
<ele>73.5</ele>
<time>2014-02-16T14:55:00Z</time>
</trkpt>
<trkpt lat="52.575199127197266" lon="13.219531059265137">
<ele>73.69999694824219</ele>
<time>2014-02-16T14:55:01Z</time>
</trkpt>
<trkpt lat="52.57514953613281" lon="13.219587326049805">
<ele>73.5</ele>
<time>2014-02-16T14:55:02Z</time>
</trkpt>
<trkpt lat="52.57509994506836" lon="13.21964168548584">
<ele>73.80000305175781</ele>
<time>2014-02-16T14:55:03Z</time>
</trkpt>
<trkpt lat="52.57505798339844" lon="13.219707489013672">
<ele>73.80000305175781</ele>
<time>2014-02-16T14:55:04Z</time>
</trkpt>
<trkpt lat="52.57501220703125" lon="13.21977710723877">
<ele>73.5999984741211</ele>
<time>2014-02-16T14:55:05Z</time>
</trkpt>
<trkpt lat="52.57497024536133" lon="13.219847679138184">
<ele>73.80000305175781</ele>
<time>2014-02-16T14:55:06Z</time>
</trkpt>
<trkpt lat="52.574928283691406" lon="13.219910621643066">
<ele>74.19999694824219</ele>
<time>2014-02-16T14:55:07Z</time>
</trkpt>
<trkpt lat="52.57488250732422" lon="13.21997356414795">
<ele>74.19999694824219</ele>
<time>2014-02-16T14:55:08Z</time>
</trkpt>
<trkpt lat="52.5748405456543" lon="13.2200288772583">
<ele>74.19999694824219</ele>
<time>2014-02-16T14:55:09Z</time>
</trkpt>
<trkpt lat="52.57479476928711" lon="13.220091819763184">
<ele>74.19999694824219</ele>
<time>2014-02-16T14:55:10Z</time>
</trkpt>
<trkpt lat="52.57475280761719" lon="13.220154762268066">
<ele>74.4000015258789</ele>
<time>2014-02-16T14:55:11Z</time>
</trkpt>
<trkpt lat="52.574710845947266" lon="13.22021484375">
<ele>74.4000015258789</ele>
<time>2014-02-16T14:55:12Z</time>
</trkpt>
<trkpt lat="52.57466506958008" lon="13.2202730178833">
<ele>74.19999694824219</ele>
<time>2014-02-16T14:55:13Z</time>
</trkpt>
<trkpt lat="52.57463073730469" lon="13.220335960388184">
<ele>74.0</ele>
<time>2014-02-16T14:55:14Z</time>
</trkpt>
<trkpt lat="52.574588775634766" lon="13.220402717590332">
<ele>74.0</ele>
<time>2014-02-16T14:55:15Z</time>
</trkpt>
<trkpt lat="52.57454299926758" lon="13.220464706420898">
<ele>74.30000305175781</ele>
<time>2014-02-16T14:55:16Z</time>
</trkpt>
<trkpt lat="52.57450485229492" lon="13.220527648925781">
<ele>74.0999984741211</ele>
<time>2014-02-16T14:55:17Z</time>
</trkpt>
<trkpt lat="52.574466705322266" lon="13.22059154510498">
<ele>73.9000015258789</ele>
<time>2014-02-16T14:55:18Z</time>
</trkpt>
<trkpt lat="52.574424743652344" lon="13.220654487609863">
<ele>73.5</ele>
<time>2014-02-16T14:55:19Z</time>
</trkpt>
<trkpt lat="52.57437515258789" lon="13.220720291137695">
<ele>73.4000015258789</ele>
<time>2014-02-16T14:55:20Z</time>
</trkpt>
<trkpt lat="52.574337005615234" lon="13.220787048339844">
<ele>73.80000305175781</ele>
<time>2014-02-16T14:55:21Z</time>
</trkpt>
<trkpt lat="52.57429504394531" lon="13.220860481262207">
<ele>73.69999694824219</ele>
<time>2014-02-16T14:55:22Z</time>
</trkpt>
<trkpt lat="52.57426452636719" lon="13.220939636230469">
<ele>73.5</ele>
<time>2014-02-16T14:55:23Z</time>
</trkpt>
<trkpt lat="52.57423400878906" lon="13.221019744873047">
<ele>73.4000015258789</ele>
<time>2014-02-16T14:55:24Z</time>
</trkpt>
<trkpt lat="52.57420349121094" lon="13.221099853515625">
<ele>73.0999984741211</ele>
<time>2014-02-16T14:55:25Z</time>
</trkpt>
<trkpt lat="52.57417297363281" lon="13.22118091583252">
<ele>73.69999694824219</ele>
<time>2014-02-16T14:55:26Z</time>
</trkpt>
<trkpt lat="52.57414245605469" lon="13.22126579284668">
<ele>73.4000015258789</ele>
<time>2014-02-16T14:55:27Z</time>
</trkpt>
<trkpt lat="52.574119567871094" lon="13.221346855163574">
<ele>73.30000305175781</ele>
<time>2014-02-16T14:55:28Z</time>
</trkpt>
<trkpt lat="52.5740966796875" lon="13.221430778503418">
<ele>73.30000305175781</ele>
<time>2014-02-16T14:55:29Z</time>
</trkpt>
<trkpt lat="52.574066162109375" lon="13.22150993347168">
<ele>73.0999984741211</ele>
<time>2014-02-16T14:55:30Z</time>
</trkpt>
<trkpt lat="52.574039459228516" lon="13.221590042114258">
<ele>73.30000305175781</ele>
<time>2014-02-16T14:55:31Z</time>
</trkpt>
<trkpt lat="52.57400894165039" lon="13.221667289733887">
<ele>73.0999984741211</ele>
<time>2014-02-16T14:55:32Z</time>
</trkpt>
<trkpt lat="52.573978424072266" lon="13.22175407409668">
<ele>73.19999694824219</ele>
<time>2014-02-16T14:55:33Z</time>
</trkpt>
<trkpt lat="52.573951721191406" lon="13.22183895111084">
<ele>73.19999694824219</ele>
<time>2014-02-16T14:55:34Z</time>
</trkpt>
<trkpt lat="52.57392120361328" lon="13.221920013427734">
<ele>73.30000305175781</ele>
<time>2014-02-16T14:55:35Z</time>
</trkpt>
<trkpt lat="52.57389450073242" lon="13.22199535369873">
<ele>73.19999694824219</ele>
<time>2014-02-16T14:55:36Z</time>
</trkpt>
<trkpt lat="52.57387161254883" lon="13.222076416015625">
<ele>73.5999984741211</ele>
<time>2014-02-16T14:55:37Z</time>
</trkpt>
<trkpt lat="52.5738525390625" lon="13.222161293029785">
<ele>74.0</ele>
<time>2014-02-16T14:55:38Z</time>
</trkpt>
<trkpt lat="52.57382583618164" lon="13.222250938415527">
<ele>74.0999984741211</ele>
<time>2014-02-16T14:55:39Z</time>
</trkpt>
<trkpt lat="52.57380294799805" lon="13.222335815429688">
<ele>74.19999694824219</ele>
<time>2014-02-16T14:55:40Z</time>
</trkpt>
<trkpt lat="52.57378005981445" lon="13.222416877746582">
<ele>74.0</ele>
<time>2014-02-16T14:55:41Z</time>
</trkpt>
<trkpt lat="52.573753356933594" lon="13.22251033782959">
<ele>73.5999984741211</ele>
<time>2014-02-16T14:55:42Z</time>
</trkpt>
<trkpt lat="52.5737190246582" lon="13.222599983215332">
<ele>74.0</ele>
<time>2014-02-16T14:55:43Z</time>
</trkpt>
<trkpt lat="52.57368087768555" lon="13.222676277160645">
<ele>74.0999984741211</ele>
<time>2014-02-16T14:55:44Z</time>
</trkpt>
<trkpt lat="52.573646545410156" lon="13.222752571105957">
<ele>74.0999984741211</ele>
<time>2014-02-16T14:55:45Z</time>
</trkpt>
<trkpt lat="52.5736083984375" lon="13.222817420959473">
<ele>73.9000015258789</ele>
<time>2014-02-16T14:55:46Z</time>
</trkpt>
<trkpt lat="52.57355880737305" lon="13.222870826721191">
<ele>73.69999694824219</ele>
<time>2014-02-16T14:55:47Z</time>
</trkpt>
<trkpt lat="52.57351303100586" lon="13.222925186157227">
<ele>73.30000305175781</ele>
<time>2014-02-16T14:55:48Z</time>
</trkpt>
<trkpt lat="52.573455810546875" lon="13.22295093536377">
<ele>73.0</ele>
<time>2014-02-16T14:55:49Z</time>
</trkpt>
<trkpt lat="52.573394775390625" lon="13.22291088104248">
<ele>72.5</ele>
<time>2014-02-16T14:55:52Z</time>
</trkpt>
<trkpt lat="52.57332229614258" lon="13.22287368774414">
<ele>71.0999984741211</ele>
<time>2014-02-16T14:55:56Z</time>
</trkpt>
<trkpt lat="52.57327651977539" lon="13.222846984863281">
<ele>70.30000305175781</ele>
<time>2014-02-16T14:55:58Z</time>
</trkpt>
<trkpt lat="52.573219299316406" lon="13.222847938537598">
<ele>68.80000305175781</ele>
<time>2014-02-16T14:56:14Z</time>
</trkpt>
<trkpt lat="52.57316970825195" lon="13.222855567932129">
<ele>68.80000305175781</ele>
<time>2014-02-16T14:56:16Z</time>
</trkpt>
<trkpt lat="52.573097229003906" lon="13.222840309143066">
<ele>70.0</ele>
<time>2014-02-16T14:56:19Z</time>
</trkpt>
<trkpt lat="52.57305908203125" lon="13.22271728515625">
<ele>71.19999694824219</ele>
<time>2014-02-16T14:56:21Z</time>
</trkpt>
<trkpt lat="52.57304000854492" lon="13.222651481628418">
<ele>71.0999984741211</ele>
<time>2014-02-16T14:56:22Z</time>
</trkpt>
<trkpt lat="52.573020935058594" lon="13.222578048706055">
<ele>71.30000305175781</ele>
<time>2014-02-16T14:56:23Z</time>
</trkpt>
<trkpt lat="52.57300567626953" lon="13.222503662109375">
<ele>71.5</ele>
<time>2014-02-16T14:56:24Z</time>
</trkpt>
<trkpt lat="52.5730094909668" lon="13.222402572631836">
<ele>71.0</ele>
<time>2014-02-16T14:56:26Z</time>
</trkpt>
<trkpt lat="52.572998046875" lon="13.222293853759766">
<ele>71.19999694824219</ele>
<time>2014-02-16T14:56:28Z</time>
</trkpt>
<trkpt lat="52.57298278808594" lon="13.222206115722656">
<ele>70.0</ele>
<time>2014-02-16T14:56:30Z</time>
</trkpt>
<trkpt lat="52.57293701171875" lon="13.222142219543457">
<ele>67.5999984741211</ele>
<time>2014-02-16T14:56:33Z</time>
</trkpt>
<trkpt lat="52.57292556762695" lon="13.222064971923828">
<ele>69.5</ele>
<time>2014-02-16T14:56:36Z</time>
</trkpt>
<trkpt lat="52.57292556762695" lon="13.221981048583984">
<ele>70.0</ele>
<time>2014-02-16T14:56:40Z</time>
</trkpt>
<trkpt lat="52.57292556762695" lon="13.221903800964355">
<ele>69.5</ele>
<time>2014-02-16T14:56:42Z</time>
</trkpt>
<trkpt lat="52.572933197021484" lon="13.221816062927246">
<ele>71.19999694824219</ele>
<time>2014-02-16T14:56:45Z</time>
</trkpt>
<trkpt lat="52.57294845581055" lon="13.221728324890137">
<ele>70.80000305175781</ele>
<time>2014-02-16T14:56:47Z</time>
</trkpt>
<trkpt lat="52.572940826416016" lon="13.221622467041016">
<ele>72.80000305175781</ele>
<time>2014-02-16T14:56:48Z</time>
</trkpt>
<trkpt lat="52.572933197021484" lon="13.22152328491211">
<ele>71.9000015258789</ele>
<time>2014-02-16T14:56:53Z</time>
</trkpt>
<trkpt lat="52.57293701171875" lon="13.221375465393066">
<ele>72.30000305175781</ele>
<time>2014-02-16T14:56:54Z</time>
</trkpt>
<trkpt lat="52.57295227050781" lon="13.22130298614502">
<ele>73.0</ele>
<time>2014-02-16T14:56:55Z</time>
</trkpt>
<trkpt lat="52.572933197021484" lon="13.22119140625">
<ele>72.0</ele>
<time>2014-02-16T14:57:00Z</time>
</trkpt>
<trkpt lat="52.57286834716797" lon="13.221160888671875">
<ele>71.80000305175781</ele>
<time>2014-02-16T14:57:01Z</time>
</trkpt>
<trkpt lat="52.572811126708984" lon="13.221161842346191">
<ele>72.5</ele>
<time>2014-02-16T14:57:04Z</time>
</trkpt>
<trkpt lat="52.572750091552734" lon="13.221149444580078">
<ele>73.19999694824219</ele>
<time>2014-02-16T14:57:05Z</time>
</trkpt>
<trkpt lat="52.57270050048828" lon="13.221144676208496">
<ele>73.5</ele>
<time>2014-02-16T14:57:08Z</time>
</trkpt>
<trkpt lat="52.57264709472656" lon="13.221145629882812">
<ele>75.80000305175781</ele>
<time>2014-02-16T14:57:09Z</time>
</trkpt>
<trkpt lat="52.57255554199219" lon="13.221153259277344">
<ele>75.4000015258789</ele>
<time>2014-02-16T14:57:11Z</time>
</trkpt>
<trkpt lat="52.57250213623047" lon="13.221146583557129">
<ele>75.19999694824219</ele>
<time>2014-02-16T14:57:13Z</time>
</trkpt>
<trkpt lat="52.57240295410156" lon="13.22113037109375">
<ele>74.4000015258789</ele>
<time>2014-02-16T14:57:14Z</time>
</trkpt>
<trkpt lat="52.57235336303711" lon="13.221131324768066">
<ele>73.19999694824219</ele>
<time>2014-02-16T14:57:16Z</time>
</trkpt>
<trkpt lat="52.5722541809082" lon="13.221132278442383">
<ele>72.4000015258789</ele>
<time>2014-02-16T14:57:18Z</time>
</trkpt>
<trkpt lat="52.57219314575195" lon="13.221123695373535">
<ele>70.9000015258789</ele>
<time>2014-02-16T14:57:18Z</time>
</trkpt>
<trkpt lat="52.57210159301758" lon="13.221120834350586">
<ele>69.80000305175781</ele>
<time>2014-02-16T14:57:21Z</time>
</trkpt>
<trkpt lat="52.57203674316406" lon="13.221132278442383">
<ele>69.4000015258789</ele>
<time>2014-02-16T14:57:23Z</time>
</trkpt>
<trkpt lat="52.571964263916016" lon="13.221086502075195">
<ele>70.9000015258789</ele>
<time>2014-02-16T14:57:26Z</time>
</trkpt>
<trkpt lat="52.57190704345703" lon="13.221089363098145">
<ele>69.5999984741211</ele>
<time>2014-02-16T14:57:27Z</time>
</trkpt>
<trkpt lat="52.57182312011719" lon="13.221091270446777">
<ele>69.5999984741211</ele>
<time>2014-02-16T14:57:29Z</time>
</trkpt>
<trkpt lat="52.57168197631836" lon="13.221114158630371">
<ele>70.30000305175781</ele>
<time>2014-02-16T14:57:32Z</time>
</trkpt>
<trkpt lat="52.571632385253906" lon="13.221123695373535">
<ele>70.19999694824219</ele>
<time>2014-02-16T14:57:33Z</time>
</trkpt>
<trkpt lat="52.57158279418945" lon="13.221134185791016">
<ele>70.19999694824219</ele>
<time>2014-02-16T14:57:34Z</time>
</trkpt>
<trkpt lat="52.571537017822266" lon="13.221147537231445">
<ele>70.19999694824219</ele>
<time>2014-02-16T14:57:36Z</time>
</trkpt>
<trkpt lat="52.57149124145508" lon="13.221162796020508">
<ele>70.19999694824219</ele>
<time>2014-02-16T14:57:36Z</time>
</trkpt>
<trkpt lat="52.57144546508789" lon="13.221182823181152">
<ele>70.5999984741211</ele>
<time>2014-02-16T14:57:37Z</time>
</trkpt>
<trkpt lat="52.57139587402344" lon="13.221200942993164">
<ele>70.9000015258789</ele>
<time>2014-02-16T14:57:39Z</time>
</trkpt>
<trkpt lat="52.57130813598633" lon="13.2212495803833">
<ele>71.9000015258789</ele>
<time>2014-02-16T14:57:40Z</time>
</trkpt>
<trkpt lat="52.57126235961914" lon="13.221267700195312">
<ele>72.0</ele>
<time>2014-02-16T14:57:41Z</time>
</trkpt>
<trkpt lat="52.57122039794922" lon="13.221295356750488">
<ele>72.30000305175781</ele>
<time>2014-02-16T14:57:42Z</time>
</trkpt>
<trkpt lat="52.571170806884766" lon="13.221328735351562">
<ele>73.19999694824219</ele>
<time>2014-02-16T14:57:44Z</time>
</trkpt>
<trkpt lat="52.57109069824219" lon="13.221392631530762">
<ele>73.5</ele>
<time>2014-02-16T14:57:46Z</time>
</trkpt>
<trkpt lat="52.571014404296875" lon="13.221482276916504">
<ele>73.19999694824219</ele>
<time>2014-02-16T14:57:47Z</time>
</trkpt>
<trkpt lat="52.57094192504883" lon="13.221578598022461">
<ele>73.0999984741211</ele>
<time>2014-02-16T14:57:49Z</time>
</trkpt>
<trkpt lat="52.57090377807617" lon="13.22162914276123">
<ele>73.0999984741211</ele>
<time>2014-02-16T14:57:50Z</time>
</trkpt>
<trkpt lat="52.57086944580078" lon="13.221678733825684">
<ele>73.30000305175781</ele>
<time>2014-02-16T14:57:51Z</time>
</trkpt>
<trkpt lat="52.570831298828125" lon="13.22172737121582">
<ele>73.0</ele>
<time>2014-02-16T14:57:52Z</time>
</trkpt>
<trkpt lat="52.57079315185547" lon="13.221792221069336">
<ele>72.9000015258789</ele>
<time>2014-02-16T14:57:53Z</time>
</trkpt>
<trkpt lat="52.57076644897461" lon="13.221863746643066">
<ele>72.9000015258789</ele>
<time>2014-02-16T14:57:54Z</time>
</trkpt>
<trkpt lat="52.57073974609375" lon="13.221942901611328">
<ele>73.30000305175781</ele>
<time>2014-02-16T14:57:55Z</time>
</trkpt>
<trkpt lat="52.570709228515625" lon="13.222013473510742">
<ele>73.4000015258789</ele>
<time>2014-02-16T14:57:56Z</time>
</trkpt>
<trkpt lat="52.570682525634766" lon="13.222091674804688">
<ele>73.5</ele>
<time>2014-02-16T14:57:57Z</time>
</trkpt>
<trkpt lat="52.57065200805664" lon="13.222169876098633">
<ele>73.4000015258789</ele>
<time>2014-02-16T14:57:58Z</time>
</trkpt>
<trkpt lat="52.57062530517578" lon="13.222248077392578">
<ele>73.5999984741211</ele>
<time>2014-02-16T14:57:59Z</time>
</trkpt>
<trkpt lat="52.57059860229492" lon="13.222328186035156">
<ele>73.80000305175781</ele>
<time>2014-02-16T14:58:00Z</time>
</trkpt>
<trkpt lat="52.57057189941406" lon="13.222404479980469">
<ele>73.5999984741211</ele>
<time>2014-02-16T14:58:01Z</time>
</trkpt>
<trkpt lat="52.5705451965332" lon="13.2224760055542">
<ele>73.5</ele>
<time>2014-02-16T14:58:02Z</time>
</trkpt>
<trkpt lat="52.570518493652344" lon="13.222545623779297">
<ele>74.0</ele>
<time>2014-02-16T14:58:03Z</time>
</trkpt>
<trkpt lat="52.57048797607422" lon="13.222604751586914">
<ele>74.0</ele>
<time>2014-02-16T14:58:04Z</time>
</trkpt>
<trkpt lat="52.57041549682617" lon="13.222710609436035">
<ele>74.0999984741211</ele>
<time>2014-02-16T14:58:06Z</time>
</trkpt>
<trkpt lat="52.570377349853516" lon="13.222770690917969">
<ele>74.0999984741211</ele>
<time>2014-02-16T14:58:07Z</time>
</trkpt>
<trkpt lat="52.57032775878906" lon="13.222805976867676">
<ele>74.0999984741211</ele>
<time>2014-02-16T14:58:08Z</time>
</trkpt>
<trkpt lat="52.570281982421875" lon="13.222854614257812">
<ele>74.30000305175781</ele>
<time>2014-02-16T14:58:09Z</time>
</trkpt>
<trkpt lat="52.57023239135742" lon="13.222891807556152">
<ele>74.30000305175781</ele>
<time>2014-02-16T14:58:10Z</time>
</trkpt>
<trkpt lat="52.5701904296875" lon="13.222922325134277">
<ele>74.0999984741211</ele>
<time>2014-02-16T14:58:11Z</time>
</trkpt>
<trkpt lat="52.57014465332031" lon="13.222942352294922">
<ele>74.30000305175781</ele>
<time>2014-02-16T14:58:12Z</time>
</trkpt>
<trkpt lat="52.570098876953125" lon="13.222957611083984">
<ele>73.9000015258789</ele>
<time>2014-02-16T14:58:13Z</time>
</trkpt>
<trkpt lat="52.57005310058594" lon="13.222970008850098">
<ele>73.80000305175781</ele>
<time>2014-02-16T14:58:14Z</time>
</trkpt>
<trkpt lat="52.570011138916016" lon="13.222993850708008">
<ele>73.80000305175781</ele>
<time>2014-02-16T14:58:15Z</time>
</trkpt>
<trkpt lat="52.56996154785156" lon="13.223020553588867">
<ele>73.19999694824219</ele>
<time>2014-02-16T14:58:16Z</time>
</trkpt>
<trkpt lat="52.569915771484375" lon="13.223043441772461">
<ele>73.0999984741211</ele>
<time>2014-02-16T14:58:17Z</time>
</trkpt>
<trkpt lat="52.56986999511719" lon="13.223073959350586">
<ele>73.0999984741211</ele>
<time>2014-02-16T14:58:18Z</time>
</trkpt>
<trkpt lat="52.56982421875" lon="13.223098754882812">
<ele>73.0</ele>
<time>2014-02-16T14:58:19Z</time>
</trkpt>
<trkpt lat="52.56978225708008" lon="13.223128318786621">
<ele>73.19999694824219</ele>
<time>2014-02-16T14:58:20Z</time>
</trkpt>
<trkpt lat="52.56973648071289" lon="13.223162651062012">
<ele>73.30000305175781</ele>
<time>2014-02-16T14:58:21Z</time>
</trkpt>
<trkpt lat="52.569698333740234" lon="13.223197937011719">
<ele>73.19999694824219</ele>
<time>2014-02-16T14:58:22Z</time>
</trkpt>
<trkpt lat="52.56965637207031" lon="13.223237037658691">
<ele>73.0999984741211</ele>
<time>2014-02-16T14:58:23Z</time>
</trkpt>
<trkpt lat="52.56961441040039" lon="13.223276138305664">
<ele>73.0</ele>
<time>2014-02-16T14:58:24Z</time>
</trkpt>
<trkpt lat="52.5695686340332" lon="13.223311424255371">
<ele>73.0999984741211</ele>
<time>2014-02-16T14:58:25Z</time>
</trkpt>
<trkpt lat="52.569480895996094" lon="13.223346710205078">
<ele>72.9000015258789</ele>
<time>2014-02-16T14:58:27Z</time>
</trkpt>
<trkpt lat="52.56942367553711" lon="13.223356246948242">
<ele>73.30000305175781</ele>
<time>2014-02-16T14:58:28Z</time>
</trkpt>
<trkpt lat="52.56935501098633" lon="13.223272323608398">
<ele>73.4000015258789</ele>
<time>2014-02-16T14:58:30Z</time>
</trkpt>
<trkpt lat="52.56929397583008" lon="13.223163604736328">
<ele>73.19999694824219</ele>
<time>2014-02-16T14:58:32Z</time>
</trkpt>
<trkpt lat="52.56926727294922" lon="13.22309684753418">
<ele>73.0999984741211</ele>
<time>2014-02-16T14:58:33Z</time>
</trkpt>
<trkpt lat="52.56922149658203" lon="13.223028182983398">
<ele>75.0999984741211</ele>
<time>2014-02-16T14:58:34Z</time>
</trkpt>
<trkpt lat="52.56916427612305" lon="13.222908020019531">
<ele>75.5999984741211</ele>
<time>2014-02-16T14:58:36Z</time>
</trkpt>
<trkpt lat="52.56913375854492" lon="13.222847938537598">
<ele>75.0</ele>
<time>2014-02-16T14:58:37Z</time>
</trkpt>
<trkpt lat="52.5691032409668" lon="13.222782135009766">
<ele>74.9000015258789</ele>
<time>2014-02-16T14:58:38Z</time>
</trkpt>
<trkpt lat="52.569053649902344" lon="13.222675323486328">
<ele>74.19999694824219</ele>
<time>2014-02-16T14:58:40Z</time>
</trkpt>
<trkpt lat="52.569000244140625" lon="13.222569465637207">
<ele>74.19999694824219</ele>
<time>2014-02-16T14:58:42Z</time>
</trkpt>
<trkpt lat="52.5689582824707" lon="13.222466468811035">
<ele>74.0999984741211</ele>
<time>2014-02-16T14:58:44Z</time>
</trkpt>
<trkpt lat="52.56890869140625" lon="13.222386360168457">
<ele>73.9000015258789</ele>
<time>2014-02-16T14:58:46Z</time>
</trkpt>
<trkpt lat="52.5688591003418" lon="13.22237491607666">
<ele>73.0</ele>
<time>2014-02-16T14:58:48Z</time>
</trkpt>
<trkpt lat="52.56879806518555" lon="13.222440719604492">
<ele>72.5999984741211</ele>
<time>2014-02-16T14:58:50Z</time>
</trkpt>
<trkpt lat="52.568729400634766" lon="13.222494125366211">
<ele>71.9000015258789</ele>
<time>2014-02-16T14:58:52Z</time>
</trkpt>
<trkpt lat="52.568660736083984" lon="13.222458839416504">
<ele>71.5999984741211</ele>
<time>2014-02-16T14:58:54Z</time>
</trkpt>
<trkpt lat="52.56863021850586" lon="13.222343444824219">
<ele>71.80000305175781</ele>
<time>2014-02-16T14:58:56Z</time>
</trkpt>
<trkpt lat="52.56859588623047" lon="13.222220420837402">
<ele>71.4000015258789</ele>
<time>2014-02-16T14:58:58Z</time>
</trkpt>
<trkpt lat="52.56855773925781" lon="13.222105979919434">
<ele>71.5</ele>
<time>2014-02-16T14:59:00Z</time>
</trkpt>
<trkpt lat="52.56852340698242" lon="13.221980094909668">
<ele>71.30000305175781</ele>
<time>2014-02-16T14:59:02Z</time>
</trkpt>
<trkpt lat="52.5684700012207" lon="13.221872329711914">
<ele>71.30000305175781</ele>
<time>2014-02-16T14:59:04Z</time>
</trkpt>
<trkpt lat="52.56840896606445" lon="13.221786499023438">
<ele>71.9000015258789</ele>
<time>2014-02-16T14:59:06Z</time>
</trkpt>
<trkpt lat="52.56836700439453" lon="13.221753120422363">
<ele>71.80000305175781</ele>
<time>2014-02-16T14:59:07Z</time>
</trkpt>
<trkpt lat="52.56829071044922" lon="13.221673011779785">
<ele>71.80000305175781</ele>
<time>2014-02-16T14:59:09Z</time>
</trkpt>
<trkpt lat="52.568214416503906" lon="13.221611022949219">
<ele>71.69999694824219</ele>
<time>2014-02-16T14:59:11Z</time>
</trkpt>
<trkpt lat="52.56813430786133" lon="13.221558570861816">
<ele>71.30000305175781</ele>
<time>2014-02-16T14:59:13Z</time>
</trkpt>
<trkpt lat="52.568050384521484" lon="13.221534729003906">
<ele>71.19999694824219</ele>
<time>2014-02-16T14:59:15Z</time>
</trkpt>
<trkpt lat="52.5680046081543" lon="13.221545219421387">
<ele>71.5999984741211</ele>
<time>2014-02-16T14:59:16Z</time>
</trkpt>
<trkpt lat="52.56795883178711" lon="13.221570014953613">
<ele>71.0999984741211</ele>
<time>2014-02-16T14:59:17Z</time>
</trkpt>
<trkpt lat="52.5678825378418" lon="13.221637725830078">
<ele>70.69999694824219</ele>
<time>2014-02-16T14:59:19Z</time>
</trkpt>
<trkpt lat="52.56784439086914" lon="13.221683502197266">
<ele>70.4000015258789</ele>
<time>2014-02-16T14:59:20Z</time>
</trkpt>
<trkpt lat="52.56780242919922" lon="13.22171688079834">
<ele>70.4000015258789</ele>
<time>2014-02-16T14:59:21Z</time>
</trkpt>
<trkpt lat="52.5677604675293" lon="13.221752166748047">
<ele>70.4000015258789</ele>
<time>2014-02-16T14:59:22Z</time>
</trkpt>
<trkpt lat="52.56767272949219" lon="13.221827507019043">
<ele>70.30000305175781</ele>
<time>2014-02-16T14:59:24Z</time>
</trkpt>
<trkpt lat="52.567623138427734" lon="13.221850395202637">
<ele>69.80000305175781</ele>
<time>2014-02-16T14:59:25Z</time>
</trkpt>
<trkpt lat="52.56757736206055" lon="13.221867561340332">
<ele>69.5</ele>
<time>2014-02-16T14:59:26Z</time>
</trkpt>
<trkpt lat="52.56753158569336" lon="13.22189712524414">
<ele>69.5</ele>
<time>2014-02-16T14:59:27Z</time>
</trkpt>
<trkpt lat="52.56744384765625" lon="13.221945762634277">
<ele>71.5</ele>
<time>2014-02-16T14:59:29Z</time>
</trkpt>
<trkpt lat="52.56736373901367" lon="13.221990585327148">
<ele>71.69999694824219</ele>
<time>2014-02-16T14:59:31Z</time>
</trkpt>
<trkpt lat="52.567317962646484" lon="13.22200870513916">
<ele>72.0</ele>
<time>2014-02-16T14:59:32Z</time>
</trkpt>
<trkpt lat="52.56726837158203" lon="13.222038269042969">
<ele>72.19999694824219</ele>
<time>2014-02-16T14:59:33Z</time>
</trkpt>
<trkpt lat="52.56721496582031" lon="13.22206974029541">
<ele>71.9000015258789</ele>
<time>2014-02-16T14:59:34Z</time>
</trkpt>
<trkpt lat="52.567169189453125" lon="13.222098350524902">
<ele>71.30000305175781</ele>
<time>2014-02-16T14:59:35Z</time>
</trkpt>
<trkpt lat="52.567081451416016" lon="13.222134590148926">
<ele>70.30000305175781</ele>
<time>2014-02-16T14:59:37Z</time>
</trkpt>
<trkpt lat="52.56703186035156" lon="13.222140312194824">
<ele>70.19999694824219</ele>
<time>2014-02-16T14:59:38Z</time>
</trkpt>
<trkpt lat="52.566986083984375" lon="13.222113609313965">
<ele>68.80000305175781</ele>
<time>2014-02-16T14:59:39Z</time>
</trkpt>
<trkpt lat="52.56694030761719" lon="13.222088813781738">
<ele>68.69999694824219</ele>
<time>2014-02-16T14:59:40Z</time>
</trkpt>
<trkpt lat="52.566898345947266" lon="13.222055435180664">
<ele>68.19999694824219</ele>
<time>2014-02-16T14:59:41Z</time>
</trkpt>
<trkpt lat="52.56681442260742" lon="13.22199535369873">
<ele>68.0999984741211</ele>
<time>2014-02-16T14:59:43Z</time>
</trkpt>
<trkpt lat="52.56676483154297" lon="13.221977233886719">
<ele>67.69999694824219</ele>
<time>2014-02-16T14:59:44Z</time>
</trkpt>
<trkpt lat="52.56671905517578" lon="13.221955299377441">
<ele>68.0999984741211</ele>
<time>2014-02-16T14:59:45Z</time>
</trkpt>
<trkpt lat="52.566673278808594" lon="13.221927642822266">
<ele>68.5999984741211</ele>
<time>2014-02-16T14:59:46Z</time>
</trkpt>
<trkpt lat="52.56660079956055" lon="13.221855163574219">
<ele>68.5999984741211</ele>
<time>2014-02-16T14:59:48Z</time>
</trkpt>
<trkpt lat="52.56656265258789" lon="13.22181224822998">
<ele>68.30000305175781</ele>
<time>2014-02-16T14:59:49Z</time>
</trkpt>
<trkpt lat="52.56650161743164" lon="13.221711158752441">
<ele>68.69999694824219</ele>
<time>2014-02-16T14:59:51Z</time>
</trkpt>
<trkpt lat="52.566436767578125" lon="13.221610069274902">
<ele>69.0999984741211</ele>
<time>2014-02-16T14:59:53Z</time>
</trkpt>
<trkpt lat="52.566402435302734" lon="13.221561431884766">
<ele>68.9000015258789</ele>
<time>2014-02-16T14:59:54Z</time>
</trkpt>
<trkpt lat="52.566341400146484" lon="13.221471786499023">
<ele>68.5999984741211</ele>
<time>2014-02-16T14:59:56Z</time>
</trkpt>
<trkpt lat="52.56629180908203" lon="13.221372604370117">
<ele>68.0999984741211</ele>
<time>2014-02-16T14:59:58Z</time>
</trkpt>
<trkpt lat="52.56623840332031" lon="13.221271514892578">
<ele>67.9000015258789</ele>
<time>2014-02-16T15:00:00Z</time>
</trkpt>
<trkpt lat="52.56620788574219" lon="13.221206665039062">
<ele>68.0</ele>
<time>2014-02-16T15:00:01Z</time>
</trkpt>
<trkpt lat="52.56618118286133" lon="13.221122741699219">
<ele>68.5</ele>
<time>2014-02-16T15:00:02Z</time>
</trkpt>
<trkpt lat="52.566184997558594" lon="13.221040725708008">
<ele>68.69999694824219</ele>
<time>2014-02-16T15:00:03Z</time>
</trkpt>
<trkpt lat="52.56617736816406" lon="13.220948219299316">
<ele>68.4000015258789</ele>
<time>2014-02-16T15:00:04Z</time>
</trkpt>
<trkpt lat="52.566200256347656" lon="13.220799446105957">
<ele>67.9000015258789</ele>
<time>2014-02-16T15:00:06Z</time>
</trkpt>
<trkpt lat="52.56620407104492" lon="13.220721244812012">
<ele>68.19999694824219</ele>
<time>2014-02-16T15:00:07Z</time>
</trkpt>
<trkpt lat="52.56619644165039" lon="13.220582008361816">
<ele>69.80000305175781</ele>
<time>2014-02-16T15:00:09Z</time>
</trkpt>
<trkpt lat="52.566200256347656" lon="13.220499992370605">
<ele>70.30000305175781</ele>
<time>2014-02-16T15:00:10Z</time>
</trkpt>
<trkpt lat="52.566200256347656" lon="13.220423698425293">
<ele>70.4000015258789</ele>
<time>2014-02-16T15:00:11Z</time>
</trkpt>
<trkpt lat="52.56621170043945" lon="13.220287322998047">
<ele>69.69999694824219</ele>
<time>2014-02-16T15:00:13Z</time>
</trkpt>
<trkpt lat="52.56621170043945" lon="13.220209121704102">
<ele>69.5999984741211</ele>
<time>2014-02-16T15:00:14Z</time>
</trkpt>
<trkpt lat="52.56621170043945" lon="13.220129013061523">
<ele>69.5999984741211</ele>
<time>2014-02-16T15:00:15Z</time>
</trkpt>
<trkpt lat="52.566219329833984" lon="13.220044136047363">
<ele>70.5999984741211</ele>
<time>2014-02-16T15:00:16Z</time>
</trkpt>
<trkpt lat="52.56622314453125" lon="13.219964027404785">
<ele>70.19999694824219</ele>
<time>2014-02-16T15:00:17Z</time>
</trkpt>
<trkpt lat="52.566226959228516" lon="13.219886779785156">
<ele>71.0999984741211</ele>
<time>2014-02-16T15:00:18Z</time>
</trkpt>
<trkpt lat="52.566226959228516" lon="13.219805717468262">
<ele>71.5</ele>
<time>2014-02-16T15:00:19Z</time>
</trkpt>
<trkpt lat="52.56623077392578" lon="13.219724655151367">
<ele>71.5</ele>
<time>2014-02-16T15:00:20Z</time>
</trkpt>
<trkpt lat="52.56623458862305" lon="13.21964168548584">
<ele>71.0999984741211</ele>
<time>2014-02-16T15:00:21Z</time>
</trkpt>
<trkpt lat="52.56624221801758" lon="13.219560623168945">
<ele>71.0</ele>
<time>2014-02-16T15:00:22Z</time>
</trkpt>
<trkpt lat="52.566261291503906" lon="13.219427108764648">
<ele>71.19999694824219</ele>
<time>2014-02-16T15:00:24Z</time>
</trkpt>
<trkpt lat="52.566261291503906" lon="13.219344139099121">
<ele>71.80000305175781</ele>
<time>2014-02-16T15:00:25Z</time>
</trkpt>
<trkpt lat="52.56626892089844" lon="13.219209671020508">
<ele>72.4000015258789</ele>
<time>2014-02-16T15:00:27Z</time>
</trkpt>
<trkpt lat="52.56626892089844" lon="13.21905517578125">
<ele>72.9000015258789</ele>
<time>2014-02-16T15:00:29Z</time>
</trkpt>
<trkpt lat="52.56626892089844" lon="13.218927383422852">
<ele>72.5999984741211</ele>
<time>2014-02-16T15:00:31Z</time>
</trkpt>
<trkpt lat="52.56626892089844" lon="13.21883773803711">
<ele>72.4000015258789</ele>
<time>2014-02-16T15:00:32Z</time>
</trkpt>
<trkpt lat="52.5662727355957" lon="13.218762397766113">
<ele>72.4000015258789</ele>
<time>2014-02-16T15:00:33Z</time>
</trkpt>
<trkpt lat="52.566287994384766" lon="13.218626022338867">
<ele>73.0999984741211</ele>
<time>2014-02-16T15:00:35Z</time>
</trkpt>
<trkpt lat="52.5662956237793" lon="13.218539237976074">
<ele>72.9000015258789</ele>
<time>2014-02-16T15:00:36Z</time>
</trkpt>
<trkpt lat="52.566307067871094" lon="13.218453407287598">
<ele>72.4000015258789</ele>
<time>2014-02-16T15:00:37Z</time>
</trkpt>
<trkpt lat="52.566314697265625" lon="13.218375205993652">
<ele>72.19999694824219</ele>
<time>2014-02-16T15:00:38Z</time>
</trkpt>
<trkpt lat="52.566322326660156" lon="13.218254089355469">
<ele>71.9000015258789</ele>
<time>2014-02-16T15:00:40Z</time>
</trkpt>
<trkpt lat="52.56632995605469" lon="13.218125343322754">
<ele>72.5999984741211</ele>
<time>2014-02-16T15:00:42Z</time>
</trkpt>
<trkpt lat="52.56633758544922" lon="13.217988967895508">
<ele>72.0999984741211</ele>
<time>2014-02-16T15:00:44Z</time>
</trkpt>
<trkpt lat="52.566341400146484" lon="13.217911720275879">
<ele>71.4000015258789</ele>
<time>2014-02-16T15:00:45Z</time>
</trkpt>
<trkpt lat="52.56635665893555" lon="13.217777252197266">
<ele>70.9000015258789</ele>
<time>2014-02-16T15:00:47Z</time>
</trkpt>
<trkpt lat="52.56636047363281" lon="13.217702865600586">
<ele>71.19999694824219</ele>
<time>2014-02-16T15:00:48Z</time>
</trkpt>
<trkpt lat="52.566368103027344" lon="13.217574119567871">
<ele>71.80000305175781</ele>
<time>2014-02-16T15:00:50Z</time>
</trkpt>
<trkpt lat="52.566375732421875" lon="13.217432975769043">
<ele>72.0</ele>
<time>2014-02-16T15:00:52Z</time>
</trkpt>
<trkpt lat="52.56637954711914" lon="13.217287063598633">
<ele>71.5</ele>
<time>2014-02-16T15:00:54Z</time>
</trkpt>
<trkpt lat="52.566383361816406" lon="13.21721076965332">
<ele>71.30000305175781</ele>
<time>2014-02-16T15:00:55Z</time>
</trkpt>
<trkpt lat="52.56638717651367" lon="13.217065811157227">
<ele>70.9000015258789</ele>
<time>2014-02-16T15:00:57Z</time>
</trkpt>
<trkpt lat="52.5663948059082" lon="13.21699333190918">
<ele>70.5999984741211</ele>
<time>2014-02-16T15:00:58Z</time>
</trkpt>
<trkpt lat="52.56639099121094" lon="13.216853141784668">
<ele>70.69999694824219</ele>
<time>2014-02-16T15:01:00Z</time>
</trkpt>
<trkpt lat="52.566322326660156" lon="13.216757774353027">
<ele>70.5999984741211</ele>
<time>2014-02-16T15:01:02Z</time>
</trkpt>
<trkpt lat="52.566280364990234" lon="13.216727256774902">
<ele>70.19999694824219</ele>
<time>2014-02-16T15:01:03Z</time>
</trkpt>
<trkpt lat="52.56623458862305" lon="13.216702461242676">
<ele>70.19999694824219</ele>
<time>2014-02-16T15:01:04Z</time>
</trkpt>
<trkpt lat="52.56618881225586" lon="13.216672897338867">
<ele>70.5999984741211</ele>
<time>2014-02-16T15:01:05Z</time>
</trkpt>
<trkpt lat="52.56610870361328" lon="13.21662712097168">
<ele>71.0</ele>
<time>2014-02-16T15:01:07Z</time>
</trkpt>
<trkpt lat="52.56602478027344" lon="13.216585159301758">
<ele>71.5999984741211</ele>
<time>2014-02-16T15:01:09Z</time>
</trkpt>
<trkpt lat="52.56594467163086" lon="13.21654224395752">
<ele>71.80000305175781</ele>
<time>2014-02-16T15:01:11Z</time>
</trkpt>
<trkpt lat="52.56586837768555" lon="13.216501235961914">
<ele>72.19999694824219</ele>
<time>2014-02-16T15:01:13Z</time>
</trkpt>
<trkpt lat="52.56582260131836" lon="13.216480255126953">
<ele>72.19999694824219</ele>
<time>2014-02-16T15:01:14Z</time>
</trkpt>
<trkpt lat="52.56574249267578" lon="13.2164306640625">
<ele>72.0</ele>
<time>2014-02-16T15:01:16Z</time>
</trkpt>
<trkpt lat="52.5656623840332" lon="13.21639633178711">
<ele>71.69999694824219</ele>
<time>2014-02-16T15:01:18Z</time>
</trkpt>
<trkpt lat="52.565582275390625" lon="13.216348648071289">
<ele>71.4000015258789</ele>
<time>2014-02-16T15:01:20Z</time>
</trkpt>
<trkpt lat="52.565494537353516" lon="13.216304779052734">
<ele>71.9000015258789</ele>
<time>2014-02-16T15:01:22Z</time>
</trkpt>
<trkpt lat="52.56544876098633" lon="13.216282844543457">
<ele>72.30000305175781</ele>
<time>2014-02-16T15:01:23Z</time>
</trkpt>
<trkpt lat="52.56540298461914" lon="13.21625804901123">
<ele>72.5999984741211</ele>
<time>2014-02-16T15:01:24Z</time>
</trkpt>
<trkpt lat="52.56535339355469" lon="13.216230392456055">
<ele>72.5999984741211</ele>
<time>2014-02-16T15:01:25Z</time>
</trkpt>
<trkpt lat="52.5653076171875" lon="13.216214179992676">
<ele>73.0999984741211</ele>
<time>2014-02-16T15:01:26Z</time>
</trkpt>
<trkpt lat="52.56525802612305" lon="13.2161865234375">
<ele>72.80000305175781</ele>
<time>2014-02-16T15:01:27Z</time>
</trkpt>
<trkpt lat="52.565216064453125" lon="13.21615982055664">
<ele>73.30000305175781</ele>
<time>2014-02-16T15:01:28Z</time>
</trkpt>
<trkpt lat="52.56513595581055" lon="13.21611213684082">
<ele>72.9000015258789</ele>
<time>2014-02-16T15:01:30Z</time>
</trkpt>
<trkpt lat="52.565093994140625" lon="13.216079711914062">
<ele>72.5999984741211</ele>
<time>2014-02-16T15:01:31Z</time>
</trkpt>
<trkpt lat="52.56501388549805" lon="13.216022491455078">
<ele>72.30000305175781</ele>
<time>2014-02-16T15:01:33Z</time>
</trkpt>
<trkpt lat="52.56493377685547" lon="13.215968132019043">
<ele>72.0999984741211</ele>
<time>2014-02-16T15:01:35Z</time>
</trkpt>
<trkpt lat="52.564849853515625" lon="13.215913772583008">
<ele>73.0</ele>
<time>2014-02-16T15:01:37Z</time>
</trkpt>
<trkpt lat="52.56480407714844" lon="13.215890884399414">
<ele>73.0</ele>
<time>2014-02-16T15:01:38Z</time>
</trkpt>
<trkpt lat="52.564754486083984" lon="13.215871810913086">
<ele>72.9000015258789</ele>
<time>2014-02-16T15:01:39Z</time>
</trkpt>
<trkpt lat="52.564674377441406" lon="13.215799331665039">
<ele>72.5999984741211</ele>
<time>2014-02-16T15:01:41Z</time>
</trkpt>
<trkpt lat="52.56462860107422" lon="13.215768814086914">
<ele>72.69999694824219</ele>
<time>2014-02-16T15:01:42Z</time>
</trkpt>
<trkpt lat="52.564552307128906" lon="13.21571159362793">
<ele>72.5</ele>
<time>2014-02-16T15:01:44Z</time>
</trkpt>
<trkpt lat="52.564476013183594" lon="13.215659141540527">
<ele>72.30000305175781</ele>
<time>2014-02-16T15:01:46Z</time>
</trkpt>
<trkpt lat="52.56439971923828" lon="13.21560001373291">
<ele>71.9000015258789</ele>
<time>2014-02-16T15:01:48Z</time>
</trkpt>
<trkpt lat="52.56431579589844" lon="13.215536117553711">
<ele>71.80000305175781</ele>
<time>2014-02-16T15:01:50Z</time>
</trkpt>
<trkpt lat="52.56427001953125" lon="13.215500831604004">
<ele>71.9000015258789</ele>
<time>2014-02-16T15:01:51Z</time>
</trkpt>
<trkpt lat="52.56422424316406" lon="13.215460777282715">
<ele>72.0</ele>
<time>2014-02-16T15:01:52Z</time>
</trkpt>
<trkpt lat="52.564186096191406" lon="13.215420722961426">
<ele>72.30000305175781</ele>
<time>2014-02-16T15:01:53Z</time>
</trkpt>
<trkpt lat="52.56414794921875" lon="13.215384483337402">
<ele>72.0999984741211</ele>
<time>2014-02-16T15:01:54Z</time>
</trkpt>
<trkpt lat="52.56407165527344" lon="13.215316772460938">
<ele>71.80000305175781</ele>
<time>2014-02-16T15:01:56Z</time>
</trkpt>
<trkpt lat="52.56403350830078" lon="13.215275764465332">
<ele>71.80000305175781</ele>
<time>2014-02-16T15:01:57Z</time>
</trkpt>
<trkpt lat="52.563995361328125" lon="13.21523380279541">
<ele>71.9000015258789</ele>
<time>2014-02-16T15:01:58Z</time>
</trkpt>
<trkpt lat="52.56391906738281" lon="13.215154647827148">
<ele>72.0999984741211</ele>
<time>2014-02-16T15:02:00Z</time>
</trkpt>
<trkpt lat="52.563880920410156" lon="13.215118408203125">
<ele>72.0999984741211</ele>
<time>2014-02-16T15:02:01Z</time>
</trkpt>
<trkpt lat="52.56380081176758" lon="13.215058326721191">
<ele>71.5</ele>
<time>2014-02-16T15:02:03Z</time>
</trkpt>
<trkpt lat="52.563758850097656" lon="13.215028762817383">
<ele>71.4000015258789</ele>
<time>2014-02-16T15:02:04Z</time>
</trkpt>
<trkpt lat="52.563716888427734" lon="13.214991569519043">
<ele>71.80000305175781</ele>
<time>2014-02-16T15:02:05Z</time>
</trkpt>
<trkpt lat="52.56367874145508" lon="13.214957237243652">
<ele>71.69999694824219</ele>
<time>2014-02-16T15:02:06Z</time>
</trkpt>
<trkpt lat="52.563636779785156" lon="13.214916229248047">
<ele>71.9000015258789</ele>
<time>2014-02-16T15:02:07Z</time>
</trkpt>
<trkpt lat="52.563560485839844" lon="13.214838027954102">
<ele>72.5</ele>
<time>2014-02-16T15:02:09Z</time>
</trkpt>
<trkpt lat="52.563480377197266" lon="13.214763641357422">
<ele>73.0999984741211</ele>
<time>2014-02-16T15:02:11Z</time>
</trkpt>
<trkpt lat="52.563411712646484" lon="13.21468734741211">
<ele>73.0</ele>
<time>2014-02-16T15:02:13Z</time>
</trkpt>
<trkpt lat="52.56336975097656" lon="13.214648246765137">
<ele>73.0</ele>
<time>2014-02-16T15:02:14Z</time>
</trkpt>
<trkpt lat="52.563289642333984" lon="13.21457290649414">
<ele>72.69999694824219</ele>
<time>2014-02-16T15:02:16Z</time>
</trkpt>
<trkpt lat="52.563209533691406" lon="13.21450424194336">
<ele>72.5</ele>
<time>2014-02-16T15:02:18Z</time>
</trkpt>
<trkpt lat="52.563167572021484" lon="13.214468955993652">
<ele>72.30000305175781</ele>
<time>2014-02-16T15:02:19Z</time>
</trkpt>
<trkpt lat="52.56312561035156" lon="13.214434623718262">
<ele>72.19999694824219</ele>
<time>2014-02-16T15:02:20Z</time>
</trkpt>
<trkpt lat="52.56305694580078" lon="13.21435832977295">
<ele>72.30000305175781</ele>
<time>2014-02-16T15:02:22Z</time>
</trkpt>
<trkpt lat="52.56301498413086" lon="13.214324951171875">
<ele>72.5</ele>
<time>2014-02-16T15:02:23Z</time>
</trkpt>
<trkpt lat="52.56297302246094" lon="13.214292526245117">
<ele>72.5</ele>
<time>2014-02-16T15:02:24Z</time>
</trkpt>
<trkpt lat="52.562896728515625" lon="13.214221954345703">
<ele>72.5</ele>
<time>2014-02-16T15:02:26Z</time>
</trkpt>
<trkpt lat="52.56285858154297" lon="13.21418285369873">
<ele>73.0</ele>
<time>2014-02-16T15:02:27Z</time>
</trkpt>
<trkpt lat="52.56281661987305" lon="13.214147567749023">
<ele>73.30000305175781</ele>
<time>2014-02-16T15:02:28Z</time>
</trkpt>
<trkpt lat="52.5627326965332" lon="13.214070320129395">
<ele>73.69999694824219</ele>
<time>2014-02-16T15:02:30Z</time>
</trkpt>
<trkpt lat="52.56269454956055" lon="13.214029312133789">
<ele>73.80000305175781</ele>
<time>2014-02-16T15:02:31Z</time>
</trkpt>
<trkpt lat="52.562660217285156" lon="13.213985443115234">
<ele>73.80000305175781</ele>
<time>2014-02-16T15:02:32Z</time>
</trkpt>
<trkpt lat="52.562583923339844" lon="13.213921546936035">
<ele>72.19999694824219</ele>
<time>2014-02-16T15:02:34Z</time>
</trkpt>
<trkpt lat="52.56254196166992" lon="13.213882446289062">
<ele>72.5</ele>
<time>2014-02-16T15:02:35Z</time>
</trkpt>
<trkpt lat="52.562469482421875" lon="13.213807106018066">
<ele>72.5</ele>
<time>2014-02-16T15:02:37Z</time>
</trkpt>
<trkpt lat="52.56243133544922" lon="13.213767051696777">
<ele>72.5999984741211</ele>
<time>2014-02-16T15:02:38Z</time>
</trkpt>
<trkpt lat="52.56238555908203" lon="13.213730812072754">
<ele>72.5999984741211</ele>
<time>2014-02-16T15:02:39Z</time>
</trkpt>
<trkpt lat="52.56234359741211" lon="13.21369743347168">
<ele>72.69999694824219</ele>
<time>2014-02-16T15:02:40Z</time>
</trkpt>
<trkpt lat="52.56230163574219" lon="13.213658332824707">
<ele>72.30000305175781</ele>
<time>2014-02-16T15:02:41Z</time>
</trkpt>
<trkpt lat="52.562259674072266" lon="13.213611602783203">
<ele>72.30000305175781</ele>
<time>2014-02-16T15:02:42Z</time>
</trkpt>
<trkpt lat="52.562225341796875" lon="13.213565826416016">
<ele>72.0</ele>
<time>2014-02-16T15:02:43Z</time>
</trkpt>
<trkpt lat="52.56218338012695" lon="13.213516235351562">
<ele>71.69999694824219</ele>
<time>2014-02-16T15:02:44Z</time>
</trkpt>
<trkpt lat="52.56214141845703" lon="13.213476181030273">
<ele>71.9000015258789</ele>
<time>2014-02-16T15:02:45Z</time>
</trkpt>
<trkpt lat="52.562068939208984" lon="13.213419914245605">
<ele>72.0</ele>
<time>2014-02-16T15:02:47Z</time>
</trkpt>
<trkpt lat="52.56202697753906" lon="13.213385581970215">
<ele>71.80000305175781</ele>
<time>2014-02-16T15:02:48Z</time>
</trkpt>
<trkpt lat="52.56195068359375" lon="13.21329402923584">
<ele>72.69999694824219</ele>
<time>2014-02-16T15:02:50Z</time>
</trkpt>
<trkpt lat="52.561912536621094" lon="13.213250160217285">
<ele>72.69999694824219</ele>
<time>2014-02-16T15:02:51Z</time>
</trkpt>
<trkpt lat="52.56184387207031" lon="13.21318244934082">
<ele>72.9000015258789</ele>
<time>2014-02-16T15:02:53Z</time>
</trkpt>
<trkpt lat="52.56180191040039" lon="13.213151931762695">
<ele>72.30000305175781</ele>
<time>2014-02-16T15:02:54Z</time>
</trkpt>
<trkpt lat="52.561729431152344" lon="13.213075637817383">
<ele>72.19999694824219</ele>
<time>2014-02-16T15:02:56Z</time>
</trkpt>
<trkpt lat="52.561649322509766" lon="13.213006019592285">
<ele>72.30000305175781</ele>
<time>2014-02-16T15:02:58Z</time>
</trkpt>
<trkpt lat="52.561561584472656" lon="13.212947845458984">
<ele>71.4000015258789</ele>
<time>2014-02-16T15:03:00Z</time>
</trkpt>
<trkpt lat="52.56148910522461" lon="13.212881088256836">
<ele>70.69999694824219</ele>
<time>2014-02-16T15:03:02Z</time>
</trkpt>
<trkpt lat="52.561431884765625" lon="13.212799072265625">
<ele>69.9000015258789</ele>
<time>2014-02-16T15:03:04Z</time>
</trkpt>
<trkpt lat="52.56136703491211" lon="13.212774276733398">
<ele>71.30000305175781</ele>
<time>2014-02-16T15:03:09Z</time>
</trkpt>
<trkpt lat="52.56132125854492" lon="13.212725639343262">
<ele>71.30000305175781</ele>
<time>2014-02-16T15:03:30Z</time>
</trkpt>
<trkpt lat="52.561248779296875" lon="13.212686538696289">
<ele>72.19999694824219</ele>
<time>2014-02-16T15:03:32Z</time>
</trkpt>
<trkpt lat="52.561187744140625" lon="13.212626457214355">
<ele>69.9000015258789</ele>
<time>2014-02-16T15:03:33Z</time>
</trkpt>
<trkpt lat="52.56110382080078" lon="13.212608337402344">
<ele>69.5</ele>
<time>2014-02-16T15:03:35Z</time>
</trkpt>
<trkpt lat="52.56105422973633" lon="13.212648391723633">
<ele>70.30000305175781</ele>
<time>2014-02-16T15:03:36Z</time>
</trkpt>
<trkpt lat="52.56101608276367" lon="13.212712287902832">
<ele>70.30000305175781</ele>
<time>2014-02-16T15:03:37Z</time>
</trkpt>
<trkpt lat="52.561004638671875" lon="13.212796211242676">
<ele>70.19999694824219</ele>
<time>2014-02-16T15:03:38Z</time>
</trkpt>
<trkpt lat="52.561012268066406" lon="13.212885856628418">
<ele>70.9000015258789</ele>
<time>2014-02-16T15:03:39Z</time>
</trkpt>
<trkpt lat="52.561012268066406" lon="13.21296215057373">
<ele>72.0</ele>
<time>2014-02-16T15:03:40Z</time>
</trkpt>
<trkpt lat="52.561004638671875" lon="13.213047981262207">
<ele>72.9000015258789</ele>
<time>2014-02-16T15:03:41Z</time>
</trkpt>
<trkpt lat="52.56099319458008" lon="13.21313190460205">
<ele>72.80000305175781</ele>
<time>2014-02-16T15:03:42Z</time>
</trkpt>
<trkpt lat="52.56098556518555" lon="13.213216781616211">
<ele>73.30000305175781</ele>
<time>2014-02-16T15:03:43Z</time>
</trkpt>
<trkpt lat="52.56097412109375" lon="13.213303565979004">
<ele>73.5999984741211</ele>
<time>2014-02-16T15:03:44Z</time>
</trkpt>
<trkpt lat="52.56095886230469" lon="13.213391304016113">
<ele>74.0999984741211</ele>
<time>2014-02-16T15:03:45Z</time>
</trkpt>
<trkpt lat="52.560951232910156" lon="13.21347427368164">
<ele>73.5</ele>
<time>2014-02-16T15:03:46Z</time>
</trkpt>
<trkpt lat="52.56093215942383" lon="13.213555335998535">
<ele>73.30000305175781</ele>
<time>2014-02-16T15:03:47Z</time>
</trkpt>
<trkpt lat="52.56089782714844" lon="13.213610649108887">
<ele>72.80000305175781</ele>
<time>2014-02-16T15:03:48Z</time>
</trkpt>
<trkpt lat="52.56087112426758" lon="13.213675498962402">
<ele>73.30000305175781</ele>
<time>2014-02-16T15:03:49Z</time>
</trkpt>
<trkpt lat="52.56085205078125" lon="13.213749885559082">
<ele>73.5</ele>
<time>2014-02-16T15:03:50Z</time>
</trkpt>
<trkpt lat="52.56083297729492" lon="13.213824272155762">
<ele>73.5999984741211</ele>
<time>2014-02-16T15:03:51Z</time>
</trkpt>
<trkpt lat="52.560813903808594" lon="13.213907241821289">
<ele>73.5999984741211</ele>
<time>2014-02-16T15:03:52Z</time>
</trkpt>
<trkpt lat="52.56080627441406" lon="13.21406364440918">
<ele>74.19999694824219</ele>
<time>2014-02-16T15:03:54Z</time>
</trkpt>
<trkpt lat="52.560813903808594" lon="13.214150428771973">
<ele>74.19999694824219</ele>
<time>2014-02-16T15:03:55Z</time>
</trkpt>
<trkpt lat="52.560813903808594" lon="13.214237213134766">
<ele>74.19999694824219</ele>
<time>2014-02-16T15:03:56Z</time>
</trkpt>
<trkpt lat="52.560829162597656" lon="13.214330673217773">
<ele>74.5999984741211</ele>
<time>2014-02-16T15:03:57Z</time>
</trkpt>
<trkpt lat="52.56084060668945" lon="13.214424133300781">
<ele>75.0999984741211</ele>
<time>2014-02-16T15:03:58Z</time>
</trkpt>
<trkpt lat="52.56083679199219" lon="13.214505195617676">
<ele>74.80000305175781</ele>
<time>2014-02-16T15:03:59Z</time>
</trkpt>
<trkpt lat="52.560855865478516" lon="13.214593887329102">
<ele>75.5</ele>
<time>2014-02-16T15:04:00Z</time>
</trkpt>
<trkpt lat="52.56086730957031" lon="13.214676856994629">
<ele>76.0999984741211</ele>
<time>2014-02-16T15:04:01Z</time>
</trkpt>
<trkpt lat="52.560890197753906" lon="13.21475887298584">
<ele>77.80000305175781</ele>
<time>2014-02-16T15:04:02Z</time>
</trkpt>
<trkpt lat="52.56087875366211" lon="13.214903831481934">
<ele>79.80000305175781</ele>
<time>2014-02-16T15:04:04Z</time>
</trkpt>
<trkpt lat="52.56084060668945" lon="13.21497631072998">
<ele>80.19999694824219</ele>
<time>2014-02-16T15:04:05Z</time>
</trkpt>
<trkpt lat="52.5608024597168" lon="13.215034484863281">
<ele>80.19999694824219</ele>
<time>2014-02-16T15:04:06Z</time>
</trkpt>
<trkpt lat="52.560760498046875" lon="13.215167045593262">
<ele>80.5</ele>
<time>2014-02-16T15:04:08Z</time>
</trkpt>
<trkpt lat="52.56073760986328" lon="13.215242385864258">
<ele>80.80000305175781</ele>
<time>2014-02-16T15:04:09Z</time>
</trkpt>
<trkpt lat="52.56070327758789" lon="13.21534252166748">
<ele>80.4000015258789</ele>
<time>2014-02-16T15:04:10Z</time>
</trkpt>
<trkpt lat="52.5606575012207" lon="13.215450286865234">
<ele>79.9000015258789</ele>
<time>2014-02-16T15:04:11Z</time>
</trkpt>
<trkpt lat="52.560646057128906" lon="13.21553897857666">
<ele>80.0</ele>
<time>2014-02-16T15:04:12Z</time>
</trkpt>
<trkpt lat="52.56061935424805" lon="13.215649604797363">
<ele>79.0999984741211</ele>
<time>2014-02-16T15:04:13Z</time>
</trkpt>
<trkpt lat="52.56060028076172" lon="13.215801239013672">
<ele>79.80000305175781</ele>
<time>2014-02-16T15:04:15Z</time>
</trkpt>
<trkpt lat="52.56058883666992" lon="13.21591567993164">
<ele>77.9000015258789</ele>
<time>2014-02-16T15:04:17Z</time>
</trkpt>
<trkpt lat="52.560577392578125" lon="13.215994834899902">
<ele>78.0999984741211</ele>
<time>2014-02-16T15:04:18Z</time>
</trkpt>
<trkpt lat="52.56056594848633" lon="13.216066360473633">
<ele>77.5999984741211</ele>
<time>2014-02-16T15:04:19Z</time>
</trkpt>
<trkpt lat="52.560550689697266" lon="13.216224670410156">
<ele>78.30000305175781</ele>
<time>2014-02-16T15:04:21Z</time>
</trkpt>
<trkpt lat="52.560543060302734" lon="13.216370582580566">
<ele>78.30000305175781</ele>
<time>2014-02-16T15:04:23Z</time>
</trkpt>
<trkpt lat="52.56053161621094" lon="13.216450691223145">
<ele>77.9000015258789</ele>
<time>2014-02-16T15:04:24Z</time>
</trkpt>
<trkpt lat="52.56051254272461" lon="13.216534614562988">
<ele>77.5999984741211</ele>
<time>2014-02-16T15:04:25Z</time>
</trkpt>
<trkpt lat="52.56050491333008" lon="13.216612815856934">
<ele>76.9000015258789</ele>
<time>2014-02-16T15:04:26Z</time>
</trkpt>
<trkpt lat="52.560489654541016" lon="13.216691017150879">
<ele>76.4000015258789</ele>
<time>2014-02-16T15:04:27Z</time>
</trkpt>
<trkpt lat="52.56047821044922" lon="13.216768264770508">
<ele>76.19999694824219</ele>
<time>2014-02-16T15:04:28Z</time>
</trkpt>
<trkpt lat="52.56046676635742" lon="13.21684455871582">
<ele>76.4000015258789</ele>
<time>2014-02-16T15:04:29Z</time>
</trkpt>
<trkpt lat="52.560455322265625" lon="13.216922760009766">
<ele>76.5</ele>
<time>2014-02-16T15:04:30Z</time>
</trkpt>
<trkpt lat="52.5604362487793" lon="13.217001914978027">
<ele>76.5</ele>
<time>2014-02-16T15:04:31Z</time>
</trkpt>
<trkpt lat="52.5604248046875" lon="13.217076301574707">
<ele>76.0</ele>
<time>2014-02-16T15:04:32Z</time>
</trkpt>
<trkpt lat="52.5604133605957" lon="13.217154502868652">
<ele>75.80000305175781</ele>
<time>2014-02-16T15:04:33Z</time>
</trkpt>
<trkpt lat="52.56040573120117" lon="13.217232704162598">
<ele>75.5</ele>
<time>2014-02-16T15:04:34Z</time>
</trkpt>
<trkpt lat="52.560394287109375" lon="13.217308044433594">
<ele>75.19999694824219</ele>
<time>2014-02-16T15:04:35Z</time>
</trkpt>
<trkpt lat="52.56038284301758" lon="13.217387199401855">
<ele>75.19999694824219</ele>
<time>2014-02-16T15:04:36Z</time>
</trkpt>
<trkpt lat="52.56037139892578" lon="13.217467308044434">
<ele>75.19999694824219</ele>
<time>2014-02-16T15:04:37Z</time>
</trkpt>
<trkpt lat="52.56035614013672" lon="13.217543601989746">
<ele>75.30000305175781</ele>
<time>2014-02-16T15:04:38Z</time>
</trkpt>
<trkpt lat="52.56034469604492" lon="13.217625617980957">
<ele>75.19999694824219</ele>
<time>2014-02-16T15:04:39Z</time>
</trkpt>
<trkpt lat="52.560333251953125" lon="13.217704772949219">
<ele>75.0999984741211</ele>
<time>2014-02-16T15:04:40Z</time>
</trkpt>
<trkpt lat="52.56032180786133" lon="13.217782020568848">
<ele>75.0</ele>
<time>2014-02-16T15:04:41Z</time>
</trkpt>
<trkpt lat="52.560306549072266" lon="13.217859268188477">
<ele>74.5</ele>
<time>2014-02-16T15:04:42Z</time>
</trkpt>
<trkpt lat="52.560298919677734" lon="13.21793270111084">
<ele>74.69999694824219</ele>
<time>2014-02-16T15:04:43Z</time>
</trkpt>
<trkpt lat="52.56028747558594" lon="13.21800422668457">
<ele>74.30000305175781</ele>
<time>2014-02-16T15:04:44Z</time>
</trkpt>
<trkpt lat="52.56025695800781" lon="13.21815013885498">
<ele>74.5</ele>
<time>2014-02-16T15:04:46Z</time>
</trkpt>
<trkpt lat="52.56024169921875" lon="13.218271255493164">
<ele>75.9000015258789</ele>
<time>2014-02-16T15:04:48Z</time>
</trkpt>
<trkpt lat="52.56023025512695" lon="13.218400955200195">
<ele>76.19999694824219</ele>
<time>2014-02-16T15:04:50Z</time>
</trkpt>
<trkpt lat="52.56022644042969" lon="13.218510627746582">
<ele>76.19999694824219</ele>
<time>2014-02-16T15:04:52Z</time>
</trkpt>
<trkpt lat="52.560211181640625" lon="13.218626976013184">
<ele>76.69999694824219</ele>
<time>2014-02-16T15:04:54Z</time>
</trkpt>
<trkpt lat="52.56019973754883" lon="13.21872615814209">
<ele>76.5999984741211</ele>
<time>2014-02-16T15:04:56Z</time>
</trkpt>
<trkpt lat="52.56017303466797" lon="13.218799591064453">
<ele>75.5</ele>
<time>2014-02-16T15:05:01Z</time>
</trkpt>
<trkpt lat="52.56013488769531" lon="13.21884536743164">
<ele>78.0999984741211</ele>
<time>2014-02-16T15:05:10Z</time>
</trkpt>
<trkpt lat="52.560123443603516" lon="13.219001770019531">
<ele>77.5999984741211</ele>
<time>2014-02-16T15:05:17Z</time>
</trkpt>
<trkpt lat="52.560115814208984" lon="13.21911907196045">
<ele>77.30000305175781</ele>
<time>2014-02-16T15:05:19Z</time>
</trkpt>
<trkpt lat="52.56010818481445" lon="13.219245910644531">
<ele>77.0999984741211</ele>
<time>2014-02-16T15:05:21Z</time>
</trkpt>
<trkpt lat="52.56009292602539" lon="13.219377517700195">
<ele>76.80000305175781</ele>
<time>2014-02-16T15:05:23Z</time>
</trkpt>
<trkpt lat="52.560089111328125" lon="13.219465255737305">
<ele>76.4000015258789</ele>
<time>2014-02-16T15:05:24Z</time>
</trkpt>
<trkpt lat="52.56005096435547" lon="13.219593048095703">
<ele>77.19999694824219</ele>
<time>2014-02-16T15:05:26Z</time>
</trkpt>
<trkpt lat="52.56005096435547" lon="13.219680786132812">
<ele>77.0</ele>
<time>2014-02-16T15:05:27Z</time>
</trkpt>
<trkpt lat="52.560035705566406" lon="13.219758033752441">
<ele>77.5</ele>
<time>2014-02-16T15:05:28Z</time>
</trkpt>
<trkpt lat="52.56001281738281" lon="13.219839096069336">
<ele>76.5999984741211</ele>
<time>2014-02-16T15:05:29Z</time>
</trkpt>
<trkpt lat="52.55997848510742" lon="13.219983100891113">
<ele>76.0</ele>
<time>2014-02-16T15:05:31Z</time>
</trkpt>
<trkpt lat="52.55996322631836" lon="13.220067024230957">
<ele>75.5999984741211</ele>
<time>2014-02-16T15:05:32Z</time>
</trkpt>
<trkpt lat="52.5599479675293" lon="13.220144271850586">
<ele>75.5999984741211</ele>
<time>2014-02-16T15:05:33Z</time>
</trkpt>
<trkpt lat="52.559932708740234" lon="13.220220565795898">
<ele>75.69999694824219</ele>
<time>2014-02-16T15:05:34Z</time>
</trkpt>
<trkpt lat="52.55991744995117" lon="13.220349311828613">
<ele>76.19999694824219</ele>
<time>2014-02-16T15:05:36Z</time>
</trkpt>
<trkpt lat="52.55990982055664" lon="13.220427513122559">
<ele>76.19999694824219</ele>
<time>2014-02-16T15:05:37Z</time>
</trkpt>
<trkpt lat="52.55989074707031" lon="13.220507621765137">
<ele>75.19999694824219</ele>
<time>2014-02-16T15:05:38Z</time>
</trkpt>
<trkpt lat="52.55986785888672" lon="13.220582008361816">
<ele>74.4000015258789</ele>
<time>2014-02-16T15:05:39Z</time>
</trkpt>
<trkpt lat="52.559844970703125" lon="13.220657348632812">
<ele>73.19999694824219</ele>
<time>2014-02-16T15:05:40Z</time>
</trkpt>
<trkpt lat="52.55982971191406" lon="13.220794677734375">
<ele>73.30000305175781</ele>
<time>2014-02-16T15:05:42Z</time>
</trkpt>
<trkpt lat="52.55979537963867" lon="13.22092342376709">
<ele>72.80000305175781</ele>
<time>2014-02-16T15:05:44Z</time>
</trkpt>
<trkpt lat="52.559814453125" lon="13.22099494934082">
<ele>74.5999984741211</ele>
<time>2014-02-16T15:05:45Z</time>
</trkpt>
<trkpt lat="52.559810638427734" lon="13.22113037109375">
<ele>75.80000305175781</ele>
<time>2014-02-16T15:05:47Z</time>
</trkpt>
<trkpt lat="52.55979919433594" lon="13.221261978149414">
<ele>77.5</ele>
<time>2014-02-16T15:05:49Z</time>
</trkpt>
<trkpt lat="52.55977249145508" lon="13.22138500213623">
<ele>77.69999694824219</ele>
<time>2014-02-16T15:05:51Z</time>
</trkpt>
<trkpt lat="52.55976104736328" lon="13.22150993347168">
<ele>77.9000015258789</ele>
<time>2014-02-16T15:05:53Z</time>
</trkpt>
<trkpt lat="52.55973434448242" lon="13.22161865234375">
<ele>77.9000015258789</ele>
<time>2014-02-16T15:05:55Z</time>
</trkpt>
<trkpt lat="52.55972671508789" lon="13.221734046936035">
<ele>78.80000305175781</ele>
<time>2014-02-16T15:05:57Z</time>
</trkpt>
<trkpt lat="52.559730529785156" lon="13.221860885620117">
<ele>79.5</ele>
<time>2014-02-16T15:05:59Z</time>
</trkpt>
<trkpt lat="52.559722900390625" lon="13.221970558166504">
<ele>80.0</ele>
<time>2014-02-16T15:06:01Z</time>
</trkpt>
<trkpt lat="52.5597038269043" lon="13.22209358215332">
<ele>79.5999984741211</ele>
<time>2014-02-16T15:06:03Z</time>
</trkpt>
<trkpt lat="52.559688568115234" lon="13.222216606140137">
<ele>79.9000015258789</ele>
<time>2014-02-16T15:06:05Z</time>
</trkpt>
<trkpt lat="52.55966567993164" lon="13.222335815429688">
<ele>80.0999984741211</ele>
<time>2014-02-16T15:06:07Z</time>
</trkpt>
<trkpt lat="52.55965042114258" lon="13.222451210021973">
<ele>80.5</ele>
<time>2014-02-16T15:06:09Z</time>
</trkpt>
<trkpt lat="52.559627532958984" lon="13.222577095031738">
<ele>80.4000015258789</ele>
<time>2014-02-16T15:06:11Z</time>
</trkpt>
<trkpt lat="52.559608459472656" lon="13.222701072692871">
<ele>80.5</ele>
<time>2014-02-16T15:06:13Z</time>
</trkpt>
<trkpt lat="52.55959701538086" lon="13.222826957702637">
<ele>80.5</ele>
<time>2014-02-16T15:06:15Z</time>
</trkpt>
<trkpt lat="52.5595817565918" lon="13.222959518432617">
<ele>80.30000305175781</ele>
<time>2014-02-16T15:06:17Z</time>
</trkpt>
<trkpt lat="52.559566497802734" lon="13.223098754882812">
<ele>80.30000305175781</ele>
<time>2014-02-16T15:06:19Z</time>
</trkpt>
<trkpt lat="52.55954360961914" lon="13.22323226928711">
<ele>80.30000305175781</ele>
<time>2014-02-16T15:06:21Z</time>
</trkpt>
<trkpt lat="52.559532165527344" lon="13.223366737365723">
<ele>80.30000305175781</ele>
<time>2014-02-16T15:06:23Z</time>
</trkpt>
<trkpt lat="52.559505462646484" lon="13.223499298095703">
<ele>80.69999694824219</ele>
<time>2014-02-16T15:06:25Z</time>
</trkpt>
<trkpt lat="52.55948257446289" lon="13.223627090454102">
<ele>80.69999694824219</ele>
<time>2014-02-16T15:06:27Z</time>
</trkpt>
<trkpt lat="52.55945587158203" lon="13.223761558532715">
<ele>80.9000015258789</ele>
<time>2014-02-16T15:06:29Z</time>
</trkpt>
<trkpt lat="52.55944061279297" lon="13.223891258239746">
<ele>80.80000305175781</ele>
<time>2014-02-16T15:06:31Z</time>
</trkpt>
<trkpt lat="52.55942153930664" lon="13.224023818969727">
<ele>81.4000015258789</ele>
<time>2014-02-16T15:06:33Z</time>
</trkpt>
<trkpt lat="52.55939483642578" lon="13.224154472351074">
<ele>81.80000305175781</ele>
<time>2014-02-16T15:06:35Z</time>
</trkpt>
<trkpt lat="52.55937957763672" lon="13.224283218383789">
<ele>81.5999984741211</ele>
<time>2014-02-16T15:06:37Z</time>
</trkpt>
<trkpt lat="52.55936050415039" lon="13.224421501159668">
<ele>81.69999694824219</ele>
<time>2014-02-16T15:06:39Z</time>
</trkpt>
<trkpt lat="52.55934524536133" lon="13.224565505981445">
<ele>81.5999984741211</ele>
<time>2014-02-16T15:06:41Z</time>
</trkpt>
<trkpt lat="52.55933380126953" lon="13.224637031555176">
<ele>81.5</ele>
<time>2014-02-16T15:06:42Z</time>
</trkpt>
<trkpt lat="52.559322357177734" lon="13.224708557128906">
<ele>81.19999694824219</ele>
<time>2014-02-16T15:06:43Z</time>
</trkpt>
<trkpt lat="52.55931091308594" lon="13.224781036376953">
<ele>81.19999694824219</ele>
<time>2014-02-16T15:06:44Z</time>
</trkpt>
<trkpt lat="52.559295654296875" lon="13.224929809570312">
<ele>81.5</ele>
<time>2014-02-16T15:06:46Z</time>
</trkpt>
<trkpt lat="52.559268951416016" lon="13.225074768066406">
<ele>81.9000015258789</ele>
<time>2014-02-16T15:06:48Z</time>
</trkpt>
<trkpt lat="52.55924987792969" lon="13.225214958190918">
<ele>82.0</ele>
<time>2014-02-16T15:06:50Z</time>
</trkpt>
<trkpt lat="52.559226989746094" lon="13.225356101989746">
<ele>81.5</ele>
<time>2014-02-16T15:06:52Z</time>
</trkpt>
<trkpt lat="52.5592155456543" lon="13.225432395935059">
<ele>81.5</ele>
<time>2014-02-16T15:06:53Z</time>
</trkpt>
<trkpt lat="52.5592041015625" lon="13.22551155090332">
<ele>81.19999694824219</ele>
<time>2014-02-16T15:06:54Z</time>
</trkpt>
<trkpt lat="52.55919647216797" lon="13.225584983825684">
<ele>80.80000305175781</ele>
<time>2014-02-16T15:06:55Z</time>
</trkpt>
<trkpt lat="52.55918502807617" lon="13.225665092468262">
<ele>80.9000015258789</ele>
<time>2014-02-16T15:06:56Z</time>
</trkpt>
<trkpt lat="52.55916976928711" lon="13.22575569152832">
<ele>80.80000305175781</ele>
<time>2014-02-16T15:06:57Z</time>
</trkpt>
<trkpt lat="52.55915451049805" lon="13.225842475891113">
<ele>80.5</ele>
<time>2014-02-16T15:06:58Z</time>
</trkpt>
<trkpt lat="52.55914306640625" lon="13.225924491882324">
<ele>80.4000015258789</ele>
<time>2014-02-16T15:06:59Z</time>
</trkpt>
<trkpt lat="52.55913543701172" lon="13.22601318359375">
<ele>80.19999694824219</ele>
<time>2014-02-16T15:07:00Z</time>
</trkpt>
<trkpt lat="52.559120178222656" lon="13.22609806060791">
<ele>80.0</ele>
<time>2014-02-16T15:07:01Z</time>
</trkpt>
<trkpt lat="52.55910873413086" lon="13.22618293762207">
<ele>79.80000305175781</ele>
<time>2014-02-16T15:07:02Z</time>
</trkpt>
<trkpt lat="52.5590934753418" lon="13.226273536682129">
<ele>79.5</ele>
<time>2014-02-16T15:07:03Z</time>
</trkpt>
<trkpt lat="52.559078216552734" lon="13.226365089416504">
<ele>79.30000305175781</ele>
<time>2014-02-16T15:07:04Z</time>
</trkpt>
<trkpt lat="52.55905532836914" lon="13.22645378112793">
<ele>79.0</ele>
<time>2014-02-16T15:07:05Z</time>
</trkpt>
<trkpt lat="52.55903244018555" lon="13.226546287536621">
<ele>78.69999694824219</ele>
<time>2014-02-16T15:07:06Z</time>
</trkpt>
<trkpt lat="52.559017181396484" lon="13.226639747619629">
<ele>78.4000015258789</ele>
<time>2014-02-16T15:07:07Z</time>
</trkpt>
<trkpt lat="52.55900192260742" lon="13.226731300354004">
<ele>78.30000305175781</ele>
<time>2014-02-16T15:07:08Z</time>
</trkpt>
<trkpt lat="52.558990478515625" lon="13.226821899414062">
<ele>77.9000015258789</ele>
<time>2014-02-16T15:07:09Z</time>
</trkpt>
<trkpt lat="52.55897521972656" lon="13.226916313171387">
<ele>77.80000305175781</ele>
<time>2014-02-16T15:07:10Z</time>
</trkpt>
<trkpt lat="52.558963775634766" lon="13.227007865905762">
<ele>77.4000015258789</ele>
<time>2014-02-16T15:07:11Z</time>
</trkpt>
<trkpt lat="52.55895233154297" lon="13.227093696594238">
<ele>77.4000015258789</ele>
<time>2014-02-16T15:07:12Z</time>
</trkpt>
<trkpt lat="52.55894470214844" lon="13.227168083190918">
<ele>77.4000015258789</ele>
<time>2014-02-16T15:07:13Z</time>
</trkpt>
<trkpt lat="52.55892562866211" lon="13.227303504943848">
<ele>77.19999694824219</ele>
<time>2014-02-16T15:07:15Z</time>
</trkpt>
<trkpt lat="52.558902740478516" lon="13.227409362792969">
<ele>76.9000015258789</ele>
<time>2014-02-16T15:07:18Z</time>
</trkpt>
<trkpt lat="52.55887985229492" lon="13.227477073669434">
<ele>76.4000015258789</ele>
<time>2014-02-16T15:07:21Z</time>
</trkpt>
<trkpt lat="52.55885314941406" lon="13.227581977844238">
<ele>75.0999984741211</ele>
<time>2014-02-16T15:07:53Z</time>
</trkpt>
<trkpt lat="52.55882263183594" lon="13.227700233459473">
<ele>75.5</ele>
<time>2014-02-16T15:07:55Z</time>
</trkpt>
<trkpt lat="52.558807373046875" lon="13.227775573730469">
<ele>75.19999694824219</ele>
<time>2014-02-16T15:07:56Z</time>
</trkpt>
<trkpt lat="52.55879592895508" lon="13.227856636047363">
<ele>74.9000015258789</ele>
<time>2014-02-16T15:07:57Z</time>
</trkpt>
<trkpt lat="52.55878448486328" lon="13.22793960571289">
<ele>74.80000305175781</ele>
<time>2014-02-16T15:07:58Z</time>
</trkpt>
<trkpt lat="52.558773040771484" lon="13.228025436401367">
<ele>74.69999694824219</ele>
<time>2014-02-16T15:07:59Z</time>
</trkpt>
<trkpt lat="52.55876159667969" lon="13.228113174438477">
<ele>74.5999984741211</ele>
<time>2014-02-16T15:08:00Z</time>
</trkpt>
<trkpt lat="52.55875015258789" lon="13.228200912475586">
<ele>74.5999984741211</ele>
<time>2014-02-16T15:08:01Z</time>
</trkpt>
<trkpt lat="52.55873489379883" lon="13.228290557861328">
<ele>74.5999984741211</ele>
<time>2014-02-16T15:08:02Z</time>
</trkpt>
<trkpt lat="52.5587158203125" lon="13.22838020324707">
<ele>74.5999984741211</ele>
<time>2014-02-16T15:08:03Z</time>
</trkpt>
<trkpt lat="52.558692932128906" lon="13.228460311889648">
<ele>74.5999984741211</ele>
<time>2014-02-16T15:08:04Z</time>
</trkpt>
<trkpt lat="52.55867004394531" lon="13.228551864624023">
<ele>74.5999984741211</ele>
<time>2014-02-16T15:08:05Z</time>
</trkpt>
<trkpt lat="52.558658599853516" lon="13.228647232055664">
<ele>74.5999984741211</ele>
<time>2014-02-16T15:08:06Z</time>
</trkpt>
<trkpt lat="52.55863952636719" lon="13.228753089904785">
<ele>74.5</ele>
<time>2014-02-16T15:08:07Z</time>
</trkpt>
<trkpt lat="52.55862045288086" lon="13.228856086730957">
<ele>74.4000015258789</ele>
<time>2014-02-16T15:08:08Z</time>
</trkpt>
<trkpt lat="52.55860137939453" lon="13.228958129882812">
<ele>74.4000015258789</ele>
<time>2014-02-16T15:08:09Z</time>
</trkpt>
<trkpt lat="52.558589935302734" lon="13.229063034057617">
<ele>74.5999984741211</ele>
<time>2014-02-16T15:08:10Z</time>
</trkpt>
<trkpt lat="52.55857467651367" lon="13.229165077209473">
<ele>74.0999984741211</ele>
<time>2014-02-16T15:08:11Z</time>
</trkpt>
<trkpt lat="52.55855941772461" lon="13.22927188873291">
<ele>74.0</ele>
<time>2014-02-16T15:08:12Z</time>
</trkpt>
<trkpt lat="52.55854034423828" lon="13.22937297821045">
<ele>73.5999984741211</ele>
<time>2014-02-16T15:08:13Z</time>
</trkpt>
<trkpt lat="52.55852127075195" lon="13.22946834564209">
<ele>73.30000305175781</ele>
<time>2014-02-16T15:08:14Z</time>
</trkpt>
<trkpt lat="52.558509826660156" lon="13.229572296142578">
<ele>73.30000305175781</ele>
<time>2014-02-16T15:08:15Z</time>
</trkpt>
<trkpt lat="52.558502197265625" lon="13.229669570922852">
<ele>73.0</ele>
<time>2014-02-16T15:08:16Z</time>
</trkpt>
<trkpt lat="52.55849838256836" lon="13.229772567749023">
<ele>72.5999984741211</ele>
<time>2014-02-16T15:08:17Z</time>
</trkpt>
<trkpt lat="52.55848693847656" lon="13.229873657226562">
<ele>72.69999694824219</ele>
<time>2014-02-16T15:08:18Z</time>
</trkpt>
<trkpt lat="52.558475494384766" lon="13.229966163635254">
<ele>72.80000305175781</ele>
<time>2014-02-16T15:08:19Z</time>
</trkpt>
<trkpt lat="52.5584602355957" lon="13.230057716369629">
<ele>72.69999694824219</ele>
<time>2014-02-16T15:08:20Z</time>
</trkpt>
<trkpt lat="52.55844497680664" lon="13.23015022277832">
<ele>72.5</ele>
<time>2014-02-16T15:08:21Z</time>
</trkpt>
<trkpt lat="52.55841827392578" lon="13.230243682861328">
<ele>72.5999984741211</ele>
<time>2014-02-16T15:08:22Z</time>
</trkpt>
<trkpt lat="52.55839538574219" lon="13.230320930480957">
<ele>72.4000015258789</ele>
<time>2014-02-16T15:08:23Z</time>
</trkpt>
<trkpt lat="52.558372497558594" lon="13.230406761169434">
<ele>72.5</ele>
<time>2014-02-16T15:08:24Z</time>
</trkpt>
<trkpt lat="52.55835723876953" lon="13.230491638183594">
<ele>72.4000015258789</ele>
<time>2014-02-16T15:08:25Z</time>
</trkpt>
<trkpt lat="52.558353424072266" lon="13.23057746887207">
<ele>72.4000015258789</ele>
<time>2014-02-16T15:08:26Z</time>
</trkpt>
<trkpt lat="52.55834197998047" lon="13.230674743652344">
<ele>72.4000015258789</ele>
<time>2014-02-16T15:08:27Z</time>
</trkpt>
<trkpt lat="52.5583381652832" lon="13.230758666992188">
<ele>72.0</ele>
<time>2014-02-16T15:08:28Z</time>
</trkpt>
<trkpt lat="52.55832290649414" lon="13.230847358703613">
<ele>71.5</ele>
<time>2014-02-16T15:08:29Z</time>
</trkpt>
<trkpt lat="52.55831527709961" lon="13.230937004089355">
<ele>70.69999694824219</ele>
<time>2014-02-16T15:08:30Z</time>
</trkpt>
<trkpt lat="52.55826950073242" lon="13.23098087310791">
<ele>70.19999694824219</ele>
<time>2014-02-16T15:08:31Z</time>
</trkpt>
<trkpt lat="52.55820083618164" lon="13.230984687805176">
<ele>71.0</ele>
<time>2014-02-16T15:08:32Z</time>
</trkpt>
<trkpt lat="52.55815505981445" lon="13.231006622314453">
<ele>71.30000305175781</ele>
<time>2014-02-16T15:08:33Z</time>
</trkpt>
<trkpt lat="52.55810546875" lon="13.231027603149414">
<ele>71.5999984741211</ele>
<time>2014-02-16T15:08:34Z</time>
</trkpt>
<trkpt lat="52.55805587768555" lon="13.231059074401855">
<ele>71.69999694824219</ele>
<time>2014-02-16T15:08:35Z</time>
</trkpt>
<trkpt lat="52.55800247192383" lon="13.231075286865234">
<ele>71.9000015258789</ele>
<time>2014-02-16T15:08:36Z</time>
</trkpt>
<trkpt lat="52.55794906616211" lon="13.231091499328613">
<ele>71.80000305175781</ele>
<time>2014-02-16T15:08:37Z</time>
</trkpt>
<trkpt lat="52.55789566040039" lon="13.231118202209473">
<ele>71.9000015258789</ele>
<time>2014-02-16T15:08:38Z</time>
</trkpt>
<trkpt lat="52.55784225463867" lon="13.231142044067383">
<ele>72.0</ele>
<time>2014-02-16T15:08:39Z</time>
</trkpt>
<trkpt lat="52.55779266357422" lon="13.23116397857666">
<ele>72.4000015258789</ele>
<time>2014-02-16T15:08:40Z</time>
</trkpt>
<trkpt lat="52.557743072509766" lon="13.231181144714355">
<ele>72.19999694824219</ele>
<time>2014-02-16T15:08:41Z</time>
</trkpt>
<trkpt lat="52.55768585205078" lon="13.231197357177734">
<ele>72.19999694824219</ele>
<time>2014-02-16T15:08:42Z</time>
</trkpt>
<trkpt lat="52.557640075683594" lon="13.231236457824707">
<ele>71.9000015258789</ele>
<time>2014-02-16T15:08:43Z</time>
</trkpt>
<trkpt lat="52.557586669921875" lon="13.231270790100098">
<ele>72.4000015258789</ele>
<time>2014-02-16T15:08:44Z</time>
</trkpt>
<trkpt lat="52.557533264160156" lon="13.231290817260742">
<ele>72.4000015258789</ele>
<time>2014-02-16T15:08:45Z</time>
</trkpt>
<trkpt lat="52.55747985839844" lon="13.231307029724121">
<ele>73.0999984741211</ele>
<time>2014-02-16T15:08:46Z</time>
</trkpt>
<trkpt lat="52.55742645263672" lon="13.231328964233398">
<ele>73.80000305175781</ele>
<time>2014-02-16T15:08:47Z</time>
</trkpt>
<trkpt lat="52.557373046875" lon="13.23134994506836">
<ele>74.0999984741211</ele>
<time>2014-02-16T15:08:48Z</time>
</trkpt>
<trkpt lat="52.55732727050781" lon="13.231371879577637">
<ele>73.30000305175781</ele>
<time>2014-02-16T15:08:49Z</time>
</trkpt>
<trkpt lat="52.557273864746094" lon="13.231389999389648">
<ele>73.19999694824219</ele>
<time>2014-02-16T15:08:50Z</time>
</trkpt>
<trkpt lat="52.557228088378906" lon="13.231412887573242">
<ele>73.19999694824219</ele>
<time>2014-02-16T15:08:51Z</time>
</trkpt>
<trkpt lat="52.55717849731445" lon="13.231435775756836">
<ele>73.19999694824219</ele>
<time>2014-02-16T15:08:52Z</time>
</trkpt>
<trkpt lat="52.55712127685547" lon="13.23145866394043">
<ele>72.80000305175781</ele>
<time>2014-02-16T15:08:53Z</time>
</trkpt>
<trkpt lat="52.557071685791016" lon="13.231464385986328">
<ele>72.5</ele>
<time>2014-02-16T15:08:54Z</time>
</trkpt>
<trkpt lat="52.5570182800293" lon="13.2314453125">
<ele>72.30000305175781</ele>
<time>2014-02-16T15:08:55Z</time>
</trkpt>
<trkpt lat="52.55697250366211" lon="13.231414794921875">
<ele>71.9000015258789</ele>
<time>2014-02-16T15:08:56Z</time>
</trkpt>
<trkpt lat="52.55692672729492" lon="13.231382369995117">
<ele>72.0999984741211</ele>
<time>2014-02-16T15:08:57Z</time>
</trkpt>
<trkpt lat="52.556880950927734" lon="13.231341361999512">
<ele>72.0</ele>
<time>2014-02-16T15:08:58Z</time>
</trkpt>
<trkpt lat="52.55683135986328" lon="13.231303215026855">
<ele>72.4000015258789</ele>
<time>2014-02-16T15:08:59Z</time>
</trkpt>
<trkpt lat="52.556793212890625" lon="13.231266975402832">
<ele>72.30000305175781</ele>
<time>2014-02-16T15:09:00Z</time>
</trkpt>
<trkpt lat="52.55674743652344" lon="13.231221199035645">
<ele>71.69999694824219</ele>
<time>2014-02-16T15:09:01Z</time>
</trkpt>
<trkpt lat="52.55670928955078" lon="13.231181144714355">
<ele>71.0</ele>
<time>2014-02-16T15:09:02Z</time>
</trkpt>
<trkpt lat="52.55665969848633" lon="13.231144905090332">
<ele>71.5999984741211</ele>
<time>2014-02-16T15:09:03Z</time>
</trkpt>
<trkpt lat="52.55661392211914" lon="13.231104850769043">
<ele>71.80000305175781</ele>
<time>2014-02-16T15:09:04Z</time>
</trkpt>
<trkpt lat="52.55656433105469" lon="13.23106861114502">
<ele>72.30000305175781</ele>
<time>2014-02-16T15:09:06Z</time>
</trkpt>
<trkpt lat="52.55647277832031" lon="13.230990409851074">
<ele>72.5999984741211</ele>
<time>2014-02-16T15:09:07Z</time>
</trkpt>
<trkpt lat="52.556427001953125" lon="13.230949401855469">
<ele>72.4000015258789</ele>
<time>2014-02-16T15:09:08Z</time>
</trkpt>
<trkpt lat="52.55638122558594" lon="13.23090648651123">
<ele>72.5999984741211</ele>
<time>2014-02-16T15:09:09Z</time>
</trkpt>
<trkpt lat="52.556339263916016" lon="13.230866432189941">
<ele>72.5999984741211</ele>
<time>2014-02-16T15:09:10Z</time>
</trkpt>
<trkpt lat="52.55629348754883" lon="13.230828285217285">
<ele>72.80000305175781</ele>
<time>2014-02-16T15:09:11Z</time>
</trkpt>
<trkpt lat="52.55624771118164" lon="13.230794906616211">
<ele>72.69999694824219</ele>
<time>2014-02-16T15:09:12Z</time>
</trkpt>
<trkpt lat="52.55620193481445" lon="13.230753898620605">
<ele>72.80000305175781</ele>
<time>2014-02-16T15:09:13Z</time>
</trkpt>
<trkpt lat="52.55615997314453" lon="13.230716705322266">
<ele>72.9000015258789</ele>
<time>2014-02-16T15:09:14Z</time>
</trkpt>
<trkpt lat="52.55611038208008" lon="13.230672836303711">
<ele>72.69999694824219</ele>
<time>2014-02-16T15:09:15Z</time>
</trkpt>
<trkpt lat="52.55607223510742" lon="13.230619430541992">
<ele>72.30000305175781</ele>
<time>2014-02-16T15:09:16Z</time>
</trkpt>
<trkpt lat="52.556026458740234" lon="13.230568885803223">
<ele>72.19999694824219</ele>
<time>2014-02-16T15:09:17Z</time>
</trkpt>
<trkpt lat="52.55597686767578" lon="13.230518341064453">
<ele>72.30000305175781</ele>
<time>2014-02-16T15:09:18Z</time>
</trkpt>
<trkpt lat="52.555931091308594" lon="13.23046875">
<ele>72.0999984741211</ele>
<time>2014-02-16T15:09:19Z</time>
</trkpt>
<trkpt lat="52.555885314941406" lon="13.230430603027344">
<ele>72.4000015258789</ele>
<time>2014-02-16T15:09:20Z</time>
</trkpt>
<trkpt lat="52.55583953857422" lon="13.230387687683105">
<ele>72.5</ele>
<time>2014-02-16T15:09:21Z</time>
</trkpt>
<trkpt lat="52.55579376220703" lon="13.230350494384766">
<ele>72.5999984741211</ele>
<time>2014-02-16T15:09:22Z</time>
</trkpt>
<trkpt lat="52.555747985839844" lon="13.230307579040527">
<ele>72.4000015258789</ele>
<time>2014-02-16T15:09:23Z</time>
</trkpt>
<trkpt lat="52.555702209472656" lon="13.230269432067871">
<ele>72.4000015258789</ele>
<time>2014-02-16T15:09:24Z</time>
</trkpt>
<trkpt lat="52.55565643310547" lon="13.230228424072266">
<ele>72.30000305175781</ele>
<time>2014-02-16T15:09:25Z</time>
</trkpt>
<trkpt lat="52.555606842041016" lon="13.230186462402344">
<ele>72.5999984741211</ele>
<time>2014-02-16T15:09:26Z</time>
</trkpt>
<trkpt lat="52.55556869506836" lon="13.230146408081055">
<ele>72.19999694824219</ele>
<time>2014-02-16T15:09:27Z</time>
</trkpt>
<trkpt lat="52.55552291870117" lon="13.230103492736816">
<ele>71.9000015258789</ele>
<time>2014-02-16T15:09:28Z</time>
</trkpt>
<trkpt lat="52.55548095703125" lon="13.230060577392578">
<ele>72.0999984741211</ele>
<time>2014-02-16T15:09:29Z</time>
</trkpt>
<trkpt lat="52.55543518066406" lon="13.230020523071289">
<ele>72.0999984741211</ele>
<time>2014-02-16T15:09:30Z</time>
</trkpt>
<trkpt lat="52.555389404296875" lon="13.229984283447266">
<ele>72.19999694824219</ele>
<time>2014-02-16T15:09:31Z</time>
</trkpt>
<trkpt lat="52.55534362792969" lon="13.229949951171875">
<ele>72.30000305175781</ele>
<time>2014-02-16T15:09:32Z</time>
</trkpt>
<trkpt lat="52.5552978515625" lon="13.229912757873535">
<ele>72.4000015258789</ele>
<time>2014-02-16T15:09:34Z</time>
</trkpt>
<trkpt lat="52.55525207519531" lon="13.22988224029541">
<ele>72.5999984741211</ele>
<time>2014-02-16T15:09:34Z</time>
</trkpt>
<trkpt lat="52.55521011352539" lon="13.22983455657959">
<ele>72.5999984741211</ele>
<time>2014-02-16T15:09:35Z</time>
</trkpt>
<trkpt lat="52.5551643371582" lon="13.229790687561035">
<ele>72.69999694824219</ele>
<time>2014-02-16T15:09:36Z</time>
</trkpt>
<trkpt lat="52.55511474609375" lon="13.229754447937012">
<ele>72.80000305175781</ele>
<time>2014-02-16T15:09:37Z</time>
</trkpt>
<trkpt lat="52.555076599121094" lon="13.229719161987305">
<ele>72.69999694824219</ele>
<time>2014-02-16T15:09:38Z</time>
</trkpt>
<trkpt lat="52.555030822753906" lon="13.229681015014648">
<ele>72.5999984741211</ele>
<time>2014-02-16T15:09:39Z</time>
</trkpt>
<trkpt lat="52.55498504638672" lon="13.229643821716309">
<ele>72.5999984741211</ele>
<time>2014-02-16T15:09:40Z</time>
</trkpt>
<trkpt lat="52.55493927001953" lon="13.229601860046387">
<ele>72.4000015258789</ele>
<time>2014-02-16T15:09:41Z</time>
</trkpt>
<trkpt lat="52.554901123046875" lon="13.229565620422363">
<ele>72.4000015258789</ele>
<time>2014-02-16T15:09:42Z</time>
</trkpt>
<trkpt lat="52.55485534667969" lon="13.22952938079834">
<ele>72.0999984741211</ele>
<time>2014-02-16T15:09:43Z</time>
</trkpt>
<trkpt lat="52.55481719970703" lon="13.22948932647705">
<ele>72.0999984741211</ele>
<time>2014-02-16T15:09:44Z</time>
</trkpt>
<trkpt lat="52.55477523803711" lon="13.229454040527344">
<ele>72.0999984741211</ele>
<time>2014-02-16T15:09:45Z</time>
</trkpt>
<trkpt lat="52.5546989440918" lon="13.22938060760498">
<ele>72.19999694824219</ele>
<time>2014-02-16T15:09:47Z</time>
</trkpt>
<trkpt lat="52.55461502075195" lon="13.229304313659668">
<ele>72.19999694824219</ele>
<time>2014-02-16T15:09:49Z</time>
</trkpt>
<trkpt lat="52.55453872680664" lon="13.22923469543457">
<ele>72.30000305175781</ele>
<time>2014-02-16T15:09:51Z</time>
</trkpt>
<trkpt lat="52.55446243286133" lon="13.22916316986084">
<ele>72.30000305175781</ele>
<time>2014-02-16T15:09:53Z</time>
</trkpt>
<trkpt lat="52.554420471191406" lon="13.229125022888184">
<ele>72.19999694824219</ele>
<time>2014-02-16T15:09:54Z</time>
</trkpt>
<trkpt lat="52.55438232421875" lon="13.229087829589844">
<ele>71.80000305175781</ele>
<time>2014-02-16T15:09:55Z</time>
</trkpt>
<trkpt lat="52.55430603027344" lon="13.22902774810791">
<ele>71.30000305175781</ele>
<time>2014-02-16T15:09:57Z</time>
</trkpt>
<trkpt lat="52.554229736328125" lon="13.228959083557129">
<ele>71.5</ele>
<time>2014-02-16T15:09:59Z</time>
</trkpt>
<trkpt lat="52.55414581298828" lon="13.228899002075195">
<ele>71.9000015258789</ele>
<time>2014-02-16T15:10:01Z</time>
</trkpt>
<trkpt lat="52.554073333740234" lon="13.228838920593262">
<ele>72.0999984741211</ele>
<time>2014-02-16T15:10:03Z</time>
</trkpt>
<trkpt lat="52.553993225097656" lon="13.228788375854492">
<ele>72.0999984741211</ele>
<time>2014-02-16T15:10:05Z</time>
</trkpt>
<trkpt lat="52.553916931152344" lon="13.228727340698242">
<ele>72.30000305175781</ele>
<time>2014-02-16T15:10:07Z</time>
</trkpt>
<trkpt lat="52.55384826660156" lon="13.22866439819336">
<ele>73.5</ele>
<time>2014-02-16T15:10:09Z</time>
</trkpt>
<trkpt lat="52.553775787353516" lon="13.228595733642578">
<ele>74.19999694824219</ele>
<time>2014-02-16T15:10:11Z</time>
</trkpt>
<trkpt lat="52.553714752197266" lon="13.228515625">
<ele>73.9000015258789</ele>
<time>2014-02-16T15:10:13Z</time>
</trkpt>
<trkpt lat="52.55366134643555" lon="13.228446960449219">
<ele>73.69999694824219</ele>
<time>2014-02-16T15:10:16Z</time>
</trkpt>
<trkpt lat="52.55360794067383" lon="13.228424072265625">
<ele>71.4000015258789</ele>
<time>2014-02-16T15:10:18Z</time>
</trkpt>
<trkpt lat="52.553565979003906" lon="13.228484153747559">
<ele>71.0999984741211</ele>
<time>2014-02-16T15:10:19Z</time>
</trkpt>
<trkpt lat="52.55354690551758" lon="13.22857666015625">
<ele>70.5999984741211</ele>
<time>2014-02-16T15:10:21Z</time>
</trkpt>
<trkpt lat="52.55351257324219" lon="13.228689193725586">
<ele>70.69999694824219</ele>
<time>2014-02-16T15:10:22Z</time>
</trkpt>
<trkpt lat="52.55347442626953" lon="13.228784561157227">
<ele>70.0999984741211</ele>
<time>2014-02-16T15:10:24Z</time>
</trkpt>
<trkpt lat="52.55344772338867" lon="13.228897094726562">
<ele>70.30000305175781</ele>
<time>2014-02-16T15:10:26Z</time>
</trkpt>
<trkpt lat="52.55340576171875" lon="13.229018211364746">
<ele>70.30000305175781</ele>
<time>2014-02-16T15:10:29Z</time>
</trkpt>
<trkpt lat="52.553382873535156" lon="13.229084014892578">
<ele>70.5</ele>
<time>2014-02-16T15:10:29Z</time>
</trkpt>
<trkpt lat="52.55335998535156" lon="13.22914981842041">
<ele>70.30000305175781</ele>
<time>2014-02-16T15:10:30Z</time>
</trkpt>
<trkpt lat="52.55332946777344" lon="13.229278564453125">
<ele>70.69999694824219</ele>
<time>2014-02-16T15:10:32Z</time>
</trkpt>
<trkpt lat="52.55329513549805" lon="13.229342460632324">
<ele>70.5</ele>
<time>2014-02-16T15:10:33Z</time>
</trkpt>
<trkpt lat="52.55324935913086" lon="13.229452133178711">
<ele>70.9000015258789</ele>
<time>2014-02-16T15:10:35Z</time>
</trkpt>
<trkpt lat="52.55321502685547" lon="13.229565620422363">
<ele>70.9000015258789</ele>
<time>2014-02-16T15:10:37Z</time>
</trkpt>
<trkpt lat="52.55318069458008" lon="13.229687690734863">
<ele>69.5</ele>
<time>2014-02-16T15:10:39Z</time>
</trkpt>
<trkpt lat="52.553131103515625" lon="13.229808807373047">
<ele>68.80000305175781</ele>
<time>2014-02-16T15:10:41Z</time>
</trkpt>
<trkpt lat="52.55310821533203" lon="13.229881286621094">
<ele>68.19999694824219</ele>
<time>2014-02-16T15:10:42Z</time>
</trkpt>
<trkpt lat="52.55308151245117" lon="13.22994613647461">
<ele>68.30000305175781</ele>
<time>2014-02-16T15:10:43Z</time>
</trkpt>
<trkpt lat="52.55305480957031" lon="13.230019569396973">
<ele>68.5</ele>
<time>2014-02-16T15:10:45Z</time>
</trkpt>
<trkpt lat="52.55303192138672" lon="13.230088233947754">
<ele>68.80000305175781</ele>
<time>2014-02-16T15:10:45Z</time>
</trkpt>
<trkpt lat="52.55300521850586" lon="13.230151176452637">
<ele>69.0999984741211</ele>
<time>2014-02-16T15:10:46Z</time>
</trkpt>
<trkpt lat="52.552974700927734" lon="13.23027515411377">
<ele>70.0</ele>
<time>2014-02-16T15:10:48Z</time>
</trkpt>
<trkpt lat="52.552921295166016" lon="13.230417251586914">
<ele>70.5</ele>
<time>2014-02-16T15:10:50Z</time>
</trkpt>
<trkpt lat="52.55290222167969" lon="13.23049259185791">
<ele>69.80000305175781</ele>
<time>2014-02-16T15:10:51Z</time>
</trkpt>
<trkpt lat="52.552879333496094" lon="13.230566024780273">
<ele>69.0999984741211</ele>
<time>2014-02-16T15:10:52Z</time>
</trkpt>
<trkpt lat="52.552852630615234" lon="13.230639457702637">
<ele>68.9000015258789</ele>
<time>2014-02-16T15:10:53Z</time>
</trkpt>
<trkpt lat="52.552825927734375" lon="13.230708122253418">
<ele>68.69999694824219</ele>
<time>2014-02-16T15:10:54Z</time>
</trkpt>
<trkpt lat="52.55279541015625" lon="13.23078441619873">
<ele>68.30000305175781</ele>
<time>2014-02-16T15:10:55Z</time>
</trkpt>
<trkpt lat="52.552772521972656" lon="13.230852127075195">
<ele>68.30000305175781</ele>
<time>2014-02-16T15:10:56Z</time>
</trkpt>
<trkpt lat="52.552730560302734" lon="13.230978012084961">
<ele>69.30000305175781</ele>
<time>2014-02-16T15:10:58Z</time>
</trkpt>
<trkpt lat="52.552711486816406" lon="13.231049537658691">
<ele>69.19999694824219</ele>
<time>2014-02-16T15:10:59Z</time>
</trkpt>
<trkpt lat="52.552696228027344" lon="13.231123924255371">
<ele>69.19999694824219</ele>
<time>2014-02-16T15:11:00Z</time>
</trkpt>
<trkpt lat="52.552677154541016" lon="13.231199264526367">
<ele>68.80000305175781</ele>
<time>2014-02-16T15:11:01Z</time>
</trkpt>
<trkpt lat="52.55265426635742" lon="13.23128604888916">
<ele>70.0</ele>
<time>2014-02-16T15:11:02Z</time>
</trkpt>
<trkpt lat="52.552608489990234" lon="13.231407165527344">
<ele>70.0</ele>
<time>2014-02-16T15:11:04Z</time>
</trkpt>
<trkpt lat="52.552589416503906" lon="13.23147964477539">
<ele>70.0</ele>
<time>2014-02-16T15:11:05Z</time>
</trkpt>
<trkpt lat="52.55255126953125" lon="13.231608390808105">
<ele>69.4000015258789</ele>
<time>2014-02-16T15:11:07Z</time>
</trkpt>
<trkpt lat="52.55257797241211" lon="13.23172378540039">
<ele>70.4000015258789</ele>
<time>2014-02-16T15:11:09Z</time>
</trkpt>
<trkpt lat="52.552650451660156" lon="13.231788635253906">
<ele>69.5</ele>
<time>2014-02-16T15:11:11Z</time>
</trkpt>
<trkpt lat="52.55270004272461" lon="13.231850624084473">
<ele>68.19999694824219</ele>
<time>2014-02-16T15:11:13Z</time>
</trkpt>
<trkpt lat="52.55275344848633" lon="13.231887817382812">
<ele>68.19999694824219</ele>
<time>2014-02-16T15:11:46Z</time>
</trkpt>
<trkpt lat="52.55280303955078" lon="13.231956481933594">
<ele>68.5999984741211</ele>
<time>2014-02-16T15:11:48Z</time>
</trkpt>
<trkpt lat="52.55286407470703" lon="13.232003211975098">
<ele>68.5</ele>
<time>2014-02-16T15:11:50Z</time>
</trkpt>
<trkpt lat="52.55293655395508" lon="13.232080459594727">
<ele>69.4000015258789</ele>
<time>2014-02-16T15:11:52Z</time>
</trkpt>
<trkpt lat="52.55300521850586" lon="13.232157707214355">
<ele>69.9000015258789</ele>
<time>2014-02-16T15:11:54Z</time>
</trkpt>
<trkpt lat="52.55308532714844" lon="13.232213973999023">
<ele>69.80000305175781</ele>
<time>2014-02-16T15:11:56Z</time>
</trkpt>
<trkpt lat="52.553165435791016" lon="13.232272148132324">
<ele>69.5</ele>
<time>2014-02-16T15:11:58Z</time>
</trkpt>
<trkpt lat="52.553245544433594" lon="13.23233413696289">
<ele>69.69999694824219</ele>
<time>2014-02-16T15:12:00Z</time>
</trkpt>
<trkpt lat="52.55332565307617" lon="13.23239803314209">
<ele>69.80000305175781</ele>
<time>2014-02-16T15:12:02Z</time>
</trkpt>
<trkpt lat="52.553367614746094" lon="13.232429504394531">
<ele>69.80000305175781</ele>
<time>2014-02-16T15:12:03Z</time>
</trkpt>
<trkpt lat="52.55345153808594" lon="13.232483863830566">
<ele>70.0</ele>
<time>2014-02-16T15:12:05Z</time>
</trkpt>
<trkpt lat="52.55349349975586" lon="13.232516288757324">
<ele>70.19999694824219</ele>
<time>2014-02-16T15:12:06Z</time>
</trkpt>
<trkpt lat="52.55353546142578" lon="13.2325439453125">
<ele>70.19999694824219</ele>
<time>2014-02-16T15:12:07Z</time>
</trkpt>
<trkpt lat="52.55361557006836" lon="13.232604026794434">
<ele>70.30000305175781</ele>
<time>2014-02-16T15:12:09Z</time>
</trkpt>
<trkpt lat="52.55366134643555" lon="13.232630729675293">
<ele>70.19999694824219</ele>
<time>2014-02-16T15:12:10Z</time>
</trkpt>
<trkpt lat="52.55373764038086" lon="13.232687950134277">
<ele>70.5999984741211</ele>
<time>2014-02-16T15:12:12Z</time>
</trkpt>
<trkpt lat="52.5538330078125" lon="13.232735633850098">
<ele>70.0999984741211</ele>
<time>2014-02-16T15:12:14Z</time>
</trkpt>
<trkpt lat="52.55387878417969" lon="13.232754707336426">
<ele>70.0</ele>
<time>2014-02-16T15:12:15Z</time>
</trkpt>
<trkpt lat="52.5539665222168" lon="13.232783317565918">
<ele>70.5</ele>
<time>2014-02-16T15:12:17Z</time>
</trkpt>
<trkpt lat="52.554054260253906" lon="13.232806205749512">
<ele>70.5999984741211</ele>
<time>2014-02-16T15:12:19Z</time>
</trkpt>
<trkpt lat="52.55414962768555" lon="13.232813835144043">
<ele>70.80000305175781</ele>
<time>2014-02-16T15:12:22Z</time>
</trkpt>
<trkpt lat="52.554203033447266" lon="13.232809066772461">
<ele>71.19999694824219</ele>
<time>2014-02-16T15:12:22Z</time>
</trkpt>
<trkpt lat="52.55429458618164" lon="13.232800483703613">
<ele>70.5999984741211</ele>
<time>2014-02-16T15:12:24Z</time>
</trkpt>
<trkpt lat="52.55434036254883" lon="13.232803344726562">
<ele>71.0</ele>
<time>2014-02-16T15:12:25Z</time>
</trkpt>
<trkpt lat="52.55438995361328" lon="13.232804298400879">
<ele>70.9000015258789</ele>
<time>2014-02-16T15:12:26Z</time>
</trkpt>
<trkpt lat="52.554439544677734" lon="13.232812881469727">
<ele>70.69999694824219</ele>
<time>2014-02-16T15:12:27Z</time>
</trkpt>
<trkpt lat="52.55449295043945" lon="13.23282241821289">
<ele>70.80000305175781</ele>
<time>2014-02-16T15:12:28Z</time>
</trkpt>
<trkpt lat="52.55458068847656" lon="13.232828140258789">
<ele>71.0</ele>
<time>2014-02-16T15:12:30Z</time>
</trkpt>
<trkpt lat="52.554664611816406" lon="13.232831001281738">
<ele>71.0999984741211</ele>
<time>2014-02-16T15:12:32Z</time>
</trkpt>
<trkpt lat="52.55475616455078" lon="13.232840538024902">
<ele>70.69999694824219</ele>
<time>2014-02-16T15:12:34Z</time>
</trkpt>
<trkpt lat="52.55480194091797" lon="13.232851028442383">
<ele>70.5</ele>
<time>2014-02-16T15:12:35Z</time>
</trkpt>
<trkpt lat="52.55485153198242" lon="13.232856750488281">
<ele>70.5999984741211</ele>
<time>2014-02-16T15:12:36Z</time>
</trkpt>
<trkpt lat="52.554901123046875" lon="13.232861518859863">
<ele>70.4000015258789</ele>
<time>2014-02-16T15:12:37Z</time>
</trkpt>
<trkpt lat="52.55495071411133" lon="13.23286247253418">
<ele>70.5999984741211</ele>
<time>2014-02-16T15:12:39Z</time>
</trkpt>
<trkpt lat="52.5550422668457" lon="13.232876777648926">
<ele>71.0</ele>
<time>2014-02-16T15:12:40Z</time>
</trkpt>
<trkpt lat="52.55510330200195" lon="13.232884407043457">
<ele>71.19999694824219</ele>
<time>2014-02-16T15:12:41Z</time>
</trkpt>
<trkpt lat="52.55515670776367" lon="13.232880592346191">
<ele>71.19999694824219</ele>
<time>2014-02-16T15:12:42Z</time>
</trkpt>
<trkpt lat="52.555206298828125" lon="13.232893943786621">
<ele>71.5</ele>
<time>2014-02-16T15:12:43Z</time>
</trkpt>
<trkpt lat="52.555259704589844" lon="13.232905387878418">
<ele>71.0999984741211</ele>
<time>2014-02-16T15:12:44Z</time>
</trkpt>
<trkpt lat="52.55530548095703" lon="13.23291015625">
<ele>71.0999984741211</ele>
<time>2014-02-16T15:12:45Z</time>
</trkpt>
<trkpt lat="52.55539321899414" lon="13.232921600341797">
<ele>70.5999984741211</ele>
<time>2014-02-16T15:12:47Z</time>
</trkpt>
<trkpt lat="52.55544662475586" lon="13.232930183410645">
<ele>70.80000305175781</ele>
<time>2014-02-16T15:12:48Z</time>
</trkpt>
<trkpt lat="52.55549621582031" lon="13.232933044433594">
<ele>70.5999984741211</ele>
<time>2014-02-16T15:12:49Z</time>
</trkpt>
<trkpt lat="52.555545806884766" lon="13.232934951782227">
<ele>70.4000015258789</ele>
<time>2014-02-16T15:12:50Z</time>
</trkpt>
<trkpt lat="52.55559539794922" lon="13.23294448852539">
<ele>70.19999694824219</ele>
<time>2014-02-16T15:12:51Z</time>
</trkpt>
<trkpt lat="52.5556526184082" lon="13.232952117919922">
<ele>70.4000015258789</ele>
<time>2014-02-16T15:12:52Z</time>
</trkpt>
<trkpt lat="52.55569839477539" lon="13.232955932617188">
<ele>70.5</ele>
<time>2014-02-16T15:12:53Z</time>
</trkpt>
<trkpt lat="52.555755615234375" lon="13.232963562011719">
<ele>70.9000015258789</ele>
<time>2014-02-16T15:12:54Z</time>
</trkpt>
<trkpt lat="52.55580520629883" lon="13.232958793640137">
<ele>71.0</ele>
<time>2014-02-16T15:12:55Z</time>
</trkpt>
<trkpt lat="52.5558967590332" lon="13.232972145080566">
<ele>71.0</ele>
<time>2014-02-16T15:12:57Z</time>
</trkpt>
<trkpt lat="52.55598068237305" lon="13.232987403869629">
<ele>70.80000305175781</ele>
<time>2014-02-16T15:12:59Z</time>
</trkpt>
<trkpt lat="52.556068420410156" lon="13.233006477355957">
<ele>71.0999984741211</ele>
<time>2014-02-16T15:13:01Z</time>
</trkpt>
<trkpt lat="52.5561408996582" lon="13.233028411865234">
<ele>71.0</ele>
<time>2014-02-16T15:13:03Z</time>
</trkpt>
<trkpt lat="52.55622100830078" lon="13.233036994934082">
<ele>71.0</ele>
<time>2014-02-16T15:13:05Z</time>
</trkpt>
<trkpt lat="52.556297302246094" lon="13.233059883117676">
<ele>70.80000305175781</ele>
<time>2014-02-16T15:13:07Z</time>
</trkpt>
<trkpt lat="52.556365966796875" lon="13.233078002929688">
<ele>71.19999694824219</ele>
<time>2014-02-16T15:13:09Z</time>
</trkpt>
<trkpt lat="52.55641174316406" lon="13.233160972595215">
<ele>71.0999984741211</ele>
<time>2014-02-16T15:13:11Z</time>
</trkpt>
<trkpt lat="52.556427001953125" lon="13.233247756958008">
<ele>70.80000305175781</ele>
<time>2014-02-16T15:13:13Z</time>
</trkpt>
<trkpt lat="52.55643081665039" lon="13.233325958251953">
<ele>70.80000305175781</ele>
<time>2014-02-16T15:13:14Z</time>
</trkpt>
<trkpt lat="52.55643844604492" lon="13.233444213867188">
<ele>73.0999984741211</ele>
<time>2014-02-16T15:13:16Z</time>
</trkpt>
<trkpt lat="52.55644226074219" lon="13.233553886413574">
<ele>73.0999984741211</ele>
<time>2014-02-16T15:13:19Z</time>
</trkpt>
<trkpt lat="52.55644989013672" lon="13.233689308166504">
<ele>72.4000015258789</ele>
<time>2014-02-16T15:13:20Z</time>
</trkpt>
<trkpt lat="52.55645751953125" lon="13.233830451965332">
<ele>72.30000305175781</ele>
<time>2014-02-16T15:13:22Z</time>
</trkpt>
<trkpt lat="52.55646514892578" lon="13.233981132507324">
<ele>72.4000015258789</ele>
<time>2014-02-16T15:13:24Z</time>
</trkpt>
<trkpt lat="52.55646896362305" lon="13.234060287475586">
<ele>72.80000305175781</ele>
<time>2014-02-16T15:13:25Z</time>
</trkpt>
<trkpt lat="52.55647277832031" lon="13.234143257141113">
<ele>72.9000015258789</ele>
<time>2014-02-16T15:13:26Z</time>
</trkpt>
<trkpt lat="52.55647277832031" lon="13.234227180480957">
<ele>73.0999984741211</ele>
<time>2014-02-16T15:13:27Z</time>
</trkpt>
<trkpt lat="52.55647659301758" lon="13.234312057495117">
<ele>73.19999694824219</ele>
<time>2014-02-16T15:13:28Z</time>
</trkpt>
<trkpt lat="52.556488037109375" lon="13.23440170288086">
<ele>73.9000015258789</ele>
<time>2014-02-16T15:13:29Z</time>
</trkpt>
<trkpt lat="52.55649185180664" lon="13.234480857849121">
<ele>74.0999984741211</ele>
<time>2014-02-16T15:13:30Z</time>
</trkpt>
<trkpt lat="52.55649948120117" lon="13.234561920166016">
<ele>74.0999984741211</ele>
<time>2014-02-16T15:13:31Z</time>
</trkpt>
<trkpt lat="52.5565071105957" lon="13.234635353088379">
<ele>74.30000305175781</ele>
<time>2014-02-16T15:13:32Z</time>
</trkpt>
<trkpt lat="52.556522369384766" lon="13.234779357910156">
<ele>74.19999694824219</ele>
<time>2014-02-16T15:13:34Z</time>
</trkpt>
<trkpt lat="52.55652618408203" lon="13.234854698181152">
<ele>73.80000305175781</ele>
<time>2014-02-16T15:13:35Z</time>
</trkpt>
<trkpt lat="52.5565299987793" lon="13.234933853149414">
<ele>73.9000015258789</ele>
<time>2014-02-16T15:13:36Z</time>
</trkpt>
<trkpt lat="52.5565299987793" lon="13.235031127929688">
<ele>74.0999984741211</ele>
<time>2014-02-16T15:13:37Z</time>
</trkpt>
<trkpt lat="52.5565299987793" lon="13.235121726989746">
<ele>73.0</ele>
<time>2014-02-16T15:13:38Z</time>
</trkpt>
<trkpt lat="52.55653381347656" lon="13.235206604003906">
<ele>72.9000015258789</ele>
<time>2014-02-16T15:13:39Z</time>
</trkpt>
<trkpt lat="52.55653381347656" lon="13.2352933883667">
<ele>73.0999984741211</ele>
<time>2014-02-16T15:13:40Z</time>
</trkpt>
<trkpt lat="52.55656051635742" lon="13.23543930053711">
<ele>72.0999984741211</ele>
<time>2014-02-16T15:13:42Z</time>
</trkpt>
<trkpt lat="52.556575775146484" lon="13.23552131652832">
<ele>72.30000305175781</ele>
<time>2014-02-16T15:13:43Z</time>
</trkpt>
<trkpt lat="52.55659866333008" lon="13.235605239868164">
<ele>72.19999694824219</ele>
<time>2014-02-16T15:13:44Z</time>
</trkpt>
<trkpt lat="52.55662155151367" lon="13.23568058013916">
<ele>72.4000015258789</ele>
<time>2014-02-16T15:13:45Z</time>
</trkpt>
<trkpt lat="52.556640625" lon="13.235755920410156">
<ele>72.69999694824219</ele>
<time>2014-02-16T15:13:46Z</time>
</trkpt>
<trkpt lat="52.55666732788086" lon="13.235831260681152">
<ele>72.19999694824219</ele>
<time>2014-02-16T15:13:47Z</time>
</trkpt>
<trkpt lat="52.556697845458984" lon="13.235909461975098">
<ele>72.5</ele>
<time>2014-02-16T15:13:48Z</time>
</trkpt>
<trkpt lat="52.556724548339844" lon="13.235992431640625">
<ele>72.69999694824219</ele>
<time>2014-02-16T15:13:49Z</time>
</trkpt>
<trkpt lat="52.5567512512207" lon="13.236066818237305">
<ele>72.5999984741211</ele>
<time>2014-02-16T15:13:50Z</time>
</trkpt>
<trkpt lat="52.55677795410156" lon="13.236150741577148">
<ele>72.80000305175781</ele>
<time>2014-02-16T15:13:51Z</time>
</trkpt>
<trkpt lat="52.55680847167969" lon="13.236228942871094">
<ele>72.69999694824219</ele>
<time>2014-02-16T15:13:52Z</time>
</trkpt>
<trkpt lat="52.55683898925781" lon="13.236310005187988">
<ele>72.80000305175781</ele>
<time>2014-02-16T15:13:53Z</time>
</trkpt>
<trkpt lat="52.55686569213867" lon="13.236390113830566">
<ele>73.30000305175781</ele>
<time>2014-02-16T15:13:54Z</time>
</trkpt>
<trkpt lat="52.55689239501953" lon="13.236466407775879">
<ele>73.69999694824219</ele>
<time>2014-02-16T15:13:55Z</time>
</trkpt>
<trkpt lat="52.556922912597656" lon="13.23654556274414">
<ele>74.0</ele>
<time>2014-02-16T15:13:56Z</time>
</trkpt>
<trkpt lat="52.556949615478516" lon="13.236621856689453">
<ele>74.0999984741211</ele>
<time>2014-02-16T15:13:57Z</time>
</trkpt>
<trkpt lat="52.5569953918457" lon="13.236738204956055">
<ele>74.69999694824219</ele>
<time>2014-02-16T15:13:59Z</time>
</trkpt>
<trkpt lat="52.55705261230469" lon="13.236824035644531">
<ele>74.0999984741211</ele>
<time>2014-02-16T15:14:01Z</time>
</trkpt>
<trkpt lat="52.55710220336914" lon="13.236899375915527">
<ele>74.19999694824219</ele>
<time>2014-02-16T15:14:03Z</time>
</trkpt>
<trkpt lat="52.55714797973633" lon="13.236970901489258">
<ele>74.9000015258789</ele>
<time>2014-02-16T15:14:05Z</time>
</trkpt>
<trkpt lat="52.55718994140625" lon="13.237035751342773">
<ele>75.0999984741211</ele>
<time>2014-02-16T15:14:07Z</time>
</trkpt>
<trkpt lat="52.5572509765625" lon="13.237103462219238">
<ele>75.0</ele>
<time>2014-02-16T15:14:09Z</time>
</trkpt>
<trkpt lat="52.55729675292969" lon="13.237173080444336">
<ele>74.4000015258789</ele>
<time>2014-02-16T15:14:11Z</time>
</trkpt>
<trkpt lat="52.55734634399414" lon="13.237250328063965">
<ele>74.5</ele>
<time>2014-02-16T15:14:13Z</time>
</trkpt>
<trkpt lat="52.557395935058594" lon="13.237314224243164">
<ele>75.0999984741211</ele>
<time>2014-02-16T15:14:15Z</time>
</trkpt>
<trkpt lat="52.55744552612305" lon="13.23737907409668">
<ele>74.5999984741211</ele>
<time>2014-02-16T15:14:17Z</time>
</trkpt>
<trkpt lat="52.5574951171875" lon="13.237465858459473">
<ele>74.69999694824219</ele>
<time>2014-02-16T15:14:19Z</time>
</trkpt>
<trkpt lat="52.55754852294922" lon="13.237542152404785">
<ele>74.0</ele>
<time>2014-02-16T15:14:21Z</time>
</trkpt>
<trkpt lat="52.5576057434082" lon="13.237624168395996">
<ele>73.5999984741211</ele>
<time>2014-02-16T15:14:23Z</time>
</trkpt>
<trkpt lat="52.55767822265625" lon="13.237701416015625">
<ele>73.4000015258789</ele>
<time>2014-02-16T15:14:25Z</time>
</trkpt>
<trkpt lat="52.557716369628906" lon="13.237750053405762">
<ele>73.0999984741211</ele>
<time>2014-02-16T15:14:26Z</time>
</trkpt>
<trkpt lat="52.55778121948242" lon="13.237832069396973">
<ele>72.5</ele>
<time>2014-02-16T15:14:28Z</time>
</trkpt>
<trkpt lat="52.55782699584961" lon="13.237931251525879">
<ele>71.19999694824219</ele>
<time>2014-02-16T15:14:30Z</time>
</trkpt>
<trkpt lat="52.55781936645508" lon="13.238040924072266">
<ele>71.5</ele>
<time>2014-02-16T15:14:32Z</time>
</trkpt>
<trkpt lat="52.55773162841797" lon="13.238069534301758">
<ele>69.4000015258789</ele>
<time>2014-02-16T15:14:36Z</time>
</trkpt>
<trkpt lat="52.55773162841797" lon="13.237935066223145">
<ele>71.80000305175781</ele>
<time>2014-02-16T15:14:39Z</time>
</trkpt>
<trkpt lat="52.55767822265625" lon="13.237906455993652">
<ele>70.80000305175781</ele>
<time>2014-02-16T15:14:42Z</time>
</trkpt>
<trkpt lat="52.55765151977539" lon="13.237969398498535">
<ele>70.0999984741211</ele>
<time>2014-02-16T15:14:44Z</time>
</trkpt>
<trkpt lat="52.557613372802734" lon="13.23792839050293">
<ele>71.69999694824219</ele>
<time>2014-02-16T15:14:46Z</time>
</trkpt>
<trkpt lat="52.55756378173828" lon="13.237919807434082">
<ele>71.80000305175781</ele>
<time>2014-02-16T15:14:49Z</time>
</trkpt>
<trkpt lat="52.55754852294922" lon="13.23802661895752">
<ele>72.0</ele>
<time>2014-02-16T15:14:49Z</time>
</trkpt>
<trkpt lat="52.55752182006836" lon="13.238224029541016">
<ele>73.0</ele>
<time>2014-02-16T15:14:52Z</time>
</trkpt>
<trkpt lat="52.557518005371094" lon="13.23836612701416">
<ele>71.9000015258789</ele>
<time>2014-02-16T15:14:54Z</time>
</trkpt>
<trkpt lat="52.5575065612793" lon="13.238439559936523">
<ele>71.5</ele>
<time>2014-02-16T15:14:55Z</time>
</trkpt>
<trkpt lat="52.557464599609375" lon="13.238569259643555">
<ele>71.0999984741211</ele>
<time>2014-02-16T15:14:57Z</time>
</trkpt>
<trkpt lat="52.55744171142578" lon="13.238631248474121">
<ele>70.80000305175781</ele>
<time>2014-02-16T15:14:58Z</time>
</trkpt>
<trkpt lat="52.55739212036133" lon="13.238739967346191">
<ele>70.69999694824219</ele>
<time>2014-02-16T15:15:00Z</time>
</trkpt>
<trkpt lat="52.557342529296875" lon="13.238858222961426">
<ele>70.19999694824219</ele>
<time>2014-02-16T15:15:02Z</time>
</trkpt>
<trkpt lat="52.55730056762695" lon="13.238970756530762">
<ele>70.19999694824219</ele>
<time>2014-02-16T15:15:04Z</time>
</trkpt>
<trkpt lat="52.55723190307617" lon="13.239042282104492">
<ele>70.0</ele>
<time>2014-02-16T15:15:06Z</time>
</trkpt>
<trkpt lat="52.557151794433594" lon="13.2390718460083">
<ele>69.80000305175781</ele>
<time>2014-02-16T15:15:08Z</time>
</trkpt>
<trkpt lat="52.557071685791016" lon="13.239075660705566">
<ele>69.80000305175781</ele>
<time>2014-02-16T15:15:10Z</time>
</trkpt>
<trkpt lat="52.55699157714844" lon="13.239103317260742">
<ele>69.30000305175781</ele>
<time>2014-02-16T15:15:12Z</time>
</trkpt>
<trkpt lat="52.55691909790039" lon="13.239136695861816">
<ele>69.5</ele>
<time>2014-02-16T15:15:14Z</time>
</trkpt>
<trkpt lat="52.5568962097168" lon="13.23921012878418">
<ele>69.0999984741211</ele>
<time>2014-02-16T15:15:15Z</time>
</trkpt>
<trkpt lat="52.55683517456055" lon="13.239298820495605">
<ele>69.19999694824219</ele>
<time>2014-02-16T15:15:17Z</time>
</trkpt>
<trkpt lat="52.55680465698242" lon="13.239367485046387">
<ele>69.0</ele>
<time>2014-02-16T15:15:18Z</time>
</trkpt>
<trkpt lat="52.5567741394043" lon="13.239425659179688">
<ele>68.9000015258789</ele>
<time>2014-02-16T15:15:20Z</time>
</trkpt>
<trkpt lat="52.55674362182617" lon="13.239484786987305">
<ele>69.0999984741211</ele>
<time>2014-02-16T15:15:20Z</time>
</trkpt>
<trkpt lat="52.55668258666992" lon="13.239603042602539">
<ele>69.4000015258789</ele>
<time>2014-02-16T15:15:22Z</time>
</trkpt>
<trkpt lat="52.5566520690918" lon="13.239660263061523">
<ele>69.30000305175781</ele>
<time>2014-02-16T15:15:23Z</time>
</trkpt>
<trkpt lat="52.55659484863281" lon="13.23976993560791">
<ele>69.4000015258789</ele>
<time>2014-02-16T15:15:25Z</time>
</trkpt>
<trkpt lat="52.55653762817383" lon="13.239882469177246">
<ele>69.0999984741211</ele>
<time>2014-02-16T15:15:27Z</time>
</trkpt>
<trkpt lat="52.55648422241211" lon="13.239998817443848">
<ele>69.30000305175781</ele>
<time>2014-02-16T15:15:29Z</time>
</trkpt>
<trkpt lat="52.556427001953125" lon="13.240110397338867">
<ele>69.19999694824219</ele>
<time>2014-02-16T15:15:31Z</time>
</trkpt>
<trkpt lat="52.556365966796875" lon="13.240221977233887">
<ele>69.5</ele>
<time>2014-02-16T15:15:33Z</time>
</trkpt>
<trkpt lat="52.55633544921875" lon="13.240281105041504">
<ele>69.5999984741211</ele>
<time>2014-02-16T15:15:34Z</time>
</trkpt>
<trkpt lat="52.556304931640625" lon="13.240346908569336">
<ele>69.5999984741211</ele>
<time>2014-02-16T15:15:35Z</time>
</trkpt>
<trkpt lat="52.556278228759766" lon="13.240408897399902">
<ele>69.80000305175781</ele>
<time>2014-02-16T15:15:36Z</time>
</trkpt>
<trkpt lat="52.55624771118164" lon="13.240471839904785">
<ele>70.0999984741211</ele>
<time>2014-02-16T15:15:37Z</time>
</trkpt>
<trkpt lat="52.556217193603516" lon="13.240534782409668">
<ele>69.80000305175781</ele>
<time>2014-02-16T15:15:38Z</time>
</trkpt>
<trkpt lat="52.55618667602539" lon="13.240589141845703">
<ele>69.9000015258789</ele>
<time>2014-02-16T15:15:39Z</time>
</trkpt>
<trkpt lat="52.556156158447266" lon="13.240650177001953">
<ele>70.0999984741211</ele>
<time>2014-02-16T15:15:40Z</time>
</trkpt>
<trkpt lat="52.55612564086914" lon="13.24071216583252">
<ele>70.0999984741211</ele>
<time>2014-02-16T15:15:41Z</time>
</trkpt>
<trkpt lat="52.556095123291016" lon="13.240775108337402">
<ele>70.5</ele>
<time>2014-02-16T15:15:42Z</time>
</trkpt>
<trkpt lat="52.55606460571289" lon="13.240836143493652">
<ele>70.80000305175781</ele>
<time>2014-02-16T15:15:43Z</time>
</trkpt>
<trkpt lat="52.556034088134766" lon="13.24089241027832">
<ele>71.0</ele>
<time>2014-02-16T15:15:44Z</time>
</trkpt>
<trkpt lat="52.556007385253906" lon="13.240951538085938">
<ele>71.0999984741211</ele>
<time>2014-02-16T15:15:45Z</time>
</trkpt>
<trkpt lat="52.55595016479492" lon="13.241070747375488">
<ele>70.69999694824219</ele>
<time>2014-02-16T15:15:47Z</time>
</trkpt>
<trkpt lat="52.5559196472168" lon="13.241128921508789">
<ele>70.69999694824219</ele>
<time>2014-02-16T15:15:48Z</time>
</trkpt>
<trkpt lat="52.55589294433594" lon="13.241191864013672">
<ele>71.0</ele>
<time>2014-02-16T15:15:49Z</time>
</trkpt>
<trkpt lat="52.55586242675781" lon="13.241249084472656">
<ele>71.0</ele>
<time>2014-02-16T15:15:50Z</time>
</trkpt>
<trkpt lat="52.55583572387695" lon="13.241316795349121">
<ele>71.19999694824219</ele>
<time>2014-02-16T15:15:51Z</time>
</trkpt>
<trkpt lat="52.555809020996094" lon="13.241387367248535">
<ele>72.0</ele>
<time>2014-02-16T15:15:52Z</time>
</trkpt>
<trkpt lat="52.555789947509766" lon="13.241458892822266">
<ele>72.5999984741211</ele>
<time>2014-02-16T15:15:53Z</time>
</trkpt>
<trkpt lat="52.55577087402344" lon="13.241534233093262">
<ele>72.19999694824219</ele>
<time>2014-02-16T15:15:54Z</time>
</trkpt>
<trkpt lat="52.55575180053711" lon="13.24160099029541">
<ele>71.9000015258789</ele>
<time>2014-02-16T15:15:55Z</time>
</trkpt>
<trkpt lat="52.55572509765625" lon="13.241663932800293">
<ele>72.5999984741211</ele>
<time>2014-02-16T15:15:56Z</time>
</trkpt>
<trkpt lat="52.55569076538086" lon="13.241724014282227">
<ele>72.0</ele>
<time>2014-02-16T15:15:57Z</time>
</trkpt>
<trkpt lat="52.5556640625" lon="13.241783142089844">
<ele>72.19999694824219</ele>
<time>2014-02-16T15:15:58Z</time>
</trkpt>
<trkpt lat="52.55563735961914" lon="13.241841316223145">
<ele>71.9000015258789</ele>
<time>2014-02-16T15:15:59Z</time>
</trkpt>
<trkpt lat="52.555580139160156" lon="13.241955757141113">
<ele>71.5999984741211</ele>
<time>2014-02-16T15:16:01Z</time>
</trkpt>
<trkpt lat="52.55552291870117" lon="13.242072105407715">
<ele>71.5999984741211</ele>
<time>2014-02-16T15:16:03Z</time>
</trkpt>
<trkpt lat="52.55549621582031" lon="13.242132186889648">
<ele>71.80000305175781</ele>
<time>2014-02-16T15:16:04Z</time>
</trkpt>
<trkpt lat="52.55546569824219" lon="13.242192268371582">
<ele>71.69999694824219</ele>
<time>2014-02-16T15:16:05Z</time>
</trkpt>
<trkpt lat="52.5554313659668" lon="13.242253303527832">
<ele>71.5</ele>
<time>2014-02-16T15:16:06Z</time>
</trkpt>
<trkpt lat="52.55540466308594" lon="13.242311477661133">
<ele>71.5999984741211</ele>
<time>2014-02-16T15:16:07Z</time>
</trkpt>
<trkpt lat="52.55537414550781" lon="13.24238395690918">
<ele>72.19999694824219</ele>
<time>2014-02-16T15:16:08Z</time>
</trkpt>
<trkpt lat="52.55534362792969" lon="13.242449760437012">
<ele>72.80000305175781</ele>
<time>2014-02-16T15:16:09Z</time>
</trkpt>
<trkpt lat="52.55531311035156" lon="13.242517471313477">
<ele>72.5999984741211</ele>
<time>2014-02-16T15:16:10Z</time>
</trkpt>
<trkpt lat="52.55528259277344" lon="13.242578506469727">
<ele>72.5999984741211</ele>
<time>2014-02-16T15:16:11Z</time>
</trkpt>
<trkpt lat="52.55524826049805" lon="13.242639541625977">
<ele>72.5999984741211</ele>
<time>2014-02-16T15:16:12Z</time>
</trkpt>
<trkpt lat="52.55521774291992" lon="13.242698669433594">
<ele>72.19999694824219</ele>
<time>2014-02-16T15:16:13Z</time>
</trkpt>
<trkpt lat="52.55518341064453" lon="13.242764472961426">
<ele>71.9000015258789</ele>
<time>2014-02-16T15:16:14Z</time>
</trkpt>
<trkpt lat="52.55514907836914" lon="13.242831230163574">
<ele>72.0</ele>
<time>2014-02-16T15:16:15Z</time>
</trkpt>
<trkpt lat="52.555118560791016" lon="13.242900848388672">
<ele>71.5999984741211</ele>
<time>2014-02-16T15:16:16Z</time>
</trkpt>
<trkpt lat="52.55508804321289" lon="13.242964744567871">
<ele>71.4000015258789</ele>
<time>2014-02-16T15:16:17Z</time>
</trkpt>
<trkpt lat="52.555057525634766" lon="13.243029594421387">
<ele>71.19999694824219</ele>
<time>2014-02-16T15:16:18Z</time>
</trkpt>
<trkpt lat="52.555023193359375" lon="13.243097305297852">
<ele>71.0999984741211</ele>
<time>2014-02-16T15:16:19Z</time>
</trkpt>
<trkpt lat="52.55498504638672" lon="13.243163108825684">
<ele>70.9000015258789</ele>
<time>2014-02-16T15:16:20Z</time>
</trkpt>
<trkpt lat="52.55495071411133" lon="13.243229866027832">
<ele>71.4000015258789</ele>
<time>2014-02-16T15:16:21Z</time>
</trkpt>
<trkpt lat="52.5549201965332" lon="13.243295669555664">
<ele>71.30000305175781</ele>
<time>2014-02-16T15:16:22Z</time>
</trkpt>
<trkpt lat="52.55488586425781" lon="13.24335765838623">
<ele>71.5</ele>
<time>2014-02-16T15:16:23Z</time>
</trkpt>
<trkpt lat="52.55485153198242" lon="13.243420600891113">
<ele>71.5999984741211</ele>
<time>2014-02-16T15:16:24Z</time>
</trkpt>
<trkpt lat="52.5548210144043" lon="13.243497848510742">
<ele>71.5</ele>
<time>2014-02-16T15:16:25Z</time>
</trkpt>
<trkpt lat="52.554786682128906" lon="13.243566513061523">
<ele>71.5</ele>
<time>2014-02-16T15:16:26Z</time>
</trkpt>
<trkpt lat="52.554752349853516" lon="13.243633270263672">
<ele>72.0999984741211</ele>
<time>2014-02-16T15:16:27Z</time>
</trkpt>
<trkpt lat="52.554718017578125" lon="13.243698120117188">
<ele>72.0999984741211</ele>
<time>2014-02-16T15:16:28Z</time>
</trkpt>
<trkpt lat="52.554683685302734" lon="13.243756294250488">
<ele>70.9000015258789</ele>
<time>2014-02-16T15:16:29Z</time>
</trkpt>
<trkpt lat="52.554649353027344" lon="13.243836402893066">
<ele>72.0</ele>
<time>2014-02-16T15:16:30Z</time>
</trkpt>
<trkpt lat="52.55461502075195" lon="13.243908882141113">
<ele>72.30000305175781</ele>
<time>2014-02-16T15:16:31Z</time>
</trkpt>
<trkpt lat="52.55458450317383" lon="13.243964195251465">
<ele>72.5999984741211</ele>
<time>2014-02-16T15:16:32Z</time>
</trkpt>
<trkpt lat="52.55452346801758" lon="13.244086265563965">
<ele>73.0</ele>
<time>2014-02-16T15:16:34Z</time>
</trkpt>
<trkpt lat="52.55449676513672" lon="13.244144439697266">
<ele>72.69999694824219</ele>
<time>2014-02-16T15:16:35Z</time>
</trkpt>
<trkpt lat="52.55446243286133" lon="13.244202613830566">
<ele>72.5999984741211</ele>
<time>2014-02-16T15:16:36Z</time>
</trkpt>
<trkpt lat="52.55442810058594" lon="13.244261741638184">
<ele>72.69999694824219</ele>
<time>2014-02-16T15:16:37Z</time>
</trkpt>
<trkpt lat="52.55439758300781" lon="13.244322776794434">
<ele>72.30000305175781</ele>
<time>2014-02-16T15:16:38Z</time>
</trkpt>
<trkpt lat="52.55436706542969" lon="13.244388580322266">
<ele>72.0999984741211</ele>
<time>2014-02-16T15:16:39Z</time>
</trkpt>
<trkpt lat="52.55433654785156" lon="13.244446754455566">
<ele>72.30000305175781</ele>
<time>2014-02-16T15:16:40Z</time>
</trkpt>
<trkpt lat="52.55430221557617" lon="13.244513511657715">
<ele>72.5999984741211</ele>
<time>2014-02-16T15:16:41Z</time>
</trkpt>
<trkpt lat="52.55427551269531" lon="13.244575500488281">
<ele>72.69999694824219</ele>
<time>2014-02-16T15:16:42Z</time>
</trkpt>
<trkpt lat="52.55424499511719" lon="13.244634628295898">
<ele>72.30000305175781</ele>
<time>2014-02-16T15:16:43Z</time>
</trkpt>
<trkpt lat="52.55421447753906" lon="13.244699478149414">
<ele>72.30000305175781</ele>
<time>2014-02-16T15:16:44Z</time>
</trkpt>
<trkpt lat="52.55418395996094" lon="13.244762420654297">
<ele>72.0</ele>
<time>2014-02-16T15:16:45Z</time>
</trkpt>
<trkpt lat="52.55415344238281" lon="13.244827270507812">
<ele>72.0</ele>
<time>2014-02-16T15:16:46Z</time>
</trkpt>
<trkpt lat="52.55412292480469" lon="13.244885444641113">
<ele>72.0</ele>
<time>2014-02-16T15:16:47Z</time>
</trkpt>
<trkpt lat="52.5540885925293" lon="13.244941711425781">
<ele>71.80000305175781</ele>
<time>2014-02-16T15:16:48Z</time>
</trkpt>
<trkpt lat="52.55403137207031" lon="13.245057106018066">
<ele>72.0</ele>
<time>2014-02-16T15:16:50Z</time>
</trkpt>
<trkpt lat="52.55400085449219" lon="13.245123863220215">
<ele>72.69999694824219</ele>
<time>2014-02-16T15:16:51Z</time>
</trkpt>
<trkpt lat="52.55397415161133" lon="13.245193481445312">
<ele>72.69999694824219</ele>
<time>2014-02-16T15:16:52Z</time>
</trkpt>
<trkpt lat="52.5539436340332" lon="13.245255470275879">
<ele>72.69999694824219</ele>
<time>2014-02-16T15:16:53Z</time>
</trkpt>
<trkpt lat="52.55390930175781" lon="13.245314598083496">
<ele>72.69999694824219</ele>
<time>2014-02-16T15:16:54Z</time>
</trkpt>
<trkpt lat="52.55388259887695" lon="13.245379447937012">
<ele>72.4000015258789</ele>
<time>2014-02-16T15:16:55Z</time>
</trkpt>
<trkpt lat="52.55385208129883" lon="13.245440483093262">
<ele>72.5999984741211</ele>
<time>2014-02-16T15:16:56Z</time>
</trkpt>
<trkpt lat="52.5538215637207" lon="13.245497703552246">
<ele>72.4000015258789</ele>
<time>2014-02-16T15:16:57Z</time>
</trkpt>
<trkpt lat="52.55379104614258" lon="13.245556831359863">
<ele>72.5</ele>
<time>2014-02-16T15:16:58Z</time>
</trkpt>
<trkpt lat="52.55376052856445" lon="13.245615005493164">
<ele>72.69999694824219</ele>
<time>2014-02-16T15:16:59Z</time>
</trkpt>
<trkpt lat="52.55373001098633" lon="13.245677947998047">
<ele>72.5</ele>
<time>2014-02-16T15:17:00Z</time>
</trkpt>
<trkpt lat="52.5536994934082" lon="13.245741844177246">
<ele>72.5999984741211</ele>
<time>2014-02-16T15:17:01Z</time>
</trkpt>
<trkpt lat="52.55366897583008" lon="13.245804786682129">
<ele>72.4000015258789</ele>
<time>2014-02-16T15:17:02Z</time>
</trkpt>
<trkpt lat="52.55363845825195" lon="13.245863914489746">
<ele>72.4000015258789</ele>
<time>2014-02-16T15:17:03Z</time>
</trkpt>
<trkpt lat="52.55360794067383" lon="13.245923042297363">
<ele>72.19999694824219</ele>
<time>2014-02-16T15:17:04Z</time>
</trkpt>
<trkpt lat="52.5535774230957" lon="13.245986938476562">
<ele>72.0</ele>
<time>2014-02-16T15:17:05Z</time>
</trkpt>
<trkpt lat="52.55354690551758" lon="13.246048927307129">
<ele>72.19999694824219</ele>
<time>2014-02-16T15:17:06Z</time>
</trkpt>
<trkpt lat="52.55352020263672" lon="13.246111869812012">
<ele>72.30000305175781</ele>
<time>2014-02-16T15:17:07Z</time>
</trkpt>
<trkpt lat="52.55348587036133" lon="13.246172904968262">
<ele>72.19999694824219</ele>
<time>2014-02-16T15:17:08Z</time>
</trkpt>
<trkpt lat="52.55345153808594" lon="13.246238708496094">
<ele>72.0</ele>
<time>2014-02-16T15:17:09Z</time>
</trkpt>
<trkpt lat="52.55342102050781" lon="13.246296882629395">
<ele>72.30000305175781</ele>
<time>2014-02-16T15:17:10Z</time>
</trkpt>
<trkpt lat="52.55339050292969" lon="13.246359825134277">
<ele>72.0999984741211</ele>
<time>2014-02-16T15:17:11Z</time>
</trkpt>
<trkpt lat="52.5533561706543" lon="13.24642562866211">
<ele>72.69999694824219</ele>
<time>2014-02-16T15:17:12Z</time>
</trkpt>
<trkpt lat="52.553321838378906" lon="13.246491432189941">
<ele>72.9000015258789</ele>
<time>2014-02-16T15:17:13Z</time>
</trkpt>
<trkpt lat="52.55329132080078" lon="13.246549606323242">
<ele>72.30000305175781</ele>
<time>2014-02-16T15:17:14Z</time>
</trkpt>
<trkpt lat="52.55326461791992" lon="13.246620178222656">
<ele>72.30000305175781</ele>
<time>2014-02-16T15:17:15Z</time>
</trkpt>
<trkpt lat="52.5532341003418" lon="13.246689796447754">
<ele>72.4000015258789</ele>
<time>2014-02-16T15:17:16Z</time>
</trkpt>
<trkpt lat="52.55320358276367" lon="13.246758460998535">
<ele>71.80000305175781</ele>
<time>2014-02-16T15:17:17Z</time>
</trkpt>
<trkpt lat="52.553165435791016" lon="13.24681282043457">
<ele>71.9000015258789</ele>
<time>2014-02-16T15:17:18Z</time>
</trkpt>
<trkpt lat="52.553131103515625" lon="13.246874809265137">
<ele>71.69999694824219</ele>
<time>2014-02-16T15:17:19Z</time>
</trkpt>
<trkpt lat="52.55307388305664" lon="13.247003555297852">
<ele>71.5999984741211</ele>
<time>2014-02-16T15:17:21Z</time>
</trkpt>
<trkpt lat="52.55303955078125" lon="13.247062683105469">
<ele>71.5999984741211</ele>
<time>2014-02-16T15:17:22Z</time>
</trkpt>
<trkpt lat="52.553009033203125" lon="13.247122764587402">
<ele>71.5999984741211</ele>
<time>2014-02-16T15:17:23Z</time>
</trkpt>
<trkpt lat="52.552978515625" lon="13.247186660766602">
<ele>71.69999694824219</ele>
<time>2014-02-16T15:17:24Z</time>
</trkpt>
<trkpt lat="52.552947998046875" lon="13.247241973876953">
<ele>72.30000305175781</ele>
<time>2014-02-16T15:17:25Z</time>
</trkpt>
<trkpt lat="52.552913665771484" lon="13.247296333312988">
<ele>72.4000015258789</ele>
<time>2014-02-16T15:17:26Z</time>
</trkpt>
<trkpt lat="52.55288314819336" lon="13.247357368469238">
<ele>72.4000015258789</ele>
<time>2014-02-16T15:17:27Z</time>
</trkpt>
<trkpt lat="52.552860260009766" lon="13.24742603302002">
<ele>72.0</ele>
<time>2014-02-16T15:17:28Z</time>
</trkpt>
<trkpt lat="52.55280303955078" lon="13.247538566589355">
<ele>71.69999694824219</ele>
<time>2014-02-16T15:17:30Z</time>
</trkpt>
<trkpt lat="52.552772521972656" lon="13.247604370117188">
<ele>71.9000015258789</ele>
<time>2014-02-16T15:17:31Z</time>
</trkpt>
<trkpt lat="52.5527229309082" lon="13.247724533081055">
<ele>71.4000015258789</ele>
<time>2014-02-16T15:17:33Z</time>
</trkpt>
<trkpt lat="52.55268859863281" lon="13.247779846191406">
<ele>71.19999694824219</ele>
<time>2014-02-16T15:17:34Z</time>
</trkpt>
<trkpt lat="52.55265808105469" lon="13.247855186462402">
<ele>71.69999694824219</ele>
<time>2014-02-16T15:17:35Z</time>
</trkpt>
<trkpt lat="52.55263137817383" lon="13.247929573059082">
<ele>72.0</ele>
<time>2014-02-16T15:17:36Z</time>
</trkpt>
<trkpt lat="52.55259704589844" lon="13.248006820678711">
<ele>71.80000305175781</ele>
<time>2014-02-16T15:17:37Z</time>
</trkpt>
<trkpt lat="52.552574157714844" lon="13.248075485229492">
<ele>72.0</ele>
<time>2014-02-16T15:17:38Z</time>
</trkpt>
<trkpt lat="52.55254364013672" lon="13.248141288757324">
<ele>71.5999984741211</ele>
<time>2014-02-16T15:17:39Z</time>
</trkpt>
<trkpt lat="52.552486419677734" lon="13.248226165771484">
<ele>71.69999694824219</ele>
<time>2014-02-16T15:17:41Z</time>
</trkpt>
<trkpt lat="52.55241394042969" lon="13.248371124267578">
<ele>71.5</ele>
<time>2014-02-16T15:17:43Z</time>
</trkpt>
<trkpt lat="52.55238723754883" lon="13.248462677001953">
<ele>71.19999694824219</ele>
<time>2014-02-16T15:17:44Z</time>
</trkpt>
<trkpt lat="52.5523567199707" lon="13.248527526855469">
<ele>71.0999984741211</ele>
<time>2014-02-16T15:17:45Z</time>
</trkpt>
<trkpt lat="52.55232238769531" lon="13.248592376708984">
<ele>70.30000305175781</ele>
<time>2014-02-16T15:17:46Z</time>
</trkpt>
<trkpt lat="52.552303314208984" lon="13.248682022094727">
<ele>70.4000015258789</ele>
<time>2014-02-16T15:17:48Z</time>
</trkpt>
<trkpt lat="52.55227279663086" lon="13.248785972595215">
<ele>70.80000305175781</ele>
<time>2014-02-16T15:17:50Z</time>
</trkpt>
<trkpt lat="52.5522346496582" lon="13.248881340026855">
<ele>71.19999694824219</ele>
<time>2014-02-16T15:17:52Z</time>
</trkpt>
<trkpt lat="52.55221939086914" lon="13.24895191192627">
<ele>71.5</ele>
<time>2014-02-16T15:17:54Z</time>
</trkpt>
<trkpt lat="52.552188873291016" lon="13.249032974243164">
<ele>75.0</ele>
<time>2014-02-16T15:17:57Z</time>
</trkpt>
<trkpt lat="52.55217742919922" lon="13.249136924743652">
<ele>76.0999984741211</ele>
<time>2014-02-16T15:18:12Z</time>
</trkpt>
<trkpt lat="52.552162170410156" lon="13.249249458312988">
<ele>74.0</ele>
<time>2014-02-16T15:18:14Z</time>
</trkpt>
<trkpt lat="52.552146911621094" lon="13.249363899230957">
<ele>72.9000015258789</ele>
<time>2014-02-16T15:18:16Z</time>
</trkpt>
<trkpt lat="52.55207061767578" lon="13.249360084533691">
<ele>73.5</ele>
<time>2014-02-16T15:18:18Z</time>
</trkpt>
<trkpt lat="52.5519905090332" lon="13.249307632446289">
<ele>72.80000305175781</ele>
<time>2014-02-16T15:18:20Z</time>
</trkpt>
<trkpt lat="52.55190658569336" lon="13.24934196472168">
<ele>72.0999984741211</ele>
<time>2014-02-16T15:18:22Z</time>
</trkpt>
<trkpt lat="52.551849365234375" lon="13.24951457977295">
<ele>72.0</ele>
<time>2014-02-16T15:18:24Z</time>
</trkpt>
<trkpt lat="52.55181884765625" lon="13.2495756149292">
<ele>71.80000305175781</ele>
<time>2014-02-16T15:18:25Z</time>
</trkpt>
<trkpt lat="52.55179214477539" lon="13.249635696411133">
<ele>72.0</ele>
<time>2014-02-16T15:18:26Z</time>
</trkpt>
<trkpt lat="52.5517578125" lon="13.249688148498535">
<ele>72.0</ele>
<time>2014-02-16T15:18:27Z</time>
</trkpt>
<trkpt lat="52.55172348022461" lon="13.249747276306152">
<ele>72.0</ele>
<time>2014-02-16T15:18:28Z</time>
</trkpt>
<trkpt lat="52.55168914794922" lon="13.249811172485352">
<ele>72.0999984741211</ele>
<time>2014-02-16T15:18:29Z</time>
</trkpt>
<trkpt lat="52.551658630371094" lon="13.249872207641602">
<ele>72.0</ele>
<time>2014-02-16T15:18:30Z</time>
</trkpt>
<trkpt lat="52.5516242980957" lon="13.2499418258667">
<ele>71.80000305175781</ele>
<time>2014-02-16T15:18:31Z</time>
</trkpt>
<trkpt lat="52.551597595214844" lon="13.250007629394531">
<ele>71.69999694824219</ele>
<time>2014-02-16T15:18:32Z</time>
</trkpt>
<trkpt lat="52.55155944824219" lon="13.250080108642578">
<ele>71.19999694824219</ele>
<time>2014-02-16T15:18:33Z</time>
</trkpt>
<trkpt lat="52.55152130126953" lon="13.250158309936523">
<ele>71.19999694824219</ele>
<time>2014-02-16T15:18:34Z</time>
</trkpt>
<trkpt lat="52.55148696899414" lon="13.250234603881836">
<ele>70.5999984741211</ele>
<time>2014-02-16T15:18:35Z</time>
</trkpt>
<trkpt lat="52.55145263671875" lon="13.250312805175781">
<ele>70.5</ele>
<time>2014-02-16T15:18:36Z</time>
</trkpt>
<trkpt lat="52.55141067504883" lon="13.250391006469727">
<ele>70.4000015258789</ele>
<time>2014-02-16T15:18:37Z</time>
</trkpt>
<trkpt lat="52.55137252807617" lon="13.250471115112305">
<ele>70.30000305175781</ele>
<time>2014-02-16T15:18:38Z</time>
</trkpt>
<trkpt lat="52.551334381103516" lon="13.250553131103516">
<ele>70.5</ele>
<time>2014-02-16T15:18:39Z</time>
</trkpt>
<trkpt lat="52.551300048828125" lon="13.250646591186523">
<ele>70.80000305175781</ele>
<time>2014-02-16T15:18:40Z</time>
</trkpt>
<trkpt lat="52.55126190185547" lon="13.25072956085205">
<ele>71.19999694824219</ele>
<time>2014-02-16T15:18:41Z</time>
</trkpt>
<trkpt lat="52.551231384277344" lon="13.250821113586426">
<ele>71.19999694824219</ele>
<time>2014-02-16T15:18:42Z</time>
</trkpt>
<trkpt lat="52.55119705200195" lon="13.250908851623535">
<ele>71.30000305175781</ele>
<time>2014-02-16T15:18:43Z</time>
</trkpt>
<trkpt lat="52.55116271972656" lon="13.250988960266113">
<ele>71.69999694824219</ele>
<time>2014-02-16T15:18:44Z</time>
</trkpt>
<trkpt lat="52.55113220214844" lon="13.251075744628906">
<ele>72.0</ele>
<time>2014-02-16T15:18:45Z</time>
</trkpt>
<trkpt lat="52.55109405517578" lon="13.251158714294434">
<ele>72.30000305175781</ele>
<time>2014-02-16T15:18:46Z</time>
</trkpt>
<trkpt lat="52.55106735229492" lon="13.251240730285645">
<ele>72.9000015258789</ele>
<time>2014-02-16T15:18:47Z</time>
</trkpt>
<trkpt lat="52.551029205322266" lon="13.251321792602539">
<ele>72.9000015258789</ele>
<time>2014-02-16T15:18:48Z</time>
</trkpt>
<trkpt lat="52.550987243652344" lon="13.251401901245117">
<ele>72.69999694824219</ele>
<time>2014-02-16T15:18:49Z</time>
</trkpt>
<trkpt lat="52.55095672607422" lon="13.251486778259277">
<ele>72.5</ele>
<time>2014-02-16T15:18:50Z</time>
</trkpt>
<trkpt lat="52.55093002319336" lon="13.251556396484375">
<ele>72.69999694824219</ele>
<time>2014-02-16T15:18:51Z</time>
</trkpt>
<trkpt lat="52.5509033203125" lon="13.251635551452637">
<ele>72.80000305175781</ele>
<time>2014-02-16T15:18:52Z</time>
</trkpt>
<trkpt lat="52.550880432128906" lon="13.251712799072266">
<ele>73.0</ele>
<time>2014-02-16T15:18:53Z</time>
</trkpt>
<trkpt lat="52.55085372924805" lon="13.251795768737793">
<ele>73.0999984741211</ele>
<time>2014-02-16T15:18:54Z</time>
</trkpt>
<trkpt lat="52.55082321166992" lon="13.251872062683105">
<ele>73.30000305175781</ele>
<time>2014-02-16T15:18:55Z</time>
</trkpt>
<trkpt lat="52.55080032348633" lon="13.251954078674316">
<ele>73.0999984741211</ele>
<time>2014-02-16T15:18:56Z</time>
</trkpt>
<trkpt lat="52.55076599121094" lon="13.25204849243164">
<ele>73.0999984741211</ele>
<time>2014-02-16T15:18:57Z</time>
</trkpt>
<trkpt lat="52.55073928833008" lon="13.252117156982422">
<ele>72.5999984741211</ele>
<time>2014-02-16T15:18:58Z</time>
</trkpt>
<trkpt lat="52.55071258544922" lon="13.252201080322266">
<ele>71.9000015258789</ele>
<time>2014-02-16T15:18:59Z</time>
</trkpt>
<trkpt lat="52.55067825317383" lon="13.252284049987793">
<ele>71.69999694824219</ele>
<time>2014-02-16T15:19:00Z</time>
</trkpt>
<trkpt lat="52.55065155029297" lon="13.252357482910156">
<ele>71.69999694824219</ele>
<time>2014-02-16T15:19:01Z</time>
</trkpt>
<trkpt lat="52.550621032714844" lon="13.252440452575684">
<ele>71.9000015258789</ele>
<time>2014-02-16T15:19:02Z</time>
</trkpt>
<trkpt lat="52.55059814453125" lon="13.252519607543945">
<ele>71.69999694824219</ele>
<time>2014-02-16T15:19:03Z</time>
</trkpt>
<trkpt lat="52.55057144165039" lon="13.252601623535156">
<ele>71.4000015258789</ele>
<time>2014-02-16T15:19:04Z</time>
</trkpt>
<trkpt lat="52.55054473876953" lon="13.252681732177734">
<ele>71.30000305175781</ele>
<time>2014-02-16T15:19:05Z</time>
</trkpt>
<trkpt lat="52.55051803588867" lon="13.25275993347168">
<ele>71.5</ele>
<time>2014-02-16T15:19:06Z</time>
</trkpt>
<trkpt lat="52.55049514770508" lon="13.252833366394043">
<ele>71.4000015258789</ele>
<time>2014-02-16T15:19:07Z</time>
</trkpt>
<trkpt lat="52.55046463012695" lon="13.252913475036621">
<ele>71.19999694824219</ele>
<time>2014-02-16T15:19:08Z</time>
</trkpt>
<trkpt lat="52.55043411254883" lon="13.2529935836792">
<ele>71.0999984741211</ele>
<time>2014-02-16T15:19:09Z</time>
</trkpt>
<trkpt lat="52.5504035949707" lon="13.253068923950195">
<ele>71.0</ele>
<time>2014-02-16T15:19:10Z</time>
</trkpt>
<trkpt lat="52.550376892089844" lon="13.25314998626709">
<ele>71.19999694824219</ele>
<time>2014-02-16T15:19:11Z</time>
</trkpt>
<trkpt lat="52.550350189208984" lon="13.25323486328125">
<ele>71.19999694824219</ele>
<time>2014-02-16T15:19:12Z</time>
</trkpt>
<trkpt lat="52.550323486328125" lon="13.253313064575195">
<ele>71.0</ele>
<time>2014-02-16T15:19:13Z</time>
</trkpt>
<trkpt lat="52.5503044128418" lon="13.253381729125977">
<ele>71.30000305175781</ele>
<time>2014-02-16T15:19:14Z</time>
</trkpt>
<trkpt lat="52.55028533935547" lon="13.253467559814453">
<ele>71.80000305175781</ele>
<time>2014-02-16T15:19:15Z</time>
</trkpt>
<trkpt lat="52.55025863647461" lon="13.253543853759766">
<ele>71.9000015258789</ele>
<time>2014-02-16T15:19:16Z</time>
</trkpt>
<trkpt lat="52.55024337768555" lon="13.25362777709961">
<ele>71.5999984741211</ele>
<time>2014-02-16T15:19:17Z</time>
</trkpt>
<trkpt lat="52.55022430419922" lon="13.25371265411377">
<ele>71.4000015258789</ele>
<time>2014-02-16T15:19:18Z</time>
</trkpt>
<trkpt lat="52.55020523071289" lon="13.253801345825195">
<ele>71.0999984741211</ele>
<time>2014-02-16T15:19:19Z</time>
</trkpt>
<trkpt lat="52.55018997192383" lon="13.253886222839355">
<ele>71.0999984741211</ele>
<time>2014-02-16T15:19:20Z</time>
</trkpt>
<trkpt lat="52.550174713134766" lon="13.253972053527832">
<ele>71.19999694824219</ele>
<time>2014-02-16T15:19:21Z</time>
</trkpt>
<trkpt lat="52.55015182495117" lon="13.254051208496094">
<ele>70.9000015258789</ele>
<time>2014-02-16T15:19:22Z</time>
</trkpt>
<trkpt lat="52.55012893676758" lon="13.254134178161621">
<ele>70.9000015258789</ele>
<time>2014-02-16T15:19:23Z</time>
</trkpt>
<trkpt lat="52.55010986328125" lon="13.254212379455566">
<ele>71.30000305175781</ele>
<time>2014-02-16T15:19:24Z</time>
</trkpt>
<trkpt lat="52.55009460449219" lon="13.25428581237793">
<ele>71.5</ele>
<time>2014-02-16T15:19:25Z</time>
</trkpt>
<trkpt lat="52.55007553100586" lon="13.254364967346191">
<ele>71.69999694824219</ele>
<time>2014-02-16T15:19:26Z</time>
</trkpt>
<trkpt lat="52.5500602722168" lon="13.254446029663086">
<ele>71.80000305175781</ele>
<time>2014-02-16T15:19:27Z</time>
</trkpt>
<trkpt lat="52.550048828125" lon="13.254522323608398">
<ele>72.30000305175781</ele>
<time>2014-02-16T15:19:28Z</time>
</trkpt>
<trkpt lat="52.55003356933594" lon="13.254602432250977">
<ele>72.0999984741211</ele>
<time>2014-02-16T15:19:29Z</time>
</trkpt>
<trkpt lat="52.550018310546875" lon="13.254680633544922">
<ele>72.0999984741211</ele>
<time>2014-02-16T15:19:30Z</time>
</trkpt>
<trkpt lat="52.54999542236328" lon="13.254752159118652">
<ele>72.19999694824219</ele>
<time>2014-02-16T15:19:31Z</time>
</trkpt>
<trkpt lat="52.549983978271484" lon="13.254827499389648">
<ele>72.0</ele>
<time>2014-02-16T15:19:32Z</time>
</trkpt>
<trkpt lat="52.54996871948242" lon="13.254907608032227">
<ele>71.80000305175781</ele>
<time>2014-02-16T15:19:33Z</time>
</trkpt>
<trkpt lat="52.54995346069336" lon="13.254981994628906">
<ele>71.5999984741211</ele>
<time>2014-02-16T15:19:34Z</time>
</trkpt>
<trkpt lat="52.54994201660156" lon="13.255066871643066">
<ele>71.5999984741211</ele>
<time>2014-02-16T15:19:35Z</time>
</trkpt>
<trkpt lat="52.5499267578125" lon="13.255147933959961">
<ele>71.5</ele>
<time>2014-02-16T15:19:36Z</time>
</trkpt>
<trkpt lat="52.54990768432617" lon="13.255223274230957">
<ele>71.0999984741211</ele>
<time>2014-02-16T15:19:37Z</time>
</trkpt>
<trkpt lat="52.54989242553711" lon="13.255300521850586">
<ele>71.0</ele>
<time>2014-02-16T15:19:38Z</time>
</trkpt>
<trkpt lat="52.54987335205078" lon="13.255379676818848">
<ele>71.0</ele>
<time>2014-02-16T15:19:39Z</time>
</trkpt>
<trkpt lat="52.54985809326172" lon="13.255454063415527">
<ele>70.5999984741211</ele>
<time>2014-02-16T15:19:40Z</time>
</trkpt>
<trkpt lat="52.54983901977539" lon="13.25553035736084">
<ele>70.5</ele>
<time>2014-02-16T15:19:41Z</time>
</trkpt>
<trkpt lat="52.54982376098633" lon="13.255609512329102">
<ele>70.30000305175781</ele>
<time>2014-02-16T15:19:42Z</time>
</trkpt>
<trkpt lat="52.54981231689453" lon="13.255694389343262">
<ele>69.80000305175781</ele>
<time>2014-02-16T15:19:43Z</time>
</trkpt>
<trkpt lat="52.54979705810547" lon="13.255781173706055">
<ele>69.5999984741211</ele>
<time>2014-02-16T15:19:44Z</time>
</trkpt>
<trkpt lat="52.54978561401367" lon="13.255877494812012">
<ele>69.4000015258789</ele>
<time>2014-02-16T15:19:45Z</time>
</trkpt>
<trkpt lat="52.54977035522461" lon="13.255969047546387">
<ele>69.19999694824219</ele>
<time>2014-02-16T15:19:47Z</time>
</trkpt>
<trkpt lat="52.54975891113281" lon="13.256061553955078">
<ele>69.4000015258789</ele>
<time>2014-02-16T15:19:47Z</time>
</trkpt>
<trkpt lat="52.549747467041016" lon="13.256149291992188">
<ele>69.30000305175781</ele>
<time>2014-02-16T15:19:48Z</time>
</trkpt>
<trkpt lat="52.54973602294922" lon="13.256247520446777">
<ele>69.19999694824219</ele>
<time>2014-02-16T15:19:49Z</time>
</trkpt>
<trkpt lat="52.54972839355469" lon="13.256329536437988">
<ele>69.4000015258789</ele>
<time>2014-02-16T15:19:50Z</time>
</trkpt>
<trkpt lat="52.54971694946289" lon="13.256420135498047">
<ele>69.69999694824219</ele>
<time>2014-02-16T15:19:51Z</time>
</trkpt>
<trkpt lat="52.549705505371094" lon="13.256507873535156">
<ele>69.80000305175781</ele>
<time>2014-02-16T15:19:52Z</time>
</trkpt>
<trkpt lat="52.54969787597656" lon="13.256604194641113">
<ele>69.80000305175781</ele>
<time>2014-02-16T15:19:53Z</time>
</trkpt>
<trkpt lat="52.549686431884766" lon="13.256696701049805">
<ele>70.0999984741211</ele>
<time>2014-02-16T15:19:54Z</time>
</trkpt>
<trkpt lat="52.5496711730957" lon="13.256790161132812">
<ele>70.30000305175781</ele>
<time>2014-02-16T15:19:55Z</time>
</trkpt>
<trkpt lat="52.549659729003906" lon="13.256879806518555">
<ele>70.5</ele>
<time>2014-02-16T15:19:56Z</time>
</trkpt>
<trkpt lat="52.54964828491211" lon="13.256967544555664">
<ele>70.0</ele>
<time>2014-02-16T15:19:57Z</time>
</trkpt>
<trkpt lat="52.54963684082031" lon="13.25705337524414">
<ele>69.9000015258789</ele>
<time>2014-02-16T15:19:58Z</time>
</trkpt>
<trkpt lat="52.549625396728516" lon="13.25714111328125">
<ele>69.80000305175781</ele>
<time>2014-02-16T15:19:59Z</time>
</trkpt>
<trkpt lat="52.54960632324219" lon="13.257220268249512">
<ele>69.30000305175781</ele>
<time>2014-02-16T15:20:00Z</time>
</trkpt>
<trkpt lat="52.54959487915039" lon="13.257306098937988">
<ele>69.5</ele>
<time>2014-02-16T15:20:01Z</time>
</trkpt>
<trkpt lat="52.54958724975586" lon="13.257391929626465">
<ele>69.4000015258789</ele>
<time>2014-02-16T15:20:02Z</time>
</trkpt>
<trkpt lat="52.5495719909668" lon="13.257474899291992">
<ele>69.30000305175781</ele>
<time>2014-02-16T15:20:03Z</time>
</trkpt>
<trkpt lat="52.54956817626953" lon="13.257558822631836">
<ele>69.30000305175781</ele>
<time>2014-02-16T15:20:04Z</time>
</trkpt>
<trkpt lat="52.549556732177734" lon="13.257643699645996">
<ele>69.0</ele>
<time>2014-02-16T15:20:05Z</time>
</trkpt>
<trkpt lat="52.54955291748047" lon="13.257719993591309">
<ele>69.4000015258789</ele>
<time>2014-02-16T15:20:06Z</time>
</trkpt>
<trkpt lat="52.54954528808594" lon="13.257805824279785">
<ele>69.5</ele>
<time>2014-02-16T15:20:07Z</time>
</trkpt>
<trkpt lat="52.54954147338867" lon="13.25788688659668">
<ele>69.5</ele>
<time>2014-02-16T15:20:08Z</time>
</trkpt>
<trkpt lat="52.54953384399414" lon="13.257973670959473">
<ele>69.30000305175781</ele>
<time>2014-02-16T15:20:09Z</time>
</trkpt>
<trkpt lat="52.54953384399414" lon="13.25805950164795">
<ele>69.0999984741211</ele>
<time>2014-02-16T15:20:10Z</time>
</trkpt>
<trkpt lat="52.54953384399414" lon="13.258136749267578">
<ele>69.0</ele>
<time>2014-02-16T15:20:11Z</time>
</trkpt>
<trkpt lat="52.54953384399414" lon="13.258233070373535">
<ele>68.80000305175781</ele>
<time>2014-02-16T15:20:12Z</time>
</trkpt>
<trkpt lat="52.54952621459961" lon="13.258323669433594">
<ele>68.69999694824219</ele>
<time>2014-02-16T15:20:13Z</time>
</trkpt>
<trkpt lat="52.549522399902344" lon="13.258416175842285">
<ele>68.5999984741211</ele>
<time>2014-02-16T15:20:14Z</time>
</trkpt>
<trkpt lat="52.54951858520508" lon="13.258509635925293">
<ele>68.0999984741211</ele>
<time>2014-02-16T15:20:15Z</time>
</trkpt>
<trkpt lat="52.549522399902344" lon="13.258602142333984">
<ele>68.0</ele>
<time>2014-02-16T15:20:16Z</time>
</trkpt>
<trkpt lat="52.549522399902344" lon="13.258697509765625">
<ele>68.0</ele>
<time>2014-02-16T15:20:18Z</time>
</trkpt>
<trkpt lat="52.54952621459961" lon="13.2587890625">
<ele>67.9000015258789</ele>
<time>2014-02-16T15:20:19Z</time>
</trkpt>
<trkpt lat="52.54951858520508" lon="13.258883476257324">
<ele>67.80000305175781</ele>
<time>2014-02-16T15:20:20Z</time>
</trkpt>
<trkpt lat="52.54951477050781" lon="13.25905990600586">
<ele>67.9000015258789</ele>
<time>2014-02-16T15:20:22Z</time>
</trkpt>
<trkpt lat="52.549503326416016" lon="13.259231567382812">
<ele>67.5999984741211</ele>
<time>2014-02-16T15:20:23Z</time>
</trkpt>
<trkpt lat="52.54949951171875" lon="13.259321212768555">
<ele>67.4000015258789</ele>
<time>2014-02-16T15:20:24Z</time>
</trkpt>
<trkpt lat="52.54949951171875" lon="13.259415626525879">
<ele>67.30000305175781</ele>
<time>2014-02-16T15:20:25Z</time>
</trkpt>
<trkpt lat="52.549503326416016" lon="13.259502410888672">
<ele>67.19999694824219</ele>
<time>2014-02-16T15:20:26Z</time>
</trkpt>
<trkpt lat="52.54951095581055" lon="13.25959300994873">
<ele>67.5999984741211</ele>
<time>2014-02-16T15:20:27Z</time>
</trkpt>
<trkpt lat="52.549503326416016" lon="13.259678840637207">
<ele>67.80000305175781</ele>
<time>2014-02-16T15:20:28Z</time>
</trkpt>
<trkpt lat="52.54950714111328" lon="13.259765625">
<ele>68.0</ele>
<time>2014-02-16T15:20:29Z</time>
</trkpt>
<trkpt lat="52.54951477050781" lon="13.259857177734375">
<ele>68.19999694824219</ele>
<time>2014-02-16T15:20:30Z</time>
</trkpt>
<trkpt lat="52.54950714111328" lon="13.259941101074219">
<ele>68.5999984741211</ele>
<time>2014-02-16T15:20:31Z</time>
</trkpt>
<trkpt lat="52.549495697021484" lon="13.26003646850586">
<ele>68.0999984741211</ele>
<time>2014-02-16T15:20:32Z</time>
</trkpt>
<trkpt lat="52.54949951171875" lon="13.260124206542969">
<ele>68.4000015258789</ele>
<time>2014-02-16T15:20:33Z</time>
</trkpt>
<trkpt lat="52.54949188232422" lon="13.260213851928711">
<ele>68.0999984741211</ele>
<time>2014-02-16T15:20:34Z</time>
</trkpt>
<trkpt lat="52.54948806762695" lon="13.260303497314453">
<ele>68.19999694824219</ele>
<time>2014-02-16T15:20:35Z</time>
</trkpt>
<trkpt lat="52.54948425292969" lon="13.260392189025879">
<ele>68.30000305175781</ele>
<time>2014-02-16T15:20:36Z</time>
</trkpt>
<trkpt lat="52.54948806762695" lon="13.260478019714355">
<ele>68.30000305175781</ele>
<time>2014-02-16T15:20:37Z</time>
</trkpt>
<trkpt lat="52.54949188232422" lon="13.26057243347168">
<ele>68.30000305175781</ele>
<time>2014-02-16T15:20:38Z</time>
</trkpt>
<trkpt lat="52.54948806762695" lon="13.260668754577637">
<ele>68.4000015258789</ele>
<time>2014-02-16T15:20:39Z</time>
</trkpt>
<trkpt lat="52.549495697021484" lon="13.260773658752441">
<ele>68.80000305175781</ele>
<time>2014-02-16T15:20:40Z</time>
</trkpt>
<trkpt lat="52.549495697021484" lon="13.260866165161133">
<ele>69.0</ele>
<time>2014-02-16T15:20:41Z</time>
</trkpt>
<trkpt lat="52.54950714111328" lon="13.260970115661621">
<ele>69.0999984741211</ele>
<time>2014-02-16T15:20:42Z</time>
</trkpt>
<trkpt lat="52.549503326416016" lon="13.261065483093262">
<ele>69.19999694824219</ele>
<time>2014-02-16T15:20:43Z</time>
</trkpt>
<trkpt lat="52.54950714111328" lon="13.261164665222168">
<ele>69.69999694824219</ele>
<time>2014-02-16T15:20:44Z</time>
</trkpt>
<trkpt lat="52.54950714111328" lon="13.261260986328125">
<ele>69.80000305175781</ele>
<time>2014-02-16T15:20:45Z</time>
</trkpt>
<trkpt lat="52.54949951171875" lon="13.261348724365234">
<ele>69.80000305175781</ele>
<time>2014-02-16T15:20:46Z</time>
</trkpt>
<trkpt lat="52.54948425292969" lon="13.261436462402344">
<ele>70.30000305175781</ele>
<time>2014-02-16T15:20:47Z</time>
</trkpt>
<trkpt lat="52.54947280883789" lon="13.261530876159668">
<ele>70.5999984741211</ele>
<time>2014-02-16T15:20:48Z</time>
</trkpt>
<trkpt lat="52.54947280883789" lon="13.26162052154541">
<ele>70.5999984741211</ele>
<time>2014-02-16T15:20:49Z</time>
</trkpt>
<trkpt lat="52.549468994140625" lon="13.261711120605469">
<ele>70.80000305175781</ele>
<time>2014-02-16T15:20:50Z</time>
</trkpt>
<trkpt lat="52.549468994140625" lon="13.261811256408691">
<ele>70.9000015258789</ele>
<time>2014-02-16T15:20:51Z</time>
</trkpt>
<trkpt lat="52.54946517944336" lon="13.261902809143066">
<ele>70.9000015258789</ele>
<time>2014-02-16T15:20:52Z</time>
</trkpt>
<trkpt lat="52.549468994140625" lon="13.261985778808594">
<ele>71.0</ele>
<time>2014-02-16T15:20:53Z</time>
</trkpt>
<trkpt lat="52.549468994140625" lon="13.262063026428223">
<ele>71.0</ele>
<time>2014-02-16T15:20:54Z</time>
</trkpt>
<trkpt lat="52.549468994140625" lon="13.262152671813965">
<ele>70.9000015258789</ele>
<time>2014-02-16T15:20:55Z</time>
</trkpt>
<trkpt lat="52.54946517944336" lon="13.262237548828125">
<ele>71.0999984741211</ele>
<time>2014-02-16T15:20:56Z</time>
</trkpt>
<trkpt lat="52.549461364746094" lon="13.262330055236816">
<ele>70.80000305175781</ele>
<time>2014-02-16T15:20:57Z</time>
</trkpt>
<trkpt lat="52.54945755004883" lon="13.262421607971191">
<ele>71.0</ele>
<time>2014-02-16T15:20:58Z</time>
</trkpt>
<trkpt lat="52.54945755004883" lon="13.262502670288086">
<ele>71.19999694824219</ele>
<time>2014-02-16T15:20:59Z</time>
</trkpt>
<trkpt lat="52.549461364746094" lon="13.262588500976562">
<ele>71.0</ele>
<time>2014-02-16T15:21:00Z</time>
</trkpt>
<trkpt lat="52.54946517944336" lon="13.26268482208252">
<ele>71.30000305175781</ele>
<time>2014-02-16T15:21:01Z</time>
</trkpt>
<trkpt lat="52.549461364746094" lon="13.262784957885742">
<ele>71.30000305175781</ele>
<time>2014-02-16T15:21:02Z</time>
</trkpt>
<trkpt lat="52.549461364746094" lon="13.262886047363281">
<ele>71.30000305175781</ele>
<time>2014-02-16T15:21:03Z</time>
</trkpt>
<trkpt lat="52.54945755004883" lon="13.262981414794922">
<ele>71.5</ele>
<time>2014-02-16T15:21:04Z</time>
</trkpt>
<trkpt lat="52.54945373535156" lon="13.263082504272461">
<ele>71.4000015258789</ele>
<time>2014-02-16T15:21:05Z</time>
</trkpt>
<trkpt lat="52.54945373535156" lon="13.263178825378418">
<ele>71.4000015258789</ele>
<time>2014-02-16T15:21:06Z</time>
</trkpt>
<trkpt lat="52.54944610595703" lon="13.26327896118164">
<ele>71.5</ele>
<time>2014-02-16T15:21:07Z</time>
</trkpt>
<trkpt lat="52.549442291259766" lon="13.26338005065918">
<ele>71.5</ele>
<time>2014-02-16T15:21:08Z</time>
</trkpt>
<trkpt lat="52.549442291259766" lon="13.263473510742188">
<ele>71.0</ele>
<time>2014-02-16T15:21:09Z</time>
</trkpt>
<trkpt lat="52.5494384765625" lon="13.263568878173828">
<ele>70.9000015258789</ele>
<time>2014-02-16T15:21:10Z</time>
</trkpt>
<trkpt lat="52.54943084716797" lon="13.263663291931152">
<ele>71.0</ele>
<time>2014-02-16T15:21:11Z</time>
</trkpt>
<trkpt lat="52.54943084716797" lon="13.263758659362793">
<ele>70.80000305175781</ele>
<time>2014-02-16T15:21:12Z</time>
</trkpt>
<trkpt lat="52.54943084716797" lon="13.26385498046875">
<ele>70.9000015258789</ele>
<time>2014-02-16T15:21:13Z</time>
</trkpt>
<trkpt lat="52.54942321777344" lon="13.263941764831543">
<ele>71.0</ele>
<time>2014-02-16T15:21:14Z</time>
</trkpt>
<trkpt lat="52.54941940307617" lon="13.264043807983398">
<ele>70.9000015258789</ele>
<time>2014-02-16T15:21:15Z</time>
</trkpt>
<trkpt lat="52.54941940307617" lon="13.26413631439209">
<ele>70.80000305175781</ele>
<time>2014-02-16T15:21:16Z</time>
</trkpt>
<trkpt lat="52.549415588378906" lon="13.264237403869629">
<ele>70.69999694824219</ele>
<time>2014-02-16T15:21:17Z</time>
</trkpt>
<trkpt lat="52.549415588378906" lon="13.264324188232422">
<ele>71.0</ele>
<time>2014-02-16T15:21:18Z</time>
</trkpt>
<trkpt lat="52.549415588378906" lon="13.264420509338379">
<ele>71.0</ele>
<time>2014-02-16T15:21:19Z</time>
</trkpt>
<trkpt lat="52.54941177368164" lon="13.264514923095703">
<ele>70.5999984741211</ele>
<time>2014-02-16T15:21:20Z</time>
</trkpt>
<trkpt lat="52.549415588378906" lon="13.26461124420166">
<ele>69.80000305175781</ele>
<time>2014-02-16T15:21:21Z</time>
</trkpt>
<trkpt lat="52.549415588378906" lon="13.264703750610352">
<ele>69.5999984741211</ele>
<time>2014-02-16T15:21:22Z</time>
</trkpt>
<trkpt lat="52.54942321777344" lon="13.264788627624512">
<ele>69.5</ele>
<time>2014-02-16T15:21:23Z</time>
</trkpt>
<trkpt lat="52.54941940307617" lon="13.264877319335938">
<ele>69.5</ele>
<time>2014-02-16T15:21:24Z</time>
</trkpt>
<trkpt lat="52.549415588378906" lon="13.26498031616211">
<ele>69.9000015258789</ele>
<time>2014-02-16T15:21:25Z</time>
</trkpt>
<trkpt lat="52.549415588378906" lon="13.265069007873535">
<ele>70.69999694824219</ele>
<time>2014-02-16T15:21:26Z</time>
</trkpt>
<trkpt lat="52.549415588378906" lon="13.265166282653809">
<ele>70.30000305175781</ele>
<time>2014-02-16T15:21:27Z</time>
</trkpt>
<trkpt lat="52.549415588378906" lon="13.265259742736816">
<ele>70.0999984741211</ele>
<time>2014-02-16T15:21:28Z</time>
</trkpt>
<trkpt lat="52.54941177368164" lon="13.265345573425293">
<ele>70.0</ele>
<time>2014-02-16T15:21:29Z</time>
</trkpt>
<trkpt lat="52.549407958984375" lon="13.265443801879883">
<ele>70.30000305175781</ele>
<time>2014-02-16T15:21:30Z</time>
</trkpt>
<trkpt lat="52.549400329589844" lon="13.265535354614258">
<ele>70.30000305175781</ele>
<time>2014-02-16T15:21:31Z</time>
</trkpt>
<trkpt lat="52.54939651489258" lon="13.265632629394531">
<ele>70.5</ele>
<time>2014-02-16T15:21:32Z</time>
</trkpt>
<trkpt lat="52.54939651489258" lon="13.26573657989502">
<ele>70.5999984741211</ele>
<time>2014-02-16T15:21:33Z</time>
</trkpt>
<trkpt lat="52.54939270019531" lon="13.265836715698242">
<ele>70.80000305175781</ele>
<time>2014-02-16T15:21:34Z</time>
</trkpt>
<trkpt lat="52.54938888549805" lon="13.265934944152832">
<ele>70.9000015258789</ele>
<time>2014-02-16T15:21:35Z</time>
</trkpt>
<trkpt lat="52.54938507080078" lon="13.26603889465332">
<ele>70.9000015258789</ele>
<time>2014-02-16T15:21:36Z</time>
</trkpt>
<trkpt lat="52.549381256103516" lon="13.266136169433594">
<ele>70.80000305175781</ele>
<time>2014-02-16T15:21:37Z</time>
</trkpt>
<trkpt lat="52.549381256103516" lon="13.26623249053955">
<ele>71.0999984741211</ele>
<time>2014-02-16T15:21:39Z</time>
</trkpt>
<trkpt lat="52.54937744140625" lon="13.266440391540527">
<ele>70.80000305175781</ele>
<time>2014-02-16T15:21:40Z</time>
</trkpt>
<trkpt lat="52.549373626708984" lon="13.266545295715332">
<ele>70.80000305175781</ele>
<time>2014-02-16T15:21:41Z</time>
</trkpt>
<trkpt lat="52.549373626708984" lon="13.26663875579834">
<ele>71.0</ele>
<time>2014-02-16T15:21:42Z</time>
</trkpt>
<trkpt lat="52.54936981201172" lon="13.266732215881348">
<ele>71.0999984741211</ele>
<time>2014-02-16T15:21:43Z</time>
</trkpt>
<trkpt lat="52.54936599731445" lon="13.266829490661621">
<ele>71.0999984741211</ele>
<time>2014-02-16T15:21:44Z</time>
</trkpt>
<trkpt lat="52.54936218261719" lon="13.26691722869873">
<ele>71.30000305175781</ele>
<time>2014-02-16T15:21:45Z</time>
</trkpt>
<trkpt lat="52.549354553222656" lon="13.26701831817627">
<ele>71.19999694824219</ele>
<time>2014-02-16T15:21:46Z</time>
</trkpt>
<trkpt lat="52.54935073852539" lon="13.267115592956543">
<ele>71.0</ele>
<time>2014-02-16T15:21:47Z</time>
</trkpt>
<trkpt lat="52.549346923828125" lon="13.267218589782715">
<ele>70.69999694824219</ele>
<time>2014-02-16T15:21:48Z</time>
</trkpt>
<trkpt lat="52.54934310913086" lon="13.267322540283203">
<ele>70.5999984741211</ele>
<time>2014-02-16T15:21:49Z</time>
</trkpt>
<trkpt lat="52.54934310913086" lon="13.267423629760742">
<ele>70.5</ele>
<time>2014-02-16T15:21:51Z</time>
</trkpt>
<trkpt lat="52.549346923828125" lon="13.26751708984375">
<ele>70.4000015258789</ele>
<time>2014-02-16T15:21:51Z</time>
</trkpt>
<trkpt lat="52.54935073852539" lon="13.267621040344238">
<ele>70.69999694824219</ele>
<time>2014-02-16T15:21:52Z</time>
</trkpt>
<trkpt lat="52.54935073852539" lon="13.267724990844727">
<ele>70.30000305175781</ele>
<time>2014-02-16T15:21:53Z</time>
</trkpt>
<trkpt lat="52.54935073852539" lon="13.26782512664795">
<ele>70.4000015258789</ele>
<time>2014-02-16T15:21:54Z</time>
</trkpt>
<trkpt lat="52.54935073852539" lon="13.267929077148438">
<ele>69.5999984741211</ele>
<time>2014-02-16T15:21:55Z</time>
</trkpt>
<trkpt lat="52.549346923828125" lon="13.268026351928711">
<ele>69.4000015258789</ele>
<time>2014-02-16T15:21:56Z</time>
</trkpt>
<trkpt lat="52.549346923828125" lon="13.268126487731934">
<ele>69.19999694824219</ele>
<time>2014-02-16T15:21:57Z</time>
</trkpt>
<trkpt lat="52.54935073852539" lon="13.268223762512207">
<ele>69.30000305175781</ele>
<time>2014-02-16T15:21:58Z</time>
</trkpt>
<trkpt lat="52.549346923828125" lon="13.268329620361328">
<ele>69.0999984741211</ele>
<time>2014-02-16T15:21:59Z</time>
</trkpt>
<trkpt lat="52.549346923828125" lon="13.268428802490234">
<ele>69.19999694824219</ele>
<time>2014-02-16T15:22:00Z</time>
</trkpt>
<trkpt lat="52.54934310913086" lon="13.26853084564209">
<ele>69.19999694824219</ele>
<time>2014-02-16T15:22:01Z</time>
</trkpt>
<trkpt lat="52.549346923828125" lon="13.268623352050781">
<ele>68.9000015258789</ele>
<time>2014-02-16T15:22:02Z</time>
</trkpt>
<trkpt lat="52.549354553222656" lon="13.268723487854004">
<ele>69.19999694824219</ele>
<time>2014-02-16T15:22:03Z</time>
</trkpt>
<trkpt lat="52.54935073852539" lon="13.268818855285645">
<ele>69.19999694824219</ele>
<time>2014-02-16T15:22:04Z</time>
</trkpt>
<trkpt lat="52.54935073852539" lon="13.268905639648438">
<ele>69.0999984741211</ele>
<time>2014-02-16T15:22:05Z</time>
</trkpt>
<trkpt lat="52.549354553222656" lon="13.269002914428711">
<ele>69.30000305175781</ele>
<time>2014-02-16T15:22:06Z</time>
</trkpt>
<trkpt lat="52.549354553222656" lon="13.269094467163086">
<ele>69.30000305175781</ele>
<time>2014-02-16T15:22:07Z</time>
</trkpt>
<trkpt lat="52.54935073852539" lon="13.269183158874512">
<ele>69.5</ele>
<time>2014-02-16T15:22:08Z</time>
</trkpt>
<trkpt lat="52.54935073852539" lon="13.26927661895752">
<ele>69.69999694824219</ele>
<time>2014-02-16T15:22:09Z</time>
</trkpt>
<trkpt lat="52.549346923828125" lon="13.269360542297363">
<ele>69.69999694824219</ele>
<time>2014-02-16T15:22:10Z</time>
</trkpt>
<trkpt lat="52.549339294433594" lon="13.26944637298584">
<ele>69.80000305175781</ele>
<time>2014-02-16T15:22:11Z</time>
</trkpt>
<trkpt lat="52.549339294433594" lon="13.269525527954102">
<ele>69.9000015258789</ele>
<time>2014-02-16T15:22:12Z</time>
</trkpt>
<trkpt lat="52.549339294433594" lon="13.269601821899414">
<ele>70.5</ele>
<time>2014-02-16T15:22:13Z</time>
</trkpt>
<trkpt lat="52.54933166503906" lon="13.269679069519043">
<ele>70.5</ele>
<time>2014-02-16T15:22:14Z</time>
</trkpt>
<trkpt lat="52.5493278503418" lon="13.269763946533203">
<ele>70.5</ele>
<time>2014-02-16T15:22:15Z</time>
</trkpt>
<trkpt lat="52.54931640625" lon="13.269843101501465">
<ele>70.5</ele>
<time>2014-02-16T15:22:16Z</time>
</trkpt>
<trkpt lat="52.549312591552734" lon="13.269918441772461">
<ele>70.4000015258789</ele>
<time>2014-02-16T15:22:17Z</time>
</trkpt>
<trkpt lat="52.549320220947266" lon="13.270044326782227">
<ele>69.80000305175781</ele>
<time>2014-02-16T15:22:19Z</time>
</trkpt>
<trkpt lat="52.549346923828125" lon="13.270121574401855">
<ele>70.0</ele>
<time>2014-02-16T15:22:20Z</time>
</trkpt>
<trkpt lat="52.54935836791992" lon="13.270224571228027">
<ele>69.80000305175781</ele>
<time>2014-02-16T15:22:22Z</time>
</trkpt>
<trkpt lat="52.54936218261719" lon="13.270310401916504">
<ele>71.0999984741211</ele>
<time>2014-02-16T15:22:24Z</time>
</trkpt>
<trkpt lat="52.54936218261719" lon="13.270390510559082">
<ele>71.4000015258789</ele>
<time>2014-02-16T15:22:26Z</time>
</trkpt>
<trkpt lat="52.54936599731445" lon="13.270508766174316">
<ele>71.69999694824219</ele>
<time>2014-02-16T15:22:30Z</time>
</trkpt>
<trkpt lat="52.549354553222656" lon="13.270744323730469">
<ele>72.5999984741211</ele>
<time>2014-02-16T15:22:33Z</time>
</trkpt>
<trkpt lat="52.549354553222656" lon="13.270898818969727">
<ele>72.5999984741211</ele>
<time>2014-02-16T15:22:35Z</time>
</trkpt>
<trkpt lat="52.549354553222656" lon="13.270981788635254">
<ele>72.80000305175781</ele>
<time>2014-02-16T15:22:37Z</time>
</trkpt>
<trkpt lat="52.54935073852539" lon="13.271158218383789">
<ele>71.69999694824219</ele>
<time>2014-02-16T15:22:38Z</time>
</trkpt>
<trkpt lat="52.54934310913086" lon="13.271336555480957">
<ele>71.5</ele>
<time>2014-02-16T15:22:40Z</time>
</trkpt>
<trkpt lat="52.54933547973633" lon="13.271452903747559">
<ele>72.0999984741211</ele>
<time>2014-02-16T15:22:41Z</time>
</trkpt>
<trkpt lat="52.54933166503906" lon="13.271553993225098">
<ele>71.9000015258789</ele>
<time>2014-02-16T15:22:42Z</time>
</trkpt>
<trkpt lat="52.54932403564453" lon="13.271661758422852">
<ele>71.80000305175781</ele>
<time>2014-02-16T15:22:43Z</time>
</trkpt>
<trkpt lat="52.549320220947266" lon="13.271763801574707">
<ele>71.80000305175781</ele>
<time>2014-02-16T15:22:44Z</time>
</trkpt>
<trkpt lat="52.549320220947266" lon="13.27187728881836">
<ele>72.19999694824219</ele>
<time>2014-02-16T15:22:45Z</time>
</trkpt>
<trkpt lat="52.549320220947266" lon="13.27199649810791">
<ele>72.0</ele>
<time>2014-02-16T15:22:46Z</time>
</trkpt>
<trkpt lat="52.54930877685547" lon="13.27212142944336">
<ele>71.80000305175781</ele>
<time>2014-02-16T15:22:47Z</time>
</trkpt>
<trkpt lat="52.54929733276367" lon="13.272233009338379">
<ele>71.80000305175781</ele>
<time>2014-02-16T15:22:48Z</time>
</trkpt>
<trkpt lat="52.549293518066406" lon="13.272339820861816">
<ele>71.5</ele>
<time>2014-02-16T15:22:49Z</time>
</trkpt>
<trkpt lat="52.54928970336914" lon="13.272442817687988">
<ele>71.9000015258789</ele>
<time>2014-02-16T15:22:50Z</time>
</trkpt>
<trkpt lat="52.549278259277344" lon="13.272538185119629">
<ele>71.69999694824219</ele>
<time>2014-02-16T15:22:51Z</time>
</trkpt>
<trkpt lat="52.54926300048828" lon="13.272642135620117">
<ele>71.19999694824219</ele>
<time>2014-02-16T15:22:52Z</time>
</trkpt>
<trkpt lat="52.54925537109375" lon="13.272756576538086">
<ele>71.0999984741211</ele>
<time>2014-02-16T15:22:53Z</time>
</trkpt>
<trkpt lat="52.54924392700195" lon="13.272855758666992">
<ele>70.80000305175781</ele>
<time>2014-02-16T15:22:54Z</time>
</trkpt>
<trkpt lat="52.549232482910156" lon="13.272974967956543">
<ele>70.30000305175781</ele>
<time>2014-02-16T15:22:55Z</time>
</trkpt>
<trkpt lat="52.549224853515625" lon="13.273067474365234">
<ele>70.19999694824219</ele>
<time>2014-02-16T15:22:56Z</time>
</trkpt>
<trkpt lat="52.549198150634766" lon="13.273204803466797">
<ele>69.9000015258789</ele>
<time>2014-02-16T15:22:57Z</time>
</trkpt>
<trkpt lat="52.5491943359375" lon="13.273307800292969">
<ele>70.19999694824219</ele>
<time>2014-02-16T15:22:58Z</time>
</trkpt>
<trkpt lat="52.5492057800293" lon="13.273402214050293">
<ele>70.0</ele>
<time>2014-02-16T15:22:59Z</time>
</trkpt>
<trkpt lat="52.54922103881836" lon="13.273516654968262">
<ele>69.80000305175781</ele>
<time>2014-02-16T15:23:00Z</time>
</trkpt>
<trkpt lat="52.54922866821289" lon="13.273611068725586">
<ele>70.5</ele>
<time>2014-02-16T15:23:01Z</time>
</trkpt>
<trkpt lat="52.54922866821289" lon="13.273713111877441">
<ele>70.5</ele>
<time>2014-02-16T15:23:02Z</time>
</trkpt>
<trkpt lat="52.54923629760742" lon="13.27381706237793">
<ele>70.5</ele>
<time>2014-02-16T15:23:03Z</time>
</trkpt>
<trkpt lat="52.54924011230469" lon="13.27393627166748">
<ele>70.0999984741211</ele>
<time>2014-02-16T15:23:04Z</time>
</trkpt>
<trkpt lat="52.54924011230469" lon="13.274048805236816">
<ele>70.4000015258789</ele>
<time>2014-02-16T15:23:05Z</time>
</trkpt>
<trkpt lat="52.54924392700195" lon="13.274150848388672">
<ele>70.0</ele>
<time>2014-02-16T15:23:06Z</time>
</trkpt>
<trkpt lat="52.54924392700195" lon="13.274269104003906">
<ele>70.5</ele>
<time>2014-02-16T15:23:07Z</time>
</trkpt>
<trkpt lat="52.54924392700195" lon="13.274369239807129">
<ele>70.30000305175781</ele>
<time>2014-02-16T15:23:08Z</time>
</trkpt>
<trkpt lat="52.54923629760742" lon="13.274486541748047">
<ele>70.80000305175781</ele>
<time>2014-02-16T15:23:09Z</time>
</trkpt>
<trkpt lat="52.549224853515625" lon="13.274591445922852">
<ele>70.69999694824219</ele>
<time>2014-02-16T15:23:10Z</time>
</trkpt>
<trkpt lat="52.54921340942383" lon="13.274700164794922">
<ele>71.19999694824219</ele>
<time>2014-02-16T15:23:11Z</time>
</trkpt>
<trkpt lat="52.54920959472656" lon="13.274810791015625">
<ele>70.80000305175781</ele>
<time>2014-02-16T15:23:12Z</time>
</trkpt>
<trkpt lat="52.54921340942383" lon="13.274924278259277">
<ele>70.9000015258789</ele>
<time>2014-02-16T15:23:13Z</time>
</trkpt>
<trkpt lat="52.54920959472656" lon="13.27502155303955">
<ele>70.9000015258789</ele>
<time>2014-02-16T15:23:14Z</time>
</trkpt>
<trkpt lat="52.5492057800293" lon="13.275127410888672">
<ele>70.4000015258789</ele>
<time>2014-02-16T15:23:15Z</time>
</trkpt>
<trkpt lat="52.54920959472656" lon="13.275227546691895">
<ele>70.5999984741211</ele>
<time>2014-02-16T15:23:16Z</time>
</trkpt>
<trkpt lat="52.54920959472656" lon="13.275322914123535">
<ele>70.19999694824219</ele>
<time>2014-02-16T15:23:17Z</time>
</trkpt>
<trkpt lat="52.54920959472656" lon="13.275431632995605">
<ele>70.0999984741211</ele>
<time>2014-02-16T15:23:18Z</time>
</trkpt>
<trkpt lat="52.549198150634766" lon="13.275550842285156">
<ele>70.5999984741211</ele>
<time>2014-02-16T15:23:19Z</time>
</trkpt>
<trkpt lat="52.549198150634766" lon="13.275652885437012">
<ele>71.19999694824219</ele>
<time>2014-02-16T15:23:20Z</time>
</trkpt>
<trkpt lat="52.54918670654297" lon="13.27575397491455">
<ele>71.5</ele>
<time>2014-02-16T15:23:21Z</time>
</trkpt>
<trkpt lat="52.549190521240234" lon="13.275830268859863">
<ele>71.5999984741211</ele>
<time>2014-02-16T15:23:22Z</time>
</trkpt>
<trkpt lat="52.5491943359375" lon="13.275941848754883">
<ele>71.19999694824219</ele>
<time>2014-02-16T15:23:23Z</time>
</trkpt>
<trkpt lat="52.549190521240234" lon="13.276055335998535">
<ele>71.69999694824219</ele>
<time>2014-02-16T15:23:24Z</time>
</trkpt>
<trkpt lat="52.5491828918457" lon="13.276167869567871">
<ele>71.0999984741211</ele>
<time>2014-02-16T15:23:25Z</time>
</trkpt>
<trkpt lat="52.549190521240234" lon="13.276247024536133">
<ele>70.5999984741211</ele>
<time>2014-02-16T15:23:26Z</time>
</trkpt>
<trkpt lat="52.5491828918457" lon="13.276352882385254">
<ele>70.80000305175781</ele>
<time>2014-02-16T15:23:27Z</time>
</trkpt>
<trkpt lat="52.549163818359375" lon="13.276467323303223">
<ele>72.5</ele>
<time>2014-02-16T15:23:28Z</time>
</trkpt>
<trkpt lat="52.54915237426758" lon="13.27658748626709">
<ele>73.0999984741211</ele>
<time>2014-02-16T15:23:29Z</time>
</trkpt>
<trkpt lat="52.54914855957031" lon="13.27670669555664">
<ele>73.30000305175781</ele>
<time>2014-02-16T15:23:30Z</time>
</trkpt>
<trkpt lat="52.54915237426758" lon="13.276799201965332">
<ele>73.69999694824219</ele>
<time>2014-02-16T15:23:31Z</time>
</trkpt>
<trkpt lat="52.54914855957031" lon="13.276908874511719">
<ele>74.0</ele>
<time>2014-02-16T15:23:32Z</time>
</trkpt>
<trkpt lat="52.549163818359375" lon="13.27707290649414">
<ele>72.69999694824219</ele>
<time>2014-02-16T15:23:34Z</time>
</trkpt>
<trkpt lat="52.54916763305664" lon="13.277164459228516">
<ele>73.19999694824219</ele>
<time>2014-02-16T15:23:35Z</time>
</trkpt>
<trkpt lat="52.54916000366211" lon="13.277239799499512">
<ele>71.5</ele>
<time>2014-02-16T15:23:36Z</time>
</trkpt>
<trkpt lat="52.54915237426758" lon="13.277316093444824">
<ele>71.0999984741211</ele>
<time>2014-02-16T15:23:37Z</time>
</trkpt>
<trkpt lat="52.549156188964844" lon="13.277392387390137">
<ele>70.69999694824219</ele>
<time>2014-02-16T15:23:38Z</time>
</trkpt>
<trkpt lat="52.54915237426758" lon="13.27747631072998">
<ele>71.0999984741211</ele>
<time>2014-02-16T15:23:39Z</time>
</trkpt>
<trkpt lat="52.54915237426758" lon="13.277565956115723">
<ele>71.0999984741211</ele>
<time>2014-02-16T15:23:40Z</time>
</trkpt>
<trkpt lat="52.54915237426758" lon="13.277641296386719">
<ele>70.9000015258789</ele>
<time>2014-02-16T15:23:41Z</time>
</trkpt>
<trkpt lat="52.549156188964844" lon="13.277721405029297">
<ele>70.5999984741211</ele>
<time>2014-02-16T15:23:42Z</time>
</trkpt>
<trkpt lat="52.549156188964844" lon="13.27783203125">
<ele>69.69999694824219</ele>
<time>2014-02-16T15:23:44Z</time>
</trkpt>
<trkpt lat="52.549156188964844" lon="13.277917861938477">
<ele>69.0</ele>
<time>2014-02-16T15:25:03Z</time>
</trkpt>
<trkpt lat="52.54916000366211" lon="13.278000831604004">
<ele>69.69999694824219</ele>
<time>2014-02-16T15:25:05Z</time>
</trkpt>
<trkpt lat="52.54912567138672" lon="13.27810287475586">
<ele>66.5999984741211</ele>
<time>2014-02-16T15:25:07Z</time>
</trkpt>
<trkpt lat="52.54912567138672" lon="13.27822208404541">
<ele>65.80000305175781</ele>
<time>2014-02-16T15:25:09Z</time>
</trkpt>
<trkpt lat="52.54912185668945" lon="13.278300285339355">
<ele>65.69999694824219</ele>
<time>2014-02-16T15:25:10Z</time>
</trkpt>
<trkpt lat="52.54911804199219" lon="13.278373718261719">
<ele>65.5</ele>
<time>2014-02-16T15:25:11Z</time>
</trkpt>
<trkpt lat="52.54911422729492" lon="13.278515815734863">
<ele>65.9000015258789</ele>
<time>2014-02-16T15:25:13Z</time>
</trkpt>
<trkpt lat="52.54912185668945" lon="13.278661727905273">
<ele>66.19999694824219</ele>
<time>2014-02-16T15:25:15Z</time>
</trkpt>
<trkpt lat="52.54910659790039" lon="13.27876091003418">
<ele>65.9000015258789</ele>
<time>2014-02-16T15:25:16Z</time>
</trkpt>
<trkpt lat="52.54909896850586" lon="13.278841018676758">
<ele>65.9000015258789</ele>
<time>2014-02-16T15:25:17Z</time>
</trkpt>
<trkpt lat="52.54909896850586" lon="13.278924942016602">
<ele>66.0</ele>
<time>2014-02-16T15:25:18Z</time>
</trkpt>
<trkpt lat="52.54911422729492" lon="13.279084205627441">
<ele>66.80000305175781</ele>
<time>2014-02-16T15:25:20Z</time>
</trkpt>
<trkpt lat="52.549110412597656" lon="13.279169082641602">
<ele>66.30000305175781</ele>
<time>2014-02-16T15:25:21Z</time>
</trkpt>
<trkpt lat="52.54911422729492" lon="13.279250144958496">
<ele>66.5999984741211</ele>
<time>2014-02-16T15:25:22Z</time>
</trkpt>
<trkpt lat="52.549129486083984" lon="13.27940559387207">
<ele>67.4000015258789</ele>
<time>2014-02-16T15:25:24Z</time>
</trkpt>
<trkpt lat="52.549137115478516" lon="13.27947998046875">
<ele>67.5</ele>
<time>2014-02-16T15:25:25Z</time>
</trkpt>
<trkpt lat="52.54913330078125" lon="13.279565811157227">
<ele>67.5999984741211</ele>
<time>2014-02-16T15:25:26Z</time>
</trkpt>
<trkpt lat="52.549137115478516" lon="13.279655456542969">
<ele>67.5999984741211</ele>
<time>2014-02-16T15:25:27Z</time>
</trkpt>
<trkpt lat="52.54914093017578" lon="13.279732704162598">
<ele>67.80000305175781</ele>
<time>2014-02-16T15:25:28Z</time>
</trkpt>
<trkpt lat="52.549137115478516" lon="13.279820442199707">
<ele>68.0999984741211</ele>
<time>2014-02-16T15:25:29Z</time>
</trkpt>
<trkpt lat="52.54912567138672" lon="13.279912948608398">
<ele>68.0999984741211</ele>
<time>2014-02-16T15:25:30Z</time>
</trkpt>
<trkpt lat="52.54912185668945" lon="13.279990196228027">
<ele>68.30000305175781</ele>
<time>2014-02-16T15:25:31Z</time>
</trkpt>
<trkpt lat="52.54911804199219" lon="13.280076026916504">
<ele>68.5</ele>
<time>2014-02-16T15:25:32Z</time>
</trkpt>
<trkpt lat="52.54911422729492" lon="13.280163764953613">
<ele>68.5</ele>
<time>2014-02-16T15:25:33Z</time>
</trkpt>
<trkpt lat="52.549102783203125" lon="13.280252456665039">
<ele>68.5999984741211</ele>
<time>2014-02-16T15:25:34Z</time>
</trkpt>
<trkpt lat="52.549095153808594" lon="13.280338287353516">
<ele>67.9000015258789</ele>
<time>2014-02-16T15:25:35Z</time>
</trkpt>
<trkpt lat="52.54907989501953" lon="13.280416488647461">
<ele>67.5999984741211</ele>
<time>2014-02-16T15:25:36Z</time>
</trkpt>
<trkpt lat="52.5490837097168" lon="13.280498504638672">
<ele>67.0999984741211</ele>
<time>2014-02-16T15:25:37Z</time>
</trkpt>
<trkpt lat="52.5490837097168" lon="13.280592918395996">
<ele>66.9000015258789</ele>
<time>2014-02-16T15:25:38Z</time>
</trkpt>
<trkpt lat="52.54907989501953" lon="13.280668258666992">
<ele>66.69999694824219</ele>
<time>2014-02-16T15:25:39Z</time>
</trkpt>
<trkpt lat="52.5490837097168" lon="13.280742645263672">
<ele>66.69999694824219</ele>
<time>2014-02-16T15:25:40Z</time>
</trkpt>
<trkpt lat="52.549095153808594" lon="13.280817985534668">
<ele>66.0999984741211</ele>
<time>2014-02-16T15:25:41Z</time>
</trkpt>
<trkpt lat="52.54908752441406" lon="13.280900955200195">
<ele>66.5</ele>
<time>2014-02-16T15:25:42Z</time>
</trkpt>
<trkpt lat="52.5490837097168" lon="13.28099250793457">
<ele>66.5</ele>
<time>2014-02-16T15:25:43Z</time>
</trkpt>
<trkpt lat="52.5490837097168" lon="13.281068801879883">
<ele>66.69999694824219</ele>
<time>2014-02-16T15:25:44Z</time>
</trkpt>
<trkpt lat="52.54907989501953" lon="13.281147956848145">
<ele>66.5999984741211</ele>
<time>2014-02-16T15:25:45Z</time>
</trkpt>
<trkpt lat="52.549076080322266" lon="13.281230926513672">
<ele>66.5</ele>
<time>2014-02-16T15:25:46Z</time>
</trkpt>
<trkpt lat="52.549076080322266" lon="13.281315803527832">
<ele>66.30000305175781</ele>
<time>2014-02-16T15:25:47Z</time>
</trkpt>
<trkpt lat="52.549076080322266" lon="13.28139877319336">
<ele>66.4000015258789</ele>
<time>2014-02-16T15:25:48Z</time>
</trkpt>
<trkpt lat="52.5490608215332" lon="13.281482696533203">
<ele>65.80000305175781</ele>
<time>2014-02-16T15:25:49Z</time>
</trkpt>
<trkpt lat="52.54905700683594" lon="13.281563758850098">
<ele>65.69999694824219</ele>
<time>2014-02-16T15:25:50Z</time>
</trkpt>
<trkpt lat="52.54905700683594" lon="13.28165340423584">
<ele>65.80000305175781</ele>
<time>2014-02-16T15:25:51Z</time>
</trkpt>
<trkpt lat="52.549049377441406" lon="13.28173542022705">
<ele>65.5</ele>
<time>2014-02-16T15:25:52Z</time>
</trkpt>
<trkpt lat="52.54904556274414" lon="13.28182315826416">
<ele>65.4000015258789</ele>
<time>2014-02-16T15:25:53Z</time>
</trkpt>
<trkpt lat="52.54904556274414" lon="13.281907081604004">
<ele>65.5</ele>
<time>2014-02-16T15:25:54Z</time>
</trkpt>
<trkpt lat="52.549041748046875" lon="13.28199291229248">
<ele>65.80000305175781</ele>
<time>2014-02-16T15:25:55Z</time>
</trkpt>
<trkpt lat="52.54904556274414" lon="13.282074928283691">
<ele>66.0</ele>
<time>2014-02-16T15:25:56Z</time>
</trkpt>
<trkpt lat="52.54904556274414" lon="13.282153129577637">
<ele>66.4000015258789</ele>
<time>2014-02-16T15:25:57Z</time>
</trkpt>
<trkpt lat="52.549041748046875" lon="13.282233238220215">
<ele>66.5999984741211</ele>
<time>2014-02-16T15:25:58Z</time>
</trkpt>
<trkpt lat="52.549049377441406" lon="13.282319068908691">
<ele>66.69999694824219</ele>
<time>2014-02-16T15:25:59Z</time>
</trkpt>
<trkpt lat="52.549049377441406" lon="13.282411575317383">
<ele>66.0999984741211</ele>
<time>2014-02-16T15:26:00Z</time>
</trkpt>
<trkpt lat="52.549049377441406" lon="13.282509803771973">
<ele>66.69999694824219</ele>
<time>2014-02-16T15:26:01Z</time>
</trkpt>
<trkpt lat="52.54904556274414" lon="13.282598495483398">
<ele>66.5999984741211</ele>
<time>2014-02-16T15:26:02Z</time>
</trkpt>
<trkpt lat="52.54905319213867" lon="13.282674789428711">
<ele>66.19999694824219</ele>
<time>2014-02-16T15:26:03Z</time>
</trkpt>
<trkpt lat="52.54904556274414" lon="13.282753944396973">
<ele>66.5999984741211</ele>
<time>2014-02-16T15:26:04Z</time>
</trkpt>
<trkpt lat="52.54903793334961" lon="13.282835960388184">
<ele>66.80000305175781</ele>
<time>2014-02-16T15:26:06Z</time>
</trkpt>
<trkpt lat="52.549041748046875" lon="13.282922744750977">
<ele>66.5</ele>
<time>2014-02-16T15:26:06Z</time>
</trkpt>
<trkpt lat="52.549034118652344" lon="13.283010482788086">
<ele>66.19999694824219</ele>
<time>2014-02-16T15:26:07Z</time>
</trkpt>
<trkpt lat="52.549034118652344" lon="13.28309154510498">
<ele>66.4000015258789</ele>
<time>2014-02-16T15:26:08Z</time>
</trkpt>
<trkpt lat="52.54903030395508" lon="13.28316593170166">
<ele>66.4000015258789</ele>
<time>2014-02-16T15:26:09Z</time>
</trkpt>
<trkpt lat="52.549034118652344" lon="13.283244132995605">
<ele>66.19999694824219</ele>
<time>2014-02-16T15:26:10Z</time>
</trkpt>
<trkpt lat="52.54902648925781" lon="13.2833251953125">
<ele>66.30000305175781</ele>
<time>2014-02-16T15:26:11Z</time>
</trkpt>
<trkpt lat="52.54902648925781" lon="13.283469200134277">
<ele>66.69999694824219</ele>
<time>2014-02-16T15:26:13Z</time>
</trkpt>
<trkpt lat="52.54902648925781" lon="13.283553123474121">
<ele>66.80000305175781</ele>
<time>2014-02-16T15:26:14Z</time>
</trkpt>
<trkpt lat="52.54905319213867" lon="13.283648490905762">
<ele>68.69999694824219</ele>
<time>2014-02-16T15:26:15Z</time>
</trkpt>
<trkpt lat="52.549049377441406" lon="13.283721923828125">
<ele>68.4000015258789</ele>
<time>2014-02-16T15:26:16Z</time>
</trkpt>
<trkpt lat="52.54904556274414" lon="13.28380012512207">
<ele>68.69999694824219</ele>
<time>2014-02-16T15:26:17Z</time>
</trkpt>
<trkpt lat="52.54904556274414" lon="13.28388500213623">
<ele>68.5999984741211</ele>
<time>2014-02-16T15:26:18Z</time>
</trkpt>
<trkpt lat="52.54903030395508" lon="13.283979415893555">
<ele>68.80000305175781</ele>
<time>2014-02-16T15:26:19Z</time>
</trkpt>
<trkpt lat="52.54903030395508" lon="13.284067153930664">
<ele>68.19999694824219</ele>
<time>2014-02-16T15:26:20Z</time>
</trkpt>
<trkpt lat="52.54902648925781" lon="13.284154891967773">
<ele>68.19999694824219</ele>
<time>2014-02-16T15:26:21Z</time>
</trkpt>
<trkpt lat="52.549034118652344" lon="13.2842435836792">
<ele>68.9000015258789</ele>
<time>2014-02-16T15:26:22Z</time>
</trkpt>
<trkpt lat="52.54902648925781" lon="13.28432846069336">
<ele>68.5</ele>
<time>2014-02-16T15:26:23Z</time>
</trkpt>
<trkpt lat="52.54903030395508" lon="13.28441047668457">
<ele>69.0999984741211</ele>
<time>2014-02-16T15:26:24Z</time>
</trkpt>
<trkpt lat="52.549034118652344" lon="13.284494400024414">
<ele>69.30000305175781</ele>
<time>2014-02-16T15:26:25Z</time>
</trkpt>
<trkpt lat="52.549034118652344" lon="13.28458023071289">
<ele>69.4000015258789</ele>
<time>2014-02-16T15:26:26Z</time>
</trkpt>
<trkpt lat="52.54903793334961" lon="13.28466510772705">
<ele>69.80000305175781</ele>
<time>2014-02-16T15:26:27Z</time>
</trkpt>
<trkpt lat="52.549034118652344" lon="13.284741401672363">
<ele>69.9000015258789</ele>
<time>2014-02-16T15:26:28Z</time>
</trkpt>
<trkpt lat="52.549034118652344" lon="13.284817695617676">
<ele>70.19999694824219</ele>
<time>2014-02-16T15:26:29Z</time>
</trkpt>
<trkpt lat="52.549034118652344" lon="13.284905433654785">
<ele>69.9000015258789</ele>
<time>2014-02-16T15:26:30Z</time>
</trkpt>
<trkpt lat="52.54901123046875" lon="13.284994125366211">
<ele>68.9000015258789</ele>
<time>2014-02-16T15:26:31Z</time>
</trkpt>
<trkpt lat="52.54902267456055" lon="13.285143852233887">
<ele>69.30000305175781</ele>
<time>2014-02-16T15:26:33Z</time>
</trkpt>
<trkpt lat="52.54902648925781" lon="13.28522777557373">
<ele>69.19999694824219</ele>
<time>2014-02-16T15:26:34Z</time>
</trkpt>
<trkpt lat="52.54903030395508" lon="13.28530216217041">
<ele>69.0</ele>
<time>2014-02-16T15:26:35Z</time>
</trkpt>
<trkpt lat="52.549034118652344" lon="13.28537654876709">
<ele>69.19999694824219</ele>
<time>2014-02-16T15:26:36Z</time>
</trkpt>
<trkpt lat="52.549034118652344" lon="13.285454750061035">
<ele>69.30000305175781</ele>
<time>2014-02-16T15:26:37Z</time>
</trkpt>
<trkpt lat="52.549015045166016" lon="13.285552024841309">
<ele>68.69999694824219</ele>
<time>2014-02-16T15:26:38Z</time>
</trkpt>
<trkpt lat="52.54902648925781" lon="13.285628318786621">
<ele>70.0</ele>
<time>2014-02-16T15:26:39Z</time>
</trkpt>
<trkpt lat="52.54901885986328" lon="13.285724639892578">
<ele>70.19999694824219</ele>
<time>2014-02-16T15:26:40Z</time>
</trkpt>
<trkpt lat="52.549015045166016" lon="13.285805702209473">
<ele>69.9000015258789</ele>
<time>2014-02-16T15:26:41Z</time>
</trkpt>
<trkpt lat="52.54901123046875" lon="13.285892486572266">
<ele>70.0</ele>
<time>2014-02-16T15:26:42Z</time>
</trkpt>
<trkpt lat="52.549015045166016" lon="13.285967826843262">
<ele>69.9000015258789</ele>
<time>2014-02-16T15:26:43Z</time>
</trkpt>
<trkpt lat="52.54901123046875" lon="13.286051750183105">
<ele>69.9000015258789</ele>
<time>2014-02-16T15:26:44Z</time>
</trkpt>
<trkpt lat="52.54899597167969" lon="13.286131858825684">
<ele>69.30000305175781</ele>
<time>2014-02-16T15:26:45Z</time>
</trkpt>
<trkpt lat="52.54901123046875" lon="13.286221504211426">
<ele>69.0999984741211</ele>
<time>2014-02-16T15:26:46Z</time>
</trkpt>
<trkpt lat="52.549007415771484" lon="13.286295890808105">
<ele>69.0</ele>
<time>2014-02-16T15:26:47Z</time>
</trkpt>
<trkpt lat="52.54899978637695" lon="13.286375999450684">
<ele>68.9000015258789</ele>
<time>2014-02-16T15:26:48Z</time>
</trkpt>
<trkpt lat="52.54900360107422" lon="13.28645133972168">
<ele>68.0999984741211</ele>
<time>2014-02-16T15:26:49Z</time>
</trkpt>
<trkpt lat="52.54900360107422" lon="13.28653621673584">
<ele>68.0999984741211</ele>
<time>2014-02-16T15:26:50Z</time>
</trkpt>
<trkpt lat="52.54900360107422" lon="13.286619186401367">
<ele>67.69999694824219</ele>
<time>2014-02-16T15:26:51Z</time>
</trkpt>
<trkpt lat="52.54901885986328" lon="13.286709785461426">
<ele>68.30000305175781</ele>
<time>2014-02-16T15:26:52Z</time>
</trkpt>
<trkpt lat="52.54902648925781" lon="13.28679370880127">
<ele>68.69999694824219</ele>
<time>2014-02-16T15:26:53Z</time>
</trkpt>
<trkpt lat="52.54903030395508" lon="13.286870956420898">
<ele>69.30000305175781</ele>
<time>2014-02-16T15:26:54Z</time>
</trkpt>
<trkpt lat="52.549034118652344" lon="13.286952018737793">
<ele>69.5</ele>
<time>2014-02-16T15:26:55Z</time>
</trkpt>
<trkpt lat="52.549034118652344" lon="13.287032127380371">
<ele>69.4000015258789</ele>
<time>2014-02-16T15:26:56Z</time>
</trkpt>
<trkpt lat="52.54903030395508" lon="13.287109375">
<ele>69.19999694824219</ele>
<time>2014-02-16T15:26:57Z</time>
</trkpt>
<trkpt lat="52.54903030395508" lon="13.287187576293945">
<ele>70.0</ele>
<time>2014-02-16T15:26:58Z</time>
</trkpt>
<trkpt lat="52.54902648925781" lon="13.287272453308105">
<ele>69.9000015258789</ele>
<time>2014-02-16T15:26:59Z</time>
</trkpt>
<trkpt lat="52.54903030395508" lon="13.287357330322266">
<ele>70.0</ele>
<time>2014-02-16T15:27:00Z</time>
</trkpt>
<trkpt lat="52.54902267456055" lon="13.287450790405273">
<ele>70.19999694824219</ele>
<time>2014-02-16T15:27:01Z</time>
</trkpt>
<trkpt lat="52.54902267456055" lon="13.287538528442383">
<ele>70.19999694824219</ele>
<time>2014-02-16T15:27:02Z</time>
</trkpt>
<trkpt lat="52.54901885986328" lon="13.287622451782227">
<ele>70.19999694824219</ele>
<time>2014-02-16T15:27:03Z</time>
</trkpt>
<trkpt lat="52.549015045166016" lon="13.28770637512207">
<ele>70.19999694824219</ele>
<time>2014-02-16T15:27:04Z</time>
</trkpt>
<trkpt lat="52.549007415771484" lon="13.287788391113281">
<ele>70.19999694824219</ele>
<time>2014-02-16T15:27:05Z</time>
</trkpt>
<trkpt lat="52.549007415771484" lon="13.287882804870605">
<ele>70.5999984741211</ele>
<time>2014-02-16T15:27:06Z</time>
</trkpt>
<trkpt lat="52.54900360107422" lon="13.287964820861816">
<ele>70.5</ele>
<time>2014-02-16T15:27:07Z</time>
</trkpt>
<trkpt lat="52.549007415771484" lon="13.288055419921875">
<ele>70.4000015258789</ele>
<time>2014-02-16T15:27:08Z</time>
</trkpt>
<trkpt lat="52.548980712890625" lon="13.28812313079834">
<ele>68.19999694824219</ele>
<time>2014-02-16T15:27:09Z</time>
</trkpt>
<trkpt lat="52.548973083496094" lon="13.28819751739502">
<ele>67.4000015258789</ele>
<time>2014-02-16T15:27:10Z</time>
</trkpt>
<trkpt lat="52.548980712890625" lon="13.288290023803711">
<ele>67.69999694824219</ele>
<time>2014-02-16T15:27:11Z</time>
</trkpt>
<trkpt lat="52.54896926879883" lon="13.288392066955566">
<ele>67.5999984741211</ele>
<time>2014-02-16T15:27:12Z</time>
</trkpt>
<trkpt lat="52.548973083496094" lon="13.288496971130371">
<ele>67.9000015258789</ele>
<time>2014-02-16T15:27:13Z</time>
</trkpt>
<trkpt lat="52.54896545410156" lon="13.28857707977295">
<ele>67.69999694824219</ele>
<time>2014-02-16T15:27:14Z</time>
</trkpt>
<trkpt lat="52.5489616394043" lon="13.288673400878906">
<ele>67.5999984741211</ele>
<time>2014-02-16T15:27:15Z</time>
</trkpt>
<trkpt lat="52.5489616394043" lon="13.28876781463623">
<ele>68.30000305175781</ele>
<time>2014-02-16T15:27:16Z</time>
</trkpt>
<trkpt lat="52.54896545410156" lon="13.288856506347656">
<ele>68.4000015258789</ele>
<time>2014-02-16T15:27:17Z</time>
</trkpt>
<trkpt lat="52.54895782470703" lon="13.28894329071045">
<ele>68.19999694824219</ele>
<time>2014-02-16T15:27:18Z</time>
</trkpt>
<trkpt lat="52.5489616394043" lon="13.289039611816406">
<ele>68.5999984741211</ele>
<time>2014-02-16T15:27:19Z</time>
</trkpt>
<trkpt lat="52.54896545410156" lon="13.289132118225098">
<ele>68.19999694824219</ele>
<time>2014-02-16T15:27:20Z</time>
</trkpt>
<trkpt lat="52.54896545410156" lon="13.289216995239258">
<ele>68.5999984741211</ele>
<time>2014-02-16T15:27:21Z</time>
</trkpt>
<trkpt lat="52.54896926879883" lon="13.289316177368164">
<ele>68.9000015258789</ele>
<time>2014-02-16T15:27:22Z</time>
</trkpt>
<trkpt lat="52.54896926879883" lon="13.289414405822754">
<ele>69.5999984741211</ele>
<time>2014-02-16T15:27:23Z</time>
</trkpt>
<trkpt lat="52.54896545410156" lon="13.289506912231445">
<ele>68.69999694824219</ele>
<time>2014-02-16T15:27:24Z</time>
</trkpt>
<trkpt lat="52.54897689819336" lon="13.289584159851074">
<ele>68.69999694824219</ele>
<time>2014-02-16T15:27:25Z</time>
</trkpt>
<trkpt lat="52.54896926879883" lon="13.289678573608398">
<ele>68.69999694824219</ele>
<time>2014-02-16T15:27:26Z</time>
</trkpt>
<trkpt lat="52.5489616394043" lon="13.289759635925293">
<ele>68.69999694824219</ele>
<time>2014-02-16T15:27:27Z</time>
</trkpt>
<trkpt lat="52.5489387512207" lon="13.289911270141602">
<ele>66.0999984741211</ele>
<time>2014-02-16T15:27:29Z</time>
</trkpt>
<trkpt lat="52.54893493652344" lon="13.290013313293457">
<ele>65.69999694824219</ele>
<time>2014-02-16T15:27:30Z</time>
</trkpt>
<trkpt lat="52.548927307128906" lon="13.290108680725098">
<ele>65.4000015258789</ele>
<time>2014-02-16T15:27:31Z</time>
</trkpt>
<trkpt lat="52.548927307128906" lon="13.290213584899902">
<ele>65.5999984741211</ele>
<time>2014-02-16T15:27:32Z</time>
</trkpt>
<trkpt lat="52.54893493652344" lon="13.290304183959961">
<ele>65.9000015258789</ele>
<time>2014-02-16T15:27:33Z</time>
</trkpt>
<trkpt lat="52.54893112182617" lon="13.290400505065918">
<ele>65.80000305175781</ele>
<time>2014-02-16T15:27:34Z</time>
</trkpt>
<trkpt lat="52.54893493652344" lon="13.290493965148926">
<ele>65.80000305175781</ele>
<time>2014-02-16T15:27:35Z</time>
</trkpt>
<trkpt lat="52.548946380615234" lon="13.290571212768555">
<ele>66.0</ele>
<time>2014-02-16T15:27:36Z</time>
</trkpt>
<trkpt lat="52.5489387512207" lon="13.29065990447998">
<ele>66.4000015258789</ele>
<time>2014-02-16T15:27:37Z</time>
</trkpt>
<trkpt lat="52.54893493652344" lon="13.290743827819824">
<ele>66.4000015258789</ele>
<time>2014-02-16T15:27:38Z</time>
</trkpt>
<trkpt lat="52.548946380615234" lon="13.2908353805542">
<ele>66.19999694824219</ele>
<time>2014-02-16T15:27:39Z</time>
</trkpt>
<trkpt lat="52.548954010009766" lon="13.290914535522461">
<ele>65.9000015258789</ele>
<time>2014-02-16T15:27:40Z</time>
</trkpt>
<trkpt lat="52.5489501953125" lon="13.29101276397705">
<ele>65.80000305175781</ele>
<time>2014-02-16T15:27:41Z</time>
</trkpt>
<trkpt lat="52.548927307128906" lon="13.291150093078613">
<ele>62.900001525878906</ele>
<time>2014-02-16T15:27:43Z</time>
</trkpt>
<trkpt lat="52.548927307128906" lon="13.291232109069824">
<ele>63.5</ele>
<time>2014-02-16T15:27:44Z</time>
</trkpt>
<trkpt lat="52.54893112182617" lon="13.291329383850098">
<ele>64.0999984741211</ele>
<time>2014-02-16T15:27:45Z</time>
</trkpt>
<trkpt lat="52.54893493652344" lon="13.291424751281738">
<ele>64.4000015258789</ele>
<time>2014-02-16T15:27:46Z</time>
</trkpt>
<trkpt lat="52.54893112182617" lon="13.291593551635742">
<ele>65.0999984741211</ele>
<time>2014-02-16T15:27:48Z</time>
</trkpt>
<trkpt lat="52.548927307128906" lon="13.291670799255371">
<ele>65.30000305175781</ele>
<time>2014-02-16T15:27:49Z</time>
</trkpt>
<trkpt lat="52.54893493652344" lon="13.29176139831543">
<ele>65.19999694824219</ele>
<time>2014-02-16T15:27:50Z</time>
</trkpt>
<trkpt lat="52.54893112182617" lon="13.291902542114258">
<ele>63.20000076293945</ele>
<time>2014-02-16T15:27:52Z</time>
</trkpt>
<trkpt lat="52.54892349243164" lon="13.29198169708252">
<ele>63.5</ele>
<time>2014-02-16T15:27:53Z</time>
</trkpt>
<trkpt lat="52.548912048339844" lon="13.292098045349121">
<ele>63.900001525878906</ele>
<time>2014-02-16T15:27:54Z</time>
</trkpt>
<trkpt lat="52.54889678955078" lon="13.292266845703125">
<ele>63.70000076293945</ele>
<time>2014-02-16T15:27:56Z</time>
</trkpt>
<trkpt lat="52.54890060424805" lon="13.292346954345703">
<ele>64.0</ele>
<time>2014-02-16T15:27:57Z</time>
</trkpt>
<trkpt lat="52.54890441894531" lon="13.292428970336914">
<ele>64.0</ele>
<time>2014-02-16T15:27:58Z</time>
</trkpt>
<trkpt lat="52.54890823364258" lon="13.292590141296387">
<ele>65.19999694824219</ele>
<time>2014-02-16T15:28:00Z</time>
</trkpt>
<trkpt lat="52.548912048339844" lon="13.292680740356445">
<ele>65.5999984741211</ele>
<time>2014-02-16T15:28:01Z</time>
</trkpt>
<trkpt lat="52.54890441894531" lon="13.29275894165039">
<ele>65.9000015258789</ele>
<time>2014-02-16T15:28:02Z</time>
</trkpt>
<trkpt lat="52.54890441894531" lon="13.2928466796875">
<ele>66.4000015258789</ele>
<time>2014-02-16T15:28:03Z</time>
</trkpt>
<trkpt lat="52.54890823364258" lon="13.292987823486328">
<ele>66.4000015258789</ele>
<time>2014-02-16T15:28:05Z</time>
</trkpt>
<trkpt lat="52.54890060424805" lon="13.293062210083008">
<ele>65.9000015258789</ele>
<time>2014-02-16T15:28:06Z</time>
</trkpt>
<trkpt lat="52.54888916015625" lon="13.293137550354004">
<ele>65.80000305175781</ele>
<time>2014-02-16T15:28:07Z</time>
</trkpt>
<trkpt lat="52.54889678955078" lon="13.293288230895996">
<ele>66.5999984741211</ele>
<time>2014-02-16T15:28:09Z</time>
</trkpt>
<trkpt lat="52.54889678955078" lon="13.293364524841309">
<ele>66.80000305175781</ele>
<time>2014-02-16T15:28:10Z</time>
</trkpt>
<trkpt lat="52.54890441894531" lon="13.293451309204102">
<ele>67.19999694824219</ele>
<time>2014-02-16T15:28:11Z</time>
</trkpt>
<trkpt lat="52.54889678955078" lon="13.29360580444336">
<ele>66.0999984741211</ele>
<time>2014-02-16T15:28:13Z</time>
</trkpt>
<trkpt lat="52.548912048339844" lon="13.293755531311035">
<ele>66.9000015258789</ele>
<time>2014-02-16T15:28:15Z</time>
</trkpt>
<trkpt lat="52.54890823364258" lon="13.293891906738281">
<ele>66.5</ele>
<time>2014-02-16T15:28:17Z</time>
</trkpt>
<trkpt lat="52.54890441894531" lon="13.293973922729492">
<ele>66.5</ele>
<time>2014-02-16T15:28:18Z</time>
</trkpt>
<trkpt lat="52.54889678955078" lon="13.294122695922852">
<ele>66.30000305175781</ele>
<time>2014-02-16T15:28:20Z</time>
</trkpt>
<trkpt lat="52.54890823364258" lon="13.294205665588379">
<ele>67.0999984741211</ele>
<time>2014-02-16T15:28:21Z</time>
</trkpt>
<trkpt lat="52.548919677734375" lon="13.294342994689941">
<ele>67.5</ele>
<time>2014-02-16T15:28:23Z</time>
</trkpt>
<trkpt lat="52.54892349243164" lon="13.294441223144531">
<ele>67.5</ele>
<time>2014-02-16T15:28:24Z</time>
</trkpt>
<trkpt lat="52.54892349243164" lon="13.294573783874512">
<ele>68.5</ele>
<time>2014-02-16T15:28:26Z</time>
</trkpt>
<trkpt lat="52.54891586303711" lon="13.294713973999023">
<ele>69.80000305175781</ele>
<time>2014-02-16T15:28:28Z</time>
</trkpt>
<trkpt lat="52.548919677734375" lon="13.29485034942627">
<ele>69.9000015258789</ele>
<time>2014-02-16T15:28:30Z</time>
</trkpt>
<trkpt lat="52.548912048339844" lon="13.294940948486328">
<ele>70.0</ele>
<time>2014-02-16T15:28:31Z</time>
</trkpt>
<trkpt lat="52.548912048339844" lon="13.295022010803223">
<ele>69.80000305175781</ele>
<time>2014-02-16T15:28:32Z</time>
</trkpt>
<trkpt lat="52.548919677734375" lon="13.295173645019531">
<ele>69.80000305175781</ele>
<time>2014-02-16T15:28:34Z</time>
</trkpt>
<trkpt lat="52.548912048339844" lon="13.295317649841309">
<ele>69.0</ele>
<time>2014-02-16T15:28:36Z</time>
</trkpt>
<trkpt lat="52.548912048339844" lon="13.295464515686035">
<ele>69.9000015258789</ele>
<time>2014-02-16T15:28:38Z</time>
</trkpt>
<trkpt lat="52.548912048339844" lon="13.295541763305664">
<ele>70.5999984741211</ele>
<time>2014-02-16T15:28:39Z</time>
</trkpt>
<trkpt lat="52.548927307128906" lon="13.295673370361328">
<ele>70.5999984741211</ele>
<time>2014-02-16T15:28:41Z</time>
</trkpt>
<trkpt lat="52.54893112182617" lon="13.295796394348145">
<ele>70.69999694824219</ele>
<time>2014-02-16T15:28:43Z</time>
</trkpt>
<trkpt lat="52.54894256591797" lon="13.295868873596191">
<ele>70.5999984741211</ele>
<time>2014-02-16T15:28:44Z</time>
</trkpt>
<trkpt lat="52.548946380615234" lon="13.295995712280273">
<ele>69.80000305175781</ele>
<time>2014-02-16T15:28:46Z</time>
</trkpt>
<trkpt lat="52.548946380615234" lon="13.296072959899902">
<ele>69.5999984741211</ele>
<time>2014-02-16T15:28:47Z</time>
</trkpt>
<trkpt lat="52.5489387512207" lon="13.296154975891113">
<ele>69.69999694824219</ele>
<time>2014-02-16T15:28:48Z</time>
</trkpt>
<trkpt lat="52.54891586303711" lon="13.296239852905273">
<ele>69.30000305175781</ele>
<time>2014-02-16T15:28:51Z</time>
</trkpt>
<trkpt lat="52.548954010009766" lon="13.296545028686523">
<ele>65.9000015258789</ele>
<time>2014-02-16T15:29:11Z</time>
</trkpt>
<trkpt lat="52.54894256591797" lon="13.2967529296875">
<ele>67.30000305175781</ele>
<time>2014-02-16T15:29:14Z</time>
</trkpt>
<trkpt lat="52.54894256591797" lon="13.296892166137695">
<ele>66.0</ele>
<time>2014-02-16T15:29:16Z</time>
</trkpt>
<trkpt lat="52.54893493652344" lon="13.297039031982422">
<ele>66.9000015258789</ele>
<time>2014-02-16T15:29:16Z</time>
</trkpt>
<trkpt lat="52.54891586303711" lon="13.297243118286133">
<ele>68.5999984741211</ele>
<time>2014-02-16T15:29:20Z</time>
</trkpt>
<trkpt lat="52.54890060424805" lon="13.297378540039062">
<ele>69.0999984741211</ele>
<time>2014-02-16T15:29:22Z</time>
</trkpt>
<trkpt lat="52.548892974853516" lon="13.297517776489258">
<ele>69.0999984741211</ele>
<time>2014-02-16T15:29:28Z</time>
</trkpt>
<trkpt lat="52.54890060424805" lon="13.297953605651855">
<ele>67.5</ele>
<time>2014-02-16T15:29:31Z</time>
</trkpt>
<trkpt lat="52.54890823364258" lon="13.298144340515137">
<ele>65.5999984741211</ele>
<time>2014-02-16T15:29:31Z</time>
</trkpt>
<trkpt lat="52.54890060424805" lon="13.298237800598145">
<ele>65.9000015258789</ele>
<time>2014-02-16T15:29:32Z</time>
</trkpt>
<trkpt lat="52.54890060424805" lon="13.298323631286621">
<ele>66.0</ele>
<time>2014-02-16T15:29:34Z</time>
</trkpt>
<trkpt lat="52.548892974853516" lon="13.298420906066895">
<ele>66.9000015258789</ele>
<time>2014-02-16T15:29:34Z</time>
</trkpt>
<trkpt lat="52.54887771606445" lon="13.298532485961914">
<ele>66.5999984741211</ele>
<time>2014-02-16T15:29:36Z</time>
</trkpt>
<trkpt lat="52.54887008666992" lon="13.298614501953125">
<ele>67.80000305175781</ele>
<time>2014-02-16T15:29:37Z</time>
</trkpt>
<trkpt lat="52.54887008666992" lon="13.298707008361816">
<ele>67.80000305175781</ele>
<time>2014-02-16T15:29:37Z</time>
</trkpt>
<trkpt lat="52.548866271972656" lon="13.29879379272461">
<ele>67.80000305175781</ele>
<time>2014-02-16T15:29:39Z</time>
</trkpt>
<trkpt lat="52.54886245727539" lon="13.298879623413086">
<ele>68.19999694824219</ele>
<time>2014-02-16T15:29:39Z</time>
</trkpt>
<trkpt lat="52.548866271972656" lon="13.298969268798828">
<ele>67.9000015258789</ele>
<time>2014-02-16T15:29:41Z</time>
</trkpt>
<trkpt lat="52.54886245727539" lon="13.299047470092773">
<ele>67.5999984741211</ele>
<time>2014-02-16T15:29:41Z</time>
</trkpt>
<trkpt lat="52.548866271972656" lon="13.299124717712402">
<ele>67.19999694824219</ele>
<time>2014-02-16T15:29:42Z</time>
</trkpt>
<trkpt lat="52.548866271972656" lon="13.299220085144043">
<ele>67.19999694824219</ele>
<time>2014-02-16T15:29:44Z</time>
</trkpt>
<trkpt lat="52.548866271972656" lon="13.299299240112305">
<ele>66.80000305175781</ele>
<time>2014-02-16T15:29:44Z</time>
</trkpt>
<trkpt lat="52.548866271972656" lon="13.299382209777832">
<ele>67.30000305175781</ele>
<time>2014-02-16T15:29:46Z</time>
</trkpt>
<trkpt lat="52.54886245727539" lon="13.299455642700195">
<ele>67.0999984741211</ele>
<time>2014-02-16T15:29:46Z</time>
</trkpt>
<trkpt lat="52.54885482788086" lon="13.299539566040039">
<ele>67.30000305175781</ele>
<time>2014-02-16T15:29:48Z</time>
</trkpt>
<trkpt lat="52.548858642578125" lon="13.2996244430542">
<ele>67.69999694824219</ele>
<time>2014-02-16T15:29:48Z</time>
</trkpt>
<trkpt lat="52.548858642578125" lon="13.299707412719727">
<ele>68.0999984741211</ele>
<time>2014-02-16T15:29:49Z</time>
</trkpt>
<trkpt lat="52.548858642578125" lon="13.299784660339355">
<ele>68.9000015258789</ele>
<time>2014-02-16T15:29:51Z</time>
</trkpt>
<trkpt lat="52.54885482788086" lon="13.299922943115234">
<ele>69.30000305175781</ele>
<time>2014-02-16T15:29:53Z</time>
</trkpt>
<trkpt lat="52.54883575439453" lon="13.300060272216797">
<ele>69.69999694824219</ele>
<time>2014-02-16T15:29:54Z</time>
</trkpt>
<trkpt lat="52.548828125" lon="13.300193786621094">
<ele>70.19999694824219</ele>
<time>2014-02-16T15:29:56Z</time>
</trkpt>
<trkpt lat="52.548824310302734" lon="13.300345420837402">
<ele>69.4000015258789</ele>
<time>2014-02-16T15:29:58Z</time>
</trkpt>
<trkpt lat="52.54880905151367" lon="13.300424575805664">
<ele>69.9000015258789</ele>
<time>2014-02-16T15:30:00Z</time>
</trkpt>
<trkpt lat="52.548797607421875" lon="13.30050277709961">
<ele>69.5999984741211</ele>
<time>2014-02-16T15:30:00Z</time>
</trkpt>
<trkpt lat="52.54878616333008" lon="13.300577163696289">
<ele>69.5</ele>
<time>2014-02-16T15:30:01Z</time>
</trkpt>
<trkpt lat="52.54876708984375" lon="13.300679206848145">
<ele>69.0999984741211</ele>
<time>2014-02-16T15:30:02Z</time>
</trkpt>
<trkpt lat="52.54875183105469" lon="13.300775527954102">
<ele>69.0</ele>
<time>2014-02-16T15:30:03Z</time>
</trkpt>
<trkpt lat="52.54874038696289" lon="13.300871849060059">
<ele>68.9000015258789</ele>
<time>2014-02-16T15:30:04Z</time>
</trkpt>
<trkpt lat="52.54873275756836" lon="13.300989151000977">
<ele>69.19999694824219</ele>
<time>2014-02-16T15:30:05Z</time>
</trkpt>
<trkpt lat="52.548728942871094" lon="13.301082611083984">
<ele>69.4000015258789</ele>
<time>2014-02-16T15:30:06Z</time>
</trkpt>
<trkpt lat="52.548736572265625" lon="13.301196098327637">
<ele>69.69999694824219</ele>
<time>2014-02-16T15:30:07Z</time>
</trkpt>
<trkpt lat="52.54873275756836" lon="13.301301002502441">
<ele>69.69999694824219</ele>
<time>2014-02-16T15:30:08Z</time>
</trkpt>
<trkpt lat="52.548728942871094" lon="13.301389694213867">
<ele>69.30000305175781</ele>
<time>2014-02-16T15:30:09Z</time>
</trkpt>
<trkpt lat="52.54872512817383" lon="13.301491737365723">
<ele>68.9000015258789</ele>
<time>2014-02-16T15:30:10Z</time>
</trkpt>
<trkpt lat="52.54876708984375" lon="13.301613807678223">
<ele>69.80000305175781</ele>
<time>2014-02-16T15:30:12Z</time>
</trkpt>
<trkpt lat="52.54878616333008" lon="13.301694869995117">
<ele>69.0</ele>
<time>2014-02-16T15:30:13Z</time>
</trkpt>
<trkpt lat="52.548797607421875" lon="13.301780700683594">
<ele>69.19999694824219</ele>
<time>2014-02-16T15:30:14Z</time>
</trkpt>
<trkpt lat="52.548805236816406" lon="13.30185317993164">
<ele>69.5999984741211</ele>
<time>2014-02-16T15:30:15Z</time>
</trkpt>
<trkpt lat="52.54880905151367" lon="13.301981925964355">
<ele>69.9000015258789</ele>
<time>2014-02-16T15:30:17Z</time>
</trkpt>
<trkpt lat="52.548805236816406" lon="13.302128791809082">
<ele>69.5999984741211</ele>
<time>2014-02-16T15:30:19Z</time>
</trkpt>
<trkpt lat="52.548797607421875" lon="13.302210807800293">
<ele>69.19999694824219</ele>
<time>2014-02-16T15:30:20Z</time>
</trkpt>
<trkpt lat="52.54879379272461" lon="13.302286148071289">
<ele>69.5999984741211</ele>
<time>2014-02-16T15:30:21Z</time>
</trkpt>
<trkpt lat="52.548789978027344" lon="13.302437782287598">
<ele>69.30000305175781</ele>
<time>2014-02-16T15:30:23Z</time>
</trkpt>
<trkpt lat="52.548789978027344" lon="13.302522659301758">
<ele>69.5999984741211</ele>
<time>2014-02-16T15:30:24Z</time>
</trkpt>
<trkpt lat="52.54878616333008" lon="13.302620887756348">
<ele>69.4000015258789</ele>
<time>2014-02-16T15:30:25Z</time>
</trkpt>
<trkpt lat="52.54878616333008" lon="13.302695274353027">
<ele>69.19999694824219</ele>
<time>2014-02-16T15:30:26Z</time>
</trkpt>
<trkpt lat="52.54878234863281" lon="13.30276870727539">
<ele>69.0</ele>
<time>2014-02-16T15:30:27Z</time>
</trkpt>
<trkpt lat="52.54877853393555" lon="13.30284309387207">
<ele>69.0</ele>
<time>2014-02-16T15:30:28Z</time>
</trkpt>
<trkpt lat="52.548763275146484" lon="13.302978515625">
<ele>69.69999694824219</ele>
<time>2014-02-16T15:30:30Z</time>
</trkpt>
<trkpt lat="52.54875946044922" lon="13.303053855895996">
<ele>70.0999984741211</ele>
<time>2014-02-16T15:30:31Z</time>
</trkpt>
<trkpt lat="52.54875183105469" lon="13.303132057189941">
<ele>69.9000015258789</ele>
<time>2014-02-16T15:30:32Z</time>
</trkpt>
<trkpt lat="52.54875183105469" lon="13.30322265625">
<ele>71.19999694824219</ele>
<time>2014-02-16T15:30:33Z</time>
</trkpt>
<trkpt lat="52.54874801635742" lon="13.303319931030273">
<ele>71.80000305175781</ele>
<time>2014-02-16T15:30:34Z</time>
</trkpt>
<trkpt lat="52.54875183105469" lon="13.303479194641113">
<ele>71.9000015258789</ele>
<time>2014-02-16T15:30:36Z</time>
</trkpt>
<trkpt lat="52.54875564575195" lon="13.30356216430664">
<ele>71.19999694824219</ele>
<time>2014-02-16T15:30:37Z</time>
</trkpt>
<trkpt lat="52.54875183105469" lon="13.303638458251953">
<ele>71.0</ele>
<time>2014-02-16T15:30:38Z</time>
</trkpt>
<trkpt lat="52.548736572265625" lon="13.303762435913086">
<ele>70.5</ele>
<time>2014-02-16T15:30:41Z</time>
</trkpt>
<trkpt lat="52.548736572265625" lon="13.303848266601562">
<ele>70.9000015258789</ele>
<time>2014-02-16T15:30:44Z</time>
</trkpt>
<trkpt lat="52.548728942871094" lon="13.303991317749023">
<ele>70.9000015258789</ele>
<time>2014-02-16T15:30:45Z</time>
</trkpt>
<trkpt lat="52.548770904541016" lon="13.304108619689941">
<ele>66.0</ele>
<time>2014-02-16T15:30:47Z</time>
</trkpt>
<trkpt lat="52.54879379272461" lon="13.304221153259277">
<ele>63.79999923706055</ele>
<time>2014-02-16T15:30:49Z</time>
</trkpt>
<trkpt lat="52.54878234863281" lon="13.304313659667969">
<ele>63.79999923706055</ele>
<time>2014-02-16T15:30:50Z</time>
</trkpt>
<trkpt lat="52.548789978027344" lon="13.304481506347656">
<ele>62.599998474121094</ele>
<time>2014-02-16T15:30:52Z</time>
</trkpt>
<trkpt lat="52.548770904541016" lon="13.304591178894043">
<ele>64.5</ele>
<time>2014-02-16T15:30:53Z</time>
</trkpt>
<trkpt lat="52.548763275146484" lon="13.30467414855957">
<ele>65.0999984741211</ele>
<time>2014-02-16T15:30:54Z</time>
</trkpt>
<trkpt lat="52.54875564575195" lon="13.304750442504883">
<ele>65.0999984741211</ele>
<time>2014-02-16T15:30:55Z</time>
</trkpt>
<trkpt lat="52.54875564575195" lon="13.304849624633789">
<ele>66.19999694824219</ele>
<time>2014-02-16T15:30:56Z</time>
</trkpt>
<trkpt lat="52.54874801635742" lon="13.304952621459961">
<ele>66.69999694824219</ele>
<time>2014-02-16T15:30:57Z</time>
</trkpt>
<trkpt lat="52.54874038696289" lon="13.305026054382324">
<ele>66.9000015258789</ele>
<time>2014-02-16T15:30:58Z</time>
</trkpt>
<trkpt lat="52.54874038696289" lon="13.305171966552734">
<ele>67.69999694824219</ele>
<time>2014-02-16T15:31:00Z</time>
</trkpt>
<trkpt lat="52.548728942871094" lon="13.305253028869629">
<ele>68.30000305175781</ele>
<time>2014-02-16T15:31:01Z</time>
</trkpt>
<trkpt lat="52.54872512817383" lon="13.305405616760254">
<ele>68.19999694824219</ele>
<time>2014-02-16T15:31:03Z</time>
</trkpt>
<trkpt lat="52.54872131347656" lon="13.305554389953613">
<ele>68.80000305175781</ele>
<time>2014-02-16T15:31:05Z</time>
</trkpt>
<trkpt lat="52.5487174987793" lon="13.305706024169922">
<ele>69.0999984741211</ele>
<time>2014-02-16T15:31:07Z</time>
</trkpt>
<trkpt lat="52.5487174987793" lon="13.30578899383545">
<ele>69.0999984741211</ele>
<time>2014-02-16T15:31:08Z</time>
</trkpt>
<trkpt lat="52.548709869384766" lon="13.30593204498291">
<ele>68.80000305175781</ele>
<time>2014-02-16T15:31:10Z</time>
</trkpt>
<trkpt lat="52.54869842529297" lon="13.306008338928223">
<ele>69.0</ele>
<time>2014-02-16T15:31:11Z</time>
</trkpt>
<trkpt lat="52.548702239990234" lon="13.306082725524902">
<ele>68.9000015258789</ele>
<time>2014-02-16T15:31:12Z</time>
</trkpt>
<trkpt lat="52.54868698120117" lon="13.306234359741211">
<ele>68.5999984741211</ele>
<time>2014-02-16T15:31:14Z</time>
</trkpt>
<trkpt lat="52.548675537109375" lon="13.306327819824219">
<ele>68.69999694824219</ele>
<time>2014-02-16T15:31:15Z</time>
</trkpt>
<trkpt lat="52.54867172241211" lon="13.306472778320312">
<ele>68.9000015258789</ele>
<time>2014-02-16T15:31:17Z</time>
</trkpt>
<trkpt lat="52.54867172241211" lon="13.306625366210938">
<ele>68.5999984741211</ele>
<time>2014-02-16T15:31:19Z</time>
</trkpt>
<trkpt lat="52.54866027832031" lon="13.306768417358398">
<ele>68.4000015258789</ele>
<time>2014-02-16T15:31:21Z</time>
</trkpt>
<trkpt lat="52.54865264892578" lon="13.306852340698242">
<ele>67.69999694824219</ele>
<time>2014-02-16T15:31:22Z</time>
</trkpt>
<trkpt lat="52.54865264892578" lon="13.30693244934082">
<ele>67.80000305175781</ele>
<time>2014-02-16T15:31:23Z</time>
</trkpt>
<trkpt lat="52.54866027832031" lon="13.307023048400879">
<ele>68.30000305175781</ele>
<time>2014-02-16T15:31:24Z</time>
</trkpt>
<trkpt lat="52.54866027832031" lon="13.307107925415039">
<ele>68.5</ele>
<time>2014-02-16T15:31:25Z</time>
</trkpt>
<trkpt lat="52.54865646362305" lon="13.307193756103516">
<ele>68.80000305175781</ele>
<time>2014-02-16T15:31:26Z</time>
</trkpt>
<trkpt lat="52.54865646362305" lon="13.307293891906738">
<ele>69.0</ele>
<time>2014-02-16T15:31:27Z</time>
</trkpt>
<trkpt lat="52.54864501953125" lon="13.307373046875">
<ele>68.5999984741211</ele>
<time>2014-02-16T15:31:28Z</time>
</trkpt>
<trkpt lat="52.54863739013672" lon="13.307473182678223">
<ele>69.80000305175781</ele>
<time>2014-02-16T15:31:29Z</time>
</trkpt>
<trkpt lat="52.54862594604492" lon="13.3075590133667">
<ele>70.30000305175781</ele>
<time>2014-02-16T15:31:30Z</time>
</trkpt>
<trkpt lat="52.548622131347656" lon="13.30764389038086">
<ele>70.4000015258789</ele>
<time>2014-02-16T15:31:31Z</time>
</trkpt>
<trkpt lat="52.54861068725586" lon="13.3077974319458">
<ele>70.5999984741211</ele>
<time>2014-02-16T15:31:33Z</time>
</trkpt>
<trkpt lat="52.54860305786133" lon="13.307888984680176">
<ele>70.5</ele>
<time>2014-02-16T15:31:34Z</time>
</trkpt>
<trkpt lat="52.54860305786133" lon="13.307978630065918">
<ele>70.19999694824219</ele>
<time>2014-02-16T15:31:35Z</time>
</trkpt>
<trkpt lat="52.54860305786133" lon="13.308070182800293">
<ele>69.80000305175781</ele>
<time>2014-02-16T15:31:36Z</time>
</trkpt>
<trkpt lat="52.54859161376953" lon="13.308161735534668">
<ele>69.69999694824219</ele>
<time>2014-02-16T15:31:37Z</time>
</trkpt>
<trkpt lat="52.54859161376953" lon="13.308236122131348">
<ele>69.5</ele>
<time>2014-02-16T15:31:38Z</time>
</trkpt>
<trkpt lat="52.548583984375" lon="13.308319091796875">
<ele>71.0</ele>
<time>2014-02-16T15:31:39Z</time>
</trkpt>
<trkpt lat="52.548583984375" lon="13.308405876159668">
<ele>71.30000305175781</ele>
<time>2014-02-16T15:31:40Z</time>
</trkpt>
<trkpt lat="52.548583984375" lon="13.308540344238281">
<ele>72.0999984741211</ele>
<time>2014-02-16T15:31:42Z</time>
</trkpt>
<trkpt lat="52.548580169677734" lon="13.30862045288086">
<ele>71.69999694824219</ele>
<time>2014-02-16T15:31:43Z</time>
</trkpt>
<trkpt lat="52.548580169677734" lon="13.308708190917969">
<ele>71.0999984741211</ele>
<time>2014-02-16T15:31:44Z</time>
</trkpt>
<trkpt lat="52.548580169677734" lon="13.30878734588623">
<ele>70.9000015258789</ele>
<time>2014-02-16T15:31:45Z</time>
</trkpt>
<trkpt lat="52.548583984375" lon="13.308863639831543">
<ele>70.5</ele>
<time>2014-02-16T15:31:46Z</time>
</trkpt>
<trkpt lat="52.548583984375" lon="13.3090181350708">
<ele>70.4000015258789</ele>
<time>2014-02-16T15:31:48Z</time>
</trkpt>
<trkpt lat="52.5485725402832" lon="13.30918025970459">
<ele>70.5999984741211</ele>
<time>2014-02-16T15:31:50Z</time>
</trkpt>
<trkpt lat="52.5485725402832" lon="13.309261322021484">
<ele>70.80000305175781</ele>
<time>2014-02-16T15:31:51Z</time>
</trkpt>
<trkpt lat="52.54856872558594" lon="13.30941104888916">
<ele>70.4000015258789</ele>
<time>2014-02-16T15:31:53Z</time>
</trkpt>
<trkpt lat="52.5485725402832" lon="13.309487342834473">
<ele>70.0999984741211</ele>
<time>2014-02-16T15:31:54Z</time>
</trkpt>
<trkpt lat="52.54857635498047" lon="13.309632301330566">
<ele>70.30000305175781</ele>
<time>2014-02-16T15:31:56Z</time>
</trkpt>
<trkpt lat="52.54857635498047" lon="13.309708595275879">
<ele>70.4000015258789</ele>
<time>2014-02-16T15:31:57Z</time>
</trkpt>
<trkpt lat="52.54856872558594" lon="13.30979061126709">
<ele>70.5</ele>
<time>2014-02-16T15:31:58Z</time>
</trkpt>
<trkpt lat="52.54856872558594" lon="13.309868812561035">
<ele>70.5</ele>
<time>2014-02-16T15:31:59Z</time>
</trkpt>
<trkpt lat="52.548580169677734" lon="13.310001373291016">
<ele>71.4000015258789</ele>
<time>2014-02-16T15:32:01Z</time>
</trkpt>
<trkpt lat="52.548606872558594" lon="13.310096740722656">
<ele>71.0999984741211</ele>
<time>2014-02-16T15:32:03Z</time>
</trkpt>
<trkpt lat="52.54862594604492" lon="13.31018352508545">
<ele>71.69999694824219</ele>
<time>2014-02-16T15:32:05Z</time>
</trkpt>
<trkpt lat="52.54863357543945" lon="13.31026840209961">
<ele>71.5999984741211</ele>
<time>2014-02-16T15:32:07Z</time>
</trkpt>
<trkpt lat="52.548648834228516" lon="13.31033992767334">
<ele>72.0</ele>
<time>2014-02-16T15:32:09Z</time>
</trkpt>
<trkpt lat="52.548675537109375" lon="13.310433387756348">
<ele>71.9000015258789</ele>
<time>2014-02-16T15:32:11Z</time>
</trkpt>
<trkpt lat="52.54872131347656" lon="13.310511589050293">
<ele>71.9000015258789</ele>
<time>2014-02-16T15:32:13Z</time>
</trkpt>
<trkpt lat="52.54872512817383" lon="13.310595512390137">
<ele>71.5999984741211</ele>
<time>2014-02-16T15:32:14Z</time>
</trkpt>
<trkpt lat="52.548744201660156" lon="13.310664176940918">
<ele>71.5999984741211</ele>
<time>2014-02-16T15:32:15Z</time>
</trkpt>
<trkpt lat="52.548736572265625" lon="13.31080150604248">
<ele>70.5</ele>
<time>2014-02-16T15:32:17Z</time>
</trkpt>
<trkpt lat="52.548728942871094" lon="13.31095027923584">
<ele>69.69999694824219</ele>
<time>2014-02-16T15:32:19Z</time>
</trkpt>
<trkpt lat="52.54873275756836" lon="13.311027526855469">
<ele>69.4000015258789</ele>
<time>2014-02-16T15:32:20Z</time>
</trkpt>
<trkpt lat="52.54873275756836" lon="13.311180114746094">
<ele>69.5</ele>
<time>2014-02-16T15:32:22Z</time>
</trkpt>
<trkpt lat="52.54873275756836" lon="13.311260223388672">
<ele>69.80000305175781</ele>
<time>2014-02-16T15:32:23Z</time>
</trkpt>
<trkpt lat="52.548728942871094" lon="13.311339378356934">
<ele>69.9000015258789</ele>
<time>2014-02-16T15:32:24Z</time>
</trkpt>
<trkpt lat="52.54872512817383" lon="13.311417579650879">
<ele>70.0999984741211</ele>
<time>2014-02-16T15:32:25Z</time>
</trkpt>
<trkpt lat="52.548728942871094" lon="13.311494827270508">
<ele>70.0</ele>
<time>2014-02-16T15:32:26Z</time>
</trkpt>
<trkpt lat="52.54872512817383" lon="13.31157112121582">
<ele>69.69999694824219</ele>
<time>2014-02-16T15:32:27Z</time>
</trkpt>
<trkpt lat="52.548728942871094" lon="13.311655044555664">
<ele>69.69999694824219</ele>
<time>2014-02-16T15:32:28Z</time>
</trkpt>
<trkpt lat="52.54873275756836" lon="13.311729431152344">
<ele>69.0</ele>
<time>2014-02-16T15:32:29Z</time>
</trkpt>
<trkpt lat="52.54875564575195" lon="13.311797142028809">
<ele>69.19999694824219</ele>
<time>2014-02-16T15:32:30Z</time>
</trkpt>
<trkpt lat="52.548770904541016" lon="13.311871528625488">
<ele>69.0999984741211</ele>
<time>2014-02-16T15:32:31Z</time>
</trkpt>
<trkpt lat="52.54879379272461" lon="13.3119478225708">
<ele>69.19999694824219</ele>
<time>2014-02-16T15:32:32Z</time>
</trkpt>
<trkpt lat="52.548866271972656" lon="13.31201171875">
<ele>68.4000015258789</ele>
<time>2014-02-16T15:32:34Z</time>
</trkpt>
<trkpt lat="52.548912048339844" lon="13.312030792236328">
<ele>68.9000015258789</ele>
<time>2014-02-16T15:32:35Z</time>
</trkpt>
<trkpt lat="52.54899597167969" lon="13.312074661254883">
<ele>68.9000015258789</ele>
<time>2014-02-16T15:32:37Z</time>
</trkpt>
<trkpt lat="52.5490837097168" lon="13.312102317810059">
<ele>68.9000015258789</ele>
<time>2014-02-16T15:32:39Z</time>
</trkpt>
<trkpt lat="52.54916763305664" lon="13.312132835388184">
<ele>69.0</ele>
<time>2014-02-16T15:32:41Z</time>
</trkpt>
<trkpt lat="52.54925537109375" lon="13.312156677246094">
<ele>69.30000305175781</ele>
<time>2014-02-16T15:32:44Z</time>
</trkpt>
<trkpt lat="52.54933166503906" lon="13.312207221984863">
<ele>68.80000305175781</ele>
<time>2014-02-16T15:32:45Z</time>
</trkpt>
<trkpt lat="52.549400329589844" lon="13.312288284301758">
<ele>69.0</ele>
<time>2014-02-16T15:32:47Z</time>
</trkpt>
<trkpt lat="52.5494499206543" lon="13.312317848205566">
<ele>69.69999694824219</ele>
<time>2014-02-16T15:32:48Z</time>
</trkpt>
<trkpt lat="52.54949951171875" lon="13.312339782714844">
<ele>70.30000305175781</ele>
<time>2014-02-16T15:32:49Z</time>
</trkpt>
<trkpt lat="52.5495491027832" lon="13.31235408782959">
<ele>70.69999694824219</ele>
<time>2014-02-16T15:32:50Z</time>
</trkpt>
<trkpt lat="52.54959487915039" lon="13.312366485595703">
<ele>71.0</ele>
<time>2014-02-16T15:32:51Z</time>
</trkpt>
<trkpt lat="52.54964065551758" lon="13.312376976013184">
<ele>71.0999984741211</ele>
<time>2014-02-16T15:32:52Z</time>
</trkpt>
<trkpt lat="52.54972839355469" lon="13.312389373779297">
<ele>71.19999694824219</ele>
<time>2014-02-16T15:32:54Z</time>
</trkpt>
<trkpt lat="52.549774169921875" lon="13.312394142150879">
<ele>71.4000015258789</ele>
<time>2014-02-16T15:32:55Z</time>
</trkpt>
<trkpt lat="52.54986572265625" lon="13.312406539916992">
<ele>71.80000305175781</ele>
<time>2014-02-16T15:32:57Z</time>
</trkpt>
<trkpt lat="52.549957275390625" lon="13.312408447265625">
<ele>71.0999984741211</ele>
<time>2014-02-16T15:32:59Z</time>
</trkpt>
<trkpt lat="52.55000305175781" lon="13.312410354614258">
<ele>71.4000015258789</ele>
<time>2014-02-16T15:33:00Z</time>
</trkpt>
<trkpt lat="52.550052642822266" lon="13.312411308288574">
<ele>71.5</ele>
<time>2014-02-16T15:33:01Z</time>
</trkpt>
<trkpt lat="52.55010223388672" lon="13.312417984008789">
<ele>71.4000015258789</ele>
<time>2014-02-16T15:33:02Z</time>
</trkpt>
<trkpt lat="52.550148010253906" lon="13.312420845031738">
<ele>71.0999984741211</ele>
<time>2014-02-16T15:33:03Z</time>
</trkpt>
<trkpt lat="52.550201416015625" lon="13.312420845031738">
<ele>71.19999694824219</ele>
<time>2014-02-16T15:33:04Z</time>
</trkpt>
<trkpt lat="52.55024719238281" lon="13.312424659729004">
<ele>71.30000305175781</ele>
<time>2014-02-16T15:33:05Z</time>
</trkpt>
<trkpt lat="52.55029296875" lon="13.312429428100586">
<ele>71.0999984741211</ele>
<time>2014-02-16T15:33:06Z</time>
</trkpt>
<trkpt lat="52.55034255981445" lon="13.312424659729004">
<ele>71.5999984741211</ele>
<time>2014-02-16T15:33:07Z</time>
</trkpt>
<trkpt lat="52.550418853759766" lon="13.312482833862305">
<ele>71.69999694824219</ele>
<time>2014-02-16T15:33:09Z</time>
</trkpt>
<trkpt lat="52.55046463012695" lon="13.312568664550781">
<ele>71.69999694824219</ele>
<time>2014-02-16T15:33:11Z</time>
</trkpt>
<trkpt lat="52.550506591796875" lon="13.312657356262207">
<ele>71.80000305175781</ele>
<time>2014-02-16T15:33:13Z</time>
</trkpt>
<trkpt lat="52.55056381225586" lon="13.312751770019531">
<ele>71.0999984741211</ele>
<time>2014-02-16T15:33:15Z</time>
</trkpt>
<trkpt lat="52.55063247680664" lon="13.312808990478516">
<ele>70.80000305175781</ele>
<time>2014-02-16T15:33:17Z</time>
</trkpt>
<trkpt lat="52.550689697265625" lon="13.312854766845703">
<ele>70.30000305175781</ele>
<time>2014-02-16T15:33:19Z</time>
</trkpt>
<trkpt lat="52.55072784423828" lon="13.312957763671875">
<ele>70.4000015258789</ele>
<time>2014-02-16T15:33:21Z</time>
</trkpt>
<trkpt lat="52.55076599121094" lon="13.3130521774292">
<ele>69.4000015258789</ele>
<time>2014-02-16T15:33:23Z</time>
</trkpt>
<trkpt lat="52.55079650878906" lon="13.313167572021484">
<ele>68.30000305175781</ele>
<time>2014-02-16T15:33:25Z</time>
</trkpt>
<trkpt lat="52.55077362060547" lon="13.313277244567871">
<ele>66.4000015258789</ele>
<time>2014-02-16T15:33:27Z</time>
</trkpt>
<trkpt lat="52.55075454711914" lon="13.313375473022461">
<ele>67.30000305175781</ele>
<time>2014-02-16T15:33:29Z</time>
</trkpt>
<trkpt lat="52.55072021484375" lon="13.313478469848633">
<ele>67.69999694824219</ele>
<time>2014-02-16T15:33:31Z</time>
</trkpt>
<trkpt lat="52.550689697265625" lon="13.313594818115234">
<ele>68.19999694824219</ele>
<time>2014-02-16T15:33:33Z</time>
</trkpt>
<trkpt lat="52.55067443847656" lon="13.313716888427734">
<ele>69.9000015258789</ele>
<time>2014-02-16T15:33:35Z</time>
</trkpt>
<trkpt lat="52.550655364990234" lon="13.313796043395996">
<ele>69.9000015258789</ele>
<time>2014-02-16T15:33:36Z</time>
</trkpt>
<trkpt lat="52.550628662109375" lon="13.313921928405762">
<ele>70.5</ele>
<time>2014-02-16T15:33:38Z</time>
</trkpt>
<trkpt lat="52.55061340332031" lon="13.314055442810059">
<ele>71.0</ele>
<time>2014-02-16T15:33:40Z</time>
</trkpt>
<trkpt lat="52.550594329833984" lon="13.314180374145508">
<ele>71.5</ele>
<time>2014-02-16T15:33:42Z</time>
</trkpt>
<trkpt lat="52.550575256347656" lon="13.314311027526855">
<ele>71.0</ele>
<time>2014-02-16T15:33:44Z</time>
</trkpt>
<trkpt lat="52.55055236816406" lon="13.314398765563965">
<ele>71.5999984741211</ele>
<time>2014-02-16T15:33:45Z</time>
</trkpt>
<trkpt lat="52.55051803588867" lon="13.314508438110352">
<ele>72.0999984741211</ele>
<time>2014-02-16T15:33:47Z</time>
</trkpt>
<trkpt lat="52.550514221191406" lon="13.314606666564941">
<ele>72.69999694824219</ele>
<time>2014-02-16T15:33:49Z</time>
</trkpt>
<trkpt lat="52.55050277709961" lon="13.314678192138672">
<ele>74.0999984741211</ele>
<time>2014-02-16T15:33:50Z</time>
</trkpt>
<trkpt lat="52.550472259521484" lon="13.314815521240234">
<ele>74.69999694824219</ele>
<time>2014-02-16T15:33:52Z</time>
</trkpt>
<trkpt lat="52.550445556640625" lon="13.314949035644531">
<ele>73.9000015258789</ele>
<time>2014-02-16T15:33:54Z</time>
</trkpt>
<trkpt lat="52.550418853759766" lon="13.315072059631348">
<ele>73.80000305175781</ele>
<time>2014-02-16T15:33:56Z</time>
</trkpt>
<trkpt lat="52.55039978027344" lon="13.315147399902344">
<ele>72.9000015258789</ele>
<time>2014-02-16T15:33:57Z</time>
</trkpt>
<trkpt lat="52.55036926269531" lon="13.315279006958008">
<ele>72.0999984741211</ele>
<time>2014-02-16T15:33:59Z</time>
</trkpt>
<trkpt lat="52.55035400390625" lon="13.31539249420166">
<ele>71.30000305175781</ele>
<time>2014-02-16T15:34:01Z</time>
</trkpt>
<trkpt lat="52.55031967163086" lon="13.315537452697754">
<ele>70.69999694824219</ele>
<time>2014-02-16T15:34:03Z</time>
</trkpt>
<trkpt lat="52.55029296875" lon="13.3156099319458">
<ele>70.30000305175781</ele>
<time>2014-02-16T15:34:04Z</time>
</trkpt>
<trkpt lat="52.55027389526367" lon="13.315689086914062">
<ele>70.19999694824219</ele>
<time>2014-02-16T15:34:05Z</time>
</trkpt>
<trkpt lat="52.550262451171875" lon="13.315767288208008">
<ele>70.9000015258789</ele>
<time>2014-02-16T15:34:06Z</time>
</trkpt>
<trkpt lat="52.55023956298828" lon="13.315848350524902">
<ele>70.30000305175781</ele>
<time>2014-02-16T15:34:07Z</time>
</trkpt>
<trkpt lat="52.55021286010742" lon="13.315987586975098">
<ele>69.4000015258789</ele>
<time>2014-02-16T15:34:09Z</time>
</trkpt>
<trkpt lat="52.55018997192383" lon="13.31611156463623">
<ele>69.0999984741211</ele>
<time>2014-02-16T15:34:11Z</time>
</trkpt>
<trkpt lat="52.55015563964844" lon="13.316238403320312">
<ele>69.5</ele>
<time>2014-02-16T15:34:13Z</time>
</trkpt>
<trkpt lat="52.55012893676758" lon="13.316322326660156">
<ele>69.69999694824219</ele>
<time>2014-02-16T15:34:14Z</time>
</trkpt>
<trkpt lat="52.55012512207031" lon="13.316439628601074">
<ele>70.80000305175781</ele>
<time>2014-02-16T15:34:16Z</time>
</trkpt>
<trkpt lat="52.55011749267578" lon="13.316524505615234">
<ele>70.5999984741211</ele>
<time>2014-02-16T15:34:18Z</time>
</trkpt>
<trkpt lat="52.550071716308594" lon="13.316641807556152">
<ele>70.69999694824219</ele>
<time>2014-02-16T15:34:20Z</time>
</trkpt>
<trkpt lat="52.55004119873047" lon="13.316749572753906">
<ele>72.9000015258789</ele>
<time>2014-02-16T15:34:22Z</time>
</trkpt>
<trkpt lat="52.55000305175781" lon="13.316804885864258">
<ele>73.5</ele>
<time>2014-02-16T15:34:24Z</time>
</trkpt>
<trkpt lat="52.54993438720703" lon="13.316824913024902">
<ele>72.80000305175781</ele>
<time>2014-02-16T15:34:26Z</time>
</trkpt>
<trkpt lat="52.549869537353516" lon="13.316827774047852">
<ele>73.9000015258789</ele>
<time>2014-02-16T15:34:28Z</time>
</trkpt>
<trkpt lat="52.5498161315918" lon="13.316770553588867">
<ele>74.30000305175781</ele>
<time>2014-02-16T15:34:30Z</time>
</trkpt>
<trkpt lat="52.549808502197266" lon="13.316691398620605">
<ele>74.19999694824219</ele>
<time>2014-02-16T15:34:31Z</time>
</trkpt>
<trkpt lat="52.5497932434082" lon="13.316618919372559">
<ele>74.5999984741211</ele>
<time>2014-02-16T15:34:32Z</time>
</trkpt>
<trkpt lat="52.549739837646484" lon="13.316487312316895">
<ele>74.9000015258789</ele>
<time>2014-02-16T15:34:34Z</time>
</trkpt>
<trkpt lat="52.549705505371094" lon="13.31641674041748">
<ele>74.80000305175781</ele>
<time>2014-02-16T15:34:35Z</time>
</trkpt>
<trkpt lat="52.549652099609375" lon="13.316353797912598">
<ele>74.69999694824219</ele>
<time>2014-02-16T15:34:37Z</time>
</trkpt>
<trkpt lat="52.54960632324219" lon="13.316283226013184">
<ele>74.0</ele>
<time>2014-02-16T15:34:40Z</time>
</trkpt>
<trkpt lat="52.54960632324219" lon="13.316359519958496">
<ele>75.0</ele>
<time>2014-02-16T15:34:48Z</time>
</trkpt>
<trkpt lat="52.549591064453125" lon="13.316269874572754">
<ele>73.9000015258789</ele>
<time>2014-02-16T15:36:34Z</time>
</trkpt>
<trkpt lat="52.5495491027832" lon="13.316143035888672">
<ele>74.4000015258789</ele>
<time>2014-02-16T15:36:36Z</time>
</trkpt>
<trkpt lat="52.54950714111328" lon="13.316052436828613">
<ele>73.69999694824219</ele>
<time>2014-02-16T15:36:38Z</time>
</trkpt>
<trkpt lat="52.549476623535156" lon="13.31592845916748">
<ele>75.4000015258789</ele>
<time>2014-02-16T15:36:40Z</time>
</trkpt>
<trkpt lat="52.5494384765625" lon="13.315802574157715">
<ele>77.5</ele>
<time>2014-02-16T15:36:42Z</time>
</trkpt>
<trkpt lat="52.549415588378906" lon="13.3157377243042">
<ele>78.4000015258789</ele>
<time>2014-02-16T15:36:43Z</time>
</trkpt>
<trkpt lat="52.54936599731445" lon="13.315610885620117">
<ele>78.30000305175781</ele>
<time>2014-02-16T15:36:45Z</time>
</trkpt>
<trkpt lat="52.54933166503906" lon="13.315542221069336">
<ele>78.4000015258789</ele>
<time>2014-02-16T15:36:46Z</time>
</trkpt>
<trkpt lat="52.54930877685547" lon="13.315469741821289">
<ele>78.4000015258789</ele>
<time>2014-02-16T15:36:47Z</time>
</trkpt>
<trkpt lat="52.549285888671875" lon="13.315403938293457">
<ele>78.69999694824219</ele>
<time>2014-02-16T15:36:48Z</time>
</trkpt>
<trkpt lat="52.54921340942383" lon="13.315271377563477">
<ele>78.5</ele>
<time>2014-02-16T15:36:50Z</time>
</trkpt>
<trkpt lat="52.5491828918457" lon="13.31519889831543">
<ele>78.19999694824219</ele>
<time>2014-02-16T15:36:51Z</time>
</trkpt>
<trkpt lat="52.549156188964844" lon="13.315125465393066">
<ele>78.19999694824219</ele>
<time>2014-02-16T15:36:52Z</time>
</trkpt>
<trkpt lat="52.549129486083984" lon="13.315057754516602">
<ele>78.69999694824219</ele>
<time>2014-02-16T15:36:53Z</time>
</trkpt>
<trkpt lat="52.54909896850586" lon="13.314983367919922">
<ele>79.0999984741211</ele>
<time>2014-02-16T15:36:54Z</time>
</trkpt>
<trkpt lat="52.549068450927734" lon="13.31491470336914">
<ele>78.9000015258789</ele>
<time>2014-02-16T15:36:55Z</time>
</trkpt>
<trkpt lat="52.54903793334961" lon="13.31484603881836">
<ele>78.9000015258789</ele>
<time>2014-02-16T15:36:56Z</time>
</trkpt>
<trkpt lat="52.549007415771484" lon="13.314785957336426">
<ele>78.9000015258789</ele>
<time>2014-02-16T15:36:57Z</time>
</trkpt>
<trkpt lat="52.54896926879883" lon="13.314725875854492">
<ele>78.69999694824219</ele>
<time>2014-02-16T15:36:58Z</time>
</trkpt>
<trkpt lat="52.54894256591797" lon="13.314656257629395">
<ele>78.69999694824219</ele>
<time>2014-02-16T15:36:59Z</time>
</trkpt>
<trkpt lat="52.54891586303711" lon="13.314569473266602">
<ele>78.80000305175781</ele>
<time>2014-02-16T15:37:00Z</time>
</trkpt>
<trkpt lat="52.54887390136719" lon="13.314446449279785">
<ele>78.80000305175781</ele>
<time>2014-02-16T15:37:02Z</time>
</trkpt>
<trkpt lat="52.548851013183594" lon="13.314373970031738">
<ele>78.80000305175781</ele>
<time>2014-02-16T15:37:03Z</time>
</trkpt>
<trkpt lat="52.54883575439453" lon="13.314300537109375">
<ele>78.80000305175781</ele>
<time>2014-02-16T15:37:04Z</time>
</trkpt>
<trkpt lat="52.548797607421875" lon="13.314213752746582">
<ele>78.0999984741211</ele>
<time>2014-02-16T15:37:06Z</time>
</trkpt>
<trkpt lat="52.548728942871094" lon="13.31433391571045">
<ele>73.0999984741211</ele>
<time>2014-02-16T15:37:08Z</time>
</trkpt>
<trkpt lat="52.548667907714844" lon="13.314435958862305">
<ele>73.19999694824219</ele>
<time>2014-02-16T15:37:10Z</time>
</trkpt>
<trkpt lat="52.548606872558594" lon="13.314515113830566">
<ele>73.4000015258789</ele>
<time>2014-02-16T15:37:12Z</time>
</trkpt>
<trkpt lat="52.54854202270508" lon="13.314599990844727">
<ele>72.80000305175781</ele>
<time>2014-02-16T15:37:14Z</time>
</trkpt>
<trkpt lat="52.54849624633789" lon="13.314703941345215">
<ele>72.80000305175781</ele>
<time>2014-02-16T15:37:16Z</time>
</trkpt>
<trkpt lat="52.54845428466797" lon="13.314818382263184">
<ele>72.5999984741211</ele>
<time>2014-02-16T15:37:18Z</time>
</trkpt>
<trkpt lat="52.54841613769531" lon="13.314931869506836">
<ele>72.4000015258789</ele>
<time>2014-02-16T15:37:20Z</time>
</trkpt>
<trkpt lat="52.548370361328125" lon="13.315044403076172">
<ele>72.5999984741211</ele>
<time>2014-02-16T15:37:22Z</time>
</trkpt>
<trkpt lat="52.54831314086914" lon="13.315150260925293">
<ele>72.19999694824219</ele>
<time>2014-02-16T15:37:24Z</time>
</trkpt>
<trkpt lat="52.54826354980469" lon="13.315267562866211">
<ele>71.0</ele>
<time>2014-02-16T15:37:28Z</time>
</trkpt>
<trkpt lat="52.548255920410156" lon="13.315401077270508">
<ele>70.4000015258789</ele>
<time>2014-02-16T15:37:29Z</time>
</trkpt>
<trkpt lat="52.548248291015625" lon="13.315553665161133">
<ele>70.4000015258789</ele>
<time>2014-02-16T15:37:31Z</time>
</trkpt>
<trkpt lat="52.54824447631836" lon="13.31563949584961">
<ele>70.9000015258789</ele>
<time>2014-02-16T15:37:31Z</time>
</trkpt>
<trkpt lat="52.548240661621094" lon="13.315722465515137">
<ele>71.5</ele>
<time>2014-02-16T15:37:32Z</time>
</trkpt>
<trkpt lat="52.54824447631836" lon="13.315796852111816">
<ele>71.5</ele>
<time>2014-02-16T15:37:33Z</time>
</trkpt>
<trkpt lat="52.54824447631836" lon="13.315873146057129">
<ele>71.30000305175781</ele>
<time>2014-02-16T15:37:34Z</time>
</trkpt>
<trkpt lat="52.548240661621094" lon="13.315949440002441">
<ele>71.4000015258789</ele>
<time>2014-02-16T15:37:35Z</time>
</trkpt>
<trkpt lat="52.548240661621094" lon="13.31602668762207">
<ele>71.30000305175781</ele>
<time>2014-02-16T15:37:36Z</time>
</trkpt>
<trkpt lat="52.548240661621094" lon="13.316105842590332">
<ele>71.4000015258789</ele>
<time>2014-02-16T15:37:37Z</time>
</trkpt>
<trkpt lat="52.5482292175293" lon="13.31618595123291">
<ele>71.69999694824219</ele>
<time>2014-02-16T15:37:38Z</time>
</trkpt>
<trkpt lat="52.5482292175293" lon="13.316262245178223">
<ele>71.69999694824219</ele>
<time>2014-02-16T15:37:39Z</time>
</trkpt>
<trkpt lat="52.5482292175293" lon="13.316338539123535">
<ele>71.80000305175781</ele>
<time>2014-02-16T15:37:40Z</time>
</trkpt>
<trkpt lat="52.5482292175293" lon="13.316417694091797">
<ele>72.0</ele>
<time>2014-02-16T15:37:41Z</time>
</trkpt>
<trkpt lat="52.548221588134766" lon="13.316571235656738">
<ele>72.0999984741211</ele>
<time>2014-02-16T15:37:43Z</time>
</trkpt>
<trkpt lat="52.548213958740234" lon="13.316655158996582">
<ele>72.19999694824219</ele>
<time>2014-02-16T15:37:44Z</time>
</trkpt>
<trkpt lat="52.54821014404297" lon="13.316750526428223">
<ele>72.30000305175781</ele>
<time>2014-02-16T15:37:45Z</time>
</trkpt>
<trkpt lat="52.5482063293457" lon="13.316838264465332">
<ele>72.19999694824219</ele>
<time>2014-02-16T15:37:46Z</time>
</trkpt>
<trkpt lat="52.54820251464844" lon="13.316917419433594">
<ele>71.4000015258789</ele>
<time>2014-02-16T15:37:47Z</time>
</trkpt>
<trkpt lat="52.548194885253906" lon="13.317001342773438">
<ele>71.5</ele>
<time>2014-02-16T15:37:48Z</time>
</trkpt>
<trkpt lat="52.54819107055664" lon="13.317082405090332">
<ele>71.5</ele>
<time>2014-02-16T15:37:49Z</time>
</trkpt>
<trkpt lat="52.54818344116211" lon="13.317163467407227">
<ele>71.30000305175781</ele>
<time>2014-02-16T15:37:50Z</time>
</trkpt>
<trkpt lat="52.54817199707031" lon="13.317246437072754">
<ele>71.19999694824219</ele>
<time>2014-02-16T15:37:51Z</time>
</trkpt>
<trkpt lat="52.548160552978516" lon="13.317398071289062">
<ele>70.5</ele>
<time>2014-02-16T15:37:53Z</time>
</trkpt>
<trkpt lat="52.54814147949219" lon="13.317482948303223">
<ele>70.5</ele>
<time>2014-02-16T15:37:54Z</time>
</trkpt>
<trkpt lat="52.54813003540039" lon="13.317570686340332">
<ele>69.5999984741211</ele>
<time>2014-02-16T15:37:55Z</time>
</trkpt>
<trkpt lat="52.548126220703125" lon="13.31766128540039">
<ele>69.0</ele>
<time>2014-02-16T15:37:56Z</time>
</trkpt>
<trkpt lat="52.5481071472168" lon="13.317801475524902">
<ele>68.4000015258789</ele>
<time>2014-02-16T15:37:58Z</time>
</trkpt>
<trkpt lat="52.54806900024414" lon="13.317875862121582">
<ele>68.19999694824219</ele>
<time>2014-02-16T15:37:59Z</time>
</trkpt>
<trkpt lat="52.54803466796875" lon="13.317946434020996">
<ele>69.0999984741211</ele>
<time>2014-02-16T15:38:00Z</time>
</trkpt>
<trkpt lat="52.548004150390625" lon="13.318010330200195">
<ele>69.4000015258789</ele>
<time>2014-02-16T15:38:01Z</time>
</trkpt>
<trkpt lat="52.5479621887207" lon="13.318121910095215">
<ele>70.0999984741211</ele>
<time>2014-02-16T15:38:03Z</time>
</trkpt>
<trkpt lat="52.54793167114258" lon="13.3181791305542">
<ele>70.0999984741211</ele>
<time>2014-02-16T15:38:04Z</time>
</trkpt>
<trkpt lat="52.54789733886719" lon="13.318243026733398">
<ele>70.69999694824219</ele>
<time>2014-02-16T15:38:05Z</time>
</trkpt>
<trkpt lat="52.54785919189453" lon="13.318320274353027">
<ele>71.30000305175781</ele>
<time>2014-02-16T15:38:06Z</time>
</trkpt>
<trkpt lat="52.54782485961914" lon="13.318382263183594">
<ele>71.5999984741211</ele>
<time>2014-02-16T15:38:07Z</time>
</trkpt>
<trkpt lat="52.547760009765625" lon="13.31847095489502">
<ele>71.80000305175781</ele>
<time>2014-02-16T15:38:10Z</time>
</trkpt>
<trkpt lat="52.547691345214844" lon="13.318572044372559">
<ele>71.9000015258789</ele>
<time>2014-02-16T15:38:12Z</time>
</trkpt>
<trkpt lat="52.547576904296875" lon="13.318735122680664">
<ele>71.0999984741211</ele>
<time>2014-02-16T15:38:14Z</time>
</trkpt>
<trkpt lat="52.547542572021484" lon="13.318781852722168">
<ele>71.0999984741211</ele>
<time>2014-02-16T15:38:15Z</time>
</trkpt>
<trkpt lat="52.54750442504883" lon="13.318833351135254">
<ele>71.30000305175781</ele>
<time>2014-02-16T15:38:16Z</time>
</trkpt>
<trkpt lat="52.547428131103516" lon="13.318915367126465">
<ele>70.9000015258789</ele>
<time>2014-02-16T15:38:18Z</time>
</trkpt>
<trkpt lat="52.547393798828125" lon="13.31896686553955">
<ele>70.5999984741211</ele>
<time>2014-02-16T15:38:19Z</time>
</trkpt>
<trkpt lat="52.547359466552734" lon="13.319014549255371">
<ele>70.5999984741211</ele>
<time>2014-02-16T15:38:20Z</time>
</trkpt>
<trkpt lat="52.54732131958008" lon="13.319064140319824">
<ele>71.0999984741211</ele>
<time>2014-02-16T15:38:21Z</time>
</trkpt>
<trkpt lat="52.54724884033203" lon="13.319169998168945">
<ele>70.5999984741211</ele>
<time>2014-02-16T15:38:23Z</time>
</trkpt>
<trkpt lat="52.547210693359375" lon="13.319218635559082">
<ele>70.69999694824219</ele>
<time>2014-02-16T15:38:24Z</time>
</trkpt>
<trkpt lat="52.547176361083984" lon="13.319271087646484">
<ele>70.80000305175781</ele>
<time>2014-02-16T15:38:25Z</time>
</trkpt>
<trkpt lat="52.54713821411133" lon="13.319314956665039">
<ele>71.0</ele>
<time>2014-02-16T15:38:26Z</time>
</trkpt>
<trkpt lat="52.54710006713867" lon="13.319366455078125">
<ele>71.4000015258789</ele>
<time>2014-02-16T15:38:27Z</time>
</trkpt>
<trkpt lat="52.54703140258789" lon="13.319466590881348">
<ele>70.9000015258789</ele>
<time>2014-02-16T15:38:29Z</time>
</trkpt>
<trkpt lat="52.546993255615234" lon="13.31951904296875">
<ele>70.9000015258789</ele>
<time>2014-02-16T15:38:30Z</time>
</trkpt>
<trkpt lat="52.54695129394531" lon="13.319558143615723">
<ele>71.30000305175781</ele>
<time>2014-02-16T15:38:31Z</time>
</trkpt>
<trkpt lat="52.546913146972656" lon="13.319613456726074">
<ele>71.19999694824219</ele>
<time>2014-02-16T15:38:32Z</time>
</trkpt>
<trkpt lat="52.546875" lon="13.31966781616211">
<ele>71.0999984741211</ele>
<time>2014-02-16T15:38:33Z</time>
</trkpt>
<trkpt lat="52.54680252075195" lon="13.319768905639648">
<ele>70.5999984741211</ele>
<time>2014-02-16T15:38:35Z</time>
</trkpt>
<trkpt lat="52.54673385620117" lon="13.319854736328125">
<ele>71.0</ele>
<time>2014-02-16T15:38:37Z</time>
</trkpt>
<trkpt lat="52.546695709228516" lon="13.319902420043945">
<ele>70.9000015258789</ele>
<time>2014-02-16T15:38:38Z</time>
</trkpt>
<trkpt lat="52.54662322998047" lon="13.31999683380127">
<ele>71.4000015258789</ele>
<time>2014-02-16T15:38:40Z</time>
</trkpt>
<trkpt lat="52.54655456542969" lon="13.320080757141113">
<ele>71.69999694824219</ele>
<time>2014-02-16T15:38:42Z</time>
</trkpt>
<trkpt lat="52.546512603759766" lon="13.3201322555542">
<ele>71.5</ele>
<time>2014-02-16T15:38:43Z</time>
</trkpt>
<trkpt lat="52.54648208618164" lon="13.320192337036133">
<ele>71.4000015258789</ele>
<time>2014-02-16T15:38:44Z</time>
</trkpt>
<trkpt lat="52.546417236328125" lon="13.320273399353027">
<ele>70.69999694824219</ele>
<time>2014-02-16T15:38:46Z</time>
</trkpt>
<trkpt lat="52.5463752746582" lon="13.320321083068848">
<ele>70.9000015258789</ele>
<time>2014-02-16T15:38:47Z</time>
</trkpt>
<trkpt lat="52.54634094238281" lon="13.320371627807617">
<ele>71.5</ele>
<time>2014-02-16T15:38:48Z</time>
</trkpt>
<trkpt lat="52.546302795410156" lon="13.320417404174805">
<ele>71.4000015258789</ele>
<time>2014-02-16T15:38:49Z</time>
</trkpt>
<trkpt lat="52.546234130859375" lon="13.320509910583496">
<ele>71.4000015258789</ele>
<time>2014-02-16T15:38:51Z</time>
</trkpt>
<trkpt lat="52.54619598388672" lon="13.320552825927734">
<ele>71.5999984741211</ele>
<time>2014-02-16T15:38:52Z</time>
</trkpt>
<trkpt lat="52.54615783691406" lon="13.32059097290039">
<ele>72.0</ele>
<time>2014-02-16T15:38:53Z</time>
</trkpt>
<trkpt lat="52.54608917236328" lon="13.320673942565918">
<ele>72.19999694824219</ele>
<time>2014-02-16T15:38:55Z</time>
</trkpt>
<trkpt lat="52.546051025390625" lon="13.320720672607422">
<ele>72.0999984741211</ele>
<time>2014-02-16T15:38:56Z</time>
</trkpt>
<trkpt lat="52.546016693115234" lon="13.320769309997559">
<ele>71.69999694824219</ele>
<time>2014-02-16T15:38:57Z</time>
</trkpt>
<trkpt lat="52.54597854614258" lon="13.320812225341797">
<ele>71.80000305175781</ele>
<time>2014-02-16T15:38:58Z</time>
</trkpt>
<trkpt lat="52.54594039916992" lon="13.320869445800781">
<ele>71.9000015258789</ele>
<time>2014-02-16T15:38:59Z</time>
</trkpt>
<trkpt lat="52.5458984375" lon="13.320916175842285">
<ele>71.5</ele>
<time>2014-02-16T15:39:00Z</time>
</trkpt>
<trkpt lat="52.545833587646484" lon="13.321002960205078">
<ele>71.5</ele>
<time>2014-02-16T15:39:02Z</time>
</trkpt>
<trkpt lat="52.54579544067383" lon="13.321052551269531">
<ele>71.5</ele>
<time>2014-02-16T15:39:03Z</time>
</trkpt>
<trkpt lat="52.54573059082031" lon="13.321142196655273">
<ele>71.5999984741211</ele>
<time>2014-02-16T15:39:05Z</time>
</trkpt>
<trkpt lat="52.54566192626953" lon="13.321234703063965">
<ele>71.9000015258789</ele>
<time>2014-02-16T15:39:07Z</time>
</trkpt>
<trkpt lat="52.54559326171875" lon="13.321331977844238">
<ele>71.80000305175781</ele>
<time>2014-02-16T15:39:09Z</time>
</trkpt>
<trkpt lat="52.545562744140625" lon="13.32138442993164">
<ele>71.9000015258789</ele>
<time>2014-02-16T15:39:10Z</time>
</trkpt>
<trkpt lat="52.545528411865234" lon="13.321440696716309">
<ele>72.19999694824219</ele>
<time>2014-02-16T15:39:11Z</time>
</trkpt>
<trkpt lat="52.54546356201172" lon="13.321540832519531">
<ele>72.30000305175781</ele>
<time>2014-02-16T15:39:13Z</time>
</trkpt>
<trkpt lat="52.5453987121582" lon="13.321637153625488">
<ele>72.5</ele>
<time>2014-02-16T15:39:15Z</time>
</trkpt>
<trkpt lat="52.54536819458008" lon="13.321687698364258">
<ele>73.0</ele>
<time>2014-02-16T15:39:16Z</time>
</trkpt>
<trkpt lat="52.54530334472656" lon="13.321771621704102">
<ele>73.0999984741211</ele>
<time>2014-02-16T15:39:18Z</time>
</trkpt>
<trkpt lat="52.545265197753906" lon="13.321819305419922">
<ele>73.5999984741211</ele>
<time>2014-02-16T15:39:19Z</time>
</trkpt>
<trkpt lat="52.54520034790039" lon="13.321903228759766">
<ele>74.0999984741211</ele>
<time>2014-02-16T15:39:21Z</time>
</trkpt>
<trkpt lat="52.545143127441406" lon="13.321986198425293">
<ele>74.4000015258789</ele>
<time>2014-02-16T15:39:23Z</time>
</trkpt>
<trkpt lat="52.54508590698242" lon="13.322060585021973">
<ele>74.5999984741211</ele>
<time>2014-02-16T15:39:25Z</time>
</trkpt>
<trkpt lat="52.5450439453125" lon="13.322134971618652">
<ele>74.69999694824219</ele>
<time>2014-02-16T15:39:27Z</time>
</trkpt>
<trkpt lat="52.54502487182617" lon="13.322220802307129">
<ele>74.80000305175781</ele>
<time>2014-02-16T15:39:29Z</time>
</trkpt>
<trkpt lat="52.54503631591797" lon="13.322298049926758">
<ele>73.80000305175781</ele>
<time>2014-02-16T15:39:31Z</time>
</trkpt>
<trkpt lat="52.54509735107422" lon="13.322349548339844">
<ele>74.9000015258789</ele>
<time>2014-02-16T15:39:33Z</time>
</trkpt>
<trkpt lat="52.54508590698242" lon="13.322421073913574">
<ele>74.80000305175781</ele>
<time>2014-02-16T15:39:35Z</time>
</trkpt>
<trkpt lat="52.5450439453125" lon="13.322479248046875">
<ele>74.19999694824219</ele>
<time>2014-02-16T15:39:37Z</time>
</trkpt>
<trkpt lat="52.54499435424805" lon="13.322539329528809">
<ele>74.0999984741211</ele>
<time>2014-02-16T15:39:39Z</time>
</trkpt>
<trkpt lat="52.54494094848633" lon="13.322610855102539">
<ele>74.19999694824219</ele>
<time>2014-02-16T15:39:41Z</time>
</trkpt>
<trkpt lat="52.54487991333008" lon="13.322694778442383">
<ele>73.80000305175781</ele>
<time>2014-02-16T15:39:43Z</time>
</trkpt>
<trkpt lat="52.544822692871094" lon="13.322781562805176">
<ele>73.5</ele>
<time>2014-02-16T15:39:45Z</time>
</trkpt>
<trkpt lat="52.54476547241211" lon="13.3228759765625">
<ele>73.5</ele>
<time>2014-02-16T15:39:47Z</time>
</trkpt>
<trkpt lat="52.54470443725586" lon="13.322970390319824">
<ele>73.30000305175781</ele>
<time>2014-02-16T15:39:49Z</time>
</trkpt>
<trkpt lat="52.54463577270508" lon="13.323064804077148">
<ele>73.0999984741211</ele>
<time>2014-02-16T15:39:51Z</time>
</trkpt>
<trkpt lat="52.54457473754883" lon="13.32316780090332">
<ele>72.80000305175781</ele>
<time>2014-02-16T15:39:53Z</time>
</trkpt>
<trkpt lat="52.54451370239258" lon="13.323260307312012">
<ele>72.5999984741211</ele>
<time>2014-02-16T15:39:55Z</time>
</trkpt>
<trkpt lat="52.54447937011719" lon="13.323312759399414">
<ele>72.4000015258789</ele>
<time>2014-02-16T15:39:56Z</time>
</trkpt>
<trkpt lat="52.5444450378418" lon="13.3233642578125">
<ele>72.19999694824219</ele>
<time>2014-02-16T15:39:57Z</time>
</trkpt>
<trkpt lat="52.544410705566406" lon="13.323417663574219">
<ele>71.80000305175781</ele>
<time>2014-02-16T15:39:58Z</time>
</trkpt>
<trkpt lat="52.544349670410156" lon="13.323517799377441">
<ele>71.4000015258789</ele>
<time>2014-02-16T15:40:00Z</time>
</trkpt>
<trkpt lat="52.544315338134766" lon="13.323570251464844">
<ele>71.0</ele>
<time>2014-02-16T15:40:01Z</time>
</trkpt>
<trkpt lat="52.544254302978516" lon="13.323676109313965">
<ele>70.9000015258789</ele>
<time>2014-02-16T15:40:03Z</time>
</trkpt>
<trkpt lat="52.54419708251953" lon="13.323780059814453">
<ele>71.0999984741211</ele>
<time>2014-02-16T15:40:05Z</time>
</trkpt>
<trkpt lat="52.544166564941406" lon="13.323833465576172">
<ele>71.0</ele>
<time>2014-02-16T15:40:06Z</time>
</trkpt>
<trkpt lat="52.544105529785156" lon="13.323943138122559">
<ele>71.0</ele>
<time>2014-02-16T15:40:08Z</time>
</trkpt>
<trkpt lat="52.5440788269043" lon="13.324000358581543">
<ele>71.0</ele>
<time>2014-02-16T15:40:09Z</time>
</trkpt>
<trkpt lat="52.54405212402344" lon="13.324063301086426">
<ele>71.0</ele>
<time>2014-02-16T15:40:10Z</time>
</trkpt>
<trkpt lat="52.54400634765625" lon="13.324189186096191">
<ele>70.9000015258789</ele>
<time>2014-02-16T15:40:12Z</time>
</trkpt>
<trkpt lat="52.54397201538086" lon="13.324318885803223">
<ele>70.5999984741211</ele>
<time>2014-02-16T15:40:14Z</time>
</trkpt>
<trkpt lat="52.543941497802734" lon="13.32443904876709">
<ele>70.4000015258789</ele>
<time>2014-02-16T15:40:16Z</time>
</trkpt>
<trkpt lat="52.54391860961914" lon="13.324559211730957">
<ele>70.5999984741211</ele>
<time>2014-02-16T15:40:18Z</time>
</trkpt>
<trkpt lat="52.54391098022461" lon="13.324657440185547">
<ele>70.4000015258789</ele>
<time>2014-02-16T15:40:20Z</time>
</trkpt>
<trkpt lat="52.54389190673828" lon="13.32475471496582">
<ele>69.9000015258789</ele>
<time>2014-02-16T15:40:22Z</time>
</trkpt>
<trkpt lat="52.54384994506836" lon="13.324843406677246">
<ele>69.4000015258789</ele>
<time>2014-02-16T15:40:24Z</time>
</trkpt>
<trkpt lat="52.5438117980957" lon="13.324934959411621">
<ele>69.0999984741211</ele>
<time>2014-02-16T15:40:26Z</time>
</trkpt>
<trkpt lat="52.543819427490234" lon="13.325051307678223">
<ele>68.9000015258789</ele>
<time>2014-02-16T15:40:28Z</time>
</trkpt>
<trkpt lat="52.54379653930664" lon="13.325157165527344">
<ele>68.9000015258789</ele>
<time>2014-02-16T15:40:30Z</time>
</trkpt>
<trkpt lat="52.54374694824219" lon="13.325252532958984">
<ele>68.5999984741211</ele>
<time>2014-02-16T15:40:32Z</time>
</trkpt>
<trkpt lat="52.5436897277832" lon="13.325328826904297">
<ele>68.19999694824219</ele>
<time>2014-02-16T15:40:34Z</time>
</trkpt>
<trkpt lat="52.54362869262695" lon="13.325408935546875">
<ele>67.69999694824219</ele>
<time>2014-02-16T15:40:36Z</time>
</trkpt>
<trkpt lat="52.54356002807617" lon="13.325493812561035">
<ele>67.30000305175781</ele>
<time>2014-02-16T15:40:38Z</time>
</trkpt>
<trkpt lat="52.543487548828125" lon="13.325567245483398">
<ele>68.0999984741211</ele>
<time>2014-02-16T15:40:40Z</time>
</trkpt>
<trkpt lat="52.54341125488281" lon="13.325615882873535">
<ele>67.9000015258789</ele>
<time>2014-02-16T15:40:42Z</time>
</trkpt>
<trkpt lat="52.543338775634766" lon="13.325571060180664">
<ele>68.19999694824219</ele>
<time>2014-02-16T15:40:44Z</time>
</trkpt>
<trkpt lat="52.54328155517578" lon="13.325478553771973">
<ele>68.4000015258789</ele>
<time>2014-02-16T15:40:46Z</time>
</trkpt>
<trkpt lat="52.54323959350586" lon="13.325371742248535">
<ele>68.5999984741211</ele>
<time>2014-02-16T15:40:48Z</time>
</trkpt>
<trkpt lat="52.54317855834961" lon="13.325310707092285">
<ele>69.69999694824219</ele>
<time>2014-02-16T15:40:50Z</time>
</trkpt>
<trkpt lat="52.54311752319336" lon="13.325275421142578">
<ele>69.80000305175781</ele>
<time>2014-02-16T15:40:52Z</time>
</trkpt>
<trkpt lat="52.54304122924805" lon="13.325369834899902">
<ele>69.9000015258789</ele>
<time>2014-02-16T15:40:54Z</time>
</trkpt>
<trkpt lat="52.54297637939453" lon="13.325464248657227">
<ele>70.0999984741211</ele>
<time>2014-02-16T15:40:56Z</time>
</trkpt>
<trkpt lat="52.542911529541016" lon="13.325555801391602">
<ele>70.0999984741211</ele>
<time>2014-02-16T15:40:58Z</time>
</trkpt>
<trkpt lat="52.542842864990234" lon="13.32564926147461">
<ele>69.80000305175781</ele>
<time>2014-02-16T15:41:00Z</time>
</trkpt>
<trkpt lat="52.54277801513672" lon="13.325738906860352">
<ele>70.0</ele>
<time>2014-02-16T15:41:02Z</time>
</trkpt>
<trkpt lat="52.54270935058594" lon="13.325834274291992">
<ele>70.0</ele>
<time>2014-02-16T15:41:04Z</time>
</trkpt>
<trkpt lat="52.542640686035156" lon="13.325923919677734">
<ele>69.80000305175781</ele>
<time>2014-02-16T15:41:06Z</time>
</trkpt>
<trkpt lat="52.54261016845703" lon="13.325976371765137">
<ele>70.19999694824219</ele>
<time>2014-02-16T15:41:07Z</time>
</trkpt>
<trkpt lat="52.542545318603516" lon="13.326068878173828">
<ele>70.19999694824219</ele>
<time>2014-02-16T15:41:09Z</time>
</trkpt>
<trkpt lat="52.542484283447266" lon="13.326157569885254">
<ele>70.0999984741211</ele>
<time>2014-02-16T15:41:11Z</time>
</trkpt>
<trkpt lat="52.54244613647461" lon="13.326207160949707">
<ele>69.69999694824219</ele>
<time>2014-02-16T15:41:12Z</time>
</trkpt>
<trkpt lat="52.54237365722656" lon="13.326295852661133">
<ele>69.80000305175781</ele>
<time>2014-02-16T15:41:14Z</time>
</trkpt>
<trkpt lat="52.542301177978516" lon="13.326393127441406">
<ele>70.0</ele>
<time>2014-02-16T15:41:16Z</time>
</trkpt>
<trkpt lat="52.54226303100586" lon="13.326441764831543">
<ele>70.0</ele>
<time>2014-02-16T15:41:17Z</time>
</trkpt>
<trkpt lat="52.54222106933594" lon="13.326485633850098">
<ele>69.9000015258789</ele>
<time>2014-02-16T15:41:18Z</time>
</trkpt>
<trkpt lat="52.54218673706055" lon="13.326534271240234">
<ele>69.80000305175781</ele>
<time>2014-02-16T15:41:19Z</time>
</trkpt>
<trkpt lat="52.542144775390625" lon="13.326578140258789">
<ele>69.9000015258789</ele>
<time>2014-02-16T15:41:20Z</time>
</trkpt>
<trkpt lat="52.542110443115234" lon="13.326640129089355">
<ele>69.5999984741211</ele>
<time>2014-02-16T15:41:21Z</time>
</trkpt>
<trkpt lat="52.54207229614258" lon="13.32669448852539">
<ele>69.9000015258789</ele>
<time>2014-02-16T15:41:22Z</time>
</trkpt>
<trkpt lat="52.542030334472656" lon="13.326741218566895">
<ele>69.69999694824219</ele>
<time>2014-02-16T15:41:23Z</time>
</trkpt>
<trkpt lat="52.5419921875" lon="13.326793670654297">
<ele>69.80000305175781</ele>
<time>2014-02-16T15:41:24Z</time>
</trkpt>
<trkpt lat="52.54195785522461" lon="13.326841354370117">
<ele>69.4000015258789</ele>
<time>2014-02-16T15:41:25Z</time>
</trkpt>
<trkpt lat="52.54191970825195" lon="13.326892852783203">
<ele>69.30000305175781</ele>
<time>2014-02-16T15:41:26Z</time>
</trkpt>
<trkpt lat="52.54185485839844" lon="13.326985359191895">
<ele>68.80000305175781</ele>
<time>2014-02-16T15:41:28Z</time>
</trkpt>
<trkpt lat="52.54181671142578" lon="13.327035903930664">
<ele>69.0999984741211</ele>
<time>2014-02-16T15:41:29Z</time>
</trkpt>
<trkpt lat="52.541748046875" lon="13.327131271362305">
<ele>68.80000305175781</ele>
<time>2014-02-16T15:41:31Z</time>
</trkpt>
<trkpt lat="52.54167938232422" lon="13.327219009399414">
<ele>69.30000305175781</ele>
<time>2014-02-16T15:41:33Z</time>
</trkpt>
<trkpt lat="52.5416374206543" lon="13.327285766601562">
<ele>68.69999694824219</ele>
<time>2014-02-16T15:41:35Z</time>
</trkpt>
<trkpt lat="52.54157257080078" lon="13.327354431152344">
<ele>68.0</ele>
<time>2014-02-16T15:41:37Z</time>
</trkpt>
<trkpt lat="52.541507720947266" lon="13.327428817749023">
<ele>67.30000305175781</ele>
<time>2014-02-16T15:41:39Z</time>
</trkpt>
<trkpt lat="52.541473388671875" lon="13.327475547790527">
<ele>67.0</ele>
<time>2014-02-16T15:41:40Z</time>
</trkpt>
<trkpt lat="52.54140853881836" lon="13.327552795410156">
<ele>66.69999694824219</ele>
<time>2014-02-16T15:41:42Z</time>
</trkpt>
<trkpt lat="52.54136657714844" lon="13.327658653259277">
<ele>66.30000305175781</ele>
<time>2014-02-16T15:41:44Z</time>
</trkpt>
<trkpt lat="52.54130935668945" lon="13.32776165008545">
<ele>65.9000015258789</ele>
<time>2014-02-16T15:41:46Z</time>
</trkpt>
<trkpt lat="52.541263580322266" lon="13.327871322631836">
<ele>65.80000305175781</ele>
<time>2014-02-16T15:41:48Z</time>
</trkpt>
<trkpt lat="52.54125213623047" lon="13.327996253967285">
<ele>65.80000305175781</ele>
<time>2014-02-16T15:41:50Z</time>
</trkpt>
<trkpt lat="52.54123306274414" lon="13.328107833862305">
<ele>66.0</ele>
<time>2014-02-16T15:41:52Z</time>
</trkpt>
<trkpt lat="52.54122543334961" lon="13.328219413757324">
<ele>65.69999694824219</ele>
<time>2014-02-16T15:41:54Z</time>
</trkpt>
<trkpt lat="52.54122543334961" lon="13.328327178955078">
<ele>66.5999984741211</ele>
<time>2014-02-16T15:41:56Z</time>
</trkpt>
<trkpt lat="52.54121017456055" lon="13.328438758850098">
<ele>66.5999984741211</ele>
<time>2014-02-16T15:41:58Z</time>
</trkpt>
<trkpt lat="52.54119873046875" lon="13.32856273651123">
<ele>66.9000015258789</ele>
<time>2014-02-16T15:42:00Z</time>
</trkpt>
<trkpt lat="52.54119110107422" lon="13.328683853149414">
<ele>66.9000015258789</ele>
<time>2014-02-16T15:42:02Z</time>
</trkpt>
<trkpt lat="52.54118728637695" lon="13.328821182250977">
<ele>67.30000305175781</ele>
<time>2014-02-16T15:42:04Z</time>
</trkpt>
<trkpt lat="52.54118728637695" lon="13.32895565032959">
<ele>67.5</ele>
<time>2014-02-16T15:42:06Z</time>
</trkpt>
<trkpt lat="52.54118728637695" lon="13.329090118408203">
<ele>67.80000305175781</ele>
<time>2014-02-16T15:42:08Z</time>
</trkpt>
<trkpt lat="52.541194915771484" lon="13.329228401184082">
<ele>68.19999694824219</ele>
<time>2014-02-16T15:42:10Z</time>
</trkpt>
<trkpt lat="52.541202545166016" lon="13.32937240600586">
<ele>67.80000305175781</ele>
<time>2014-02-16T15:42:12Z</time>
</trkpt>
<trkpt lat="52.541221618652344" lon="13.329510688781738">
<ele>67.5999984741211</ele>
<time>2014-02-16T15:42:14Z</time>
</trkpt>
<trkpt lat="52.54122543334961" lon="13.329585075378418">
<ele>67.9000015258789</ele>
<time>2014-02-16T15:42:15Z</time>
</trkpt>
<trkpt lat="52.541236877441406" lon="13.329660415649414">
<ele>68.0</ele>
<time>2014-02-16T15:42:16Z</time>
</trkpt>
<trkpt lat="52.54124450683594" lon="13.329798698425293">
<ele>67.69999694824219</ele>
<time>2014-02-16T15:42:18Z</time>
</trkpt>
<trkpt lat="52.54125213623047" lon="13.329872131347656">
<ele>67.4000015258789</ele>
<time>2014-02-16T15:42:19Z</time>
</trkpt>
<trkpt lat="52.541255950927734" lon="13.329951286315918">
<ele>67.5999984741211</ele>
<time>2014-02-16T15:42:20Z</time>
</trkpt>
<trkpt lat="52.54126739501953" lon="13.330031394958496">
<ele>67.69999694824219</ele>
<time>2014-02-16T15:42:21Z</time>
</trkpt>
<trkpt lat="52.54127502441406" lon="13.330111503601074">
<ele>68.19999694824219</ele>
<time>2014-02-16T15:42:22Z</time>
</trkpt>
<trkpt lat="52.54128646850586" lon="13.330185890197754">
<ele>68.5</ele>
<time>2014-02-16T15:42:23Z</time>
</trkpt>
<trkpt lat="52.54128646850586" lon="13.330265045166016">
<ele>68.19999694824219</ele>
<time>2014-02-16T15:42:24Z</time>
</trkpt>
<trkpt lat="52.54130172729492" lon="13.330345153808594">
<ele>68.5</ele>
<time>2014-02-16T15:42:25Z</time>
</trkpt>
<trkpt lat="52.54130554199219" lon="13.33042049407959">
<ele>68.69999694824219</ele>
<time>2014-02-16T15:42:26Z</time>
</trkpt>
<trkpt lat="52.54131317138672" lon="13.330496788024902">
<ele>68.5999984741211</ele>
<time>2014-02-16T15:42:28Z</time>
</trkpt>
<trkpt lat="52.54133987426758" lon="13.330615043640137">
<ele>67.5</ele>
<time>2014-02-16T15:42:29Z</time>
</trkpt>
<trkpt lat="52.5413703918457" lon="13.33072566986084">
<ele>66.0999984741211</ele>
<time>2014-02-16T15:42:31Z</time>
</trkpt>
<trkpt lat="52.5413932800293" lon="13.330865859985352">
<ele>65.30000305175781</ele>
<time>2014-02-16T15:42:33Z</time>
</trkpt>
<trkpt lat="52.5413932800293" lon="13.33102798461914">
<ele>66.0999984741211</ele>
<time>2014-02-16T15:42:35Z</time>
</trkpt>
<trkpt lat="52.5413932800293" lon="13.331103324890137">
<ele>66.5</ele>
<time>2014-02-16T15:42:36Z</time>
</trkpt>
<trkpt lat="52.54139709472656" lon="13.331192016601562">
<ele>66.9000015258789</ele>
<time>2014-02-16T15:42:37Z</time>
</trkpt>
<trkpt lat="52.54139709472656" lon="13.331268310546875">
<ele>67.5999984741211</ele>
<time>2014-02-16T15:42:38Z</time>
</trkpt>
<trkpt lat="52.5413932800293" lon="13.331348419189453">
<ele>67.4000015258789</ele>
<time>2014-02-16T15:42:39Z</time>
</trkpt>
<trkpt lat="52.54140090942383" lon="13.331435203552246">
<ele>68.4000015258789</ele>
<time>2014-02-16T15:42:40Z</time>
</trkpt>
<trkpt lat="52.54139709472656" lon="13.331525802612305">
<ele>68.4000015258789</ele>
<time>2014-02-16T15:42:41Z</time>
</trkpt>
<trkpt lat="52.5413932800293" lon="13.331605911254883">
<ele>68.4000015258789</ele>
<time>2014-02-16T15:42:42Z</time>
</trkpt>
<trkpt lat="52.54138946533203" lon="13.331769943237305">
<ele>68.30000305175781</ele>
<time>2014-02-16T15:42:44Z</time>
</trkpt>
<trkpt lat="52.5413932800293" lon="13.331904411315918">
<ele>68.0999984741211</ele>
<time>2014-02-16T15:42:46Z</time>
</trkpt>
<trkpt lat="52.5413818359375" lon="13.332063674926758">
<ele>68.0</ele>
<time>2014-02-16T15:42:48Z</time>
</trkpt>
<trkpt lat="52.541385650634766" lon="13.332138061523438">
<ele>68.19999694824219</ele>
<time>2014-02-16T15:42:49Z</time>
</trkpt>
<trkpt lat="52.5413932800293" lon="13.332283973693848">
<ele>68.5999984741211</ele>
<time>2014-02-16T15:42:51Z</time>
</trkpt>
<trkpt lat="52.5413932800293" lon="13.33236312866211">
<ele>68.80000305175781</ele>
<time>2014-02-16T15:42:52Z</time>
</trkpt>
<trkpt lat="52.5413932800293" lon="13.332440376281738">
<ele>69.0</ele>
<time>2014-02-16T15:42:53Z</time>
</trkpt>
<trkpt lat="52.54139709472656" lon="13.332587242126465">
<ele>68.80000305175781</ele>
<time>2014-02-16T15:42:55Z</time>
</trkpt>
<trkpt lat="52.54139709472656" lon="13.33272933959961">
<ele>69.19999694824219</ele>
<time>2014-02-16T15:42:57Z</time>
</trkpt>
<trkpt lat="52.54139709472656" lon="13.33286190032959">
<ele>69.19999694824219</ele>
<time>2014-02-16T15:42:59Z</time>
</trkpt>
<trkpt lat="52.54139709472656" lon="13.333005905151367">
<ele>69.0</ele>
<time>2014-02-16T15:43:01Z</time>
</trkpt>
<trkpt lat="52.54138946533203" lon="13.33313274383545">
<ele>69.19999694824219</ele>
<time>2014-02-16T15:43:03Z</time>
</trkpt>
<trkpt lat="52.54138946533203" lon="13.333245277404785">
<ele>69.30000305175781</ele>
<time>2014-02-16T15:43:05Z</time>
</trkpt>
<trkpt lat="52.5413818359375" lon="13.333361625671387">
<ele>69.69999694824219</ele>
<time>2014-02-16T15:43:07Z</time>
</trkpt>
<trkpt lat="52.5413818359375" lon="13.333464622497559">
<ele>70.30000305175781</ele>
<time>2014-02-16T15:43:09Z</time>
</trkpt>
<trkpt lat="52.541378021240234" lon="13.333564758300781">
<ele>71.0999984741211</ele>
<time>2014-02-16T15:43:11Z</time>
</trkpt>
<trkpt lat="52.541378021240234" lon="13.333651542663574">
<ele>71.69999694824219</ele>
<time>2014-02-16T15:43:13Z</time>
</trkpt>
<trkpt lat="52.5413703918457" lon="13.33374309539795">
<ele>71.80000305175781</ele>
<time>2014-02-16T15:43:15Z</time>
</trkpt>
<trkpt lat="52.54137420654297" lon="13.333832740783691">
<ele>71.5</ele>
<time>2014-02-16T15:43:17Z</time>
</trkpt>
<trkpt lat="52.54134750366211" lon="13.333906173706055">
<ele>71.9000015258789</ele>
<time>2014-02-16T15:43:19Z</time>
</trkpt>
<trkpt lat="52.54130172729492" lon="13.333938598632812">
<ele>72.0</ele>
<time>2014-02-16T15:43:22Z</time>
</trkpt>
<trkpt lat="52.54125213623047" lon="13.333876609802246">
<ele>71.0999984741211</ele>
<time>2014-02-16T15:43:26Z</time>
</trkpt>
<trkpt lat="52.54121780395508" lon="13.333788871765137">
<ele>71.5999984741211</ele>
<time>2014-02-16T15:43:29Z</time>
</trkpt>
<trkpt lat="52.54118347167969" lon="13.333718299865723">
<ele>71.4000015258789</ele>
<time>2014-02-16T15:43:32Z</time>
</trkpt>
<trkpt lat="52.54115295410156" lon="13.333643913269043">
<ele>72.0999984741211</ele>
<time>2014-02-16T15:43:35Z</time>
</trkpt>
<trkpt lat="52.541114807128906" lon="13.333588600158691">
<ele>72.0</ele>
<time>2014-02-16T15:43:37Z</time>
</trkpt>
<trkpt lat="52.541072845458984" lon="13.333527565002441">
<ele>72.30000305175781</ele>
<time>2014-02-16T15:43:39Z</time>
</trkpt>
<trkpt lat="52.54103088378906" lon="13.333453178405762">
<ele>72.5</ele>
<time>2014-02-16T15:43:41Z</time>
</trkpt>
<trkpt lat="52.54098892211914" lon="13.333373069763184">
<ele>73.0</ele>
<time>2014-02-16T15:43:43Z</time>
</trkpt>
<trkpt lat="52.54094696044922" lon="13.33328914642334">
<ele>73.30000305175781</ele>
<time>2014-02-16T15:43:45Z</time>
</trkpt>
<trkpt lat="52.54090118408203" lon="13.333209037780762">
<ele>73.0999984741211</ele>
<time>2014-02-16T15:43:47Z</time>
</trkpt>
<trkpt lat="52.540863037109375" lon="13.333122253417969">
<ele>73.5</ele>
<time>2014-02-16T15:43:49Z</time>
</trkpt>
<trkpt lat="52.54081726074219" lon="13.333036422729492">
<ele>74.0999984741211</ele>
<time>2014-02-16T15:43:51Z</time>
</trkpt>
<trkpt lat="52.54077911376953" lon="13.332952499389648">
<ele>74.0999984741211</ele>
<time>2014-02-16T15:43:53Z</time>
</trkpt>
<trkpt lat="52.54073715209961" lon="13.332877159118652">
<ele>74.30000305175781</ele>
<time>2014-02-16T15:43:55Z</time>
</trkpt>
<trkpt lat="52.540687561035156" lon="13.332795143127441">
<ele>74.30000305175781</ele>
<time>2014-02-16T15:43:57Z</time>
</trkpt>
<trkpt lat="52.540645599365234" lon="13.332701683044434">
<ele>74.5</ele>
<time>2014-02-16T15:43:59Z</time>
</trkpt>
<trkpt lat="52.54060363769531" lon="13.332608222961426">
<ele>73.9000015258789</ele>
<time>2014-02-16T15:44:01Z</time>
</trkpt>
<trkpt lat="52.540557861328125" lon="13.332513809204102">
<ele>74.0999984741211</ele>
<time>2014-02-16T15:44:03Z</time>
</trkpt>
<trkpt lat="52.5405158996582" lon="13.332415580749512">
<ele>74.5999984741211</ele>
<time>2014-02-16T15:44:05Z</time>
</trkpt>
<trkpt lat="52.54047393798828" lon="13.33231258392334">
<ele>74.19999694824219</ele>
<time>2014-02-16T15:44:07Z</time>
</trkpt>
<trkpt lat="52.54042434692383" lon="13.332222938537598">
<ele>74.0999984741211</ele>
<time>2014-02-16T15:44:09Z</time>
</trkpt>
<trkpt lat="52.540374755859375" lon="13.33211898803711">
<ele>74.0999984741211</ele>
<time>2014-02-16T15:44:11Z</time>
</trkpt>
<trkpt lat="52.54032516479492" lon="13.332025527954102">
<ele>74.30000305175781</ele>
<time>2014-02-16T15:44:13Z</time>
</trkpt>
<trkpt lat="52.54029083251953" lon="13.331921577453613">
<ele>73.9000015258789</ele>
<time>2014-02-16T15:44:15Z</time>
</trkpt>
<trkpt lat="52.540245056152344" lon="13.33181381225586">
<ele>73.5</ele>
<time>2014-02-16T15:44:17Z</time>
</trkpt>
<trkpt lat="52.540191650390625" lon="13.331694602966309">
<ele>73.4000015258789</ele>
<time>2014-02-16T15:44:19Z</time>
</trkpt>
<trkpt lat="52.54014587402344" lon="13.331583023071289">
<ele>74.0</ele>
<time>2014-02-16T15:44:21Z</time>
</trkpt>
<trkpt lat="52.540096282958984" lon="13.331483840942383">
<ele>74.30000305175781</ele>
<time>2014-02-16T15:44:23Z</time>
</trkpt>
<trkpt lat="52.54005432128906" lon="13.331377029418945">
<ele>74.5</ele>
<time>2014-02-16T15:44:25Z</time>
</trkpt>
<trkpt lat="52.540008544921875" lon="13.331270217895508">
<ele>74.69999694824219</ele>
<time>2014-02-16T15:44:27Z</time>
</trkpt>
<trkpt lat="52.53996276855469" lon="13.331154823303223">
<ele>73.9000015258789</ele>
<time>2014-02-16T15:44:29Z</time>
</trkpt>
<trkpt lat="52.5399169921875" lon="13.331035614013672">
<ele>74.0</ele>
<time>2014-02-16T15:44:31Z</time>
</trkpt>
<trkpt lat="52.53987503051758" lon="13.330921173095703">
<ele>74.30000305175781</ele>
<time>2014-02-16T15:44:33Z</time>
</trkpt>
<trkpt lat="52.53982162475586" lon="13.330808639526367">
<ele>74.5999984741211</ele>
<time>2014-02-16T15:44:35Z</time>
</trkpt>
<trkpt lat="52.539798736572266" lon="13.330738067626953">
<ele>75.19999694824219</ele>
<time>2014-02-16T15:44:36Z</time>
</trkpt>
<trkpt lat="52.539764404296875" lon="13.330613136291504">
<ele>75.30000305175781</ele>
<time>2014-02-16T15:44:38Z</time>
</trkpt>
<trkpt lat="52.53972244262695" lon="13.330511093139648">
<ele>75.4000015258789</ele>
<time>2014-02-16T15:44:40Z</time>
</trkpt>
<trkpt lat="52.5396728515625" lon="13.330397605895996">
<ele>75.69999694824219</ele>
<time>2014-02-16T15:44:42Z</time>
</trkpt>
<trkpt lat="52.53963088989258" lon="13.330280303955078">
<ele>75.9000015258789</ele>
<time>2014-02-16T15:44:44Z</time>
</trkpt>
<trkpt lat="52.53959655761719" lon="13.330158233642578">
<ele>76.30000305175781</ele>
<time>2014-02-16T15:44:46Z</time>
</trkpt>
<trkpt lat="52.5395622253418" lon="13.330050468444824">
<ele>75.80000305175781</ele>
<time>2014-02-16T15:44:48Z</time>
</trkpt>
<trkpt lat="52.53952407836914" lon="13.329943656921387">
<ele>75.69999694824219</ele>
<time>2014-02-16T15:44:50Z</time>
</trkpt>
<trkpt lat="52.53948974609375" lon="13.329843521118164">
<ele>77.4000015258789</ele>
<time>2014-02-16T15:44:52Z</time>
</trkpt>
<trkpt lat="52.539451599121094" lon="13.329737663269043">
<ele>78.19999694824219</ele>
<time>2014-02-16T15:44:54Z</time>
</trkpt>
<trkpt lat="52.53942108154297" lon="13.32962703704834">
<ele>78.19999694824219</ele>
<time>2014-02-16T15:44:56Z</time>
</trkpt>
<trkpt lat="52.539390563964844" lon="13.329516410827637">
<ele>77.80000305175781</ele>
<time>2014-02-16T15:44:58Z</time>
</trkpt>
<trkpt lat="52.53935241699219" lon="13.329394340515137">
<ele>78.5999984741211</ele>
<time>2014-02-16T15:45:00Z</time>
</trkpt>
<trkpt lat="52.53931427001953" lon="13.32927417755127">
<ele>78.5</ele>
<time>2014-02-16T15:45:02Z</time>
</trkpt>
<trkpt lat="52.539276123046875" lon="13.329150199890137">
<ele>78.80000305175781</ele>
<time>2014-02-16T15:45:04Z</time>
</trkpt>
<trkpt lat="52.53923797607422" lon="13.329029083251953">
<ele>78.5999984741211</ele>
<time>2014-02-16T15:45:06Z</time>
</trkpt>
<trkpt lat="52.5391960144043" lon="13.328904151916504">
<ele>79.0</ele>
<time>2014-02-16T15:45:08Z</time>
</trkpt>
<trkpt lat="52.53915786743164" lon="13.328784942626953">
<ele>78.19999694824219</ele>
<time>2014-02-16T15:45:10Z</time>
</trkpt>
<trkpt lat="52.53911209106445" lon="13.328652381896973">
<ele>78.0999984741211</ele>
<time>2014-02-16T15:45:12Z</time>
</trkpt>
<trkpt lat="52.53909683227539" lon="13.328573226928711">
<ele>78.19999694824219</ele>
<time>2014-02-16T15:45:13Z</time>
</trkpt>
<trkpt lat="52.539066314697266" lon="13.328441619873047">
<ele>77.69999694824219</ele>
<time>2014-02-16T15:45:15Z</time>
</trkpt>
<trkpt lat="52.5390510559082" lon="13.328369140625">
<ele>77.5999984741211</ele>
<time>2014-02-16T15:45:16Z</time>
</trkpt>
<trkpt lat="52.53901672363281" lon="13.328228950500488">
<ele>77.5999984741211</ele>
<time>2014-02-16T15:45:18Z</time>
</trkpt>
<trkpt lat="52.53899383544922" lon="13.328102111816406">
<ele>77.5999984741211</ele>
<time>2014-02-16T15:45:20Z</time>
</trkpt>
<trkpt lat="52.53896713256836" lon="13.327969551086426">
<ele>77.5</ele>
<time>2014-02-16T15:45:22Z</time>
</trkpt>
<trkpt lat="52.53894805908203" lon="13.327903747558594">
<ele>78.4000015258789</ele>
<time>2014-02-16T15:45:23Z</time>
</trkpt>
<trkpt lat="52.538917541503906" lon="13.327767372131348">
<ele>79.0</ele>
<time>2014-02-16T15:45:25Z</time>
</trkpt>
<trkpt lat="52.538883209228516" lon="13.327635765075684">
<ele>79.0</ele>
<time>2014-02-16T15:45:27Z</time>
</trkpt>
<trkpt lat="52.53885269165039" lon="13.32751178741455">
<ele>79.0</ele>
<time>2014-02-16T15:45:29Z</time>
</trkpt>
<trkpt lat="52.538818359375" lon="13.327392578125">
<ele>79.4000015258789</ele>
<time>2014-02-16T15:45:31Z</time>
</trkpt>
<trkpt lat="52.53878402709961" lon="13.327282905578613">
<ele>80.0</ele>
<time>2014-02-16T15:45:33Z</time>
</trkpt>
<trkpt lat="52.538753509521484" lon="13.327171325683594">
<ele>80.19999694824219</ele>
<time>2014-02-16T15:45:35Z</time>
</trkpt>
<trkpt lat="52.53872299194336" lon="13.327055931091309">
<ele>79.9000015258789</ele>
<time>2014-02-16T15:45:37Z</time>
</trkpt>
<trkpt lat="52.538700103759766" lon="13.32695484161377">
<ele>79.69999694824219</ele>
<time>2014-02-16T15:45:39Z</time>
</trkpt>
<trkpt lat="52.53866195678711" lon="13.326860427856445">
<ele>79.69999694824219</ele>
<time>2014-02-16T15:45:41Z</time>
</trkpt>
<trkpt lat="52.53863525390625" lon="13.326766967773438">
<ele>80.80000305175781</ele>
<time>2014-02-16T15:45:43Z</time>
</trkpt>
<trkpt lat="52.538612365722656" lon="13.32668685913086">
<ele>81.0999984741211</ele>
<time>2014-02-16T15:45:45Z</time>
</trkpt>
<trkpt lat="52.53859329223633" lon="13.32661247253418">
<ele>81.80000305175781</ele>
<time>2014-02-16T15:45:47Z</time>
</trkpt>
<trkpt lat="52.53858184814453" lon="13.32652759552002">
<ele>82.80000305175781</ele>
<time>2014-02-16T15:45:50Z</time>
</trkpt>
<trkpt lat="52.538570404052734" lon="13.326455116271973">
<ele>82.4000015258789</ele>
<time>2014-02-16T15:46:02Z</time>
</trkpt>
<trkpt lat="52.53852462768555" lon="13.326408386230469">
<ele>80.9000015258789</ele>
<time>2014-02-16T15:46:27Z</time>
</trkpt>
<trkpt lat="52.538482666015625" lon="13.326372146606445">
<ele>80.5</ele>
<time>2014-02-16T15:46:34Z</time>
</trkpt>
<trkpt lat="52.53845977783203" lon="13.326274871826172">
<ele>79.9000015258789</ele>
<time>2014-02-16T15:46:46Z</time>
</trkpt>
<trkpt lat="52.5384407043457" lon="13.326202392578125">
<ele>80.19999694824219</ele>
<time>2014-02-16T15:46:48Z</time>
</trkpt>
<trkpt lat="52.538421630859375" lon="13.326120376586914">
<ele>80.5999984741211</ele>
<time>2014-02-16T15:46:50Z</time>
</trkpt>
<trkpt lat="52.53840255737305" lon="13.326042175292969">
<ele>80.80000305175781</ele>
<time>2014-02-16T15:46:52Z</time>
</trkpt>
<trkpt lat="52.538387298583984" lon="13.32596206665039">
<ele>81.0</ele>
<time>2014-02-16T15:46:54Z</time>
</trkpt>
<trkpt lat="52.53838348388672" lon="13.325885772705078">
<ele>81.5999984741211</ele>
<time>2014-02-16T15:46:56Z</time>
</trkpt>
<trkpt lat="52.53839111328125" lon="13.3258056640625">
<ele>81.30000305175781</ele>
<time>2014-02-16T15:46:59Z</time>
</trkpt>
<trkpt lat="52.53834533691406" lon="13.325899124145508">
<ele>80.80000305175781</ele>
<time>2014-02-16T15:47:18Z</time>
</trkpt>
<trkpt lat="52.53829574584961" lon="13.325935363769531">
<ele>80.80000305175781</ele>
<time>2014-02-16T15:47:20Z</time>
</trkpt>
<trkpt lat="52.53823471069336" lon="13.32593822479248">
<ele>80.5999984741211</ele>
<time>2014-02-16T15:47:22Z</time>
</trkpt>
<trkpt lat="52.538177490234375" lon="13.325952529907227">
<ele>79.80000305175781</ele>
<time>2014-02-16T15:47:24Z</time>
</trkpt>
<trkpt lat="52.53812789916992" lon="13.325966835021973">
<ele>79.4000015258789</ele>
<time>2014-02-16T15:47:26Z</time>
</trkpt>
<trkpt lat="52.53807067871094" lon="13.325981140136719">
<ele>78.30000305175781</ele>
<time>2014-02-16T15:47:29Z</time>
</trkpt>
<trkpt lat="52.53802490234375" lon="13.32600212097168">
<ele>77.5</ele>
<time>2014-02-16T15:47:32Z</time>
</trkpt>
<trkpt lat="52.53798294067383" lon="13.326040267944336">
<ele>76.80000305175781</ele>
<time>2014-02-16T15:47:36Z</time>
</trkpt>
<trkpt lat="52.537933349609375" lon="13.326057434082031">
<ele>76.69999694824219</ele>
<time>2014-02-16T15:47:37Z</time>
</trkpt>
<trkpt lat="52.53788375854492" lon="13.326058387756348">
<ele>76.9000015258789</ele>
<time>2014-02-16T15:47:39Z</time>
</trkpt>
<trkpt lat="52.53787612915039" lon="13.326138496398926">
<ele>75.69999694824219</ele>
<time>2014-02-16T15:47:52Z</time>
</trkpt>
<trkpt lat="52.53793716430664" lon="13.326203346252441">
<ele>75.19999694824219</ele>
<time>2014-02-16T15:47:54Z</time>
</trkpt>
<trkpt lat="52.537986755371094" lon="13.326282501220703">
<ele>74.69999694824219</ele>
<time>2014-02-16T15:47:56Z</time>
</trkpt>
<trkpt lat="52.53803634643555" lon="13.326375007629395">
<ele>74.69999694824219</ele>
<time>2014-02-16T15:47:58Z</time>
</trkpt>
<trkpt lat="52.5380744934082" lon="13.326473236083984">
<ele>74.80000305175781</ele>
<time>2014-02-16T15:48:00Z</time>
</trkpt>
<trkpt lat="52.53807830810547" lon="13.3265962600708">
<ele>74.80000305175781</ele>
<time>2014-02-16T15:48:02Z</time>
</trkpt>
<trkpt lat="52.538082122802734" lon="13.326728820800781">
<ele>74.9000015258789</ele>
<time>2014-02-16T15:48:04Z</time>
</trkpt>
<trkpt lat="52.5380973815918" lon="13.3268461227417">
<ele>75.19999694824219</ele>
<time>2014-02-16T15:48:06Z</time>
</trkpt>
<trkpt lat="52.53812026977539" lon="13.326955795288086">
<ele>74.5999984741211</ele>
<time>2014-02-16T15:48:08Z</time>
</trkpt>
<trkpt lat="52.538143157958984" lon="13.32706356048584">
<ele>74.69999694824219</ele>
<time>2014-02-16T15:48:10Z</time>
</trkpt>
<trkpt lat="52.53816223144531" lon="13.32717227935791">
<ele>74.0999984741211</ele>
<time>2014-02-16T15:48:12Z</time>
</trkpt>
<trkpt lat="52.53818130493164" lon="13.327280044555664">
<ele>73.9000015258789</ele>
<time>2014-02-16T15:48:14Z</time>
</trkpt>
<trkpt lat="52.538204193115234" lon="13.32738971710205">
<ele>73.69999694824219</ele>
<time>2014-02-16T15:48:16Z</time>
</trkpt>
<trkpt lat="52.5382194519043" lon="13.327503204345703">
<ele>74.0</ele>
<time>2014-02-16T15:48:18Z</time>
</trkpt>
<trkpt lat="52.538246154785156" lon="13.32761287689209">
<ele>74.19999694824219</ele>
<time>2014-02-16T15:48:20Z</time>
</trkpt>
<trkpt lat="52.53827667236328" lon="13.327719688415527">
<ele>74.5999984741211</ele>
<time>2014-02-16T15:48:22Z</time>
</trkpt>
<trkpt lat="52.538326263427734" lon="13.327807426452637">
<ele>74.0999984741211</ele>
<time>2014-02-16T15:48:24Z</time>
</trkpt>
<trkpt lat="52.53833770751953" lon="13.3279447555542">
<ele>74.0</ele>
<time>2014-02-16T15:48:26Z</time>
</trkpt>
<trkpt lat="52.53834915161133" lon="13.3280611038208">
<ele>74.0999984741211</ele>
<time>2014-02-16T15:48:28Z</time>
</trkpt>
<trkpt lat="52.538352966308594" lon="13.328197479248047">
<ele>75.30000305175781</ele>
<time>2014-02-16T15:48:30Z</time>
</trkpt>
<trkpt lat="52.538352966308594" lon="13.328329086303711">
<ele>75.0</ele>
<time>2014-02-16T15:48:32Z</time>
</trkpt>
<trkpt lat="52.53835678100586" lon="13.328455924987793">
<ele>75.5</ele>
<time>2014-02-16T15:48:34Z</time>
</trkpt>
<trkpt lat="52.538360595703125" lon="13.328582763671875">
<ele>75.5</ele>
<time>2014-02-16T15:48:36Z</time>
</trkpt>
<trkpt lat="52.538368225097656" lon="13.328717231750488">
<ele>75.80000305175781</ele>
<time>2014-02-16T15:48:38Z</time>
</trkpt>
<trkpt lat="52.53837203979492" lon="13.328789710998535">
<ele>75.69999694824219</ele>
<time>2014-02-16T15:48:39Z</time>
</trkpt>
<trkpt lat="52.538387298583984" lon="13.328932762145996">
<ele>75.4000015258789</ele>
<time>2014-02-16T15:48:41Z</time>
</trkpt>
<trkpt lat="52.53840255737305" lon="13.329076766967773">
<ele>74.69999694824219</ele>
<time>2014-02-16T15:48:43Z</time>
</trkpt>
<trkpt lat="52.53843307495117" lon="13.32917308807373">
<ele>73.9000015258789</ele>
<time>2014-02-16T15:48:45Z</time>
</trkpt>
<trkpt lat="52.53847885131836" lon="13.329272270202637">
<ele>73.5999984741211</ele>
<time>2014-02-16T15:48:47Z</time>
</trkpt>
<trkpt lat="52.53852462768555" lon="13.329387664794922">
<ele>73.5</ele>
<time>2014-02-16T15:48:49Z</time>
</trkpt>
<trkpt lat="52.53855514526367" lon="13.329520225524902">
<ele>72.80000305175781</ele>
<time>2014-02-16T15:48:51Z</time>
</trkpt>
<trkpt lat="52.53861618041992" lon="13.329607009887695">
<ele>72.4000015258789</ele>
<time>2014-02-16T15:48:53Z</time>
</trkpt>
<trkpt lat="52.538639068603516" lon="13.329673767089844">
<ele>72.69999694824219</ele>
<time>2014-02-16T15:48:54Z</time>
</trkpt>
<trkpt lat="52.53868103027344" lon="13.329718589782715">
<ele>73.5</ele>
<time>2014-02-16T15:48:55Z</time>
</trkpt>
<trkpt lat="52.53874206542969" lon="13.329821586608887">
<ele>72.5999984741211</ele>
<time>2014-02-16T15:48:57Z</time>
</trkpt>
<trkpt lat="52.53879165649414" lon="13.329930305480957">
<ele>72.69999694824219</ele>
<time>2014-02-16T15:48:59Z</time>
</trkpt>
<trkpt lat="52.538841247558594" lon="13.33003044128418">
<ele>72.80000305175781</ele>
<time>2014-02-16T15:49:01Z</time>
</trkpt>
<trkpt lat="52.53889846801758" lon="13.33012580871582">
<ele>72.9000015258789</ele>
<time>2014-02-16T15:49:03Z</time>
</trkpt>
<trkpt lat="52.53895568847656" lon="13.330238342285156">
<ele>73.30000305175781</ele>
<time>2014-02-16T15:49:05Z</time>
</trkpt>
<trkpt lat="52.53901290893555" lon="13.330355644226074">
<ele>72.5</ele>
<time>2014-02-16T15:49:07Z</time>
</trkpt>
<trkpt lat="52.53904342651367" lon="13.330410957336426">
<ele>72.19999694824219</ele>
<time>2014-02-16T15:49:08Z</time>
</trkpt>
<trkpt lat="52.53907012939453" lon="13.330475807189941">
<ele>72.19999694824219</ele>
<time>2014-02-16T15:49:09Z</time>
</trkpt>
<trkpt lat="52.53909683227539" lon="13.33053970336914">
<ele>72.0999984741211</ele>
<time>2014-02-16T15:49:10Z</time>
</trkpt>
<trkpt lat="52.539119720458984" lon="13.33060359954834">
<ele>71.80000305175781</ele>
<time>2014-02-16T15:49:11Z</time>
</trkpt>
<trkpt lat="52.5391731262207" lon="13.330729484558105">
<ele>71.69999694824219</ele>
<time>2014-02-16T15:49:13Z</time>
</trkpt>
<trkpt lat="52.53923416137695" lon="13.330835342407227">
<ele>71.80000305175781</ele>
<time>2014-02-16T15:49:15Z</time>
</trkpt>
<trkpt lat="52.53927230834961" lon="13.330883979797363">
<ele>73.19999694824219</ele>
<time>2014-02-16T15:49:16Z</time>
</trkpt>
<trkpt lat="52.539310455322266" lon="13.330944061279297">
<ele>73.19999694824219</ele>
<time>2014-02-16T15:49:17Z</time>
</trkpt>
<trkpt lat="52.539371490478516" lon="13.331049919128418">
<ele>73.5</ele>
<time>2014-02-16T15:49:19Z</time>
</trkpt>
<trkpt lat="52.53940963745117" lon="13.331095695495605">
<ele>73.5999984741211</ele>
<time>2014-02-16T15:49:20Z</time>
</trkpt>
<trkpt lat="52.5394401550293" lon="13.331157684326172">
<ele>73.5</ele>
<time>2014-02-16T15:49:21Z</time>
</trkpt>
<trkpt lat="52.53947067260742" lon="13.331226348876953">
<ele>73.5</ele>
<time>2014-02-16T15:49:22Z</time>
</trkpt>
<trkpt lat="52.53949737548828" lon="13.331294059753418">
<ele>73.5</ele>
<time>2014-02-16T15:49:23Z</time>
</trkpt>
<trkpt lat="52.539527893066406" lon="13.331350326538086">
<ele>73.5</ele>
<time>2014-02-16T15:49:24Z</time>
</trkpt>
<trkpt lat="52.5395622253418" lon="13.331418991088867">
<ele>73.19999694824219</ele>
<time>2014-02-16T15:49:25Z</time>
</trkpt>
<trkpt lat="52.53959274291992" lon="13.331487655639648">
<ele>73.4000015258789</ele>
<time>2014-02-16T15:49:26Z</time>
</trkpt>
<trkpt lat="52.53962326049805" lon="13.331551551818848">
<ele>73.0</ele>
<time>2014-02-16T15:49:27Z</time>
</trkpt>
<trkpt lat="52.53965377807617" lon="13.331620216369629">
<ele>72.80000305175781</ele>
<time>2014-02-16T15:49:28Z</time>
</trkpt>
<trkpt lat="52.53968048095703" lon="13.331686973571777">
<ele>73.0999984741211</ele>
<time>2014-02-16T15:49:29Z</time>
</trkpt>
<trkpt lat="52.53972244262695" lon="13.331738471984863">
<ele>72.69999694824219</ele>
<time>2014-02-16T15:49:30Z</time>
</trkpt>
<trkpt lat="52.539756774902344" lon="13.331790924072266">
<ele>72.5</ele>
<time>2014-02-16T15:49:31Z</time>
</trkpt>
<trkpt lat="52.53978729248047" lon="13.331855773925781">
<ele>72.5</ele>
<time>2014-02-16T15:49:32Z</time>
</trkpt>
<trkpt lat="52.539852142333984" lon="13.331907272338867">
<ele>75.4000015258789</ele>
<time>2014-02-16T15:49:33Z</time>
</trkpt>
<trkpt lat="52.53990173339844" lon="13.332019805908203">
<ele>75.19999694824219</ele>
<time>2014-02-16T15:49:35Z</time>
</trkpt>
<trkpt lat="52.53993606567383" lon="13.332082748413086">
<ele>75.5</ele>
<time>2014-02-16T15:49:36Z</time>
</trkpt>
<trkpt lat="52.53996658325195" lon="13.332146644592285">
<ele>75.0999984741211</ele>
<time>2014-02-16T15:49:37Z</time>
</trkpt>
<trkpt lat="52.540016174316406" lon="13.33226203918457">
<ele>75.19999694824219</ele>
<time>2014-02-16T15:49:39Z</time>
</trkpt>
<trkpt lat="52.54005432128906" lon="13.332304000854492">
<ele>75.0</ele>
<time>2014-02-16T15:49:40Z</time>
</trkpt>
<trkpt lat="52.54010009765625" lon="13.332406997680664">
<ele>74.0999984741211</ele>
<time>2014-02-16T15:49:42Z</time>
</trkpt>
<trkpt lat="52.540130615234375" lon="13.332463264465332">
<ele>73.9000015258789</ele>
<time>2014-02-16T15:49:43Z</time>
</trkpt>
<trkpt lat="52.54018783569336" lon="13.332571029663086">
<ele>73.80000305175781</ele>
<time>2014-02-16T15:49:45Z</time>
</trkpt>
<trkpt lat="52.54021453857422" lon="13.332632064819336">
<ele>74.0</ele>
<time>2014-02-16T15:49:46Z</time>
</trkpt>
<trkpt lat="52.54024887084961" lon="13.332691192626953">
<ele>74.30000305175781</ele>
<time>2014-02-16T15:49:47Z</time>
</trkpt>
<trkpt lat="52.540279388427734" lon="13.332751274108887">
<ele>74.9000015258789</ele>
<time>2014-02-16T15:49:48Z</time>
</trkpt>
<trkpt lat="52.54030990600586" lon="13.332809448242188">
<ele>74.69999694824219</ele>
<time>2014-02-16T15:49:49Z</time>
</trkpt>
<trkpt lat="52.54035949707031" lon="13.332916259765625">
<ele>74.5</ele>
<time>2014-02-16T15:49:51Z</time>
</trkpt>
<trkpt lat="52.54039001464844" lon="13.332974433898926">
<ele>74.30000305175781</ele>
<time>2014-02-16T15:49:52Z</time>
</trkpt>
<trkpt lat="52.54042434692383" lon="13.333024024963379">
<ele>74.30000305175781</ele>
<time>2014-02-16T15:49:53Z</time>
</trkpt>
<trkpt lat="52.54047775268555" lon="13.333122253417969">
<ele>75.0</ele>
<time>2014-02-16T15:49:55Z</time>
</trkpt>
<trkpt lat="52.54051971435547" lon="13.333226203918457">
<ele>74.19999694824219</ele>
<time>2014-02-16T15:49:57Z</time>
</trkpt>
<trkpt lat="52.540550231933594" lon="13.333282470703125">
<ele>74.9000015258789</ele>
<time>2014-02-16T15:49:58Z</time>
</trkpt>
<trkpt lat="52.540611267089844" lon="13.333388328552246">
<ele>75.9000015258789</ele>
<time>2014-02-16T15:50:00Z</time>
</trkpt>
<trkpt lat="52.5406494140625" lon="13.333436965942383">
<ele>77.0999984741211</ele>
<time>2014-02-16T15:50:01Z</time>
</trkpt>
<trkpt lat="52.54069900512695" lon="13.333498001098633">
<ele>77.4000015258789</ele>
<time>2014-02-16T15:50:02Z</time>
</trkpt>
<trkpt lat="52.540733337402344" lon="13.333581924438477">
<ele>77.0999984741211</ele>
<time>2014-02-16T15:50:04Z</time>
</trkpt>
<trkpt lat="52.540767669677734" lon="13.333686828613281">
<ele>77.4000015258789</ele>
<time>2014-02-16T15:50:06Z</time>
</trkpt>
<trkpt lat="52.54081726074219" lon="13.333760261535645">
<ele>77.9000015258789</ele>
<time>2014-02-16T15:50:08Z</time>
</trkpt>
<trkpt lat="52.54085159301758" lon="13.333844184875488">
<ele>76.19999694824219</ele>
<time>2014-02-16T15:50:10Z</time>
</trkpt>
<trkpt lat="52.5408821105957" lon="13.333940505981445">
<ele>74.5</ele>
<time>2014-02-16T15:50:12Z</time>
</trkpt>
<trkpt lat="52.540931701660156" lon="13.334029197692871">
<ele>74.5</ele>
<time>2014-02-16T15:50:14Z</time>
</trkpt>
<trkpt lat="52.540985107421875" lon="13.334121704101562">
<ele>74.80000305175781</ele>
<time>2014-02-16T15:50:16Z</time>
</trkpt>
<trkpt lat="52.54103088378906" lon="13.334210395812988">
<ele>74.80000305175781</ele>
<time>2014-02-16T15:50:19Z</time>
</trkpt>
<trkpt lat="52.54111099243164" lon="13.334362983703613">
<ele>75.5</ele>
<time>2014-02-16T15:50:21Z</time>
</trkpt>
<trkpt lat="52.54115676879883" lon="13.33447551727295">
<ele>74.5999984741211</ele>
<time>2014-02-16T15:50:22Z</time>
</trkpt>
<trkpt lat="52.541194915771484" lon="13.334606170654297">
<ele>73.5</ele>
<time>2014-02-16T15:50:24Z</time>
</trkpt>
<trkpt lat="52.54122543334961" lon="13.334664344787598">
<ele>73.4000015258789</ele>
<time>2014-02-16T15:50:25Z</time>
</trkpt>
<trkpt lat="52.541255950927734" lon="13.334726333618164">
<ele>73.19999694824219</ele>
<time>2014-02-16T15:50:27Z</time>
</trkpt>
<trkpt lat="52.541297912597656" lon="13.334847450256348">
<ele>72.5999984741211</ele>
<time>2014-02-16T15:50:28Z</time>
</trkpt>
<trkpt lat="52.541351318359375" lon="13.334955215454102">
<ele>75.4000015258789</ele>
<time>2014-02-16T15:50:29Z</time>
</trkpt>
<trkpt lat="52.5413818359375" lon="13.335030555725098">
<ele>75.69999694824219</ele>
<time>2014-02-16T15:50:30Z</time>
</trkpt>
<trkpt lat="52.54142379760742" lon="13.335105895996094">
<ele>76.5</ele>
<time>2014-02-16T15:50:31Z</time>
</trkpt>
<trkpt lat="52.541465759277344" lon="13.335227012634277">
<ele>74.5999984741211</ele>
<time>2014-02-16T15:50:33Z</time>
</trkpt>
<trkpt lat="52.54152297973633" lon="13.335338592529297">
<ele>73.19999694824219</ele>
<time>2014-02-16T15:50:35Z</time>
</trkpt>
<trkpt lat="52.54155349731445" lon="13.335411071777344">
<ele>72.5999984741211</ele>
<time>2014-02-16T15:50:36Z</time>
</trkpt>
<trkpt lat="52.54158401489258" lon="13.335481643676758">
<ele>72.30000305175781</ele>
<time>2014-02-16T15:50:37Z</time>
</trkpt>
<trkpt lat="52.5416145324707" lon="13.335555076599121">
<ele>72.4000015258789</ele>
<time>2014-02-16T15:50:38Z</time>
</trkpt>
<trkpt lat="52.541648864746094" lon="13.335626602172852">
<ele>72.30000305175781</ele>
<time>2014-02-16T15:50:39Z</time>
</trkpt>
<trkpt lat="52.54168701171875" lon="13.335679054260254">
<ele>72.69999694824219</ele>
<time>2014-02-16T15:50:40Z</time>
</trkpt>
<trkpt lat="52.54174041748047" lon="13.33578872680664">
<ele>72.4000015258789</ele>
<time>2014-02-16T15:50:42Z</time>
</trkpt>
<trkpt lat="52.541786193847656" lon="13.335881233215332">
<ele>72.19999694824219</ele>
<time>2014-02-16T15:50:44Z</time>
</trkpt>
<trkpt lat="52.541812896728516" lon="13.33596134185791">
<ele>69.80000305175781</ele>
<time>2014-02-16T15:50:56Z</time>
</trkpt>
<trkpt lat="52.54185485839844" lon="13.33605670928955">
<ele>68.9000015258789</ele>
<time>2014-02-16T15:50:58Z</time>
</trkpt>
<trkpt lat="52.54193115234375" lon="13.336143493652344">
<ele>69.0999984741211</ele>
<time>2014-02-16T15:51:00Z</time>
</trkpt>
<trkpt lat="52.5419921875" lon="13.336237907409668">
<ele>68.4000015258789</ele>
<time>2014-02-16T15:51:02Z</time>
</trkpt>
<trkpt lat="52.54202651977539" lon="13.336288452148438">
<ele>68.4000015258789</ele>
<time>2014-02-16T15:51:03Z</time>
</trkpt>
<trkpt lat="52.542091369628906" lon="13.336398124694824">
<ele>69.4000015258789</ele>
<time>2014-02-16T15:51:05Z</time>
</trkpt>
<trkpt lat="52.54212951660156" lon="13.336454391479492">
<ele>70.0</ele>
<time>2014-02-16T15:51:06Z</time>
</trkpt>
<trkpt lat="52.54214096069336" lon="13.336531639099121">
<ele>69.5999984741211</ele>
<time>2014-02-16T15:51:07Z</time>
</trkpt>
<trkpt lat="52.542110443115234" lon="13.33664608001709">
<ele>70.5999984741211</ele>
<time>2014-02-16T15:51:10Z</time>
</trkpt>
<trkpt lat="52.54204177856445" lon="13.336688041687012">
<ele>72.0999984741211</ele>
<time>2014-02-16T15:51:10Z</time>
</trkpt>
<trkpt lat="52.541961669921875" lon="13.336767196655273">
<ele>70.69999694824219</ele>
<time>2014-02-16T15:51:12Z</time>
</trkpt>
<trkpt lat="52.54188537597656" lon="13.336860656738281">
<ele>71.0999984741211</ele>
<time>2014-02-16T15:51:14Z</time>
</trkpt>
<trkpt lat="52.541839599609375" lon="13.336917877197266">
<ele>70.4000015258789</ele>
<time>2014-02-16T15:51:15Z</time>
</trkpt>
<trkpt lat="52.541805267333984" lon="13.336976051330566">
<ele>71.0</ele>
<time>2014-02-16T15:51:16Z</time>
</trkpt>
<trkpt lat="52.541744232177734" lon="13.337071418762207">
<ele>71.30000305175781</ele>
<time>2014-02-16T15:51:18Z</time>
</trkpt>
<trkpt lat="52.54166793823242" lon="13.33718490600586">
<ele>70.5999984741211</ele>
<time>2014-02-16T15:51:20Z</time>
</trkpt>
<trkpt lat="52.541629791259766" lon="13.337244033813477">
<ele>70.4000015258789</ele>
<time>2014-02-16T15:51:21Z</time>
</trkpt>
<trkpt lat="52.54159164428711" lon="13.337289810180664">
<ele>70.30000305175781</ele>
<time>2014-02-16T15:51:22Z</time>
</trkpt>
<trkpt lat="52.54155349731445" lon="13.337331771850586">
<ele>70.5999984741211</ele>
<time>2014-02-16T15:51:23Z</time>
</trkpt>
<trkpt lat="52.54151153564453" lon="13.337390899658203">
<ele>70.5</ele>
<time>2014-02-16T15:51:24Z</time>
</trkpt>
<trkpt lat="52.541446685791016" lon="13.337492942810059">
<ele>70.69999694824219</ele>
<time>2014-02-16T15:51:26Z</time>
</trkpt>
<trkpt lat="52.54138946533203" lon="13.337599754333496">
<ele>69.80000305175781</ele>
<time>2014-02-16T15:51:28Z</time>
</trkpt>
<trkpt lat="52.54135513305664" lon="13.337672233581543">
<ele>70.5</ele>
<time>2014-02-16T15:51:30Z</time>
</trkpt>
<trkpt lat="52.541324615478516" lon="13.337727546691895">
<ele>71.69999694824219</ele>
<time>2014-02-16T15:51:30Z</time>
</trkpt>
<trkpt lat="52.54129409790039" lon="13.33777904510498">
<ele>72.5</ele>
<time>2014-02-16T15:51:31Z</time>
</trkpt>
<trkpt lat="52.541259765625" lon="13.337838172912598">
<ele>72.69999694824219</ele>
<time>2014-02-16T15:51:32Z</time>
</trkpt>
<trkpt lat="52.54121780395508" lon="13.337900161743164">
<ele>72.80000305175781</ele>
<time>2014-02-16T15:51:33Z</time>
</trkpt>
<trkpt lat="52.54117202758789" lon="13.337933540344238">
<ele>72.5</ele>
<time>2014-02-16T15:51:34Z</time>
</trkpt>
<trkpt lat="52.54110336303711" lon="13.338032722473145">
<ele>71.5999984741211</ele>
<time>2014-02-16T15:51:36Z</time>
</trkpt>
<trkpt lat="52.541038513183594" lon="13.33812427520752">
<ele>70.5999984741211</ele>
<time>2014-02-16T15:51:38Z</time>
</trkpt>
<trkpt lat="52.54099655151367" lon="13.33816909790039">
<ele>70.5</ele>
<time>2014-02-16T15:51:39Z</time>
</trkpt>
<trkpt lat="52.540958404541016" lon="13.338217735290527">
<ele>70.30000305175781</ele>
<time>2014-02-16T15:51:40Z</time>
</trkpt>
<trkpt lat="52.54090118408203" lon="13.338289260864258">
<ele>68.80000305175781</ele>
<time>2014-02-16T15:51:42Z</time>
</trkpt>
<trkpt lat="52.54086685180664" lon="13.338356018066406">
<ele>68.80000305175781</ele>
<time>2014-02-16T15:51:42Z</time>
</trkpt>
<trkpt lat="52.540836334228516" lon="13.338414192199707">
<ele>68.69999694824219</ele>
<time>2014-02-16T15:51:43Z</time>
</trkpt>
<trkpt lat="52.54079818725586" lon="13.338462829589844">
<ele>68.5999984741211</ele>
<time>2014-02-16T15:51:44Z</time>
</trkpt>
<trkpt lat="52.54074478149414" lon="13.338554382324219">
<ele>68.4000015258789</ele>
<time>2014-02-16T15:51:46Z</time>
</trkpt>
<trkpt lat="52.54069900512695" lon="13.338639259338379">
<ele>69.0</ele>
<time>2014-02-16T15:51:49Z</time>
</trkpt>
<trkpt lat="52.54063415527344" lon="13.338744163513184">
<ele>69.5</ele>
<time>2014-02-16T15:51:50Z</time>
</trkpt>
<trkpt lat="52.54056167602539" lon="13.338812828063965">
<ele>72.19999694824219</ele>
<time>2014-02-16T15:51:52Z</time>
</trkpt>
<trkpt lat="52.5405158996582" lon="13.338862419128418">
<ele>71.9000015258789</ele>
<time>2014-02-16T15:51:53Z</time>
</trkpt>
<trkpt lat="52.54047775268555" lon="13.338907241821289">
<ele>72.5999984741211</ele>
<time>2014-02-16T15:51:53Z</time>
</trkpt>
<trkpt lat="52.540435791015625" lon="13.338959693908691">
<ele>72.30000305175781</ele>
<time>2014-02-16T15:51:54Z</time>
</trkpt>
<trkpt lat="52.54039764404297" lon="13.339006423950195">
<ele>71.9000015258789</ele>
<time>2014-02-16T15:51:55Z</time>
</trkpt>
<trkpt lat="52.54036331176758" lon="13.339056968688965">
<ele>71.69999694824219</ele>
<time>2014-02-16T15:51:56Z</time>
</trkpt>
<trkpt lat="52.54029846191406" lon="13.339154243469238">
<ele>71.0</ele>
<time>2014-02-16T15:51:58Z</time>
</trkpt>
<trkpt lat="52.540245056152344" lon="13.339215278625488">
<ele>70.4000015258789</ele>
<time>2014-02-16T15:51:59Z</time>
</trkpt>
<trkpt lat="52.54021072387695" lon="13.339272499084473">
<ele>70.80000305175781</ele>
<time>2014-02-16T15:52:00Z</time>
</trkpt>
<trkpt lat="52.540138244628906" lon="13.33936595916748">
<ele>70.0</ele>
<time>2014-02-16T15:52:02Z</time>
</trkpt>
<trkpt lat="52.54010009765625" lon="13.339422225952148">
<ele>69.9000015258789</ele>
<time>2014-02-16T15:52:05Z</time>
</trkpt>
<trkpt lat="52.54002380371094" lon="13.339513778686523">
<ele>70.5</ele>
<time>2014-02-16T15:52:07Z</time>
</trkpt>
<trkpt lat="52.53990936279297" lon="13.339644432067871">
<ele>69.69999694824219</ele>
<time>2014-02-16T15:52:09Z</time>
</trkpt>
<trkpt lat="52.53986740112305" lon="13.339740753173828">
<ele>69.0999984741211</ele>
<time>2014-02-16T15:52:10Z</time>
</trkpt>
<trkpt lat="52.53981018066406" lon="13.33984375">
<ele>68.9000015258789</ele>
<time>2014-02-16T15:52:12Z</time>
</trkpt>
<trkpt lat="52.539791107177734" lon="13.339951515197754">
<ele>67.69999694824219</ele>
<time>2014-02-16T15:52:14Z</time>
</trkpt>
<trkpt lat="52.53976058959961" lon="13.340044021606445">
<ele>68.69999694824219</ele>
<time>2014-02-16T15:52:15Z</time>
</trkpt>
<trkpt lat="52.53974151611328" lon="13.340170860290527">
<ele>67.69999694824219</ele>
<time>2014-02-16T15:52:17Z</time>
</trkpt>
<trkpt lat="52.53972625732422" lon="13.340259552001953">
<ele>68.19999694824219</ele>
<time>2014-02-16T15:52:18Z</time>
</trkpt>
<trkpt lat="52.539710998535156" lon="13.340340614318848">
<ele>69.0999984741211</ele>
<time>2014-02-16T15:52:19Z</time>
</trkpt>
<trkpt lat="52.539695739746094" lon="13.340418815612793">
<ele>69.9000015258789</ele>
<time>2014-02-16T15:52:20Z</time>
</trkpt>
<trkpt lat="52.539676666259766" lon="13.340490341186523">
<ele>69.5</ele>
<time>2014-02-16T15:52:21Z</time>
</trkpt>
<trkpt lat="52.53966522216797" lon="13.340566635131836">
<ele>69.69999694824219</ele>
<time>2014-02-16T15:52:22Z</time>
</trkpt>
<trkpt lat="52.53965377807617" lon="13.340644836425781">
<ele>70.5999984741211</ele>
<time>2014-02-16T15:52:23Z</time>
</trkpt>
<trkpt lat="52.539634704589844" lon="13.340791702270508">
<ele>70.69999694824219</ele>
<time>2014-02-16T15:52:25Z</time>
</trkpt>
<trkpt lat="52.53962326049805" lon="13.340872764587402">
<ele>70.5999984741211</ele>
<time>2014-02-16T15:52:26Z</time>
</trkpt>
<trkpt lat="52.539615631103516" lon="13.340947151184082">
<ele>70.5999984741211</ele>
<time>2014-02-16T15:52:27Z</time>
</trkpt>
<trkpt lat="52.539588928222656" lon="13.341102600097656">
<ele>71.0</ele>
<time>2014-02-16T15:52:29Z</time>
</trkpt>
<trkpt lat="52.53956985473633" lon="13.341239929199219">
<ele>71.5999984741211</ele>
<time>2014-02-16T15:52:31Z</time>
</trkpt>
<trkpt lat="52.53955841064453" lon="13.341313362121582">
<ele>72.30000305175781</ele>
<time>2014-02-16T15:52:32Z</time>
</trkpt>
<trkpt lat="52.53954315185547" lon="13.341450691223145">
<ele>73.0</ele>
<time>2014-02-16T15:52:34Z</time>
</trkpt>
<trkpt lat="52.53953552246094" lon="13.341590881347656">
<ele>73.0999984741211</ele>
<time>2014-02-16T15:52:36Z</time>
</trkpt>
<trkpt lat="52.539527893066406" lon="13.341728210449219">
<ele>77.5</ele>
<time>2014-02-16T15:52:38Z</time>
</trkpt>
<trkpt lat="52.53952407836914" lon="13.341801643371582">
<ele>78.30000305175781</ele>
<time>2014-02-16T15:52:39Z</time>
</trkpt>
<trkpt lat="52.53950119018555" lon="13.34195327758789">
<ele>77.0999984741211</ele>
<time>2014-02-16T15:52:41Z</time>
</trkpt>
<trkpt lat="52.53948974609375" lon="13.342040061950684">
<ele>77.9000015258789</ele>
<time>2014-02-16T15:52:42Z</time>
</trkpt>
<trkpt lat="52.53947830200195" lon="13.342127799987793">
<ele>77.4000015258789</ele>
<time>2014-02-16T15:52:43Z</time>
</trkpt>
<trkpt lat="52.539466857910156" lon="13.342253684997559">
<ele>75.69999694824219</ele>
<time>2014-02-16T15:52:45Z</time>
</trkpt>
<trkpt lat="52.53944396972656" lon="13.342411041259766">
<ele>76.80000305175781</ele>
<time>2014-02-16T15:52:47Z</time>
</trkpt>
<trkpt lat="52.539432525634766" lon="13.342488288879395">
<ele>77.19999694824219</ele>
<time>2014-02-16T15:52:48Z</time>
</trkpt>
<trkpt lat="52.53942108154297" lon="13.342559814453125">
<ele>77.4000015258789</ele>
<time>2014-02-16T15:52:49Z</time>
</trkpt>
<trkpt lat="52.53941345214844" lon="13.342638969421387">
<ele>77.5</ele>
<time>2014-02-16T15:52:50Z</time>
</trkpt>
<trkpt lat="52.539405822753906" lon="13.34272575378418">
<ele>76.9000015258789</ele>
<time>2014-02-16T15:52:51Z</time>
</trkpt>
<trkpt lat="52.53939437866211" lon="13.342803955078125">
<ele>76.4000015258789</ele>
<time>2014-02-16T15:52:52Z</time>
</trkpt>
<trkpt lat="52.539371490478516" lon="13.342869758605957">
<ele>76.69999694824219</ele>
<time>2014-02-16T15:52:53Z</time>
</trkpt>
<trkpt lat="52.53935623168945" lon="13.342949867248535">
<ele>76.19999694824219</ele>
<time>2014-02-16T15:52:54Z</time>
</trkpt>
<trkpt lat="52.53933334350586" lon="13.343079566955566">
<ele>75.0999984741211</ele>
<time>2014-02-16T15:52:56Z</time>
</trkpt>
<trkpt lat="52.539302825927734" lon="13.343182563781738">
<ele>78.19999694824219</ele>
<time>2014-02-16T15:52:57Z</time>
</trkpt>
<trkpt lat="52.53927993774414" lon="13.343263626098633">
<ele>78.9000015258789</ele>
<time>2014-02-16T15:52:58Z</time>
</trkpt>
<trkpt lat="52.53926467895508" lon="13.343400001525879">
<ele>78.80000305175781</ele>
<time>2014-02-16T15:53:01Z</time>
</trkpt>
<trkpt lat="52.539222717285156" lon="13.343530654907227">
<ele>78.30000305175781</ele>
<time>2014-02-16T15:53:02Z</time>
</trkpt>
<trkpt lat="52.5391960144043" lon="13.343658447265625">
<ele>78.19999694824219</ele>
<time>2014-02-16T15:53:04Z</time>
</trkpt>
<trkpt lat="52.539188385009766" lon="13.343772888183594">
<ele>78.0</ele>
<time>2014-02-16T15:53:06Z</time>
</trkpt>
<trkpt lat="52.539188385009766" lon="13.343893051147461">
<ele>76.4000015258789</ele>
<time>2014-02-16T15:53:08Z</time>
</trkpt>
<trkpt lat="52.53916549682617" lon="13.343958854675293">
<ele>77.0999984741211</ele>
<time>2014-02-16T15:53:09Z</time>
</trkpt>
<trkpt lat="52.53915786743164" lon="13.344075202941895">
<ele>75.9000015258789</ele>
<time>2014-02-16T15:53:11Z</time>
</trkpt>
<trkpt lat="52.53914260864258" lon="13.344192504882812">
<ele>75.80000305175781</ele>
<time>2014-02-16T15:53:13Z</time>
</trkpt>
<trkpt lat="52.539119720458984" lon="13.34430980682373">
<ele>75.19999694824219</ele>
<time>2014-02-16T15:53:16Z</time>
</trkpt>
<trkpt lat="52.53909683227539" lon="13.3444185256958">
<ele>74.9000015258789</ele>
<time>2014-02-16T15:53:17Z</time>
</trkpt>
<trkpt lat="52.53908157348633" lon="13.344518661499023">
<ele>74.9000015258789</ele>
<time>2014-02-16T15:53:19Z</time>
</trkpt>
<trkpt lat="52.53907012939453" lon="13.344594955444336">
<ele>74.5</ele>
<time>2014-02-16T15:53:21Z</time>
</trkpt>
<trkpt lat="52.539066314697266" lon="13.344683647155762">
<ele>74.4000015258789</ele>
<time>2014-02-16T15:53:24Z</time>
</trkpt>
<trkpt lat="52.539058685302734" lon="13.3447904586792">
<ele>74.80000305175781</ele>
<time>2014-02-16T15:53:30Z</time>
</trkpt>
<trkpt lat="52.5390510559082" lon="13.344887733459473">
<ele>74.80000305175781</ele>
<time>2014-02-16T15:53:32Z</time>
</trkpt>
<trkpt lat="52.53904342651367" lon="13.344990730285645">
<ele>73.9000015258789</ele>
<time>2014-02-16T15:53:34Z</time>
</trkpt>
<trkpt lat="52.539031982421875" lon="13.345110893249512">
<ele>73.19999694824219</ele>
<time>2014-02-16T15:53:36Z</time>
</trkpt>
<trkpt lat="52.53902053833008" lon="13.345233917236328">
<ele>72.9000015258789</ele>
<time>2014-02-16T15:53:38Z</time>
</trkpt>
<trkpt lat="52.538997650146484" lon="13.345370292663574">
<ele>72.69999694824219</ele>
<time>2014-02-16T15:53:40Z</time>
</trkpt>
<trkpt lat="52.538978576660156" lon="13.345443725585938">
<ele>73.0999984741211</ele>
<time>2014-02-16T15:53:41Z</time>
</trkpt>
<trkpt lat="52.5389518737793" lon="13.34557819366455">
<ele>73.19999694824219</ele>
<time>2014-02-16T15:53:43Z</time>
</trkpt>
<trkpt lat="52.53893280029297" lon="13.345715522766113">
<ele>72.19999694824219</ele>
<time>2014-02-16T15:53:45Z</time>
</trkpt>
<trkpt lat="52.538909912109375" lon="13.345865249633789">
<ele>72.19999694824219</ele>
<time>2014-02-16T15:53:47Z</time>
</trkpt>
<trkpt lat="52.538902282714844" lon="13.346006393432617">
<ele>71.9000015258789</ele>
<time>2014-02-16T15:53:49Z</time>
</trkpt>
<trkpt lat="52.53889083862305" lon="13.346078872680664">
<ele>71.69999694824219</ele>
<time>2014-02-16T15:53:50Z</time>
</trkpt>
<trkpt lat="52.53885269165039" lon="13.346244812011719">
<ele>72.69999694824219</ele>
<time>2014-02-16T15:53:52Z</time>
</trkpt>
<trkpt lat="52.538848876953125" lon="13.34632682800293">
<ele>72.80000305175781</ele>
<time>2014-02-16T15:53:53Z</time>
</trkpt>
<trkpt lat="52.53883743286133" lon="13.346400260925293">
<ele>73.0</ele>
<time>2014-02-16T15:53:54Z</time>
</trkpt>
<trkpt lat="52.53882598876953" lon="13.346473693847656">
<ele>73.30000305175781</ele>
<time>2014-02-16T15:53:55Z</time>
</trkpt>
<trkpt lat="52.53881072998047" lon="13.346609115600586">
<ele>73.5</ele>
<time>2014-02-16T15:53:57Z</time>
</trkpt>
<trkpt lat="52.538795471191406" lon="13.346681594848633">
<ele>73.0999984741211</ele>
<time>2014-02-16T15:53:58Z</time>
</trkpt>
<trkpt lat="52.538787841796875" lon="13.346817970275879">
<ele>73.4000015258789</ele>
<time>2014-02-16T15:54:00Z</time>
</trkpt>
<trkpt lat="52.538787841796875" lon="13.346953392028809">
<ele>73.9000015258789</ele>
<time>2014-02-16T15:54:02Z</time>
</trkpt>
<trkpt lat="52.53878402709961" lon="13.347074508666992">
<ele>73.9000015258789</ele>
<time>2014-02-16T15:54:04Z</time>
</trkpt>
<trkpt lat="52.53877639770508" lon="13.347153663635254">
<ele>74.19999694824219</ele>
<time>2014-02-16T15:54:05Z</time>
</trkpt>
<trkpt lat="52.538780212402344" lon="13.347295761108398">
<ele>73.9000015258789</ele>
<time>2014-02-16T15:54:07Z</time>
</trkpt>
<trkpt lat="52.538780212402344" lon="13.347373962402344">
<ele>73.80000305175781</ele>
<time>2014-02-16T15:54:08Z</time>
</trkpt>
<trkpt lat="52.53877639770508" lon="13.347447395324707">
<ele>73.5</ele>
<time>2014-02-16T15:54:09Z</time>
</trkpt>
<trkpt lat="52.53877639770508" lon="13.34752368927002">
<ele>73.0999984741211</ele>
<time>2014-02-16T15:54:10Z</time>
</trkpt>
<trkpt lat="52.53877258300781" lon="13.347601890563965">
<ele>73.5999984741211</ele>
<time>2014-02-16T15:54:11Z</time>
</trkpt>
<trkpt lat="52.53876495361328" lon="13.34769344329834">
<ele>74.9000015258789</ele>
<time>2014-02-16T15:54:14Z</time>
</trkpt>
<trkpt lat="52.53875732421875" lon="13.347841262817383">
<ele>76.5</ele>
<time>2014-02-16T15:54:16Z</time>
</trkpt>
<trkpt lat="52.53876495361328" lon="13.347960472106934">
<ele>75.9000015258789</ele>
<time>2014-02-16T15:54:17Z</time>
</trkpt>
<trkpt lat="52.53874206542969" lon="13.348135948181152">
<ele>76.0999984741211</ele>
<time>2014-02-16T15:54:19Z</time>
</trkpt>
<trkpt lat="52.53875732421875" lon="13.348271369934082">
<ele>76.5999984741211</ele>
<time>2014-02-16T15:54:21Z</time>
</trkpt>
<trkpt lat="52.53877258300781" lon="13.348405838012695">
<ele>76.69999694824219</ele>
<time>2014-02-16T15:54:23Z</time>
</trkpt>
<trkpt lat="52.53877639770508" lon="13.348542213439941">
<ele>74.5</ele>
<time>2014-02-16T15:54:25Z</time>
</trkpt>
<trkpt lat="52.538787841796875" lon="13.348664283752441">
<ele>73.9000015258789</ele>
<time>2014-02-16T15:54:27Z</time>
</trkpt>
<trkpt lat="52.5388069152832" lon="13.348774909973145">
<ele>74.80000305175781</ele>
<time>2014-02-16T15:54:29Z</time>
</trkpt>
<trkpt lat="52.538818359375" lon="13.348892211914062">
<ele>75.30000305175781</ele>
<time>2014-02-16T15:54:31Z</time>
</trkpt>
<trkpt lat="52.53883361816406" lon="13.34901237487793">
<ele>74.9000015258789</ele>
<time>2014-02-16T15:54:33Z</time>
</trkpt>
<trkpt lat="52.538856506347656" lon="13.34912395477295">
<ele>73.5</ele>
<time>2014-02-16T15:54:35Z</time>
</trkpt>
<trkpt lat="52.53889465332031" lon="13.349246978759766">
<ele>74.30000305175781</ele>
<time>2014-02-16T15:54:37Z</time>
</trkpt>
<trkpt lat="52.538909912109375" lon="13.349361419677734">
<ele>74.19999694824219</ele>
<time>2014-02-16T15:54:39Z</time>
</trkpt>
<trkpt lat="52.538944244384766" lon="13.349478721618652">
<ele>73.30000305175781</ele>
<time>2014-02-16T15:54:41Z</time>
</trkpt>
<trkpt lat="52.53898239135742" lon="13.349581718444824">
<ele>74.4000015258789</ele>
<time>2014-02-16T15:54:43Z</time>
</trkpt>
<trkpt lat="52.53900909423828" lon="13.349701881408691">
<ele>74.0</ele>
<time>2014-02-16T15:54:45Z</time>
</trkpt>
<trkpt lat="52.539024353027344" lon="13.349776268005371">
<ele>74.0</ele>
<time>2014-02-16T15:54:46Z</time>
</trkpt>
<trkpt lat="52.53904724121094" lon="13.349845886230469">
<ele>74.0999984741211</ele>
<time>2014-02-16T15:54:47Z</time>
</trkpt>
<trkpt lat="52.539066314697266" lon="13.349977493286133">
<ele>74.19999694824219</ele>
<time>2014-02-16T15:54:49Z</time>
</trkpt>
<trkpt lat="52.53908157348633" lon="13.35004997253418">
<ele>73.9000015258789</ele>
<time>2014-02-16T15:54:50Z</time>
</trkpt>
<trkpt lat="52.53908920288086" lon="13.350122451782227">
<ele>74.19999694824219</ele>
<time>2014-02-16T15:54:51Z</time>
</trkpt>
<trkpt lat="52.53910827636719" lon="13.35019302368164">
<ele>74.30000305175781</ele>
<time>2014-02-16T15:54:52Z</time>
</trkpt>
<trkpt lat="52.539127349853516" lon="13.350333213806152">
<ele>74.19999694824219</ele>
<time>2014-02-16T15:54:54Z</time>
</trkpt>
<trkpt lat="52.539154052734375" lon="13.350468635559082">
<ele>73.9000015258789</ele>
<time>2014-02-16T15:54:56Z</time>
</trkpt>
<trkpt lat="52.53919219970703" lon="13.3505859375">
<ele>74.4000015258789</ele>
<time>2014-02-16T15:54:58Z</time>
</trkpt>
<trkpt lat="52.53922653198242" lon="13.350707054138184">
<ele>74.9000015258789</ele>
<time>2014-02-16T15:55:00Z</time>
</trkpt>
<trkpt lat="52.53925704956055" lon="13.350841522216797">
<ele>75.0</ele>
<time>2014-02-16T15:55:02Z</time>
</trkpt>
<trkpt lat="52.53926086425781" lon="13.350958824157715">
<ele>73.80000305175781</ele>
<time>2014-02-16T15:55:04Z</time>
</trkpt>
<trkpt lat="52.53928756713867" lon="13.351086616516113">
<ele>73.69999694824219</ele>
<time>2014-02-16T15:55:06Z</time>
</trkpt>
<trkpt lat="52.53931427001953" lon="13.351197242736816">
<ele>74.0999984741211</ele>
<time>2014-02-16T15:55:08Z</time>
</trkpt>
<trkpt lat="52.539337158203125" lon="13.351265907287598">
<ele>74.30000305175781</ele>
<time>2014-02-16T15:55:09Z</time>
</trkpt>
<trkpt lat="52.539371490478516" lon="13.351400375366211">
<ele>74.4000015258789</ele>
<time>2014-02-16T15:55:11Z</time>
</trkpt>
<trkpt lat="52.53938674926758" lon="13.351471900939941">
<ele>74.5</ele>
<time>2014-02-16T15:55:12Z</time>
</trkpt>
<trkpt lat="52.539405822753906" lon="13.351546287536621">
<ele>74.69999694824219</ele>
<time>2014-02-16T15:55:13Z</time>
</trkpt>
<trkpt lat="52.5394172668457" lon="13.351618766784668">
<ele>74.4000015258789</ele>
<time>2014-02-16T15:55:14Z</time>
</trkpt>
<trkpt lat="52.53943634033203" lon="13.351752281188965">
<ele>72.9000015258789</ele>
<time>2014-02-16T15:55:16Z</time>
</trkpt>
<trkpt lat="52.53944778442383" lon="13.351824760437012">
<ele>72.80000305175781</ele>
<time>2014-02-16T15:55:17Z</time>
</trkpt>
<trkpt lat="52.53947830200195" lon="13.35195255279541">
<ele>72.30000305175781</ele>
<time>2014-02-16T15:55:19Z</time>
</trkpt>
<trkpt lat="52.53951644897461" lon="13.352076530456543">
<ele>72.80000305175781</ele>
<time>2014-02-16T15:55:21Z</time>
</trkpt>
<trkpt lat="52.539546966552734" lon="13.352191925048828">
<ele>72.5999984741211</ele>
<time>2014-02-16T15:55:23Z</time>
</trkpt>
<trkpt lat="52.539573669433594" lon="13.352313995361328">
<ele>72.9000015258789</ele>
<time>2014-02-16T15:55:25Z</time>
</trkpt>
<trkpt lat="52.53961181640625" lon="13.352431297302246">
<ele>73.4000015258789</ele>
<time>2014-02-16T15:55:27Z</time>
</trkpt>
<trkpt lat="52.53963088989258" lon="13.352533340454102">
<ele>73.4000015258789</ele>
<time>2014-02-16T15:55:29Z</time>
</trkpt>
<trkpt lat="52.53965377807617" lon="13.35264778137207">
<ele>73.80000305175781</ele>
<time>2014-02-16T15:55:31Z</time>
</trkpt>
<trkpt lat="52.53968048095703" lon="13.352758407592773">
<ele>73.5999984741211</ele>
<time>2014-02-16T15:55:33Z</time>
</trkpt>
<trkpt lat="52.53972625732422" lon="13.352842330932617">
<ele>73.19999694824219</ele>
<time>2014-02-16T15:55:35Z</time>
</trkpt>
<trkpt lat="52.53974533081055" lon="13.352959632873535">
<ele>72.9000015258789</ele>
<time>2014-02-16T15:55:37Z</time>
</trkpt>
<trkpt lat="52.53976058959961" lon="13.353092193603516">
<ele>72.69999694824219</ele>
<time>2014-02-16T15:55:39Z</time>
</trkpt>
<trkpt lat="52.53977584838867" lon="13.353236198425293">
<ele>72.30000305175781</ele>
<time>2014-02-16T15:55:41Z</time>
</trkpt>
<trkpt lat="52.5397834777832" lon="13.353382110595703">
<ele>72.30000305175781</ele>
<time>2014-02-16T15:55:43Z</time>
</trkpt>
<trkpt lat="52.53978729248047" lon="13.353456497192383">
<ele>72.0999984741211</ele>
<time>2014-02-16T15:55:44Z</time>
</trkpt>
<trkpt lat="52.539798736572266" lon="13.353591918945312">
<ele>71.9000015258789</ele>
<time>2014-02-16T15:55:46Z</time>
</trkpt>
<trkpt lat="52.5398063659668" lon="13.35373306274414">
<ele>70.9000015258789</ele>
<time>2014-02-16T15:55:48Z</time>
</trkpt>
<trkpt lat="52.53980255126953" lon="13.353809356689453">
<ele>70.9000015258789</ele>
<time>2014-02-16T15:55:49Z</time>
</trkpt>
<trkpt lat="52.53980255126953" lon="13.35388469696045">
<ele>70.80000305175781</ele>
<time>2014-02-16T15:55:50Z</time>
</trkpt>
<trkpt lat="52.539794921875" lon="13.354022979736328">
<ele>70.0</ele>
<time>2014-02-16T15:55:52Z</time>
</trkpt>
<trkpt lat="52.53977584838867" lon="13.354157447814941">
<ele>70.0999984741211</ele>
<time>2014-02-16T15:55:54Z</time>
</trkpt>
<trkpt lat="52.53976058959961" lon="13.354293823242188">
<ele>69.9000015258789</ele>
<time>2014-02-16T15:55:56Z</time>
</trkpt>
<trkpt lat="52.53974533081055" lon="13.354432106018066">
<ele>70.30000305175781</ele>
<time>2014-02-16T15:55:58Z</time>
</trkpt>
<trkpt lat="52.539730072021484" lon="13.35456657409668">
<ele>70.5999984741211</ele>
<time>2014-02-16T15:56:00Z</time>
</trkpt>
<trkpt lat="52.539703369140625" lon="13.354703903198242">
<ele>71.5999984741211</ele>
<time>2014-02-16T15:56:02Z</time>
</trkpt>
<trkpt lat="52.539676666259766" lon="13.354822158813477">
<ele>72.30000305175781</ele>
<time>2014-02-16T15:56:04Z</time>
</trkpt>
<trkpt lat="52.53963088989258" lon="13.354940414428711">
<ele>72.30000305175781</ele>
<time>2014-02-16T15:56:06Z</time>
</trkpt>
<trkpt lat="52.539581298828125" lon="13.355048179626465">
<ele>72.0999984741211</ele>
<time>2014-02-16T15:56:08Z</time>
</trkpt>
<trkpt lat="52.53955078125" lon="13.35512638092041">
<ele>74.80000305175781</ele>
<time>2014-02-16T15:56:09Z</time>
</trkpt>
<trkpt lat="52.539520263671875" lon="13.355256080627441">
<ele>76.30000305175781</ele>
<time>2014-02-16T15:56:11Z</time>
</trkpt>
<trkpt lat="52.53949737548828" lon="13.35538387298584">
<ele>77.5</ele>
<time>2014-02-16T15:56:13Z</time>
</trkpt>
<trkpt lat="52.539520263671875" lon="13.355491638183594">
<ele>78.0</ele>
<time>2014-02-16T15:56:15Z</time>
</trkpt>
<trkpt lat="52.539451599121094" lon="13.355620384216309">
<ele>80.9000015258789</ele>
<time>2014-02-16T15:56:17Z</time>
</trkpt>
<trkpt lat="52.5394287109375" lon="13.355682373046875">
<ele>81.5999984741211</ele>
<time>2014-02-16T15:56:18Z</time>
</trkpt>
<trkpt lat="52.539390563964844" lon="13.355794906616211">
<ele>83.0</ele>
<time>2014-02-16T15:56:20Z</time>
</trkpt>
<trkpt lat="52.53935623168945" lon="13.355920791625977">
<ele>85.5999984741211</ele>
<time>2014-02-16T15:56:22Z</time>
</trkpt>
<trkpt lat="52.53933334350586" lon="13.356030464172363">
<ele>84.9000015258789</ele>
<time>2014-02-16T15:56:24Z</time>
</trkpt>
<trkpt lat="52.53929901123047" lon="13.356158256530762">
<ele>86.0999984741211</ele>
<time>2014-02-16T15:56:26Z</time>
</trkpt>
<trkpt lat="52.539283752441406" lon="13.356287002563477">
<ele>83.5999984741211</ele>
<time>2014-02-16T15:56:28Z</time>
</trkpt>
<trkpt lat="52.53926086425781" lon="13.35642147064209">
<ele>80.5999984741211</ele>
<time>2014-02-16T15:56:30Z</time>
</trkpt>
<trkpt lat="52.53923034667969" lon="13.356542587280273">
<ele>79.0999984741211</ele>
<time>2014-02-16T15:56:32Z</time>
</trkpt>
<trkpt lat="52.53925704956055" lon="13.356618881225586">
<ele>78.30000305175781</ele>
<time>2014-02-16T15:56:34Z</time>
</trkpt>
<trkpt lat="52.53927230834961" lon="13.356714248657227">
<ele>76.69999694824219</ele>
<time>2014-02-16T15:56:36Z</time>
</trkpt>
<trkpt lat="52.53929138183594" lon="13.356830596923828">
<ele>76.4000015258789</ele>
<time>2014-02-16T15:56:38Z</time>
</trkpt>
<trkpt lat="52.539337158203125" lon="13.356932640075684">
<ele>76.30000305175781</ele>
<time>2014-02-16T15:56:40Z</time>
</trkpt>
<trkpt lat="52.539371490478516" lon="13.357025146484375">
<ele>76.30000305175781</ele>
<time>2014-02-16T15:56:42Z</time>
</trkpt>
<trkpt lat="52.539398193359375" lon="13.357108116149902">
<ele>76.0</ele>
<time>2014-02-16T15:56:44Z</time>
</trkpt>
<trkpt lat="52.539424896240234" lon="13.357196807861328">
<ele>75.9000015258789</ele>
<time>2014-02-16T15:56:46Z</time>
</trkpt>
<trkpt lat="52.539459228515625" lon="13.357287406921387">
<ele>75.5</ele>
<time>2014-02-16T15:56:48Z</time>
</trkpt>
<trkpt lat="52.53948974609375" lon="13.357391357421875">
<ele>75.5999984741211</ele>
<time>2014-02-16T15:56:50Z</time>
</trkpt>
<trkpt lat="52.53952407836914" lon="13.357490539550781">
<ele>75.80000305175781</ele>
<time>2014-02-16T15:56:52Z</time>
</trkpt>
<trkpt lat="52.53955841064453" lon="13.35759449005127">
<ele>75.5</ele>
<time>2014-02-16T15:56:54Z</time>
</trkpt>
<trkpt lat="52.53959655761719" lon="13.357706069946289">
<ele>75.0999984741211</ele>
<time>2014-02-16T15:56:56Z</time>
</trkpt>
<trkpt lat="52.53962707519531" lon="13.357817649841309">
<ele>75.19999694824219</ele>
<time>2014-02-16T15:56:58Z</time>
</trkpt>
<trkpt lat="52.5396614074707" lon="13.357942581176758">
<ele>75.19999694824219</ele>
<time>2014-02-16T15:57:00Z</time>
</trkpt>
<trkpt lat="52.53968811035156" lon="13.358063697814941">
<ele>74.9000015258789</ele>
<time>2014-02-16T15:57:02Z</time>
</trkpt>
<trkpt lat="52.53971481323242" lon="13.35817813873291">
<ele>75.0</ele>
<time>2014-02-16T15:57:04Z</time>
</trkpt>
<trkpt lat="52.539737701416016" lon="13.35828685760498">
<ele>75.30000305175781</ele>
<time>2014-02-16T15:57:06Z</time>
</trkpt>
<trkpt lat="52.539756774902344" lon="13.358377456665039">
<ele>75.30000305175781</ele>
<time>2014-02-16T15:57:08Z</time>
</trkpt>
<trkpt lat="52.53978729248047" lon="13.358471870422363">
<ele>75.0999984741211</ele>
<time>2014-02-16T15:57:10Z</time>
</trkpt>
<trkpt lat="52.539817810058594" lon="13.35855770111084">
<ele>74.30000305175781</ele>
<time>2014-02-16T15:57:12Z</time>
</trkpt>
<trkpt lat="52.53984832763672" lon="13.358614921569824">
<ele>74.5</ele>
<time>2014-02-16T15:57:13Z</time>
</trkpt>
<trkpt lat="52.53988265991211" lon="13.358726501464844">
<ele>74.69999694824219</ele>
<time>2014-02-16T15:57:15Z</time>
</trkpt>
<trkpt lat="52.53987121582031" lon="13.3588228225708">
<ele>74.5999984741211</ele>
<time>2014-02-16T15:57:17Z</time>
</trkpt>
<trkpt lat="52.539833068847656" lon="13.358901023864746">
<ele>75.0999984741211</ele>
<time>2014-02-16T15:57:19Z</time>
</trkpt>
<trkpt lat="52.5397834777832" lon="13.358965873718262">
<ele>75.0999984741211</ele>
<time>2014-02-16T15:57:21Z</time>
</trkpt>
<trkpt lat="52.53972625732422" lon="13.359046936035156">
<ele>74.9000015258789</ele>
<time>2014-02-16T15:57:23Z</time>
</trkpt>
<trkpt lat="52.5396728515625" lon="13.35912036895752">
<ele>74.5999984741211</ele>
<time>2014-02-16T15:57:25Z</time>
</trkpt>
<trkpt lat="52.539615631103516" lon="13.359193801879883">
<ele>74.5999984741211</ele>
<time>2014-02-16T15:57:27Z</time>
</trkpt>
<trkpt lat="52.53956604003906" lon="13.359262466430664">
<ele>74.5</ele>
<time>2014-02-16T15:57:29Z</time>
</trkpt>
<trkpt lat="52.53948974609375" lon="13.359265327453613">
<ele>74.5</ele>
<time>2014-02-16T15:57:31Z</time>
</trkpt>
<trkpt lat="52.53944778442383" lon="13.35927677154541">
<ele>74.5</ele>
<time>2014-02-16T15:57:33Z</time>
</trkpt>
<trkpt lat="52.539405822753906" lon="13.359336853027344">
<ele>75.19999694824219</ele>
<time>2014-02-16T15:57:35Z</time>
</trkpt>
<trkpt lat="52.53935623168945" lon="13.35940170288086">
<ele>75.5</ele>
<time>2014-02-16T15:57:38Z</time>
</trkpt>
<trkpt lat="52.539268493652344" lon="13.359542846679688">
<ele>76.80000305175781</ele>
<time>2014-02-16T15:57:41Z</time>
</trkpt>
<trkpt lat="52.539215087890625" lon="13.359652519226074">
<ele>76.80000305175781</ele>
<time>2014-02-16T15:57:43Z</time>
</trkpt>
<trkpt lat="52.5391845703125" lon="13.359709739685059">
<ele>76.9000015258789</ele>
<time>2014-02-16T15:57:44Z</time>
</trkpt>
<trkpt lat="52.53913116455078" lon="13.359806060791016">
<ele>78.0</ele>
<time>2014-02-16T15:57:46Z</time>
</trkpt>
<trkpt lat="52.539085388183594" lon="13.359883308410645">
<ele>78.19999694824219</ele>
<time>2014-02-16T15:57:48Z</time>
</trkpt>
<trkpt lat="52.539031982421875" lon="13.359963417053223">
<ele>78.5999984741211</ele>
<time>2014-02-16T15:57:50Z</time>
</trkpt>
<trkpt lat="52.53896713256836" lon="13.360055923461914">
<ele>78.4000015258789</ele>
<time>2014-02-16T15:57:52Z</time>
</trkpt>
<trkpt lat="52.53892135620117" lon="13.36014175415039">
<ele>78.0</ele>
<time>2014-02-16T15:57:54Z</time>
</trkpt>
<trkpt lat="52.53888702392578" lon="13.360203742980957">
<ele>79.9000015258789</ele>
<time>2014-02-16T15:57:55Z</time>
</trkpt>
<trkpt lat="52.5388298034668" lon="13.360295295715332">
<ele>79.0999984741211</ele>
<time>2014-02-16T15:57:57Z</time>
</trkpt>
<trkpt lat="52.53877639770508" lon="13.360392570495605">
<ele>77.4000015258789</ele>
<time>2014-02-16T15:57:59Z</time>
</trkpt>
<trkpt lat="52.538719177246094" lon="13.360489845275879">
<ele>77.30000305175781</ele>
<time>2014-02-16T15:58:01Z</time>
</trkpt>
<trkpt lat="52.53865432739258" lon="13.360572814941406">
<ele>78.5</ele>
<time>2014-02-16T15:58:03Z</time>
</trkpt>
<trkpt lat="52.53859329223633" lon="13.360644340515137">
<ele>78.30000305175781</ele>
<time>2014-02-16T15:58:05Z</time>
</trkpt>
<trkpt lat="52.53853988647461" lon="13.360719680786133">
<ele>78.4000015258789</ele>
<time>2014-02-16T15:58:07Z</time>
</trkpt>
<trkpt lat="52.53849411010742" lon="13.360808372497559">
<ele>78.19999694824219</ele>
<time>2014-02-16T15:58:09Z</time>
</trkpt>
<trkpt lat="52.53843688964844" lon="13.360906600952148">
<ele>78.4000015258789</ele>
<time>2014-02-16T15:58:11Z</time>
</trkpt>
<trkpt lat="52.53837585449219" lon="13.360981941223145">
<ele>79.0</ele>
<time>2014-02-16T15:58:13Z</time>
</trkpt>
<trkpt lat="52.53832244873047" lon="13.361055374145508">
<ele>79.80000305175781</ele>
<time>2014-02-16T15:58:15Z</time>
</trkpt>
<trkpt lat="52.53826141357422" lon="13.361124038696289">
<ele>79.5999984741211</ele>
<time>2014-02-16T15:58:17Z</time>
</trkpt>
<trkpt lat="52.53818893432617" lon="13.361186027526855">
<ele>79.4000015258789</ele>
<time>2014-02-16T15:58:19Z</time>
</trkpt>
<trkpt lat="52.53813552856445" lon="13.361260414123535">
<ele>80.0</ele>
<time>2014-02-16T15:58:21Z</time>
</trkpt>
<trkpt lat="52.538089752197266" lon="13.361318588256836">
<ele>80.9000015258789</ele>
<time>2014-02-16T15:58:23Z</time>
</trkpt>
<trkpt lat="52.53805160522461" lon="13.361372947692871">
<ele>80.80000305175781</ele>
<time>2014-02-16T15:58:25Z</time>
</trkpt>
<trkpt lat="52.53801727294922" lon="13.361442565917969">
<ele>83.5999984741211</ele>
<time>2014-02-16T15:58:49Z</time>
</trkpt>
<trkpt lat="52.537960052490234" lon="13.36143970489502">
<ele>81.80000305175781</ele>
<time>2014-02-16T15:58:53Z</time>
</trkpt>
<trkpt lat="52.53790283203125" lon="13.36142349243164">
<ele>80.80000305175781</ele>
<time>2014-02-16T15:58:56Z</time>
</trkpt>
<trkpt lat="52.537864685058594" lon="13.361477851867676">
<ele>80.5</ele>
<time>2014-02-16T15:58:58Z</time>
</trkpt>
<trkpt lat="52.5378303527832" lon="13.361534118652344">
<ele>80.19999694824219</ele>
<time>2014-02-16T15:59:00Z</time>
</trkpt>
<trkpt lat="52.53779602050781" lon="13.361618995666504">
<ele>79.69999694824219</ele>
<time>2014-02-16T15:59:03Z</time>
</trkpt>
<trkpt lat="52.53782272338867" lon="13.361679077148438">
<ele>78.0999984741211</ele>
<time>2014-02-16T15:59:05Z</time>
</trkpt>
<trkpt lat="52.537864685058594" lon="13.361771583557129">
<ele>77.30000305175781</ele>
<time>2014-02-16T15:59:07Z</time>
</trkpt>
<trkpt lat="52.53791427612305" lon="13.361862182617188">
<ele>77.19999694824219</ele>
<time>2014-02-16T15:59:09Z</time>
</trkpt>
<trkpt lat="52.53797149658203" lon="13.361954689025879">
<ele>77.5</ele>
<time>2014-02-16T15:59:11Z</time>
</trkpt>
<trkpt lat="52.537994384765625" lon="13.362040519714355">
<ele>76.80000305175781</ele>
<time>2014-02-16T15:59:13Z</time>
</trkpt>
<trkpt lat="52.53798294067383" lon="13.362135887145996">
<ele>76.30000305175781</ele>
<time>2014-02-16T15:59:15Z</time>
</trkpt>
<trkpt lat="52.537967681884766" lon="13.362256050109863">
<ele>76.0999984741211</ele>
<time>2014-02-16T15:59:17Z</time>
</trkpt>
<trkpt lat="52.537960052490234" lon="13.362378120422363">
<ele>76.30000305175781</ele>
<time>2014-02-16T15:59:19Z</time>
</trkpt>
<trkpt lat="52.537960052490234" lon="13.36246395111084">
<ele>76.30000305175781</ele>
<time>2014-02-16T15:59:21Z</time>
</trkpt>
<trkpt lat="52.537940979003906" lon="13.362606048583984">
<ele>76.5</ele>
<time>2014-02-16T15:59:23Z</time>
</trkpt>
<trkpt lat="52.537879943847656" lon="13.36270809173584">
<ele>81.69999694824219</ele>
<time>2014-02-16T15:59:24Z</time>
</trkpt>
<trkpt lat="52.53785705566406" lon="13.362786293029785">
<ele>82.5</ele>
<time>2014-02-16T15:59:25Z</time>
</trkpt>
<trkpt lat="52.53782272338867" lon="13.362863540649414">
<ele>82.69999694824219</ele>
<time>2014-02-16T15:59:26Z</time>
</trkpt>
<trkpt lat="52.53776550292969" lon="13.36297607421875">
<ele>81.4000015258789</ele>
<time>2014-02-16T15:59:27Z</time>
</trkpt>
<trkpt lat="52.53773498535156" lon="13.363083839416504">
<ele>79.5999984741211</ele>
<time>2014-02-16T15:59:28Z</time>
</trkpt>
<trkpt lat="52.5377197265625" lon="13.363188743591309">
<ele>78.0</ele>
<time>2014-02-16T15:59:29Z</time>
</trkpt>
<trkpt lat="52.537715911865234" lon="13.363306045532227">
<ele>76.9000015258789</ele>
<time>2014-02-16T15:59:31Z</time>
</trkpt>
<trkpt lat="52.53769302368164" lon="13.363381385803223">
<ele>76.30000305175781</ele>
<time>2014-02-16T15:59:32Z</time>
</trkpt>
<trkpt lat="52.53767776489258" lon="13.363454818725586">
<ele>76.19999694824219</ele>
<time>2014-02-16T15:59:33Z</time>
</trkpt>
<trkpt lat="52.537654876708984" lon="13.36353588104248">
<ele>76.30000305175781</ele>
<time>2014-02-16T15:59:34Z</time>
</trkpt>
<trkpt lat="52.53761291503906" lon="13.36364459991455">
<ele>76.0999984741211</ele>
<time>2014-02-16T15:59:36Z</time>
</trkpt>
<trkpt lat="52.537567138671875" lon="13.363726615905762">
<ele>75.0</ele>
<time>2014-02-16T15:59:37Z</time>
</trkpt>
<trkpt lat="52.53751754760742" lon="13.36384105682373">
<ele>75.0999984741211</ele>
<time>2014-02-16T15:59:39Z</time>
</trkpt>
<trkpt lat="52.537498474121094" lon="13.363906860351562">
<ele>74.80000305175781</ele>
<time>2014-02-16T15:59:40Z</time>
</trkpt>
<trkpt lat="52.537479400634766" lon="13.363994598388672">
<ele>76.0</ele>
<time>2014-02-16T15:59:41Z</time>
</trkpt>
<trkpt lat="52.537452697753906" lon="13.364067077636719">
<ele>75.5999984741211</ele>
<time>2014-02-16T15:59:42Z</time>
</trkpt>
<trkpt lat="52.53742599487305" lon="13.364127159118652">
<ele>75.5999984741211</ele>
<time>2014-02-16T15:59:43Z</time>
</trkpt>
<trkpt lat="52.53739547729492" lon="13.36419677734375">
<ele>75.0999984741211</ele>
<time>2014-02-16T15:59:44Z</time>
</trkpt>
<trkpt lat="52.53737258911133" lon="13.364279747009277">
<ele>75.30000305175781</ele>
<time>2014-02-16T15:59:46Z</time>
</trkpt>
<trkpt lat="52.537330627441406" lon="13.364370346069336">
<ele>75.19999694824219</ele>
<time>2014-02-16T15:59:47Z</time>
</trkpt>
<trkpt lat="52.53730392456055" lon="13.364435195922852">
<ele>75.0</ele>
<time>2014-02-16T15:59:48Z</time>
</trkpt>
<trkpt lat="52.53727722167969" lon="13.36449909210205">
<ele>74.5</ele>
<time>2014-02-16T15:59:49Z</time>
</trkpt>
<trkpt lat="52.53724670410156" lon="13.364571571350098">
<ele>73.80000305175781</ele>
<time>2014-02-16T15:59:50Z</time>
</trkpt>
<trkpt lat="52.53719711303711" lon="13.364697456359863">
<ele>73.19999694824219</ele>
<time>2014-02-16T15:59:52Z</time>
</trkpt>
<trkpt lat="52.53717803955078" lon="13.36476993560791">
<ele>72.9000015258789</ele>
<time>2014-02-16T15:59:53Z</time>
</trkpt>
<trkpt lat="52.537132263183594" lon="13.364891052246094">
<ele>72.0999984741211</ele>
<time>2014-02-16T15:59:55Z</time>
</trkpt>
<trkpt lat="52.537109375" lon="13.364954948425293">
<ele>71.4000015258789</ele>
<time>2014-02-16T15:59:56Z</time>
</trkpt>
<trkpt lat="52.53709030151367" lon="13.365025520324707">
<ele>71.4000015258789</ele>
<time>2014-02-16T15:59:57Z</time>
</trkpt>
<trkpt lat="52.53706359863281" lon="13.365086555480957">
<ele>71.80000305175781</ele>
<time>2014-02-16T15:59:58Z</time>
</trkpt>
<trkpt lat="52.53702163696289" lon="13.365205764770508">
<ele>71.69999694824219</ele>
<time>2014-02-16T16:00:00Z</time>
</trkpt>
<trkpt lat="52.536983489990234" lon="13.365330696105957">
<ele>71.30000305175781</ele>
<time>2014-02-16T16:00:02Z</time>
</trkpt>
<trkpt lat="52.53694152832031" lon="13.365392684936523">
<ele>71.0</ele>
<time>2014-02-16T16:00:03Z</time>
</trkpt>
<trkpt lat="52.53693389892578" lon="13.365535736083984">
<ele>72.80000305175781</ele>
<time>2014-02-16T16:00:06Z</time>
</trkpt>
<trkpt lat="52.536922454833984" lon="13.365621566772461">
<ele>73.0</ele>
<time>2014-02-16T16:00:07Z</time>
</trkpt>
<trkpt lat="52.536903381347656" lon="13.365730285644531">
<ele>73.5999984741211</ele>
<time>2014-02-16T16:00:09Z</time>
</trkpt>
<trkpt lat="52.53687286376953" lon="13.365826606750488">
<ele>73.69999694824219</ele>
<time>2014-02-16T16:00:11Z</time>
</trkpt>
<trkpt lat="52.53683853149414" lon="13.3659029006958">
<ele>73.69999694824219</ele>
<time>2014-02-16T16:00:13Z</time>
</trkpt>
<trkpt lat="52.536766052246094" lon="13.365937232971191">
<ele>74.30000305175781</ele>
<time>2014-02-16T16:00:15Z</time>
</trkpt>
<trkpt lat="52.53670120239258" lon="13.365983009338379">
<ele>72.9000015258789</ele>
<time>2014-02-16T16:00:17Z</time>
</trkpt>
<trkpt lat="52.536643981933594" lon="13.36604118347168">
<ele>73.80000305175781</ele>
<time>2014-02-16T16:00:19Z</time>
</trkpt>
<trkpt lat="52.53657531738281" lon="13.366079330444336">
<ele>74.0</ele>
<time>2014-02-16T16:00:21Z</time>
</trkpt>
<trkpt lat="52.53650665283203" lon="13.366128921508789">
<ele>74.0999984741211</ele>
<time>2014-02-16T16:00:23Z</time>
</trkpt>
<trkpt lat="52.53644561767578" lon="13.366182327270508">
<ele>73.80000305175781</ele>
<time>2014-02-16T16:00:25Z</time>
</trkpt>
<trkpt lat="52.536399841308594" lon="13.366270065307617">
<ele>73.80000305175781</ele>
<time>2014-02-16T16:00:27Z</time>
</trkpt>
<trkpt lat="52.536346435546875" lon="13.366341590881348">
<ele>73.80000305175781</ele>
<time>2014-02-16T16:00:29Z</time>
</trkpt>
<trkpt lat="52.53630828857422" lon="13.366408348083496">
<ele>73.80000305175781</ele>
<time>2014-02-16T16:00:31Z</time>
</trkpt>
<trkpt lat="52.53624725341797" lon="13.36644458770752">
<ele>73.9000015258789</ele>
<time>2014-02-16T16:00:32Z</time>
</trkpt>
<trkpt lat="52.53618621826172" lon="13.366510391235352">
<ele>73.4000015258789</ele>
<time>2014-02-16T16:00:34Z</time>
</trkpt>
<trkpt lat="52.5361213684082" lon="13.366583824157715">
<ele>73.5999984741211</ele>
<time>2014-02-16T16:00:36Z</time>
</trkpt>
<trkpt lat="52.53605270385742" lon="13.366645812988281">
<ele>73.80000305175781</ele>
<time>2014-02-16T16:00:38Z</time>
</trkpt>
<trkpt lat="52.53598403930664" lon="13.366726875305176">
<ele>74.80000305175781</ele>
<time>2014-02-16T16:00:40Z</time>
</trkpt>
<trkpt lat="52.53593063354492" lon="13.366803169250488">
<ele>75.4000015258789</ele>
<time>2014-02-16T16:00:42Z</time>
</trkpt>
<trkpt lat="52.53586196899414" lon="13.366877555847168">
<ele>75.0999984741211</ele>
<time>2014-02-16T16:00:44Z</time>
</trkpt>
<trkpt lat="52.53579330444336" lon="13.366935729980469">
<ele>76.0</ele>
<time>2014-02-16T16:00:46Z</time>
</trkpt>
<trkpt lat="52.535728454589844" lon="13.367012023925781">
<ele>76.9000015258789</ele>
<time>2014-02-16T16:00:48Z</time>
</trkpt>
<trkpt lat="52.5356559753418" lon="13.367076873779297">
<ele>77.5</ele>
<time>2014-02-16T16:00:50Z</time>
</trkpt>
<trkpt lat="52.53559494018555" lon="13.367149353027344">
<ele>77.5</ele>
<time>2014-02-16T16:00:52Z</time>
</trkpt>
<trkpt lat="52.535526275634766" lon="13.367212295532227">
<ele>77.69999694824219</ele>
<time>2014-02-16T16:00:54Z</time>
</trkpt>
<trkpt lat="52.535465240478516" lon="13.36729621887207">
<ele>77.80000305175781</ele>
<time>2014-02-16T16:00:56Z</time>
</trkpt>
<trkpt lat="52.535400390625" lon="13.367378234863281">
<ele>78.19999694824219</ele>
<time>2014-02-16T16:00:58Z</time>
</trkpt>
<trkpt lat="52.535343170166016" lon="13.367450714111328">
<ele>77.9000015258789</ele>
<time>2014-02-16T16:01:00Z</time>
</trkpt>
<trkpt lat="52.5352783203125" lon="13.367525100708008">
<ele>77.5999984741211</ele>
<time>2014-02-16T16:01:02Z</time>
</trkpt>
<trkpt lat="52.53520965576172" lon="13.367598533630371">
<ele>77.30000305175781</ele>
<time>2014-02-16T16:01:04Z</time>
</trkpt>
<trkpt lat="52.53514862060547" lon="13.36766529083252">
<ele>77.69999694824219</ele>
<time>2014-02-16T16:01:06Z</time>
</trkpt>
<trkpt lat="52.53507995605469" lon="13.36772632598877">
<ele>77.4000015258789</ele>
<time>2014-02-16T16:01:08Z</time>
</trkpt>
<trkpt lat="52.53501510620117" lon="13.367791175842285">
<ele>77.4000015258789</ele>
<time>2014-02-16T16:01:10Z</time>
</trkpt>
<trkpt lat="52.53495407104492" lon="13.367857933044434">
<ele>77.5</ele>
<time>2014-02-16T16:01:12Z</time>
</trkpt>
<trkpt lat="52.534889221191406" lon="13.367929458618164">
<ele>78.0</ele>
<time>2014-02-16T16:01:14Z</time>
</trkpt>
<trkpt lat="52.53482437133789" lon="13.368001937866211">
<ele>77.9000015258789</ele>
<time>2014-02-16T16:01:16Z</time>
</trkpt>
<trkpt lat="52.534759521484375" lon="13.368069648742676">
<ele>78.19999694824219</ele>
<time>2014-02-16T16:01:18Z</time>
</trkpt>
<trkpt lat="52.534698486328125" lon="13.36813735961914">
<ele>77.69999694824219</ele>
<time>2014-02-16T16:01:20Z</time>
</trkpt>
<trkpt lat="52.534637451171875" lon="13.368203163146973">
<ele>77.80000305175781</ele>
<time>2014-02-16T16:01:22Z</time>
</trkpt>
<trkpt lat="52.534576416015625" lon="13.368270874023438">
<ele>77.5999984741211</ele>
<time>2014-02-16T16:01:24Z</time>
</trkpt>
<trkpt lat="52.53451156616211" lon="13.368341445922852">
<ele>77.69999694824219</ele>
<time>2014-02-16T16:01:26Z</time>
</trkpt>
<trkpt lat="52.53445053100586" lon="13.368407249450684">
<ele>78.19999694824219</ele>
<time>2014-02-16T16:01:28Z</time>
</trkpt>
<trkpt lat="52.534393310546875" lon="13.368468284606934">
<ele>78.4000015258789</ele>
<time>2014-02-16T16:01:30Z</time>
</trkpt>
<trkpt lat="52.53432846069336" lon="13.368523597717285">
<ele>75.0</ele>
<time>2014-02-16T16:01:32Z</time>
</trkpt>
<trkpt lat="52.53425979614258" lon="13.3685941696167">
<ele>75.80000305175781</ele>
<time>2014-02-16T16:01:34Z</time>
</trkpt>
<trkpt lat="52.534202575683594" lon="13.368664741516113">
<ele>76.30000305175781</ele>
<time>2014-02-16T16:01:36Z</time>
</trkpt>
<trkpt lat="52.534141540527344" lon="13.368730545043945">
<ele>76.4000015258789</ele>
<time>2014-02-16T16:01:38Z</time>
</trkpt>
<trkpt lat="52.53407669067383" lon="13.368796348571777">
<ele>76.69999694824219</ele>
<time>2014-02-16T16:01:40Z</time>
</trkpt>
<trkpt lat="52.534027099609375" lon="13.368849754333496">
<ele>76.80000305175781</ele>
<time>2014-02-16T16:01:42Z</time>
</trkpt>
<trkpt lat="52.53397750854492" lon="13.368908882141113">
<ele>77.30000305175781</ele>
<time>2014-02-16T16:01:44Z</time>
</trkpt>
<trkpt lat="52.53392791748047" lon="13.368959426879883">
<ele>77.19999694824219</ele>
<time>2014-02-16T16:01:46Z</time>
</trkpt>
<trkpt lat="52.53388214111328" lon="13.36900520324707">
<ele>77.9000015258789</ele>
<time>2014-02-16T16:01:48Z</time>
</trkpt>
<trkpt lat="52.53383255004883" lon="13.369039535522461">
<ele>77.69999694824219</ele>
<time>2014-02-16T16:01:50Z</time>
</trkpt>
<trkpt lat="52.53376388549805" lon="13.369060516357422">
<ele>78.30000305175781</ele>
<time>2014-02-16T16:01:52Z</time>
</trkpt>
<trkpt lat="52.53369903564453" lon="13.369070053100586">
<ele>78.69999694824219</ele>
<time>2014-02-16T16:01:54Z</time>
</trkpt>
<trkpt lat="52.53362274169922" lon="13.36904525756836">
<ele>78.9000015258789</ele>
<time>2014-02-16T16:01:56Z</time>
</trkpt>
<trkpt lat="52.533565521240234" lon="13.369030952453613">
<ele>79.19999694824219</ele>
<time>2014-02-16T16:01:58Z</time>
</trkpt>
<trkpt lat="52.533504486083984" lon="13.36900520324707">
<ele>78.0999984741211</ele>
<time>2014-02-16T16:02:00Z</time>
</trkpt>
<trkpt lat="52.533447265625" lon="13.36899185180664">
<ele>77.69999694824219</ele>
<time>2014-02-16T16:02:02Z</time>
</trkpt>
<trkpt lat="52.53338623046875" lon="13.368967056274414">
<ele>77.4000015258789</ele>
<time>2014-02-16T16:02:04Z</time>
</trkpt>
<trkpt lat="52.5333137512207" lon="13.368997573852539">
<ele>77.5999984741211</ele>
<time>2014-02-16T16:02:06Z</time>
</trkpt>
<trkpt lat="52.533267974853516" lon="13.3690767288208">
<ele>77.9000015258789</ele>
<time>2014-02-16T16:02:08Z</time>
</trkpt>
<trkpt lat="52.53321075439453" lon="13.369156837463379">
<ele>78.4000015258789</ele>
<time>2014-02-16T16:02:10Z</time>
</trkpt>
<trkpt lat="52.53316116333008" lon="13.369221687316895">
<ele>78.5</ele>
<time>2014-02-16T16:02:12Z</time>
</trkpt>
<trkpt lat="52.53310012817383" lon="13.369280815124512">
<ele>78.80000305175781</ele>
<time>2014-02-16T16:02:14Z</time>
</trkpt>
<trkpt lat="52.53303527832031" lon="13.369345664978027">
<ele>79.69999694824219</ele>
<time>2014-02-16T16:02:16Z</time>
</trkpt>
<trkpt lat="52.5329704284668" lon="13.369409561157227">
<ele>79.80000305175781</ele>
<time>2014-02-16T16:02:18Z</time>
</trkpt>
<trkpt lat="52.53292465209961" lon="13.369447708129883">
<ele>83.19999694824219</ele>
<time>2014-02-16T16:02:20Z</time>
</trkpt>
<trkpt lat="52.532936096191406" lon="13.369551658630371">
<ele>81.9000015258789</ele>
<time>2014-02-16T16:02:22Z</time>
</trkpt>
<trkpt lat="52.53294372558594" lon="13.369625091552734">
<ele>80.0</ele>
<time>2014-02-16T16:02:24Z</time>
</trkpt>
<trkpt lat="52.53293991088867" lon="13.369710922241211">
<ele>80.0999984741211</ele>
<time>2014-02-16T16:02:28Z</time>
</trkpt>
<trkpt lat="52.532901763916016" lon="13.3697509765625">
<ele>80.0999984741211</ele>
<time>2014-02-16T16:02:30Z</time>
</trkpt>
<trkpt lat="52.53285598754883" lon="13.369763374328613">
<ele>80.0</ele>
<time>2014-02-16T16:02:32Z</time>
</trkpt>
<trkpt lat="52.53280258178711" lon="13.369732856750488">
<ele>79.30000305175781</ele>
<time>2014-02-16T16:02:34Z</time>
</trkpt>
<trkpt lat="52.53274917602539" lon="13.36976146697998">
<ele>78.0999984741211</ele>
<time>2014-02-16T16:02:37Z</time>
</trkpt>
<trkpt lat="52.532691955566406" lon="13.369826316833496">
<ele>75.9000015258789</ele>
<time>2014-02-16T16:02:40Z</time>
</trkpt>
<trkpt lat="52.532657623291016" lon="13.36987018585205">
<ele>76.5999984741211</ele>
<time>2014-02-16T16:02:42Z</time>
</trkpt>
<trkpt lat="52.53261184692383" lon="13.369905471801758">
<ele>76.5</ele>
<time>2014-02-16T16:02:44Z</time>
</trkpt>
<trkpt lat="52.532554626464844" lon="13.369956970214844">
<ele>76.4000015258789</ele>
<time>2014-02-16T16:02:47Z</time>
</trkpt>
<trkpt lat="52.53251647949219" lon="13.369993209838867">
<ele>76.5999984741211</ele>
<time>2014-02-16T16:02:49Z</time>
</trkpt>
<trkpt lat="52.532470703125" lon="13.370037078857422">
<ele>76.80000305175781</ele>
<time>2014-02-16T16:02:51Z</time>
</trkpt>
<trkpt lat="52.53242492675781" lon="13.37008285522461">
<ele>77.0</ele>
<time>2014-02-16T16:02:53Z</time>
</trkpt>
<trkpt lat="52.53237533569336" lon="13.370129585266113">
<ele>77.0</ele>
<time>2014-02-16T16:02:55Z</time>
</trkpt>
<trkpt lat="52.53232955932617" lon="13.370170593261719">
<ele>76.5</ele>
<time>2014-02-16T16:02:57Z</time>
</trkpt>
<trkpt lat="52.53227996826172" lon="13.370216369628906">
<ele>76.69999694824219</ele>
<time>2014-02-16T16:02:59Z</time>
</trkpt>
<trkpt lat="52.532222747802734" lon="13.370281219482422">
<ele>76.9000015258789</ele>
<time>2014-02-16T16:03:01Z</time>
</trkpt>
<trkpt lat="52.532161712646484" lon="13.370349884033203">
<ele>76.5999984741211</ele>
<time>2014-02-16T16:03:03Z</time>
</trkpt>
<trkpt lat="52.53212356567383" lon="13.37038516998291">
<ele>76.5</ele>
<time>2014-02-16T16:03:04Z</time>
</trkpt>
<trkpt lat="52.53207778930664" lon="13.3704252243042">
<ele>76.19999694824219</ele>
<time>2014-02-16T16:03:05Z</time>
</trkpt>
<trkpt lat="52.53203582763672" lon="13.370464324951172">
<ele>76.4000015258789</ele>
<time>2014-02-16T16:03:06Z</time>
</trkpt>
<trkpt lat="52.5319938659668" lon="13.370503425598145">
<ele>76.4000015258789</ele>
<time>2014-02-16T16:03:07Z</time>
</trkpt>
<trkpt lat="52.53194808959961" lon="13.370534896850586">
<ele>76.0999984741211</ele>
<time>2014-02-16T16:03:08Z</time>
</trkpt>
<trkpt lat="52.531898498535156" lon="13.370572090148926">
<ele>75.80000305175781</ele>
<time>2014-02-16T16:03:09Z</time>
</trkpt>
<trkpt lat="52.53185272216797" lon="13.370609283447266">
<ele>75.69999694824219</ele>
<time>2014-02-16T16:03:10Z</time>
</trkpt>
<trkpt lat="52.53181076049805" lon="13.370645523071289">
<ele>75.69999694824219</ele>
<time>2014-02-16T16:03:11Z</time>
</trkpt>
<trkpt lat="52.53176498413086" lon="13.370681762695312">
<ele>75.69999694824219</ele>
<time>2014-02-16T16:03:12Z</time>
</trkpt>
<trkpt lat="52.53172302246094" lon="13.370722770690918">
<ele>75.30000305175781</ele>
<time>2014-02-16T16:03:13Z</time>
</trkpt>
<trkpt lat="52.53167724609375" lon="13.370767593383789">
<ele>75.0</ele>
<time>2014-02-16T16:03:14Z</time>
</trkpt>
<trkpt lat="52.53163146972656" lon="13.370803833007812">
<ele>74.80000305175781</ele>
<time>2014-02-16T16:03:15Z</time>
</trkpt>
<trkpt lat="52.531585693359375" lon="13.370841979980469">
<ele>74.5999984741211</ele>
<time>2014-02-16T16:03:16Z</time>
</trkpt>
<trkpt lat="52.53154373168945" lon="13.370880126953125">
<ele>74.5999984741211</ele>
<time>2014-02-16T16:03:17Z</time>
</trkpt>
<trkpt lat="52.531497955322266" lon="13.370915412902832">
<ele>74.69999694824219</ele>
<time>2014-02-16T16:03:18Z</time>
</trkpt>
<trkpt lat="52.531455993652344" lon="13.37094497680664">
<ele>74.5</ele>
<time>2014-02-16T16:03:19Z</time>
</trkpt>
<trkpt lat="52.53141784667969" lon="13.370978355407715">
<ele>74.30000305175781</ele>
<time>2014-02-16T16:03:20Z</time>
</trkpt>
<trkpt lat="52.53135681152344" lon="13.371048927307129">
<ele>73.80000305175781</ele>
<time>2014-02-16T16:03:22Z</time>
</trkpt>
<trkpt lat="52.53129577636719" lon="13.37109661102295">
<ele>73.0999984741211</ele>
<time>2014-02-16T16:03:24Z</time>
</trkpt>
<trkpt lat="52.5312385559082" lon="13.371098518371582">
<ele>73.0999984741211</ele>
<time>2014-02-16T16:03:26Z</time>
</trkpt>
<trkpt lat="52.53118133544922" lon="13.371060371398926">
<ele>72.5</ele>
<time>2014-02-16T16:03:28Z</time>
</trkpt>
<trkpt lat="52.531131744384766" lon="13.370936393737793">
<ele>72.30000305175781</ele>
<time>2014-02-16T16:03:30Z</time>
</trkpt>
<trkpt lat="52.531070709228516" lon="13.370878219604492">
<ele>72.69999694824219</ele>
<time>2014-02-16T16:03:32Z</time>
</trkpt>
<trkpt lat="52.531002044677734" lon="13.370964050292969">
<ele>72.4000015258789</ele>
<time>2014-02-16T16:03:34Z</time>
</trkpt>
<trkpt lat="52.53092575073242" lon="13.371021270751953">
<ele>72.30000305175781</ele>
<time>2014-02-16T16:03:36Z</time>
</trkpt>
<trkpt lat="52.53084945678711" lon="13.371091842651367">
<ele>72.0999984741211</ele>
<time>2014-02-16T16:03:38Z</time>
</trkpt>
<trkpt lat="52.53076934814453" lon="13.37114143371582">
<ele>72.30000305175781</ele>
<time>2014-02-16T16:03:40Z</time>
</trkpt>
<trkpt lat="52.53069305419922" lon="13.371198654174805">
<ele>71.80000305175781</ele>
<time>2014-02-16T16:03:42Z</time>
</trkpt>
<trkpt lat="52.530616760253906" lon="13.371248245239258">
<ele>71.4000015258789</ele>
<time>2014-02-16T16:03:44Z</time>
</trkpt>
<trkpt lat="52.53054428100586" lon="13.371312141418457">
<ele>71.30000305175781</ele>
<time>2014-02-16T16:03:46Z</time>
</trkpt>
<trkpt lat="52.53046798706055" lon="13.37137508392334">
<ele>71.19999694824219</ele>
<time>2014-02-16T16:03:48Z</time>
</trkpt>
<trkpt lat="52.5303955078125" lon="13.371450424194336">
<ele>71.5</ele>
<time>2014-02-16T16:03:50Z</time>
</trkpt>
<trkpt lat="52.53031539916992" lon="13.371520042419434">
<ele>71.69999694824219</ele>
<time>2014-02-16T16:03:52Z</time>
</trkpt>
<trkpt lat="52.5302734375" lon="13.371553421020508">
<ele>71.69999694824219</ele>
<time>2014-02-16T16:03:53Z</time>
</trkpt>
<trkpt lat="52.53019714355469" lon="13.371615409851074">
<ele>71.9000015258789</ele>
<time>2014-02-16T16:03:55Z</time>
</trkpt>
<trkpt lat="52.53011703491211" lon="13.371683120727539">
<ele>72.0999984741211</ele>
<time>2014-02-16T16:03:57Z</time>
</trkpt>
<trkpt lat="52.53007888793945" lon="13.371720314025879">
<ele>72.0999984741211</ele>
<time>2014-02-16T16:03:58Z</time>
</trkpt>
<trkpt lat="52.53000259399414" lon="13.371796607971191">
<ele>72.0</ele>
<time>2014-02-16T16:04:00Z</time>
</trkpt>
<trkpt lat="52.529930114746094" lon="13.371874809265137">
<ele>72.19999694824219</ele>
<time>2014-02-16T16:04:02Z</time>
</trkpt>
<trkpt lat="52.52985382080078" lon="13.37195110321045">
<ele>72.19999694824219</ele>
<time>2014-02-16T16:04:04Z</time>
</trkpt>
<trkpt lat="52.52978515625" lon="13.372028350830078">
<ele>72.0999984741211</ele>
<time>2014-02-16T16:04:06Z</time>
</trkpt>
<trkpt lat="52.52970886230469" lon="13.372101783752441">
<ele>72.0999984741211</ele>
<time>2014-02-16T16:04:08Z</time>
</trkpt>
<trkpt lat="52.529632568359375" lon="13.372174263000488">
<ele>72.19999694824219</ele>
<time>2014-02-16T16:04:10Z</time>
</trkpt>
<trkpt lat="52.52959442138672" lon="13.372212409973145">
<ele>72.0</ele>
<time>2014-02-16T16:04:11Z</time>
</trkpt>
<trkpt lat="52.52955627441406" lon="13.3722505569458">
<ele>71.9000015258789</ele>
<time>2014-02-16T16:04:12Z</time>
</trkpt>
<trkpt lat="52.52951431274414" lon="13.372292518615723">
<ele>71.9000015258789</ele>
<time>2014-02-16T16:04:13Z</time>
</trkpt>
<trkpt lat="52.529476165771484" lon="13.372335433959961">
<ele>71.80000305175781</ele>
<time>2014-02-16T16:04:14Z</time>
</trkpt>
<trkpt lat="52.52940368652344" lon="13.372418403625488">
<ele>71.4000015258789</ele>
<time>2014-02-16T16:04:16Z</time>
</trkpt>
<trkpt lat="52.529335021972656" lon="13.3725004196167">
<ele>71.5999984741211</ele>
<time>2014-02-16T16:04:18Z</time>
</trkpt>
<trkpt lat="52.529296875" lon="13.37254524230957">
<ele>71.5999984741211</ele>
<time>2014-02-16T16:04:19Z</time>
</trkpt>
<trkpt lat="52.52925491333008" lon="13.372588157653809">
<ele>71.69999694824219</ele>
<time>2014-02-16T16:04:20Z</time>
</trkpt>
<trkpt lat="52.52922058105469" lon="13.372634887695312">
<ele>71.5</ele>
<time>2014-02-16T16:04:21Z</time>
</trkpt>
<trkpt lat="52.529178619384766" lon="13.372676849365234">
<ele>71.5999984741211</ele>
<time>2014-02-16T16:04:22Z</time>
</trkpt>
<trkpt lat="52.52914047241211" lon="13.372724533081055">
<ele>71.4000015258789</ele>
<time>2014-02-16T16:04:23Z</time>
</trkpt>
<trkpt lat="52.5290641784668" lon="13.37279224395752">
<ele>72.5</ele>
<time>2014-02-16T16:04:25Z</time>
</trkpt>
<trkpt lat="52.52902603149414" lon="13.372831344604492">
<ele>72.5</ele>
<time>2014-02-16T16:04:26Z</time>
</trkpt>
<trkpt lat="52.528987884521484" lon="13.37287425994873">
<ele>72.4000015258789</ele>
<time>2014-02-16T16:04:27Z</time>
</trkpt>
<trkpt lat="52.52894973754883" lon="13.372917175292969">
<ele>72.4000015258789</ele>
<time>2014-02-16T16:04:28Z</time>
</trkpt>
<trkpt lat="52.52891159057617" lon="13.37295913696289">
<ele>72.0999984741211</ele>
<time>2014-02-16T16:04:29Z</time>
</trkpt>
<trkpt lat="52.52884292602539" lon="13.37303638458252">
<ele>71.80000305175781</ele>
<time>2014-02-16T16:04:31Z</time>
</trkpt>
<trkpt lat="52.52878952026367" lon="13.373082160949707">
<ele>71.5999984741211</ele>
<time>2014-02-16T16:04:33Z</time>
</trkpt>
<trkpt lat="52.52873229980469" lon="13.373156547546387">
<ele>71.80000305175781</ele>
<time>2014-02-16T16:04:35Z</time>
</trkpt>
<trkpt lat="52.528690338134766" lon="13.373250007629395">
<ele>71.69999694824219</ele>
<time>2014-02-16T16:04:37Z</time>
</trkpt>
<trkpt lat="52.528629302978516" lon="13.373316764831543">
<ele>72.4000015258789</ele>
<time>2014-02-16T16:04:39Z</time>
</trkpt>
<trkpt lat="52.528568267822266" lon="13.37339973449707">
<ele>72.80000305175781</ele>
<time>2014-02-16T16:04:41Z</time>
</trkpt>
<trkpt lat="52.52852249145508" lon="13.373482704162598">
<ele>71.80000305175781</ele>
<time>2014-02-16T16:04:43Z</time>
</trkpt>
<trkpt lat="52.528472900390625" lon="13.373553276062012">
<ele>71.30000305175781</ele>
<time>2014-02-16T16:04:45Z</time>
</trkpt>
<trkpt lat="52.528419494628906" lon="13.373618125915527">
<ele>71.19999694824219</ele>
<time>2014-02-16T16:04:47Z</time>
</trkpt>
<trkpt lat="52.52836990356445" lon="13.373677253723145">
<ele>71.5</ele>
<time>2014-02-16T16:04:49Z</time>
</trkpt>
<trkpt lat="52.52831268310547" lon="13.373722076416016">
<ele>72.5999984741211</ele>
<time>2014-02-16T16:04:51Z</time>
</trkpt>
<trkpt lat="52.528255462646484" lon="13.373770713806152">
<ele>74.0</ele>
<time>2014-02-16T16:04:53Z</time>
</trkpt>
<trkpt lat="52.528221130371094" lon="13.373856544494629">
<ele>74.5999984741211</ele>
<time>2014-02-16T16:04:55Z</time>
</trkpt>
<trkpt lat="52.52819061279297" lon="13.373909950256348">
<ele>75.69999694824219</ele>
<time>2014-02-16T16:04:57Z</time>
</trkpt>
<trkpt lat="52.528141021728516" lon="13.373950958251953">
<ele>76.30000305175781</ele>
<time>2014-02-16T16:05:00Z</time>
</trkpt>
<trkpt lat="52.52809524536133" lon="13.373987197875977">
<ele>76.5999984741211</ele>
<time>2014-02-16T16:05:02Z</time>
</trkpt>
<trkpt lat="52.52806854248047" lon="13.37406063079834">
<ele>75.80000305175781</ele>
<time>2014-02-16T16:05:07Z</time>
</trkpt>
<trkpt lat="52.52809524536133" lon="13.374143600463867">
<ele>74.5999984741211</ele>
<time>2014-02-16T16:05:11Z</time>
</trkpt>
<trkpt lat="52.52804946899414" lon="13.374202728271484">
<ele>74.5999984741211</ele>
<time>2014-02-16T16:05:50Z</time>
</trkpt>
<trkpt lat="52.52799987792969" lon="13.374256134033203">
<ele>75.0999984741211</ele>
<time>2014-02-16T16:05:52Z</time>
</trkpt>
<trkpt lat="52.52793884277344" lon="13.374308586120605">
<ele>75.0</ele>
<time>2014-02-16T16:05:54Z</time>
</trkpt>
<trkpt lat="52.52786636352539" lon="13.37436294555664">
<ele>75.19999694824219</ele>
<time>2014-02-16T16:05:56Z</time>
</trkpt>
<trkpt lat="52.527793884277344" lon="13.374393463134766">
<ele>75.69999694824219</ele>
<time>2014-02-16T16:05:58Z</time>
</trkpt>
<trkpt lat="52.52772903442383" lon="13.374429702758789">
<ele>75.30000305175781</ele>
<time>2014-02-16T16:06:00Z</time>
</trkpt>
<trkpt lat="52.52766418457031" lon="13.374451637268066">
<ele>74.4000015258789</ele>
<time>2014-02-16T16:06:02Z</time>
</trkpt>
<trkpt lat="52.527584075927734" lon="13.374470710754395">
<ele>73.19999694824219</ele>
<time>2014-02-16T16:06:04Z</time>
</trkpt>
<trkpt lat="52.527496337890625" lon="13.374505043029785">
<ele>73.0999984741211</ele>
<time>2014-02-16T16:06:06Z</time>
</trkpt>
<trkpt lat="52.527408599853516" lon="13.374532699584961">
<ele>73.19999694824219</ele>
<time>2014-02-16T16:06:08Z</time>
</trkpt>
<trkpt lat="52.52735900878906" lon="13.374542236328125">
<ele>73.19999694824219</ele>
<time>2014-02-16T16:06:09Z</time>
</trkpt>
<trkpt lat="52.527313232421875" lon="13.374554634094238">
<ele>73.30000305175781</ele>
<time>2014-02-16T16:06:10Z</time>
</trkpt>
<trkpt lat="52.52726745605469" lon="13.37456226348877">
<ele>73.4000015258789</ele>
<time>2014-02-16T16:06:11Z</time>
</trkpt>
<trkpt lat="52.527217864990234" lon="13.374568939208984">
<ele>73.5</ele>
<time>2014-02-16T16:06:12Z</time>
</trkpt>
<trkpt lat="52.52712631225586" lon="13.374568939208984">
<ele>73.19999694824219</ele>
<time>2014-02-16T16:06:14Z</time>
</trkpt>
<trkpt lat="52.52707290649414" lon="13.374560356140137">
<ele>73.80000305175781</ele>
<time>2014-02-16T16:06:15Z</time>
</trkpt>
<trkpt lat="52.526981353759766" lon="13.374536514282227">
<ele>73.5999984741211</ele>
<time>2014-02-16T16:06:17Z</time>
</trkpt>
<trkpt lat="52.52693557739258" lon="13.374524116516113">
<ele>73.4000015258789</ele>
<time>2014-02-16T16:06:18Z</time>
</trkpt>
<trkpt lat="52.526885986328125" lon="13.374513626098633">
<ele>73.30000305175781</ele>
<time>2014-02-16T16:06:19Z</time>
</trkpt>
<trkpt lat="52.526798248291016" lon="13.374482154846191">
<ele>73.30000305175781</ele>
<time>2014-02-16T16:06:21Z</time>
</trkpt>
<trkpt lat="52.52674865722656" lon="13.374462127685547">
<ele>73.0999984741211</ele>
<time>2014-02-16T16:06:22Z</time>
</trkpt>
<trkpt lat="52.526702880859375" lon="13.374439239501953">
<ele>73.5</ele>
<time>2014-02-16T16:06:23Z</time>
</trkpt>
<trkpt lat="52.52665710449219" lon="13.374408721923828">
<ele>73.80000305175781</ele>
<time>2014-02-16T16:06:24Z</time>
</trkpt>
<trkpt lat="52.52661895751953" lon="13.374373435974121">
<ele>74.19999694824219</ele>
<time>2014-02-16T16:06:25Z</time>
</trkpt>
<trkpt lat="52.52657699584961" lon="13.374342918395996">
<ele>73.9000015258789</ele>
<time>2014-02-16T16:06:26Z</time>
</trkpt>
<trkpt lat="52.526493072509766" lon="13.37429141998291">
<ele>73.5999984741211</ele>
<time>2014-02-16T16:06:28Z</time>
</trkpt>
<trkpt lat="52.52641677856445" lon="13.37421989440918">
<ele>73.0</ele>
<time>2014-02-16T16:06:30Z</time>
</trkpt>
<trkpt lat="52.526344299316406" lon="13.374144554138184">
<ele>73.30000305175781</ele>
<time>2014-02-16T16:06:32Z</time>
</trkpt>
<trkpt lat="52.526268005371094" lon="13.374064445495605">
<ele>73.5</ele>
<time>2014-02-16T16:06:34Z</time>
</trkpt>
<trkpt lat="52.52622604370117" lon="13.374022483825684">
<ele>73.5999984741211</ele>
<time>2014-02-16T16:06:35Z</time>
</trkpt>
<trkpt lat="52.526153564453125" lon="13.373958587646484">
<ele>73.80000305175781</ele>
<time>2014-02-16T16:06:37Z</time>
</trkpt>
<trkpt lat="52.526084899902344" lon="13.373889923095703">
<ele>73.19999694824219</ele>
<time>2014-02-16T16:06:39Z</time>
</trkpt>
<trkpt lat="52.52602005004883" lon="13.373824119567871">
<ele>73.19999694824219</ele>
<time>2014-02-16T16:06:41Z</time>
</trkpt>
<trkpt lat="52.52595138549805" lon="13.373749732971191">
<ele>73.19999694824219</ele>
<time>2014-02-16T16:06:43Z</time>
</trkpt>
<trkpt lat="52.52587127685547" lon="13.37368106842041">
<ele>73.80000305175781</ele>
<time>2014-02-16T16:06:45Z</time>
</trkpt>
<trkpt lat="52.52582550048828" lon="13.373687744140625">
<ele>73.19999694824219</ele>
<time>2014-02-16T16:06:46Z</time>
</trkpt>
<trkpt lat="52.5257453918457" lon="13.373682975769043">
<ele>73.30000305175781</ele>
<time>2014-02-16T16:06:48Z</time>
</trkpt>
<trkpt lat="52.525672912597656" lon="13.373677253723145">
<ele>74.30000305175781</ele>
<time>2014-02-16T16:06:50Z</time>
</trkpt>
<trkpt lat="52.525596618652344" lon="13.37367057800293">
<ele>74.69999694824219</ele>
<time>2014-02-16T16:06:52Z</time>
</trkpt>
<trkpt lat="52.52552032470703" lon="13.373664855957031">
<ele>75.69999694824219</ele>
<time>2014-02-16T16:06:54Z</time>
</trkpt>
<trkpt lat="52.525447845458984" lon="13.373661994934082">
<ele>76.0999984741211</ele>
<time>2014-02-16T16:06:56Z</time>
</trkpt>
<trkpt lat="52.52537155151367" lon="13.373658180236816">
<ele>76.4000015258789</ele>
<time>2014-02-16T16:06:58Z</time>
</trkpt>
<trkpt lat="52.525299072265625" lon="13.3736572265625">
<ele>76.30000305175781</ele>
<time>2014-02-16T16:07:00Z</time>
</trkpt>
<trkpt lat="52.52522277832031" lon="13.373658180236816">
<ele>76.30000305175781</ele>
<time>2014-02-16T16:07:02Z</time>
</trkpt>
<trkpt lat="52.525150299072266" lon="13.37366771697998">
<ele>77.69999694824219</ele>
<time>2014-02-16T16:07:04Z</time>
</trkpt>
<trkpt lat="52.52507400512695" lon="13.373666763305664">
<ele>77.69999694824219</ele>
<time>2014-02-16T16:07:06Z</time>
</trkpt>
<trkpt lat="52.52499771118164" lon="13.373664855957031">
<ele>77.80000305175781</ele>
<time>2014-02-16T16:07:08Z</time>
</trkpt>
<trkpt lat="52.52490997314453" lon="13.373689651489258">
<ele>77.9000015258789</ele>
<time>2014-02-16T16:07:10Z</time>
</trkpt>
<trkpt lat="52.524864196777344" lon="13.373716354370117">
<ele>78.0999984741211</ele>
<time>2014-02-16T16:07:11Z</time>
</trkpt>
<trkpt lat="52.52481460571289" lon="13.373744010925293">
<ele>76.19999694824219</ele>
<time>2014-02-16T16:07:13Z</time>
</trkpt>
<trkpt lat="52.524742126464844" lon="13.373735427856445">
<ele>76.5999984741211</ele>
<time>2014-02-16T16:07:16Z</time>
</trkpt>
<trkpt lat="52.52469253540039" lon="13.373727798461914">
<ele>76.69999694824219</ele>
<time>2014-02-16T16:07:17Z</time>
</trkpt>
<trkpt lat="52.5246467590332" lon="13.373706817626953">
<ele>77.5</ele>
<time>2014-02-16T16:07:18Z</time>
</trkpt>
<trkpt lat="52.524593353271484" lon="13.373713493347168">
<ele>78.5999984741211</ele>
<time>2014-02-16T16:07:19Z</time>
</trkpt>
<trkpt lat="52.52450180053711" lon="13.37371826171875">
<ele>79.0</ele>
<time>2014-02-16T16:07:21Z</time>
</trkpt>
<trkpt lat="52.524417877197266" lon="13.37374210357666">
<ele>77.80000305175781</ele>
<time>2014-02-16T16:07:23Z</time>
</trkpt>
<trkpt lat="52.52437210083008" lon="13.373762130737305">
<ele>79.5</ele>
<time>2014-02-16T16:07:25Z</time>
</trkpt>
<trkpt lat="52.524288177490234" lon="13.373766899108887">
<ele>78.30000305175781</ele>
<time>2014-02-16T16:07:26Z</time>
</trkpt>
<trkpt lat="52.52421569824219" lon="13.373761177062988">
<ele>77.4000015258789</ele>
<time>2014-02-16T16:07:28Z</time>
</trkpt>
<trkpt lat="52.52414321899414" lon="13.373763084411621">
<ele>78.30000305175781</ele>
<time>2014-02-16T16:07:30Z</time>
</trkpt>
<trkpt lat="52.524070739746094" lon="13.373767852783203">
<ele>78.19999694824219</ele>
<time>2014-02-16T16:07:32Z</time>
</trkpt>
<trkpt lat="52.52402114868164" lon="13.37377643585205">
<ele>78.19999694824219</ele>
<time>2014-02-16T16:07:33Z</time>
</trkpt>
<trkpt lat="52.52394104003906" lon="13.37377643585205">
<ele>77.30000305175781</ele>
<time>2014-02-16T16:07:35Z</time>
</trkpt>
<trkpt lat="52.523887634277344" lon="13.373764991760254">
<ele>76.5999984741211</ele>
<time>2014-02-16T16:07:37Z</time>
</trkpt>
<trkpt lat="52.5238151550293" lon="13.373781204223633">
<ele>78.0999984741211</ele>
<time>2014-02-16T16:07:39Z</time>
</trkpt>
<trkpt lat="52.52375411987305" lon="13.373764038085938">
<ele>77.9000015258789</ele>
<time>2014-02-16T16:07:41Z</time>
</trkpt>
<trkpt lat="52.5236930847168" lon="13.373764991760254">
<ele>77.4000015258789</ele>
<time>2014-02-16T16:07:43Z</time>
</trkpt>
<trkpt lat="52.52363204956055" lon="13.373770713806152">
<ele>76.5999984741211</ele>
<time>2014-02-16T16:07:45Z</time>
</trkpt>
<trkpt lat="52.52357864379883" lon="13.37376880645752">
<ele>77.0999984741211</ele>
<time>2014-02-16T16:07:47Z</time>
</trkpt>
<trkpt lat="52.52351379394531" lon="13.373766899108887">
<ele>77.5</ele>
<time>2014-02-16T16:07:50Z</time>
</trkpt>
<trkpt lat="52.523468017578125" lon="13.373733520507812">
<ele>78.0</ele>
<time>2014-02-16T16:07:53Z</time>
</trkpt>
<trkpt lat="52.52339553833008" lon="13.373747825622559">
<ele>77.4000015258789</ele>
<time>2014-02-16T16:08:12Z</time>
</trkpt>
<trkpt lat="52.523353576660156" lon="13.373820304870605">
<ele>77.4000015258789</ele>
<time>2014-02-16T16:08:14Z</time>
</trkpt>
<trkpt lat="52.5233154296875" lon="13.37392807006836">
<ele>77.4000015258789</ele>
<time>2014-02-16T16:08:16Z</time>
</trkpt>
<trkpt lat="52.52328872680664" lon="13.374034881591797">
<ele>77.5</ele>
<time>2014-02-16T16:08:18Z</time>
</trkpt>
<trkpt lat="52.52326965332031" lon="13.374141693115234">
<ele>77.80000305175781</ele>
<time>2014-02-16T16:08:20Z</time>
</trkpt>
<trkpt lat="52.52324295043945" lon="13.37421703338623">
<ele>77.19999694824219</ele>
<time>2014-02-16T16:08:21Z</time>
</trkpt>
<trkpt lat="52.523216247558594" lon="13.374342918395996">
<ele>77.9000015258789</ele>
<time>2014-02-16T16:08:23Z</time>
</trkpt>
<trkpt lat="52.52317810058594" lon="13.374455451965332">
<ele>78.9000015258789</ele>
<time>2014-02-16T16:08:25Z</time>
</trkpt>
<trkpt lat="52.52314758300781" lon="13.374578475952148">
<ele>78.5999984741211</ele>
<time>2014-02-16T16:08:27Z</time>
</trkpt>
<trkpt lat="52.52310562133789" lon="13.3746976852417">
<ele>78.9000015258789</ele>
<time>2014-02-16T16:08:29Z</time>
</trkpt>
<trkpt lat="52.52306365966797" lon="13.374822616577148">
<ele>80.0999984741211</ele>
<time>2014-02-16T16:08:31Z</time>
</trkpt>
<trkpt lat="52.52302169799805" lon="13.374935150146484">
<ele>80.19999694824219</ele>
<time>2014-02-16T16:08:33Z</time>
</trkpt>
<trkpt lat="52.522972106933594" lon="13.375049591064453">
<ele>80.5999984741211</ele>
<time>2014-02-16T16:08:35Z</time>
</trkpt>
<trkpt lat="52.522911071777344" lon="13.37515926361084">
<ele>81.0999984741211</ele>
<time>2014-02-16T16:08:37Z</time>
</trkpt>
<trkpt lat="52.522884368896484" lon="13.37521743774414">
<ele>81.5</ele>
<time>2014-02-16T16:08:38Z</time>
</trkpt>
<trkpt lat="52.522850036621094" lon="13.375274658203125">
<ele>81.5999984741211</ele>
<time>2014-02-16T16:08:39Z</time>
</trkpt>
<trkpt lat="52.522789001464844" lon="13.375382423400879">
<ele>81.4000015258789</ele>
<time>2014-02-16T16:08:41Z</time>
</trkpt>
<trkpt lat="52.522735595703125" lon="13.375492095947266">
<ele>81.80000305175781</ele>
<time>2014-02-16T16:08:43Z</time>
</trkpt>
<trkpt lat="52.52265167236328" lon="13.375663757324219">
<ele>82.4000015258789</ele>
<time>2014-02-16T16:08:47Z</time>
</trkpt>
<trkpt lat="52.52259826660156" lon="13.375760078430176">
<ele>82.19999694824219</ele>
<time>2014-02-16T16:08:48Z</time>
</trkpt>
<trkpt lat="52.52254104614258" lon="13.3758544921875">
<ele>82.80000305175781</ele>
<time>2014-02-16T16:08:50Z</time>
</trkpt>
<trkpt lat="52.522483825683594" lon="13.375946044921875">
<ele>82.19999694824219</ele>
<time>2014-02-16T16:08:52Z</time>
</trkpt>
<trkpt lat="52.522422790527344" lon="13.37602710723877">
<ele>82.5999984741211</ele>
<time>2014-02-16T16:08:54Z</time>
</trkpt>
<trkpt lat="52.52236557006836" lon="13.376105308532715">
<ele>83.5999984741211</ele>
<time>2014-02-16T16:08:56Z</time>
</trkpt>
<trkpt lat="52.52229690551758" lon="13.376178741455078">
<ele>83.80000305175781</ele>
<time>2014-02-16T16:08:58Z</time>
</trkpt>
<trkpt lat="52.52225875854492" lon="13.37621784210205">
<ele>83.80000305175781</ele>
<time>2014-02-16T16:08:59Z</time>
</trkpt>
<trkpt lat="52.5222053527832" lon="13.37626838684082">
<ele>84.0999984741211</ele>
<time>2014-02-16T16:09:01Z</time>
</trkpt>
<trkpt lat="52.52215576171875" lon="13.376301765441895">
<ele>84.0999984741211</ele>
<time>2014-02-16T16:09:03Z</time>
</trkpt>
<trkpt lat="52.52210235595703" lon="13.37626838684082">
<ele>83.5</ele>
<time>2014-02-16T16:09:05Z</time>
</trkpt>
<trkpt lat="52.52206039428711" lon="13.37621784210205">
<ele>82.9000015258789</ele>
<time>2014-02-16T16:09:07Z</time>
</trkpt>
<trkpt lat="52.52203369140625" lon="13.376128196716309">
<ele>82.9000015258789</ele>
<time>2014-02-16T16:09:09Z</time>
</trkpt>
<trkpt lat="52.52200698852539" lon="13.376042366027832">
<ele>82.69999694824219</ele>
<time>2014-02-16T16:09:11Z</time>
</trkpt>
<trkpt lat="52.521976470947266" lon="13.375955581665039">
<ele>82.4000015258789</ele>
<time>2014-02-16T16:09:13Z</time>
</trkpt>
<trkpt lat="52.521949768066406" lon="13.375872611999512">
<ele>82.5999984741211</ele>
<time>2014-02-16T16:09:15Z</time>
</trkpt>
<trkpt lat="52.52191925048828" lon="13.375787734985352">
<ele>82.5999984741211</ele>
<time>2014-02-16T16:09:17Z</time>
</trkpt>
<trkpt lat="52.52189254760742" lon="13.375699996948242">
<ele>82.0</ele>
<time>2014-02-16T16:09:19Z</time>
</trkpt>
<trkpt lat="52.521854400634766" lon="13.375600814819336">
<ele>81.4000015258789</ele>
<time>2014-02-16T16:09:21Z</time>
</trkpt>
<trkpt lat="52.52182388305664" lon="13.375494956970215">
<ele>81.0</ele>
<time>2014-02-16T16:09:23Z</time>
</trkpt>
<trkpt lat="52.52178192138672" lon="13.37537956237793">
<ele>80.5999984741211</ele>
<time>2014-02-16T16:09:25Z</time>
</trkpt>
<trkpt lat="52.5217399597168" lon="13.375262260437012">
<ele>80.19999694824219</ele>
<time>2014-02-16T16:09:27Z</time>
</trkpt>
<trkpt lat="52.52171325683594" lon="13.375198364257812">
<ele>79.80000305175781</ele>
<time>2014-02-16T16:09:28Z</time>
</trkpt>
<trkpt lat="52.52168655395508" lon="13.375133514404297">
<ele>79.4000015258789</ele>
<time>2014-02-16T16:09:29Z</time>
</trkpt>
<trkpt lat="52.52165603637695" lon="13.375069618225098">
<ele>79.5999984741211</ele>
<time>2014-02-16T16:09:30Z</time>
</trkpt>
<trkpt lat="52.52162170410156" lon="13.375005722045898">
<ele>79.5</ele>
<time>2014-02-16T16:09:31Z</time>
</trkpt>
<trkpt lat="52.52158737182617" lon="13.374930381774902">
<ele>79.30000305175781</ele>
<time>2014-02-16T16:09:32Z</time>
</trkpt>
<trkpt lat="52.52155303955078" lon="13.37486457824707">
<ele>78.80000305175781</ele>
<time>2014-02-16T16:09:33Z</time>
</trkpt>
<trkpt lat="52.521514892578125" lon="13.374792098999023">
<ele>78.5</ele>
<time>2014-02-16T16:09:34Z</time>
</trkpt>
<trkpt lat="52.52147674560547" lon="13.374724388122559">
<ele>78.19999694824219</ele>
<time>2014-02-16T16:09:35Z</time>
</trkpt>
<trkpt lat="52.52144241333008" lon="13.374654769897461">
<ele>78.0999984741211</ele>
<time>2014-02-16T16:09:36Z</time>
</trkpt>
<trkpt lat="52.52140808105469" lon="13.37458324432373">
<ele>77.9000015258789</ele>
<time>2014-02-16T16:09:37Z</time>
</trkpt>
<trkpt lat="52.52136993408203" lon="13.374520301818848">
<ele>77.5999984741211</ele>
<time>2014-02-16T16:09:38Z</time>
</trkpt>
<trkpt lat="52.521324157714844" lon="13.374459266662598">
<ele>77.0999984741211</ele>
<time>2014-02-16T16:09:39Z</time>
</trkpt>
<trkpt lat="52.521278381347656" lon="13.374399185180664">
<ele>76.80000305175781</ele>
<time>2014-02-16T16:09:40Z</time>
</trkpt>
<trkpt lat="52.521244049072266" lon="13.374338150024414">
<ele>76.69999694824219</ele>
<time>2014-02-16T16:09:41Z</time>
</trkpt>
<trkpt lat="52.52120590209961" lon="13.374274253845215">
<ele>76.5</ele>
<time>2014-02-16T16:09:42Z</time>
</trkpt>
<trkpt lat="52.52116775512695" lon="13.374208450317383">
<ele>75.5999984741211</ele>
<time>2014-02-16T16:09:43Z</time>
</trkpt>
<trkpt lat="52.52113723754883" lon="13.374141693115234">
<ele>75.4000015258789</ele>
<time>2014-02-16T16:09:44Z</time>
</trkpt>
<trkpt lat="52.52110290527344" lon="13.3740816116333">
<ele>75.0999984741211</ele>
<time>2014-02-16T16:09:45Z</time>
</trkpt>
<trkpt lat="52.52107238769531" lon="13.37402057647705">
<ele>75.19999694824219</ele>
<time>2014-02-16T16:09:46Z</time>
</trkpt>
<trkpt lat="52.52104568481445" lon="13.373961448669434">
<ele>75.19999694824219</ele>
<time>2014-02-16T16:09:47Z</time>
</trkpt>
<trkpt lat="52.52101135253906" lon="13.37390422821045">
<ele>74.80000305175781</ele>
<time>2014-02-16T16:09:48Z</time>
</trkpt>
<trkpt lat="52.520957946777344" lon="13.37380599975586">
<ele>73.9000015258789</ele>
<time>2014-02-16T16:09:50Z</time>
</trkpt>
<trkpt lat="52.52093505859375" lon="13.373684883117676">
<ele>73.4000015258789</ele>
<time>2014-02-16T16:09:52Z</time>
</trkpt>
<trkpt lat="52.52092361450195" lon="13.373600959777832">
<ele>73.30000305175781</ele>
<time>2014-02-16T16:09:54Z</time>
</trkpt>
<trkpt lat="52.52092361450195" lon="13.37352466583252">
<ele>73.5</ele>
<time>2014-02-16T16:09:56Z</time>
</trkpt>
<trkpt lat="52.52091979980469" lon="13.373442649841309">
<ele>73.9000015258789</ele>
<time>2014-02-16T16:09:59Z</time>
</trkpt>
<trkpt lat="52.52088928222656" lon="13.373374938964844">
<ele>74.19999694824219</ele>
<time>2014-02-16T16:10:03Z</time>
</trkpt>
<trkpt lat="52.52083206176758" lon="13.373346328735352">
<ele>75.0</ele>
<time>2014-02-16T16:10:06Z</time>
</trkpt>
<trkpt lat="52.520774841308594" lon="13.37332534790039">
<ele>74.4000015258789</ele>
<time>2014-02-16T16:10:09Z</time>
</trkpt>
<trkpt lat="52.52072525024414" lon="13.373345375061035">
<ele>74.5</ele>
<time>2014-02-16T16:10:11Z</time>
</trkpt>
<trkpt lat="52.52067184448242" lon="13.373395919799805">
<ele>74.5</ele>
<time>2014-02-16T16:10:13Z</time>
</trkpt>
<trkpt lat="52.52061080932617" lon="13.373430252075195">
<ele>74.30000305175781</ele>
<time>2014-02-16T16:10:15Z</time>
</trkpt>
<trkpt lat="52.52055358886719" lon="13.373427391052246">
<ele>74.5999984741211</ele>
<time>2014-02-16T16:10:17Z</time>
</trkpt>
<trkpt lat="52.52048873901367" lon="13.373428344726562">
<ele>74.5</ele>
<time>2014-02-16T16:10:19Z</time>
</trkpt>
<trkpt lat="52.520423889160156" lon="13.373427391052246">
<ele>75.0</ele>
<time>2014-02-16T16:10:21Z</time>
</trkpt>
<trkpt lat="52.52036666870117" lon="13.373435020446777">
<ele>75.5999984741211</ele>
<time>2014-02-16T16:10:23Z</time>
</trkpt>
<trkpt lat="52.52027130126953" lon="13.373464584350586">
<ele>76.5</ele>
<time>2014-02-16T16:10:25Z</time>
</trkpt>
<trkpt lat="52.520225524902344" lon="13.37346363067627">
<ele>78.80000305175781</ele>
<time>2014-02-16T16:10:27Z</time>
</trkpt>
<trkpt lat="52.5201530456543" lon="13.373443603515625">
<ele>81.69999694824219</ele>
<time>2014-02-16T16:10:29Z</time>
</trkpt>
<trkpt lat="52.52008056640625" lon="13.373395919799805">
<ele>83.69999694824219</ele>
<time>2014-02-16T16:10:31Z</time>
</trkpt>
<trkpt lat="52.52003479003906" lon="13.373357772827148">
<ele>84.9000015258789</ele>
<time>2014-02-16T16:10:32Z</time>
</trkpt>
<trkpt lat="52.51995849609375" lon="13.373332977294922">
<ele>86.19999694824219</ele>
<time>2014-02-16T16:10:34Z</time>
</trkpt>
<trkpt lat="52.51991271972656" lon="13.373286247253418">
<ele>87.19999694824219</ele>
<time>2014-02-16T16:10:35Z</time>
</trkpt>
<trkpt lat="52.51984786987305" lon="13.37320613861084">
<ele>89.69999694824219</ele>
<time>2014-02-16T16:10:37Z</time>
</trkpt>
<trkpt lat="52.51981735229492" lon="13.373275756835938">
<ele>88.80000305175781</ele>
<time>2014-02-16T16:10:38Z</time>
</trkpt>
<trkpt lat="52.51978302001953" lon="13.373342514038086">
<ele>88.5</ele>
<time>2014-02-16T16:10:39Z</time>
</trkpt>
<trkpt lat="52.51972579956055" lon="13.373321533203125">
<ele>89.30000305175781</ele>
<time>2014-02-16T16:10:41Z</time>
</trkpt>
<trkpt lat="52.51964569091797" lon="13.373368263244629">
<ele>87.30000305175781</ele>
<time>2014-02-16T16:10:43Z</time>
</trkpt>
<trkpt lat="52.519561767578125" lon="13.373391151428223">
<ele>85.19999694824219</ele>
<time>2014-02-16T16:10:46Z</time>
</trkpt>
<trkpt lat="52.519508361816406" lon="13.373419761657715">
<ele>83.4000015258789</ele>
<time>2014-02-16T16:10:48Z</time>
</trkpt>
<trkpt lat="52.51945877075195" lon="13.37344741821289">
<ele>82.69999694824219</ele>
<time>2014-02-16T16:10:51Z</time>
</trkpt>
<trkpt lat="52.51941680908203" lon="13.37347412109375">
<ele>80.69999694824219</ele>
<time>2014-02-16T16:10:53Z</time>
</trkpt>
<trkpt lat="52.51938247680664" lon="13.373551368713379">
<ele>78.19999694824219</ele>
<time>2014-02-16T16:10:56Z</time>
</trkpt>
<trkpt lat="52.519386291503906" lon="13.373636245727539">
<ele>76.4000015258789</ele>
<time>2014-02-16T16:10:59Z</time>
</trkpt>
<trkpt lat="52.51937484741211" lon="13.3737211227417">
<ele>75.80000305175781</ele>
<time>2014-02-16T16:11:01Z</time>
</trkpt>
<trkpt lat="52.519378662109375" lon="13.373802185058594">
<ele>74.5</ele>
<time>2014-02-16T16:11:03Z</time>
</trkpt>
<trkpt lat="52.519378662109375" lon="13.373887062072754">
<ele>74.0999984741211</ele>
<time>2014-02-16T16:11:05Z</time>
</trkpt>
<trkpt lat="52.519386291503906" lon="13.373961448669434">
<ele>73.0999984741211</ele>
<time>2014-02-16T16:11:07Z</time>
</trkpt>
<trkpt lat="52.51938247680664" lon="13.37403678894043">
<ele>72.80000305175781</ele>
<time>2014-02-16T16:11:09Z</time>
</trkpt>
<trkpt lat="52.519378662109375" lon="13.374114036560059">
<ele>72.80000305175781</ele>
<time>2014-02-16T16:11:11Z</time>
</trkpt>
<trkpt lat="52.519378662109375" lon="13.374211311340332">
<ele>72.69999694824219</ele>
<time>2014-02-16T16:11:13Z</time>
</trkpt>
<trkpt lat="52.519378662109375" lon="13.374316215515137">
<ele>72.9000015258789</ele>
<time>2014-02-16T16:11:15Z</time>
</trkpt>
<trkpt lat="52.519378662109375" lon="13.37442684173584">
<ele>72.69999694824219</ele>
<time>2014-02-16T16:11:17Z</time>
</trkpt>
<trkpt lat="52.51937484741211" lon="13.374543190002441">
<ele>72.5</ele>
<time>2014-02-16T16:11:19Z</time>
</trkpt>
<trkpt lat="52.51938247680664" lon="13.374643325805664">
<ele>72.5</ele>
<time>2014-02-16T16:11:21Z</time>
</trkpt>
<trkpt lat="52.51938247680664" lon="13.374744415283203">
<ele>72.5</ele>
<time>2014-02-16T16:11:23Z</time>
</trkpt>
<trkpt lat="52.519386291503906" lon="13.374837875366211">
<ele>72.5</ele>
<time>2014-02-16T16:11:25Z</time>
</trkpt>
<trkpt lat="52.51938247680664" lon="13.37492561340332">
<ele>72.4000015258789</ele>
<time>2014-02-16T16:11:27Z</time>
</trkpt>
<trkpt lat="52.519378662109375" lon="13.375006675720215">
<ele>72.5</ele>
<time>2014-02-16T16:11:29Z</time>
</trkpt>
<trkpt lat="52.51938247680664" lon="13.375093460083008">
<ele>72.4000015258789</ele>
<time>2014-02-16T16:11:31Z</time>
</trkpt>
<trkpt lat="52.519378662109375" lon="13.37519645690918">
<ele>72.30000305175781</ele>
<time>2014-02-16T16:11:33Z</time>
</trkpt>
<trkpt lat="52.51937484741211" lon="13.375314712524414">
<ele>72.19999694824219</ele>
<time>2014-02-16T16:11:35Z</time>
</trkpt>
<trkpt lat="52.51937484741211" lon="13.375431060791016">
<ele>71.80000305175781</ele>
<time>2014-02-16T16:11:37Z</time>
</trkpt>
<trkpt lat="52.519378662109375" lon="13.37554931640625">
<ele>71.69999694824219</ele>
<time>2014-02-16T16:11:39Z</time>
</trkpt>
<trkpt lat="52.519378662109375" lon="13.375667572021484">
<ele>71.5999984741211</ele>
<time>2014-02-16T16:11:41Z</time>
</trkpt>
<trkpt lat="52.519378662109375" lon="13.375785827636719">
<ele>71.69999694824219</ele>
<time>2014-02-16T16:11:43Z</time>
</trkpt>
<trkpt lat="52.519378662109375" lon="13.375904083251953">
<ele>71.4000015258789</ele>
<time>2014-02-16T16:11:45Z</time>
</trkpt>
<trkpt lat="52.51938247680664" lon="13.376022338867188">
<ele>71.5999984741211</ele>
<time>2014-02-16T16:11:47Z</time>
</trkpt>
<trkpt lat="52.51939392089844" lon="13.376132011413574">
<ele>71.30000305175781</ele>
<time>2014-02-16T16:11:49Z</time>
</trkpt>
<trkpt lat="52.5194091796875" lon="13.376237869262695">
<ele>71.5</ele>
<time>2014-02-16T16:11:51Z</time>
</trkpt>
<trkpt lat="52.51939392089844" lon="13.376340866088867">
<ele>71.80000305175781</ele>
<time>2014-02-16T16:11:53Z</time>
</trkpt>
<trkpt lat="52.51938247680664" lon="13.376446723937988">
<ele>72.0</ele>
<time>2014-02-16T16:11:55Z</time>
</trkpt>
<trkpt lat="52.51937484741211" lon="13.37655258178711">
<ele>72.19999694824219</ele>
<time>2014-02-16T16:11:57Z</time>
</trkpt>
<trkpt lat="52.51936721801758" lon="13.376649856567383">
<ele>71.9000015258789</ele>
<time>2014-02-16T16:11:59Z</time>
</trkpt>
<trkpt lat="52.51934814453125" lon="13.376753807067871">
<ele>72.0</ele>
<time>2014-02-16T16:12:01Z</time>
</trkpt>
<trkpt lat="52.51933288574219" lon="13.376842498779297">
<ele>72.0</ele>
<time>2014-02-16T16:12:03Z</time>
</trkpt>
<trkpt lat="52.51930618286133" lon="13.376920700073242">
<ele>72.0999984741211</ele>
<time>2014-02-16T16:12:05Z</time>
</trkpt>
<trkpt lat="52.51927947998047" lon="13.376978874206543">
<ele>71.80000305175781</ele>
<time>2014-02-16T16:12:07Z</time>
</trkpt>
<trkpt lat="52.51925277709961" lon="13.377044677734375">
<ele>71.80000305175781</ele>
<time>2014-02-16T16:12:09Z</time>
</trkpt>
<trkpt lat="52.51924514770508" lon="13.377124786376953">
<ele>72.19999694824219</ele>
<time>2014-02-16T16:12:11Z</time>
</trkpt>
<trkpt lat="52.51924514770508" lon="13.377201080322266">
<ele>72.30000305175781</ele>
<time>2014-02-16T16:12:13Z</time>
</trkpt>
<trkpt lat="52.51923370361328" lon="13.37728214263916">
<ele>71.69999694824219</ele>
<time>2014-02-16T16:12:16Z</time>
</trkpt>
<trkpt lat="52.51921463012695" lon="13.377357482910156">
<ele>71.9000015258789</ele>
<time>2014-02-16T16:12:19Z</time>
</trkpt>
<trkpt lat="52.519203186035156" lon="13.377449035644531">
<ele>70.9000015258789</ele>
<time>2014-02-16T16:13:49Z</time>
</trkpt>
<trkpt lat="52.519195556640625" lon="13.377532005310059">
<ele>70.80000305175781</ele>
<time>2014-02-16T16:13:51Z</time>
</trkpt>
<trkpt lat="52.51917266845703" lon="13.377608299255371">
<ele>70.69999694824219</ele>
<time>2014-02-16T16:13:53Z</time>
</trkpt>
<trkpt lat="52.51914596557617" lon="13.377696990966797">
<ele>70.69999694824219</ele>
<time>2014-02-16T16:13:55Z</time>
</trkpt>
<trkpt lat="52.51911544799805" lon="13.377788543701172">
<ele>70.69999694824219</ele>
<time>2014-02-16T16:13:57Z</time>
</trkpt>
<trkpt lat="52.519107818603516" lon="13.377886772155762">
<ele>71.19999694824219</ele>
<time>2014-02-16T16:13:59Z</time>
</trkpt>
<trkpt lat="52.51907730102539" lon="13.377982139587402">
<ele>71.0</ele>
<time>2014-02-16T16:14:01Z</time>
</trkpt>
<trkpt lat="52.519046783447266" lon="13.378083229064941">
<ele>71.0</ele>
<time>2014-02-16T16:14:03Z</time>
</trkpt>
<trkpt lat="52.51902389526367" lon="13.378174781799316">
<ele>70.80000305175781</ele>
<time>2014-02-16T16:14:05Z</time>
</trkpt>
<trkpt lat="52.519012451171875" lon="13.378276824951172">
<ele>71.5</ele>
<time>2014-02-16T16:14:07Z</time>
</trkpt>
<trkpt lat="52.519004821777344" lon="13.378390312194824">
<ele>72.4000015258789</ele>
<time>2014-02-16T16:14:09Z</time>
</trkpt>
<trkpt lat="52.518985748291016" lon="13.378508567810059">
<ele>72.80000305175781</ele>
<time>2014-02-16T16:14:11Z</time>
</trkpt>
<trkpt lat="52.51897048950195" lon="13.378623962402344">
<ele>73.0999984741211</ele>
<time>2014-02-16T16:14:13Z</time>
</trkpt>
<trkpt lat="52.518951416015625" lon="13.378745079040527">
<ele>73.30000305175781</ele>
<time>2014-02-16T16:14:15Z</time>
</trkpt>
<trkpt lat="52.5189323425293" lon="13.378874778747559">
<ele>73.5</ele>
<time>2014-02-16T16:14:17Z</time>
</trkpt>
<trkpt lat="52.51891326904297" lon="13.378998756408691">
<ele>73.30000305175781</ele>
<time>2014-02-16T16:14:19Z</time>
</trkpt>
<trkpt lat="52.518882751464844" lon="13.379125595092773">
<ele>73.80000305175781</ele>
<time>2014-02-16T16:14:21Z</time>
</trkpt>
<trkpt lat="52.51886749267578" lon="13.379256248474121">
<ele>74.0</ele>
<time>2014-02-16T16:14:23Z</time>
</trkpt>
<trkpt lat="52.51885986328125" lon="13.379359245300293">
<ele>73.80000305175781</ele>
<time>2014-02-16T16:14:25Z</time>
</trkpt>
<trkpt lat="52.51885223388672" lon="13.379472732543945">
<ele>73.0</ele>
<time>2014-02-16T16:14:27Z</time>
</trkpt>
<trkpt lat="52.51885223388672" lon="13.379582405090332">
<ele>73.0</ele>
<time>2014-02-16T16:14:29Z</time>
</trkpt>
<trkpt lat="52.51883316040039" lon="13.379691123962402">
<ele>72.9000015258789</ele>
<time>2014-02-16T16:14:31Z</time>
</trkpt>
<trkpt lat="52.518829345703125" lon="13.379792213439941">
<ele>73.30000305175781</ele>
<time>2014-02-16T16:14:33Z</time>
</trkpt>
<trkpt lat="52.518829345703125" lon="13.379886627197266">
<ele>73.19999694824219</ele>
<time>2014-02-16T16:14:35Z</time>
</trkpt>
<trkpt lat="52.51883316040039" lon="13.379968643188477">
<ele>73.4000015258789</ele>
<time>2014-02-16T16:14:37Z</time>
</trkpt>
<trkpt lat="52.518829345703125" lon="13.380070686340332">
<ele>73.5</ele>
<time>2014-02-16T16:14:40Z</time>
</trkpt>
<trkpt lat="52.51881790161133" lon="13.380155563354492">
<ele>73.0</ele>
<time>2014-02-16T16:14:45Z</time>
</trkpt>
<trkpt lat="52.518760681152344" lon="13.38021183013916">
<ele>73.30000305175781</ele>
<time>2014-02-16T16:14:48Z</time>
</trkpt>
<trkpt lat="52.51870346069336" lon="13.38022518157959">
<ele>73.69999694824219</ele>
<time>2014-02-16T16:14:51Z</time>
</trkpt>
<trkpt lat="52.518646240234375" lon="13.380216598510742">
<ele>73.69999694824219</ele>
<time>2014-02-16T16:14:53Z</time>
</trkpt>
<trkpt lat="52.51857376098633" lon="13.380202293395996">
<ele>73.80000305175781</ele>
<time>2014-02-16T16:14:55Z</time>
</trkpt>
<trkpt lat="52.51852798461914" lon="13.380217552185059">
<ele>73.5999984741211</ele>
<time>2014-02-16T16:14:56Z</time>
</trkpt>
<trkpt lat="52.51848220825195" lon="13.380218505859375">
<ele>73.0999984741211</ele>
<time>2014-02-16T16:14:57Z</time>
</trkpt>
<trkpt lat="52.5184326171875" lon="13.380228996276855">
<ele>73.69999694824219</ele>
<time>2014-02-16T16:14:58Z</time>
</trkpt>
<trkpt lat="52.51834487915039" lon="13.380221366882324">
<ele>73.4000015258789</ele>
<time>2014-02-16T16:15:00Z</time>
</trkpt>
<trkpt lat="52.51829147338867" lon="13.38021469116211">
<ele>73.4000015258789</ele>
<time>2014-02-16T16:15:01Z</time>
</trkpt>
<trkpt lat="52.518226623535156" lon="13.380205154418945">
<ele>73.5</ele>
<time>2014-02-16T16:15:02Z</time>
</trkpt>
<trkpt lat="52.51816940307617" lon="13.38019847869873">
<ele>73.69999694824219</ele>
<time>2014-02-16T16:15:03Z</time>
</trkpt>
<trkpt lat="52.51812744140625" lon="13.380232810974121">
<ele>73.5999984741211</ele>
<time>2014-02-16T16:15:04Z</time>
</trkpt>
<trkpt lat="52.518089294433594" lon="13.380292892456055">
<ele>80.30000305175781</ele>
<time>2014-02-16T16:15:08Z</time>
</trkpt>
<trkpt lat="52.51803970336914" lon="13.38032054901123">
<ele>83.9000015258789</ele>
<time>2014-02-16T16:15:10Z</time>
</trkpt>
<trkpt lat="52.517982482910156" lon="13.38033676147461">
<ele>87.5999984741211</ele>
<time>2014-02-16T16:15:12Z</time>
</trkpt>
<trkpt lat="52.51789855957031" lon="13.380349159240723">
<ele>91.5</ele>
<time>2014-02-16T16:15:14Z</time>
</trkpt>
<trkpt lat="52.517845153808594" lon="13.380352973937988">
<ele>93.0</ele>
<time>2014-02-16T16:15:15Z</time>
</trkpt>
<trkpt lat="52.51778030395508" lon="13.380376815795898">
<ele>95.19999694824219</ele>
<time>2014-02-16T16:15:16Z</time>
</trkpt>
<trkpt lat="52.51773452758789" lon="13.380396842956543">
<ele>97.69999694824219</ele>
<time>2014-02-16T16:15:17Z</time>
</trkpt>
<trkpt lat="52.5176887512207" lon="13.380402565002441">
<ele>99.30000305175781</ele>
<time>2014-02-16T16:15:18Z</time>
</trkpt>
<trkpt lat="52.51762390136719" lon="13.38044548034668">
<ele>100.0</ele>
<time>2014-02-16T16:15:19Z</time>
</trkpt>
<trkpt lat="52.517547607421875" lon="13.380465507507324">
<ele>101.0</ele>
<time>2014-02-16T16:15:20Z</time>
</trkpt>
<trkpt lat="52.517494201660156" lon="13.380453109741211">
<ele>101.5</ele>
<time>2014-02-16T16:15:21Z</time>
</trkpt>
<trkpt lat="52.51742172241211" lon="13.380464553833008">
<ele>102.30000305175781</ele>
<time>2014-02-16T16:15:22Z</time>
</trkpt>
<trkpt lat="52.517333984375" lon="13.380498886108398">
<ele>103.0</ele>
<time>2014-02-16T16:15:23Z</time>
</trkpt>
<trkpt lat="52.51728057861328" lon="13.380537033081055">
<ele>104.30000305175781</ele>
<time>2014-02-16T16:15:24Z</time>
</trkpt>
<trkpt lat="52.51721954345703" lon="13.380558013916016">
<ele>105.0</ele>
<time>2014-02-16T16:15:25Z</time>
</trkpt>
<trkpt lat="52.517173767089844" lon="13.380581855773926">
<ele>105.4000015258789</ele>
<time>2014-02-16T16:15:26Z</time>
</trkpt>
<trkpt lat="52.517120361328125" lon="13.380592346191406">
<ele>105.4000015258789</ele>
<time>2014-02-16T16:15:27Z</time>
</trkpt>
<trkpt lat="52.51707077026367" lon="13.380605697631836">
<ele>105.4000015258789</ele>
<time>2014-02-16T16:15:28Z</time>
</trkpt>
<trkpt lat="52.51702117919922" lon="13.380624771118164">
<ele>105.5999984741211</ele>
<time>2014-02-16T16:15:29Z</time>
</trkpt>
<trkpt lat="52.5169677734375" lon="13.380640983581543">
<ele>107.9000015258789</ele>
<time>2014-02-16T16:15:30Z</time>
</trkpt>
<trkpt lat="52.51689910888672" lon="13.3806734085083">
<ele>109.5999984741211</ele>
<time>2014-02-16T16:15:31Z</time>
</trkpt>
<trkpt lat="52.5168571472168" lon="13.38068962097168">
<ele>110.5</ele>
<time>2014-02-16T16:15:32Z</time>
</trkpt>
<trkpt lat="52.51681137084961" lon="13.38070011138916">
<ele>111.69999694824219</ele>
<time>2014-02-16T16:15:33Z</time>
</trkpt>
<trkpt lat="52.51676559448242" lon="13.380707740783691">
<ele>112.30000305175781</ele>
<time>2014-02-16T16:15:34Z</time>
</trkpt>
<trkpt lat="52.51668167114258" lon="13.38071060180664">
<ele>112.4000015258789</ele>
<time>2014-02-16T16:15:36Z</time>
</trkpt>
<trkpt lat="52.516632080078125" lon="13.380720138549805">
<ele>112.0</ele>
<time>2014-02-16T16:15:37Z</time>
</trkpt>
<trkpt lat="52.51667404174805" lon="13.380497932434082">
<ele>102.5999984741211</ele>
<time>2014-02-16T16:15:38Z</time>
</trkpt>
<trkpt lat="52.516605377197266" lon="13.380518913269043">
<ele>94.80000305175781</ele>
<time>2014-02-16T16:15:41Z</time>
</trkpt>
<trkpt lat="52.51655960083008" lon="13.380578994750977">
<ele>89.0999984741211</ele>
<time>2014-02-16T16:15:42Z</time>
</trkpt>
<trkpt lat="52.51652526855469" lon="13.380624771118164">
<ele>85.5999984741211</ele>
<time>2014-02-16T16:15:43Z</time>
</trkpt>
<trkpt lat="52.516448974609375" lon="13.380661010742188">
<ele>84.5999984741211</ele>
<time>2014-02-16T16:15:45Z</time>
</trkpt>
<trkpt lat="52.5163688659668" lon="13.380703926086426">
<ele>82.0999984741211</ele>
<time>2014-02-16T16:15:47Z</time>
</trkpt>
<trkpt lat="52.516292572021484" lon="13.380743980407715">
<ele>80.19999694824219</ele>
<time>2014-02-16T16:15:49Z</time>
</trkpt>
<trkpt lat="52.51621627807617" lon="13.380784034729004">
<ele>79.80000305175781</ele>
<time>2014-02-16T16:15:51Z</time>
</trkpt>
<trkpt lat="52.51614761352539" lon="13.380818367004395">
<ele>79.5</ele>
<time>2014-02-16T16:15:53Z</time>
</trkpt>
<trkpt lat="52.51606369018555" lon="13.380851745605469">
<ele>79.69999694824219</ele>
<time>2014-02-16T16:15:55Z</time>
</trkpt>
<trkpt lat="52.5159797668457" lon="13.380870819091797">
<ele>80.0</ele>
<time>2014-02-16T16:15:57Z</time>
</trkpt>
<trkpt lat="52.515899658203125" lon="13.380929946899414">
<ele>81.30000305175781</ele>
<time>2014-02-16T16:15:59Z</time>
</trkpt>
<trkpt lat="52.51583480834961" lon="13.380980491638184">
<ele>82.30000305175781</ele>
<time>2014-02-16T16:16:01Z</time>
</trkpt>
<trkpt lat="52.51575469970703" lon="13.381027221679688">
<ele>83.30000305175781</ele>
<time>2014-02-16T16:16:03Z</time>
</trkpt>
<trkpt lat="52.51569366455078" lon="13.381056785583496">
<ele>82.19999694824219</ele>
<time>2014-02-16T16:16:05Z</time>
</trkpt>
<trkpt lat="52.5156135559082" lon="13.381038665771484">
<ele>80.30000305175781</ele>
<time>2014-02-16T16:16:07Z</time>
</trkpt>
<trkpt lat="52.51555252075195" lon="13.381072044372559">
<ele>79.30000305175781</ele>
<time>2014-02-16T16:16:09Z</time>
</trkpt>
<trkpt lat="52.51548767089844" lon="13.381112098693848">
<ele>79.5</ele>
<time>2014-02-16T16:16:11Z</time>
</trkpt>
<trkpt lat="52.51543426513672" lon="13.381159782409668">
<ele>82.5</ele>
<time>2014-02-16T16:16:12Z</time>
</trkpt>
<trkpt lat="52.515377044677734" lon="13.381190299987793">
<ele>84.69999694824219</ele>
<time>2014-02-16T16:16:14Z</time>
</trkpt>
<trkpt lat="52.51531982421875" lon="13.381221771240234">
<ele>83.5999984741211</ele>
<time>2014-02-16T16:16:16Z</time>
</trkpt>
<trkpt lat="52.5152473449707" lon="13.381237030029297">
<ele>83.19999694824219</ele>
<time>2014-02-16T16:16:18Z</time>
</trkpt>
<trkpt lat="52.51517868041992" lon="13.381270408630371">
<ele>82.80000305175781</ele>
<time>2014-02-16T16:16:20Z</time>
</trkpt>
<trkpt lat="52.51513671875" lon="13.381305694580078">
<ele>83.0</ele>
<time>2014-02-16T16:16:22Z</time>
</trkpt>
<trkpt lat="52.51509475708008" lon="13.381340980529785">
<ele>84.80000305175781</ele>
<time>2014-02-16T16:16:33Z</time>
</trkpt>
<trkpt lat="52.515132904052734" lon="13.38140869140625">
<ele>96.5999984741211</ele>
<time>2014-02-16T16:16:52Z</time>
</trkpt>
<trkpt lat="52.51518249511719" lon="13.381362915039062">
<ele>95.19999694824219</ele>
<time>2014-02-16T16:16:55Z</time>
</trkpt>
<trkpt lat="52.51513671875" lon="13.381396293640137">
<ele>94.30000305175781</ele>
<time>2014-02-16T16:16:58Z</time>
</trkpt>
<trkpt lat="52.515071868896484" lon="13.381425857543945">
<ele>92.0</ele>
<time>2014-02-16T16:16:59Z</time>
</trkpt>
<trkpt lat="52.51499557495117" lon="13.381478309631348">
<ele>92.80000305175781</ele>
<time>2014-02-16T16:17:01Z</time>
</trkpt>
<trkpt lat="52.51494598388672" lon="13.381518363952637">
<ele>93.0</ele>
<time>2014-02-16T16:17:02Z</time>
</trkpt>
<trkpt lat="52.51487731933594" lon="13.381600379943848">
<ele>94.0</ele>
<time>2014-02-16T16:17:04Z</time>
</trkpt>
<trkpt lat="52.51482391357422" lon="13.381671905517578">
<ele>94.80000305175781</ele>
<time>2014-02-16T16:17:06Z</time>
</trkpt>
<trkpt lat="52.514732360839844" lon="13.381739616394043">
<ele>95.19999694824219</ele>
<time>2014-02-16T16:17:08Z</time>
</trkpt>
<trkpt lat="52.51468276977539" lon="13.381757736206055">
<ele>95.5</ele>
<time>2014-02-16T16:17:09Z</time>
</trkpt>
<trkpt lat="52.51462936401367" lon="13.381818771362305">
<ele>96.0</ele>
<time>2014-02-16T16:17:11Z</time>
</trkpt>
<trkpt lat="52.514583587646484" lon="13.381834030151367">
<ele>96.5</ele>
<time>2014-02-16T16:17:12Z</time>
</trkpt>
<trkpt lat="52.5145263671875" lon="13.38184642791748">
<ele>98.0</ele>
<time>2014-02-16T16:17:14Z</time>
</trkpt>
<trkpt lat="52.51448059082031" lon="13.38184642791748">
<ele>99.19999694824219</ele>
<time>2014-02-16T16:17:15Z</time>
</trkpt>
<trkpt lat="52.514404296875" lon="13.38184928894043">
<ele>102.69999694824219</ele>
<time>2014-02-16T16:17:17Z</time>
</trkpt>
<trkpt lat="52.514347076416016" lon="13.381863594055176">
<ele>104.19999694824219</ele>
<time>2014-02-16T16:17:19Z</time>
</trkpt>
<trkpt lat="52.514305114746094" lon="13.381918907165527">
<ele>105.0999984741211</ele>
<time>2014-02-16T16:17:21Z</time>
</trkpt>
<trkpt lat="52.51423645019531" lon="13.381898880004883">
<ele>105.5999984741211</ele>
<time>2014-02-16T16:17:22Z</time>
</trkpt>
<trkpt lat="52.51419448852539" lon="13.381952285766602">
<ele>93.9000015258789</ele>
<time>2014-02-16T16:17:25Z</time>
</trkpt>
<trkpt lat="52.514156341552734" lon="13.381997108459473">
<ele>93.5999984741211</ele>
<time>2014-02-16T16:17:38Z</time>
</trkpt>
<trkpt lat="52.51411056518555" lon="13.382020950317383">
<ele>92.19999694824219</ele>
<time>2014-02-16T16:17:40Z</time>
</trkpt>
<trkpt lat="52.514034271240234" lon="13.382012367248535">
<ele>86.80000305175781</ele>
<time>2014-02-16T16:17:42Z</time>
</trkpt>
<trkpt lat="52.513973236083984" lon="13.382024765014648">
<ele>85.0</ele>
<time>2014-02-16T16:17:44Z</time>
</trkpt>
<trkpt lat="52.513916015625" lon="13.382051467895508">
<ele>83.9000015258789</ele>
<time>2014-02-16T16:17:46Z</time>
</trkpt>
<trkpt lat="52.51387023925781" lon="13.382089614868164">
<ele>83.5</ele>
<time>2014-02-16T16:17:48Z</time>
</trkpt>
<trkpt lat="52.51380157470703" lon="13.382143020629883">
<ele>83.5999984741211</ele>
<time>2014-02-16T16:17:50Z</time>
</trkpt>
<trkpt lat="52.51375961303711" lon="13.382172584533691">
<ele>83.69999694824219</ele>
<time>2014-02-16T16:17:51Z</time>
</trkpt>
<trkpt lat="52.513694763183594" lon="13.382242202758789">
<ele>84.0999984741211</ele>
<time>2014-02-16T16:17:53Z</time>
</trkpt>
<trkpt lat="52.51365661621094" lon="13.382309913635254">
<ele>85.0</ele>
<time>2014-02-16T16:17:55Z</time>
</trkpt>
<trkpt lat="52.51361083984375" lon="13.38231372833252">
<ele>86.0</ele>
<time>2014-02-16T16:17:56Z</time>
</trkpt>
<trkpt lat="52.513526916503906" lon="13.38235855102539">
<ele>86.80000305175781</ele>
<time>2014-02-16T16:17:58Z</time>
</trkpt>
<trkpt lat="52.51347732543945" lon="13.382383346557617">
<ele>87.30000305175781</ele>
<time>2014-02-16T16:17:59Z</time>
</trkpt>
<trkpt lat="52.513404846191406" lon="13.382434844970703">
<ele>87.69999694824219</ele>
<time>2014-02-16T16:18:01Z</time>
</trkpt>
<trkpt lat="52.513362884521484" lon="13.382460594177246">
<ele>88.19999694824219</ele>
<time>2014-02-16T16:18:02Z</time>
</trkpt>
<trkpt lat="52.513301849365234" lon="13.382461547851562">
<ele>87.9000015258789</ele>
<time>2014-02-16T16:18:03Z</time>
</trkpt>
<trkpt lat="52.513240814208984" lon="13.382487297058105">
<ele>89.5</ele>
<time>2014-02-16T16:18:05Z</time>
</trkpt>
<trkpt lat="52.51317596435547" lon="13.382526397705078">
<ele>91.69999694824219</ele>
<time>2014-02-16T16:18:07Z</time>
</trkpt>
<trkpt lat="52.51309585571289" lon="13.382562637329102">
<ele>93.80000305175781</ele>
<time>2014-02-16T16:18:09Z</time>
</trkpt>
<trkpt lat="52.513023376464844" lon="13.382599830627441">
<ele>93.5</ele>
<time>2014-02-16T16:18:11Z</time>
</trkpt>
<trkpt lat="52.512943267822266" lon="13.3826322555542">
<ele>94.0</ele>
<time>2014-02-16T16:18:13Z</time>
</trkpt>
<trkpt lat="52.512874603271484" lon="13.382674217224121">
<ele>93.80000305175781</ele>
<time>2014-02-16T16:18:15Z</time>
</trkpt>
<trkpt lat="52.51280212402344" lon="13.382715225219727">
<ele>93.80000305175781</ele>
<time>2014-02-16T16:18:17Z</time>
</trkpt>
<trkpt lat="52.512725830078125" lon="13.382759094238281">
<ele>93.69999694824219</ele>
<time>2014-02-16T16:18:19Z</time>
</trkpt>
<trkpt lat="52.51261520385742" lon="13.38274097442627">
<ele>92.80000305175781</ele>
<time>2014-02-16T16:18:21Z</time>
</trkpt>
<trkpt lat="52.5125617980957" lon="13.382733345031738">
<ele>92.0</ele>
<time>2014-02-16T16:18:22Z</time>
</trkpt>
<trkpt lat="52.512508392333984" lon="13.382749557495117">
<ele>91.5999984741211</ele>
<time>2014-02-16T16:18:23Z</time>
</trkpt>
<trkpt lat="52.5124397277832" lon="13.382774353027344">
<ele>91.19999694824219</ele>
<time>2014-02-16T16:18:24Z</time>
</trkpt>
<trkpt lat="52.51238250732422" lon="13.382791519165039">
<ele>91.5</ele>
<time>2014-02-16T16:18:25Z</time>
</trkpt>
<trkpt lat="52.51231002807617" lon="13.382814407348633">
<ele>88.5999984741211</ele>
<time>2014-02-16T16:18:27Z</time>
</trkpt>
<trkpt lat="52.51224899291992" lon="13.382841110229492">
<ele>86.19999694824219</ele>
<time>2014-02-16T16:18:29Z</time>
</trkpt>
<trkpt lat="52.512184143066406" lon="13.38288688659668">
<ele>83.9000015258789</ele>
<time>2014-02-16T16:18:31Z</time>
</trkpt>
<trkpt lat="52.51210403442383" lon="13.38293743133545">
<ele>82.69999694824219</ele>
<time>2014-02-16T16:18:33Z</time>
</trkpt>
<trkpt lat="52.512046813964844" lon="13.382978439331055">
<ele>83.0999984741211</ele>
<time>2014-02-16T16:18:35Z</time>
</trkpt>
<trkpt lat="52.51197814941406" lon="13.383045196533203">
<ele>83.0999984741211</ele>
<time>2014-02-16T16:18:37Z</time>
</trkpt>
<trkpt lat="52.5119514465332" lon="13.38310432434082">
<ele>84.0999984741211</ele>
<time>2014-02-16T16:18:39Z</time>
</trkpt>
<trkpt lat="52.511844635009766" lon="13.383169174194336">
<ele>85.5999984741211</ele>
<time>2014-02-16T16:18:43Z</time>
</trkpt>
<trkpt lat="52.51177215576172" lon="13.383172988891602">
<ele>84.69999694824219</ele>
<time>2014-02-16T16:18:44Z</time>
</trkpt>
<trkpt lat="52.51171875" lon="13.383194923400879">
<ele>84.4000015258789</ele>
<time>2014-02-16T16:18:45Z</time>
</trkpt>
<trkpt lat="52.51166915893555" lon="13.383196830749512">
<ele>83.69999694824219</ele>
<time>2014-02-16T16:18:46Z</time>
</trkpt>
<trkpt lat="52.51158905029297" lon="13.383219718933105">
<ele>85.5</ele>
<time>2014-02-16T16:18:48Z</time>
</trkpt>
<trkpt lat="52.51154708862305" lon="13.383267402648926">
<ele>89.80000305175781</ele>
<time>2014-02-16T16:19:02Z</time>
</trkpt>
<trkpt lat="52.511505126953125" lon="13.383315086364746">
<ele>88.9000015258789</ele>
<time>2014-02-16T16:19:05Z</time>
</trkpt>
<trkpt lat="52.51145553588867" lon="13.383344650268555">
<ele>85.80000305175781</ele>
<time>2014-02-16T16:19:06Z</time>
</trkpt>
<trkpt lat="52.511409759521484" lon="13.38337230682373">
<ele>85.0</ele>
<time>2014-02-16T16:19:08Z</time>
</trkpt>
<trkpt lat="52.511348724365234" lon="13.383407592773438">
<ele>84.80000305175781</ele>
<time>2014-02-16T16:19:10Z</time>
</trkpt>
<trkpt lat="52.51128387451172" lon="13.383441925048828">
<ele>85.0</ele>
<time>2014-02-16T16:19:12Z</time>
</trkpt>
<trkpt lat="52.5112190246582" lon="13.383472442626953">
<ele>84.80000305175781</ele>
<time>2014-02-16T16:19:14Z</time>
</trkpt>
<trkpt lat="52.51114273071289" lon="13.383492469787598">
<ele>85.4000015258789</ele>
<time>2014-02-16T16:19:16Z</time>
</trkpt>
<trkpt lat="52.51109313964844" lon="13.383512496948242">
<ele>85.69999694824219</ele>
<time>2014-02-16T16:19:17Z</time>
</trkpt>
<trkpt lat="52.51103973388672" lon="13.383541107177734">
<ele>86.0</ele>
<time>2014-02-16T16:19:18Z</time>
</trkpt>
<trkpt lat="52.51092529296875" lon="13.383585929870605">
<ele>86.5999984741211</ele>
<time>2014-02-16T16:19:20Z</time>
</trkpt>
<trkpt lat="52.51081085205078" lon="13.383641242980957">
<ele>87.0999984741211</ele>
<time>2014-02-16T16:19:21Z</time>
</trkpt>
<trkpt lat="52.510719299316406" lon="13.383708000183105">
<ele>87.19999694824219</ele>
<time>2014-02-16T16:19:22Z</time>
</trkpt>
<trkpt lat="52.51067352294922" lon="13.383743286132812">
<ele>87.30000305175781</ele>
<time>2014-02-16T16:19:23Z</time>
</trkpt>
<trkpt lat="52.510616302490234" lon="13.383838653564453">
<ele>86.19999694824219</ele>
<time>2014-02-16T16:19:24Z</time>
</trkpt>
<trkpt lat="52.51054000854492" lon="13.383942604064941">
<ele>87.0</ele>
<time>2014-02-16T16:19:25Z</time>
</trkpt>
<trkpt lat="52.51046371459961" lon="13.384041786193848">
<ele>87.5</ele>
<time>2014-02-16T16:19:26Z</time>
</trkpt>
<trkpt lat="52.51042556762695" lon="13.384112358093262">
<ele>89.30000305175781</ele>
<time>2014-02-16T16:19:27Z</time>
</trkpt>
<trkpt lat="52.510372161865234" lon="13.384177207946777">
<ele>98.0</ele>
<time>2014-02-16T16:19:31Z</time>
</trkpt>
<trkpt lat="52.51032638549805" lon="13.384214401245117">
<ele>104.4000015258789</ele>
<time>2014-02-16T16:19:34Z</time>
</trkpt>
<trkpt lat="52.51028060913086" lon="13.384210586547852">
<ele>108.80000305175781</ele>
<time>2014-02-16T16:19:36Z</time>
</trkpt>
<trkpt lat="52.510223388671875" lon="13.384181022644043">
<ele>112.9000015258789</ele>
<time>2014-02-16T16:19:38Z</time>
</trkpt>
<trkpt lat="52.51015853881836" lon="13.384185791015625">
<ele>114.69999694824219</ele>
<time>2014-02-16T16:19:40Z</time>
</trkpt>
<trkpt lat="52.510108947753906" lon="13.384171485900879">
<ele>120.0</ele>
<time>2014-02-16T16:19:43Z</time>
</trkpt>
<trkpt lat="52.51015090942383" lon="13.384101867675781">
<ele>119.4000015258789</ele>
<time>2014-02-16T16:19:45Z</time>
</trkpt>
<trkpt lat="52.51008987426758" lon="13.384136199951172">
<ele>118.4000015258789</ele>
<time>2014-02-16T16:19:47Z</time>
</trkpt>
<trkpt lat="52.51003646850586" lon="13.384121894836426">
<ele>115.0999984741211</ele>
<time>2014-02-16T16:19:52Z</time>
</trkpt>
<trkpt lat="52.510040283203125" lon="13.383987426757812">
<ele>113.80000305175781</ele>
<time>2014-02-16T16:20:52Z</time>
</trkpt>
<trkpt lat="52.51005172729492" lon="13.384060859680176">
<ele>103.9000015258789</ele>
<time>2014-02-16T16:20:56Z</time>
</trkpt>
<trkpt lat="52.50995635986328" lon="13.384116172790527">
<ele>104.80000305175781</ele>
<time>2014-02-16T16:20:57Z</time>
</trkpt>
<trkpt lat="52.50988006591797" lon="13.384172439575195">
<ele>103.9000015258789</ele>
<time>2014-02-16T16:20:59Z</time>
</trkpt>
<trkpt lat="52.50981140136719" lon="13.384223937988281">
<ele>102.69999694824219</ele>
<time>2014-02-16T16:21:01Z</time>
</trkpt>
<trkpt lat="52.50974655151367" lon="13.38426399230957">
<ele>101.69999694824219</ele>
<time>2014-02-16T16:21:03Z</time>
</trkpt>
<trkpt lat="52.509674072265625" lon="13.384300231933594">
<ele>101.4000015258789</ele>
<time>2014-02-16T16:21:05Z</time>
</trkpt>
<trkpt lat="52.50959396362305" lon="13.384337425231934">
<ele>100.30000305175781</ele>
<time>2014-02-16T16:21:07Z</time>
</trkpt>
<trkpt lat="52.50951385498047" lon="13.384376525878906">
<ele>99.80000305175781</ele>
<time>2014-02-16T16:21:09Z</time>
</trkpt>
<trkpt lat="52.509437561035156" lon="13.384419441223145">
<ele>99.4000015258789</ele>
<time>2014-02-16T16:21:11Z</time>
</trkpt>
<trkpt lat="52.50935745239258" lon="13.384462356567383">
<ele>99.30000305175781</ele>
<time>2014-02-16T16:21:13Z</time>
</trkpt>
<trkpt lat="52.509273529052734" lon="13.384502410888672">
<ele>99.30000305175781</ele>
<time>2014-02-16T16:21:15Z</time>
</trkpt>
<trkpt lat="52.50922775268555" lon="13.384511947631836">
<ele>99.4000015258789</ele>
<time>2014-02-16T16:21:16Z</time>
</trkpt>
<trkpt lat="52.50917434692383" lon="13.384559631347656">
<ele>99.0999984741211</ele>
<time>2014-02-16T16:21:18Z</time>
</trkpt>
<trkpt lat="52.50912094116211" lon="13.384600639343262">
<ele>99.30000305175781</ele>
<time>2014-02-16T16:21:19Z</time>
</trkpt>
<trkpt lat="52.50907897949219" lon="13.384634971618652">
<ele>99.4000015258789</ele>
<time>2014-02-16T16:21:20Z</time>
</trkpt>
<trkpt lat="52.509033203125" lon="13.384638786315918">
<ele>95.5999984741211</ele>
<time>2014-02-16T16:21:21Z</time>
</trkpt>
<trkpt lat="52.50895690917969" lon="13.384622573852539">
<ele>89.5999984741211</ele>
<time>2014-02-16T16:21:22Z</time>
</trkpt>
<trkpt lat="52.50888442993164" lon="13.384649276733398">
<ele>87.0999984741211</ele>
<time>2014-02-16T16:21:23Z</time>
</trkpt>
<trkpt lat="52.50882339477539" lon="13.384690284729004">
<ele>87.4000015258789</ele>
<time>2014-02-16T16:21:25Z</time>
</trkpt>
<trkpt lat="52.50874710083008" lon="13.384743690490723">
<ele>87.4000015258789</ele>
<time>2014-02-16T16:21:27Z</time>
</trkpt>
<trkpt lat="52.50868606567383" lon="13.384784698486328">
<ele>89.5999984741211</ele>
<time>2014-02-16T16:21:29Z</time>
</trkpt>
<trkpt lat="52.50861740112305" lon="13.38481616973877">
<ele>89.9000015258789</ele>
<time>2014-02-16T16:21:31Z</time>
</trkpt>
<trkpt lat="52.508514404296875" lon="13.384867668151855">
<ele>85.30000305175781</ele>
<time>2014-02-16T16:21:33Z</time>
</trkpt>
<trkpt lat="52.50844955444336" lon="13.384886741638184">
<ele>82.0999984741211</ele>
<time>2014-02-16T16:21:34Z</time>
</trkpt>
<trkpt lat="52.50839614868164" lon="13.384905815124512">
<ele>79.19999694824219</ele>
<time>2014-02-16T16:21:35Z</time>
</trkpt>
<trkpt lat="52.5083122253418" lon="13.384944915771484">
<ele>78.4000015258789</ele>
<time>2014-02-16T16:21:37Z</time>
</trkpt>
<trkpt lat="52.508270263671875" lon="13.384963989257812">
<ele>78.0</ele>
<time>2014-02-16T16:21:38Z</time>
</trkpt>
<trkpt lat="52.50822448730469" lon="13.384984016418457">
<ele>77.5</ele>
<time>2014-02-16T16:21:39Z</time>
</trkpt>
<trkpt lat="52.50814437866211" lon="13.385018348693848">
<ele>77.69999694824219</ele>
<time>2014-02-16T16:21:41Z</time>
</trkpt>
<trkpt lat="52.50807189941406" lon="13.385050773620605">
<ele>76.69999694824219</ele>
<time>2014-02-16T16:21:43Z</time>
</trkpt>
<trkpt lat="52.507991790771484" lon="13.38509464263916">
<ele>77.0999984741211</ele>
<time>2014-02-16T16:21:45Z</time>
</trkpt>
<trkpt lat="52.5079231262207" lon="13.385132789611816">
<ele>77.5999984741211</ele>
<time>2014-02-16T16:21:47Z</time>
</trkpt>
<trkpt lat="52.50785827636719" lon="13.385168075561523">
<ele>77.30000305175781</ele>
<time>2014-02-16T16:21:49Z</time>
</trkpt>
<trkpt lat="52.50779342651367" lon="13.385194778442383">
<ele>76.80000305175781</ele>
<time>2014-02-16T16:21:51Z</time>
</trkpt>
<trkpt lat="52.50773239135742" lon="13.385217666625977">
<ele>75.5</ele>
<time>2014-02-16T16:21:53Z</time>
</trkpt>
<trkpt lat="52.50767517089844" lon="13.385242462158203">
<ele>75.30000305175781</ele>
<time>2014-02-16T16:21:55Z</time>
</trkpt>
<trkpt lat="52.50762939453125" lon="13.385269165039062">
<ele>74.5999984741211</ele>
<time>2014-02-16T16:21:57Z</time>
</trkpt>
<trkpt lat="52.50758743286133" lon="13.385311126708984">
<ele>75.69999694824219</ele>
<time>2014-02-16T16:22:01Z</time>
</trkpt>
<trkpt lat="52.507537841796875" lon="13.385319709777832">
<ele>75.0999984741211</ele>
<time>2014-02-16T16:22:05Z</time>
</trkpt>
<trkpt lat="52.507484436035156" lon="13.385355949401855">
<ele>73.0</ele>
<time>2014-02-16T16:22:22Z</time>
</trkpt>
<trkpt lat="52.50741958618164" lon="13.38541316986084">
<ele>73.4000015258789</ele>
<time>2014-02-16T16:22:24Z</time>
</trkpt>
<trkpt lat="52.50736618041992" lon="13.38545036315918">
<ele>73.9000015258789</ele>
<time>2014-02-16T16:22:26Z</time>
</trkpt>
<trkpt lat="52.50730895996094" lon="13.385485649108887">
<ele>74.0999984741211</ele>
<time>2014-02-16T16:22:28Z</time>
</trkpt>
<trkpt lat="52.50725173950195" lon="13.38551139831543">
<ele>74.69999694824219</ele>
<time>2014-02-16T16:22:30Z</time>
</trkpt>
<trkpt lat="52.507179260253906" lon="13.385555267333984">
<ele>74.5999984741211</ele>
<time>2014-02-16T16:22:32Z</time>
</trkpt>
<trkpt lat="52.507110595703125" lon="13.38559341430664">
<ele>74.80000305175781</ele>
<time>2014-02-16T16:22:34Z</time>
</trkpt>
<trkpt lat="52.50703811645508" lon="13.385627746582031">
<ele>75.0999984741211</ele>
<time>2014-02-16T16:22:36Z</time>
</trkpt>
<trkpt lat="52.5069694519043" lon="13.385665893554688">
<ele>75.19999694824219</ele>
<time>2014-02-16T16:22:38Z</time>
</trkpt>
<trkpt lat="52.50689697265625" lon="13.385709762573242">
<ele>75.5</ele>
<time>2014-02-16T16:22:40Z</time>
</trkpt>
<trkpt lat="52.50682830810547" lon="13.385748863220215">
<ele>76.0</ele>
<time>2014-02-16T16:22:42Z</time>
</trkpt>
<trkpt lat="52.50675582885742" lon="13.385783195495605">
<ele>76.30000305175781</ele>
<time>2014-02-16T16:22:44Z</time>
</trkpt>
<trkpt lat="52.506675720214844" lon="13.385823249816895">
<ele>76.5</ele>
<time>2014-02-16T16:22:46Z</time>
</trkpt>
<trkpt lat="52.506595611572266" lon="13.385865211486816">
<ele>77.0999984741211</ele>
<time>2014-02-16T16:22:48Z</time>
</trkpt>
<trkpt lat="52.50651931762695" lon="13.385917663574219">
<ele>76.5</ele>
<time>2014-02-16T16:22:50Z</time>
</trkpt>
<trkpt lat="52.50644302368164" lon="13.38594913482666">
<ele>77.30000305175781</ele>
<time>2014-02-16T16:22:52Z</time>
</trkpt>
<trkpt lat="52.506370544433594" lon="13.385992050170898">
<ele>77.30000305175781</ele>
<time>2014-02-16T16:22:54Z</time>
</trkpt>
<trkpt lat="52.50628662109375" lon="13.386032104492188">
<ele>78.19999694824219</ele>
<time>2014-02-16T16:22:56Z</time>
</trkpt>
<trkpt lat="52.50624084472656" lon="13.386048316955566">
<ele>78.30000305175781</ele>
<time>2014-02-16T16:22:57Z</time>
</trkpt>
<trkpt lat="52.50616455078125" lon="13.386093139648438">
<ele>78.0</ele>
<time>2014-02-16T16:22:59Z</time>
</trkpt>
<trkpt lat="52.50611877441406" lon="13.386115074157715">
<ele>78.19999694824219</ele>
<time>2014-02-16T16:23:00Z</time>
</trkpt>
<trkpt lat="52.50607681274414" lon="13.386137008666992">
<ele>78.5999984741211</ele>
<time>2014-02-16T16:23:01Z</time>
</trkpt>
<trkpt lat="52.50599670410156" lon="13.386194229125977">
<ele>80.4000015258789</ele>
<time>2014-02-16T16:23:02Z</time>
</trkpt>
<trkpt lat="52.505924224853516" lon="13.386248588562012">
<ele>77.0999984741211</ele>
<time>2014-02-16T16:23:04Z</time>
</trkpt>
<trkpt lat="52.505882263183594" lon="13.386280059814453">
<ele>76.9000015258789</ele>
<time>2014-02-16T16:23:05Z</time>
</trkpt>
<trkpt lat="52.50580978393555" lon="13.38632869720459">
<ele>77.4000015258789</ele>
<time>2014-02-16T16:23:07Z</time>
</trkpt>
<trkpt lat="52.5057373046875" lon="13.386373519897461">
<ele>77.0</ele>
<time>2014-02-16T16:23:09Z</time>
</trkpt>
<trkpt lat="52.50566101074219" lon="13.3864164352417">
<ele>76.80000305175781</ele>
<time>2014-02-16T16:23:11Z</time>
</trkpt>
<trkpt lat="52.50558853149414" lon="13.386451721191406">
<ele>76.80000305175781</ele>
<time>2014-02-16T16:23:13Z</time>
</trkpt>
<trkpt lat="52.50552749633789" lon="13.386481285095215">
<ele>75.5999984741211</ele>
<time>2014-02-16T16:23:15Z</time>
</trkpt>
<trkpt lat="52.50547790527344" lon="13.38651180267334">
<ele>75.19999694824219</ele>
<time>2014-02-16T16:23:17Z</time>
</trkpt>
<trkpt lat="52.50542449951172" lon="13.386548042297363">
<ele>76.4000015258789</ele>
<time>2014-02-16T16:23:20Z</time>
</trkpt>
<trkpt lat="52.50537109375" lon="13.38658618927002">
<ele>77.69999694824219</ele>
<time>2014-02-16T16:23:27Z</time>
</trkpt>
<trkpt lat="52.50529861450195" lon="13.38658332824707">
<ele>76.0</ele>
<time>2014-02-16T16:23:29Z</time>
</trkpt>
<trkpt lat="52.50522232055664" lon="13.38661003112793">
<ele>75.19999694824219</ele>
<time>2014-02-16T16:23:31Z</time>
</trkpt>
<trkpt lat="52.50514602661133" lon="13.386631965637207">
<ele>75.69999694824219</ele>
<time>2014-02-16T16:23:33Z</time>
</trkpt>
<trkpt lat="52.50507354736328" lon="13.38666820526123">
<ele>76.0999984741211</ele>
<time>2014-02-16T16:23:35Z</time>
</trkpt>
<trkpt lat="52.5049934387207" lon="13.386701583862305">
<ele>76.5</ele>
<time>2014-02-16T16:23:37Z</time>
</trkpt>
<trkpt lat="52.50490951538086" lon="13.386744499206543">
<ele>76.80000305175781</ele>
<time>2014-02-16T16:23:39Z</time>
</trkpt>
<trkpt lat="52.504852294921875" lon="13.386756896972656">
<ele>74.30000305175781</ele>
<time>2014-02-16T16:23:40Z</time>
</trkpt>
<trkpt lat="52.50477600097656" lon="13.386805534362793">
<ele>75.5</ele>
<time>2014-02-16T16:23:42Z</time>
</trkpt>
<trkpt lat="52.50468826293945" lon="13.386853218078613">
<ele>75.4000015258789</ele>
<time>2014-02-16T16:23:44Z</time>
</trkpt>
<trkpt lat="52.50464630126953" lon="13.386873245239258">
<ele>75.5</ele>
<time>2014-02-16T16:23:46Z</time>
</trkpt>
<trkpt lat="52.504600524902344" lon="13.386916160583496">
<ele>77.9000015258789</ele>
<time>2014-02-16T16:23:47Z</time>
</trkpt>
<trkpt lat="52.50454330444336" lon="13.386962890625">
<ele>78.9000015258789</ele>
<time>2014-02-16T16:23:49Z</time>
</trkpt>
<trkpt lat="52.50447082519531" lon="13.38698673248291">
<ele>79.0999984741211</ele>
<time>2014-02-16T16:23:51Z</time>
</trkpt>
<trkpt lat="52.50441360473633" lon="13.387008666992188">
<ele>79.0</ele>
<time>2014-02-16T16:23:53Z</time>
</trkpt>
<trkpt lat="52.50437545776367" lon="13.387054443359375">
<ele>79.5999984741211</ele>
<time>2014-02-16T16:23:56Z</time>
</trkpt>
<trkpt lat="52.50440979003906" lon="13.387002944946289">
<ele>83.9000015258789</ele>
<time>2014-02-16T16:24:06Z</time>
</trkpt>
<trkpt lat="52.504364013671875" lon="13.38703441619873">
<ele>85.5999984741211</ele>
<time>2014-02-16T16:24:20Z</time>
</trkpt>
<trkpt lat="52.504276275634766" lon="13.387080192565918">
<ele>85.0</ele>
<time>2014-02-16T16:24:22Z</time>
</trkpt>
<trkpt lat="52.504215240478516" lon="13.387115478515625">
<ele>85.5999984741211</ele>
<time>2014-02-16T16:24:24Z</time>
</trkpt>
<trkpt lat="52.504146575927734" lon="13.387184143066406">
<ele>85.5</ele>
<time>2014-02-16T16:24:26Z</time>
</trkpt>
<trkpt lat="52.504085540771484" lon="13.387243270874023">
<ele>85.0</ele>
<time>2014-02-16T16:24:28Z</time>
</trkpt>
<trkpt lat="52.503990173339844" lon="13.38727855682373">
<ele>83.19999694824219</ele>
<time>2014-02-16T16:24:30Z</time>
</trkpt>
<trkpt lat="52.50390625" lon="13.38730525970459">
<ele>81.30000305175781</ele>
<time>2014-02-16T16:24:32Z</time>
</trkpt>
<trkpt lat="52.50383377075195" lon="13.387331008911133">
<ele>81.30000305175781</ele>
<time>2014-02-16T16:24:34Z</time>
</trkpt>
<trkpt lat="52.503753662109375" lon="13.387357711791992">
<ele>80.30000305175781</ele>
<time>2014-02-16T16:24:36Z</time>
</trkpt>
<trkpt lat="52.503665924072266" lon="13.387404441833496">
<ele>79.80000305175781</ele>
<time>2014-02-16T16:24:38Z</time>
</trkpt>
<trkpt lat="52.503623962402344" lon="13.387425422668457">
<ele>80.0</ele>
<time>2014-02-16T16:24:39Z</time>
</trkpt>
<trkpt lat="52.503578186035156" lon="13.387446403503418">
<ele>79.9000015258789</ele>
<time>2014-02-16T16:24:40Z</time>
</trkpt>
<trkpt lat="52.50353240966797" lon="13.387465476989746">
<ele>79.9000015258789</ele>
<time>2014-02-16T16:24:41Z</time>
</trkpt>
<trkpt lat="52.50349044799805" lon="13.387486457824707">
<ele>79.80000305175781</ele>
<time>2014-02-16T16:24:42Z</time>
</trkpt>
<trkpt lat="52.503440856933594" lon="13.387495994567871">
<ele>79.9000015258789</ele>
<time>2014-02-16T16:24:43Z</time>
</trkpt>
<trkpt lat="52.50339126586914" lon="13.387528419494629">
<ele>79.30000305175781</ele>
<time>2014-02-16T16:24:44Z</time>
</trkpt>
<trkpt lat="52.50334930419922" lon="13.387555122375488">
<ele>79.19999694824219</ele>
<time>2014-02-16T16:24:45Z</time>
</trkpt>
<trkpt lat="52.50330352783203" lon="13.387578964233398">
<ele>79.0999984741211</ele>
<time>2014-02-16T16:24:46Z</time>
</trkpt>
<trkpt lat="52.50325012207031" lon="13.387595176696777">
<ele>79.30000305175781</ele>
<time>2014-02-16T16:24:47Z</time>
</trkpt>
<trkpt lat="52.50319290161133" lon="13.387618064880371">
<ele>79.19999694824219</ele>
<time>2014-02-16T16:24:48Z</time>
</trkpt>
<trkpt lat="52.503150939941406" lon="13.387656211853027">
<ele>79.0</ele>
<time>2014-02-16T16:24:49Z</time>
</trkpt>
<trkpt lat="52.503074645996094" lon="13.387707710266113">
<ele>79.19999694824219</ele>
<time>2014-02-16T16:24:51Z</time>
</trkpt>
<trkpt lat="52.50297546386719" lon="13.387744903564453">
<ele>78.69999694824219</ele>
<time>2014-02-16T16:24:53Z</time>
</trkpt>
<trkpt lat="52.50292205810547" lon="13.387781143188477">
<ele>77.69999694824219</ele>
<time>2014-02-16T16:24:54Z</time>
</trkpt>
<trkpt lat="52.502872467041016" lon="13.387803077697754">
<ele>77.19999694824219</ele>
<time>2014-02-16T16:24:55Z</time>
</trkpt>
<trkpt lat="52.50278854370117" lon="13.387846946716309">
<ele>76.69999694824219</ele>
<time>2014-02-16T16:24:57Z</time>
</trkpt>
<trkpt lat="52.50273513793945" lon="13.387876510620117">
<ele>76.9000015258789</ele>
<time>2014-02-16T16:24:58Z</time>
</trkpt>
<trkpt lat="52.50266647338867" lon="13.387916564941406">
<ele>77.30000305175781</ele>
<time>2014-02-16T16:25:00Z</time>
</trkpt>
<trkpt lat="52.50257873535156" lon="13.38795280456543">
<ele>77.30000305175781</ele>
<time>2014-02-16T16:25:02Z</time>
</trkpt>
<trkpt lat="52.502532958984375" lon="13.387969970703125">
<ele>77.4000015258789</ele>
<time>2014-02-16T16:25:03Z</time>
</trkpt>
<trkpt lat="52.50248718261719" lon="13.387975692749023">
<ele>77.30000305175781</ele>
<time>2014-02-16T16:25:04Z</time>
</trkpt>
<trkpt lat="52.50240707397461" lon="13.38802433013916">
<ele>80.4000015258789</ele>
<time>2014-02-16T16:25:06Z</time>
</trkpt>
<trkpt lat="52.50232696533203" lon="13.388063430786133">
<ele>80.69999694824219</ele>
<time>2014-02-16T16:25:08Z</time>
</trkpt>
<trkpt lat="52.502281188964844" lon="13.38807201385498">
<ele>81.19999694824219</ele>
<time>2014-02-16T16:25:09Z</time>
</trkpt>
<trkpt lat="52.50222396850586" lon="13.38807201385498">
<ele>81.80000305175781</ele>
<time>2014-02-16T16:25:10Z</time>
</trkpt>
<trkpt lat="52.5021858215332" lon="13.388129234313965">
<ele>88.4000015258789</ele>
<time>2014-02-16T16:25:12Z</time>
</trkpt>
<trkpt lat="52.502140045166016" lon="13.388141632080078">
<ele>88.69999694824219</ele>
<time>2014-02-16T16:25:13Z</time>
</trkpt>
<trkpt lat="52.50209426879883" lon="13.388182640075684">
<ele>92.0999984741211</ele>
<time>2014-02-16T16:25:15Z</time>
</trkpt>
<trkpt lat="52.50202560424805" lon="13.388221740722656">
<ele>93.9000015258789</ele>
<time>2014-02-16T16:25:17Z</time>
</trkpt>
<trkpt lat="52.50196838378906" lon="13.388250350952148">
<ele>94.0999984741211</ele>
<time>2014-02-16T16:25:18Z</time>
</trkpt>
<trkpt lat="52.50190353393555" lon="13.388267517089844">
<ele>94.0</ele>
<time>2014-02-16T16:25:19Z</time>
</trkpt>
<trkpt lat="52.50185012817383" lon="13.388290405273438">
<ele>94.5</ele>
<time>2014-02-16T16:25:20Z</time>
</trkpt>
<trkpt lat="52.50178909301758" lon="13.388313293457031">
<ele>94.5</ele>
<time>2014-02-16T16:25:21Z</time>
</trkpt>
<trkpt lat="52.50174331665039" lon="13.388345718383789">
<ele>94.9000015258789</ele>
<time>2014-02-16T16:25:22Z</time>
</trkpt>
<trkpt lat="52.50169372558594" lon="13.388337135314941">
<ele>95.4000015258789</ele>
<time>2014-02-16T16:25:23Z</time>
</trkpt>
<trkpt lat="52.50163269042969" lon="13.388355255126953">
<ele>96.80000305175781</ele>
<time>2014-02-16T16:25:24Z</time>
</trkpt>
<trkpt lat="52.50160217285156" lon="13.388425827026367">
<ele>93.30000305175781</ele>
<time>2014-02-16T16:25:26Z</time>
</trkpt>
<trkpt lat="52.50152587890625" lon="13.388447761535645">
<ele>86.19999694824219</ele>
<time>2014-02-16T16:25:28Z</time>
</trkpt>
<trkpt lat="52.501441955566406" lon="13.388465881347656">
<ele>84.30000305175781</ele>
<time>2014-02-16T16:25:30Z</time>
</trkpt>
<trkpt lat="52.501399993896484" lon="13.38847827911377">
<ele>83.80000305175781</ele>
<time>2014-02-16T16:25:31Z</time>
</trkpt>
<trkpt lat="52.501312255859375" lon="13.388518333435059">
<ele>83.5999984741211</ele>
<time>2014-02-16T16:25:33Z</time>
</trkpt>
<trkpt lat="52.501258850097656" lon="13.388533592224121">
<ele>84.4000015258789</ele>
<time>2014-02-16T16:25:34Z</time>
</trkpt>
<trkpt lat="52.50121307373047" lon="13.3885498046875">
<ele>85.30000305175781</ele>
<time>2014-02-16T16:25:35Z</time>
</trkpt>
<trkpt lat="52.501163482666016" lon="13.388541221618652">
<ele>83.80000305175781</ele>
<time>2014-02-16T16:25:36Z</time>
</trkpt>
<trkpt lat="52.50110626220703" lon="13.388543128967285">
<ele>84.69999694824219</ele>
<time>2014-02-16T16:25:38Z</time>
</trkpt>
<trkpt lat="52.50103759765625" lon="13.388544082641602">
<ele>84.5999984741211</ele>
<time>2014-02-16T16:25:40Z</time>
</trkpt>
<trkpt lat="52.500953674316406" lon="13.388525009155273">
<ele>85.19999694824219</ele>
<time>2014-02-16T16:25:42Z</time>
</trkpt>
<trkpt lat="52.500885009765625" lon="13.38852596282959">
<ele>85.19999694824219</ele>
<time>2014-02-16T16:25:44Z</time>
</trkpt>
<trkpt lat="52.50080108642578" lon="13.3885498046875">
<ele>85.19999694824219</ele>
<time>2014-02-16T16:25:46Z</time>
</trkpt>
<trkpt lat="52.50075149536133" lon="13.38856315612793">
<ele>85.30000305175781</ele>
<time>2014-02-16T16:25:47Z</time>
</trkpt>
<trkpt lat="52.500640869140625" lon="13.388605117797852">
<ele>84.30000305175781</ele>
<time>2014-02-16T16:25:48Z</time>
</trkpt>
<trkpt lat="52.50057601928711" lon="13.388620376586914">
<ele>83.19999694824219</ele>
<time>2014-02-16T16:25:49Z</time>
</trkpt>
<trkpt lat="52.50053024291992" lon="13.388628959655762">
<ele>86.9000015258789</ele>
<time>2014-02-16T16:25:51Z</time>
</trkpt>
<trkpt lat="52.50044631958008" lon="13.388654708862305">
<ele>88.4000015258789</ele>
<time>2014-02-16T16:25:53Z</time>
</trkpt>
<trkpt lat="52.500370025634766" lon="13.388683319091797">
<ele>89.0999984741211</ele>
<time>2014-02-16T16:25:55Z</time>
</trkpt>
<trkpt lat="52.50029373168945" lon="13.388679504394531">
<ele>89.30000305175781</ele>
<time>2014-02-16T16:25:57Z</time>
</trkpt>
<trkpt lat="52.50023651123047" lon="13.388697624206543">
<ele>89.69999694824219</ele>
<time>2014-02-16T16:25:58Z</time>
</trkpt>
<trkpt lat="52.50019073486328" lon="13.38871955871582">
<ele>89.80000305175781</ele>
<time>2014-02-16T16:25:59Z</time>
</trkpt>
<trkpt lat="52.5001335144043" lon="13.388715744018555">
<ele>89.80000305175781</ele>
<time>2014-02-16T16:26:00Z</time>
</trkpt>
<trkpt lat="52.50006103515625" lon="13.388731002807617">
<ele>89.5</ele>
<time>2014-02-16T16:26:01Z</time>
</trkpt>
<trkpt lat="52.499977111816406" lon="13.388736724853516">
<ele>89.30000305175781</ele>
<time>2014-02-16T16:26:02Z</time>
</trkpt>
<trkpt lat="52.4998893737793" lon="13.38870906829834">
<ele>90.4000015258789</ele>
<time>2014-02-16T16:26:04Z</time>
</trkpt>
<trkpt lat="52.49980926513672" lon="13.388790130615234">
<ele>91.9000015258789</ele>
<time>2014-02-16T16:26:05Z</time>
</trkpt>
<trkpt lat="52.499717712402344" lon="13.388823509216309">
<ele>93.4000015258789</ele>
<time>2014-02-16T16:26:06Z</time>
</trkpt>
<trkpt lat="52.499656677246094" lon="13.388854026794434">
<ele>93.19999694824219</ele>
<time>2014-02-16T16:26:08Z</time>
</trkpt>
<trkpt lat="52.49960708618164" lon="13.388869285583496">
<ele>93.30000305175781</ele>
<time>2014-02-16T16:26:09Z</time>
</trkpt>
<trkpt lat="52.49956130981445" lon="13.388843536376953">
<ele>92.80000305175781</ele>
<time>2014-02-16T16:26:11Z</time>
</trkpt>
<trkpt lat="52.499488830566406" lon="13.388847351074219">
<ele>91.80000305175781</ele>
<time>2014-02-16T16:26:12Z</time>
</trkpt>
<trkpt lat="52.49942398071289" lon="13.388847351074219">
<ele>91.30000305175781</ele>
<time>2014-02-16T16:26:14Z</time>
</trkpt>
<trkpt lat="52.49946975708008" lon="13.388731956481934">
<ele>88.4000015258789</ele>
<time>2014-02-16T16:26:15Z</time>
</trkpt>
<trkpt lat="52.499454498291016" lon="13.38864803314209">
<ele>85.4000015258789</ele>
<time>2014-02-16T16:26:17Z</time>
</trkpt>
<trkpt lat="52.49939727783203" lon="13.388628005981445">
<ele>85.4000015258789</ele>
<time>2014-02-16T16:26:19Z</time>
</trkpt>
<trkpt lat="52.49932098388672" lon="13.38861083984375">
<ele>85.5</ele>
<time>2014-02-16T16:26:21Z</time>
</trkpt>
<trkpt lat="52.499263763427734" lon="13.388593673706055">
<ele>86.5</ele>
<time>2014-02-16T16:26:23Z</time>
</trkpt>
<trkpt lat="52.49918746948242" lon="13.388589859008789">
<ele>86.4000015258789</ele>
<time>2014-02-16T16:26:25Z</time>
</trkpt>
<trkpt lat="52.49913024902344" lon="13.388605117797852">
<ele>82.9000015258789</ele>
<time>2014-02-16T16:26:26Z</time>
</trkpt>
<trkpt lat="52.49907684326172" lon="13.388619422912598">
<ele>80.4000015258789</ele>
<time>2014-02-16T16:26:27Z</time>
</trkpt>
<trkpt lat="52.499027252197266" lon="13.388620376586914">
<ele>79.30000305175781</ele>
<time>2014-02-16T16:26:28Z</time>
</trkpt>
<trkpt lat="52.49898147583008" lon="13.388622283935547">
<ele>78.30000305175781</ele>
<time>2014-02-16T16:26:29Z</time>
</trkpt>
<trkpt lat="52.49893569946289" lon="13.388620376586914">
<ele>77.80000305175781</ele>
<time>2014-02-16T16:26:30Z</time>
</trkpt>
<trkpt lat="52.49885177612305" lon="13.38860034942627">
<ele>78.5</ele>
<time>2014-02-16T16:26:32Z</time>
</trkpt>
<trkpt lat="52.498809814453125" lon="13.388612747192383">
<ele>78.69999694824219</ele>
<time>2014-02-16T16:26:33Z</time>
</trkpt>
<trkpt lat="52.49874496459961" lon="13.388614654541016">
<ele>79.4000015258789</ele>
<time>2014-02-16T16:26:35Z</time>
</trkpt>
<trkpt lat="52.49868392944336" lon="13.388622283935547">
<ele>79.9000015258789</ele>
<time>2014-02-16T16:26:37Z</time>
</trkpt>
<trkpt lat="52.49861526489258" lon="13.388599395751953">
<ele>80.4000015258789</ele>
<time>2014-02-16T16:26:40Z</time>
</trkpt>
<trkpt lat="52.49855041503906" lon="13.38860034942627">
<ele>80.5</ele>
<time>2014-02-16T16:26:42Z</time>
</trkpt>
<trkpt lat="52.49848175048828" lon="13.388618469238281">
<ele>81.0</ele>
<time>2014-02-16T16:26:44Z</time>
</trkpt>
<trkpt lat="52.49842834472656" lon="13.388615608215332">
<ele>82.19999694824219</ele>
<time>2014-02-16T16:26:47Z</time>
</trkpt>
<trkpt lat="52.498382568359375" lon="13.388625144958496">
<ele>82.5</ele>
<time>2014-02-16T16:26:49Z</time>
</trkpt>
<trkpt lat="52.49833679199219" lon="13.38863468170166">
<ele>82.4000015258789</ele>
<time>2014-02-16T16:26:52Z</time>
</trkpt>
<trkpt lat="52.498291015625" lon="13.388629913330078">
<ele>83.19999694824219</ele>
<time>2014-02-16T16:27:07Z</time>
</trkpt>
<trkpt lat="52.49824142456055" lon="13.388626098632812">
<ele>82.30000305175781</ele>
<time>2014-02-16T16:27:16Z</time>
</trkpt>
<trkpt lat="52.4981803894043" lon="13.38865852355957">
<ele>82.69999694824219</ele>
<time>2014-02-16T16:27:17Z</time>
</trkpt>
<trkpt lat="52.49812698364258" lon="13.388687133789062">
<ele>83.0</ele>
<time>2014-02-16T16:27:19Z</time>
</trkpt>
<trkpt lat="52.49806594848633" lon="13.388680458068848">
<ele>83.5</ele>
<time>2014-02-16T16:27:21Z</time>
</trkpt>
<trkpt lat="52.49797439575195" lon="13.388702392578125">
<ele>81.9000015258789</ele>
<time>2014-02-16T16:27:23Z</time>
</trkpt>
<trkpt lat="52.497928619384766" lon="13.388716697692871">
<ele>81.5</ele>
<time>2014-02-16T16:27:24Z</time>
</trkpt>
<trkpt lat="52.497840881347656" lon="13.388753890991211">
<ele>80.9000015258789</ele>
<time>2014-02-16T16:27:26Z</time>
</trkpt>
<trkpt lat="52.49777603149414" lon="13.388765335083008">
<ele>81.0</ele>
<time>2014-02-16T16:27:28Z</time>
</trkpt>
<trkpt lat="52.49770736694336" lon="13.38879108428955">
<ele>80.0999984741211</ele>
<time>2014-02-16T16:27:30Z</time>
</trkpt>
<trkpt lat="52.497650146484375" lon="13.388794898986816">
<ele>80.5</ele>
<time>2014-02-16T16:27:32Z</time>
</trkpt>
<trkpt lat="52.497589111328125" lon="13.388772964477539">
<ele>80.0999984741211</ele>
<time>2014-02-16T16:27:35Z</time>
</trkpt>
<trkpt lat="52.49756622314453" lon="13.388845443725586">
<ele>80.0999984741211</ele>
<time>2014-02-16T16:27:43Z</time>
</trkpt>
<trkpt lat="52.49755859375" lon="13.388921737670898">
<ele>79.69999694824219</ele>
<time>2014-02-16T16:27:45Z</time>
</trkpt>
<trkpt lat="52.497554779052734" lon="13.389008522033691">
<ele>79.9000015258789</ele>
<time>2014-02-16T16:27:47Z</time>
</trkpt>
<trkpt lat="52.49754333496094" lon="13.389103889465332">
<ele>80.0999984741211</ele>
<time>2014-02-16T16:27:49Z</time>
</trkpt>
<trkpt lat="52.497535705566406" lon="13.389211654663086">
<ele>80.19999694824219</ele>
<time>2014-02-16T16:27:52Z</time>
</trkpt>
<trkpt lat="52.497528076171875" lon="13.389328002929688">
<ele>79.5999984741211</ele>
<time>2014-02-16T16:27:53Z</time>
</trkpt>
<trkpt lat="52.497520446777344" lon="13.389442443847656">
<ele>79.0999984741211</ele>
<time>2014-02-16T16:27:55Z</time>
</trkpt>
<trkpt lat="52.497493743896484" lon="13.389568328857422">
<ele>78.5999984741211</ele>
<time>2014-02-16T16:27:57Z</time>
</trkpt>
<trkpt lat="52.49748229980469" lon="13.389699935913086">
<ele>78.5</ele>
<time>2014-02-16T16:27:59Z</time>
</trkpt>
<trkpt lat="52.497467041015625" lon="13.389841079711914">
<ele>78.30000305175781</ele>
<time>2014-02-16T16:28:01Z</time>
</trkpt>
<trkpt lat="52.49745559692383" lon="13.389917373657227">
<ele>78.0</ele>
<time>2014-02-16T16:28:02Z</time>
</trkpt>
<trkpt lat="52.4974479675293" lon="13.389999389648438">
<ele>77.9000015258789</ele>
<time>2014-02-16T16:28:03Z</time>
</trkpt>
<trkpt lat="52.497440338134766" lon="13.390083312988281">
<ele>77.80000305175781</ele>
<time>2014-02-16T16:28:04Z</time>
</trkpt>
<trkpt lat="52.497432708740234" lon="13.390169143676758">
<ele>77.5999984741211</ele>
<time>2014-02-16T16:28:05Z</time>
</trkpt>
<trkpt lat="52.4974250793457" lon="13.390254974365234">
<ele>77.80000305175781</ele>
<time>2014-02-16T16:28:06Z</time>
</trkpt>
<trkpt lat="52.49741744995117" lon="13.390344619750977">
<ele>78.0</ele>
<time>2014-02-16T16:28:07Z</time>
</trkpt>
<trkpt lat="52.497413635253906" lon="13.390434265136719">
<ele>77.5999984741211</ele>
<time>2014-02-16T16:28:08Z</time>
</trkpt>
<trkpt lat="52.497406005859375" lon="13.390523910522461">
<ele>77.5</ele>
<time>2014-02-16T16:28:09Z</time>
</trkpt>
<trkpt lat="52.49739456176758" lon="13.390609741210938">
<ele>77.69999694824219</ele>
<time>2014-02-16T16:28:10Z</time>
</trkpt>
<trkpt lat="52.49739074707031" lon="13.390697479248047">
<ele>77.5999984741211</ele>
<time>2014-02-16T16:28:11Z</time>
</trkpt>
<trkpt lat="52.497379302978516" lon="13.390852928161621">
<ele>77.19999694824219</ele>
<time>2014-02-16T16:28:13Z</time>
</trkpt>
<trkpt lat="52.497379302978516" lon="13.390997886657715">
<ele>77.19999694824219</ele>
<time>2014-02-16T16:28:15Z</time>
</trkpt>
<trkpt lat="52.49736785888672" lon="13.391068458557129">
<ele>77.30000305175781</ele>
<time>2014-02-16T16:28:16Z</time>
</trkpt>
<trkpt lat="52.49735641479492" lon="13.391152381896973">
<ele>77.4000015258789</ele>
<time>2014-02-16T16:28:17Z</time>
</trkpt>
<trkpt lat="52.49736404418945" lon="13.391228675842285">
<ele>78.5</ele>
<time>2014-02-16T16:28:18Z</time>
</trkpt>
<trkpt lat="52.49735641479492" lon="13.391366004943848">
<ele>79.0999984741211</ele>
<time>2014-02-16T16:28:20Z</time>
</trkpt>
<trkpt lat="52.49736022949219" lon="13.391510009765625">
<ele>79.30000305175781</ele>
<time>2014-02-16T16:28:22Z</time>
</trkpt>
<trkpt lat="52.49735641479492" lon="13.391641616821289">
<ele>80.30000305175781</ele>
<time>2014-02-16T16:28:24Z</time>
</trkpt>
<trkpt lat="52.497344970703125" lon="13.391715049743652">
<ele>78.5</ele>
<time>2014-02-16T16:28:25Z</time>
</trkpt>
<trkpt lat="52.497337341308594" lon="13.391789436340332">
<ele>77.5</ele>
<time>2014-02-16T16:28:26Z</time>
</trkpt>
<trkpt lat="52.497337341308594" lon="13.39193058013916">
<ele>76.5999984741211</ele>
<time>2014-02-16T16:28:28Z</time>
</trkpt>
<trkpt lat="52.497344970703125" lon="13.392067909240723">
<ele>76.5999984741211</ele>
<time>2014-02-16T16:28:30Z</time>
</trkpt>
<trkpt lat="52.49734878540039" lon="13.392199516296387">
<ele>76.30000305175781</ele>
<time>2014-02-16T16:28:32Z</time>
</trkpt>
<trkpt lat="52.49735641479492" lon="13.392333030700684">
<ele>75.5999984741211</ele>
<time>2014-02-16T16:28:34Z</time>
</trkpt>
<trkpt lat="52.49736022949219" lon="13.392473220825195">
<ele>75.69999694824219</ele>
<time>2014-02-16T16:28:36Z</time>
</trkpt>
<trkpt lat="52.49736785888672" lon="13.39255428314209">
<ele>75.19999694824219</ele>
<time>2014-02-16T16:28:37Z</time>
</trkpt>
<trkpt lat="52.497371673583984" lon="13.392631530761719">
<ele>75.0</ele>
<time>2014-02-16T16:28:38Z</time>
</trkpt>
<trkpt lat="52.497379302978516" lon="13.392711639404297">
<ele>74.4000015258789</ele>
<time>2014-02-16T16:28:39Z</time>
</trkpt>
<trkpt lat="52.49738693237305" lon="13.392792701721191">
<ele>74.5</ele>
<time>2014-02-16T16:28:40Z</time>
</trkpt>
<trkpt lat="52.497398376464844" lon="13.392870903015137">
<ele>74.30000305175781</ele>
<time>2014-02-16T16:28:41Z</time>
</trkpt>
<trkpt lat="52.49739456176758" lon="13.392960548400879">
<ele>74.30000305175781</ele>
<time>2014-02-16T16:28:42Z</time>
</trkpt>
<trkpt lat="52.497406005859375" lon="13.393051147460938">
<ele>74.0</ele>
<time>2014-02-16T16:28:43Z</time>
</trkpt>
<trkpt lat="52.49742126464844" lon="13.393143653869629">
<ele>74.0</ele>
<time>2014-02-16T16:28:44Z</time>
</trkpt>
<trkpt lat="52.497413635253906" lon="13.393248558044434">
<ele>74.69999694824219</ele>
<time>2014-02-16T16:28:47Z</time>
</trkpt>
<trkpt lat="52.497406005859375" lon="13.393447875976562">
<ele>75.5</ele>
<time>2014-02-16T16:28:48Z</time>
</trkpt>
<trkpt lat="52.49741744995117" lon="13.393533706665039">
<ele>75.0</ele>
<time>2014-02-16T16:28:49Z</time>
</trkpt>
<trkpt lat="52.49742126464844" lon="13.393622398376465">
<ele>75.0999984741211</ele>
<time>2014-02-16T16:28:50Z</time>
</trkpt>
<trkpt lat="52.49740219116211" lon="13.3937349319458">
<ele>76.4000015258789</ele>
<time>2014-02-16T16:28:51Z</time>
</trkpt>
<trkpt lat="52.497413635253906" lon="13.393815994262695">
<ele>76.9000015258789</ele>
<time>2014-02-16T16:28:52Z</time>
</trkpt>
<trkpt lat="52.497474670410156" lon="13.393832206726074">
<ele>75.0</ele>
<time>2014-02-16T16:28:53Z</time>
</trkpt>
<trkpt lat="52.49750518798828" lon="13.393898010253906">
<ele>74.0</ele>
<time>2014-02-16T16:28:54Z</time>
</trkpt>
<trkpt lat="52.497562408447266" lon="13.394003868103027">
<ele>73.0</ele>
<time>2014-02-16T16:28:56Z</time>
</trkpt>
<trkpt lat="52.49760055541992" lon="13.39409065246582">
<ele>72.4000015258789</ele>
<time>2014-02-16T16:28:58Z</time>
</trkpt>
<trkpt lat="52.497581481933594" lon="13.394277572631836">
<ele>72.5999984741211</ele>
<time>2014-02-16T16:29:00Z</time>
</trkpt>
<trkpt lat="52.49760818481445" lon="13.394393920898438">
<ele>71.4000015258789</ele>
<time>2014-02-16T16:29:02Z</time>
</trkpt>
<trkpt lat="52.49760055541992" lon="13.3944730758667">
<ele>72.19999694824219</ele>
<time>2014-02-16T16:29:03Z</time>
</trkpt>
<trkpt lat="52.497581481933594" lon="13.394571304321289">
<ele>72.9000015258789</ele>
<time>2014-02-16T16:29:04Z</time>
</trkpt>
<trkpt lat="52.49758529663086" lon="13.394652366638184">
<ele>73.80000305175781</ele>
<time>2014-02-16T16:29:05Z</time>
</trkpt>
<trkpt lat="52.497589111328125" lon="13.39472770690918">
<ele>73.4000015258789</ele>
<time>2014-02-16T16:29:06Z</time>
</trkpt>
<trkpt lat="52.49760055541992" lon="13.394854545593262">
<ele>74.30000305175781</ele>
<time>2014-02-16T16:29:08Z</time>
</trkpt>
<trkpt lat="52.49760437011719" lon="13.394976615905762">
<ele>75.4000015258789</ele>
<time>2014-02-16T16:29:10Z</time>
</trkpt>
<trkpt lat="52.49760437011719" lon="13.395102500915527">
<ele>75.9000015258789</ele>
<time>2014-02-16T16:29:12Z</time>
</trkpt>
<trkpt lat="52.49756622314453" lon="13.395220756530762">
<ele>75.80000305175781</ele>
<time>2014-02-16T16:29:14Z</time>
</trkpt>
<trkpt lat="52.497520446777344" lon="13.395309448242188">
<ele>75.4000015258789</ele>
<time>2014-02-16T16:29:16Z</time>
</trkpt>
<trkpt lat="52.49745178222656" lon="13.395343780517578">
<ele>75.19999694824219</ele>
<time>2014-02-16T16:29:18Z</time>
</trkpt>
<trkpt lat="52.49737548828125" lon="13.39531421661377">
<ele>74.9000015258789</ele>
<time>2014-02-16T16:29:20Z</time>
</trkpt>
<trkpt lat="52.49729537963867" lon="13.395228385925293">
<ele>72.69999694824219</ele>
<time>2014-02-16T16:29:22Z</time>
</trkpt>
<trkpt lat="52.497215270996094" lon="13.395171165466309">
<ele>71.5999984741211</ele>
<time>2014-02-16T16:29:24Z</time>
</trkpt>
<trkpt lat="52.49712371826172" lon="13.39509391784668">
<ele>71.5999984741211</ele>
<time>2014-02-16T16:29:26Z</time>
</trkpt>
<trkpt lat="52.49703598022461" lon="13.395089149475098">
<ele>74.0</ele>
<time>2014-02-16T16:29:27Z</time>
</trkpt>
<trkpt lat="52.49699020385742" lon="13.3950777053833">
<ele>74.30000305175781</ele>
<time>2014-02-16T16:29:29Z</time>
</trkpt>
<trkpt lat="52.49691390991211" lon="13.395045280456543">
<ele>75.0999984741211</ele>
<time>2014-02-16T16:29:31Z</time>
</trkpt>
<trkpt lat="52.49684143066406" lon="13.39501953125">
<ele>75.69999694824219</ele>
<time>2014-02-16T16:29:32Z</time>
</trkpt>
<trkpt lat="52.496795654296875" lon="13.395007133483887">
<ele>76.0</ele>
<time>2014-02-16T16:29:34Z</time>
</trkpt>
<trkpt lat="52.49671173095703" lon="13.394981384277344">
<ele>75.80000305175781</ele>
<time>2014-02-16T16:29:36Z</time>
</trkpt>
<trkpt lat="52.49666213989258" lon="13.39496898651123">
<ele>76.0</ele>
<time>2014-02-16T16:29:37Z</time>
</trkpt>
<trkpt lat="52.49658966064453" lon="13.394947052001953">
<ele>75.0999984741211</ele>
<time>2014-02-16T16:29:39Z</time>
</trkpt>
<trkpt lat="52.496517181396484" lon="13.394937515258789">
<ele>74.69999694824219</ele>
<time>2014-02-16T16:29:41Z</time>
</trkpt>
<trkpt lat="52.496463775634766" lon="13.394927978515625">
<ele>75.0999984741211</ele>
<time>2014-02-16T16:29:43Z</time>
</trkpt>
<trkpt lat="52.496402740478516" lon="13.394917488098145">
<ele>74.80000305175781</ele>
<time>2014-02-16T16:29:45Z</time>
</trkpt>
<trkpt lat="52.496341705322266" lon="13.394905090332031">
<ele>75.5</ele>
<time>2014-02-16T16:30:18Z</time>
</trkpt>
<trkpt lat="52.49627685546875" lon="13.394902229309082">
<ele>75.9000015258789</ele>
<time>2014-02-16T16:30:21Z</time>
</trkpt>
<trkpt lat="52.496212005615234" lon="13.394898414611816">
<ele>75.9000015258789</ele>
<time>2014-02-16T16:30:23Z</time>
</trkpt>
<trkpt lat="52.496150970458984" lon="13.394868850708008">
<ele>75.30000305175781</ele>
<time>2014-02-16T16:30:25Z</time>
</trkpt>
<trkpt lat="52.496097564697266" lon="13.394819259643555">
<ele>76.0</ele>
<time>2014-02-16T16:30:28Z</time>
</trkpt>
<trkpt lat="52.49608612060547" lon="13.394911766052246">
<ele>75.9000015258789</ele>
<time>2014-02-16T16:30:52Z</time>
</trkpt>
<trkpt lat="52.4960823059082" lon="13.394989967346191">
<ele>76.30000305175781</ele>
<time>2014-02-16T16:30:54Z</time>
</trkpt>
<trkpt lat="52.496070861816406" lon="13.395090103149414">
<ele>75.80000305175781</ele>
<time>2014-02-16T16:30:57Z</time>
</trkpt>
<trkpt lat="52.496055603027344" lon="13.395198822021484">
<ele>75.4000015258789</ele>
<time>2014-02-16T16:30:59Z</time>
</trkpt>
<trkpt lat="52.49604034423828" lon="13.395302772521973">
<ele>75.5999984741211</ele>
<time>2014-02-16T16:31:01Z</time>
</trkpt>
<trkpt lat="52.49601364135742" lon="13.395405769348145">
<ele>75.5</ele>
<time>2014-02-16T16:31:03Z</time>
</trkpt>
<trkpt lat="52.49599838256836" lon="13.395515441894531">
<ele>75.9000015258789</ele>
<time>2014-02-16T16:31:05Z</time>
</trkpt>
<trkpt lat="52.4959831237793" lon="13.395628929138184">
<ele>76.30000305175781</ele>
<time>2014-02-16T16:31:07Z</time>
</trkpt>
<trkpt lat="52.49596405029297" lon="13.395751953125">
<ele>76.19999694824219</ele>
<time>2014-02-16T16:31:09Z</time>
</trkpt>
<trkpt lat="52.49595260620117" lon="13.395829200744629">
<ele>75.80000305175781</ele>
<time>2014-02-16T16:31:10Z</time>
</trkpt>
<trkpt lat="52.49593734741211" lon="13.395901679992676">
<ele>75.80000305175781</ele>
<time>2014-02-16T16:31:11Z</time>
</trkpt>
<trkpt lat="52.495880126953125" lon="13.395956993103027">
<ele>75.4000015258789</ele>
<time>2014-02-16T16:31:12Z</time>
</trkpt>
<trkpt lat="52.49586868286133" lon="13.39607048034668">
<ele>76.5</ele>
<time>2014-02-16T16:31:14Z</time>
</trkpt>
<trkpt lat="52.49583435058594" lon="13.396130561828613">
<ele>76.0</ele>
<time>2014-02-16T16:31:15Z</time>
</trkpt>
<trkpt lat="52.495784759521484" lon="13.396236419677734">
<ele>75.4000015258789</ele>
<time>2014-02-16T16:31:17Z</time>
</trkpt>
<trkpt lat="52.49574661254883" lon="13.396344184875488">
<ele>75.80000305175781</ele>
<time>2014-02-16T16:31:19Z</time>
</trkpt>
<trkpt lat="52.49570846557617" lon="13.39645767211914">
<ele>76.4000015258789</ele>
<time>2014-02-16T16:31:21Z</time>
</trkpt>
<trkpt lat="52.495670318603516" lon="13.396580696105957">
<ele>76.30000305175781</ele>
<time>2014-02-16T16:31:23Z</time>
</trkpt>
<trkpt lat="52.49562454223633" lon="13.39668083190918">
<ele>76.5</ele>
<time>2014-02-16T16:31:25Z</time>
</trkpt>
<trkpt lat="52.49557876586914" lon="13.396788597106934">
<ele>76.5999984741211</ele>
<time>2014-02-16T16:31:27Z</time>
</trkpt>
<trkpt lat="52.49552917480469" lon="13.396876335144043">
<ele>76.4000015258789</ele>
<time>2014-02-16T16:31:29Z</time>
</trkpt>
<trkpt lat="52.495460510253906" lon="13.396965980529785">
<ele>76.30000305175781</ele>
<time>2014-02-16T16:31:31Z</time>
</trkpt>
<trkpt lat="52.49531936645508" lon="13.397170066833496">
<ele>76.69999694824219</ele>
<time>2014-02-16T16:31:34Z</time>
</trkpt>
<trkpt lat="52.49528884887695" lon="13.397228240966797">
<ele>76.69999694824219</ele>
<time>2014-02-16T16:31:35Z</time>
</trkpt>
<trkpt lat="52.495262145996094" lon="13.397294044494629">
<ele>76.5</ele>
<time>2014-02-16T16:31:35Z</time>
</trkpt>
<trkpt lat="52.49520492553711" lon="13.39738941192627">
<ele>76.5</ele>
<time>2014-02-16T16:31:37Z</time>
</trkpt>
<trkpt lat="52.495147705078125" lon="13.397480010986328">
<ele>76.30000305175781</ele>
<time>2014-02-16T16:31:40Z</time>
</trkpt>
<trkpt lat="52.4951171875" lon="13.397639274597168">
<ele>80.30000305175781</ele>
<time>2014-02-16T16:31:42Z</time>
</trkpt>
<trkpt lat="52.495140075683594" lon="13.397709846496582">
<ele>83.9000015258789</ele>
<time>2014-02-16T16:31:42Z</time>
</trkpt>
<trkpt lat="52.49507141113281" lon="13.397794723510742">
<ele>81.9000015258789</ele>
<time>2014-02-16T16:31:45Z</time>
</trkpt>
<trkpt lat="52.495018005371094" lon="13.397886276245117">
<ele>81.9000015258789</ele>
<time>2014-02-16T16:31:46Z</time>
</trkpt>
<trkpt lat="52.494972229003906" lon="13.397972106933594">
<ele>81.9000015258789</ele>
<time>2014-02-16T16:31:48Z</time>
</trkpt>
<trkpt lat="52.49493408203125" lon="13.398073196411133">
<ele>81.5999984741211</ele>
<time>2014-02-16T16:31:49Z</time>
</trkpt>
<trkpt lat="52.4948844909668" lon="13.398164749145508">
<ele>82.5999984741211</ele>
<time>2014-02-16T16:31:51Z</time>
</trkpt>
<trkpt lat="52.49483108520508" lon="13.398245811462402">
<ele>81.69999694824219</ele>
<time>2014-02-16T16:31:52Z</time>
</trkpt>
<trkpt lat="52.49479675292969" lon="13.398303031921387">
<ele>82.19999694824219</ele>
<time>2014-02-16T16:31:53Z</time>
</trkpt>
<trkpt lat="52.494754791259766" lon="13.39836311340332">
<ele>81.80000305175781</ele>
<time>2014-02-16T16:31:54Z</time>
</trkpt>
<trkpt lat="52.49471664428711" lon="13.39842414855957">
<ele>81.30000305175781</ele>
<time>2014-02-16T16:31:55Z</time>
</trkpt>
<trkpt lat="52.49465560913086" lon="13.39852523803711">
<ele>81.30000305175781</ele>
<time>2014-02-16T16:31:56Z</time>
</trkpt>
<trkpt lat="52.4946174621582" lon="13.398587226867676">
<ele>77.30000305175781</ele>
<time>2014-02-16T16:31:58Z</time>
</trkpt>
<trkpt lat="52.494564056396484" lon="13.398690223693848">
<ele>74.5999984741211</ele>
<time>2014-02-16T16:32:01Z</time>
</trkpt>
<trkpt lat="52.49452590942383" lon="13.398785591125488">
<ele>73.9000015258789</ele>
<time>2014-02-16T16:32:04Z</time>
</trkpt>
<trkpt lat="52.494483947753906" lon="13.398897171020508">
<ele>74.0999984741211</ele>
<time>2014-02-16T16:32:06Z</time>
</trkpt>
<trkpt lat="52.494441986083984" lon="13.39904499053955">
<ele>75.80000305175781</ele>
<time>2014-02-16T16:32:08Z</time>
</trkpt>
<trkpt lat="52.49441146850586" lon="13.399173736572266">
<ele>75.0999984741211</ele>
<time>2014-02-16T16:32:10Z</time>
</trkpt>
<trkpt lat="52.494388580322266" lon="13.399313926696777">
<ele>75.4000015258789</ele>
<time>2014-02-16T16:32:12Z</time>
</trkpt>
<trkpt lat="52.4943962097168" lon="13.399435043334961">
<ele>77.4000015258789</ele>
<time>2014-02-16T16:32:14Z</time>
</trkpt>
<trkpt lat="52.49437713623047" lon="13.39957046508789">
<ele>76.80000305175781</ele>
<time>2014-02-16T16:32:16Z</time>
</trkpt>
<trkpt lat="52.49435806274414" lon="13.39970874786377">
<ele>76.5999984741211</ele>
<time>2014-02-16T16:32:18Z</time>
</trkpt>
<trkpt lat="52.49433517456055" lon="13.399808883666992">
<ele>76.69999694824219</ele>
<time>2014-02-16T16:32:19Z</time>
</trkpt>
<trkpt lat="52.49432373046875" lon="13.399886131286621">
<ele>77.0999984741211</ele>
<time>2014-02-16T16:32:20Z</time>
</trkpt>
<trkpt lat="52.49430847167969" lon="13.399962425231934">
<ele>77.5999984741211</ele>
<time>2014-02-16T16:32:21Z</time>
</trkpt>
<trkpt lat="52.49429702758789" lon="13.400108337402344">
<ele>77.19999694824219</ele>
<time>2014-02-16T16:32:23Z</time>
</trkpt>
<trkpt lat="52.494293212890625" lon="13.400182723999023">
<ele>77.4000015258789</ele>
<time>2014-02-16T16:32:23Z</time>
</trkpt>
<trkpt lat="52.494285583496094" lon="13.40025520324707">
<ele>77.69999694824219</ele>
<time>2014-02-16T16:32:25Z</time>
</trkpt>
<trkpt lat="52.4942741394043" lon="13.400330543518066">
<ele>77.69999694824219</ele>
<time>2014-02-16T16:32:26Z</time>
</trkpt>
<trkpt lat="52.494258880615234" lon="13.400399208068848">
<ele>77.5999984741211</ele>
<time>2014-02-16T16:32:27Z</time>
</trkpt>
<trkpt lat="52.49424743652344" lon="13.400476455688477">
<ele>77.4000015258789</ele>
<time>2014-02-16T16:32:28Z</time>
</trkpt>
<trkpt lat="52.49422836303711" lon="13.40054988861084">
<ele>77.5999984741211</ele>
<time>2014-02-16T16:32:29Z</time>
</trkpt>
<trkpt lat="52.49421691894531" lon="13.400626182556152">
<ele>77.5</ele>
<time>2014-02-16T16:32:30Z</time>
</trkpt>
<trkpt lat="52.49418640136719" lon="13.400750160217285">
<ele>77.5999984741211</ele>
<time>2014-02-16T16:32:32Z</time>
</trkpt>
<trkpt lat="52.494171142578125" lon="13.400846481323242">
<ele>77.4000015258789</ele>
<time>2014-02-16T16:32:33Z</time>
</trkpt>
<trkpt lat="52.494232177734375" lon="13.400837898254395">
<ele>77.69999694824219</ele>
<time>2014-02-16T16:32:34Z</time>
</trkpt>
<trkpt lat="52.494232177734375" lon="13.4009428024292">
<ele>77.80000305175781</ele>
<time>2014-02-16T16:32:36Z</time>
</trkpt>
<trkpt lat="52.49421310424805" lon="13.401046752929688">
<ele>77.5</ele>
<time>2014-02-16T16:32:38Z</time>
</trkpt>
<trkpt lat="52.49419403076172" lon="13.401195526123047">
<ele>77.19999694824219</ele>
<time>2014-02-16T16:32:40Z</time>
</trkpt>
<trkpt lat="52.49418258666992" lon="13.401308059692383">
<ele>77.0</ele>
<time>2014-02-16T16:32:41Z</time>
</trkpt>
<trkpt lat="52.494049072265625" lon="13.401924133300781">
<ele>77.0</ele>
<time>2014-02-16T16:32:51Z</time>
</trkpt>
<trkpt lat="52.494056701660156" lon="13.402009010314941">
<ele>78.5999984741211</ele>
<time>2014-02-16T16:32:52Z</time>
</trkpt>
<trkpt lat="52.49404525756836" lon="13.40210247039795">
<ele>77.80000305175781</ele>
<time>2014-02-16T16:32:54Z</time>
</trkpt>
<trkpt lat="52.4940071105957" lon="13.402239799499512">
<ele>77.5</ele>
<time>2014-02-16T16:32:56Z</time>
</trkpt>
<trkpt lat="52.49398422241211" lon="13.402323722839355">
<ele>77.30000305175781</ele>
<time>2014-02-16T16:32:58Z</time>
</trkpt>
<trkpt lat="52.49396896362305" lon="13.402416229248047">
<ele>76.9000015258789</ele>
<time>2014-02-16T16:33:00Z</time>
</trkpt>
<trkpt lat="52.49396514892578" lon="13.402519226074219">
<ele>76.30000305175781</ele>
<time>2014-02-16T16:33:02Z</time>
</trkpt>
<trkpt lat="52.49393081665039" lon="13.402627944946289">
<ele>77.4000015258789</ele>
<time>2014-02-16T16:33:04Z</time>
</trkpt>
<trkpt lat="52.49387741088867" lon="13.402713775634766">
<ele>76.30000305175781</ele>
<time>2014-02-16T16:33:05Z</time>
</trkpt>
<trkpt lat="52.49382781982422" lon="13.402857780456543">
<ele>77.0</ele>
<time>2014-02-16T16:33:07Z</time>
</trkpt>
<trkpt lat="52.49380111694336" lon="13.402926445007324">
<ele>77.9000015258789</ele>
<time>2014-02-16T16:33:08Z</time>
</trkpt>
<trkpt lat="52.4937744140625" lon="13.40304946899414">
<ele>78.0999984741211</ele>
<time>2014-02-16T16:33:10Z</time>
</trkpt>
<trkpt lat="52.49374771118164" lon="13.40316104888916">
<ele>77.5999984741211</ele>
<time>2014-02-16T16:33:12Z</time>
</trkpt>
<trkpt lat="52.49374008178711" lon="13.403264999389648">
<ele>77.80000305175781</ele>
<time>2014-02-16T16:33:14Z</time>
</trkpt>
<trkpt lat="52.49375915527344" lon="13.403336524963379">
<ele>75.9000015258789</ele>
<time>2014-02-16T16:33:15Z</time>
</trkpt>
<trkpt lat="52.493751525878906" lon="13.403465270996094">
<ele>75.69999694824219</ele>
<time>2014-02-16T16:33:17Z</time>
</trkpt>
<trkpt lat="52.49374008178711" lon="13.40360164642334">
<ele>77.5</ele>
<time>2014-02-16T16:33:20Z</time>
</trkpt>
<trkpt lat="52.49372100830078" lon="13.403736114501953">
<ele>77.80000305175781</ele>
<time>2014-02-16T16:33:22Z</time>
</trkpt>
<trkpt lat="52.493709564208984" lon="13.403807640075684">
<ele>77.69999694824219</ele>
<time>2014-02-16T16:33:23Z</time>
</trkpt>
<trkpt lat="52.49367904663086" lon="13.40394401550293">
<ele>77.0999984741211</ele>
<time>2014-02-16T16:33:25Z</time>
</trkpt>
<trkpt lat="52.49367141723633" lon="13.404088020324707">
<ele>78.9000015258789</ele>
<time>2014-02-16T16:33:27Z</time>
</trkpt>
<trkpt lat="52.49366760253906" lon="13.404166221618652">
<ele>79.5</ele>
<time>2014-02-16T16:33:28Z</time>
</trkpt>
<trkpt lat="52.49365997314453" lon="13.404242515563965">
<ele>79.80000305175781</ele>
<time>2014-02-16T16:33:29Z</time>
</trkpt>
<trkpt lat="52.49365234375" lon="13.404319763183594">
<ele>79.9000015258789</ele>
<time>2014-02-16T16:33:30Z</time>
</trkpt>
<trkpt lat="52.49363708496094" lon="13.404401779174805">
<ele>79.80000305175781</ele>
<time>2014-02-16T16:33:31Z</time>
</trkpt>
<trkpt lat="52.493629455566406" lon="13.404515266418457">
<ele>79.0</ele>
<time>2014-02-16T16:33:32Z</time>
</trkpt>
<trkpt lat="52.49361801147461" lon="13.404653549194336">
<ele>79.0</ele>
<time>2014-02-16T16:33:35Z</time>
</trkpt>
<trkpt lat="52.493595123291016" lon="13.404738426208496">
<ele>78.5999984741211</ele>
<time>2014-02-16T16:33:36Z</time>
</trkpt>
<trkpt lat="52.49356460571289" lon="13.40488052368164">
<ele>78.5999984741211</ele>
<time>2014-02-16T16:33:38Z</time>
</trkpt>
<trkpt lat="52.4935302734375" lon="13.405017852783203">
<ele>77.30000305175781</ele>
<time>2014-02-16T16:33:40Z</time>
</trkpt>
<trkpt lat="52.4935417175293" lon="13.40512752532959">
<ele>77.5</ele>
<time>2014-02-16T16:33:42Z</time>
</trkpt>
<trkpt lat="52.49351501464844" lon="13.405226707458496">
<ele>78.5</ele>
<time>2014-02-16T16:33:43Z</time>
</trkpt>
<trkpt lat="52.49348068237305" lon="13.40535831451416">
<ele>79.5</ele>
<time>2014-02-16T16:33:45Z</time>
</trkpt>
<trkpt lat="52.49346160888672" lon="13.40542984008789">
<ele>79.69999694824219</ele>
<time>2014-02-16T16:33:46Z</time>
</trkpt>
<trkpt lat="52.493438720703125" lon="13.405497550964355">
<ele>79.5</ele>
<time>2014-02-16T16:33:47Z</time>
</trkpt>
<trkpt lat="52.4934196472168" lon="13.405570983886719">
<ele>79.4000015258789</ele>
<time>2014-02-16T16:33:48Z</time>
</trkpt>
<trkpt lat="52.49341583251953" lon="13.405680656433105">
<ele>77.80000305175781</ele>
<time>2014-02-16T16:33:49Z</time>
</trkpt>
<trkpt lat="52.49338150024414" lon="13.405747413635254">
<ele>76.0999984741211</ele>
<time>2014-02-16T16:33:51Z</time>
</trkpt>
<trkpt lat="52.49336624145508" lon="13.405816078186035">
<ele>76.69999694824219</ele>
<time>2014-02-16T16:33:52Z</time>
</trkpt>
<trkpt lat="52.493343353271484" lon="13.405935287475586">
<ele>76.19999694824219</ele>
<time>2014-02-16T16:33:54Z</time>
</trkpt>
<trkpt lat="52.49332046508789" lon="13.406065940856934">
<ele>76.5</ele>
<time>2014-02-16T16:33:56Z</time>
</trkpt>
<trkpt lat="52.49333572387695" lon="13.406147003173828">
<ele>75.5999984741211</ele>
<time>2014-02-16T16:33:58Z</time>
</trkpt>
<trkpt lat="52.49333572387695" lon="13.406249046325684">
<ele>75.0999984741211</ele>
<time>2014-02-16T16:33:59Z</time>
</trkpt>
<trkpt lat="52.49330139160156" lon="13.406346321105957">
<ele>75.19999694824219</ele>
<time>2014-02-16T16:34:01Z</time>
</trkpt>
<trkpt lat="52.49327087402344" lon="13.406477928161621">
<ele>75.0</ele>
<time>2014-02-16T16:34:03Z</time>
</trkpt>
<trkpt lat="52.49325180053711" lon="13.406598091125488">
<ele>74.19999694824219</ele>
<time>2014-02-16T16:34:04Z</time>
</trkpt>
<trkpt lat="52.49323272705078" lon="13.40673542022705">
<ele>74.5</ele>
<time>2014-02-16T16:34:07Z</time>
</trkpt>
<trkpt lat="52.49321365356445" lon="13.406808853149414">
<ele>74.5999984741211</ele>
<time>2014-02-16T16:34:08Z</time>
</trkpt>
<trkpt lat="52.49317932128906" lon="13.406951904296875">
<ele>73.80000305175781</ele>
<time>2014-02-16T16:34:10Z</time>
</trkpt>
<trkpt lat="52.4931526184082" lon="13.40701675415039">
<ele>72.69999694824219</ele>
<time>2014-02-16T16:34:11Z</time>
</trkpt>
<trkpt lat="52.49312210083008" lon="13.407076835632324">
<ele>71.5</ele>
<time>2014-02-16T16:34:12Z</time>
</trkpt>
<trkpt lat="52.49309539794922" lon="13.407144546508789">
<ele>71.0</ele>
<time>2014-02-16T16:34:13Z</time>
</trkpt>
<trkpt lat="52.49306106567383" lon="13.40726089477539">
<ele>69.5</ele>
<time>2014-02-16T16:34:15Z</time>
</trkpt>
<trkpt lat="52.4930419921875" lon="13.407400131225586">
<ele>68.30000305175781</ele>
<time>2014-02-16T16:34:17Z</time>
</trkpt>
<trkpt lat="52.49309158325195" lon="13.407479286193848">
<ele>73.80000305175781</ele>
<time>2014-02-16T16:34:18Z</time>
</trkpt>
<trkpt lat="52.493072509765625" lon="13.40760612487793">
<ele>74.5</ele>
<time>2014-02-16T16:34:20Z</time>
</trkpt>
<trkpt lat="52.49305725097656" lon="13.407720565795898">
<ele>74.9000015258789</ele>
<time>2014-02-16T16:34:22Z</time>
</trkpt>
<trkpt lat="52.493045806884766" lon="13.407837867736816">
<ele>75.30000305175781</ele>
<time>2014-02-16T16:34:24Z</time>
</trkpt>
<trkpt lat="52.493045806884766" lon="13.407962799072266">
<ele>76.0999984741211</ele>
<time>2014-02-16T16:34:25Z</time>
</trkpt>
<trkpt lat="52.49302673339844" lon="13.408087730407715">
<ele>76.0999984741211</ele>
<time>2014-02-16T16:34:28Z</time>
</trkpt>
<trkpt lat="52.493003845214844" lon="13.408158302307129">
<ele>76.30000305175781</ele>
<time>2014-02-16T16:34:29Z</time>
</trkpt>
<trkpt lat="52.49298095703125" lon="13.408286094665527">
<ele>75.30000305175781</ele>
<time>2014-02-16T16:34:31Z</time>
</trkpt>
<trkpt lat="52.492958068847656" lon="13.408415794372559">
<ele>75.4000015258789</ele>
<time>2014-02-16T16:34:33Z</time>
</trkpt>
<trkpt lat="52.4929313659668" lon="13.408548355102539">
<ele>75.0</ele>
<time>2014-02-16T16:34:35Z</time>
</trkpt>
<trkpt lat="52.49290084838867" lon="13.408679962158203">
<ele>74.9000015258789</ele>
<time>2014-02-16T16:34:37Z</time>
</trkpt>
<trkpt lat="52.49288558959961" lon="13.408757209777832">
<ele>74.69999694824219</ele>
<time>2014-02-16T16:34:38Z</time>
</trkpt>
<trkpt lat="52.492835998535156" lon="13.408867835998535">
<ele>75.0</ele>
<time>2014-02-16T16:34:39Z</time>
</trkpt>
<trkpt lat="52.49281692504883" lon="13.408939361572266">
<ele>74.80000305175781</ele>
<time>2014-02-16T16:34:40Z</time>
</trkpt>
<trkpt lat="52.49279022216797" lon="13.409058570861816">
<ele>74.0</ele>
<time>2014-02-16T16:34:42Z</time>
</trkpt>
<trkpt lat="52.492774963378906" lon="13.409172058105469">
<ele>73.4000015258789</ele>
<time>2014-02-16T16:34:44Z</time>
</trkpt>
<trkpt lat="52.492759704589844" lon="13.409295082092285">
<ele>74.80000305175781</ele>
<time>2014-02-16T16:34:46Z</time>
</trkpt>
<trkpt lat="52.492740631103516" lon="13.409363746643066">
<ele>74.5999984741211</ele>
<time>2014-02-16T16:34:47Z</time>
</trkpt>
<trkpt lat="52.49273681640625" lon="13.409492492675781">
<ele>77.30000305175781</ele>
<time>2014-02-16T16:34:49Z</time>
</trkpt>
<trkpt lat="52.492698669433594" lon="13.409549713134766">
<ele>75.30000305175781</ele>
<time>2014-02-16T16:34:50Z</time>
</trkpt>
<trkpt lat="52.492671966552734" lon="13.409669876098633">
<ele>75.69999694824219</ele>
<time>2014-02-16T16:34:52Z</time>
</trkpt>
<trkpt lat="52.49264907836914" lon="13.409772872924805">
<ele>75.5999984741211</ele>
<time>2014-02-16T16:34:54Z</time>
</trkpt>
<trkpt lat="52.49262619018555" lon="13.409873962402344">
<ele>75.5999984741211</ele>
<time>2014-02-16T16:34:56Z</time>
</trkpt>
<trkpt lat="52.492591857910156" lon="13.409960746765137">
<ele>76.30000305175781</ele>
<time>2014-02-16T16:34:57Z</time>
</trkpt>
<trkpt lat="52.492557525634766" lon="13.410066604614258">
<ele>73.5999984741211</ele>
<time>2014-02-16T16:34:59Z</time>
</trkpt>
<trkpt lat="52.49253845214844" lon="13.410199165344238">
<ele>75.19999694824219</ele>
<time>2014-02-16T16:35:01Z</time>
</trkpt>
<trkpt lat="52.49250411987305" lon="13.410325050354004">
<ele>75.5</ele>
<time>2014-02-16T16:35:03Z</time>
</trkpt>
<trkpt lat="52.49247741699219" lon="13.410453796386719">
<ele>76.0</ele>
<time>2014-02-16T16:35:05Z</time>
</trkpt>
<trkpt lat="52.492454528808594" lon="13.410530090332031">
<ele>75.9000015258789</ele>
<time>2014-02-16T16:35:05Z</time>
</trkpt>
<trkpt lat="52.49242401123047" lon="13.410667419433594">
<ele>75.4000015258789</ele>
<time>2014-02-16T16:35:08Z</time>
</trkpt>
<trkpt lat="52.49238204956055" lon="13.410785675048828">
<ele>75.9000015258789</ele>
<time>2014-02-16T16:35:10Z</time>
</trkpt>
<trkpt lat="52.49238586425781" lon="13.410873413085938">
<ele>75.4000015258789</ele>
<time>2014-02-16T16:35:11Z</time>
</trkpt>
<trkpt lat="52.49236297607422" lon="13.410950660705566">
<ele>75.30000305175781</ele>
<time>2014-02-16T16:35:12Z</time>
</trkpt>
<trkpt lat="52.49234390258789" lon="13.411020278930664">
<ele>75.0999984741211</ele>
<time>2014-02-16T16:35:13Z</time>
</trkpt>
<trkpt lat="52.49234390258789" lon="13.411099433898926">
<ele>74.5</ele>
<time>2014-02-16T16:35:14Z</time>
</trkpt>
<trkpt lat="52.492340087890625" lon="13.411248207092285">
<ele>74.0</ele>
<time>2014-02-16T16:35:16Z</time>
</trkpt>
<trkpt lat="52.4923095703125" lon="13.41137981414795">
<ele>74.0999984741211</ele>
<time>2014-02-16T16:35:18Z</time>
</trkpt>
<trkpt lat="52.49229049682617" lon="13.411447525024414">
<ele>74.19999694824219</ele>
<time>2014-02-16T16:35:19Z</time>
</trkpt>
<trkpt lat="52.49225997924805" lon="13.411514282226562">
<ele>74.19999694824219</ele>
<time>2014-02-16T16:35:20Z</time>
</trkpt>
<trkpt lat="52.49221420288086" lon="13.411627769470215">
<ele>74.19999694824219</ele>
<time>2014-02-16T16:35:21Z</time>
</trkpt>
<trkpt lat="52.49217987060547" lon="13.4116792678833">
<ele>74.30000305175781</ele>
<time>2014-02-16T16:35:22Z</time>
</trkpt>
<trkpt lat="52.49213409423828" lon="13.411733627319336">
<ele>74.19999694824219</ele>
<time>2014-02-16T16:35:24Z</time>
</trkpt>
<trkpt lat="52.49215316772461" lon="13.411870956420898">
<ele>75.0999984741211</ele>
<time>2014-02-16T16:35:26Z</time>
</trkpt>
<trkpt lat="52.49211502075195" lon="13.411925315856934">
<ele>74.5999984741211</ele>
<time>2014-02-16T16:35:27Z</time>
</trkpt>
<trkpt lat="52.4920768737793" lon="13.41203784942627">
<ele>74.69999694824219</ele>
<time>2014-02-16T16:35:29Z</time>
</trkpt>
<trkpt lat="52.49201965332031" lon="13.412077903747559">
<ele>74.30000305175781</ele>
<time>2014-02-16T16:35:30Z</time>
</trkpt>
<trkpt lat="52.49197006225586" lon="13.412121772766113">
<ele>73.80000305175781</ele>
<time>2014-02-16T16:35:30Z</time>
</trkpt>
<trkpt lat="52.49189376831055" lon="13.412206649780273">
<ele>72.4000015258789</ele>
<time>2014-02-16T16:35:33Z</time>
</trkpt>
<trkpt lat="52.491844177246094" lon="13.412235260009766">
<ele>72.19999694824219</ele>
<time>2014-02-16T16:35:34Z</time>
</trkpt>
<trkpt lat="52.49179458618164" lon="13.412352561950684">
<ele>72.4000015258789</ele>
<time>2014-02-16T16:35:36Z</time>
</trkpt>
<trkpt lat="52.491756439208984" lon="13.412391662597656">
<ele>73.30000305175781</ele>
<time>2014-02-16T16:35:37Z</time>
</trkpt>
<trkpt lat="52.491905212402344" lon="13.412345886230469">
<ele>78.9000015258789</ele>
<time>2014-02-16T16:35:38Z</time>
</trkpt>
<trkpt lat="52.49182891845703" lon="13.41238021850586">
<ele>77.19999694824219</ele>
<time>2014-02-16T16:35:46Z</time>
</trkpt>
<trkpt lat="52.491756439208984" lon="13.412349700927734">
<ele>76.80000305175781</ele>
<time>2014-02-16T16:35:49Z</time>
</trkpt>
<trkpt lat="52.49169921875" lon="13.412322044372559">
<ele>77.5999984741211</ele>
<time>2014-02-16T16:35:51Z</time>
</trkpt>
<trkpt lat="52.49164962768555" lon="13.412274360656738">
<ele>79.0999984741211</ele>
<time>2014-02-16T16:35:52Z</time>
</trkpt>
<trkpt lat="52.49163055419922" lon="13.412362098693848">
<ele>81.5999984741211</ele>
<time>2014-02-16T16:35:54Z</time>
</trkpt>
<trkpt lat="52.4915885925293" lon="13.412442207336426">
<ele>80.80000305175781</ele>
<time>2014-02-16T16:35:56Z</time>
</trkpt>
<trkpt lat="52.49156188964844" lon="13.412538528442383">
<ele>80.4000015258789</ele>
<time>2014-02-16T16:35:58Z</time>
</trkpt>
<trkpt lat="52.491539001464844" lon="13.41266918182373">
<ele>80.0999984741211</ele>
<time>2014-02-16T16:36:00Z</time>
</trkpt>
<trkpt lat="52.49152755737305" lon="13.412809371948242">
<ele>79.5</ele>
<time>2014-02-16T16:36:02Z</time>
</trkpt>
<trkpt lat="52.4915771484375" lon="13.412823677062988">
<ele>78.0</ele>
<time>2014-02-16T16:36:04Z</time>
</trkpt>
<trkpt lat="52.4915771484375" lon="13.412897109985352">
<ele>76.80000305175781</ele>
<time>2014-02-16T16:36:05Z</time>
</trkpt>
<trkpt lat="52.49150466918945" lon="13.412910461425781">
<ele>79.80000305175781</ele>
<time>2014-02-16T16:36:06Z</time>
</trkpt>
<trkpt lat="52.49143981933594" lon="13.412947654724121">
<ele>81.9000015258789</ele>
<time>2014-02-16T16:36:09Z</time>
</trkpt>
<trkpt lat="52.49138641357422" lon="13.412946701049805">
<ele>81.9000015258789</ele>
<time>2014-02-16T16:36:11Z</time>
</trkpt>
<trkpt lat="52.4913215637207" lon="13.412972450256348">
<ele>82.80000305175781</ele>
<time>2014-02-16T16:36:13Z</time>
</trkpt>
<trkpt lat="52.49126052856445" lon="13.412986755371094">
<ele>84.0999984741211</ele>
<time>2014-02-16T16:36:15Z</time>
</trkpt>
<trkpt lat="52.491188049316406" lon="13.413016319274902">
<ele>84.5999984741211</ele>
<time>2014-02-16T16:36:17Z</time>
</trkpt>
<trkpt lat="52.49108123779297" lon="13.413020133972168">
<ele>83.80000305175781</ele>
<time>2014-02-16T16:36:18Z</time>
</trkpt>
<trkpt lat="52.49099349975586" lon="13.413040161132812">
<ele>82.80000305175781</ele>
<time>2014-02-16T16:36:19Z</time>
</trkpt>
<trkpt lat="52.49091339111328" lon="13.413070678710938">
<ele>82.69999694824219</ele>
<time>2014-02-16T16:36:21Z</time>
</trkpt>
<trkpt lat="52.4908447265625" lon="13.413076400756836">
<ele>83.19999694824219</ele>
<time>2014-02-16T16:36:23Z</time>
</trkpt>
<trkpt lat="52.49079895019531" lon="13.413070678710938">
<ele>83.5999984741211</ele>
<time>2014-02-16T16:36:26Z</time>
</trkpt>
<trkpt lat="52.4907341003418" lon="13.413125038146973">
<ele>83.5999984741211</ele>
<time>2014-02-16T16:36:28Z</time>
</trkpt>
<trkpt lat="52.49066925048828" lon="13.413128852844238">
<ele>82.80000305175781</ele>
<time>2014-02-16T16:36:30Z</time>
</trkpt>
<trkpt lat="52.49058532714844" lon="13.413143157958984">
<ele>81.80000305175781</ele>
<time>2014-02-16T16:36:31Z</time>
</trkpt>
<trkpt lat="52.49053955078125" lon="13.413162231445312">
<ele>81.80000305175781</ele>
<time>2014-02-16T16:36:33Z</time>
</trkpt>
<trkpt lat="52.49048614501953" lon="13.413192749023438">
<ele>80.4000015258789</ele>
<time>2014-02-16T16:36:34Z</time>
</trkpt>
<trkpt lat="52.49042510986328" lon="13.413202285766602">
<ele>80.0</ele>
<time>2014-02-16T16:36:35Z</time>
</trkpt>
<trkpt lat="52.49036407470703" lon="13.413172721862793">
<ele>80.5</ele>
<time>2014-02-16T16:36:38Z</time>
</trkpt>
<trkpt lat="52.49028015136719" lon="13.413189888000488">
<ele>81.80000305175781</ele>
<time>2014-02-16T16:36:41Z</time>
</trkpt>
<trkpt lat="52.49018478393555" lon="13.413174629211426">
<ele>83.0999984741211</ele>
<time>2014-02-16T16:36:42Z</time>
</trkpt>
<trkpt lat="52.49013137817383" lon="13.413213729858398">
<ele>83.5999984741211</ele>
<time>2014-02-16T16:36:44Z</time>
</trkpt>
<trkpt lat="52.490047454833984" lon="13.41323184967041">
<ele>85.5</ele>
<time>2014-02-16T16:36:47Z</time>
</trkpt>
<trkpt lat="52.489994049072266" lon="13.41323184967041">
<ele>87.0</ele>
<time>2014-02-16T16:36:48Z</time>
</trkpt>
<trkpt lat="52.48992919921875" lon="13.413216590881348">
<ele>88.69999694824219</ele>
<time>2014-02-16T16:36:49Z</time>
</trkpt>
<trkpt lat="52.489864349365234" lon="13.4132080078125">
<ele>89.9000015258789</ele>
<time>2014-02-16T16:36:50Z</time>
</trkpt>
<trkpt lat="52.48978805541992" lon="13.41322135925293">
<ele>91.4000015258789</ele>
<time>2014-02-16T16:36:51Z</time>
</trkpt>
<trkpt lat="52.48970031738281" lon="13.413201332092285">
<ele>99.0999984741211</ele>
<time>2014-02-16T16:36:54Z</time>
</trkpt>
<trkpt lat="52.489803314208984" lon="13.413182258605957">
<ele>107.30000305175781</ele>
<time>2014-02-16T16:36:59Z</time>
</trkpt>
<trkpt lat="52.489837646484375" lon="13.413256645202637">
<ele>116.9000015258789</ele>
<time>2014-02-16T16:37:07Z</time>
</trkpt>
<trkpt lat="52.48979949951172" lon="13.41330623626709">
<ele>125.80000305175781</ele>
<time>2014-02-16T16:38:03Z</time>
</trkpt>
<trkpt lat="52.4898681640625" lon="13.413250923156738">
<ele>127.0999984741211</ele>
<time>2014-02-16T16:38:05Z</time>
</trkpt>
<trkpt lat="52.48981857299805" lon="13.413314819335938">
<ele>133.89999389648438</ele>
<time>2014-02-16T16:38:11Z</time>
</trkpt>
<trkpt lat="52.48976135253906" lon="13.413329124450684">
<ele>135.89999389648438</ele>
<time>2014-02-16T16:38:14Z</time>
</trkpt>
<trkpt lat="52.48970031738281" lon="13.413313865661621">
<ele>139.0</ele>
<time>2014-02-16T16:38:16Z</time>
</trkpt>
<trkpt lat="52.489646911621094" lon="13.413324356079102">
<ele>139.8000030517578</ele>
<time>2014-02-16T16:38:17Z</time>
</trkpt>
<trkpt lat="52.489601135253906" lon="13.413341522216797">
<ele>140.89999389648438</ele>
<time>2014-02-16T16:38:18Z</time>
</trkpt>
<trkpt lat="52.48954772949219" lon="13.413350105285645">
<ele>142.0</ele>
<time>2014-02-16T16:38:19Z</time>
</trkpt>
<trkpt lat="52.489505767822266" lon="13.413383483886719">
<ele>144.10000610351562</ele>
<time>2014-02-16T16:38:21Z</time>
</trkpt>
<trkpt lat="52.48904800415039" lon="13.413352966308594">
<ele>128.3000030517578</ele>
<time>2014-02-16T16:38:21Z</time>
</trkpt>
<trkpt lat="52.48899841308594" lon="13.413352966308594">
<ele>128.3000030517578</ele>
<time>2014-02-16T16:38:23Z</time>
</trkpt>
<trkpt lat="52.48894500732422" lon="13.413374900817871">
<ele>125.80000305175781</ele>
<time>2014-02-16T16:38:24Z</time>
</trkpt>
<trkpt lat="52.48888397216797" lon="13.413381576538086">
<ele>123.80000305175781</ele>
<time>2014-02-16T16:38:27Z</time>
</trkpt>
<trkpt lat="52.488826751708984" lon="13.413397789001465">
<ele>115.80000305175781</ele>
<time>2014-02-16T16:38:29Z</time>
</trkpt>
<trkpt lat="52.48878479003906" lon="13.413440704345703">
<ele>113.69999694824219</ele>
<time>2014-02-16T16:38:31Z</time>
</trkpt>
<trkpt lat="52.48871994018555" lon="13.413421630859375">
<ele>107.0</ele>
<time>2014-02-16T16:38:34Z</time>
</trkpt>
<trkpt lat="52.488670349121094" lon="13.41340446472168">
<ele>101.5</ele>
<time>2014-02-16T16:38:37Z</time>
</trkpt>
<trkpt lat="52.488624572753906" lon="13.413429260253906">
<ele>100.69999694824219</ele>
<time>2014-02-16T16:38:38Z</time>
</trkpt>
<trkpt lat="52.48857498168945" lon="13.413461685180664">
<ele>99.5</ele>
<time>2014-02-16T16:38:39Z</time>
</trkpt>
<trkpt lat="52.488529205322266" lon="13.413511276245117">
<ele>97.5</ele>
<time>2014-02-16T16:38:40Z</time>
</trkpt>
<trkpt lat="52.48847579956055" lon="13.41354751586914">
<ele>94.5</ele>
<time>2014-02-16T16:38:42Z</time>
</trkpt>
<trkpt lat="52.4884147644043" lon="13.413562774658203">
<ele>85.5999984741211</ele>
<time>2014-02-16T16:38:45Z</time>
</trkpt>
<trkpt lat="52.48836898803711" lon="13.413604736328125">
<ele>83.30000305175781</ele>
<time>2014-02-16T16:38:47Z</time>
</trkpt>
<trkpt lat="52.48833084106445" lon="13.413684844970703">
<ele>80.9000015258789</ele>
<time>2014-02-16T16:38:49Z</time>
</trkpt>
<trkpt lat="52.48832702636719" lon="13.413775444030762">
<ele>79.80000305175781</ele>
<time>2014-02-16T16:38:52Z</time>
</trkpt>
<trkpt lat="52.48833084106445" lon="13.41385555267334">
<ele>77.9000015258789</ele>
<time>2014-02-16T16:38:53Z</time>
</trkpt>
<trkpt lat="52.48832702636719" lon="13.413980484008789">
<ele>76.80000305175781</ele>
<time>2014-02-16T16:38:56Z</time>
</trkpt>
<trkpt lat="52.4882698059082" lon="13.414030075073242">
<ele>76.69999694824219</ele>
<time>2014-02-16T16:38:58Z</time>
</trkpt>
<trkpt lat="52.48820495605469" lon="13.414020538330078">
<ele>77.9000015258789</ele>
<time>2014-02-16T16:39:01Z</time>
</trkpt>
<trkpt lat="52.488136291503906" lon="13.414053916931152">
<ele>78.0</ele>
<time>2014-02-16T16:39:03Z</time>
</trkpt>
<trkpt lat="52.488075256347656" lon="13.414124488830566">
<ele>77.30000305175781</ele>
<time>2014-02-16T16:39:04Z</time>
</trkpt>
<trkpt lat="52.48807907104492" lon="13.414241790771484">
<ele>77.5999984741211</ele>
<time>2014-02-16T16:39:06Z</time>
</trkpt>
<trkpt lat="52.48807907104492" lon="13.414359092712402">
<ele>77.30000305175781</ele>
<time>2014-02-16T16:39:09Z</time>
</trkpt>
<trkpt lat="52.48807144165039" lon="13.414488792419434">
<ele>76.80000305175781</ele>
<time>2014-02-16T16:39:11Z</time>
</trkpt>
<trkpt lat="52.48805236816406" lon="13.41462516784668">
<ele>76.5999984741211</ele>
<time>2014-02-16T16:39:13Z</time>
</trkpt>
<trkpt lat="52.488037109375" lon="13.41475772857666">
<ele>76.0999984741211</ele>
<time>2014-02-16T16:39:15Z</time>
</trkpt>
<trkpt lat="52.488014221191406" lon="13.414896011352539">
<ele>75.0999984741211</ele>
<time>2014-02-16T16:39:16Z</time>
</trkpt>
<trkpt lat="52.487998962402344" lon="13.415033340454102">
<ele>74.5999984741211</ele>
<time>2014-02-16T16:39:19Z</time>
</trkpt>
<trkpt lat="52.48798751831055" lon="13.415108680725098">
<ele>74.4000015258789</ele>
<time>2014-02-16T16:39:20Z</time>
</trkpt>
<trkpt lat="52.48797607421875" lon="13.415257453918457">
<ele>74.5</ele>
<time>2014-02-16T16:39:22Z</time>
</trkpt>
<trkpt lat="52.487972259521484" lon="13.415332794189453">
<ele>74.69999694824219</ele>
<time>2014-02-16T16:39:23Z</time>
</trkpt>
<trkpt lat="52.48796081542969" lon="13.415410995483398">
<ele>74.9000015258789</ele>
<time>2014-02-16T16:39:24Z</time>
</trkpt>
<trkpt lat="52.487945556640625" lon="13.415552139282227">
<ele>75.19999694824219</ele>
<time>2014-02-16T16:39:25Z</time>
</trkpt>
<trkpt lat="52.48793029785156" lon="13.415634155273438">
<ele>74.5</ele>
<time>2014-02-16T16:39:27Z</time>
</trkpt>
<trkpt lat="52.48792266845703" lon="13.415714263916016">
<ele>75.69999694824219</ele>
<time>2014-02-16T16:39:28Z</time>
</trkpt>
<trkpt lat="52.487918853759766" lon="13.41579532623291">
<ele>76.0</ele>
<time>2014-02-16T16:39:29Z</time>
</trkpt>
<trkpt lat="52.487911224365234" lon="13.415870666503906">
<ele>76.5</ele>
<time>2014-02-16T16:39:30Z</time>
</trkpt>
<trkpt lat="52.48789978027344" lon="13.415945053100586">
<ele>76.5999984741211</ele>
<time>2014-02-16T16:39:31Z</time>
</trkpt>
<trkpt lat="52.487892150878906" lon="13.416023254394531">
<ele>76.80000305175781</ele>
<time>2014-02-16T16:39:32Z</time>
</trkpt>
<trkpt lat="52.487884521484375" lon="13.416101455688477">
<ele>76.5</ele>
<time>2014-02-16T16:39:32Z</time>
</trkpt>
<trkpt lat="52.487876892089844" lon="13.416179656982422">
<ele>76.5</ele>
<time>2014-02-16T16:39:34Z</time>
</trkpt>
<trkpt lat="52.48786163330078" lon="13.416258811950684">
<ele>76.5</ele>
<time>2014-02-16T16:39:35Z</time>
</trkpt>
<trkpt lat="52.487850189208984" lon="13.416337966918945">
<ele>76.4000015258789</ele>
<time>2014-02-16T16:39:36Z</time>
</trkpt>
<trkpt lat="52.48784637451172" lon="13.416411399841309">
<ele>76.5999984741211</ele>
<time>2014-02-16T16:39:37Z</time>
</trkpt>
<trkpt lat="52.48783493041992" lon="13.416494369506836">
<ele>76.5999984741211</ele>
<time>2014-02-16T16:39:38Z</time>
</trkpt>
<trkpt lat="52.487831115722656" lon="13.416570663452148">
<ele>76.9000015258789</ele>
<time>2014-02-16T16:39:39Z</time>
</trkpt>
<trkpt lat="52.48781967163086" lon="13.416644096374512">
<ele>77.0999984741211</ele>
<time>2014-02-16T16:39:39Z</time>
</trkpt>
<trkpt lat="52.48781204223633" lon="13.416716575622559">
<ele>77.4000015258789</ele>
<time>2014-02-16T16:39:41Z</time>
</trkpt>
<trkpt lat="52.4878044128418" lon="13.416793823242188">
<ele>77.80000305175781</ele>
<time>2014-02-16T16:39:41Z</time>
</trkpt>
<trkpt lat="52.48779296875" lon="13.416872024536133">
<ele>77.0999984741211</ele>
<time>2014-02-16T16:39:43Z</time>
</trkpt>
<trkpt lat="52.4877815246582" lon="13.416948318481445">
<ele>76.80000305175781</ele>
<time>2014-02-16T16:39:44Z</time>
</trkpt>
<trkpt lat="52.487770080566406" lon="13.417032241821289">
<ele>76.80000305175781</ele>
<time>2014-02-16T16:39:44Z</time>
</trkpt>
<trkpt lat="52.48774337768555" lon="13.4171142578125">
<ele>75.69999694824219</ele>
<time>2014-02-16T16:39:46Z</time>
</trkpt>
<trkpt lat="52.48772430419922" lon="13.417193412780762">
<ele>75.0</ele>
<time>2014-02-16T16:39:47Z</time>
</trkpt>
<trkpt lat="52.48774337768555" lon="13.417354583740234">
<ele>79.30000305175781</ele>
<time>2014-02-16T16:39:49Z</time>
</trkpt>
<trkpt lat="52.48772430419922" lon="13.417430877685547">
<ele>79.5999984741211</ele>
<time>2014-02-16T16:39:50Z</time>
</trkpt>
<trkpt lat="52.48772048950195" lon="13.41751766204834">
<ele>79.9000015258789</ele>
<time>2014-02-16T16:39:51Z</time>
</trkpt>
<trkpt lat="52.487709045410156" lon="13.417600631713867">
<ele>79.0</ele>
<time>2014-02-16T16:39:52Z</time>
</trkpt>
<trkpt lat="52.487693786621094" lon="13.417681694030762">
<ele>78.9000015258789</ele>
<time>2014-02-16T16:39:53Z</time>
</trkpt>
<trkpt lat="52.487674713134766" lon="13.41776180267334">
<ele>79.0999984741211</ele>
<time>2014-02-16T16:39:53Z</time>
</trkpt>
<trkpt lat="52.487674713134766" lon="13.41783618927002">
<ele>79.5</ele>
<time>2014-02-16T16:39:55Z</time>
</trkpt>
<trkpt lat="52.48766326904297" lon="13.41792106628418">
<ele>79.0</ele>
<time>2014-02-16T16:39:56Z</time>
</trkpt>
<trkpt lat="52.48765182495117" lon="13.41800308227539">
<ele>79.80000305175781</ele>
<time>2014-02-16T16:39:57Z</time>
</trkpt>
<trkpt lat="52.487640380859375" lon="13.418081283569336">
<ele>80.19999694824219</ele>
<time>2014-02-16T16:39:58Z</time>
</trkpt>
<trkpt lat="52.48762893676758" lon="13.418164253234863">
<ele>80.19999694824219</ele>
<time>2014-02-16T16:39:59Z</time>
</trkpt>
<trkpt lat="52.487613677978516" lon="13.418253898620605">
<ele>80.5</ele>
<time>2014-02-16T16:40:00Z</time>
</trkpt>
<trkpt lat="52.487586975097656" lon="13.41836166381836">
<ele>81.5999984741211</ele>
<time>2014-02-16T16:40:01Z</time>
</trkpt>
<trkpt lat="52.487579345703125" lon="13.41844654083252">
<ele>83.30000305175781</ele>
<time>2014-02-16T16:40:02Z</time>
</trkpt>
<trkpt lat="52.48757553100586" lon="13.418535232543945">
<ele>85.0</ele>
<time>2014-02-16T16:40:03Z</time>
</trkpt>
<trkpt lat="52.487571716308594" lon="13.418621063232422">
<ele>85.5</ele>
<time>2014-02-16T16:40:04Z</time>
</trkpt>
<trkpt lat="52.48754119873047" lon="13.41869068145752">
<ele>83.9000015258789</ele>
<time>2014-02-16T16:40:05Z</time>
</trkpt>
<trkpt lat="52.48752975463867" lon="13.418773651123047">
<ele>83.9000015258789</ele>
<time>2014-02-16T16:40:06Z</time>
</trkpt>
<trkpt lat="52.487518310546875" lon="13.418864250183105">
<ele>84.9000015258789</ele>
<time>2014-02-16T16:40:07Z</time>
</trkpt>
<trkpt lat="52.48749923706055" lon="13.418951988220215">
<ele>84.9000015258789</ele>
<time>2014-02-16T16:40:07Z</time>
</trkpt>
<trkpt lat="52.48751449584961" lon="13.419100761413574">
<ele>85.5</ele>
<time>2014-02-16T16:40:10Z</time>
</trkpt>
<trkpt lat="52.48747253417969" lon="13.419267654418945">
<ele>85.30000305175781</ele>
<time>2014-02-16T16:40:12Z</time>
</trkpt>
<trkpt lat="52.48744583129883" lon="13.419342994689941">
<ele>84.5</ele>
<time>2014-02-16T16:40:13Z</time>
</trkpt>
<trkpt lat="52.48743438720703" lon="13.419425010681152">
<ele>84.5999984741211</ele>
<time>2014-02-16T16:40:14Z</time>
</trkpt>
<trkpt lat="52.4874153137207" lon="13.41950798034668">
<ele>84.0</ele>
<time>2014-02-16T16:40:15Z</time>
</trkpt>
<trkpt lat="52.48741912841797" lon="13.419634819030762">
<ele>82.0</ele>
<time>2014-02-16T16:40:17Z</time>
</trkpt>
<trkpt lat="52.487422943115234" lon="13.419711112976074">
<ele>82.30000305175781</ele>
<time>2014-02-16T16:40:18Z</time>
</trkpt>
<trkpt lat="52.48741149902344" lon="13.41978645324707">
<ele>82.19999694824219</ele>
<time>2014-02-16T16:40:19Z</time>
</trkpt>
<trkpt lat="52.487396240234375" lon="13.419870376586914">
<ele>81.19999694824219</ele>
<time>2014-02-16T16:40:19Z</time>
</trkpt>
<trkpt lat="52.48739242553711" lon="13.419944763183594">
<ele>81.30000305175781</ele>
<time>2014-02-16T16:40:21Z</time>
</trkpt>
<trkpt lat="52.48737716674805" lon="13.420029640197754">
<ele>80.5999984741211</ele>
<time>2014-02-16T16:40:22Z</time>
</trkpt>
<trkpt lat="52.48736572265625" lon="13.4201021194458">
<ele>80.0999984741211</ele>
<time>2014-02-16T16:40:23Z</time>
</trkpt>
<trkpt lat="52.48734664916992" lon="13.420238494873047">
<ele>80.80000305175781</ele>
<time>2014-02-16T16:40:25Z</time>
</trkpt>
<trkpt lat="52.48733139038086" lon="13.420373916625977">
<ele>80.80000305175781</ele>
<time>2014-02-16T16:40:27Z</time>
</trkpt>
<trkpt lat="52.48732376098633" lon="13.420502662658691">
<ele>80.30000305175781</ele>
<time>2014-02-16T16:40:28Z</time>
</trkpt>
<trkpt lat="52.487308502197266" lon="13.420615196228027">
<ele>79.30000305175781</ele>
<time>2014-02-16T16:40:31Z</time>
</trkpt>
<trkpt lat="52.48728942871094" lon="13.420722961425781">
<ele>78.80000305175781</ele>
<time>2014-02-16T16:40:33Z</time>
</trkpt>
<trkpt lat="52.487266540527344" lon="13.420817375183105">
<ele>77.19999694824219</ele>
<time>2014-02-16T16:40:35Z</time>
</trkpt>
<trkpt lat="52.48725128173828" lon="13.420913696289062">
<ele>76.69999694824219</ele>
<time>2014-02-16T16:40:37Z</time>
</trkpt>
<trkpt lat="52.48722839355469" lon="13.42099666595459">
<ele>75.30000305175781</ele>
<time>2014-02-16T16:40:40Z</time>
</trkpt>
<trkpt lat="52.48719024658203" lon="13.421036720275879">
<ele>73.9000015258789</ele>
<time>2014-02-16T16:40:52Z</time>
</trkpt>
<trkpt lat="52.48716354370117" lon="13.42113971710205">
<ele>73.30000305175781</ele>
<time>2014-02-16T16:40:55Z</time>
</trkpt>
<trkpt lat="52.48713302612305" lon="13.421262741088867">
<ele>73.19999694824219</ele>
<time>2014-02-16T16:40:57Z</time>
</trkpt>
<trkpt lat="52.48710250854492" lon="13.421390533447266">
<ele>73.0999984741211</ele>
<time>2014-02-16T16:40:59Z</time>
</trkpt>
<trkpt lat="52.487064361572266" lon="13.421514511108398">
<ele>72.69999694824219</ele>
<time>2014-02-16T16:41:00Z</time>
</trkpt>
<trkpt lat="52.48703384399414" lon="13.421627044677734">
<ele>71.9000015258789</ele>
<time>2014-02-16T16:41:03Z</time>
</trkpt>
<trkpt lat="52.487003326416016" lon="13.421743392944336">
<ele>71.5999984741211</ele>
<time>2014-02-16T16:41:05Z</time>
</trkpt>
<trkpt lat="52.486968994140625" lon="13.421867370605469">
<ele>71.30000305175781</ele>
<time>2014-02-16T16:41:07Z</time>
</trkpt>
<trkpt lat="52.486934661865234" lon="13.42198371887207">
<ele>70.5999984741211</ele>
<time>2014-02-16T16:41:09Z</time>
</trkpt>
<trkpt lat="52.486907958984375" lon="13.422117233276367">
<ele>71.5</ele>
<time>2014-02-16T16:41:11Z</time>
</trkpt>
<trkpt lat="52.48687744140625" lon="13.422240257263184">
<ele>72.30000305175781</ele>
<time>2014-02-16T16:41:13Z</time>
</trkpt>
<trkpt lat="52.486846923828125" lon="13.42236328125">
<ele>72.30000305175781</ele>
<time>2014-02-16T16:41:15Z</time>
</trkpt>
<trkpt lat="52.486812591552734" lon="13.422483444213867">
<ele>72.80000305175781</ele>
<time>2014-02-16T16:41:17Z</time>
</trkpt>
<trkpt lat="52.48677444458008" lon="13.422612190246582">
<ele>72.9000015258789</ele>
<time>2014-02-16T16:41:19Z</time>
</trkpt>
<trkpt lat="52.48674011230469" lon="13.422728538513184">
<ele>73.0999984741211</ele>
<time>2014-02-16T16:41:21Z</time>
</trkpt>
<trkpt lat="52.48670959472656" lon="13.422842979431152">
<ele>73.9000015258789</ele>
<time>2014-02-16T16:41:23Z</time>
</trkpt>
<trkpt lat="52.4866828918457" lon="13.422962188720703">
<ele>74.69999694824219</ele>
<time>2014-02-16T16:41:25Z</time>
</trkpt>
<trkpt lat="52.48664093017578" lon="13.423065185546875">
<ele>74.80000305175781</ele>
<time>2014-02-16T16:41:27Z</time>
</trkpt>
<trkpt lat="52.486595153808594" lon="13.423186302185059">
<ele>75.0</ele>
<time>2014-02-16T16:41:29Z</time>
</trkpt>
<trkpt lat="52.486568450927734" lon="13.423261642456055">
<ele>77.0999984741211</ele>
<time>2014-02-16T16:41:30Z</time>
</trkpt>
<trkpt lat="52.48654556274414" lon="13.423332214355469">
<ele>78.19999694824219</ele>
<time>2014-02-16T16:41:31Z</time>
</trkpt>
<trkpt lat="52.48651123046875" lon="13.423421859741211">
<ele>78.9000015258789</ele>
<time>2014-02-16T16:41:31Z</time>
</trkpt>
<trkpt lat="52.48647689819336" lon="13.423494338989258">
<ele>79.4000015258789</ele>
<time>2014-02-16T16:41:33Z</time>
</trkpt>
<trkpt lat="52.48644256591797" lon="13.423563957214355">
<ele>79.9000015258789</ele>
<time>2014-02-16T16:41:34Z</time>
</trkpt>
<trkpt lat="52.486419677734375" lon="13.423646926879883">
<ele>80.0999984741211</ele>
<time>2014-02-16T16:41:35Z</time>
</trkpt>
<trkpt lat="52.48639678955078" lon="13.42371654510498">
<ele>80.30000305175781</ele>
<time>2014-02-16T16:41:35Z</time>
</trkpt>
<trkpt lat="52.48640060424805" lon="13.423819541931152">
<ele>81.80000305175781</ele>
<time>2014-02-16T16:41:38Z</time>
</trkpt>
<trkpt lat="52.48637390136719" lon="13.423892974853516">
<ele>82.0</ele>
<time>2014-02-16T16:41:40Z</time>
</trkpt>
<trkpt lat="52.48634338378906" lon="13.424013137817383">
<ele>81.69999694824219</ele>
<time>2014-02-16T16:41:42Z</time>
</trkpt>
<trkpt lat="52.48632049560547" lon="13.424080848693848">
<ele>81.69999694824219</ele>
<time>2014-02-16T16:41:43Z</time>
</trkpt>
<trkpt lat="52.486289978027344" lon="13.424168586730957">
<ele>78.69999694824219</ele>
<time>2014-02-16T16:41:45Z</time>
</trkpt>
<trkpt lat="52.48626708984375" lon="13.424242973327637">
<ele>78.5</ele>
<time>2014-02-16T16:41:46Z</time>
</trkpt>
<trkpt lat="52.48623275756836" lon="13.424300193786621">
<ele>77.80000305175781</ele>
<time>2014-02-16T16:41:47Z</time>
</trkpt>
<trkpt lat="52.4861946105957" lon="13.42442798614502">
<ele>77.19999694824219</ele>
<time>2014-02-16T16:41:49Z</time>
</trkpt>
<trkpt lat="52.48614501953125" lon="13.424553871154785">
<ele>76.5</ele>
<time>2014-02-16T16:41:50Z</time>
</trkpt>
<trkpt lat="52.48611831665039" lon="13.424617767333984">
<ele>76.0999984741211</ele>
<time>2014-02-16T16:41:52Z</time>
</trkpt>
<trkpt lat="52.4860954284668" lon="13.424678802490234">
<ele>75.9000015258789</ele>
<time>2014-02-16T16:41:53Z</time>
</trkpt>
<trkpt lat="52.486045837402344" lon="13.424793243408203">
<ele>74.9000015258789</ele>
<time>2014-02-16T16:41:55Z</time>
</trkpt>
<trkpt lat="52.48600387573242" lon="13.424901962280273">
<ele>73.80000305175781</ele>
<time>2014-02-16T16:41:57Z</time>
</trkpt>
<trkpt lat="52.48595428466797" lon="13.42502498626709">
<ele>73.19999694824219</ele>
<time>2014-02-16T16:41:59Z</time>
</trkpt>
<trkpt lat="52.48592758178711" lon="13.425092697143555">
<ele>73.0999984741211</ele>
<time>2014-02-16T16:42:00Z</time>
</trkpt>
<trkpt lat="52.48590850830078" lon="13.425209999084473">
<ele>73.4000015258789</ele>
<time>2014-02-16T16:42:01Z</time>
</trkpt>
<trkpt lat="52.485870361328125" lon="13.425298690795898">
<ele>73.4000015258789</ele>
<time>2014-02-16T16:42:03Z</time>
</trkpt>
<trkpt lat="52.4858512878418" lon="13.425368309020996">
<ele>73.30000305175781</ele>
<time>2014-02-16T16:42:04Z</time>
</trkpt>
<trkpt lat="52.48582458496094" lon="13.425432205200195">
<ele>73.5999984741211</ele>
<time>2014-02-16T16:42:05Z</time>
</trkpt>
<trkpt lat="52.48579788208008" lon="13.425498008728027">
<ele>73.5</ele>
<time>2014-02-16T16:42:06Z</time>
</trkpt>
<trkpt lat="52.48577117919922" lon="13.42556095123291">
<ele>73.5999984741211</ele>
<time>2014-02-16T16:42:06Z</time>
</trkpt>
<trkpt lat="52.48574447631836" lon="13.425630569458008">
<ele>74.5</ele>
<time>2014-02-16T16:42:08Z</time>
</trkpt>
<trkpt lat="52.48569107055664" lon="13.425756454467773">
<ele>75.0999984741211</ele>
<time>2014-02-16T16:42:10Z</time>
</trkpt>
<trkpt lat="52.48565673828125" lon="13.425813674926758">
<ele>75.0999984741211</ele>
<time>2014-02-16T16:42:11Z</time>
</trkpt>
<trkpt lat="52.485626220703125" lon="13.42587947845459">
<ele>75.30000305175781</ele>
<time>2014-02-16T16:42:12Z</time>
</trkpt>
<trkpt lat="52.485572814941406" lon="13.426008224487305">
<ele>75.0</ele>
<time>2014-02-16T16:42:14Z</time>
</trkpt>
<trkpt lat="52.485530853271484" lon="13.426064491271973">
<ele>75.0</ele>
<time>2014-02-16T16:42:15Z</time>
</trkpt>
<trkpt lat="52.4854850769043" lon="13.426127433776855">
<ele>74.80000305175781</ele>
<time>2014-02-16T16:42:16Z</time>
</trkpt>
<trkpt lat="52.485443115234375" lon="13.42617416381836">
<ele>75.0999984741211</ele>
<time>2014-02-16T16:42:17Z</time>
</trkpt>
<trkpt lat="52.48540496826172" lon="13.42624568939209">
<ele>75.5999984741211</ele>
<time>2014-02-16T16:42:17Z</time>
</trkpt>
<trkpt lat="52.48537063598633" lon="13.426308631896973">
<ele>75.5999984741211</ele>
<time>2014-02-16T16:42:19Z</time>
</trkpt>
<trkpt lat="52.48534393310547" lon="13.426366806030273">
<ele>75.19999694824219</ele>
<time>2014-02-16T16:42:20Z</time>
</trkpt>
<trkpt lat="52.48529815673828" lon="13.426464080810547">
<ele>73.4000015258789</ele>
<time>2014-02-16T16:42:22Z</time>
</trkpt>
<trkpt lat="52.48524475097656" lon="13.426551818847656">
<ele>72.9000015258789</ele>
<time>2014-02-16T16:42:24Z</time>
</trkpt>
<trkpt lat="52.48521041870117" lon="13.426609992980957">
<ele>73.0</ele>
<time>2014-02-16T16:42:25Z</time>
</trkpt>
<trkpt lat="52.485164642333984" lon="13.426636695861816">
<ele>73.4000015258789</ele>
<time>2014-02-16T16:42:26Z</time>
</trkpt>
<trkpt lat="52.48512649536133" lon="13.426759719848633">
<ele>72.19999694824219</ele>
<time>2014-02-16T16:42:28Z</time>
</trkpt>
<trkpt lat="52.485069274902344" lon="13.426864624023438">
<ele>71.69999694824219</ele>
<time>2014-02-16T16:42:30Z</time>
</trkpt>
<trkpt lat="52.48503494262695" lon="13.426924705505371">
<ele>66.69999694824219</ele>
<time>2014-02-16T16:42:31Z</time>
</trkpt>
<trkpt lat="52.4849853515625" lon="13.427055358886719">
<ele>67.30000305175781</ele>
<time>2014-02-16T16:42:34Z</time>
</trkpt>
<trkpt lat="52.48493576049805" lon="13.42717170715332">
<ele>67.0</ele>
<time>2014-02-16T16:42:36Z</time>
</trkpt>
<trkpt lat="52.48489761352539" lon="13.427252769470215">
<ele>68.5</ele>
<time>2014-02-16T16:42:37Z</time>
</trkpt>
<trkpt lat="52.484867095947266" lon="13.427330017089844">
<ele>70.5999984741211</ele>
<time>2014-02-16T16:42:38Z</time>
</trkpt>
<trkpt lat="52.484840393066406" lon="13.427401542663574">
<ele>71.0</ele>
<time>2014-02-16T16:42:39Z</time>
</trkpt>
<trkpt lat="52.484806060791016" lon="13.427473068237305">
<ele>71.0</ele>
<time>2014-02-16T16:42:40Z</time>
</trkpt>
<trkpt lat="52.48478317260742" lon="13.427544593811035">
<ele>71.19999694824219</ele>
<time>2014-02-16T16:42:41Z</time>
</trkpt>
<trkpt lat="52.4847526550293" lon="13.427660942077637">
<ele>72.19999694824219</ele>
<time>2014-02-16T16:42:42Z</time>
</trkpt>
<trkpt lat="52.4847297668457" lon="13.427733421325684">
<ele>72.80000305175781</ele>
<time>2014-02-16T16:42:43Z</time>
</trkpt>
<trkpt lat="52.484710693359375" lon="13.427806854248047">
<ele>73.69999694824219</ele>
<time>2014-02-16T16:42:43Z</time>
</trkpt>
<trkpt lat="52.484683990478516" lon="13.427873611450195">
<ele>74.0999984741211</ele>
<time>2014-02-16T16:42:45Z</time>
</trkpt>
<trkpt lat="52.4846305847168" lon="13.427964210510254">
<ele>75.0</ele>
<time>2014-02-16T16:42:47Z</time>
</trkpt>
<trkpt lat="52.484588623046875" lon="13.428023338317871">
<ele>74.0999984741211</ele>
<time>2014-02-16T16:42:49Z</time>
</trkpt>
<trkpt lat="52.484554290771484" lon="13.42808723449707">
<ele>73.5</ele>
<time>2014-02-16T16:42:49Z</time>
</trkpt>
<trkpt lat="52.48451614379883" lon="13.428138732910156">
<ele>73.5</ele>
<time>2014-02-16T16:42:51Z</time>
</trkpt>
<trkpt lat="52.484466552734375" lon="13.428242683410645">
<ele>73.19999694824219</ele>
<time>2014-02-16T16:42:53Z</time>
</trkpt>
<trkpt lat="52.484413146972656" lon="13.428335189819336">
<ele>73.30000305175781</ele>
<time>2014-02-16T16:42:55Z</time>
</trkpt>
<trkpt lat="52.48436737060547" lon="13.42843246459961">
<ele>73.0999984741211</ele>
<time>2014-02-16T16:42:57Z</time>
</trkpt>
<trkpt lat="52.48433303833008" lon="13.4285306930542">
<ele>73.30000305175781</ele>
<time>2014-02-16T16:42:59Z</time>
</trkpt>
<trkpt lat="52.48429870605469" lon="13.428643226623535">
<ele>76.9000015258789</ele>
<time>2014-02-16T16:43:02Z</time>
</trkpt>
<trkpt lat="52.48430252075195" lon="13.428727149963379">
<ele>79.5</ele>
<time>2014-02-16T16:43:15Z</time>
</trkpt>
<trkpt lat="52.484283447265625" lon="13.428802490234375">
<ele>80.5999984741211</ele>
<time>2014-02-16T16:43:18Z</time>
</trkpt>
<trkpt lat="52.484214782714844" lon="13.428808212280273">
<ele>81.4000015258789</ele>
<time>2014-02-16T16:43:20Z</time>
</trkpt>
<trkpt lat="52.48411560058594" lon="13.428829193115234">
<ele>80.9000015258789</ele>
<time>2014-02-16T16:43:22Z</time>
</trkpt>
<trkpt lat="52.48404312133789" lon="13.428796768188477">
<ele>82.9000015258789</ele>
<time>2014-02-16T16:43:24Z</time>
</trkpt>
<trkpt lat="52.48380661010742" lon="13.428786277770996">
<ele>86.9000015258789</ele>
<time>2014-02-16T16:43:31Z</time>
</trkpt>
<trkpt lat="52.483741760253906" lon="13.428805351257324">
<ele>87.19999694824219</ele>
<time>2014-02-16T16:43:31Z</time>
</trkpt>
<trkpt lat="52.48367691040039" lon="13.428776741027832">
<ele>88.5</ele>
<time>2014-02-16T16:43:34Z</time>
</trkpt>
<trkpt lat="52.48362731933594" lon="13.428816795349121">
<ele>89.0</ele>
<time>2014-02-16T16:43:34Z</time>
</trkpt>
<trkpt lat="52.48358154296875" lon="13.428848266601562">
<ele>90.0999984741211</ele>
<time>2014-02-16T16:43:36Z</time>
</trkpt>
<trkpt lat="52.4835090637207" lon="13.428866386413574">
<ele>90.19999694824219</ele>
<time>2014-02-16T16:43:37Z</time>
</trkpt>
<trkpt lat="52.483455657958984" lon="13.428908348083496">
<ele>91.5999984741211</ele>
<time>2014-02-16T16:43:39Z</time>
</trkpt>
<trkpt lat="52.48338317871094" lon="13.428912162780762">
<ele>92.80000305175781</ele>
<time>2014-02-16T16:43:40Z</time>
</trkpt>
<trkpt lat="52.483314514160156" lon="13.428914070129395">
<ele>94.30000305175781</ele>
<time>2014-02-16T16:43:43Z</time>
</trkpt>
<trkpt lat="52.483245849609375" lon="13.428882598876953">
<ele>94.69999694824219</ele>
<time>2014-02-16T16:43:45Z</time>
</trkpt>
<trkpt lat="52.483177185058594" lon="13.428916931152344">
<ele>96.0</ele>
<time>2014-02-16T16:43:46Z</time>
</trkpt>
<trkpt lat="52.483123779296875" lon="13.428943634033203">
<ele>96.0999984741211</ele>
<time>2014-02-16T16:43:46Z</time>
</trkpt>
<trkpt lat="52.48306655883789" lon="13.428969383239746">
<ele>97.9000015258789</ele>
<time>2014-02-16T16:43:48Z</time>
</trkpt>
<trkpt lat="52.48301315307617" lon="13.428929328918457">
<ele>99.0</ele>
<time>2014-02-16T16:43:51Z</time>
</trkpt>
<trkpt lat="52.48295211791992" lon="13.428933143615723">
<ele>101.19999694824219</ele>
<time>2014-02-16T16:43:53Z</time>
</trkpt>
<trkpt lat="52.482887268066406" lon="13.428997993469238">
<ele>102.30000305175781</ele>
<time>2014-02-16T16:43:55Z</time>
</trkpt>
<trkpt lat="52.482810974121094" lon="13.428984642028809">
<ele>103.69999694824219</ele>
<time>2014-02-16T16:43:58Z</time>
</trkpt>
<trkpt lat="52.482749938964844" lon="13.42900562286377">
<ele>99.69999694824219</ele>
<time>2014-02-16T16:44:00Z</time>
</trkpt>
<trkpt lat="52.48267364501953" lon="13.428958892822266">
<ele>93.80000305175781</ele>
<time>2014-02-16T16:44:01Z</time>
</trkpt>
<trkpt lat="52.48262405395508" lon="13.428955078125">
<ele>90.4000015258789</ele>
<time>2014-02-16T16:44:03Z</time>
</trkpt>
<trkpt lat="52.482574462890625" lon="13.428950309753418">
<ele>87.80000305175781</ele>
<time>2014-02-16T16:44:05Z</time>
</trkpt>
<trkpt lat="52.48250961303711" lon="13.428967475891113">
<ele>87.0</ele>
<time>2014-02-16T16:44:06Z</time>
</trkpt>
<trkpt lat="52.48246383666992" lon="13.429010391235352">
<ele>86.5</ele>
<time>2014-02-16T16:44:09Z</time>
</trkpt>
<trkpt lat="52.48238754272461" lon="13.429007530212402">
<ele>87.80000305175781</ele>
<time>2014-02-16T16:44:11Z</time>
</trkpt>
<trkpt lat="52.48232650756836" lon="13.429012298583984">
<ele>89.19999694824219</ele>
<time>2014-02-16T16:44:13Z</time>
</trkpt>
<trkpt lat="52.48226547241211" lon="13.429072380065918">
<ele>89.19999694824219</ele>
<time>2014-02-16T16:44:14Z</time>
</trkpt>
<trkpt lat="52.48222351074219" lon="13.429169654846191">
<ele>88.5999984741211</ele>
<time>2014-02-16T16:44:17Z</time>
</trkpt>
<trkpt lat="52.48222351074219" lon="13.429267883300781">
<ele>88.5</ele>
<time>2014-02-16T16:44:19Z</time>
</trkpt>
<trkpt lat="52.482200622558594" lon="13.429389953613281">
<ele>88.5</ele>
<time>2014-02-16T16:44:21Z</time>
</trkpt>
<trkpt lat="52.482177734375" lon="13.429503440856934">
<ele>87.5999984741211</ele>
<time>2014-02-16T16:44:23Z</time>
</trkpt>
<trkpt lat="52.482173919677734" lon="13.429598808288574">
<ele>88.4000015258789</ele>
<time>2014-02-16T16:44:25Z</time>
</trkpt>
<trkpt lat="52.48215103149414" lon="13.429703712463379">
<ele>87.5</ele>
<time>2014-02-16T16:44:27Z</time>
</trkpt>
<trkpt lat="52.482112884521484" lon="13.429792404174805">
<ele>87.0999984741211</ele>
<time>2014-02-16T16:44:28Z</time>
</trkpt>
<trkpt lat="52.482059478759766" lon="13.429874420166016">
<ele>86.30000305175781</ele>
<time>2014-02-16T16:44:31Z</time>
</trkpt>
<trkpt lat="52.48203659057617" lon="13.429964065551758">
<ele>85.5999984741211</ele>
<time>2014-02-16T16:44:32Z</time>
</trkpt>
<trkpt lat="52.481998443603516" lon="13.430045127868652">
<ele>86.5</ele>
<time>2014-02-16T16:44:35Z</time>
</trkpt>
<trkpt lat="52.48195266723633" lon="13.4301176071167">
<ele>86.4000015258789</ele>
<time>2014-02-16T16:44:36Z</time>
</trkpt>
<trkpt lat="52.481876373291016" lon="13.430235862731934">
<ele>82.5999984741211</ele>
<time>2014-02-16T16:44:39Z</time>
</trkpt>
<trkpt lat="52.48184585571289" lon="13.430305480957031">
<ele>81.0999984741211</ele>
<time>2014-02-16T16:44:40Z</time>
</trkpt>
<trkpt lat="52.4818115234375" lon="13.430413246154785">
<ele>80.0999984741211</ele>
<time>2014-02-16T16:44:42Z</time>
</trkpt>
<trkpt lat="52.481781005859375" lon="13.430535316467285">
<ele>79.9000015258789</ele>
<time>2014-02-16T16:44:44Z</time>
</trkpt>
<trkpt lat="52.48176956176758" lon="13.43062973022461">
<ele>80.80000305175781</ele>
<time>2014-02-16T16:44:46Z</time>
</trkpt>
<trkpt lat="52.48181915283203" lon="13.430723190307617">
<ele>81.0</ele>
<time>2014-02-16T16:44:46Z</time>
</trkpt>
<trkpt lat="52.481807708740234" lon="13.430804252624512">
<ele>82.4000015258789</ele>
<time>2014-02-16T16:44:49Z</time>
</trkpt>
<trkpt lat="52.481788635253906" lon="13.430876731872559">
<ele>85.4000015258789</ele>
<time>2014-02-16T16:44:51Z</time>
</trkpt>
<trkpt lat="52.481788635253906" lon="13.430985450744629">
<ele>86.5999984741211</ele>
<time>2014-02-16T16:44:53Z</time>
</trkpt>
<trkpt lat="52.4818000793457" lon="13.43110179901123">
<ele>90.30000305175781</ele>
<time>2014-02-16T16:44:57Z</time>
</trkpt>
<trkpt lat="52.48183059692383" lon="13.431170463562012">
<ele>94.19999694824219</ele>
<time>2014-02-16T16:45:02Z</time>
</trkpt>
<trkpt lat="52.481788635253906" lon="13.43122386932373">
<ele>97.5</ele>
<time>2014-02-16T16:45:13Z</time>
</trkpt>
<trkpt lat="52.481773376464844" lon="13.431313514709473">
<ele>100.69999694824219</ele>
<time>2014-02-16T16:45:16Z</time>
</trkpt>
<trkpt lat="52.48169708251953" lon="13.431315422058105">
<ele>104.5</ele>
<time>2014-02-16T16:45:19Z</time>
</trkpt>
<trkpt lat="52.481651306152344" lon="13.431288719177246">
<ele>106.0999984741211</ele>
<time>2014-02-16T16:45:21Z</time>
</trkpt>
<trkpt lat="52.48160171508789" lon="13.431205749511719">
<ele>100.4000015258789</ele>
<time>2014-02-16T16:45:23Z</time>
</trkpt>
<trkpt lat="52.48155212402344" lon="13.431180000305176">
<ele>96.69999694824219</ele>
<time>2014-02-16T16:45:26Z</time>
</trkpt>
<trkpt lat="52.481529235839844" lon="13.431106567382812">
<ele>95.80000305175781</ele>
<time>2014-02-16T16:45:29Z</time>
</trkpt>
</trkseg>
</trk>
</gpx>
